<?xml version="1.0" encoding="UTF-8" standalone="no" ?>
<gpx xmlns="http://www.topografix.com/GPX/1/1" xmlns:xsi="http://www.w3.org/2001/XMLSchema-instance" xsi:schemaLocation="http://www.topografix.com/GPX/1/1 http://www.topografix.com/GPX/1/1/gpx.xsd" version="1.1" creator="VisuGPX - https://www.visugpx.com">
  <metadata>
    <name>150619ROBTraining</name>
    <desc><![CDATA[entrainement fond]]></desc>
  </metadata>
  <trk>
    <name><![CDATA[150617ROBBenjamins]]></name>
    <trkseg>
      <trkpt lat="43.41576" lon="6.07042">
        <ele>211</ele>
        <time>2015-06-17T11:53:44Z</time>
      </trkpt>
      <trkpt lat="43.41576" lon="6.07042">
        <ele>210.60000610352</ele>
        <time>2015-06-17T11:53:45Z</time>
      </trkpt>
      <trkpt lat="43.41576" lon="6.07044">
        <ele>211</ele>
        <time>2015-06-17T11:53:59Z</time>
      </trkpt>
      <trkpt lat="43.41576" lon="6.07043">
        <ele>211.19999694824</ele>
        <time>2015-06-17T11:54:19Z</time>
      </trkpt>
      <trkpt lat="43.41576" lon="6.07043">
        <ele>211</ele>
        <time>2015-06-17T11:54:34Z</time>
      </trkpt>
      <trkpt lat="43.41576" lon="6.07042">
        <ele>211</ele>
        <time>2015-06-17T11:54:36Z</time>
      </trkpt>
      <trkpt lat="43.41576" lon="6.07042">
        <ele>211</ele>
        <time>2015-06-17T11:54:38Z</time>
      </trkpt>
      <trkpt lat="43.41576" lon="6.07042">
        <ele>211</ele>
        <time>2015-06-17T11:54:40Z</time>
      </trkpt>
      <trkpt lat="43.41576" lon="6.07042">
        <ele>210.80000305176</ele>
        <time>2015-06-17T11:54:42Z</time>
      </trkpt>
      <trkpt lat="43.41575" lon="6.07042">
        <ele>211</ele>
        <time>2015-06-17T11:54:44Z</time>
      </trkpt>
      <trkpt lat="43.41575" lon="6.07043">
        <ele>210.80000305176</ele>
        <time>2015-06-17T11:54:46Z</time>
      </trkpt>
      <trkpt lat="43.41575" lon="6.07043">
        <ele>210.80000305176</ele>
        <time>2015-06-17T11:54:48Z</time>
      </trkpt>
      <trkpt lat="43.41575" lon="6.07043">
        <ele>210.60000610352</ele>
        <time>2015-06-17T11:54:50Z</time>
      </trkpt>
      <trkpt lat="43.41575" lon="6.07043">
        <ele>210.80000305176</ele>
        <time>2015-06-17T11:54:52Z</time>
      </trkpt>
      <trkpt lat="43.41575" lon="6.07043">
        <ele>211</ele>
        <time>2015-06-17T11:54:53Z</time>
      </trkpt>
      <trkpt lat="43.41575" lon="6.07043">
        <ele>210.80000305176</ele>
        <time>2015-06-17T11:54:54Z</time>
      </trkpt>
      <trkpt lat="43.41574" lon="6.07043">
        <ele>210.80000305176</ele>
        <time>2015-06-17T11:54:56Z</time>
      </trkpt>
      <trkpt lat="43.41574" lon="6.07043">
        <ele>210.60000610352</ele>
        <time>2015-06-17T11:54:58Z</time>
      </trkpt>
      <trkpt lat="43.41574" lon="6.07042">
        <ele>210.60000610352</ele>
        <time>2015-06-17T11:55:00Z</time>
      </trkpt>
      <trkpt lat="43.41574" lon="6.07042">
        <ele>210.60000610352</ele>
        <time>2015-06-17T11:55:02Z</time>
      </trkpt>
      <trkpt lat="43.41574" lon="6.07042">
        <ele>210.60000610352</ele>
        <time>2015-06-17T11:55:04Z</time>
      </trkpt>
      <trkpt lat="43.41574" lon="6.07042">
        <ele>210.60000610352</ele>
        <time>2015-06-17T11:55:06Z</time>
      </trkpt>
      <trkpt lat="43.41574" lon="6.07042">
        <ele>210.80000305176</ele>
        <time>2015-06-17T11:55:08Z</time>
      </trkpt>
      <trkpt lat="43.41574" lon="6.07042">
        <ele>210.80000305176</ele>
        <time>2015-06-17T11:55:10Z</time>
      </trkpt>
      <trkpt lat="43.41574" lon="6.07042">
        <ele>210.80000305176</ele>
        <time>2015-06-17T11:55:12Z</time>
      </trkpt>
      <trkpt lat="43.41574" lon="6.07042">
        <ele>210.80000305176</ele>
        <time>2015-06-17T11:55:14Z</time>
      </trkpt>
      <trkpt lat="43.41574" lon="6.07042">
        <ele>210.80000305176</ele>
        <time>2015-06-17T11:55:16Z</time>
      </trkpt>
      <trkpt lat="43.41574" lon="6.07042">
        <ele>211</ele>
        <time>2015-06-17T11:55:18Z</time>
      </trkpt>
      <trkpt lat="43.41574" lon="6.07041">
        <ele>210.80000305176</ele>
        <time>2015-06-17T11:55:20Z</time>
      </trkpt>
      <trkpt lat="43.41574" lon="6.07041">
        <ele>210.60000610352</ele>
        <time>2015-06-17T11:55:22Z</time>
      </trkpt>
      <trkpt lat="43.41574" lon="6.07041">
        <ele>210.60000610352</ele>
        <time>2015-06-17T11:55:24Z</time>
      </trkpt>
      <trkpt lat="43.41574" lon="6.07041">
        <ele>210.60000610352</ele>
        <time>2015-06-17T11:55:26Z</time>
      </trkpt>
      <trkpt lat="43.41573" lon="6.07041">
        <ele>210.60000610352</ele>
        <time>2015-06-17T11:55:28Z</time>
      </trkpt>
      <trkpt lat="43.41573" lon="6.07041">
        <ele>210.60000610352</ele>
        <time>2015-06-17T11:55:30Z</time>
      </trkpt>
      <trkpt lat="43.41573" lon="6.07041">
        <ele>210.60000610352</ele>
        <time>2015-06-17T11:55:32Z</time>
      </trkpt>
      <trkpt lat="43.41573" lon="6.07041">
        <ele>210.39999389648</ele>
        <time>2015-06-17T11:55:34Z</time>
      </trkpt>
      <trkpt lat="43.41573" lon="6.07041">
        <ele>210.60000610352</ele>
        <time>2015-06-17T11:55:36Z</time>
      </trkpt>
      <trkpt lat="43.41573" lon="6.07041">
        <ele>210.60000610352</ele>
        <time>2015-06-17T11:55:38Z</time>
      </trkpt>
      <trkpt lat="43.41573" lon="6.07041">
        <ele>210.60000610352</ele>
        <time>2015-06-17T11:55:40Z</time>
      </trkpt>
      <trkpt lat="43.41574" lon="6.0704">
        <ele>210.39999389648</ele>
        <time>2015-06-17T11:55:42Z</time>
      </trkpt>
      <trkpt lat="43.41574" lon="6.0704">
        <ele>210.39999389648</ele>
        <time>2015-06-17T11:55:44Z</time>
      </trkpt>
      <trkpt lat="43.41574" lon="6.0704">
        <ele>210.39999389648</ele>
        <time>2015-06-17T11:55:46Z</time>
      </trkpt>
      <trkpt lat="43.41574" lon="6.0704">
        <ele>210.60000610352</ele>
        <time>2015-06-17T11:55:48Z</time>
      </trkpt>
      <trkpt lat="43.41574" lon="6.0704">
        <ele>210.60000610352</ele>
        <time>2015-06-17T11:55:50Z</time>
      </trkpt>
      <trkpt lat="43.41574" lon="6.0704">
        <ele>210.60000610352</ele>
        <time>2015-06-17T11:55:52Z</time>
      </trkpt>
      <trkpt lat="43.41574" lon="6.0704">
        <ele>210.80000305176</ele>
        <time>2015-06-17T11:55:54Z</time>
      </trkpt>
      <trkpt lat="43.41574" lon="6.0704">
        <ele>210.60000610352</ele>
        <time>2015-06-17T11:55:56Z</time>
      </trkpt>
      <trkpt lat="43.41574" lon="6.0704">
        <ele>210.60000610352</ele>
        <time>2015-06-17T11:55:58Z</time>
      </trkpt>
      <trkpt lat="43.41574" lon="6.0704">
        <ele>210.60000610352</ele>
        <time>2015-06-17T11:56:00Z</time>
      </trkpt>
      <trkpt lat="43.41574" lon="6.0704">
        <ele>210.60000610352</ele>
        <time>2015-06-17T11:56:02Z</time>
      </trkpt>
      <trkpt lat="43.41574" lon="6.0704">
        <ele>210.60000610352</ele>
        <time>2015-06-17T11:56:04Z</time>
      </trkpt>
      <trkpt lat="43.41574" lon="6.0704">
        <ele>210.60000610352</ele>
        <time>2015-06-17T11:56:05Z</time>
      </trkpt>
      <trkpt lat="43.41574" lon="6.0704">
        <ele>210.80000305176</ele>
        <time>2015-06-17T11:56:06Z</time>
      </trkpt>
      <trkpt lat="43.41574" lon="6.07041">
        <ele>210.80000305176</ele>
        <time>2015-06-17T11:56:08Z</time>
      </trkpt>
      <trkpt lat="43.41574" lon="6.07041">
        <ele>210.80000305176</ele>
        <time>2015-06-17T11:56:10Z</time>
      </trkpt>
      <trkpt lat="43.41574" lon="6.07041">
        <ele>210.80000305176</ele>
        <time>2015-06-17T11:56:12Z</time>
      </trkpt>
      <trkpt lat="43.41575" lon="6.07041">
        <ele>210.80000305176</ele>
        <time>2015-06-17T11:56:14Z</time>
      </trkpt>
      <trkpt lat="43.41575" lon="6.07041">
        <ele>210.60000610352</ele>
        <time>2015-06-17T11:56:16Z</time>
      </trkpt>
      <trkpt lat="43.41575" lon="6.07042">
        <ele>210.60000610352</ele>
        <time>2015-06-17T11:56:18Z</time>
      </trkpt>
      <trkpt lat="43.41575" lon="6.07042">
        <ele>210.60000610352</ele>
        <time>2015-06-17T11:56:20Z</time>
      </trkpt>
      <trkpt lat="43.41576" lon="6.07043">
        <ele>210.60000610352</ele>
        <time>2015-06-17T11:56:22Z</time>
      </trkpt>
      <trkpt lat="43.41576" lon="6.07043">
        <ele>210.60000610352</ele>
        <time>2015-06-17T11:56:24Z</time>
      </trkpt>
      <trkpt lat="43.41575" lon="6.07043">
        <ele>210.60000610352</ele>
        <time>2015-06-17T11:56:26Z</time>
      </trkpt>
      <trkpt lat="43.41575" lon="6.07043">
        <ele>210.60000610352</ele>
        <time>2015-06-17T11:56:28Z</time>
      </trkpt>
      <trkpt lat="43.41575" lon="6.07043">
        <ele>210.80000305176</ele>
        <time>2015-06-17T11:56:30Z</time>
      </trkpt>
      <trkpt lat="43.41576" lon="6.07043">
        <ele>210.80000305176</ele>
        <time>2015-06-17T11:56:32Z</time>
      </trkpt>
      <trkpt lat="43.41575" lon="6.07042">
        <ele>210.60000610352</ele>
        <time>2015-06-17T11:56:34Z</time>
      </trkpt>
      <trkpt lat="43.41575" lon="6.07042">
        <ele>210.60000610352</ele>
        <time>2015-06-17T11:56:36Z</time>
      </trkpt>
      <trkpt lat="43.41575" lon="6.07042">
        <ele>210.60000610352</ele>
        <time>2015-06-17T11:56:38Z</time>
      </trkpt>
      <trkpt lat="43.41575" lon="6.07042">
        <ele>210.39999389648</ele>
        <time>2015-06-17T11:56:40Z</time>
      </trkpt>
      <trkpt lat="43.41575" lon="6.07042">
        <ele>210.39999389648</ele>
        <time>2015-06-17T11:56:42Z</time>
      </trkpt>
      <trkpt lat="43.41575" lon="6.07042">
        <ele>210.60000610352</ele>
        <time>2015-06-17T11:56:44Z</time>
      </trkpt>
      <trkpt lat="43.41575" lon="6.07042">
        <ele>210.80000305176</ele>
        <time>2015-06-17T11:56:46Z</time>
      </trkpt>
      <trkpt lat="43.41576" lon="6.07042">
        <ele>210.80000305176</ele>
        <time>2015-06-17T11:56:48Z</time>
      </trkpt>
      <trkpt lat="43.41576" lon="6.07042">
        <ele>210.80000305176</ele>
        <time>2015-06-17T11:56:50Z</time>
      </trkpt>
      <trkpt lat="43.41576" lon="6.07042">
        <ele>210.80000305176</ele>
        <time>2015-06-17T11:56:52Z</time>
      </trkpt>
      <trkpt lat="43.41576" lon="6.07044">
        <ele>210.60000610352</ele>
        <time>2015-06-17T11:56:54Z</time>
      </trkpt>
      <trkpt lat="43.41577" lon="6.07045">
        <ele>210.60000610352</ele>
        <time>2015-06-17T11:56:55Z</time>
      </trkpt>
      <trkpt lat="43.41577" lon="6.07047">
        <ele>210.60000610352</ele>
        <time>2015-06-17T11:56:56Z</time>
      </trkpt>
      <trkpt lat="43.41577" lon="6.07052">
        <ele>210.60000610352</ele>
        <time>2015-06-17T11:56:58Z</time>
      </trkpt>
      <trkpt lat="43.41578" lon="6.0706">
        <ele>210.60000610352</ele>
        <time>2015-06-17T11:57:00Z</time>
      </trkpt>
      <trkpt lat="43.41579" lon="6.07067">
        <ele>210.80000305176</ele>
        <time>2015-06-17T11:57:02Z</time>
      </trkpt>
      <trkpt lat="43.41579" lon="6.07075">
        <ele>211.19999694824</ele>
        <time>2015-06-17T11:57:04Z</time>
      </trkpt>
      <trkpt lat="43.4158" lon="6.07079">
        <ele>211.19999694824</ele>
        <time>2015-06-17T11:57:05Z</time>
      </trkpt>
      <trkpt lat="43.4158" lon="6.07082">
        <ele>211.39999389648</ele>
        <time>2015-06-17T11:57:06Z</time>
      </trkpt>
      <trkpt lat="43.41581" lon="6.07089">
        <ele>211</ele>
        <time>2015-06-17T11:57:08Z</time>
      </trkpt>
      <trkpt lat="43.41582" lon="6.07096">
        <ele>210.60000610352</ele>
        <time>2015-06-17T11:57:10Z</time>
      </trkpt>
      <trkpt lat="43.41581" lon="6.07102">
        <ele>210.39999389648</ele>
        <time>2015-06-17T11:57:12Z</time>
      </trkpt>
      <trkpt lat="43.4158" lon="6.07103">
        <ele>210.39999389648</ele>
        <time>2015-06-17T11:57:13Z</time>
      </trkpt>
      <trkpt lat="43.41579" lon="6.07104">
        <ele>210.39999389648</ele>
        <time>2015-06-17T11:57:14Z</time>
      </trkpt>
      <trkpt lat="43.41577" lon="6.07107">
        <ele>210.39999389648</ele>
        <time>2015-06-17T11:57:16Z</time>
      </trkpt>
      <trkpt lat="43.41574" lon="6.07109">
        <ele>210.39999389648</ele>
        <time>2015-06-17T11:57:17Z</time>
      </trkpt>
      <trkpt lat="43.41572" lon="6.07112">
        <ele>210.60000610352</ele>
        <time>2015-06-17T11:57:18Z</time>
      </trkpt>
      <trkpt lat="43.41567" lon="6.07116">
        <ele>210.60000610352</ele>
        <time>2015-06-17T11:57:20Z</time>
      </trkpt>
      <trkpt lat="43.41564" lon="6.07117">
        <ele>210.39999389648</ele>
        <time>2015-06-17T11:57:21Z</time>
      </trkpt>
      <trkpt lat="43.4156" lon="6.07119">
        <ele>210.39999389648</ele>
        <time>2015-06-17T11:57:22Z</time>
      </trkpt>
      <trkpt lat="43.41552" lon="6.07119">
        <ele>210.39999389648</ele>
        <time>2015-06-17T11:57:24Z</time>
      </trkpt>
      <trkpt lat="43.41549" lon="6.07117">
        <ele>210.39999389648</ele>
        <time>2015-06-17T11:57:25Z</time>
      </trkpt>
      <trkpt lat="43.41547" lon="6.07114">
        <ele>210.39999389648</ele>
        <time>2015-06-17T11:57:26Z</time>
      </trkpt>
      <trkpt lat="43.41545" lon="6.07105">
        <ele>210.39999389648</ele>
        <time>2015-06-17T11:57:28Z</time>
      </trkpt>
      <trkpt lat="43.41545" lon="6.07097">
        <ele>210.39999389648</ele>
        <time>2015-06-17T11:57:30Z</time>
      </trkpt>
      <trkpt lat="43.41543" lon="6.07088">
        <ele>210.39999389648</ele>
        <time>2015-06-17T11:57:32Z</time>
      </trkpt>
      <trkpt lat="43.41539" lon="6.07081">
        <ele>210.39999389648</ele>
        <time>2015-06-17T11:57:34Z</time>
      </trkpt>
      <trkpt lat="43.41533" lon="6.07079">
        <ele>210.19999694824</ele>
        <time>2015-06-17T11:57:36Z</time>
      </trkpt>
      <trkpt lat="43.41528" lon="6.07079">
        <ele>210</ele>
        <time>2015-06-17T11:57:37Z</time>
      </trkpt>
      <trkpt lat="43.41524" lon="6.0708">
        <ele>210</ele>
        <time>2015-06-17T11:57:38Z</time>
      </trkpt>
      <trkpt lat="43.41516" lon="6.07082">
        <ele>209.60000610352</ele>
        <time>2015-06-17T11:57:40Z</time>
      </trkpt>
      <trkpt lat="43.41508" lon="6.07084">
        <ele>209.19999694824</ele>
        <time>2015-06-17T11:57:42Z</time>
      </trkpt>
      <trkpt lat="43.415" lon="6.07086">
        <ele>209.19999694824</ele>
        <time>2015-06-17T11:57:44Z</time>
      </trkpt>
      <trkpt lat="43.41492" lon="6.07084">
        <ele>209</ele>
        <time>2015-06-17T11:57:46Z</time>
      </trkpt>
      <trkpt lat="43.41484" lon="6.0708">
        <ele>209.19999694824</ele>
        <time>2015-06-17T11:57:48Z</time>
      </trkpt>
      <trkpt lat="43.4148" lon="6.07079">
        <ele>209.19999694824</ele>
        <time>2015-06-17T11:57:49Z</time>
      </trkpt>
      <trkpt lat="43.41476" lon="6.07078">
        <ele>209.19999694824</ele>
        <time>2015-06-17T11:57:50Z</time>
      </trkpt>
      <trkpt lat="43.41471" lon="6.07076">
        <ele>209.19999694824</ele>
        <time>2015-06-17T11:57:52Z</time>
      </trkpt>
      <trkpt lat="43.41468" lon="6.07074">
        <ele>208.80000305176</ele>
        <time>2015-06-17T11:57:54Z</time>
      </trkpt>
      <trkpt lat="43.41467" lon="6.07074">
        <ele>208.60000610352</ele>
        <time>2015-06-17T11:57:55Z</time>
      </trkpt>
      <trkpt lat="43.41467" lon="6.07073">
        <ele>208.39999389648</ele>
        <time>2015-06-17T11:57:56Z</time>
      </trkpt>
      <trkpt lat="43.41466" lon="6.07073">
        <ele>208.19999694824</ele>
        <time>2015-06-17T11:57:58Z</time>
      </trkpt>
      <trkpt lat="43.41466" lon="6.07073">
        <ele>208.19999694824</ele>
        <time>2015-06-17T11:57:59Z</time>
      </trkpt>
      <trkpt lat="43.41466" lon="6.07073">
        <ele>208.19999694824</ele>
        <time>2015-06-17T11:58:00Z</time>
      </trkpt>
      <trkpt lat="43.41466" lon="6.07072">
        <ele>208.19999694824</ele>
        <time>2015-06-17T11:58:02Z</time>
      </trkpt>
      <trkpt lat="43.41465" lon="6.07069">
        <ele>208.19999694824</ele>
        <time>2015-06-17T11:58:04Z</time>
      </trkpt>
      <trkpt lat="43.41468" lon="6.07063">
        <ele>208</ele>
        <time>2015-06-17T11:58:06Z</time>
      </trkpt>
      <trkpt lat="43.41471" lon="6.07056">
        <ele>207.80000305176</ele>
        <time>2015-06-17T11:58:08Z</time>
      </trkpt>
      <trkpt lat="43.41476" lon="6.07046">
        <ele>208.19999694824</ele>
        <time>2015-06-17T11:58:10Z</time>
      </trkpt>
      <trkpt lat="43.41478" lon="6.07041">
        <ele>208.39999389648</ele>
        <time>2015-06-17T11:58:11Z</time>
      </trkpt>
      <trkpt lat="43.41481" lon="6.07035">
        <ele>208.39999389648</ele>
        <time>2015-06-17T11:58:12Z</time>
      </trkpt>
      <trkpt lat="43.41486" lon="6.07022">
        <ele>208.60000610352</ele>
        <time>2015-06-17T11:58:14Z</time>
      </trkpt>
      <trkpt lat="43.41491" lon="6.0701">
        <ele>208.80000305176</ele>
        <time>2015-06-17T11:58:16Z</time>
      </trkpt>
      <trkpt lat="43.41492" lon="6.06996">
        <ele>209.19999694824</ele>
        <time>2015-06-17T11:58:18Z</time>
      </trkpt>
      <trkpt lat="43.41492" lon="6.06989">
        <ele>209.39999389648</ele>
        <time>2015-06-17T11:58:19Z</time>
      </trkpt>
      <trkpt lat="43.41491" lon="6.06982">
        <ele>209.60000610352</ele>
        <time>2015-06-17T11:58:20Z</time>
      </trkpt>
      <trkpt lat="43.4149" lon="6.06975">
        <ele>209.60000610352</ele>
        <time>2015-06-17T11:58:21Z</time>
      </trkpt>
      <trkpt lat="43.41488" lon="6.06969">
        <ele>209.39999389648</ele>
        <time>2015-06-17T11:58:22Z</time>
      </trkpt>
      <trkpt lat="43.41482" lon="6.06957">
        <ele>209.39999389648</ele>
        <time>2015-06-17T11:58:24Z</time>
      </trkpt>
      <trkpt lat="43.41475" lon="6.06947">
        <ele>209.60000610352</ele>
        <time>2015-06-17T11:58:26Z</time>
      </trkpt>
      <trkpt lat="43.41472" lon="6.06942">
        <ele>209.80000305176</ele>
        <time>2015-06-17T11:58:27Z</time>
      </trkpt>
      <trkpt lat="43.41468" lon="6.06938">
        <ele>209.80000305176</ele>
        <time>2015-06-17T11:58:28Z</time>
      </trkpt>
      <trkpt lat="43.41463" lon="6.0693">
        <ele>210</ele>
        <time>2015-06-17T11:58:30Z</time>
      </trkpt>
      <trkpt lat="43.4146" lon="6.06923">
        <ele>210</ele>
        <time>2015-06-17T11:58:32Z</time>
      </trkpt>
      <trkpt lat="43.41461" lon="6.06915">
        <ele>210.19999694824</ele>
        <time>2015-06-17T11:58:34Z</time>
      </trkpt>
      <trkpt lat="43.41462" lon="6.06904">
        <ele>210.39999389648</ele>
        <time>2015-06-17T11:58:36Z</time>
      </trkpt>
      <trkpt lat="43.41461" lon="6.06891">
        <ele>210.80000305176</ele>
        <time>2015-06-17T11:58:38Z</time>
      </trkpt>
      <trkpt lat="43.4146" lon="6.06884">
        <ele>210.80000305176</ele>
        <time>2015-06-17T11:58:39Z</time>
      </trkpt>
      <trkpt lat="43.41456" lon="6.06877">
        <ele>211</ele>
        <time>2015-06-17T11:58:40Z</time>
      </trkpt>
      <trkpt lat="43.41452" lon="6.06872">
        <ele>211</ele>
        <time>2015-06-17T11:58:41Z</time>
      </trkpt>
      <trkpt lat="43.41448" lon="6.06868">
        <ele>210.80000305176</ele>
        <time>2015-06-17T11:58:42Z</time>
      </trkpt>
      <trkpt lat="43.41438" lon="6.06864">
        <ele>210.80000305176</ele>
        <time>2015-06-17T11:58:44Z</time>
      </trkpt>
      <trkpt lat="43.41433" lon="6.06863">
        <ele>210.80000305176</ele>
        <time>2015-06-17T11:58:45Z</time>
      </trkpt>
      <trkpt lat="43.41427" lon="6.06863">
        <ele>210.80000305176</ele>
        <time>2015-06-17T11:58:46Z</time>
      </trkpt>
      <trkpt lat="43.41415" lon="6.06861">
        <ele>210.60000610352</ele>
        <time>2015-06-17T11:58:48Z</time>
      </trkpt>
      <trkpt lat="43.41404" lon="6.06854">
        <ele>210.39999389648</ele>
        <time>2015-06-17T11:58:50Z</time>
      </trkpt>
      <trkpt lat="43.41394" lon="6.06845">
        <ele>210.60000610352</ele>
        <time>2015-06-17T11:58:52Z</time>
      </trkpt>
      <trkpt lat="43.41384" lon="6.06836">
        <ele>211</ele>
        <time>2015-06-17T11:58:54Z</time>
      </trkpt>
      <trkpt lat="43.41373" lon="6.06829">
        <ele>211</ele>
        <time>2015-06-17T11:58:56Z</time>
      </trkpt>
      <trkpt lat="43.41367" lon="6.06826">
        <ele>211</ele>
        <time>2015-06-17T11:58:57Z</time>
      </trkpt>
      <trkpt lat="43.41362" lon="6.06824">
        <ele>211.19999694824</ele>
        <time>2015-06-17T11:58:58Z</time>
      </trkpt>
      <trkpt lat="43.41351" lon="6.06819">
        <ele>211.39999389648</ele>
        <time>2015-06-17T11:59:00Z</time>
      </trkpt>
      <trkpt lat="43.41341" lon="6.06814">
        <ele>210.80000305176</ele>
        <time>2015-06-17T11:59:02Z</time>
      </trkpt>
      <trkpt lat="43.4133" lon="6.06808">
        <ele>210.39999389648</ele>
        <time>2015-06-17T11:59:04Z</time>
      </trkpt>
      <trkpt lat="43.41319" lon="6.06802">
        <ele>210</ele>
        <time>2015-06-17T11:59:06Z</time>
      </trkpt>
      <trkpt lat="43.41308" lon="6.06795">
        <ele>210.19999694824</ele>
        <time>2015-06-17T11:59:08Z</time>
      </trkpt>
      <trkpt lat="43.41298" lon="6.06786">
        <ele>209.80000305176</ele>
        <time>2015-06-17T11:59:10Z</time>
      </trkpt>
      <trkpt lat="43.41294" lon="6.06781">
        <ele>209.60000610352</ele>
        <time>2015-06-17T11:59:11Z</time>
      </trkpt>
      <trkpt lat="43.4129" lon="6.06776">
        <ele>209.39999389648</ele>
        <time>2015-06-17T11:59:12Z</time>
      </trkpt>
      <trkpt lat="43.41283" lon="6.06765">
        <ele>209.19999694824</ele>
        <time>2015-06-17T11:59:14Z</time>
      </trkpt>
      <trkpt lat="43.41277" lon="6.06752">
        <ele>209</ele>
        <time>2015-06-17T11:59:16Z</time>
      </trkpt>
      <trkpt lat="43.41274" lon="6.06745">
        <ele>209</ele>
        <time>2015-06-17T11:59:17Z</time>
      </trkpt>
      <trkpt lat="43.41273" lon="6.06738">
        <ele>209</ele>
        <time>2015-06-17T11:59:18Z</time>
      </trkpt>
      <trkpt lat="43.41271" lon="6.06724">
        <ele>208.80000305176</ele>
        <time>2015-06-17T11:59:20Z</time>
      </trkpt>
      <trkpt lat="43.4127" lon="6.06711">
        <ele>209</ele>
        <time>2015-06-17T11:59:22Z</time>
      </trkpt>
      <trkpt lat="43.41268" lon="6.06699">
        <ele>209.19999694824</ele>
        <time>2015-06-17T11:59:24Z</time>
      </trkpt>
      <trkpt lat="43.41266" lon="6.0669">
        <ele>209.39999389648</ele>
        <time>2015-06-17T11:59:26Z</time>
      </trkpt>
      <trkpt lat="43.41261" lon="6.06686">
        <ele>209.60000610352</ele>
        <time>2015-06-17T11:59:28Z</time>
      </trkpt>
      <trkpt lat="43.41256" lon="6.06687">
        <ele>209.39999389648</ele>
        <time>2015-06-17T11:59:30Z</time>
      </trkpt>
      <trkpt lat="43.41253" lon="6.06688">
        <ele>209.19999694824</ele>
        <time>2015-06-17T11:59:31Z</time>
      </trkpt>
      <trkpt lat="43.41251" lon="6.06688">
        <ele>208.80000305176</ele>
        <time>2015-06-17T11:59:32Z</time>
      </trkpt>
      <trkpt lat="43.41248" lon="6.0669">
        <ele>208.19999694824</ele>
        <time>2015-06-17T11:59:34Z</time>
      </trkpt>
      <trkpt lat="43.41247" lon="6.06691">
        <ele>208</ele>
        <time>2015-06-17T11:59:35Z</time>
      </trkpt>
      <trkpt lat="43.41246" lon="6.06691">
        <ele>207.60000610352</ele>
        <time>2015-06-17T11:59:36Z</time>
      </trkpt>
      <trkpt lat="43.41246" lon="6.06692">
        <ele>207.39999389648</ele>
        <time>2015-06-17T11:59:38Z</time>
      </trkpt>
      <trkpt lat="43.41245" lon="6.06692">
        <ele>207.39999389648</ele>
        <time>2015-06-17T11:59:40Z</time>
      </trkpt>
      <trkpt lat="43.41245" lon="6.06692">
        <ele>207.60000610352</ele>
        <time>2015-06-17T11:59:42Z</time>
      </trkpt>
      <trkpt lat="43.41245" lon="6.06692">
        <ele>207.80000305176</ele>
        <time>2015-06-17T11:59:43Z</time>
      </trkpt>
      <trkpt lat="43.41245" lon="6.06692">
        <ele>207.80000305176</ele>
        <time>2015-06-17T11:59:44Z</time>
      </trkpt>
      <trkpt lat="43.41245" lon="6.06692">
        <ele>207.60000610352</ele>
        <time>2015-06-17T11:59:46Z</time>
      </trkpt>
      <trkpt lat="43.41244" lon="6.06693">
        <ele>207.60000610352</ele>
        <time>2015-06-17T11:59:48Z</time>
      </trkpt>
      <trkpt lat="43.41244" lon="6.06695">
        <ele>207.60000610352</ele>
        <time>2015-06-17T11:59:49Z</time>
      </trkpt>
      <trkpt lat="43.41243" lon="6.06697">
        <ele>207.39999389648</ele>
        <time>2015-06-17T11:59:50Z</time>
      </trkpt>
      <trkpt lat="43.41244" lon="6.06699">
        <ele>207.19999694824</ele>
        <time>2015-06-17T11:59:51Z</time>
      </trkpt>
      <trkpt lat="43.41244" lon="6.06702">
        <ele>207.19999694824</ele>
        <time>2015-06-17T11:59:52Z</time>
      </trkpt>
      <trkpt lat="43.41245" lon="6.06707">
        <ele>207.39999389648</ele>
        <time>2015-06-17T11:59:54Z</time>
      </trkpt>
      <trkpt lat="43.41246" lon="6.0671">
        <ele>207.39999389648</ele>
        <time>2015-06-17T11:59:56Z</time>
      </trkpt>
      <trkpt lat="43.41246" lon="6.06711">
        <ele>207.60000610352</ele>
        <time>2015-06-17T11:59:57Z</time>
      </trkpt>
      <trkpt lat="43.41246" lon="6.06713">
        <ele>207.60000610352</ele>
        <time>2015-06-17T11:59:58Z</time>
      </trkpt>
      <trkpt lat="43.41243" lon="6.06713">
        <ele>207.39999389648</ele>
        <time>2015-06-17T12:00:00Z</time>
      </trkpt>
      <trkpt lat="43.4124" lon="6.06712">
        <ele>207.39999389648</ele>
        <time>2015-06-17T12:00:01Z</time>
      </trkpt>
      <trkpt lat="43.41237" lon="6.06712">
        <ele>207</ele>
        <time>2015-06-17T12:00:02Z</time>
      </trkpt>
      <trkpt lat="43.41234" lon="6.06711">
        <ele>206.60000610352</ele>
        <time>2015-06-17T12:00:03Z</time>
      </trkpt>
      <trkpt lat="43.4123" lon="6.06712">
        <ele>206.39999389648</ele>
        <time>2015-06-17T12:00:04Z</time>
      </trkpt>
      <trkpt lat="43.41224" lon="6.06712">
        <ele>206</ele>
        <time>2015-06-17T12:00:06Z</time>
      </trkpt>
      <trkpt lat="43.41218" lon="6.06712">
        <ele>206.19999694824</ele>
        <time>2015-06-17T12:00:08Z</time>
      </trkpt>
      <trkpt lat="43.41214" lon="6.06713">
        <ele>206</ele>
        <time>2015-06-17T12:00:10Z</time>
      </trkpt>
      <trkpt lat="43.41213" lon="6.06713">
        <ele>206</ele>
        <time>2015-06-17T12:00:11Z</time>
      </trkpt>
      <trkpt lat="43.41211" lon="6.06713">
        <ele>206.19999694824</ele>
        <time>2015-06-17T12:00:12Z</time>
      </trkpt>
      <trkpt lat="43.41206" lon="6.06712">
        <ele>206.19999694824</ele>
        <time>2015-06-17T12:00:14Z</time>
      </trkpt>
      <trkpt lat="43.412" lon="6.06711">
        <ele>205.80000305176</ele>
        <time>2015-06-17T12:00:16Z</time>
      </trkpt>
      <trkpt lat="43.41197" lon="6.06711">
        <ele>205.39999389648</ele>
        <time>2015-06-17T12:00:17Z</time>
      </trkpt>
      <trkpt lat="43.41194" lon="6.0671">
        <ele>205</ele>
        <time>2015-06-17T12:00:18Z</time>
      </trkpt>
      <trkpt lat="43.41187" lon="6.0671">
        <ele>205.19999694824</ele>
        <time>2015-06-17T12:00:20Z</time>
      </trkpt>
      <trkpt lat="43.41181" lon="6.0671">
        <ele>205.19999694824</ele>
        <time>2015-06-17T12:00:22Z</time>
      </trkpt>
      <trkpt lat="43.41175" lon="6.0671">
        <ele>205.60000610352</ele>
        <time>2015-06-17T12:00:24Z</time>
      </trkpt>
      <trkpt lat="43.41167" lon="6.0671">
        <ele>205.80000305176</ele>
        <time>2015-06-17T12:00:26Z</time>
      </trkpt>
      <trkpt lat="43.41164" lon="6.0671">
        <ele>205.80000305176</ele>
        <time>2015-06-17T12:00:27Z</time>
      </trkpt>
      <trkpt lat="43.4116" lon="6.06711">
        <ele>205.60000610352</ele>
        <time>2015-06-17T12:00:28Z</time>
      </trkpt>
      <trkpt lat="43.41156" lon="6.06712">
        <ele>205.39999389648</ele>
        <time>2015-06-17T12:00:29Z</time>
      </trkpt>
      <trkpt lat="43.41153" lon="6.06713">
        <ele>205.39999389648</ele>
        <time>2015-06-17T12:00:30Z</time>
      </trkpt>
      <trkpt lat="43.41147" lon="6.06714">
        <ele>205.19999694824</ele>
        <time>2015-06-17T12:00:32Z</time>
      </trkpt>
      <trkpt lat="43.41141" lon="6.06716">
        <ele>205.39999389648</ele>
        <time>2015-06-17T12:00:34Z</time>
      </trkpt>
      <trkpt lat="43.41137" lon="6.06718">
        <ele>205.39999389648</ele>
        <time>2015-06-17T12:00:35Z</time>
      </trkpt>
      <trkpt lat="43.41134" lon="6.0672">
        <ele>205</ele>
        <time>2015-06-17T12:00:36Z</time>
      </trkpt>
      <trkpt lat="43.41127" lon="6.06724">
        <ele>205.39999389648</ele>
        <time>2015-06-17T12:00:38Z</time>
      </trkpt>
      <trkpt lat="43.41121" lon="6.06728">
        <ele>205.39999389648</ele>
        <time>2015-06-17T12:00:40Z</time>
      </trkpt>
      <trkpt lat="43.41113" lon="6.06735">
        <ele>205.39999389648</ele>
        <time>2015-06-17T12:00:42Z</time>
      </trkpt>
      <trkpt lat="43.41106" lon="6.06742">
        <ele>205.19999694824</ele>
        <time>2015-06-17T12:00:44Z</time>
      </trkpt>
      <trkpt lat="43.41103" lon="6.06744">
        <ele>205</ele>
        <time>2015-06-17T12:00:45Z</time>
      </trkpt>
      <trkpt lat="43.41099" lon="6.06747">
        <ele>205</ele>
        <time>2015-06-17T12:00:46Z</time>
      </trkpt>
      <trkpt lat="43.41095" lon="6.06751">
        <ele>205</ele>
        <time>2015-06-17T12:00:48Z</time>
      </trkpt>
      <trkpt lat="43.41091" lon="6.06757">
        <ele>204.80000305176</ele>
        <time>2015-06-17T12:00:50Z</time>
      </trkpt>
      <trkpt lat="43.41088" lon="6.06767">
        <ele>204.80000305176</ele>
        <time>2015-06-17T12:00:52Z</time>
      </trkpt>
      <trkpt lat="43.41085" lon="6.06777">
        <ele>204.80000305176</ele>
        <time>2015-06-17T12:00:54Z</time>
      </trkpt>
      <trkpt lat="43.41085" lon="6.06782">
        <ele>204.60000610352</ele>
        <time>2015-06-17T12:00:55Z</time>
      </trkpt>
      <trkpt lat="43.41084" lon="6.06787">
        <ele>204.60000610352</ele>
        <time>2015-06-17T12:00:56Z</time>
      </trkpt>
      <trkpt lat="43.41082" lon="6.06798">
        <ele>204.60000610352</ele>
        <time>2015-06-17T12:00:58Z</time>
      </trkpt>
      <trkpt lat="43.4108" lon="6.06808">
        <ele>204.80000305176</ele>
        <time>2015-06-17T12:01:00Z</time>
      </trkpt>
      <trkpt lat="43.41077" lon="6.06817">
        <ele>204.60000610352</ele>
        <time>2015-06-17T12:01:02Z</time>
      </trkpt>
      <trkpt lat="43.41072" lon="6.06825">
        <ele>204.80000305176</ele>
        <time>2015-06-17T12:01:04Z</time>
      </trkpt>
      <trkpt lat="43.4107" lon="6.06836">
        <ele>205</ele>
        <time>2015-06-17T12:01:06Z</time>
      </trkpt>
      <trkpt lat="43.41068" lon="6.06846">
        <ele>205.19999694824</ele>
        <time>2015-06-17T12:01:08Z</time>
      </trkpt>
      <trkpt lat="43.41068" lon="6.06852">
        <ele>205.19999694824</ele>
        <time>2015-06-17T12:01:09Z</time>
      </trkpt>
      <trkpt lat="43.41065" lon="6.06859">
        <ele>205.19999694824</ele>
        <time>2015-06-17T12:01:10Z</time>
      </trkpt>
      <trkpt lat="43.41064" lon="6.06868">
        <ele>205.60000610352</ele>
        <time>2015-06-17T12:01:12Z</time>
      </trkpt>
      <trkpt lat="43.41063" lon="6.0687">
        <ele>206</ele>
        <time>2015-06-17T12:01:13Z</time>
      </trkpt>
      <trkpt lat="43.41061" lon="6.06871">
        <ele>206.39999389648</ele>
        <time>2015-06-17T12:01:14Z</time>
      </trkpt>
      <trkpt lat="43.41056" lon="6.06874">
        <ele>206.39999389648</ele>
        <time>2015-06-17T12:01:16Z</time>
      </trkpt>
      <trkpt lat="43.41051" lon="6.06876">
        <ele>206.19999694824</ele>
        <time>2015-06-17T12:01:18Z</time>
      </trkpt>
      <trkpt lat="43.41048" lon="6.06877">
        <ele>206.19999694824</ele>
        <time>2015-06-17T12:01:19Z</time>
      </trkpt>
      <trkpt lat="43.41045" lon="6.06878">
        <ele>206.19999694824</ele>
        <time>2015-06-17T12:01:20Z</time>
      </trkpt>
      <trkpt lat="43.41037" lon="6.06882">
        <ele>205.39999389648</ele>
        <time>2015-06-17T12:01:22Z</time>
      </trkpt>
      <trkpt lat="43.41028" lon="6.06886">
        <ele>205.19999694824</ele>
        <time>2015-06-17T12:01:24Z</time>
      </trkpt>
      <trkpt lat="43.41022" lon="6.06888">
        <ele>204.80000305176</ele>
        <time>2015-06-17T12:01:26Z</time>
      </trkpt>
      <trkpt lat="43.41018" lon="6.06891">
        <ele>204.80000305176</ele>
        <time>2015-06-17T12:01:28Z</time>
      </trkpt>
      <trkpt lat="43.41016" lon="6.06895">
        <ele>204.80000305176</ele>
        <time>2015-06-17T12:01:30Z</time>
      </trkpt>
      <trkpt lat="43.41014" lon="6.06903">
        <ele>205</ele>
        <time>2015-06-17T12:01:32Z</time>
      </trkpt>
      <trkpt lat="43.41013" lon="6.06906">
        <ele>205.19999694824</ele>
        <time>2015-06-17T12:01:33Z</time>
      </trkpt>
      <trkpt lat="43.4101" lon="6.06909">
        <ele>205.19999694824</ele>
        <time>2015-06-17T12:01:34Z</time>
      </trkpt>
      <trkpt lat="43.41002" lon="6.06914">
        <ele>204.80000305176</ele>
        <time>2015-06-17T12:01:36Z</time>
      </trkpt>
      <trkpt lat="43.40998" lon="6.06917">
        <ele>204.60000610352</ele>
        <time>2015-06-17T12:01:37Z</time>
      </trkpt>
      <trkpt lat="43.40993" lon="6.06919">
        <ele>204.39999389648</ele>
        <time>2015-06-17T12:01:38Z</time>
      </trkpt>
      <trkpt lat="43.40985" lon="6.06923">
        <ele>204.60000610352</ele>
        <time>2015-06-17T12:01:40Z</time>
      </trkpt>
      <trkpt lat="43.40981" lon="6.06926">
        <ele>204.60000610352</ele>
        <time>2015-06-17T12:01:41Z</time>
      </trkpt>
      <trkpt lat="43.40976" lon="6.06928">
        <ele>204.39999389648</ele>
        <time>2015-06-17T12:01:42Z</time>
      </trkpt>
      <trkpt lat="43.40971" lon="6.0693">
        <ele>204.60000610352</ele>
        <time>2015-06-17T12:01:43Z</time>
      </trkpt>
      <trkpt lat="43.40966" lon="6.06932">
        <ele>204.60000610352</ele>
        <time>2015-06-17T12:01:44Z</time>
      </trkpt>
      <trkpt lat="43.40956" lon="6.06936">
        <ele>204.80000305176</ele>
        <time>2015-06-17T12:01:46Z</time>
      </trkpt>
      <trkpt lat="43.40947" lon="6.06939">
        <ele>204.80000305176</ele>
        <time>2015-06-17T12:01:48Z</time>
      </trkpt>
      <trkpt lat="43.40937" lon="6.06942">
        <ele>205</ele>
        <time>2015-06-17T12:01:50Z</time>
      </trkpt>
      <trkpt lat="43.40928" lon="6.06945">
        <ele>205</ele>
        <time>2015-06-17T12:01:52Z</time>
      </trkpt>
      <trkpt lat="43.40919" lon="6.06948">
        <ele>205.19999694824</ele>
        <time>2015-06-17T12:01:54Z</time>
      </trkpt>
      <trkpt lat="43.40911" lon="6.06952">
        <ele>205.19999694824</ele>
        <time>2015-06-17T12:01:56Z</time>
      </trkpt>
      <trkpt lat="43.40908" lon="6.06956">
        <ele>205.19999694824</ele>
        <time>2015-06-17T12:01:57Z</time>
      </trkpt>
      <trkpt lat="43.40905" lon="6.06962">
        <ele>205</ele>
        <time>2015-06-17T12:01:58Z</time>
      </trkpt>
      <trkpt lat="43.40901" lon="6.06972">
        <ele>205.19999694824</ele>
        <time>2015-06-17T12:02:00Z</time>
      </trkpt>
      <trkpt lat="43.40899" lon="6.06976">
        <ele>205.19999694824</ele>
        <time>2015-06-17T12:02:01Z</time>
      </trkpt>
      <trkpt lat="43.40895" lon="6.0698">
        <ele>205</ele>
        <time>2015-06-17T12:02:02Z</time>
      </trkpt>
      <trkpt lat="43.40886" lon="6.06985">
        <ele>205</ele>
        <time>2015-06-17T12:02:04Z</time>
      </trkpt>
      <trkpt lat="43.40881" lon="6.06988">
        <ele>205</ele>
        <time>2015-06-17T12:02:05Z</time>
      </trkpt>
      <trkpt lat="43.40876" lon="6.0699">
        <ele>205.19999694824</ele>
        <time>2015-06-17T12:02:06Z</time>
      </trkpt>
      <trkpt lat="43.40866" lon="6.06993">
        <ele>205.39999389648</ele>
        <time>2015-06-17T12:02:08Z</time>
      </trkpt>
      <trkpt lat="43.40856" lon="6.06997">
        <ele>205.19999694824</ele>
        <time>2015-06-17T12:02:10Z</time>
      </trkpt>
      <trkpt lat="43.40851" lon="6.06999">
        <ele>204.80000305176</ele>
        <time>2015-06-17T12:02:11Z</time>
      </trkpt>
      <trkpt lat="43.40848" lon="6.07002">
        <ele>204.80000305176</ele>
        <time>2015-06-17T12:02:12Z</time>
      </trkpt>
      <trkpt lat="43.40843" lon="6.07006">
        <ele>205.19999694824</ele>
        <time>2015-06-17T12:02:14Z</time>
      </trkpt>
      <trkpt lat="43.4084" lon="6.07009">
        <ele>205.19999694824</ele>
        <time>2015-06-17T12:02:16Z</time>
      </trkpt>
      <trkpt lat="43.40839" lon="6.07012">
        <ele>205</ele>
        <time>2015-06-17T12:02:18Z</time>
      </trkpt>
      <trkpt lat="43.40837" lon="6.07016">
        <ele>205.19999694824</ele>
        <time>2015-06-17T12:02:20Z</time>
      </trkpt>
      <trkpt lat="43.40837" lon="6.07018">
        <ele>205.19999694824</ele>
        <time>2015-06-17T12:02:21Z</time>
      </trkpt>
      <trkpt lat="43.40837" lon="6.0702">
        <ele>205.19999694824</ele>
        <time>2015-06-17T12:02:22Z</time>
      </trkpt>
      <trkpt lat="43.40837" lon="6.07025">
        <ele>205.39999389648</ele>
        <time>2015-06-17T12:02:24Z</time>
      </trkpt>
      <trkpt lat="43.40838" lon="6.07032">
        <ele>205.19999694824</ele>
        <time>2015-06-17T12:02:26Z</time>
      </trkpt>
      <trkpt lat="43.40839" lon="6.07036">
        <ele>205.19999694824</ele>
        <time>2015-06-17T12:02:27Z</time>
      </trkpt>
      <trkpt lat="43.40839" lon="6.07041">
        <ele>205.19999694824</ele>
        <time>2015-06-17T12:02:28Z</time>
      </trkpt>
      <trkpt lat="43.40841" lon="6.07052">
        <ele>205</ele>
        <time>2015-06-17T12:02:30Z</time>
      </trkpt>
      <trkpt lat="43.40842" lon="6.07064">
        <ele>205</ele>
        <time>2015-06-17T12:02:32Z</time>
      </trkpt>
      <trkpt lat="43.40842" lon="6.07071">
        <ele>205</ele>
        <time>2015-06-17T12:02:33Z</time>
      </trkpt>
      <trkpt lat="43.40842" lon="6.07078">
        <ele>205</ele>
        <time>2015-06-17T12:02:34Z</time>
      </trkpt>
      <trkpt lat="43.40842" lon="6.07091">
        <ele>205</ele>
        <time>2015-06-17T12:02:36Z</time>
      </trkpt>
      <trkpt lat="43.40842" lon="6.07099">
        <ele>205</ele>
        <time>2015-06-17T12:02:37Z</time>
      </trkpt>
      <trkpt lat="43.40841" lon="6.07106">
        <ele>205</ele>
        <time>2015-06-17T12:02:38Z</time>
      </trkpt>
      <trkpt lat="43.40839" lon="6.07121">
        <ele>205</ele>
        <time>2015-06-17T12:02:40Z</time>
      </trkpt>
      <trkpt lat="43.40836" lon="6.07135">
        <ele>205</ele>
        <time>2015-06-17T12:02:42Z</time>
      </trkpt>
      <trkpt lat="43.40834" lon="6.07143">
        <ele>204.80000305176</ele>
        <time>2015-06-17T12:02:43Z</time>
      </trkpt>
      <trkpt lat="43.40833" lon="6.0715">
        <ele>205</ele>
        <time>2015-06-17T12:02:44Z</time>
      </trkpt>
      <trkpt lat="43.40829" lon="6.07163">
        <ele>205.60000610352</ele>
        <time>2015-06-17T12:02:46Z</time>
      </trkpt>
      <trkpt lat="43.40827" lon="6.0717">
        <ele>205.80000305176</ele>
        <time>2015-06-17T12:02:47Z</time>
      </trkpt>
      <trkpt lat="43.40824" lon="6.07176">
        <ele>205.39999389648</ele>
        <time>2015-06-17T12:02:48Z</time>
      </trkpt>
      <trkpt lat="43.40819" lon="6.07188">
        <ele>205.19999694824</ele>
        <time>2015-06-17T12:02:50Z</time>
      </trkpt>
      <trkpt lat="43.40813" lon="6.072">
        <ele>205.19999694824</ele>
        <time>2015-06-17T12:02:52Z</time>
      </trkpt>
      <trkpt lat="43.40806" lon="6.07211">
        <ele>205.39999389648</ele>
        <time>2015-06-17T12:02:54Z</time>
      </trkpt>
      <trkpt lat="43.40798" lon="6.0722">
        <ele>205.39999389648</ele>
        <time>2015-06-17T12:02:56Z</time>
      </trkpt>
      <trkpt lat="43.4079" lon="6.07229">
        <ele>205.60000610352</ele>
        <time>2015-06-17T12:02:58Z</time>
      </trkpt>
      <trkpt lat="43.40781" lon="6.07237">
        <ele>205.60000610352</ele>
        <time>2015-06-17T12:03:00Z</time>
      </trkpt>
      <trkpt lat="43.40772" lon="6.07244">
        <ele>205.39999389648</ele>
        <time>2015-06-17T12:03:02Z</time>
      </trkpt>
      <trkpt lat="43.40763" lon="6.0725">
        <ele>205.39999389648</ele>
        <time>2015-06-17T12:03:04Z</time>
      </trkpt>
      <trkpt lat="43.40754" lon="6.07256">
        <ele>205.80000305176</ele>
        <time>2015-06-17T12:03:06Z</time>
      </trkpt>
      <trkpt lat="43.40744" lon="6.07261">
        <ele>206</ele>
        <time>2015-06-17T12:03:08Z</time>
      </trkpt>
      <trkpt lat="43.40735" lon="6.07266">
        <ele>206</ele>
        <time>2015-06-17T12:03:10Z</time>
      </trkpt>
      <trkpt lat="43.40726" lon="6.07271">
        <ele>205.80000305176</ele>
        <time>2015-06-17T12:03:12Z</time>
      </trkpt>
      <trkpt lat="43.40717" lon="6.07276">
        <ele>205.80000305176</ele>
        <time>2015-06-17T12:03:14Z</time>
      </trkpt>
      <trkpt lat="43.40709" lon="6.0728">
        <ele>206.19999694824</ele>
        <time>2015-06-17T12:03:16Z</time>
      </trkpt>
      <trkpt lat="43.40704" lon="6.07283">
        <ele>206.39999389648</ele>
        <time>2015-06-17T12:03:17Z</time>
      </trkpt>
      <trkpt lat="43.407" lon="6.07285">
        <ele>206.60000610352</ele>
        <time>2015-06-17T12:03:18Z</time>
      </trkpt>
      <trkpt lat="43.40692" lon="6.0729">
        <ele>206.80000305176</ele>
        <time>2015-06-17T12:03:20Z</time>
      </trkpt>
      <trkpt lat="43.40684" lon="6.07295">
        <ele>206.80000305176</ele>
        <time>2015-06-17T12:03:22Z</time>
      </trkpt>
      <trkpt lat="43.40676" lon="6.07299">
        <ele>206.80000305176</ele>
        <time>2015-06-17T12:03:24Z</time>
      </trkpt>
      <trkpt lat="43.40668" lon="6.07304">
        <ele>207</ele>
        <time>2015-06-17T12:03:26Z</time>
      </trkpt>
      <trkpt lat="43.4066" lon="6.07308">
        <ele>207.60000610352</ele>
        <time>2015-06-17T12:03:28Z</time>
      </trkpt>
      <trkpt lat="43.40653" lon="6.07313">
        <ele>207.60000610352</ele>
        <time>2015-06-17T12:03:30Z</time>
      </trkpt>
      <trkpt lat="43.40646" lon="6.07317">
        <ele>207.60000610352</ele>
        <time>2015-06-17T12:03:32Z</time>
      </trkpt>
      <trkpt lat="43.40642" lon="6.07319">
        <ele>207.80000305176</ele>
        <time>2015-06-17T12:03:33Z</time>
      </trkpt>
      <trkpt lat="43.40638" lon="6.07322">
        <ele>208.19999694824</ele>
        <time>2015-06-17T12:03:34Z</time>
      </trkpt>
      <trkpt lat="43.40635" lon="6.07324">
        <ele>208.39999389648</ele>
        <time>2015-06-17T12:03:35Z</time>
      </trkpt>
      <trkpt lat="43.40632" lon="6.07325">
        <ele>208.39999389648</ele>
        <time>2015-06-17T12:03:36Z</time>
      </trkpt>
      <trkpt lat="43.40626" lon="6.07324">
        <ele>208.60000610352</ele>
        <time>2015-06-17T12:03:38Z</time>
      </trkpt>
      <trkpt lat="43.40623" lon="6.07323">
        <ele>208.60000610352</ele>
        <time>2015-06-17T12:03:39Z</time>
      </trkpt>
      <trkpt lat="43.40621" lon="6.07321">
        <ele>208.80000305176</ele>
        <time>2015-06-17T12:03:40Z</time>
      </trkpt>
      <trkpt lat="43.40619" lon="6.07319">
        <ele>209</ele>
        <time>2015-06-17T12:03:41Z</time>
      </trkpt>
      <trkpt lat="43.40617" lon="6.07317">
        <ele>209</ele>
        <time>2015-06-17T12:03:42Z</time>
      </trkpt>
      <trkpt lat="43.40615" lon="6.07315">
        <ele>209.19999694824</ele>
        <time>2015-06-17T12:03:43Z</time>
      </trkpt>
      <trkpt lat="43.40614" lon="6.07313">
        <ele>209.19999694824</ele>
        <time>2015-06-17T12:03:44Z</time>
      </trkpt>
      <trkpt lat="43.40611" lon="6.0731">
        <ele>209.39999389648</ele>
        <time>2015-06-17T12:03:46Z</time>
      </trkpt>
      <trkpt lat="43.40609" lon="6.07307">
        <ele>209</ele>
        <time>2015-06-17T12:03:48Z</time>
      </trkpt>
      <trkpt lat="43.40607" lon="6.07306">
        <ele>209.39999389648</ele>
        <time>2015-06-17T12:03:50Z</time>
      </trkpt>
      <trkpt lat="43.40607" lon="6.07305">
        <ele>209.60000610352</ele>
        <time>2015-06-17T12:03:52Z</time>
      </trkpt>
      <trkpt lat="43.40607" lon="6.07305">
        <ele>209.39999389648</ele>
        <time>2015-06-17T12:03:54Z</time>
      </trkpt>
      <trkpt lat="43.40607" lon="6.07305">
        <ele>209.39999389648</ele>
        <time>2015-06-17T12:03:56Z</time>
      </trkpt>
      <trkpt lat="43.40607" lon="6.07305">
        <ele>209.60000610352</ele>
        <time>2015-06-17T12:03:58Z</time>
      </trkpt>
      <trkpt lat="43.40607" lon="6.07305">
        <ele>209.60000610352</ele>
        <time>2015-06-17T12:04:00Z</time>
      </trkpt>
      <trkpt lat="43.40607" lon="6.07305">
        <ele>209.60000610352</ele>
        <time>2015-06-17T12:04:02Z</time>
      </trkpt>
      <trkpt lat="43.40607" lon="6.07305">
        <ele>209.60000610352</ele>
        <time>2015-06-17T12:04:04Z</time>
      </trkpt>
      <trkpt lat="43.40607" lon="6.07305">
        <ele>209.80000305176</ele>
        <time>2015-06-17T12:04:06Z</time>
      </trkpt>
      <trkpt lat="43.40607" lon="6.07305">
        <ele>209.80000305176</ele>
        <time>2015-06-17T12:04:08Z</time>
      </trkpt>
      <trkpt lat="43.40607" lon="6.07305">
        <ele>209.60000610352</ele>
        <time>2015-06-17T12:04:10Z</time>
      </trkpt>
      <trkpt lat="43.40607" lon="6.07305">
        <ele>209.80000305176</ele>
        <time>2015-06-17T12:04:12Z</time>
      </trkpt>
      <trkpt lat="43.40607" lon="6.07305">
        <ele>209.80000305176</ele>
        <time>2015-06-17T12:04:14Z</time>
      </trkpt>
      <trkpt lat="43.40607" lon="6.07305">
        <ele>209.60000610352</ele>
        <time>2015-06-17T12:04:16Z</time>
      </trkpt>
      <trkpt lat="43.40606" lon="6.07303">
        <ele>209.39999389648</ele>
        <time>2015-06-17T12:04:18Z</time>
      </trkpt>
      <trkpt lat="43.40604" lon="6.073">
        <ele>209.39999389648</ele>
        <time>2015-06-17T12:04:20Z</time>
      </trkpt>
      <trkpt lat="43.40599" lon="6.07296">
        <ele>209.80000305176</ele>
        <time>2015-06-17T12:04:22Z</time>
      </trkpt>
      <trkpt lat="43.40597" lon="6.07294">
        <ele>209.80000305176</ele>
        <time>2015-06-17T12:04:23Z</time>
      </trkpt>
      <trkpt lat="43.40594" lon="6.07292">
        <ele>210.19999694824</ele>
        <time>2015-06-17T12:04:24Z</time>
      </trkpt>
      <trkpt lat="43.40587" lon="6.07293">
        <ele>210.60000610352</ele>
        <time>2015-06-17T12:04:26Z</time>
      </trkpt>
      <trkpt lat="43.40584" lon="6.07295">
        <ele>210.60000610352</ele>
        <time>2015-06-17T12:04:27Z</time>
      </trkpt>
      <trkpt lat="43.40581" lon="6.07298">
        <ele>210.80000305176</ele>
        <time>2015-06-17T12:04:28Z</time>
      </trkpt>
      <trkpt lat="43.40574" lon="6.07302">
        <ele>210.80000305176</ele>
        <time>2015-06-17T12:04:30Z</time>
      </trkpt>
      <trkpt lat="43.40567" lon="6.07303">
        <ele>211</ele>
        <time>2015-06-17T12:04:32Z</time>
      </trkpt>
      <trkpt lat="43.40563" lon="6.07302">
        <ele>211</ele>
        <time>2015-06-17T12:04:33Z</time>
      </trkpt>
      <trkpt lat="43.40559" lon="6.07301">
        <ele>211</ele>
        <time>2015-06-17T12:04:34Z</time>
      </trkpt>
      <trkpt lat="43.40554" lon="6.073">
        <ele>211.39999389648</ele>
        <time>2015-06-17T12:04:35Z</time>
      </trkpt>
      <trkpt lat="43.40551" lon="6.07299">
        <ele>211.39999389648</ele>
        <time>2015-06-17T12:04:36Z</time>
      </trkpt>
      <trkpt lat="43.40542" lon="6.07298">
        <ele>211.19999694824</ele>
        <time>2015-06-17T12:04:38Z</time>
      </trkpt>
      <trkpt lat="43.40533" lon="6.07296">
        <ele>211.60000610352</ele>
        <time>2015-06-17T12:04:40Z</time>
      </trkpt>
      <trkpt lat="43.40525" lon="6.07294">
        <ele>211.80000305176</ele>
        <time>2015-06-17T12:04:42Z</time>
      </trkpt>
      <trkpt lat="43.40517" lon="6.0729">
        <ele>211.80000305176</ele>
        <time>2015-06-17T12:04:44Z</time>
      </trkpt>
      <trkpt lat="43.40513" lon="6.07288">
        <ele>211.60000610352</ele>
        <time>2015-06-17T12:04:45Z</time>
      </trkpt>
      <trkpt lat="43.40509" lon="6.07286">
        <ele>211.60000610352</ele>
        <time>2015-06-17T12:04:46Z</time>
      </trkpt>
      <trkpt lat="43.40501" lon="6.07282">
        <ele>211.80000305176</ele>
        <time>2015-06-17T12:04:48Z</time>
      </trkpt>
      <trkpt lat="43.40493" lon="6.0728">
        <ele>212</ele>
        <time>2015-06-17T12:04:50Z</time>
      </trkpt>
      <trkpt lat="43.40486" lon="6.07279">
        <ele>212.19999694824</ele>
        <time>2015-06-17T12:04:52Z</time>
      </trkpt>
      <trkpt lat="43.40482" lon="6.07278">
        <ele>212.19999694824</ele>
        <time>2015-06-17T12:04:53Z</time>
      </trkpt>
      <trkpt lat="43.40479" lon="6.07278">
        <ele>212.19999694824</ele>
        <time>2015-06-17T12:04:54Z</time>
      </trkpt>
      <trkpt lat="43.40471" lon="6.07279">
        <ele>212.39999389648</ele>
        <time>2015-06-17T12:04:56Z</time>
      </trkpt>
      <trkpt lat="43.40464" lon="6.07279">
        <ele>212.60000610352</ele>
        <time>2015-06-17T12:04:58Z</time>
      </trkpt>
      <trkpt lat="43.40457" lon="6.07279">
        <ele>213</ele>
        <time>2015-06-17T12:05:00Z</time>
      </trkpt>
      <trkpt lat="43.40451" lon="6.0728">
        <ele>213.19999694824</ele>
        <time>2015-06-17T12:05:02Z</time>
      </trkpt>
      <trkpt lat="43.40444" lon="6.07281">
        <ele>213.60000610352</ele>
        <time>2015-06-17T12:05:04Z</time>
      </trkpt>
      <trkpt lat="43.40438" lon="6.07281">
        <ele>213.80000305176</ele>
        <time>2015-06-17T12:05:06Z</time>
      </trkpt>
      <trkpt lat="43.40432" lon="6.07281">
        <ele>213.80000305176</ele>
        <time>2015-06-17T12:05:08Z</time>
      </trkpt>
      <trkpt lat="43.40426" lon="6.07282">
        <ele>214</ele>
        <time>2015-06-17T12:05:10Z</time>
      </trkpt>
      <trkpt lat="43.40419" lon="6.07281">
        <ele>214.19999694824</ele>
        <time>2015-06-17T12:05:12Z</time>
      </trkpt>
      <trkpt lat="43.40413" lon="6.07282">
        <ele>214.60000610352</ele>
        <time>2015-06-17T12:05:14Z</time>
      </trkpt>
      <trkpt lat="43.40409" lon="6.07282">
        <ele>214.80000305176</ele>
        <time>2015-06-17T12:05:15Z</time>
      </trkpt>
      <trkpt lat="43.40406" lon="6.07281">
        <ele>214.80000305176</ele>
        <time>2015-06-17T12:05:16Z</time>
      </trkpt>
      <trkpt lat="43.40401" lon="6.07277">
        <ele>215</ele>
        <time>2015-06-17T12:05:18Z</time>
      </trkpt>
      <trkpt lat="43.40396" lon="6.07272">
        <ele>215.39999389648</ele>
        <time>2015-06-17T12:05:20Z</time>
      </trkpt>
      <trkpt lat="43.40392" lon="6.07266">
        <ele>215.60000610352</ele>
        <time>2015-06-17T12:05:22Z</time>
      </trkpt>
      <trkpt lat="43.40387" lon="6.0726">
        <ele>215.60000610352</ele>
        <time>2015-06-17T12:05:24Z</time>
      </trkpt>
      <trkpt lat="43.40382" lon="6.07255">
        <ele>215.80000305176</ele>
        <time>2015-06-17T12:05:26Z</time>
      </trkpt>
      <trkpt lat="43.40377" lon="6.07251">
        <ele>216</ele>
        <time>2015-06-17T12:05:28Z</time>
      </trkpt>
      <trkpt lat="43.40374" lon="6.0725">
        <ele>216</ele>
        <time>2015-06-17T12:05:29Z</time>
      </trkpt>
      <trkpt lat="43.40371" lon="6.07248">
        <ele>216.19999694824</ele>
        <time>2015-06-17T12:05:30Z</time>
      </trkpt>
      <trkpt lat="43.40365" lon="6.07246">
        <ele>216.19999694824</ele>
        <time>2015-06-17T12:05:32Z</time>
      </trkpt>
      <trkpt lat="43.40359" lon="6.07242">
        <ele>216.60000610352</ele>
        <time>2015-06-17T12:05:34Z</time>
      </trkpt>
      <trkpt lat="43.40354" lon="6.07237">
        <ele>216.80000305176</ele>
        <time>2015-06-17T12:05:36Z</time>
      </trkpt>
      <trkpt lat="43.40352" lon="6.07235">
        <ele>216.80000305176</ele>
        <time>2015-06-17T12:05:37Z</time>
      </trkpt>
      <trkpt lat="43.4035" lon="6.07233">
        <ele>217</ele>
        <time>2015-06-17T12:05:38Z</time>
      </trkpt>
      <trkpt lat="43.40344" lon="6.0723">
        <ele>217.19999694824</ele>
        <time>2015-06-17T12:05:40Z</time>
      </trkpt>
      <trkpt lat="43.40339" lon="6.07228">
        <ele>217.39999389648</ele>
        <time>2015-06-17T12:05:42Z</time>
      </trkpt>
      <trkpt lat="43.40333" lon="6.07226">
        <ele>217.39999389648</ele>
        <time>2015-06-17T12:05:44Z</time>
      </trkpt>
      <trkpt lat="43.40328" lon="6.07224">
        <ele>217.60000610352</ele>
        <time>2015-06-17T12:05:46Z</time>
      </trkpt>
      <trkpt lat="43.40322" lon="6.07221">
        <ele>218</ele>
        <time>2015-06-17T12:05:48Z</time>
      </trkpt>
      <trkpt lat="43.40317" lon="6.07219">
        <ele>217.80000305176</ele>
        <time>2015-06-17T12:05:50Z</time>
      </trkpt>
      <trkpt lat="43.40311" lon="6.07217">
        <ele>218.19999694824</ele>
        <time>2015-06-17T12:05:52Z</time>
      </trkpt>
      <trkpt lat="43.40306" lon="6.07214">
        <ele>218.19999694824</ele>
        <time>2015-06-17T12:05:54Z</time>
      </trkpt>
      <trkpt lat="43.40301" lon="6.07211">
        <ele>218.39999389648</ele>
        <time>2015-06-17T12:05:56Z</time>
      </trkpt>
      <trkpt lat="43.40297" lon="6.07207">
        <ele>218.60000610352</ele>
        <time>2015-06-17T12:05:58Z</time>
      </trkpt>
      <trkpt lat="43.40292" lon="6.07203">
        <ele>218.60000610352</ele>
        <time>2015-06-17T12:06:00Z</time>
      </trkpt>
      <trkpt lat="43.40288" lon="6.07197">
        <ele>218.80000305176</ele>
        <time>2015-06-17T12:06:02Z</time>
      </trkpt>
      <trkpt lat="43.40284" lon="6.07192">
        <ele>218.80000305176</ele>
        <time>2015-06-17T12:06:04Z</time>
      </trkpt>
      <trkpt lat="43.40281" lon="6.07187">
        <ele>218.80000305176</ele>
        <time>2015-06-17T12:06:06Z</time>
      </trkpt>
      <trkpt lat="43.40277" lon="6.07182">
        <ele>218.80000305176</ele>
        <time>2015-06-17T12:06:08Z</time>
      </trkpt>
      <trkpt lat="43.40273" lon="6.07178">
        <ele>218.80000305176</ele>
        <time>2015-06-17T12:06:10Z</time>
      </trkpt>
      <trkpt lat="43.40271" lon="6.07176">
        <ele>218.80000305176</ele>
        <time>2015-06-17T12:06:11Z</time>
      </trkpt>
      <trkpt lat="43.40268" lon="6.07175">
        <ele>219</ele>
        <time>2015-06-17T12:06:12Z</time>
      </trkpt>
      <trkpt lat="43.40262" lon="6.07171">
        <ele>219</ele>
        <time>2015-06-17T12:06:14Z</time>
      </trkpt>
      <trkpt lat="43.40255" lon="6.07169">
        <ele>218.80000305176</ele>
        <time>2015-06-17T12:06:16Z</time>
      </trkpt>
      <trkpt lat="43.40252" lon="6.0717">
        <ele>218.80000305176</ele>
        <time>2015-06-17T12:06:17Z</time>
      </trkpt>
      <trkpt lat="43.40249" lon="6.0717">
        <ele>219</ele>
        <time>2015-06-17T12:06:18Z</time>
      </trkpt>
      <trkpt lat="43.40244" lon="6.0717">
        <ele>219.19999694824</ele>
        <time>2015-06-17T12:06:20Z</time>
      </trkpt>
      <trkpt lat="43.4024" lon="6.07171">
        <ele>219.39999389648</ele>
        <time>2015-06-17T12:06:22Z</time>
      </trkpt>
      <trkpt lat="43.40238" lon="6.07172">
        <ele>219.39999389648</ele>
        <time>2015-06-17T12:06:23Z</time>
      </trkpt>
      <trkpt lat="43.40236" lon="6.07172">
        <ele>219.39999389648</ele>
        <time>2015-06-17T12:06:24Z</time>
      </trkpt>
      <trkpt lat="43.40231" lon="6.07173">
        <ele>219.80000305176</ele>
        <time>2015-06-17T12:06:26Z</time>
      </trkpt>
      <trkpt lat="43.40226" lon="6.07175">
        <ele>220</ele>
        <time>2015-06-17T12:06:28Z</time>
      </trkpt>
      <trkpt lat="43.40222" lon="6.07175">
        <ele>220.39999389648</ele>
        <time>2015-06-17T12:06:30Z</time>
      </trkpt>
      <trkpt lat="43.4022" lon="6.07176">
        <ele>220.60000610352</ele>
        <time>2015-06-17T12:06:31Z</time>
      </trkpt>
      <trkpt lat="43.40217" lon="6.07176">
        <ele>220.80000305176</ele>
        <time>2015-06-17T12:06:32Z</time>
      </trkpt>
      <trkpt lat="43.40213" lon="6.07178">
        <ele>221.19999694824</ele>
        <time>2015-06-17T12:06:34Z</time>
      </trkpt>
      <trkpt lat="43.40208" lon="6.07181">
        <ele>221.60000610352</ele>
        <time>2015-06-17T12:06:36Z</time>
      </trkpt>
      <trkpt lat="43.40206" lon="6.07182">
        <ele>221.80000305176</ele>
        <time>2015-06-17T12:06:37Z</time>
      </trkpt>
      <trkpt lat="43.40204" lon="6.07183">
        <ele>222</ele>
        <time>2015-06-17T12:06:38Z</time>
      </trkpt>
      <trkpt lat="43.40199" lon="6.07185">
        <ele>222.19999694824</ele>
        <time>2015-06-17T12:06:40Z</time>
      </trkpt>
      <trkpt lat="43.40195" lon="6.07188">
        <ele>222.80000305176</ele>
        <time>2015-06-17T12:06:42Z</time>
      </trkpt>
      <trkpt lat="43.40191" lon="6.0719">
        <ele>223</ele>
        <time>2015-06-17T12:06:44Z</time>
      </trkpt>
      <trkpt lat="43.40186" lon="6.07193">
        <ele>223.60000610352</ele>
        <time>2015-06-17T12:06:46Z</time>
      </trkpt>
      <trkpt lat="43.40182" lon="6.07196">
        <ele>223.80000305176</ele>
        <time>2015-06-17T12:06:48Z</time>
      </trkpt>
      <trkpt lat="43.40178" lon="6.07198">
        <ele>224.39999389648</ele>
        <time>2015-06-17T12:06:50Z</time>
      </trkpt>
      <trkpt lat="43.40174" lon="6.07201">
        <ele>224.80000305176</ele>
        <time>2015-06-17T12:06:52Z</time>
      </trkpt>
      <trkpt lat="43.40172" lon="6.07202">
        <ele>225</ele>
        <time>2015-06-17T12:06:53Z</time>
      </trkpt>
      <trkpt lat="43.4017" lon="6.07204">
        <ele>225.19999694824</ele>
        <time>2015-06-17T12:06:54Z</time>
      </trkpt>
      <trkpt lat="43.40166" lon="6.07208">
        <ele>225.60000610352</ele>
        <time>2015-06-17T12:06:56Z</time>
      </trkpt>
      <trkpt lat="43.40162" lon="6.0721">
        <ele>226</ele>
        <time>2015-06-17T12:06:58Z</time>
      </trkpt>
      <trkpt lat="43.40158" lon="6.07213">
        <ele>226.60000610352</ele>
        <time>2015-06-17T12:07:00Z</time>
      </trkpt>
      <trkpt lat="43.40155" lon="6.07217">
        <ele>226.80000305176</ele>
        <time>2015-06-17T12:07:02Z</time>
      </trkpt>
      <trkpt lat="43.40152" lon="6.07221">
        <ele>227</ele>
        <time>2015-06-17T12:07:04Z</time>
      </trkpt>
      <trkpt lat="43.4015" lon="6.07223">
        <ele>227.19999694824</ele>
        <time>2015-06-17T12:07:05Z</time>
      </trkpt>
      <trkpt lat="43.40149" lon="6.07225">
        <ele>227.39999389648</ele>
        <time>2015-06-17T12:07:06Z</time>
      </trkpt>
      <trkpt lat="43.40147" lon="6.07229">
        <ele>227.39999389648</ele>
        <time>2015-06-17T12:07:08Z</time>
      </trkpt>
      <trkpt lat="43.40145" lon="6.07233">
        <ele>227.80000305176</ele>
        <time>2015-06-17T12:07:10Z</time>
      </trkpt>
      <trkpt lat="43.40144" lon="6.07237">
        <ele>228</ele>
        <time>2015-06-17T12:07:12Z</time>
      </trkpt>
      <trkpt lat="43.40143" lon="6.07239">
        <ele>228.19999694824</ele>
        <time>2015-06-17T12:07:13Z</time>
      </trkpt>
      <trkpt lat="43.40142" lon="6.0724">
        <ele>228.39999389648</ele>
        <time>2015-06-17T12:07:14Z</time>
      </trkpt>
      <trkpt lat="43.40141" lon="6.07241">
        <ele>228.39999389648</ele>
        <time>2015-06-17T12:07:15Z</time>
      </trkpt>
      <trkpt lat="43.40141" lon="6.07242">
        <ele>228.39999389648</ele>
        <time>2015-06-17T12:07:16Z</time>
      </trkpt>
      <trkpt lat="43.40141" lon="6.07243">
        <ele>228.19999694824</ele>
        <time>2015-06-17T12:07:18Z</time>
      </trkpt>
      <trkpt lat="43.40141" lon="6.07243">
        <ele>228.19999694824</ele>
        <time>2015-06-17T12:07:20Z</time>
      </trkpt>
      <trkpt lat="43.40141" lon="6.07243">
        <ele>228.19999694824</ele>
        <time>2015-06-17T12:07:22Z</time>
      </trkpt>
      <trkpt lat="43.40141" lon="6.07243">
        <ele>228.19999694824</ele>
        <time>2015-06-17T12:07:24Z</time>
      </trkpt>
      <trkpt lat="43.40141" lon="6.07243">
        <ele>228.19999694824</ele>
        <time>2015-06-17T12:07:26Z</time>
      </trkpt>
      <trkpt lat="43.40141" lon="6.07243">
        <ele>228.19999694824</ele>
        <time>2015-06-17T12:07:28Z</time>
      </trkpt>
      <trkpt lat="43.40141" lon="6.07243">
        <ele>228.39999389648</ele>
        <time>2015-06-17T12:07:30Z</time>
      </trkpt>
      <trkpt lat="43.40141" lon="6.07243">
        <ele>228.19999694824</ele>
        <time>2015-06-17T12:07:32Z</time>
      </trkpt>
      <trkpt lat="43.40141" lon="6.07243">
        <ele>228.19999694824</ele>
        <time>2015-06-17T12:07:34Z</time>
      </trkpt>
      <trkpt lat="43.40141" lon="6.07243">
        <ele>228.19999694824</ele>
        <time>2015-06-17T12:07:36Z</time>
      </trkpt>
      <trkpt lat="43.40141" lon="6.07243">
        <ele>228</ele>
        <time>2015-06-17T12:07:38Z</time>
      </trkpt>
      <trkpt lat="43.40142" lon="6.07243">
        <ele>228</ele>
        <time>2015-06-17T12:07:40Z</time>
      </trkpt>
      <trkpt lat="43.40141" lon="6.07243">
        <ele>228.19999694824</ele>
        <time>2015-06-17T12:07:42Z</time>
      </trkpt>
      <trkpt lat="43.40141" lon="6.07243">
        <ele>228.39999389648</ele>
        <time>2015-06-17T12:07:44Z</time>
      </trkpt>
      <trkpt lat="43.40141" lon="6.07243">
        <ele>228.39999389648</ele>
        <time>2015-06-17T12:07:46Z</time>
      </trkpt>
      <trkpt lat="43.40142" lon="6.07243">
        <ele>228.19999694824</ele>
        <time>2015-06-17T12:07:48Z</time>
      </trkpt>
      <trkpt lat="43.40142" lon="6.07244">
        <ele>228.39999389648</ele>
        <time>2015-06-17T12:07:50Z</time>
      </trkpt>
      <trkpt lat="43.40142" lon="6.07248">
        <ele>228.39999389648</ele>
        <time>2015-06-17T12:07:52Z</time>
      </trkpt>
      <trkpt lat="43.40143" lon="6.07255">
        <ele>228.39999389648</ele>
        <time>2015-06-17T12:07:54Z</time>
      </trkpt>
      <trkpt lat="43.40144" lon="6.07263">
        <ele>228.39999389648</ele>
        <time>2015-06-17T12:07:56Z</time>
      </trkpt>
      <trkpt lat="43.40144" lon="6.07272">
        <ele>228.39999389648</ele>
        <time>2015-06-17T12:07:58Z</time>
      </trkpt>
      <trkpt lat="43.40144" lon="6.0728">
        <ele>228.60000610352</ele>
        <time>2015-06-17T12:08:00Z</time>
      </trkpt>
      <trkpt lat="43.40144" lon="6.07289">
        <ele>228.60000610352</ele>
        <time>2015-06-17T12:08:02Z</time>
      </trkpt>
      <trkpt lat="43.40144" lon="6.07298">
        <ele>228.39999389648</ele>
        <time>2015-06-17T12:08:04Z</time>
      </trkpt>
      <trkpt lat="43.40143" lon="6.07306">
        <ele>228.60000610352</ele>
        <time>2015-06-17T12:08:06Z</time>
      </trkpt>
      <trkpt lat="43.40142" lon="6.07314">
        <ele>228.80000305176</ele>
        <time>2015-06-17T12:08:08Z</time>
      </trkpt>
      <trkpt lat="43.40141" lon="6.07323">
        <ele>229</ele>
        <time>2015-06-17T12:08:10Z</time>
      </trkpt>
      <trkpt lat="43.40141" lon="6.07331">
        <ele>229.19999694824</ele>
        <time>2015-06-17T12:08:12Z</time>
      </trkpt>
      <trkpt lat="43.4014" lon="6.07335">
        <ele>229.39999389648</ele>
        <time>2015-06-17T12:08:13Z</time>
      </trkpt>
      <trkpt lat="43.4014" lon="6.07339">
        <ele>229.39999389648</ele>
        <time>2015-06-17T12:08:14Z</time>
      </trkpt>
      <trkpt lat="43.40139" lon="6.07347">
        <ele>229.19999694824</ele>
        <time>2015-06-17T12:08:16Z</time>
      </trkpt>
      <trkpt lat="43.40138" lon="6.07356">
        <ele>229.39999389648</ele>
        <time>2015-06-17T12:08:18Z</time>
      </trkpt>
      <trkpt lat="43.40137" lon="6.07364">
        <ele>229.39999389648</ele>
        <time>2015-06-17T12:08:20Z</time>
      </trkpt>
      <trkpt lat="43.40136" lon="6.07372">
        <ele>229.39999389648</ele>
        <time>2015-06-17T12:08:22Z</time>
      </trkpt>
      <trkpt lat="43.40136" lon="6.07379">
        <ele>229.60000610352</ele>
        <time>2015-06-17T12:08:24Z</time>
      </trkpt>
      <trkpt lat="43.40135" lon="6.07387">
        <ele>230</ele>
        <time>2015-06-17T12:08:26Z</time>
      </trkpt>
      <trkpt lat="43.40136" lon="6.07395">
        <ele>230</ele>
        <time>2015-06-17T12:08:28Z</time>
      </trkpt>
      <trkpt lat="43.40137" lon="6.07404">
        <ele>230</ele>
        <time>2015-06-17T12:08:30Z</time>
      </trkpt>
      <trkpt lat="43.40139" lon="6.07412">
        <ele>229.80000305176</ele>
        <time>2015-06-17T12:08:32Z</time>
      </trkpt>
      <trkpt lat="43.40141" lon="6.0742">
        <ele>230</ele>
        <time>2015-06-17T12:08:34Z</time>
      </trkpt>
      <trkpt lat="43.40142" lon="6.07428">
        <ele>230</ele>
        <time>2015-06-17T12:08:36Z</time>
      </trkpt>
      <trkpt lat="43.40143" lon="6.07432">
        <ele>230.19999694824</ele>
        <time>2015-06-17T12:08:37Z</time>
      </trkpt>
      <trkpt lat="43.40144" lon="6.07436">
        <ele>230.39999389648</ele>
        <time>2015-06-17T12:08:38Z</time>
      </trkpt>
      <trkpt lat="43.40144" lon="6.07444">
        <ele>230.39999389648</ele>
        <time>2015-06-17T12:08:40Z</time>
      </trkpt>
      <trkpt lat="43.40144" lon="6.07448">
        <ele>230.39999389648</ele>
        <time>2015-06-17T12:08:41Z</time>
      </trkpt>
      <trkpt lat="43.40144" lon="6.07452">
        <ele>230.60000610352</ele>
        <time>2015-06-17T12:08:42Z</time>
      </trkpt>
      <trkpt lat="43.40144" lon="6.0746">
        <ele>230.80000305176</ele>
        <time>2015-06-17T12:08:44Z</time>
      </trkpt>
      <trkpt lat="43.40143" lon="6.07468">
        <ele>230.80000305176</ele>
        <time>2015-06-17T12:08:46Z</time>
      </trkpt>
      <trkpt lat="43.40142" lon="6.07477">
        <ele>230.80000305176</ele>
        <time>2015-06-17T12:08:48Z</time>
      </trkpt>
      <trkpt lat="43.40141" lon="6.07485">
        <ele>231.19999694824</ele>
        <time>2015-06-17T12:08:50Z</time>
      </trkpt>
      <trkpt lat="43.40141" lon="6.07488">
        <ele>231.39999389648</ele>
        <time>2015-06-17T12:08:51Z</time>
      </trkpt>
      <trkpt lat="43.4014" lon="6.07492">
        <ele>231.60000610352</ele>
        <time>2015-06-17T12:08:52Z</time>
      </trkpt>
      <trkpt lat="43.40139" lon="6.07499">
        <ele>232</ele>
        <time>2015-06-17T12:08:54Z</time>
      </trkpt>
      <trkpt lat="43.40137" lon="6.07506">
        <ele>232.60000610352</ele>
        <time>2015-06-17T12:08:56Z</time>
      </trkpt>
      <trkpt lat="43.40135" lon="6.07512">
        <ele>233</ele>
        <time>2015-06-17T12:08:58Z</time>
      </trkpt>
      <trkpt lat="43.40133" lon="6.07519">
        <ele>233.39999389648</ele>
        <time>2015-06-17T12:09:00Z</time>
      </trkpt>
      <trkpt lat="43.4013" lon="6.07524">
        <ele>233.39999389648</ele>
        <time>2015-06-17T12:09:02Z</time>
      </trkpt>
      <trkpt lat="43.40128" lon="6.07527">
        <ele>233.39999389648</ele>
        <time>2015-06-17T12:09:03Z</time>
      </trkpt>
      <trkpt lat="43.40126" lon="6.0753">
        <ele>233.60000610352</ele>
        <time>2015-06-17T12:09:04Z</time>
      </trkpt>
      <trkpt lat="43.40123" lon="6.07536">
        <ele>234</ele>
        <time>2015-06-17T12:09:06Z</time>
      </trkpt>
      <trkpt lat="43.4012" lon="6.07542">
        <ele>234</ele>
        <time>2015-06-17T12:09:08Z</time>
      </trkpt>
      <trkpt lat="43.40118" lon="6.07548">
        <ele>234.39999389648</ele>
        <time>2015-06-17T12:09:10Z</time>
      </trkpt>
      <trkpt lat="43.40116" lon="6.0755">
        <ele>234.39999389648</ele>
        <time>2015-06-17T12:09:11Z</time>
      </trkpt>
      <trkpt lat="43.40115" lon="6.07553">
        <ele>234.19999694824</ele>
        <time>2015-06-17T12:09:12Z</time>
      </trkpt>
      <trkpt lat="43.40112" lon="6.07559">
        <ele>234.39999389648</ele>
        <time>2015-06-17T12:09:14Z</time>
      </trkpt>
      <trkpt lat="43.40109" lon="6.07563">
        <ele>234.60000610352</ele>
        <time>2015-06-17T12:09:16Z</time>
      </trkpt>
      <trkpt lat="43.40106" lon="6.07568">
        <ele>234.80000305176</ele>
        <time>2015-06-17T12:09:18Z</time>
      </trkpt>
      <trkpt lat="43.40104" lon="6.0757">
        <ele>234.80000305176</ele>
        <time>2015-06-17T12:09:19Z</time>
      </trkpt>
      <trkpt lat="43.40103" lon="6.07572">
        <ele>234.80000305176</ele>
        <time>2015-06-17T12:09:20Z</time>
      </trkpt>
      <trkpt lat="43.401" lon="6.07578">
        <ele>235</ele>
        <time>2015-06-17T12:09:22Z</time>
      </trkpt>
      <trkpt lat="43.40097" lon="6.07583">
        <ele>235</ele>
        <time>2015-06-17T12:09:24Z</time>
      </trkpt>
      <trkpt lat="43.40094" lon="6.07588">
        <ele>235</ele>
        <time>2015-06-17T12:09:26Z</time>
      </trkpt>
      <trkpt lat="43.40092" lon="6.07593">
        <ele>235.19999694824</ele>
        <time>2015-06-17T12:09:28Z</time>
      </trkpt>
      <trkpt lat="43.40091" lon="6.07599">
        <ele>235.39999389648</ele>
        <time>2015-06-17T12:09:30Z</time>
      </trkpt>
      <trkpt lat="43.4009" lon="6.07604">
        <ele>235.60000610352</ele>
        <time>2015-06-17T12:09:32Z</time>
      </trkpt>
      <trkpt lat="43.40089" lon="6.07609">
        <ele>235.80000305176</ele>
        <time>2015-06-17T12:09:34Z</time>
      </trkpt>
      <trkpt lat="43.40089" lon="6.07612">
        <ele>236</ele>
        <time>2015-06-17T12:09:35Z</time>
      </trkpt>
      <trkpt lat="43.40089" lon="6.07614">
        <ele>236</ele>
        <time>2015-06-17T12:09:36Z</time>
      </trkpt>
      <trkpt lat="43.40089" lon="6.0762">
        <ele>236.19999694824</ele>
        <time>2015-06-17T12:09:38Z</time>
      </trkpt>
      <trkpt lat="43.40089" lon="6.07626">
        <ele>236.39999389648</ele>
        <time>2015-06-17T12:09:40Z</time>
      </trkpt>
      <trkpt lat="43.40088" lon="6.07632">
        <ele>236.60000610352</ele>
        <time>2015-06-17T12:09:42Z</time>
      </trkpt>
      <trkpt lat="43.40088" lon="6.07635">
        <ele>236.80000305176</ele>
        <time>2015-06-17T12:09:43Z</time>
      </trkpt>
      <trkpt lat="43.40088" lon="6.07637">
        <ele>237</ele>
        <time>2015-06-17T12:09:44Z</time>
      </trkpt>
      <trkpt lat="43.40088" lon="6.0764">
        <ele>237</ele>
        <time>2015-06-17T12:09:45Z</time>
      </trkpt>
      <trkpt lat="43.40088" lon="6.07643">
        <ele>237.19999694824</ele>
        <time>2015-06-17T12:09:46Z</time>
      </trkpt>
      <trkpt lat="43.40088" lon="6.07649">
        <ele>237.60000610352</ele>
        <time>2015-06-17T12:09:48Z</time>
      </trkpt>
      <trkpt lat="43.40086" lon="6.07654">
        <ele>238</ele>
        <time>2015-06-17T12:09:50Z</time>
      </trkpt>
      <trkpt lat="43.40086" lon="6.07657">
        <ele>238</ele>
        <time>2015-06-17T12:09:51Z</time>
      </trkpt>
      <trkpt lat="43.40086" lon="6.0766">
        <ele>238</ele>
        <time>2015-06-17T12:09:52Z</time>
      </trkpt>
      <trkpt lat="43.40084" lon="6.07664">
        <ele>238.60000610352</ele>
        <time>2015-06-17T12:09:54Z</time>
      </trkpt>
      <trkpt lat="43.40082" lon="6.07669">
        <ele>239</ele>
        <time>2015-06-17T12:09:56Z</time>
      </trkpt>
      <trkpt lat="43.40081" lon="6.07672">
        <ele>239.19999694824</ele>
        <time>2015-06-17T12:09:57Z</time>
      </trkpt>
      <trkpt lat="43.4008" lon="6.07674">
        <ele>239.19999694824</ele>
        <time>2015-06-17T12:09:58Z</time>
      </trkpt>
      <trkpt lat="43.40078" lon="6.07678">
        <ele>239.60000610352</ele>
        <time>2015-06-17T12:10:00Z</time>
      </trkpt>
      <trkpt lat="43.40076" lon="6.07683">
        <ele>240.19999694824</ele>
        <time>2015-06-17T12:10:02Z</time>
      </trkpt>
      <trkpt lat="43.40074" lon="6.07687">
        <ele>240.39999389648</ele>
        <time>2015-06-17T12:10:04Z</time>
      </trkpt>
      <trkpt lat="43.40073" lon="6.07689">
        <ele>240.60000610352</ele>
        <time>2015-06-17T12:10:05Z</time>
      </trkpt>
      <trkpt lat="43.40071" lon="6.07691">
        <ele>240.60000610352</ele>
        <time>2015-06-17T12:10:06Z</time>
      </trkpt>
      <trkpt lat="43.40069" lon="6.07695">
        <ele>241</ele>
        <time>2015-06-17T12:10:08Z</time>
      </trkpt>
      <trkpt lat="43.40066" lon="6.07699">
        <ele>241</ele>
        <time>2015-06-17T12:10:10Z</time>
      </trkpt>
      <trkpt lat="43.40064" lon="6.077">
        <ele>241.19999694824</ele>
        <time>2015-06-17T12:10:11Z</time>
      </trkpt>
      <trkpt lat="43.40063" lon="6.07703">
        <ele>241.39999389648</ele>
        <time>2015-06-17T12:10:12Z</time>
      </trkpt>
      <trkpt lat="43.4006" lon="6.07707">
        <ele>241.39999389648</ele>
        <time>2015-06-17T12:10:14Z</time>
      </trkpt>
      <trkpt lat="43.40057" lon="6.0771">
        <ele>241.39999389648</ele>
        <time>2015-06-17T12:10:16Z</time>
      </trkpt>
      <trkpt lat="43.40053" lon="6.07715">
        <ele>241.60000610352</ele>
        <time>2015-06-17T12:10:18Z</time>
      </trkpt>
      <trkpt lat="43.40049" lon="6.07719">
        <ele>241.80000305176</ele>
        <time>2015-06-17T12:10:20Z</time>
      </trkpt>
      <trkpt lat="43.40046" lon="6.07724">
        <ele>242</ele>
        <time>2015-06-17T12:10:22Z</time>
      </trkpt>
      <trkpt lat="43.40042" lon="6.0773">
        <ele>242</ele>
        <time>2015-06-17T12:10:24Z</time>
      </trkpt>
      <trkpt lat="43.4004" lon="6.07732">
        <ele>242</ele>
        <time>2015-06-17T12:10:25Z</time>
      </trkpt>
      <trkpt lat="43.40038" lon="6.07735">
        <ele>242</ele>
        <time>2015-06-17T12:10:26Z</time>
      </trkpt>
      <trkpt lat="43.40035" lon="6.07741">
        <ele>242</ele>
        <time>2015-06-17T12:10:28Z</time>
      </trkpt>
      <trkpt lat="43.40032" lon="6.07747">
        <ele>242</ele>
        <time>2015-06-17T12:10:30Z</time>
      </trkpt>
      <trkpt lat="43.4003" lon="6.07753">
        <ele>242.19999694824</ele>
        <time>2015-06-17T12:10:32Z</time>
      </trkpt>
      <trkpt lat="43.40028" lon="6.0776">
        <ele>242.60000610352</ele>
        <time>2015-06-17T12:10:34Z</time>
      </trkpt>
      <trkpt lat="43.40026" lon="6.07766">
        <ele>242.60000610352</ele>
        <time>2015-06-17T12:10:36Z</time>
      </trkpt>
      <trkpt lat="43.40024" lon="6.07774">
        <ele>242.80000305176</ele>
        <time>2015-06-17T12:10:38Z</time>
      </trkpt>
      <trkpt lat="43.40022" lon="6.07781">
        <ele>242.80000305176</ele>
        <time>2015-06-17T12:10:40Z</time>
      </trkpt>
      <trkpt lat="43.4002" lon="6.07785">
        <ele>242.80000305176</ele>
        <time>2015-06-17T12:10:41Z</time>
      </trkpt>
      <trkpt lat="43.40019" lon="6.07789">
        <ele>243</ele>
        <time>2015-06-17T12:10:42Z</time>
      </trkpt>
      <trkpt lat="43.40017" lon="6.07796">
        <ele>243</ele>
        <time>2015-06-17T12:10:44Z</time>
      </trkpt>
      <trkpt lat="43.40015" lon="6.07799">
        <ele>243</ele>
        <time>2015-06-17T12:10:45Z</time>
      </trkpt>
      <trkpt lat="43.40014" lon="6.07803">
        <ele>243.19999694824</ele>
        <time>2015-06-17T12:10:46Z</time>
      </trkpt>
      <trkpt lat="43.40012" lon="6.0781">
        <ele>243.19999694824</ele>
        <time>2015-06-17T12:10:48Z</time>
      </trkpt>
      <trkpt lat="43.40012" lon="6.07814">
        <ele>243</ele>
        <time>2015-06-17T12:10:49Z</time>
      </trkpt>
      <trkpt lat="43.4001" lon="6.07818">
        <ele>243</ele>
        <time>2015-06-17T12:10:50Z</time>
      </trkpt>
      <trkpt lat="43.40009" lon="6.07826">
        <ele>243.19999694824</ele>
        <time>2015-06-17T12:10:52Z</time>
      </trkpt>
      <trkpt lat="43.40008" lon="6.0783">
        <ele>243.39999389648</ele>
        <time>2015-06-17T12:10:53Z</time>
      </trkpt>
      <trkpt lat="43.40006" lon="6.07834">
        <ele>243.39999389648</ele>
        <time>2015-06-17T12:10:54Z</time>
      </trkpt>
      <trkpt lat="43.40003" lon="6.07842">
        <ele>243.39999389648</ele>
        <time>2015-06-17T12:10:56Z</time>
      </trkpt>
      <trkpt lat="43.40002" lon="6.07846">
        <ele>243.19999694824</ele>
        <time>2015-06-17T12:10:57Z</time>
      </trkpt>
      <trkpt lat="43.40001" lon="6.0785">
        <ele>243.19999694824</ele>
        <time>2015-06-17T12:10:58Z</time>
      </trkpt>
      <trkpt lat="43.39999" lon="6.07858">
        <ele>243.19999694824</ele>
        <time>2015-06-17T12:11:00Z</time>
      </trkpt>
      <trkpt lat="43.39997" lon="6.07866">
        <ele>243.19999694824</ele>
        <time>2015-06-17T12:11:02Z</time>
      </trkpt>
      <trkpt lat="43.39995" lon="6.07873">
        <ele>243.39999389648</ele>
        <time>2015-06-17T12:11:04Z</time>
      </trkpt>
      <trkpt lat="43.39994" lon="6.07877">
        <ele>243.80000305176</ele>
        <time>2015-06-17T12:11:05Z</time>
      </trkpt>
      <trkpt lat="43.39993" lon="6.07881">
        <ele>243.80000305176</ele>
        <time>2015-06-17T12:11:06Z</time>
      </trkpt>
      <trkpt lat="43.39991" lon="6.07889">
        <ele>244</ele>
        <time>2015-06-17T12:11:08Z</time>
      </trkpt>
      <trkpt lat="43.39989" lon="6.07897">
        <ele>244.39999389648</ele>
        <time>2015-06-17T12:11:10Z</time>
      </trkpt>
      <trkpt lat="43.39988" lon="6.079">
        <ele>244.60000610352</ele>
        <time>2015-06-17T12:11:11Z</time>
      </trkpt>
      <trkpt lat="43.39987" lon="6.07904">
        <ele>244.80000305176</ele>
        <time>2015-06-17T12:11:12Z</time>
      </trkpt>
      <trkpt lat="43.39986" lon="6.07911">
        <ele>245</ele>
        <time>2015-06-17T12:11:14Z</time>
      </trkpt>
      <trkpt lat="43.39985" lon="6.07918">
        <ele>245.39999389648</ele>
        <time>2015-06-17T12:11:16Z</time>
      </trkpt>
      <trkpt lat="43.39982" lon="6.07926">
        <ele>245.60000610352</ele>
        <time>2015-06-17T12:11:18Z</time>
      </trkpt>
      <trkpt lat="43.39981" lon="6.07929">
        <ele>245.80000305176</ele>
        <time>2015-06-17T12:11:19Z</time>
      </trkpt>
      <trkpt lat="43.39981" lon="6.07933">
        <ele>246</ele>
        <time>2015-06-17T12:11:20Z</time>
      </trkpt>
      <trkpt lat="43.39979" lon="6.07941">
        <ele>246.19999694824</ele>
        <time>2015-06-17T12:11:22Z</time>
      </trkpt>
      <trkpt lat="43.39978" lon="6.07948">
        <ele>246.19999694824</ele>
        <time>2015-06-17T12:11:24Z</time>
      </trkpt>
      <trkpt lat="43.39976" lon="6.07954">
        <ele>247</ele>
        <time>2015-06-17T12:11:26Z</time>
      </trkpt>
      <trkpt lat="43.39975" lon="6.07956">
        <ele>247.19999694824</ele>
        <time>2015-06-17T12:11:27Z</time>
      </trkpt>
      <trkpt lat="43.39975" lon="6.07959">
        <ele>247.39999389648</ele>
        <time>2015-06-17T12:11:28Z</time>
      </trkpt>
      <trkpt lat="43.39973" lon="6.07965">
        <ele>247.60000610352</ele>
        <time>2015-06-17T12:11:30Z</time>
      </trkpt>
      <trkpt lat="43.39972" lon="6.07968">
        <ele>248</ele>
        <time>2015-06-17T12:11:31Z</time>
      </trkpt>
      <trkpt lat="43.39972" lon="6.07969">
        <ele>248.19999694824</ele>
        <time>2015-06-17T12:11:32Z</time>
      </trkpt>
      <trkpt lat="43.39969" lon="6.07972">
        <ele>248.39999389648</ele>
        <time>2015-06-17T12:11:34Z</time>
      </trkpt>
      <trkpt lat="43.39967" lon="6.07974">
        <ele>248.39999389648</ele>
        <time>2015-06-17T12:11:36Z</time>
      </trkpt>
      <trkpt lat="43.39965" lon="6.07976">
        <ele>248.60000610352</ele>
        <time>2015-06-17T12:11:38Z</time>
      </trkpt>
      <trkpt lat="43.39962" lon="6.07979">
        <ele>248.80000305176</ele>
        <time>2015-06-17T12:11:40Z</time>
      </trkpt>
      <trkpt lat="43.39959" lon="6.07981">
        <ele>248.80000305176</ele>
        <time>2015-06-17T12:11:42Z</time>
      </trkpt>
      <trkpt lat="43.39957" lon="6.07982">
        <ele>249.19999694824</ele>
        <time>2015-06-17T12:11:43Z</time>
      </trkpt>
      <trkpt lat="43.39955" lon="6.07983">
        <ele>249.39999389648</ele>
        <time>2015-06-17T12:11:44Z</time>
      </trkpt>
      <trkpt lat="43.39954" lon="6.07984">
        <ele>249.39999389648</ele>
        <time>2015-06-17T12:11:45Z</time>
      </trkpt>
      <trkpt lat="43.39952" lon="6.07985">
        <ele>249.60000610352</ele>
        <time>2015-06-17T12:11:46Z</time>
      </trkpt>
      <trkpt lat="43.39948" lon="6.07988">
        <ele>249.80000305176</ele>
        <time>2015-06-17T12:11:48Z</time>
      </trkpt>
      <trkpt lat="43.39944" lon="6.0799">
        <ele>250.19999694824</ele>
        <time>2015-06-17T12:11:50Z</time>
      </trkpt>
      <trkpt lat="43.39942" lon="6.07991">
        <ele>250.19999694824</ele>
        <time>2015-06-17T12:11:51Z</time>
      </trkpt>
      <trkpt lat="43.39939" lon="6.07992">
        <ele>250.39999389648</ele>
        <time>2015-06-17T12:11:52Z</time>
      </trkpt>
      <trkpt lat="43.39936" lon="6.07993">
        <ele>250.19999694824</ele>
        <time>2015-06-17T12:11:54Z</time>
      </trkpt>
      <trkpt lat="43.39933" lon="6.07995">
        <ele>250.19999694824</ele>
        <time>2015-06-17T12:11:56Z</time>
      </trkpt>
      <trkpt lat="43.39931" lon="6.07996">
        <ele>250.19999694824</ele>
        <time>2015-06-17T12:11:57Z</time>
      </trkpt>
      <trkpt lat="43.39928" lon="6.07997">
        <ele>250.39999389648</ele>
        <time>2015-06-17T12:11:58Z</time>
      </trkpt>
      <trkpt lat="43.39926" lon="6.07999">
        <ele>250.39999389648</ele>
        <time>2015-06-17T12:11:59Z</time>
      </trkpt>
      <trkpt lat="43.39924" lon="6.08">
        <ele>250.39999389648</ele>
        <time>2015-06-17T12:12:00Z</time>
      </trkpt>
      <trkpt lat="43.39919" lon="6.08005">
        <ele>250.39999389648</ele>
        <time>2015-06-17T12:12:02Z</time>
      </trkpt>
      <trkpt lat="43.39917" lon="6.08008">
        <ele>250.39999389648</ele>
        <time>2015-06-17T12:12:03Z</time>
      </trkpt>
      <trkpt lat="43.39914" lon="6.08011">
        <ele>250.60000610352</ele>
        <time>2015-06-17T12:12:04Z</time>
      </trkpt>
      <trkpt lat="43.39909" lon="6.08017">
        <ele>250.19999694824</ele>
        <time>2015-06-17T12:12:06Z</time>
      </trkpt>
      <trkpt lat="43.39904" lon="6.08025">
        <ele>249.80000305176</ele>
        <time>2015-06-17T12:12:08Z</time>
      </trkpt>
      <trkpt lat="43.39898" lon="6.08032">
        <ele>249.80000305176</ele>
        <time>2015-06-17T12:12:10Z</time>
      </trkpt>
      <trkpt lat="43.39891" lon="6.08035">
        <ele>249.60000610352</ele>
        <time>2015-06-17T12:12:12Z</time>
      </trkpt>
      <trkpt lat="43.39884" lon="6.08036">
        <ele>249.39999389648</ele>
        <time>2015-06-17T12:12:14Z</time>
      </trkpt>
      <trkpt lat="43.3988" lon="6.08035">
        <ele>249.39999389648</ele>
        <time>2015-06-17T12:12:15Z</time>
      </trkpt>
      <trkpt lat="43.39876" lon="6.08034">
        <ele>249.39999389648</ele>
        <time>2015-06-17T12:12:16Z</time>
      </trkpt>
      <trkpt lat="43.39869" lon="6.08031">
        <ele>249</ele>
        <time>2015-06-17T12:12:18Z</time>
      </trkpt>
      <trkpt lat="43.39861" lon="6.08026">
        <ele>248.80000305176</ele>
        <time>2015-06-17T12:12:20Z</time>
      </trkpt>
      <trkpt lat="43.39857" lon="6.08024">
        <ele>248.39999389648</ele>
        <time>2015-06-17T12:12:21Z</time>
      </trkpt>
      <trkpt lat="43.39853" lon="6.08021">
        <ele>248.39999389648</ele>
        <time>2015-06-17T12:12:22Z</time>
      </trkpt>
      <trkpt lat="43.39846" lon="6.08016">
        <ele>248.39999389648</ele>
        <time>2015-06-17T12:12:24Z</time>
      </trkpt>
      <trkpt lat="43.3984" lon="6.0801">
        <ele>248.39999389648</ele>
        <time>2015-06-17T12:12:26Z</time>
      </trkpt>
      <trkpt lat="43.39837" lon="6.08008">
        <ele>248.39999389648</ele>
        <time>2015-06-17T12:12:27Z</time>
      </trkpt>
      <trkpt lat="43.39835" lon="6.08007">
        <ele>248.39999389648</ele>
        <time>2015-06-17T12:12:28Z</time>
      </trkpt>
      <trkpt lat="43.39828" lon="6.08004">
        <ele>248.39999389648</ele>
        <time>2015-06-17T12:12:30Z</time>
      </trkpt>
      <trkpt lat="43.39823" lon="6.08">
        <ele>248.19999694824</ele>
        <time>2015-06-17T12:12:32Z</time>
      </trkpt>
      <trkpt lat="43.39817" lon="6.07997">
        <ele>248.39999389648</ele>
        <time>2015-06-17T12:12:34Z</time>
      </trkpt>
      <trkpt lat="43.39813" lon="6.07996">
        <ele>248.19999694824</ele>
        <time>2015-06-17T12:12:36Z</time>
      </trkpt>
      <trkpt lat="43.39809" lon="6.07994">
        <ele>248.19999694824</ele>
        <time>2015-06-17T12:12:38Z</time>
      </trkpt>
      <trkpt lat="43.39807" lon="6.07993">
        <ele>248.19999694824</ele>
        <time>2015-06-17T12:12:39Z</time>
      </trkpt>
      <trkpt lat="43.39805" lon="6.07992">
        <ele>248.19999694824</ele>
        <time>2015-06-17T12:12:40Z</time>
      </trkpt>
      <trkpt lat="43.398" lon="6.0799">
        <ele>248.19999694824</ele>
        <time>2015-06-17T12:12:42Z</time>
      </trkpt>
      <trkpt lat="43.39795" lon="6.07987">
        <ele>248.60000610352</ele>
        <time>2015-06-17T12:12:44Z</time>
      </trkpt>
      <trkpt lat="43.3979" lon="6.07985">
        <ele>248.80000305176</ele>
        <time>2015-06-17T12:12:46Z</time>
      </trkpt>
      <trkpt lat="43.39787" lon="6.07984">
        <ele>248.80000305176</ele>
        <time>2015-06-17T12:12:47Z</time>
      </trkpt>
      <trkpt lat="43.39784" lon="6.07983">
        <ele>249</ele>
        <time>2015-06-17T12:12:48Z</time>
      </trkpt>
      <trkpt lat="43.39779" lon="6.0798">
        <ele>249.39999389648</ele>
        <time>2015-06-17T12:12:50Z</time>
      </trkpt>
      <trkpt lat="43.39775" lon="6.07978">
        <ele>249.80000305176</ele>
        <time>2015-06-17T12:12:52Z</time>
      </trkpt>
      <trkpt lat="43.39771" lon="6.07975">
        <ele>250</ele>
        <time>2015-06-17T12:12:54Z</time>
      </trkpt>
      <trkpt lat="43.39766" lon="6.07972">
        <ele>250</ele>
        <time>2015-06-17T12:12:56Z</time>
      </trkpt>
      <trkpt lat="43.39761" lon="6.07969">
        <ele>250.19999694824</ele>
        <time>2015-06-17T12:12:58Z</time>
      </trkpt>
      <trkpt lat="43.39756" lon="6.07966">
        <ele>251</ele>
        <time>2015-06-17T12:13:00Z</time>
      </trkpt>
      <trkpt lat="43.39754" lon="6.07965">
        <ele>251.19999694824</ele>
        <time>2015-06-17T12:13:01Z</time>
      </trkpt>
      <trkpt lat="43.39751" lon="6.07964">
        <ele>251.39999389648</ele>
        <time>2015-06-17T12:13:02Z</time>
      </trkpt>
      <trkpt lat="43.39746" lon="6.07961">
        <ele>251.80000305176</ele>
        <time>2015-06-17T12:13:04Z</time>
      </trkpt>
      <trkpt lat="43.39742" lon="6.07959">
        <ele>251.80000305176</ele>
        <time>2015-06-17T12:13:06Z</time>
      </trkpt>
      <trkpt lat="43.3974" lon="6.07957">
        <ele>252</ele>
        <time>2015-06-17T12:13:07Z</time>
      </trkpt>
      <trkpt lat="43.39737" lon="6.07956">
        <ele>252</ele>
        <time>2015-06-17T12:13:08Z</time>
      </trkpt>
      <trkpt lat="43.39735" lon="6.07955">
        <ele>252.39999389648</ele>
        <time>2015-06-17T12:13:09Z</time>
      </trkpt>
      <trkpt lat="43.39733" lon="6.07953">
        <ele>252.39999389648</ele>
        <time>2015-06-17T12:13:10Z</time>
      </trkpt>
      <trkpt lat="43.39728" lon="6.07951">
        <ele>252.39999389648</ele>
        <time>2015-06-17T12:13:12Z</time>
      </trkpt>
      <trkpt lat="43.39725" lon="6.07948">
        <ele>252.39999389648</ele>
        <time>2015-06-17T12:13:14Z</time>
      </trkpt>
      <trkpt lat="43.39722" lon="6.07943">
        <ele>252.80000305176</ele>
        <time>2015-06-17T12:13:16Z</time>
      </trkpt>
      <trkpt lat="43.39719" lon="6.07939">
        <ele>253.19999694824</ele>
        <time>2015-06-17T12:13:18Z</time>
      </trkpt>
      <trkpt lat="43.39717" lon="6.07937">
        <ele>253.19999694824</ele>
        <time>2015-06-17T12:13:19Z</time>
      </trkpt>
      <trkpt lat="43.39715" lon="6.07935">
        <ele>253.39999389648</ele>
        <time>2015-06-17T12:13:20Z</time>
      </trkpt>
      <trkpt lat="43.39712" lon="6.07931">
        <ele>253.80000305176</ele>
        <time>2015-06-17T12:13:22Z</time>
      </trkpt>
      <trkpt lat="43.39709" lon="6.07927">
        <ele>254</ele>
        <time>2015-06-17T12:13:24Z</time>
      </trkpt>
      <trkpt lat="43.39708" lon="6.07924">
        <ele>254.19999694824</ele>
        <time>2015-06-17T12:13:25Z</time>
      </trkpt>
      <trkpt lat="43.39707" lon="6.07922">
        <ele>254.39999389648</ele>
        <time>2015-06-17T12:13:26Z</time>
      </trkpt>
      <trkpt lat="43.39704" lon="6.07917">
        <ele>255</ele>
        <time>2015-06-17T12:13:28Z</time>
      </trkpt>
      <trkpt lat="43.39703" lon="6.07915">
        <ele>255.39999389648</ele>
        <time>2015-06-17T12:13:29Z</time>
      </trkpt>
      <trkpt lat="43.39701" lon="6.07913">
        <ele>255.80000305176</ele>
        <time>2015-06-17T12:13:30Z</time>
      </trkpt>
      <trkpt lat="43.39698" lon="6.0791">
        <ele>256.20001220703</ele>
        <time>2015-06-17T12:13:32Z</time>
      </trkpt>
      <trkpt lat="43.39697" lon="6.07909">
        <ele>256.39999389648</ele>
        <time>2015-06-17T12:13:33Z</time>
      </trkpt>
      <trkpt lat="43.39695" lon="6.07908">
        <ele>256.60000610352</ele>
        <time>2015-06-17T12:13:34Z</time>
      </trkpt>
      <trkpt lat="43.39692" lon="6.07905">
        <ele>257</ele>
        <time>2015-06-17T12:13:36Z</time>
      </trkpt>
      <trkpt lat="43.39689" lon="6.07902">
        <ele>257.60000610352</ele>
        <time>2015-06-17T12:13:38Z</time>
      </trkpt>
      <trkpt lat="43.39686" lon="6.07901">
        <ele>258.20001220703</ele>
        <time>2015-06-17T12:13:40Z</time>
      </trkpt>
      <trkpt lat="43.39684" lon="6.079">
        <ele>258.39999389648</ele>
        <time>2015-06-17T12:13:42Z</time>
      </trkpt>
      <trkpt lat="43.39682" lon="6.07899">
        <ele>258.60000610352</ele>
        <time>2015-06-17T12:13:44Z</time>
      </trkpt>
      <trkpt lat="43.39679" lon="6.07898">
        <ele>258.60000610352</ele>
        <time>2015-06-17T12:13:46Z</time>
      </trkpt>
      <trkpt lat="43.39679" lon="6.07897">
        <ele>258.79998779297</ele>
        <time>2015-06-17T12:13:47Z</time>
      </trkpt>
      <trkpt lat="43.39678" lon="6.07896">
        <ele>258.79998779297</ele>
        <time>2015-06-17T12:13:48Z</time>
      </trkpt>
      <trkpt lat="43.39677" lon="6.07894">
        <ele>258.79998779297</ele>
        <time>2015-06-17T12:13:50Z</time>
      </trkpt>
      <trkpt lat="43.39676" lon="6.07894">
        <ele>258.60000610352</ele>
        <time>2015-06-17T12:13:52Z</time>
      </trkpt>
      <trkpt lat="43.39674" lon="6.07893">
        <ele>258.60000610352</ele>
        <time>2015-06-17T12:13:54Z</time>
      </trkpt>
      <trkpt lat="43.39672" lon="6.07891">
        <ele>258.79998779297</ele>
        <time>2015-06-17T12:13:56Z</time>
      </trkpt>
      <trkpt lat="43.39671" lon="6.07891">
        <ele>259</ele>
        <time>2015-06-17T12:13:57Z</time>
      </trkpt>
      <trkpt lat="43.39669" lon="6.0789">
        <ele>259</ele>
        <time>2015-06-17T12:13:58Z</time>
      </trkpt>
      <trkpt lat="43.39667" lon="6.07891">
        <ele>259.20001220703</ele>
        <time>2015-06-17T12:14:00Z</time>
      </trkpt>
      <trkpt lat="43.39664" lon="6.07891">
        <ele>259.39999389648</ele>
        <time>2015-06-17T12:14:02Z</time>
      </trkpt>
      <trkpt lat="43.39663" lon="6.07891">
        <ele>259.39999389648</ele>
        <time>2015-06-17T12:14:03Z</time>
      </trkpt>
      <trkpt lat="43.39661" lon="6.07892">
        <ele>259.60000610352</ele>
        <time>2015-06-17T12:14:04Z</time>
      </trkpt>
      <trkpt lat="43.3966" lon="6.07892">
        <ele>259.79998779297</ele>
        <time>2015-06-17T12:14:05Z</time>
      </trkpt>
      <trkpt lat="43.39658" lon="6.07892">
        <ele>260</ele>
        <time>2015-06-17T12:14:06Z</time>
      </trkpt>
      <trkpt lat="43.39655" lon="6.07893">
        <ele>260</ele>
        <time>2015-06-17T12:14:08Z</time>
      </trkpt>
      <trkpt lat="43.39651" lon="6.07893">
        <ele>260.20001220703</ele>
        <time>2015-06-17T12:14:10Z</time>
      </trkpt>
      <trkpt lat="43.39648" lon="6.07894">
        <ele>260.39999389648</ele>
        <time>2015-06-17T12:14:12Z</time>
      </trkpt>
      <trkpt lat="43.39644" lon="6.07894">
        <ele>260.39999389648</ele>
        <time>2015-06-17T12:14:14Z</time>
      </trkpt>
      <trkpt lat="43.39642" lon="6.07894">
        <ele>260.79998779297</ele>
        <time>2015-06-17T12:14:16Z</time>
      </trkpt>
      <trkpt lat="43.3964" lon="6.07894">
        <ele>260.79998779297</ele>
        <time>2015-06-17T12:14:17Z</time>
      </trkpt>
      <trkpt lat="43.39638" lon="6.07894">
        <ele>261</ele>
        <time>2015-06-17T12:14:18Z</time>
      </trkpt>
      <trkpt lat="43.39635" lon="6.07894">
        <ele>261</ele>
        <time>2015-06-17T12:14:20Z</time>
      </trkpt>
      <trkpt lat="43.39631" lon="6.07895">
        <ele>261</ele>
        <time>2015-06-17T12:14:22Z</time>
      </trkpt>
      <trkpt lat="43.39629" lon="6.07896">
        <ele>261.20001220703</ele>
        <time>2015-06-17T12:14:23Z</time>
      </trkpt>
      <trkpt lat="43.39627" lon="6.07896">
        <ele>261.20001220703</ele>
        <time>2015-06-17T12:14:24Z</time>
      </trkpt>
      <trkpt lat="43.39622" lon="6.07898">
        <ele>261.20001220703</ele>
        <time>2015-06-17T12:14:26Z</time>
      </trkpt>
      <trkpt lat="43.39618" lon="6.07901">
        <ele>261.39999389648</ele>
        <time>2015-06-17T12:14:28Z</time>
      </trkpt>
      <trkpt lat="43.39616" lon="6.07902">
        <ele>261.60000610352</ele>
        <time>2015-06-17T12:14:29Z</time>
      </trkpt>
      <trkpt lat="43.39613" lon="6.07903">
        <ele>261.60000610352</ele>
        <time>2015-06-17T12:14:30Z</time>
      </trkpt>
      <trkpt lat="43.39609" lon="6.07905">
        <ele>262</ele>
        <time>2015-06-17T12:14:32Z</time>
      </trkpt>
      <trkpt lat="43.39605" lon="6.07906">
        <ele>262.20001220703</ele>
        <time>2015-06-17T12:14:34Z</time>
      </trkpt>
      <trkpt lat="43.39599" lon="6.07907">
        <ele>262.79998779297</ele>
        <time>2015-06-17T12:14:36Z</time>
      </trkpt>
      <trkpt lat="43.39596" lon="6.07907">
        <ele>263.39999389648</ele>
        <time>2015-06-17T12:14:37Z</time>
      </trkpt>
      <trkpt lat="43.39594" lon="6.07907">
        <ele>263.79998779297</ele>
        <time>2015-06-17T12:14:38Z</time>
      </trkpt>
      <trkpt lat="43.39589" lon="6.07907">
        <ele>264.60000610352</ele>
        <time>2015-06-17T12:14:40Z</time>
      </trkpt>
      <trkpt lat="43.39586" lon="6.07907">
        <ele>265.20001220703</ele>
        <time>2015-06-17T12:14:42Z</time>
      </trkpt>
      <trkpt lat="43.39583" lon="6.0791">
        <ele>265.60000610352</ele>
        <time>2015-06-17T12:14:44Z</time>
      </trkpt>
      <trkpt lat="43.39581" lon="6.07914">
        <ele>265.60000610352</ele>
        <time>2015-06-17T12:14:46Z</time>
      </trkpt>
      <trkpt lat="43.39579" lon="6.07918">
        <ele>265.79998779297</ele>
        <time>2015-06-17T12:14:48Z</time>
      </trkpt>
      <trkpt lat="43.39578" lon="6.0792">
        <ele>265.79998779297</ele>
        <time>2015-06-17T12:14:49Z</time>
      </trkpt>
      <trkpt lat="43.39578" lon="6.0792">
        <ele>265.79998779297</ele>
        <time>2015-06-17T12:14:50Z</time>
      </trkpt>
      <trkpt lat="43.39577" lon="6.07921">
        <ele>266</ele>
        <time>2015-06-17T12:14:52Z</time>
      </trkpt>
      <trkpt lat="43.39578" lon="6.0792">
        <ele>266</ele>
        <time>2015-06-17T12:14:53Z</time>
      </trkpt>
      <trkpt lat="43.39578" lon="6.0792">
        <ele>266</ele>
        <time>2015-06-17T12:14:54Z</time>
      </trkpt>
      <trkpt lat="43.39578" lon="6.0792">
        <ele>265.79998779297</ele>
        <time>2015-06-17T12:14:56Z</time>
      </trkpt>
      <trkpt lat="43.39578" lon="6.0792">
        <ele>266</ele>
        <time>2015-06-17T12:14:58Z</time>
      </trkpt>
      <trkpt lat="43.39578" lon="6.0792">
        <ele>265.79998779297</ele>
        <time>2015-06-17T12:15:00Z</time>
      </trkpt>
      <trkpt lat="43.39578" lon="6.0792">
        <ele>266</ele>
        <time>2015-06-17T12:15:02Z</time>
      </trkpt>
      <trkpt lat="43.39578" lon="6.0792">
        <ele>266</ele>
        <time>2015-06-17T12:15:04Z</time>
      </trkpt>
      <trkpt lat="43.39578" lon="6.0792">
        <ele>266</ele>
        <time>2015-06-17T12:15:06Z</time>
      </trkpt>
      <trkpt lat="43.39578" lon="6.0792">
        <ele>266</ele>
        <time>2015-06-17T12:15:08Z</time>
      </trkpt>
      <trkpt lat="43.39578" lon="6.0792">
        <ele>266</ele>
        <time>2015-06-17T12:15:09Z</time>
      </trkpt>
      <trkpt lat="43.39578" lon="6.0792">
        <ele>266.20001220703</ele>
        <time>2015-06-17T12:15:12Z</time>
      </trkpt>
      <trkpt lat="43.39578" lon="6.0792">
        <ele>266.20001220703</ele>
        <time>2015-06-17T12:15:14Z</time>
      </trkpt>
      <trkpt lat="43.39578" lon="6.0792">
        <ele>266.20001220703</ele>
        <time>2015-06-17T12:15:16Z</time>
      </trkpt>
      <trkpt lat="43.39578" lon="6.0792">
        <ele>266.20001220703</ele>
        <time>2015-06-17T12:15:18Z</time>
      </trkpt>
      <trkpt lat="43.39578" lon="6.0792">
        <ele>266.20001220703</ele>
        <time>2015-06-17T12:15:20Z</time>
      </trkpt>
      <trkpt lat="43.39578" lon="6.0792">
        <ele>266.20001220703</ele>
        <time>2015-06-17T12:15:22Z</time>
      </trkpt>
      <trkpt lat="43.39578" lon="6.0792">
        <ele>266</ele>
        <time>2015-06-17T12:15:24Z</time>
      </trkpt>
      <trkpt lat="43.39578" lon="6.0792">
        <ele>266</ele>
        <time>2015-06-17T12:15:26Z</time>
      </trkpt>
      <trkpt lat="43.39578" lon="6.0792">
        <ele>266</ele>
        <time>2015-06-17T12:15:28Z</time>
      </trkpt>
      <trkpt lat="43.39578" lon="6.0792">
        <ele>266</ele>
        <time>2015-06-17T12:15:30Z</time>
      </trkpt>
      <trkpt lat="43.39578" lon="6.0792">
        <ele>265.79998779297</ele>
        <time>2015-06-17T12:15:32Z</time>
      </trkpt>
      <trkpt lat="43.39578" lon="6.0792">
        <ele>266</ele>
        <time>2015-06-17T12:15:34Z</time>
      </trkpt>
      <trkpt lat="43.39578" lon="6.0792">
        <ele>266</ele>
        <time>2015-06-17T12:15:36Z</time>
      </trkpt>
      <trkpt lat="43.39578" lon="6.0792">
        <ele>265.79998779297</ele>
        <time>2015-06-17T12:15:37Z</time>
      </trkpt>
      <trkpt lat="43.39578" lon="6.0792">
        <ele>265.79998779297</ele>
        <time>2015-06-17T12:15:38Z</time>
      </trkpt>
      <trkpt lat="43.39578" lon="6.0792">
        <ele>266</ele>
        <time>2015-06-17T12:15:40Z</time>
      </trkpt>
      <trkpt lat="43.39578" lon="6.0792">
        <ele>266</ele>
        <time>2015-06-17T12:15:42Z</time>
      </trkpt>
      <trkpt lat="43.39578" lon="6.0792">
        <ele>266</ele>
        <time>2015-06-17T12:15:44Z</time>
      </trkpt>
      <trkpt lat="43.39578" lon="6.0792">
        <ele>266</ele>
        <time>2015-06-17T12:15:46Z</time>
      </trkpt>
      <trkpt lat="43.39578" lon="6.0792">
        <ele>265.79998779297</ele>
        <time>2015-06-17T12:15:48Z</time>
      </trkpt>
      <trkpt lat="43.39578" lon="6.07919">
        <ele>265.79998779297</ele>
        <time>2015-06-17T12:15:50Z</time>
      </trkpt>
      <trkpt lat="43.39578" lon="6.0792">
        <ele>266</ele>
        <time>2015-06-17T12:15:52Z</time>
      </trkpt>
      <trkpt lat="43.39578" lon="6.0792">
        <ele>266</ele>
        <time>2015-06-17T12:15:54Z</time>
      </trkpt>
      <trkpt lat="43.39578" lon="6.0792">
        <ele>266</ele>
        <time>2015-06-17T12:15:55Z</time>
      </trkpt>
      <trkpt lat="43.39578" lon="6.0792">
        <ele>266</ele>
        <time>2015-06-17T12:15:56Z</time>
      </trkpt>
      <trkpt lat="43.39578" lon="6.0792">
        <ele>266</ele>
        <time>2015-06-17T12:15:58Z</time>
      </trkpt>
      <trkpt lat="43.39578" lon="6.0792">
        <ele>266.20001220703</ele>
        <time>2015-06-17T12:16:00Z</time>
      </trkpt>
      <trkpt lat="43.39578" lon="6.0792">
        <ele>266.20001220703</ele>
        <time>2015-06-17T12:16:02Z</time>
      </trkpt>
      <trkpt lat="43.39578" lon="6.0792">
        <ele>266.20001220703</ele>
        <time>2015-06-17T12:16:04Z</time>
      </trkpt>
      <trkpt lat="43.39578" lon="6.0792">
        <ele>266.20001220703</ele>
        <time>2015-06-17T12:16:06Z</time>
      </trkpt>
      <trkpt lat="43.39578" lon="6.0792">
        <ele>266.20001220703</ele>
        <time>2015-06-17T12:16:08Z</time>
      </trkpt>
      <trkpt lat="43.39578" lon="6.0792">
        <ele>266.20001220703</ele>
        <time>2015-06-17T12:16:10Z</time>
      </trkpt>
      <trkpt lat="43.39578" lon="6.0792">
        <ele>266.20001220703</ele>
        <time>2015-06-17T12:16:11Z</time>
      </trkpt>
      <trkpt lat="43.39578" lon="6.0792">
        <ele>266.20001220703</ele>
        <time>2015-06-17T12:16:14Z</time>
      </trkpt>
      <trkpt lat="43.39578" lon="6.0792">
        <ele>266</ele>
        <time>2015-06-17T12:16:16Z</time>
      </trkpt>
      <trkpt lat="43.39578" lon="6.0792">
        <ele>266</ele>
        <time>2015-06-17T12:16:18Z</time>
      </trkpt>
      <trkpt lat="43.39577" lon="6.0792">
        <ele>266</ele>
        <time>2015-06-17T12:16:20Z</time>
      </trkpt>
      <trkpt lat="43.39577" lon="6.0792">
        <ele>266.20001220703</ele>
        <time>2015-06-17T12:16:22Z</time>
      </trkpt>
      <trkpt lat="43.39577" lon="6.0792">
        <ele>266</ele>
        <time>2015-06-17T12:16:23Z</time>
      </trkpt>
      <trkpt lat="43.39577" lon="6.0792">
        <ele>266</ele>
        <time>2015-06-17T12:16:24Z</time>
      </trkpt>
      <trkpt lat="43.39577" lon="6.0792">
        <ele>266.20001220703</ele>
        <time>2015-06-17T12:16:26Z</time>
      </trkpt>
      <trkpt lat="43.39577" lon="6.0792">
        <ele>266</ele>
        <time>2015-06-17T12:16:28Z</time>
      </trkpt>
      <trkpt lat="43.39577" lon="6.07921">
        <ele>266</ele>
        <time>2015-06-17T12:16:30Z</time>
      </trkpt>
      <trkpt lat="43.39577" lon="6.07921">
        <ele>266</ele>
        <time>2015-06-17T12:16:32Z</time>
      </trkpt>
      <trkpt lat="43.39577" lon="6.07921">
        <ele>266</ele>
        <time>2015-06-17T12:16:34Z</time>
      </trkpt>
      <trkpt lat="43.39577" lon="6.07921">
        <ele>266</ele>
        <time>2015-06-17T12:16:36Z</time>
      </trkpt>
      <trkpt lat="43.39576" lon="6.07921">
        <ele>266</ele>
        <time>2015-06-17T12:16:38Z</time>
      </trkpt>
      <trkpt lat="43.39576" lon="6.07921">
        <ele>265.79998779297</ele>
        <time>2015-06-17T12:16:40Z</time>
      </trkpt>
      <trkpt lat="43.39576" lon="6.07921">
        <ele>266</ele>
        <time>2015-06-17T12:16:42Z</time>
      </trkpt>
      <trkpt lat="43.39576" lon="6.07921">
        <ele>266</ele>
        <time>2015-06-17T12:16:44Z</time>
      </trkpt>
      <trkpt lat="43.39576" lon="6.07921">
        <ele>266</ele>
        <time>2015-06-17T12:16:46Z</time>
      </trkpt>
      <trkpt lat="43.39576" lon="6.07921">
        <ele>265.79998779297</ele>
        <time>2015-06-17T12:16:48Z</time>
      </trkpt>
      <trkpt lat="43.39576" lon="6.07921">
        <ele>265.79998779297</ele>
        <time>2015-06-17T12:16:50Z</time>
      </trkpt>
      <trkpt lat="43.39576" lon="6.07921">
        <ele>265.79998779297</ele>
        <time>2015-06-17T12:16:52Z</time>
      </trkpt>
      <trkpt lat="43.39576" lon="6.07921">
        <ele>265.79998779297</ele>
        <time>2015-06-17T12:16:54Z</time>
      </trkpt>
      <trkpt lat="43.39576" lon="6.07921">
        <ele>265.79998779297</ele>
        <time>2015-06-17T12:16:56Z</time>
      </trkpt>
      <trkpt lat="43.39576" lon="6.07921">
        <ele>266.20001220703</ele>
        <time>2015-06-17T12:16:58Z</time>
      </trkpt>
      <trkpt lat="43.39576" lon="6.07921">
        <ele>266</ele>
        <time>2015-06-17T12:17:00Z</time>
      </trkpt>
      <trkpt lat="43.39576" lon="6.07921">
        <ele>266</ele>
        <time>2015-06-17T12:17:02Z</time>
      </trkpt>
      <trkpt lat="43.39576" lon="6.07921">
        <ele>266</ele>
        <time>2015-06-17T12:17:04Z</time>
      </trkpt>
      <trkpt lat="43.39576" lon="6.07921">
        <ele>266.20001220703</ele>
        <time>2015-06-17T12:17:06Z</time>
      </trkpt>
      <trkpt lat="43.39576" lon="6.07921">
        <ele>266</ele>
        <time>2015-06-17T12:17:08Z</time>
      </trkpt>
      <trkpt lat="43.39576" lon="6.07921">
        <ele>266.39999389648</ele>
        <time>2015-06-17T12:17:10Z</time>
      </trkpt>
      <trkpt lat="43.39576" lon="6.07921">
        <ele>266.39999389648</ele>
        <time>2015-06-17T12:17:12Z</time>
      </trkpt>
      <trkpt lat="43.39576" lon="6.07921">
        <ele>266.20001220703</ele>
        <time>2015-06-17T12:17:14Z</time>
      </trkpt>
      <trkpt lat="43.39576" lon="6.07921">
        <ele>266.39999389648</ele>
        <time>2015-06-17T12:17:16Z</time>
      </trkpt>
      <trkpt lat="43.39576" lon="6.07921">
        <ele>266.39999389648</ele>
        <time>2015-06-17T12:17:18Z</time>
      </trkpt>
      <trkpt lat="43.39576" lon="6.07921">
        <ele>266.39999389648</ele>
        <time>2015-06-17T12:17:20Z</time>
      </trkpt>
      <trkpt lat="43.39576" lon="6.07921">
        <ele>266.60000610352</ele>
        <time>2015-06-17T12:17:22Z</time>
      </trkpt>
      <trkpt lat="43.39576" lon="6.07921">
        <ele>266.39999389648</ele>
        <time>2015-06-17T12:17:24Z</time>
      </trkpt>
      <trkpt lat="43.39576" lon="6.07921">
        <ele>266.39999389648</ele>
        <time>2015-06-17T12:17:26Z</time>
      </trkpt>
      <trkpt lat="43.39576" lon="6.07921">
        <ele>266.39999389648</ele>
        <time>2015-06-17T12:17:28Z</time>
      </trkpt>
      <trkpt lat="43.39576" lon="6.07921">
        <ele>266.20001220703</ele>
        <time>2015-06-17T12:17:30Z</time>
      </trkpt>
      <trkpt lat="43.39576" lon="6.07921">
        <ele>266.20001220703</ele>
        <time>2015-06-17T12:17:32Z</time>
      </trkpt>
      <trkpt lat="43.39576" lon="6.07921">
        <ele>266.20001220703</ele>
        <time>2015-06-17T12:17:34Z</time>
      </trkpt>
      <trkpt lat="43.39576" lon="6.07921">
        <ele>266.39999389648</ele>
        <time>2015-06-17T12:17:36Z</time>
      </trkpt>
      <trkpt lat="43.39576" lon="6.07921">
        <ele>266.39999389648</ele>
        <time>2015-06-17T12:17:38Z</time>
      </trkpt>
      <trkpt lat="43.39576" lon="6.07921">
        <ele>266.39999389648</ele>
        <time>2015-06-17T12:17:40Z</time>
      </trkpt>
      <trkpt lat="43.39576" lon="6.07921">
        <ele>266.39999389648</ele>
        <time>2015-06-17T12:17:42Z</time>
      </trkpt>
      <trkpt lat="43.39576" lon="6.07921">
        <ele>266.20001220703</ele>
        <time>2015-06-17T12:17:44Z</time>
      </trkpt>
      <trkpt lat="43.39576" lon="6.07921">
        <ele>266.20001220703</ele>
        <time>2015-06-17T12:17:46Z</time>
      </trkpt>
      <trkpt lat="43.39576" lon="6.07921">
        <ele>266.20001220703</ele>
        <time>2015-06-17T12:17:48Z</time>
      </trkpt>
      <trkpt lat="43.39576" lon="6.07924">
        <ele>266.20001220703</ele>
        <time>2015-06-17T12:17:50Z</time>
      </trkpt>
      <trkpt lat="43.39576" lon="6.07926">
        <ele>266.20001220703</ele>
        <time>2015-06-17T12:17:51Z</time>
      </trkpt>
      <trkpt lat="43.39576" lon="6.07929">
        <ele>266.39999389648</ele>
        <time>2015-06-17T12:17:52Z</time>
      </trkpt>
      <trkpt lat="43.39574" lon="6.07933">
        <ele>266.60000610352</ele>
        <time>2015-06-17T12:17:54Z</time>
      </trkpt>
      <trkpt lat="43.39572" lon="6.07934">
        <ele>267.20001220703</ele>
        <time>2015-06-17T12:17:55Z</time>
      </trkpt>
      <trkpt lat="43.39569" lon="6.07935">
        <ele>267.60000610352</ele>
        <time>2015-06-17T12:17:56Z</time>
      </trkpt>
      <trkpt lat="43.39567" lon="6.07936">
        <ele>267.79998779297</ele>
        <time>2015-06-17T12:17:57Z</time>
      </trkpt>
      <trkpt lat="43.39565" lon="6.07937">
        <ele>268.20001220703</ele>
        <time>2015-06-17T12:17:58Z</time>
      </trkpt>
      <trkpt lat="43.39562" lon="6.07937">
        <ele>268.39999389648</ele>
        <time>2015-06-17T12:17:59Z</time>
      </trkpt>
      <trkpt lat="43.3956" lon="6.07938">
        <ele>268.79998779297</ele>
        <time>2015-06-17T12:18:00Z</time>
      </trkpt>
      <trkpt lat="43.39557" lon="6.07938">
        <ele>269.20001220703</ele>
        <time>2015-06-17T12:18:01Z</time>
      </trkpt>
      <trkpt lat="43.39554" lon="6.07938">
        <ele>269.60000610352</ele>
        <time>2015-06-17T12:18:02Z</time>
      </trkpt>
      <trkpt lat="43.39549" lon="6.0794">
        <ele>269.79998779297</ele>
        <time>2015-06-17T12:18:04Z</time>
      </trkpt>
      <trkpt lat="43.39547" lon="6.07941">
        <ele>270.20001220703</ele>
        <time>2015-06-17T12:18:05Z</time>
      </trkpt>
      <trkpt lat="43.39545" lon="6.07943">
        <ele>270.60000610352</ele>
        <time>2015-06-17T12:18:06Z</time>
      </trkpt>
      <trkpt lat="43.39542" lon="6.07944">
        <ele>270.79998779297</ele>
        <time>2015-06-17T12:18:07Z</time>
      </trkpt>
      <trkpt lat="43.3954" lon="6.07945">
        <ele>270.79998779297</ele>
        <time>2015-06-17T12:18:08Z</time>
      </trkpt>
      <trkpt lat="43.39535" lon="6.07947">
        <ele>271</ele>
        <time>2015-06-17T12:18:10Z</time>
      </trkpt>
      <trkpt lat="43.39533" lon="6.07949">
        <ele>271.39999389648</ele>
        <time>2015-06-17T12:18:11Z</time>
      </trkpt>
      <trkpt lat="43.39531" lon="6.0795">
        <ele>272</ele>
        <time>2015-06-17T12:18:12Z</time>
      </trkpt>
      <trkpt lat="43.39527" lon="6.07952">
        <ele>272.39999389648</ele>
        <time>2015-06-17T12:18:14Z</time>
      </trkpt>
      <trkpt lat="43.39523" lon="6.07953">
        <ele>272.60000610352</ele>
        <time>2015-06-17T12:18:16Z</time>
      </trkpt>
      <trkpt lat="43.39519" lon="6.07955">
        <ele>273</ele>
        <time>2015-06-17T12:18:18Z</time>
      </trkpt>
      <trkpt lat="43.39515" lon="6.07956">
        <ele>273.39999389648</ele>
        <time>2015-06-17T12:18:20Z</time>
      </trkpt>
      <trkpt lat="43.39513" lon="6.07957">
        <ele>273.60000610352</ele>
        <time>2015-06-17T12:18:21Z</time>
      </trkpt>
      <trkpt lat="43.39512" lon="6.07958">
        <ele>273.79998779297</ele>
        <time>2015-06-17T12:18:22Z</time>
      </trkpt>
      <trkpt lat="43.39508" lon="6.07959">
        <ele>274</ele>
        <time>2015-06-17T12:18:24Z</time>
      </trkpt>
      <trkpt lat="43.39505" lon="6.07961">
        <ele>274.79998779297</ele>
        <time>2015-06-17T12:18:26Z</time>
      </trkpt>
      <trkpt lat="43.39503" lon="6.07961">
        <ele>274.79998779297</ele>
        <time>2015-06-17T12:18:27Z</time>
      </trkpt>
      <trkpt lat="43.39501" lon="6.07962">
        <ele>274.79998779297</ele>
        <time>2015-06-17T12:18:28Z</time>
      </trkpt>
      <trkpt lat="43.39499" lon="6.07962">
        <ele>274.79998779297</ele>
        <time>2015-06-17T12:18:29Z</time>
      </trkpt>
      <trkpt lat="43.39497" lon="6.07963">
        <ele>275</ele>
        <time>2015-06-17T12:18:30Z</time>
      </trkpt>
      <trkpt lat="43.39494" lon="6.07965">
        <ele>275.20001220703</ele>
        <time>2015-06-17T12:18:32Z</time>
      </trkpt>
      <trkpt lat="43.3949" lon="6.07966">
        <ele>275.20001220703</ele>
        <time>2015-06-17T12:18:34Z</time>
      </trkpt>
      <trkpt lat="43.39487" lon="6.07968">
        <ele>275.39999389648</ele>
        <time>2015-06-17T12:18:36Z</time>
      </trkpt>
      <trkpt lat="43.39483" lon="6.07969">
        <ele>275.79998779297</ele>
        <time>2015-06-17T12:18:38Z</time>
      </trkpt>
      <trkpt lat="43.39481" lon="6.0797">
        <ele>276</ele>
        <time>2015-06-17T12:18:39Z</time>
      </trkpt>
      <trkpt lat="43.39479" lon="6.0797">
        <ele>276</ele>
        <time>2015-06-17T12:18:40Z</time>
      </trkpt>
      <trkpt lat="43.39476" lon="6.07971">
        <ele>275.79998779297</ele>
        <time>2015-06-17T12:18:42Z</time>
      </trkpt>
      <trkpt lat="43.39472" lon="6.07972">
        <ele>276.20001220703</ele>
        <time>2015-06-17T12:18:44Z</time>
      </trkpt>
      <trkpt lat="43.39468" lon="6.07973">
        <ele>276.39999389648</ele>
        <time>2015-06-17T12:18:46Z</time>
      </trkpt>
      <trkpt lat="43.39465" lon="6.07974">
        <ele>276.39999389648</ele>
        <time>2015-06-17T12:18:48Z</time>
      </trkpt>
      <trkpt lat="43.3946" lon="6.07976">
        <ele>276.60000610352</ele>
        <time>2015-06-17T12:18:50Z</time>
      </trkpt>
      <trkpt lat="43.39457" lon="6.07977">
        <ele>277</ele>
        <time>2015-06-17T12:18:52Z</time>
      </trkpt>
      <trkpt lat="43.39454" lon="6.07977">
        <ele>277.20001220703</ele>
        <time>2015-06-17T12:18:53Z</time>
      </trkpt>
      <trkpt lat="43.39452" lon="6.07978">
        <ele>277</ele>
        <time>2015-06-17T12:18:54Z</time>
      </trkpt>
      <trkpt lat="43.39448" lon="6.07979">
        <ele>277</ele>
        <time>2015-06-17T12:18:56Z</time>
      </trkpt>
      <trkpt lat="43.39444" lon="6.07981">
        <ele>277.39999389648</ele>
        <time>2015-06-17T12:18:58Z</time>
      </trkpt>
      <trkpt lat="43.39439" lon="6.07983">
        <ele>277.60000610352</ele>
        <time>2015-06-17T12:19:00Z</time>
      </trkpt>
      <trkpt lat="43.39435" lon="6.07984">
        <ele>277.60000610352</ele>
        <time>2015-06-17T12:19:02Z</time>
      </trkpt>
      <trkpt lat="43.39431" lon="6.07985">
        <ele>278.20001220703</ele>
        <time>2015-06-17T12:19:04Z</time>
      </trkpt>
      <trkpt lat="43.39428" lon="6.07987">
        <ele>278.60000610352</ele>
        <time>2015-06-17T12:19:06Z</time>
      </trkpt>
      <trkpt lat="43.39426" lon="6.07988">
        <ele>278.60000610352</ele>
        <time>2015-06-17T12:19:07Z</time>
      </trkpt>
      <trkpt lat="43.39423" lon="6.07988">
        <ele>278.79998779297</ele>
        <time>2015-06-17T12:19:08Z</time>
      </trkpt>
      <trkpt lat="43.39418" lon="6.0799">
        <ele>278.79998779297</ele>
        <time>2015-06-17T12:19:10Z</time>
      </trkpt>
      <trkpt lat="43.39415" lon="6.07992">
        <ele>278.79998779297</ele>
        <time>2015-06-17T12:19:12Z</time>
      </trkpt>
      <trkpt lat="43.39411" lon="6.07995">
        <ele>279.20001220703</ele>
        <time>2015-06-17T12:19:14Z</time>
      </trkpt>
      <trkpt lat="43.39409" lon="6.07996">
        <ele>279.20001220703</ele>
        <time>2015-06-17T12:19:15Z</time>
      </trkpt>
      <trkpt lat="43.39407" lon="6.07996">
        <ele>279.39999389648</ele>
        <time>2015-06-17T12:19:16Z</time>
      </trkpt>
      <trkpt lat="43.39403" lon="6.07998">
        <ele>279.79998779297</ele>
        <time>2015-06-17T12:19:18Z</time>
      </trkpt>
      <trkpt lat="43.39399" lon="6.08">
        <ele>279.79998779297</ele>
        <time>2015-06-17T12:19:20Z</time>
      </trkpt>
      <trkpt lat="43.39398" lon="6.08001">
        <ele>280.20001220703</ele>
        <time>2015-06-17T12:19:21Z</time>
      </trkpt>
      <trkpt lat="43.39396" lon="6.08002">
        <ele>280.60000610352</ele>
        <time>2015-06-17T12:19:22Z</time>
      </trkpt>
      <trkpt lat="43.39392" lon="6.08004">
        <ele>281.20001220703</ele>
        <time>2015-06-17T12:19:24Z</time>
      </trkpt>
      <trkpt lat="43.39388" lon="6.08003">
        <ele>281.60000610352</ele>
        <time>2015-06-17T12:19:26Z</time>
      </trkpt>
      <trkpt lat="43.39385" lon="6.08002">
        <ele>281.79998779297</ele>
        <time>2015-06-17T12:19:27Z</time>
      </trkpt>
      <trkpt lat="43.39383" lon="6.08002">
        <ele>281.79998779297</ele>
        <time>2015-06-17T12:19:28Z</time>
      </trkpt>
      <trkpt lat="43.39381" lon="6.08002">
        <ele>281.79998779297</ele>
        <time>2015-06-17T12:19:29Z</time>
      </trkpt>
      <trkpt lat="43.39379" lon="6.08003">
        <ele>281.79998779297</ele>
        <time>2015-06-17T12:19:30Z</time>
      </trkpt>
      <trkpt lat="43.39376" lon="6.08005">
        <ele>282</ele>
        <time>2015-06-17T12:19:32Z</time>
      </trkpt>
      <trkpt lat="43.39375" lon="6.08007">
        <ele>282.20001220703</ele>
        <time>2015-06-17T12:19:34Z</time>
      </trkpt>
      <trkpt lat="43.39374" lon="6.08009">
        <ele>282.20001220703</ele>
        <time>2015-06-17T12:19:35Z</time>
      </trkpt>
      <trkpt lat="43.39373" lon="6.08009">
        <ele>282.20001220703</ele>
        <time>2015-06-17T12:19:36Z</time>
      </trkpt>
      <trkpt lat="43.39372" lon="6.0801">
        <ele>282.60000610352</ele>
        <time>2015-06-17T12:19:38Z</time>
      </trkpt>
      <trkpt lat="43.39371" lon="6.08011">
        <ele>282.60000610352</ele>
        <time>2015-06-17T12:19:40Z</time>
      </trkpt>
      <trkpt lat="43.3937" lon="6.08011">
        <ele>282.60000610352</ele>
        <time>2015-06-17T12:19:42Z</time>
      </trkpt>
      <trkpt lat="43.3937" lon="6.08012">
        <ele>282.60000610352</ele>
        <time>2015-06-17T12:19:44Z</time>
      </trkpt>
      <trkpt lat="43.3937" lon="6.08012">
        <ele>282.39999389648</ele>
        <time>2015-06-17T12:19:46Z</time>
      </trkpt>
      <trkpt lat="43.3937" lon="6.08012">
        <ele>282.39999389648</ele>
        <time>2015-06-17T12:19:48Z</time>
      </trkpt>
      <trkpt lat="43.3937" lon="6.08012">
        <ele>282.39999389648</ele>
        <time>2015-06-17T12:19:50Z</time>
      </trkpt>
      <trkpt lat="43.39369" lon="6.08012">
        <ele>282.60000610352</ele>
        <time>2015-06-17T12:19:52Z</time>
      </trkpt>
      <trkpt lat="43.39366" lon="6.08014">
        <ele>282.79998779297</ele>
        <time>2015-06-17T12:19:54Z</time>
      </trkpt>
      <trkpt lat="43.39365" lon="6.08015">
        <ele>282.79998779297</ele>
        <time>2015-06-17T12:19:55Z</time>
      </trkpt>
      <trkpt lat="43.39363" lon="6.08016">
        <ele>282.79998779297</ele>
        <time>2015-06-17T12:19:56Z</time>
      </trkpt>
      <trkpt lat="43.3936" lon="6.08019">
        <ele>283.39999389648</ele>
        <time>2015-06-17T12:19:58Z</time>
      </trkpt>
      <trkpt lat="43.39358" lon="6.08022">
        <ele>283.60000610352</ele>
        <time>2015-06-17T12:20:00Z</time>
      </trkpt>
      <trkpt lat="43.39357" lon="6.08024">
        <ele>283.60000610352</ele>
        <time>2015-06-17T12:20:01Z</time>
      </trkpt>
      <trkpt lat="43.39357" lon="6.08026">
        <ele>283.60000610352</ele>
        <time>2015-06-17T12:20:02Z</time>
      </trkpt>
      <trkpt lat="43.39355" lon="6.08028">
        <ele>283.60000610352</ele>
        <time>2015-06-17T12:20:04Z</time>
      </trkpt>
      <trkpt lat="43.39353" lon="6.08032">
        <ele>284</ele>
        <time>2015-06-17T12:20:06Z</time>
      </trkpt>
      <trkpt lat="43.39351" lon="6.08036">
        <ele>284</ele>
        <time>2015-06-17T12:20:08Z</time>
      </trkpt>
      <trkpt lat="43.39347" lon="6.08038">
        <ele>284.60000610352</ele>
        <time>2015-06-17T12:20:10Z</time>
      </trkpt>
      <trkpt lat="43.39346" lon="6.08039">
        <ele>285</ele>
        <time>2015-06-17T12:20:11Z</time>
      </trkpt>
      <trkpt lat="43.39344" lon="6.08041">
        <ele>285.20001220703</ele>
        <time>2015-06-17T12:20:12Z</time>
      </trkpt>
      <trkpt lat="43.39341" lon="6.08043">
        <ele>285.60000610352</ele>
        <time>2015-06-17T12:20:14Z</time>
      </trkpt>
      <trkpt lat="43.39339" lon="6.08046">
        <ele>286</ele>
        <time>2015-06-17T12:20:16Z</time>
      </trkpt>
      <trkpt lat="43.39338" lon="6.08048">
        <ele>286.20001220703</ele>
        <time>2015-06-17T12:20:17Z</time>
      </trkpt>
      <trkpt lat="43.39336" lon="6.08051">
        <ele>286.39999389648</ele>
        <time>2015-06-17T12:20:18Z</time>
      </trkpt>
      <trkpt lat="43.39334" lon="6.08055">
        <ele>285.79998779297</ele>
        <time>2015-06-17T12:20:20Z</time>
      </trkpt>
      <trkpt lat="43.39331" lon="6.0806">
        <ele>286</ele>
        <time>2015-06-17T12:20:22Z</time>
      </trkpt>
      <trkpt lat="43.39328" lon="6.08065">
        <ele>286.20001220703</ele>
        <time>2015-06-17T12:20:24Z</time>
      </trkpt>
      <trkpt lat="43.39325" lon="6.0807">
        <ele>286.60000610352</ele>
        <time>2015-06-17T12:20:26Z</time>
      </trkpt>
      <trkpt lat="43.39322" lon="6.08075">
        <ele>286.60000610352</ele>
        <time>2015-06-17T12:20:28Z</time>
      </trkpt>
      <trkpt lat="43.39318" lon="6.08079">
        <ele>286.79998779297</ele>
        <time>2015-06-17T12:20:30Z</time>
      </trkpt>
      <trkpt lat="43.39315" lon="6.08083">
        <ele>286.60000610352</ele>
        <time>2015-06-17T12:20:32Z</time>
      </trkpt>
      <trkpt lat="43.39313" lon="6.08085">
        <ele>287</ele>
        <time>2015-06-17T12:20:34Z</time>
      </trkpt>
      <trkpt lat="43.3931" lon="6.08088">
        <ele>286.79998779297</ele>
        <time>2015-06-17T12:20:36Z</time>
      </trkpt>
      <trkpt lat="43.39307" lon="6.08093">
        <ele>287.20001220703</ele>
        <time>2015-06-17T12:20:38Z</time>
      </trkpt>
      <trkpt lat="43.39306" lon="6.08095">
        <ele>287.60000610352</ele>
        <time>2015-06-17T12:20:39Z</time>
      </trkpt>
      <trkpt lat="43.39304" lon="6.08097">
        <ele>287.60000610352</ele>
        <time>2015-06-17T12:20:40Z</time>
      </trkpt>
      <trkpt lat="43.39302" lon="6.08101">
        <ele>288</ele>
        <time>2015-06-17T12:20:42Z</time>
      </trkpt>
      <trkpt lat="43.39302" lon="6.08102">
        <ele>288.20001220703</ele>
        <time>2015-06-17T12:20:44Z</time>
      </trkpt>
      <trkpt lat="43.39301" lon="6.08103">
        <ele>288.20001220703</ele>
        <time>2015-06-17T12:20:46Z</time>
      </trkpt>
      <trkpt lat="43.393" lon="6.08105">
        <ele>288.39999389648</ele>
        <time>2015-06-17T12:20:48Z</time>
      </trkpt>
      <trkpt lat="43.39298" lon="6.08108">
        <ele>288.20001220703</ele>
        <time>2015-06-17T12:20:50Z</time>
      </trkpt>
      <trkpt lat="43.39297" lon="6.0811">
        <ele>288.39999389648</ele>
        <time>2015-06-17T12:20:51Z</time>
      </trkpt>
      <trkpt lat="43.39297" lon="6.08113">
        <ele>288.39999389648</ele>
        <time>2015-06-17T12:20:52Z</time>
      </trkpt>
      <trkpt lat="43.39295" lon="6.08118">
        <ele>288.60000610352</ele>
        <time>2015-06-17T12:20:54Z</time>
      </trkpt>
      <trkpt lat="43.39292" lon="6.08123">
        <ele>288.79998779297</ele>
        <time>2015-06-17T12:20:56Z</time>
      </trkpt>
      <trkpt lat="43.39291" lon="6.08125">
        <ele>289</ele>
        <time>2015-06-17T12:20:57Z</time>
      </trkpt>
      <trkpt lat="43.3929" lon="6.08128">
        <ele>288.79998779297</ele>
        <time>2015-06-17T12:20:58Z</time>
      </trkpt>
      <trkpt lat="43.39288" lon="6.08133">
        <ele>288.60000610352</ele>
        <time>2015-06-17T12:21:00Z</time>
      </trkpt>
      <trkpt lat="43.39287" lon="6.08138">
        <ele>289.20001220703</ele>
        <time>2015-06-17T12:21:02Z</time>
      </trkpt>
      <trkpt lat="43.39286" lon="6.08141">
        <ele>289.20001220703</ele>
        <time>2015-06-17T12:21:03Z</time>
      </trkpt>
      <trkpt lat="43.39285" lon="6.08143">
        <ele>289.60000610352</ele>
        <time>2015-06-17T12:21:04Z</time>
      </trkpt>
      <trkpt lat="43.39285" lon="6.08145">
        <ele>290</ele>
        <time>2015-06-17T12:21:05Z</time>
      </trkpt>
      <trkpt lat="43.39285" lon="6.08147">
        <ele>290.20001220703</ele>
        <time>2015-06-17T12:21:06Z</time>
      </trkpt>
      <trkpt lat="43.39286" lon="6.08148">
        <ele>290</ele>
        <time>2015-06-17T12:21:07Z</time>
      </trkpt>
      <trkpt lat="43.39286" lon="6.08148">
        <ele>290.20001220703</ele>
        <time>2015-06-17T12:21:08Z</time>
      </trkpt>
      <trkpt lat="43.39286" lon="6.08148">
        <ele>290.20001220703</ele>
        <time>2015-06-17T12:21:10Z</time>
      </trkpt>
      <trkpt lat="43.39286" lon="6.08149">
        <ele>290.20001220703</ele>
        <time>2015-06-17T12:21:12Z</time>
      </trkpt>
      <trkpt lat="43.39285" lon="6.08149">
        <ele>290.39999389648</ele>
        <time>2015-06-17T12:21:13Z</time>
      </trkpt>
      <trkpt lat="43.39286" lon="6.08149">
        <ele>290.39999389648</ele>
        <time>2015-06-17T12:21:14Z</time>
      </trkpt>
      <trkpt lat="43.39286" lon="6.0815">
        <ele>290.79998779297</ele>
        <time>2015-06-17T12:21:16Z</time>
      </trkpt>
      <trkpt lat="43.39286" lon="6.08151">
        <ele>290.60000610352</ele>
        <time>2015-06-17T12:21:18Z</time>
      </trkpt>
      <trkpt lat="43.39286" lon="6.08153">
        <ele>290.79998779297</ele>
        <time>2015-06-17T12:21:20Z</time>
      </trkpt>
      <trkpt lat="43.39285" lon="6.08156">
        <ele>290.60000610352</ele>
        <time>2015-06-17T12:21:22Z</time>
      </trkpt>
      <trkpt lat="43.39283" lon="6.08161">
        <ele>290.79998779297</ele>
        <time>2015-06-17T12:21:24Z</time>
      </trkpt>
      <trkpt lat="43.39282" lon="6.08165">
        <ele>291.39999389648</ele>
        <time>2015-06-17T12:21:26Z</time>
      </trkpt>
      <trkpt lat="43.39281" lon="6.0817">
        <ele>291.79998779297</ele>
        <time>2015-06-17T12:21:28Z</time>
      </trkpt>
      <trkpt lat="43.39279" lon="6.08173">
        <ele>292</ele>
        <time>2015-06-17T12:21:30Z</time>
      </trkpt>
      <trkpt lat="43.39278" lon="6.08175">
        <ele>292.20001220703</ele>
        <time>2015-06-17T12:21:32Z</time>
      </trkpt>
      <trkpt lat="43.39278" lon="6.08176">
        <ele>292.39999389648</ele>
        <time>2015-06-17T12:21:33Z</time>
      </trkpt>
      <trkpt lat="43.39278" lon="6.08178">
        <ele>292.60000610352</ele>
        <time>2015-06-17T12:21:34Z</time>
      </trkpt>
      <trkpt lat="43.39277" lon="6.08182">
        <ele>292.79998779297</ele>
        <time>2015-06-17T12:21:36Z</time>
      </trkpt>
      <trkpt lat="43.39275" lon="6.08185">
        <ele>292.79998779297</ele>
        <time>2015-06-17T12:21:38Z</time>
      </trkpt>
      <trkpt lat="43.39275" lon="6.08186">
        <ele>293.20001220703</ele>
        <time>2015-06-17T12:21:40Z</time>
      </trkpt>
      <trkpt lat="43.39275" lon="6.08187">
        <ele>293.60000610352</ele>
        <time>2015-06-17T12:21:42Z</time>
      </trkpt>
      <trkpt lat="43.39275" lon="6.08188">
        <ele>293.79998779297</ele>
        <time>2015-06-17T12:21:44Z</time>
      </trkpt>
      <trkpt lat="43.39275" lon="6.08189">
        <ele>293.79998779297</ele>
        <time>2015-06-17T12:21:45Z</time>
      </trkpt>
      <trkpt lat="43.39274" lon="6.0819">
        <ele>294</ele>
        <time>2015-06-17T12:21:46Z</time>
      </trkpt>
      <trkpt lat="43.39273" lon="6.08192">
        <ele>294.20001220703</ele>
        <time>2015-06-17T12:21:48Z</time>
      </trkpt>
      <trkpt lat="43.39273" lon="6.08193">
        <ele>294.20001220703</ele>
        <time>2015-06-17T12:21:49Z</time>
      </trkpt>
      <trkpt lat="43.39273" lon="6.08194">
        <ele>294.20001220703</ele>
        <time>2015-06-17T12:21:50Z</time>
      </trkpt>
      <trkpt lat="43.39273" lon="6.08195">
        <ele>294</ele>
        <time>2015-06-17T12:21:52Z</time>
      </trkpt>
      <trkpt lat="43.39273" lon="6.08196">
        <ele>294.20001220703</ele>
        <time>2015-06-17T12:21:54Z</time>
      </trkpt>
      <trkpt lat="43.39273" lon="6.08197">
        <ele>294.20001220703</ele>
        <time>2015-06-17T12:21:56Z</time>
      </trkpt>
      <trkpt lat="43.39271" lon="6.08201">
        <ele>294.39999389648</ele>
        <time>2015-06-17T12:21:58Z</time>
      </trkpt>
      <trkpt lat="43.39271" lon="6.08205">
        <ele>294.60000610352</ele>
        <time>2015-06-17T12:22:00Z</time>
      </trkpt>
      <trkpt lat="43.3927" lon="6.08211">
        <ele>294.60000610352</ele>
        <time>2015-06-17T12:22:02Z</time>
      </trkpt>
      <trkpt lat="43.3927" lon="6.08214">
        <ele>294.60000610352</ele>
        <time>2015-06-17T12:22:03Z</time>
      </trkpt>
      <trkpt lat="43.3927" lon="6.08217">
        <ele>294.79998779297</ele>
        <time>2015-06-17T12:22:04Z</time>
      </trkpt>
      <trkpt lat="43.39269" lon="6.08222">
        <ele>295</ele>
        <time>2015-06-17T12:22:06Z</time>
      </trkpt>
      <trkpt lat="43.39269" lon="6.08225">
        <ele>295.20001220703</ele>
        <time>2015-06-17T12:22:07Z</time>
      </trkpt>
      <trkpt lat="43.39268" lon="6.08227">
        <ele>295</ele>
        <time>2015-06-17T12:22:08Z</time>
      </trkpt>
      <trkpt lat="43.39267" lon="6.08232">
        <ele>295</ele>
        <time>2015-06-17T12:22:10Z</time>
      </trkpt>
      <trkpt lat="43.39265" lon="6.08237">
        <ele>295.39999389648</ele>
        <time>2015-06-17T12:22:12Z</time>
      </trkpt>
      <trkpt lat="43.39265" lon="6.08241">
        <ele>296</ele>
        <time>2015-06-17T12:22:14Z</time>
      </trkpt>
      <trkpt lat="43.39264" lon="6.08242">
        <ele>296.39999389648</ele>
        <time>2015-06-17T12:22:15Z</time>
      </trkpt>
      <trkpt lat="43.39264" lon="6.08245">
        <ele>296.60000610352</ele>
        <time>2015-06-17T12:22:16Z</time>
      </trkpt>
      <trkpt lat="43.39263" lon="6.08249">
        <ele>296.79998779297</ele>
        <time>2015-06-17T12:22:18Z</time>
      </trkpt>
      <trkpt lat="43.39263" lon="6.08252">
        <ele>297</ele>
        <time>2015-06-17T12:22:19Z</time>
      </trkpt>
      <trkpt lat="43.39262" lon="6.08254">
        <ele>297</ele>
        <time>2015-06-17T12:22:20Z</time>
      </trkpt>
      <trkpt lat="43.39261" lon="6.08259">
        <ele>297.20001220703</ele>
        <time>2015-06-17T12:22:22Z</time>
      </trkpt>
      <trkpt lat="43.3926" lon="6.08263">
        <ele>297.79998779297</ele>
        <time>2015-06-17T12:22:24Z</time>
      </trkpt>
      <trkpt lat="43.39259" lon="6.08264">
        <ele>297.79998779297</ele>
        <time>2015-06-17T12:22:25Z</time>
      </trkpt>
      <trkpt lat="43.39258" lon="6.08266">
        <ele>297.79998779297</ele>
        <time>2015-06-17T12:22:26Z</time>
      </trkpt>
      <trkpt lat="43.39255" lon="6.08268">
        <ele>298.20001220703</ele>
        <time>2015-06-17T12:22:28Z</time>
      </trkpt>
      <trkpt lat="43.39254" lon="6.08269">
        <ele>298.39999389648</ele>
        <time>2015-06-17T12:22:29Z</time>
      </trkpt>
      <trkpt lat="43.39253" lon="6.08271">
        <ele>298.79998779297</ele>
        <time>2015-06-17T12:22:30Z</time>
      </trkpt>
      <trkpt lat="43.39252" lon="6.08272">
        <ele>298.79998779297</ele>
        <time>2015-06-17T12:22:31Z</time>
      </trkpt>
      <trkpt lat="43.39251" lon="6.08273">
        <ele>299</ele>
        <time>2015-06-17T12:22:32Z</time>
      </trkpt>
      <trkpt lat="43.39249" lon="6.08275">
        <ele>299.39999389648</ele>
        <time>2015-06-17T12:22:34Z</time>
      </trkpt>
      <trkpt lat="43.39248" lon="6.08276">
        <ele>299.39999389648</ele>
        <time>2015-06-17T12:22:35Z</time>
      </trkpt>
      <trkpt lat="43.39246" lon="6.08277">
        <ele>299.39999389648</ele>
        <time>2015-06-17T12:22:36Z</time>
      </trkpt>
      <trkpt lat="43.39244" lon="6.0828">
        <ele>299.60000610352</ele>
        <time>2015-06-17T12:22:38Z</time>
      </trkpt>
      <trkpt lat="43.39243" lon="6.08284">
        <ele>299.60000610352</ele>
        <time>2015-06-17T12:22:40Z</time>
      </trkpt>
      <trkpt lat="43.39242" lon="6.08285">
        <ele>299.79998779297</ele>
        <time>2015-06-17T12:22:41Z</time>
      </trkpt>
      <trkpt lat="43.39241" lon="6.08287">
        <ele>300.20001220703</ele>
        <time>2015-06-17T12:22:42Z</time>
      </trkpt>
      <trkpt lat="43.3924" lon="6.08289">
        <ele>301</ele>
        <time>2015-06-17T12:22:44Z</time>
      </trkpt>
      <trkpt lat="43.39239" lon="6.08292">
        <ele>301.20001220703</ele>
        <time>2015-06-17T12:22:46Z</time>
      </trkpt>
      <trkpt lat="43.39237" lon="6.08296">
        <ele>301.20001220703</ele>
        <time>2015-06-17T12:22:48Z</time>
      </trkpt>
      <trkpt lat="43.39235" lon="6.083">
        <ele>301.39999389648</ele>
        <time>2015-06-17T12:22:50Z</time>
      </trkpt>
      <trkpt lat="43.39233" lon="6.08303">
        <ele>302</ele>
        <time>2015-06-17T12:22:52Z</time>
      </trkpt>
      <trkpt lat="43.39232" lon="6.08308">
        <ele>302.60000610352</ele>
        <time>2015-06-17T12:22:54Z</time>
      </trkpt>
      <trkpt lat="43.39232" lon="6.08309">
        <ele>302.79998779297</ele>
        <time>2015-06-17T12:22:56Z</time>
      </trkpt>
      <trkpt lat="43.39231" lon="6.0831">
        <ele>302.60000610352</ele>
        <time>2015-06-17T12:22:58Z</time>
      </trkpt>
      <trkpt lat="43.39231" lon="6.0831">
        <ele>302.60000610352</ele>
        <time>2015-06-17T12:22:59Z</time>
      </trkpt>
      <trkpt lat="43.39231" lon="6.0831">
        <ele>302.60000610352</ele>
        <time>2015-06-17T12:23:00Z</time>
      </trkpt>
      <trkpt lat="43.39231" lon="6.0831">
        <ele>302.79998779297</ele>
        <time>2015-06-17T12:23:02Z</time>
      </trkpt>
      <trkpt lat="43.39231" lon="6.08311">
        <ele>302.79998779297</ele>
        <time>2015-06-17T12:23:04Z</time>
      </trkpt>
      <trkpt lat="43.3923" lon="6.08312">
        <ele>302.79998779297</ele>
        <time>2015-06-17T12:23:06Z</time>
      </trkpt>
      <trkpt lat="43.3923" lon="6.08314">
        <ele>303.20001220703</ele>
        <time>2015-06-17T12:23:08Z</time>
      </trkpt>
      <trkpt lat="43.39229" lon="6.08315">
        <ele>303.39999389648</ele>
        <time>2015-06-17T12:23:09Z</time>
      </trkpt>
      <trkpt lat="43.39229" lon="6.08316">
        <ele>303.39999389648</ele>
        <time>2015-06-17T12:23:10Z</time>
      </trkpt>
      <trkpt lat="43.39229" lon="6.08316">
        <ele>303.39999389648</ele>
        <time>2015-06-17T12:23:12Z</time>
      </trkpt>
      <trkpt lat="43.39229" lon="6.08317">
        <ele>303.39999389648</ele>
        <time>2015-06-17T12:23:14Z</time>
      </trkpt>
      <trkpt lat="43.39229" lon="6.08317">
        <ele>303.20001220703</ele>
        <time>2015-06-17T12:23:16Z</time>
      </trkpt>
      <trkpt lat="43.39229" lon="6.08317">
        <ele>303.20001220703</ele>
        <time>2015-06-17T12:23:18Z</time>
      </trkpt>
      <trkpt lat="43.39229" lon="6.08318">
        <ele>303.20001220703</ele>
        <time>2015-06-17T12:23:19Z</time>
      </trkpt>
      <trkpt lat="43.39229" lon="6.0832">
        <ele>303.60000610352</ele>
        <time>2015-06-17T12:23:20Z</time>
      </trkpt>
      <trkpt lat="43.39228" lon="6.08323">
        <ele>303.60000610352</ele>
        <time>2015-06-17T12:23:22Z</time>
      </trkpt>
      <trkpt lat="43.39228" lon="6.08325">
        <ele>303.60000610352</ele>
        <time>2015-06-17T12:23:23Z</time>
      </trkpt>
      <trkpt lat="43.39226" lon="6.08326">
        <ele>303.79998779297</ele>
        <time>2015-06-17T12:23:24Z</time>
      </trkpt>
      <trkpt lat="43.39225" lon="6.08327">
        <ele>304</ele>
        <time>2015-06-17T12:23:25Z</time>
      </trkpt>
      <trkpt lat="43.39223" lon="6.08328">
        <ele>304</ele>
        <time>2015-06-17T12:23:26Z</time>
      </trkpt>
      <trkpt lat="43.39222" lon="6.0833">
        <ele>304.39999389648</ele>
        <time>2015-06-17T12:23:28Z</time>
      </trkpt>
      <trkpt lat="43.39221" lon="6.08335">
        <ele>304.79998779297</ele>
        <time>2015-06-17T12:23:30Z</time>
      </trkpt>
      <trkpt lat="43.3922" lon="6.08338">
        <ele>305.39999389648</ele>
        <time>2015-06-17T12:23:31Z</time>
      </trkpt>
      <trkpt lat="43.3922" lon="6.0834">
        <ele>305.60000610352</ele>
        <time>2015-06-17T12:23:32Z</time>
      </trkpt>
      <trkpt lat="43.39219" lon="6.08344">
        <ele>305.79998779297</ele>
        <time>2015-06-17T12:23:34Z</time>
      </trkpt>
      <trkpt lat="43.39218" lon="6.08349">
        <ele>306.20001220703</ele>
        <time>2015-06-17T12:23:36Z</time>
      </trkpt>
      <trkpt lat="43.39217" lon="6.08351">
        <ele>306.20001220703</ele>
        <time>2015-06-17T12:23:37Z</time>
      </trkpt>
      <trkpt lat="43.39217" lon="6.08354">
        <ele>306.39999389648</ele>
        <time>2015-06-17T12:23:38Z</time>
      </trkpt>
      <trkpt lat="43.39216" lon="6.08356">
        <ele>306.60000610352</ele>
        <time>2015-06-17T12:23:39Z</time>
      </trkpt>
      <trkpt lat="43.39215" lon="6.08358">
        <ele>306.60000610352</ele>
        <time>2015-06-17T12:23:40Z</time>
      </trkpt>
      <trkpt lat="43.39214" lon="6.08362">
        <ele>307</ele>
        <time>2015-06-17T12:23:42Z</time>
      </trkpt>
      <trkpt lat="43.39212" lon="6.08367">
        <ele>307.39999389648</ele>
        <time>2015-06-17T12:23:44Z</time>
      </trkpt>
      <trkpt lat="43.39212" lon="6.0837">
        <ele>307.39999389648</ele>
        <time>2015-06-17T12:23:45Z</time>
      </trkpt>
      <trkpt lat="43.39212" lon="6.08372">
        <ele>307.60000610352</ele>
        <time>2015-06-17T12:23:46Z</time>
      </trkpt>
      <trkpt lat="43.39212" lon="6.08375">
        <ele>308</ele>
        <time>2015-06-17T12:23:47Z</time>
      </trkpt>
      <trkpt lat="43.39211" lon="6.08377">
        <ele>308.20001220703</ele>
        <time>2015-06-17T12:23:48Z</time>
      </trkpt>
      <trkpt lat="43.39209" lon="6.08381">
        <ele>308.39999389648</ele>
        <time>2015-06-17T12:23:50Z</time>
      </trkpt>
      <trkpt lat="43.39209" lon="6.08383">
        <ele>308.60000610352</ele>
        <time>2015-06-17T12:23:51Z</time>
      </trkpt>
      <trkpt lat="43.39208" lon="6.08383">
        <ele>309</ele>
        <time>2015-06-17T12:23:52Z</time>
      </trkpt>
      <trkpt lat="43.39208" lon="6.08383">
        <ele>309</ele>
        <time>2015-06-17T12:23:53Z</time>
      </trkpt>
      <trkpt lat="43.39208" lon="6.08383">
        <ele>309.20001220703</ele>
        <time>2015-06-17T12:23:54Z</time>
      </trkpt>
      <trkpt lat="43.39209" lon="6.08384">
        <ele>309.39999389648</ele>
        <time>2015-06-17T12:23:56Z</time>
      </trkpt>
      <trkpt lat="43.39209" lon="6.08383">
        <ele>309.20001220703</ele>
        <time>2015-06-17T12:23:58Z</time>
      </trkpt>
      <trkpt lat="43.39209" lon="6.08384">
        <ele>309.20001220703</ele>
        <time>2015-06-17T12:24:00Z</time>
      </trkpt>
      <trkpt lat="43.39209" lon="6.08384">
        <ele>309.20001220703</ele>
        <time>2015-06-17T12:24:02Z</time>
      </trkpt>
      <trkpt lat="43.39209" lon="6.08386">
        <ele>309.20001220703</ele>
        <time>2015-06-17T12:24:04Z</time>
      </trkpt>
      <trkpt lat="43.39209" lon="6.0839">
        <ele>309.39999389648</ele>
        <time>2015-06-17T12:24:06Z</time>
      </trkpt>
      <trkpt lat="43.39209" lon="6.08393">
        <ele>309.60000610352</ele>
        <time>2015-06-17T12:24:07Z</time>
      </trkpt>
      <trkpt lat="43.39209" lon="6.08395">
        <ele>309.39999389648</ele>
        <time>2015-06-17T12:24:08Z</time>
      </trkpt>
      <trkpt lat="43.39208" lon="6.08401">
        <ele>309.60000610352</ele>
        <time>2015-06-17T12:24:10Z</time>
      </trkpt>
      <trkpt lat="43.39208" lon="6.08406">
        <ele>309.79998779297</ele>
        <time>2015-06-17T12:24:12Z</time>
      </trkpt>
      <trkpt lat="43.39207" lon="6.08408">
        <ele>309.79998779297</ele>
        <time>2015-06-17T12:24:13Z</time>
      </trkpt>
      <trkpt lat="43.39206" lon="6.0841">
        <ele>310</ele>
        <time>2015-06-17T12:24:14Z</time>
      </trkpt>
      <trkpt lat="43.39205" lon="6.08413">
        <ele>310.60000610352</ele>
        <time>2015-06-17T12:24:16Z</time>
      </trkpt>
      <trkpt lat="43.39205" lon="6.08413">
        <ele>310.79998779297</ele>
        <time>2015-06-17T12:24:17Z</time>
      </trkpt>
      <trkpt lat="43.39205" lon="6.08414">
        <ele>310.79998779297</ele>
        <time>2015-06-17T12:24:18Z</time>
      </trkpt>
      <trkpt lat="43.39204" lon="6.08414">
        <ele>310.79998779297</ele>
        <time>2015-06-17T12:24:20Z</time>
      </trkpt>
      <trkpt lat="43.39204" lon="6.08415">
        <ele>310.79998779297</ele>
        <time>2015-06-17T12:24:22Z</time>
      </trkpt>
      <trkpt lat="43.39203" lon="6.08416">
        <ele>311</ele>
        <time>2015-06-17T12:24:23Z</time>
      </trkpt>
      <trkpt lat="43.39203" lon="6.08417">
        <ele>310.79998779297</ele>
        <time>2015-06-17T12:24:24Z</time>
      </trkpt>
      <trkpt lat="43.39202" lon="6.08419">
        <ele>311</ele>
        <time>2015-06-17T12:24:26Z</time>
      </trkpt>
      <trkpt lat="43.39201" lon="6.08423">
        <ele>311.20001220703</ele>
        <time>2015-06-17T12:24:28Z</time>
      </trkpt>
      <trkpt lat="43.392" lon="6.08425">
        <ele>311.39999389648</ele>
        <time>2015-06-17T12:24:29Z</time>
      </trkpt>
      <trkpt lat="43.392" lon="6.08428">
        <ele>311.79998779297</ele>
        <time>2015-06-17T12:24:30Z</time>
      </trkpt>
      <trkpt lat="43.392" lon="6.08431">
        <ele>312</ele>
        <time>2015-06-17T12:24:32Z</time>
      </trkpt>
      <trkpt lat="43.392" lon="6.08432">
        <ele>312.39999389648</ele>
        <time>2015-06-17T12:24:34Z</time>
      </trkpt>
      <trkpt lat="43.39201" lon="6.08432">
        <ele>312.60000610352</ele>
        <time>2015-06-17T12:24:36Z</time>
      </trkpt>
      <trkpt lat="43.39201" lon="6.08434">
        <ele>313</ele>
        <time>2015-06-17T12:24:38Z</time>
      </trkpt>
      <trkpt lat="43.392" lon="6.08435">
        <ele>313</ele>
        <time>2015-06-17T12:24:40Z</time>
      </trkpt>
      <trkpt lat="43.392" lon="6.08435">
        <ele>313</ele>
        <time>2015-06-17T12:24:41Z</time>
      </trkpt>
      <trkpt lat="43.392" lon="6.08435">
        <ele>313</ele>
        <time>2015-06-17T12:24:42Z</time>
      </trkpt>
      <trkpt lat="43.39201" lon="6.08437">
        <ele>313</ele>
        <time>2015-06-17T12:24:44Z</time>
      </trkpt>
      <trkpt lat="43.39201" lon="6.0844">
        <ele>313.39999389648</ele>
        <time>2015-06-17T12:24:46Z</time>
      </trkpt>
      <trkpt lat="43.39201" lon="6.08441">
        <ele>313.39999389648</ele>
        <time>2015-06-17T12:24:48Z</time>
      </trkpt>
      <trkpt lat="43.39201" lon="6.08443">
        <ele>313.60000610352</ele>
        <time>2015-06-17T12:24:50Z</time>
      </trkpt>
      <trkpt lat="43.39201" lon="6.08443">
        <ele>313.79998779297</ele>
        <time>2015-06-17T12:24:52Z</time>
      </trkpt>
      <trkpt lat="43.39201" lon="6.08444">
        <ele>314</ele>
        <time>2015-06-17T12:24:54Z</time>
      </trkpt>
      <trkpt lat="43.392" lon="6.08445">
        <ele>314</ele>
        <time>2015-06-17T12:24:55Z</time>
      </trkpt>
      <trkpt lat="43.39199" lon="6.08446">
        <ele>313.79998779297</ele>
        <time>2015-06-17T12:24:56Z</time>
      </trkpt>
      <trkpt lat="43.39199" lon="6.0845">
        <ele>313.79998779297</ele>
        <time>2015-06-17T12:24:58Z</time>
      </trkpt>
      <trkpt lat="43.39198" lon="6.08455">
        <ele>314</ele>
        <time>2015-06-17T12:25:00Z</time>
      </trkpt>
      <trkpt lat="43.39198" lon="6.08458">
        <ele>314.20001220703</ele>
        <time>2015-06-17T12:25:01Z</time>
      </trkpt>
      <trkpt lat="43.39197" lon="6.0846">
        <ele>314.39999389648</ele>
        <time>2015-06-17T12:25:02Z</time>
      </trkpt>
      <trkpt lat="43.39197" lon="6.08464">
        <ele>314.39999389648</ele>
        <time>2015-06-17T12:25:04Z</time>
      </trkpt>
      <trkpt lat="43.39197" lon="6.08469">
        <ele>314.79998779297</ele>
        <time>2015-06-17T12:25:06Z</time>
      </trkpt>
      <trkpt lat="43.39195" lon="6.08472">
        <ele>315.20001220703</ele>
        <time>2015-06-17T12:25:08Z</time>
      </trkpt>
      <trkpt lat="43.39194" lon="6.08473">
        <ele>315.39999389648</ele>
        <time>2015-06-17T12:25:09Z</time>
      </trkpt>
      <trkpt lat="43.39194" lon="6.08475">
        <ele>315.60000610352</ele>
        <time>2015-06-17T12:25:10Z</time>
      </trkpt>
      <trkpt lat="43.39194" lon="6.0848">
        <ele>315.79998779297</ele>
        <time>2015-06-17T12:25:12Z</time>
      </trkpt>
      <trkpt lat="43.39194" lon="6.08485">
        <ele>316</ele>
        <time>2015-06-17T12:25:14Z</time>
      </trkpt>
      <trkpt lat="43.39194" lon="6.0849">
        <ele>316</ele>
        <time>2015-06-17T12:25:16Z</time>
      </trkpt>
      <trkpt lat="43.39194" lon="6.08494">
        <ele>316</ele>
        <time>2015-06-17T12:25:18Z</time>
      </trkpt>
      <trkpt lat="43.39193" lon="6.08498">
        <ele>316.20001220703</ele>
        <time>2015-06-17T12:25:20Z</time>
      </trkpt>
      <trkpt lat="43.39193" lon="6.08499">
        <ele>316.60000610352</ele>
        <time>2015-06-17T12:25:21Z</time>
      </trkpt>
      <trkpt lat="43.39192" lon="6.085">
        <ele>316.79998779297</ele>
        <time>2015-06-17T12:25:22Z</time>
      </trkpt>
      <trkpt lat="43.39192" lon="6.08501">
        <ele>316.79998779297</ele>
        <time>2015-06-17T12:25:24Z</time>
      </trkpt>
      <trkpt lat="43.39192" lon="6.08501">
        <ele>316.79998779297</ele>
        <time>2015-06-17T12:25:26Z</time>
      </trkpt>
      <trkpt lat="43.39191" lon="6.08501">
        <ele>317</ele>
        <time>2015-06-17T12:25:28Z</time>
      </trkpt>
      <trkpt lat="43.39192" lon="6.08501">
        <ele>317</ele>
        <time>2015-06-17T12:25:30Z</time>
      </trkpt>
      <trkpt lat="43.39191" lon="6.08501">
        <ele>317</ele>
        <time>2015-06-17T12:25:32Z</time>
      </trkpt>
      <trkpt lat="43.39191" lon="6.08501">
        <ele>317</ele>
        <time>2015-06-17T12:25:34Z</time>
      </trkpt>
      <trkpt lat="43.39191" lon="6.08501">
        <ele>317</ele>
        <time>2015-06-17T12:25:36Z</time>
      </trkpt>
      <trkpt lat="43.39191" lon="6.08501">
        <ele>316.60000610352</ele>
        <time>2015-06-17T12:25:38Z</time>
      </trkpt>
      <trkpt lat="43.39191" lon="6.08501">
        <ele>316.60000610352</ele>
        <time>2015-06-17T12:25:40Z</time>
      </trkpt>
      <trkpt lat="43.39191" lon="6.08501">
        <ele>316.60000610352</ele>
        <time>2015-06-17T12:25:42Z</time>
      </trkpt>
      <trkpt lat="43.39191" lon="6.08501">
        <ele>316.79998779297</ele>
        <time>2015-06-17T12:25:44Z</time>
      </trkpt>
      <trkpt lat="43.39192" lon="6.08501">
        <ele>316.79998779297</ele>
        <time>2015-06-17T12:25:46Z</time>
      </trkpt>
      <trkpt lat="43.39192" lon="6.08501">
        <ele>316.79998779297</ele>
        <time>2015-06-17T12:25:48Z</time>
      </trkpt>
      <trkpt lat="43.39192" lon="6.08501">
        <ele>316.79998779297</ele>
        <time>2015-06-17T12:25:50Z</time>
      </trkpt>
      <trkpt lat="43.39192" lon="6.08501">
        <ele>316.60000610352</ele>
        <time>2015-06-17T12:25:52Z</time>
      </trkpt>
      <trkpt lat="43.39192" lon="6.08501">
        <ele>316.60000610352</ele>
        <time>2015-06-17T12:25:54Z</time>
      </trkpt>
      <trkpt lat="43.39192" lon="6.08501">
        <ele>316.79998779297</ele>
        <time>2015-06-17T12:25:56Z</time>
      </trkpt>
      <trkpt lat="43.39192" lon="6.08501">
        <ele>316.79998779297</ele>
        <time>2015-06-17T12:25:57Z</time>
      </trkpt>
      <trkpt lat="43.39192" lon="6.08501">
        <ele>316.79998779297</ele>
        <time>2015-06-17T12:25:58Z</time>
      </trkpt>
      <trkpt lat="43.39192" lon="6.08501">
        <ele>316.79998779297</ele>
        <time>2015-06-17T12:26:00Z</time>
      </trkpt>
      <trkpt lat="43.39191" lon="6.08501">
        <ele>316.79998779297</ele>
        <time>2015-06-17T12:26:02Z</time>
      </trkpt>
      <trkpt lat="43.39191" lon="6.08501">
        <ele>316.79998779297</ele>
        <time>2015-06-17T12:26:04Z</time>
      </trkpt>
      <trkpt lat="43.39191" lon="6.08501">
        <ele>316.79998779297</ele>
        <time>2015-06-17T12:26:06Z</time>
      </trkpt>
      <trkpt lat="43.39191" lon="6.08501">
        <ele>316.79998779297</ele>
        <time>2015-06-17T12:26:08Z</time>
      </trkpt>
      <trkpt lat="43.39191" lon="6.08501">
        <ele>316.79998779297</ele>
        <time>2015-06-17T12:26:10Z</time>
      </trkpt>
      <trkpt lat="43.39191" lon="6.08501">
        <ele>317</ele>
        <time>2015-06-17T12:26:12Z</time>
      </trkpt>
      <trkpt lat="43.39191" lon="6.08501">
        <ele>316.60000610352</ele>
        <time>2015-06-17T12:26:14Z</time>
      </trkpt>
      <trkpt lat="43.39191" lon="6.08501">
        <ele>316.60000610352</ele>
        <time>2015-06-17T12:26:16Z</time>
      </trkpt>
      <trkpt lat="43.39191" lon="6.08501">
        <ele>316.39999389648</ele>
        <time>2015-06-17T12:26:18Z</time>
      </trkpt>
      <trkpt lat="43.39191" lon="6.08501">
        <ele>316.60000610352</ele>
        <time>2015-06-17T12:26:20Z</time>
      </trkpt>
      <trkpt lat="43.39191" lon="6.08501">
        <ele>316.60000610352</ele>
        <time>2015-06-17T12:26:22Z</time>
      </trkpt>
      <trkpt lat="43.39191" lon="6.08501">
        <ele>316.60000610352</ele>
        <time>2015-06-17T12:26:24Z</time>
      </trkpt>
      <trkpt lat="43.39191" lon="6.08501">
        <ele>316.60000610352</ele>
        <time>2015-06-17T12:26:26Z</time>
      </trkpt>
      <trkpt lat="43.39191" lon="6.08501">
        <ele>316.60000610352</ele>
        <time>2015-06-17T12:26:28Z</time>
      </trkpt>
      <trkpt lat="43.39191" lon="6.08501">
        <ele>316.39999389648</ele>
        <time>2015-06-17T12:26:30Z</time>
      </trkpt>
      <trkpt lat="43.39191" lon="6.08501">
        <ele>316.60000610352</ele>
        <time>2015-06-17T12:26:32Z</time>
      </trkpt>
      <trkpt lat="43.39191" lon="6.08501">
        <ele>316.79998779297</ele>
        <time>2015-06-17T12:26:34Z</time>
      </trkpt>
      <trkpt lat="43.39191" lon="6.08501">
        <ele>316.79998779297</ele>
        <time>2015-06-17T12:26:36Z</time>
      </trkpt>
      <trkpt lat="43.39191" lon="6.08501">
        <ele>316.60000610352</ele>
        <time>2015-06-17T12:26:38Z</time>
      </trkpt>
      <trkpt lat="43.39191" lon="6.08501">
        <ele>316.60000610352</ele>
        <time>2015-06-17T12:26:40Z</time>
      </trkpt>
      <trkpt lat="43.39191" lon="6.08501">
        <ele>316.60000610352</ele>
        <time>2015-06-17T12:26:42Z</time>
      </trkpt>
      <trkpt lat="43.39191" lon="6.08501">
        <ele>316.79998779297</ele>
        <time>2015-06-17T12:26:44Z</time>
      </trkpt>
      <trkpt lat="43.39191" lon="6.08501">
        <ele>316.79998779297</ele>
        <time>2015-06-17T12:26:46Z</time>
      </trkpt>
      <trkpt lat="43.39191" lon="6.08501">
        <ele>316.60000610352</ele>
        <time>2015-06-17T12:26:48Z</time>
      </trkpt>
      <trkpt lat="43.39191" lon="6.08501">
        <ele>316.79998779297</ele>
        <time>2015-06-17T12:26:50Z</time>
      </trkpt>
      <trkpt lat="43.39191" lon="6.08501">
        <ele>316.79998779297</ele>
        <time>2015-06-17T12:26:52Z</time>
      </trkpt>
      <trkpt lat="43.39191" lon="6.08501">
        <ele>316.79998779297</ele>
        <time>2015-06-17T12:26:54Z</time>
      </trkpt>
      <trkpt lat="43.39191" lon="6.08501">
        <ele>316.79998779297</ele>
        <time>2015-06-17T12:26:55Z</time>
      </trkpt>
      <trkpt lat="43.39191" lon="6.08501">
        <ele>316.79998779297</ele>
        <time>2015-06-17T12:26:56Z</time>
      </trkpt>
      <trkpt lat="43.39191" lon="6.08501">
        <ele>316.79998779297</ele>
        <time>2015-06-17T12:26:58Z</time>
      </trkpt>
      <trkpt lat="43.39191" lon="6.08501">
        <ele>316.60000610352</ele>
        <time>2015-06-17T12:27:00Z</time>
      </trkpt>
      <trkpt lat="43.39191" lon="6.08501">
        <ele>316.60000610352</ele>
        <time>2015-06-17T12:27:02Z</time>
      </trkpt>
      <trkpt lat="43.39191" lon="6.08501">
        <ele>316.60000610352</ele>
        <time>2015-06-17T12:27:04Z</time>
      </trkpt>
      <trkpt lat="43.39191" lon="6.08501">
        <ele>316.60000610352</ele>
        <time>2015-06-17T12:27:06Z</time>
      </trkpt>
      <trkpt lat="43.39191" lon="6.08501">
        <ele>316.79998779297</ele>
        <time>2015-06-17T12:27:08Z</time>
      </trkpt>
      <trkpt lat="43.39191" lon="6.08501">
        <ele>316.60000610352</ele>
        <time>2015-06-17T12:27:10Z</time>
      </trkpt>
      <trkpt lat="43.39191" lon="6.08501">
        <ele>316.79998779297</ele>
        <time>2015-06-17T12:27:12Z</time>
      </trkpt>
      <trkpt lat="43.39191" lon="6.08501">
        <ele>316.60000610352</ele>
        <time>2015-06-17T12:27:14Z</time>
      </trkpt>
      <trkpt lat="43.39191" lon="6.08501">
        <ele>316.60000610352</ele>
        <time>2015-06-17T12:27:16Z</time>
      </trkpt>
      <trkpt lat="43.39191" lon="6.08501">
        <ele>316.39999389648</ele>
        <time>2015-06-17T12:27:18Z</time>
      </trkpt>
      <trkpt lat="43.39191" lon="6.08501">
        <ele>316.60000610352</ele>
        <time>2015-06-17T12:27:20Z</time>
      </trkpt>
      <trkpt lat="43.39191" lon="6.08501">
        <ele>316.60000610352</ele>
        <time>2015-06-17T12:27:22Z</time>
      </trkpt>
      <trkpt lat="43.39191" lon="6.08501">
        <ele>316.79998779297</ele>
        <time>2015-06-17T12:27:24Z</time>
      </trkpt>
      <trkpt lat="43.39191" lon="6.08501">
        <ele>316.79998779297</ele>
        <time>2015-06-17T12:27:26Z</time>
      </trkpt>
      <trkpt lat="43.39191" lon="6.08501">
        <ele>316.60000610352</ele>
        <time>2015-06-17T12:27:28Z</time>
      </trkpt>
      <trkpt lat="43.39191" lon="6.08501">
        <ele>316.60000610352</ele>
        <time>2015-06-17T12:27:30Z</time>
      </trkpt>
      <trkpt lat="43.39191" lon="6.08501">
        <ele>316.79998779297</ele>
        <time>2015-06-17T12:27:32Z</time>
      </trkpt>
      <trkpt lat="43.39191" lon="6.08501">
        <ele>316.60000610352</ele>
        <time>2015-06-17T12:27:34Z</time>
      </trkpt>
      <trkpt lat="43.39191" lon="6.08502">
        <ele>316.60000610352</ele>
        <time>2015-06-17T12:27:36Z</time>
      </trkpt>
      <trkpt lat="43.39191" lon="6.08502">
        <ele>316.39999389648</ele>
        <time>2015-06-17T12:27:38Z</time>
      </trkpt>
      <trkpt lat="43.39191" lon="6.08502">
        <ele>316.20001220703</ele>
        <time>2015-06-17T12:27:40Z</time>
      </trkpt>
      <trkpt lat="43.39191" lon="6.08502">
        <ele>316.39999389648</ele>
        <time>2015-06-17T12:27:42Z</time>
      </trkpt>
      <trkpt lat="43.39191" lon="6.08502">
        <ele>316.79998779297</ele>
        <time>2015-06-17T12:27:44Z</time>
      </trkpt>
      <trkpt lat="43.39191" lon="6.08502">
        <ele>317</ele>
        <time>2015-06-17T12:27:46Z</time>
      </trkpt>
      <trkpt lat="43.39191" lon="6.08502">
        <ele>316.79998779297</ele>
        <time>2015-06-17T12:27:48Z</time>
      </trkpt>
      <trkpt lat="43.39191" lon="6.08502">
        <ele>316.79998779297</ele>
        <time>2015-06-17T12:27:50Z</time>
      </trkpt>
      <trkpt lat="43.39191" lon="6.08502">
        <ele>316.79998779297</ele>
        <time>2015-06-17T12:27:52Z</time>
      </trkpt>
      <trkpt lat="43.39191" lon="6.08502">
        <ele>316.79998779297</ele>
        <time>2015-06-17T12:27:54Z</time>
      </trkpt>
      <trkpt lat="43.39191" lon="6.08502">
        <ele>317</ele>
        <time>2015-06-17T12:27:56Z</time>
      </trkpt>
      <trkpt lat="43.39191" lon="6.08502">
        <ele>316.79998779297</ele>
        <time>2015-06-17T12:27:58Z</time>
      </trkpt>
      <trkpt lat="43.39191" lon="6.08502">
        <ele>316.79998779297</ele>
        <time>2015-06-17T12:28:00Z</time>
      </trkpt>
      <trkpt lat="43.39191" lon="6.08502">
        <ele>316.60000610352</ele>
        <time>2015-06-17T12:28:02Z</time>
      </trkpt>
      <trkpt lat="43.39191" lon="6.08502">
        <ele>316.60000610352</ele>
        <time>2015-06-17T12:28:04Z</time>
      </trkpt>
      <trkpt lat="43.39191" lon="6.08502">
        <ele>316.60000610352</ele>
        <time>2015-06-17T12:28:06Z</time>
      </trkpt>
      <trkpt lat="43.39191" lon="6.08502">
        <ele>316.60000610352</ele>
        <time>2015-06-17T12:28:08Z</time>
      </trkpt>
      <trkpt lat="43.39191" lon="6.08502">
        <ele>316.60000610352</ele>
        <time>2015-06-17T12:28:10Z</time>
      </trkpt>
      <trkpt lat="43.39191" lon="6.08502">
        <ele>316.39999389648</ele>
        <time>2015-06-17T12:28:12Z</time>
      </trkpt>
      <trkpt lat="43.39191" lon="6.08502">
        <ele>316.60000610352</ele>
        <time>2015-06-17T12:28:14Z</time>
      </trkpt>
      <trkpt lat="43.39191" lon="6.08502">
        <ele>316.60000610352</ele>
        <time>2015-06-17T12:28:16Z</time>
      </trkpt>
      <trkpt lat="43.39191" lon="6.08502">
        <ele>316.79998779297</ele>
        <time>2015-06-17T12:28:18Z</time>
      </trkpt>
      <trkpt lat="43.39191" lon="6.08502">
        <ele>316.79998779297</ele>
        <time>2015-06-17T12:28:20Z</time>
      </trkpt>
      <trkpt lat="43.39191" lon="6.08502">
        <ele>316.60000610352</ele>
        <time>2015-06-17T12:28:22Z</time>
      </trkpt>
      <trkpt lat="43.39191" lon="6.08502">
        <ele>316.60000610352</ele>
        <time>2015-06-17T12:28:24Z</time>
      </trkpt>
      <trkpt lat="43.39191" lon="6.08502">
        <ele>316.60000610352</ele>
        <time>2015-06-17T12:28:26Z</time>
      </trkpt>
      <trkpt lat="43.39191" lon="6.08502">
        <ele>316.60000610352</ele>
        <time>2015-06-17T12:28:28Z</time>
      </trkpt>
      <trkpt lat="43.39191" lon="6.08502">
        <ele>316.60000610352</ele>
        <time>2015-06-17T12:28:30Z</time>
      </trkpt>
      <trkpt lat="43.39191" lon="6.08502">
        <ele>316.60000610352</ele>
        <time>2015-06-17T12:28:32Z</time>
      </trkpt>
      <trkpt lat="43.39191" lon="6.08502">
        <ele>316.79998779297</ele>
        <time>2015-06-17T12:28:34Z</time>
      </trkpt>
      <trkpt lat="43.39191" lon="6.08502">
        <ele>316.60000610352</ele>
        <time>2015-06-17T12:28:36Z</time>
      </trkpt>
      <trkpt lat="43.39191" lon="6.08502">
        <ele>316.60000610352</ele>
        <time>2015-06-17T12:28:38Z</time>
      </trkpt>
      <trkpt lat="43.39191" lon="6.08502">
        <ele>316.60000610352</ele>
        <time>2015-06-17T12:28:40Z</time>
      </trkpt>
      <trkpt lat="43.39191" lon="6.08502">
        <ele>316.60000610352</ele>
        <time>2015-06-17T12:28:42Z</time>
      </trkpt>
      <trkpt lat="43.39191" lon="6.08502">
        <ele>316.60000610352</ele>
        <time>2015-06-17T12:28:44Z</time>
      </trkpt>
      <trkpt lat="43.39191" lon="6.08502">
        <ele>316.39999389648</ele>
        <time>2015-06-17T12:28:46Z</time>
      </trkpt>
      <trkpt lat="43.39191" lon="6.08502">
        <ele>316.20001220703</ele>
        <time>2015-06-17T12:28:48Z</time>
      </trkpt>
      <trkpt lat="43.39191" lon="6.08502">
        <ele>316.20001220703</ele>
        <time>2015-06-17T12:28:50Z</time>
      </trkpt>
      <trkpt lat="43.39191" lon="6.08502">
        <ele>316.20001220703</ele>
        <time>2015-06-17T12:28:52Z</time>
      </trkpt>
      <trkpt lat="43.39191" lon="6.08502">
        <ele>316.20001220703</ele>
        <time>2015-06-17T12:28:54Z</time>
      </trkpt>
      <trkpt lat="43.39191" lon="6.08502">
        <ele>316</ele>
        <time>2015-06-17T12:28:56Z</time>
      </trkpt>
      <trkpt lat="43.39191" lon="6.08502">
        <ele>316.20001220703</ele>
        <time>2015-06-17T12:28:58Z</time>
      </trkpt>
      <trkpt lat="43.39191" lon="6.08502">
        <ele>316.39999389648</ele>
        <time>2015-06-17T12:29:00Z</time>
      </trkpt>
      <trkpt lat="43.39191" lon="6.08502">
        <ele>316.39999389648</ele>
        <time>2015-06-17T12:29:02Z</time>
      </trkpt>
      <trkpt lat="43.39191" lon="6.08502">
        <ele>316.39999389648</ele>
        <time>2015-06-17T12:29:04Z</time>
      </trkpt>
      <trkpt lat="43.39191" lon="6.08502">
        <ele>316.39999389648</ele>
        <time>2015-06-17T12:29:06Z</time>
      </trkpt>
      <trkpt lat="43.39191" lon="6.08502">
        <ele>316.39999389648</ele>
        <time>2015-06-17T12:29:08Z</time>
      </trkpt>
      <trkpt lat="43.39191" lon="6.08502">
        <ele>316.39999389648</ele>
        <time>2015-06-17T12:29:10Z</time>
      </trkpt>
      <trkpt lat="43.39191" lon="6.08502">
        <ele>316.39999389648</ele>
        <time>2015-06-17T12:29:12Z</time>
      </trkpt>
      <trkpt lat="43.39191" lon="6.08502">
        <ele>316.39999389648</ele>
        <time>2015-06-17T12:29:14Z</time>
      </trkpt>
      <trkpt lat="43.39191" lon="6.08502">
        <ele>316.60000610352</ele>
        <time>2015-06-17T12:29:16Z</time>
      </trkpt>
      <trkpt lat="43.39191" lon="6.08502">
        <ele>316.60000610352</ele>
        <time>2015-06-17T12:29:18Z</time>
      </trkpt>
      <trkpt lat="43.39191" lon="6.08502">
        <ele>316.39999389648</ele>
        <time>2015-06-17T12:29:20Z</time>
      </trkpt>
      <trkpt lat="43.39191" lon="6.08502">
        <ele>316.39999389648</ele>
        <time>2015-06-17T12:29:22Z</time>
      </trkpt>
      <trkpt lat="43.39191" lon="6.08502">
        <ele>316.60000610352</ele>
        <time>2015-06-17T12:29:24Z</time>
      </trkpt>
      <trkpt lat="43.39191" lon="6.08502">
        <ele>316.60000610352</ele>
        <time>2015-06-17T12:29:26Z</time>
      </trkpt>
      <trkpt lat="43.39191" lon="6.08502">
        <ele>316.60000610352</ele>
        <time>2015-06-17T12:29:28Z</time>
      </trkpt>
      <trkpt lat="43.39191" lon="6.08502">
        <ele>316.60000610352</ele>
        <time>2015-06-17T12:29:30Z</time>
      </trkpt>
      <trkpt lat="43.39191" lon="6.08502">
        <ele>316.60000610352</ele>
        <time>2015-06-17T12:29:32Z</time>
      </trkpt>
      <trkpt lat="43.39191" lon="6.08502">
        <ele>316.79998779297</ele>
        <time>2015-06-17T12:29:34Z</time>
      </trkpt>
      <trkpt lat="43.39191" lon="6.08502">
        <ele>316.79998779297</ele>
        <time>2015-06-17T12:29:36Z</time>
      </trkpt>
      <trkpt lat="43.39191" lon="6.08502">
        <ele>316.60000610352</ele>
        <time>2015-06-17T12:29:38Z</time>
      </trkpt>
      <trkpt lat="43.39191" lon="6.08502">
        <ele>316.60000610352</ele>
        <time>2015-06-17T12:29:40Z</time>
      </trkpt>
      <trkpt lat="43.39191" lon="6.08502">
        <ele>316.60000610352</ele>
        <time>2015-06-17T12:29:42Z</time>
      </trkpt>
      <trkpt lat="43.39191" lon="6.08502">
        <ele>316.60000610352</ele>
        <time>2015-06-17T12:29:44Z</time>
      </trkpt>
      <trkpt lat="43.39191" lon="6.08502">
        <ele>316.60000610352</ele>
        <time>2015-06-17T12:29:46Z</time>
      </trkpt>
      <trkpt lat="43.39191" lon="6.08502">
        <ele>316.60000610352</ele>
        <time>2015-06-17T12:29:48Z</time>
      </trkpt>
      <trkpt lat="43.39191" lon="6.08502">
        <ele>316.79998779297</ele>
        <time>2015-06-17T12:29:50Z</time>
      </trkpt>
      <trkpt lat="43.39191" lon="6.08502">
        <ele>316.79998779297</ele>
        <time>2015-06-17T12:29:52Z</time>
      </trkpt>
      <trkpt lat="43.39191" lon="6.08502">
        <ele>316.79998779297</ele>
        <time>2015-06-17T12:29:54Z</time>
      </trkpt>
      <trkpt lat="43.39191" lon="6.08502">
        <ele>316.79998779297</ele>
        <time>2015-06-17T12:29:55Z</time>
      </trkpt>
      <trkpt lat="43.39191" lon="6.08502">
        <ele>316.79998779297</ele>
        <time>2015-06-17T12:29:56Z</time>
      </trkpt>
      <trkpt lat="43.39191" lon="6.08502">
        <ele>316.79998779297</ele>
        <time>2015-06-17T12:29:58Z</time>
      </trkpt>
      <trkpt lat="43.39191" lon="6.08502">
        <ele>316.79998779297</ele>
        <time>2015-06-17T12:30:00Z</time>
      </trkpt>
      <trkpt lat="43.39191" lon="6.08502">
        <ele>316.60000610352</ele>
        <time>2015-06-17T12:30:02Z</time>
      </trkpt>
      <trkpt lat="43.39191" lon="6.08502">
        <ele>316.39999389648</ele>
        <time>2015-06-17T12:30:04Z</time>
      </trkpt>
      <trkpt lat="43.39191" lon="6.08502">
        <ele>316.39999389648</ele>
        <time>2015-06-17T12:30:06Z</time>
      </trkpt>
      <trkpt lat="43.39191" lon="6.08502">
        <ele>316.39999389648</ele>
        <time>2015-06-17T12:30:08Z</time>
      </trkpt>
      <trkpt lat="43.39191" lon="6.08502">
        <ele>316.60000610352</ele>
        <time>2015-06-17T12:30:10Z</time>
      </trkpt>
      <trkpt lat="43.39191" lon="6.08502">
        <ele>316.60000610352</ele>
        <time>2015-06-17T12:30:12Z</time>
      </trkpt>
      <trkpt lat="43.39191" lon="6.08502">
        <ele>316.39999389648</ele>
        <time>2015-06-17T12:30:14Z</time>
      </trkpt>
      <trkpt lat="43.39191" lon="6.08502">
        <ele>316.39999389648</ele>
        <time>2015-06-17T12:30:16Z</time>
      </trkpt>
      <trkpt lat="43.39191" lon="6.08502">
        <ele>316.60000610352</ele>
        <time>2015-06-17T12:30:18Z</time>
      </trkpt>
      <trkpt lat="43.39191" lon="6.08502">
        <ele>316.60000610352</ele>
        <time>2015-06-17T12:30:20Z</time>
      </trkpt>
      <trkpt lat="43.39191" lon="6.08502">
        <ele>316.39999389648</ele>
        <time>2015-06-17T12:30:22Z</time>
      </trkpt>
      <trkpt lat="43.39191" lon="6.08502">
        <ele>316.60000610352</ele>
        <time>2015-06-17T12:30:24Z</time>
      </trkpt>
      <trkpt lat="43.39191" lon="6.08502">
        <ele>316.60000610352</ele>
        <time>2015-06-17T12:30:26Z</time>
      </trkpt>
      <trkpt lat="43.39191" lon="6.08502">
        <ele>316.60000610352</ele>
        <time>2015-06-17T12:30:28Z</time>
      </trkpt>
      <trkpt lat="43.39191" lon="6.08502">
        <ele>316.60000610352</ele>
        <time>2015-06-17T12:30:30Z</time>
      </trkpt>
      <trkpt lat="43.39191" lon="6.08502">
        <ele>316.60000610352</ele>
        <time>2015-06-17T12:30:32Z</time>
      </trkpt>
      <trkpt lat="43.39191" lon="6.08502">
        <ele>316.39999389648</ele>
        <time>2015-06-17T12:30:34Z</time>
      </trkpt>
      <trkpt lat="43.39191" lon="6.08502">
        <ele>316.39999389648</ele>
        <time>2015-06-17T12:30:36Z</time>
      </trkpt>
      <trkpt lat="43.39191" lon="6.08502">
        <ele>316.20001220703</ele>
        <time>2015-06-17T12:30:38Z</time>
      </trkpt>
      <trkpt lat="43.39191" lon="6.08502">
        <ele>316.60000610352</ele>
        <time>2015-06-17T12:30:40Z</time>
      </trkpt>
      <trkpt lat="43.39191" lon="6.08502">
        <ele>316.60000610352</ele>
        <time>2015-06-17T12:30:42Z</time>
      </trkpt>
      <trkpt lat="43.39191" lon="6.08502">
        <ele>316.39999389648</ele>
        <time>2015-06-17T12:30:44Z</time>
      </trkpt>
      <trkpt lat="43.39191" lon="6.08502">
        <ele>316.60000610352</ele>
        <time>2015-06-17T12:30:46Z</time>
      </trkpt>
      <trkpt lat="43.39191" lon="6.08502">
        <ele>316.60000610352</ele>
        <time>2015-06-17T12:30:48Z</time>
      </trkpt>
      <trkpt lat="43.39191" lon="6.08502">
        <ele>316.60000610352</ele>
        <time>2015-06-17T12:30:50Z</time>
      </trkpt>
      <trkpt lat="43.39191" lon="6.08502">
        <ele>316.39999389648</ele>
        <time>2015-06-17T12:30:52Z</time>
      </trkpt>
      <trkpt lat="43.39191" lon="6.08502">
        <ele>316.39999389648</ele>
        <time>2015-06-17T12:30:54Z</time>
      </trkpt>
      <trkpt lat="43.39191" lon="6.08502">
        <ele>316.60000610352</ele>
        <time>2015-06-17T12:30:56Z</time>
      </trkpt>
      <trkpt lat="43.39191" lon="6.08502">
        <ele>316.39999389648</ele>
        <time>2015-06-17T12:30:58Z</time>
      </trkpt>
      <trkpt lat="43.39191" lon="6.08502">
        <ele>316.60000610352</ele>
        <time>2015-06-17T12:31:00Z</time>
      </trkpt>
      <trkpt lat="43.39191" lon="6.08502">
        <ele>316.39999389648</ele>
        <time>2015-06-17T12:31:02Z</time>
      </trkpt>
      <trkpt lat="43.39191" lon="6.08502">
        <ele>316.20001220703</ele>
        <time>2015-06-17T12:31:04Z</time>
      </trkpt>
      <trkpt lat="43.39191" lon="6.08502">
        <ele>316.39999389648</ele>
        <time>2015-06-17T12:31:06Z</time>
      </trkpt>
      <trkpt lat="43.39191" lon="6.08502">
        <ele>316.39999389648</ele>
        <time>2015-06-17T12:31:08Z</time>
      </trkpt>
      <trkpt lat="43.39191" lon="6.08502">
        <ele>316.39999389648</ele>
        <time>2015-06-17T12:31:10Z</time>
      </trkpt>
      <trkpt lat="43.39191" lon="6.08502">
        <ele>316.39999389648</ele>
        <time>2015-06-17T12:31:12Z</time>
      </trkpt>
      <trkpt lat="43.39191" lon="6.08502">
        <ele>316.39999389648</ele>
        <time>2015-06-17T12:31:14Z</time>
      </trkpt>
      <trkpt lat="43.39191" lon="6.08502">
        <ele>316.20001220703</ele>
        <time>2015-06-17T12:31:16Z</time>
      </trkpt>
      <trkpt lat="43.39191" lon="6.08502">
        <ele>316.20001220703</ele>
        <time>2015-06-17T12:31:18Z</time>
      </trkpt>
      <trkpt lat="43.39191" lon="6.08502">
        <ele>316.39999389648</ele>
        <time>2015-06-17T12:31:20Z</time>
      </trkpt>
      <trkpt lat="43.39191" lon="6.08502">
        <ele>316.39999389648</ele>
        <time>2015-06-17T12:31:22Z</time>
      </trkpt>
      <trkpt lat="43.39191" lon="6.08502">
        <ele>316.39999389648</ele>
        <time>2015-06-17T12:31:24Z</time>
      </trkpt>
      <trkpt lat="43.39191" lon="6.08502">
        <ele>316.39999389648</ele>
        <time>2015-06-17T12:31:26Z</time>
      </trkpt>
      <trkpt lat="43.39191" lon="6.08502">
        <ele>316.39999389648</ele>
        <time>2015-06-17T12:31:28Z</time>
      </trkpt>
      <trkpt lat="43.39191" lon="6.08502">
        <ele>316.39999389648</ele>
        <time>2015-06-17T12:31:30Z</time>
      </trkpt>
      <trkpt lat="43.39191" lon="6.08502">
        <ele>316.20001220703</ele>
        <time>2015-06-17T12:31:32Z</time>
      </trkpt>
      <trkpt lat="43.39191" lon="6.08502">
        <ele>316.39999389648</ele>
        <time>2015-06-17T12:31:34Z</time>
      </trkpt>
      <trkpt lat="43.39191" lon="6.08502">
        <ele>316.39999389648</ele>
        <time>2015-06-17T12:31:36Z</time>
      </trkpt>
      <trkpt lat="43.39191" lon="6.08502">
        <ele>316.39999389648</ele>
        <time>2015-06-17T12:31:38Z</time>
      </trkpt>
      <trkpt lat="43.39191" lon="6.08502">
        <ele>316.20001220703</ele>
        <time>2015-06-17T12:31:40Z</time>
      </trkpt>
      <trkpt lat="43.39191" lon="6.08502">
        <ele>316.20001220703</ele>
        <time>2015-06-17T12:31:42Z</time>
      </trkpt>
      <trkpt lat="43.39191" lon="6.08502">
        <ele>316.39999389648</ele>
        <time>2015-06-17T12:31:44Z</time>
      </trkpt>
      <trkpt lat="43.39191" lon="6.08502">
        <ele>316.20001220703</ele>
        <time>2015-06-17T12:31:46Z</time>
      </trkpt>
      <trkpt lat="43.39191" lon="6.08502">
        <ele>316.20001220703</ele>
        <time>2015-06-17T12:31:48Z</time>
      </trkpt>
      <trkpt lat="43.39191" lon="6.08502">
        <ele>316.20001220703</ele>
        <time>2015-06-17T12:31:50Z</time>
      </trkpt>
      <trkpt lat="43.39191" lon="6.08502">
        <ele>316</ele>
        <time>2015-06-17T12:31:52Z</time>
      </trkpt>
      <trkpt lat="43.39191" lon="6.08502">
        <ele>316.20001220703</ele>
        <time>2015-06-17T12:31:54Z</time>
      </trkpt>
      <trkpt lat="43.39191" lon="6.08502">
        <ele>316.20001220703</ele>
        <time>2015-06-17T12:31:55Z</time>
      </trkpt>
      <trkpt lat="43.39191" lon="6.08502">
        <ele>316.20001220703</ele>
        <time>2015-06-17T12:31:56Z</time>
      </trkpt>
      <trkpt lat="43.39191" lon="6.08502">
        <ele>316.39999389648</ele>
        <time>2015-06-17T12:31:58Z</time>
      </trkpt>
      <trkpt lat="43.39191" lon="6.08502">
        <ele>316.60000610352</ele>
        <time>2015-06-17T12:32:00Z</time>
      </trkpt>
      <trkpt lat="43.39191" lon="6.08502">
        <ele>316.39999389648</ele>
        <time>2015-06-17T12:32:02Z</time>
      </trkpt>
      <trkpt lat="43.39191" lon="6.08502">
        <ele>316.60000610352</ele>
        <time>2015-06-17T12:32:04Z</time>
      </trkpt>
      <trkpt lat="43.39191" lon="6.08502">
        <ele>316.60000610352</ele>
        <time>2015-06-17T12:32:06Z</time>
      </trkpt>
      <trkpt lat="43.39191" lon="6.08502">
        <ele>316.39999389648</ele>
        <time>2015-06-17T12:32:08Z</time>
      </trkpt>
      <trkpt lat="43.39191" lon="6.08502">
        <ele>316.39999389648</ele>
        <time>2015-06-17T12:32:10Z</time>
      </trkpt>
      <trkpt lat="43.39191" lon="6.08502">
        <ele>316.39999389648</ele>
        <time>2015-06-17T12:32:12Z</time>
      </trkpt>
      <trkpt lat="43.39191" lon="6.08502">
        <ele>316.20001220703</ele>
        <time>2015-06-17T12:32:14Z</time>
      </trkpt>
      <trkpt lat="43.39191" lon="6.08502">
        <ele>316.39999389648</ele>
        <time>2015-06-17T12:32:16Z</time>
      </trkpt>
      <trkpt lat="43.39191" lon="6.08502">
        <ele>316.60000610352</ele>
        <time>2015-06-17T12:32:18Z</time>
      </trkpt>
      <trkpt lat="43.39191" lon="6.08502">
        <ele>316.39999389648</ele>
        <time>2015-06-17T12:32:20Z</time>
      </trkpt>
      <trkpt lat="43.39191" lon="6.08502">
        <ele>316.20001220703</ele>
        <time>2015-06-17T12:32:22Z</time>
      </trkpt>
      <trkpt lat="43.39191" lon="6.08502">
        <ele>316.20001220703</ele>
        <time>2015-06-17T12:32:24Z</time>
      </trkpt>
      <trkpt lat="43.39191" lon="6.08502">
        <ele>316.39999389648</ele>
        <time>2015-06-17T12:32:26Z</time>
      </trkpt>
      <trkpt lat="43.39191" lon="6.08502">
        <ele>316.39999389648</ele>
        <time>2015-06-17T12:32:28Z</time>
      </trkpt>
      <trkpt lat="43.39191" lon="6.08502">
        <ele>316.39999389648</ele>
        <time>2015-06-17T12:32:29Z</time>
      </trkpt>
      <trkpt lat="43.39191" lon="6.08502">
        <ele>316.39999389648</ele>
        <time>2015-06-17T12:32:30Z</time>
      </trkpt>
      <trkpt lat="43.39191" lon="6.08502">
        <ele>316.39999389648</ele>
        <time>2015-06-17T12:32:32Z</time>
      </trkpt>
      <trkpt lat="43.39191" lon="6.08502">
        <ele>316.60000610352</ele>
        <time>2015-06-17T12:32:34Z</time>
      </trkpt>
      <trkpt lat="43.39191" lon="6.08502">
        <ele>316.60000610352</ele>
        <time>2015-06-17T12:32:36Z</time>
      </trkpt>
      <trkpt lat="43.39191" lon="6.08502">
        <ele>316.39999389648</ele>
        <time>2015-06-17T12:32:38Z</time>
      </trkpt>
      <trkpt lat="43.39191" lon="6.08502">
        <ele>316.20001220703</ele>
        <time>2015-06-17T12:32:40Z</time>
      </trkpt>
      <trkpt lat="43.39191" lon="6.08502">
        <ele>316.20001220703</ele>
        <time>2015-06-17T12:32:42Z</time>
      </trkpt>
      <trkpt lat="43.39191" lon="6.08502">
        <ele>316.39999389648</ele>
        <time>2015-06-17T12:32:44Z</time>
      </trkpt>
      <trkpt lat="43.39191" lon="6.08502">
        <ele>316.20001220703</ele>
        <time>2015-06-17T12:32:46Z</time>
      </trkpt>
      <trkpt lat="43.39191" lon="6.08502">
        <ele>316.20001220703</ele>
        <time>2015-06-17T12:32:48Z</time>
      </trkpt>
      <trkpt lat="43.39191" lon="6.08502">
        <ele>316.20001220703</ele>
        <time>2015-06-17T12:32:49Z</time>
      </trkpt>
      <trkpt lat="43.39191" lon="6.08502">
        <ele>316.20001220703</ele>
        <time>2015-06-17T12:32:50Z</time>
      </trkpt>
      <trkpt lat="43.39191" lon="6.08503">
        <ele>316</ele>
        <time>2015-06-17T12:32:52Z</time>
      </trkpt>
      <trkpt lat="43.39191" lon="6.08503">
        <ele>316.39999389648</ele>
        <time>2015-06-17T12:32:54Z</time>
      </trkpt>
      <trkpt lat="43.39191" lon="6.08503">
        <ele>316.39999389648</ele>
        <time>2015-06-17T12:32:56Z</time>
      </trkpt>
      <trkpt lat="43.39191" lon="6.08503">
        <ele>316.39999389648</ele>
        <time>2015-06-17T12:32:58Z</time>
      </trkpt>
      <trkpt lat="43.39191" lon="6.08503">
        <ele>316.39999389648</ele>
        <time>2015-06-17T12:33:00Z</time>
      </trkpt>
      <trkpt lat="43.3919" lon="6.08503">
        <ele>316.60000610352</ele>
        <time>2015-06-17T12:33:02Z</time>
      </trkpt>
      <trkpt lat="43.39189" lon="6.08503">
        <ele>316.79998779297</ele>
        <time>2015-06-17T12:33:03Z</time>
      </trkpt>
      <trkpt lat="43.39188" lon="6.08504">
        <ele>316.79998779297</ele>
        <time>2015-06-17T12:33:04Z</time>
      </trkpt>
      <trkpt lat="43.39186" lon="6.08509">
        <ele>316.60000610352</ele>
        <time>2015-06-17T12:33:06Z</time>
      </trkpt>
      <trkpt lat="43.39185" lon="6.08513">
        <ele>316.79998779297</ele>
        <time>2015-06-17T12:33:07Z</time>
      </trkpt>
      <trkpt lat="43.39184" lon="6.08517">
        <ele>316.60000610352</ele>
        <time>2015-06-17T12:33:08Z</time>
      </trkpt>
      <trkpt lat="43.39182" lon="6.08526">
        <ele>316.20001220703</ele>
        <time>2015-06-17T12:33:10Z</time>
      </trkpt>
      <trkpt lat="43.39178" lon="6.08536">
        <ele>316</ele>
        <time>2015-06-17T12:33:12Z</time>
      </trkpt>
      <trkpt lat="43.39175" lon="6.08546">
        <ele>316.20001220703</ele>
        <time>2015-06-17T12:33:14Z</time>
      </trkpt>
      <trkpt lat="43.39171" lon="6.08558">
        <ele>314.79998779297</ele>
        <time>2015-06-17T12:33:16Z</time>
      </trkpt>
      <trkpt lat="43.39169" lon="6.08565">
        <ele>315</ele>
        <time>2015-06-17T12:33:17Z</time>
      </trkpt>
      <trkpt lat="43.39167" lon="6.08573">
        <ele>315.20001220703</ele>
        <time>2015-06-17T12:33:18Z</time>
      </trkpt>
      <trkpt lat="43.39165" lon="6.08581">
        <ele>315.20001220703</ele>
        <time>2015-06-17T12:33:19Z</time>
      </trkpt>
      <trkpt lat="43.39164" lon="6.08589">
        <ele>315.39999389648</ele>
        <time>2015-06-17T12:33:20Z</time>
      </trkpt>
      <trkpt lat="43.3916" lon="6.08606">
        <ele>314.79998779297</ele>
        <time>2015-06-17T12:33:22Z</time>
      </trkpt>
      <trkpt lat="43.39156" lon="6.08623">
        <ele>314.60000610352</ele>
        <time>2015-06-17T12:33:24Z</time>
      </trkpt>
      <trkpt lat="43.39153" lon="6.0863">
        <ele>314.20001220703</ele>
        <time>2015-06-17T12:33:25Z</time>
      </trkpt>
      <trkpt lat="43.39151" lon="6.08637">
        <ele>314.20001220703</ele>
        <time>2015-06-17T12:33:26Z</time>
      </trkpt>
      <trkpt lat="43.3915" lon="6.08643">
        <ele>314.39999389648</ele>
        <time>2015-06-17T12:33:27Z</time>
      </trkpt>
      <trkpt lat="43.39149" lon="6.08648">
        <ele>314.39999389648</ele>
        <time>2015-06-17T12:33:28Z</time>
      </trkpt>
      <trkpt lat="43.39149" lon="6.08652">
        <ele>314.20001220703</ele>
        <time>2015-06-17T12:33:29Z</time>
      </trkpt>
      <trkpt lat="43.39148" lon="6.08656">
        <ele>314.20001220703</ele>
        <time>2015-06-17T12:33:30Z</time>
      </trkpt>
      <trkpt lat="43.39148" lon="6.0866">
        <ele>314</ele>
        <time>2015-06-17T12:33:31Z</time>
      </trkpt>
      <trkpt lat="43.39146" lon="6.08664">
        <ele>314</ele>
        <time>2015-06-17T12:33:32Z</time>
      </trkpt>
      <trkpt lat="43.39145" lon="6.0867">
        <ele>314</ele>
        <time>2015-06-17T12:33:34Z</time>
      </trkpt>
      <trkpt lat="43.39144" lon="6.08673">
        <ele>314</ele>
        <time>2015-06-17T12:33:35Z</time>
      </trkpt>
      <trkpt lat="43.39143" lon="6.08677">
        <ele>313.60000610352</ele>
        <time>2015-06-17T12:33:36Z</time>
      </trkpt>
      <trkpt lat="43.39143" lon="6.08686">
        <ele>313.79998779297</ele>
        <time>2015-06-17T12:33:38Z</time>
      </trkpt>
      <trkpt lat="43.39142" lon="6.08696">
        <ele>314</ele>
        <time>2015-06-17T12:33:40Z</time>
      </trkpt>
      <trkpt lat="43.3914" lon="6.08706">
        <ele>314.39999389648</ele>
        <time>2015-06-17T12:33:42Z</time>
      </trkpt>
      <trkpt lat="43.39138" lon="6.08716">
        <ele>314.39999389648</ele>
        <time>2015-06-17T12:33:44Z</time>
      </trkpt>
      <trkpt lat="43.39137" lon="6.08726">
        <ele>314.79998779297</ele>
        <time>2015-06-17T12:33:46Z</time>
      </trkpt>
      <trkpt lat="43.39136" lon="6.0873">
        <ele>315</ele>
        <time>2015-06-17T12:33:47Z</time>
      </trkpt>
      <trkpt lat="43.39135" lon="6.08735">
        <ele>314.60000610352</ele>
        <time>2015-06-17T12:33:48Z</time>
      </trkpt>
      <trkpt lat="43.39132" lon="6.08745">
        <ele>315.20001220703</ele>
        <time>2015-06-17T12:33:50Z</time>
      </trkpt>
      <trkpt lat="43.3913" lon="6.08755">
        <ele>315.79998779297</ele>
        <time>2015-06-17T12:33:52Z</time>
      </trkpt>
      <trkpt lat="43.39128" lon="6.0876">
        <ele>316</ele>
        <time>2015-06-17T12:33:53Z</time>
      </trkpt>
      <trkpt lat="43.39128" lon="6.08765">
        <ele>316</ele>
        <time>2015-06-17T12:33:54Z</time>
      </trkpt>
      <trkpt lat="43.39125" lon="6.08774">
        <ele>315.79998779297</ele>
        <time>2015-06-17T12:33:56Z</time>
      </trkpt>
      <trkpt lat="43.39123" lon="6.08784">
        <ele>316</ele>
        <time>2015-06-17T12:33:58Z</time>
      </trkpt>
      <trkpt lat="43.39122" lon="6.08788">
        <ele>316</ele>
        <time>2015-06-17T12:33:59Z</time>
      </trkpt>
      <trkpt lat="43.39121" lon="6.08791">
        <ele>316.20001220703</ele>
        <time>2015-06-17T12:34:00Z</time>
      </trkpt>
      <trkpt lat="43.39121" lon="6.08794">
        <ele>316.20001220703</ele>
        <time>2015-06-17T12:34:01Z</time>
      </trkpt>
      <trkpt lat="43.3912" lon="6.08797">
        <ele>316.20001220703</ele>
        <time>2015-06-17T12:34:02Z</time>
      </trkpt>
      <trkpt lat="43.39117" lon="6.08805">
        <ele>316</ele>
        <time>2015-06-17T12:34:04Z</time>
      </trkpt>
      <trkpt lat="43.39115" lon="6.08816">
        <ele>315.79998779297</ele>
        <time>2015-06-17T12:34:06Z</time>
      </trkpt>
      <trkpt lat="43.39113" lon="6.08827">
        <ele>316</ele>
        <time>2015-06-17T12:34:08Z</time>
      </trkpt>
      <trkpt lat="43.39111" lon="6.08837">
        <ele>316.39999389648</ele>
        <time>2015-06-17T12:34:10Z</time>
      </trkpt>
      <trkpt lat="43.3911" lon="6.08844">
        <ele>316.60000610352</ele>
        <time>2015-06-17T12:34:12Z</time>
      </trkpt>
      <trkpt lat="43.39109" lon="6.08852">
        <ele>316.60000610352</ele>
        <time>2015-06-17T12:34:14Z</time>
      </trkpt>
      <trkpt lat="43.39108" lon="6.08855">
        <ele>316.39999389648</ele>
        <time>2015-06-17T12:34:15Z</time>
      </trkpt>
      <trkpt lat="43.39107" lon="6.08858">
        <ele>316.60000610352</ele>
        <time>2015-06-17T12:34:16Z</time>
      </trkpt>
      <trkpt lat="43.39106" lon="6.08866">
        <ele>316.60000610352</ele>
        <time>2015-06-17T12:34:18Z</time>
      </trkpt>
      <trkpt lat="43.39105" lon="6.08872">
        <ele>317</ele>
        <time>2015-06-17T12:34:20Z</time>
      </trkpt>
      <trkpt lat="43.39103" lon="6.08878">
        <ele>317</ele>
        <time>2015-06-17T12:34:22Z</time>
      </trkpt>
      <trkpt lat="43.39101" lon="6.08885">
        <ele>317.60000610352</ele>
        <time>2015-06-17T12:34:24Z</time>
      </trkpt>
      <trkpt lat="43.391" lon="6.08894">
        <ele>317.39999389648</ele>
        <time>2015-06-17T12:34:26Z</time>
      </trkpt>
      <trkpt lat="43.39098" lon="6.08903">
        <ele>317.39999389648</ele>
        <time>2015-06-17T12:34:28Z</time>
      </trkpt>
      <trkpt lat="43.39098" lon="6.08912">
        <ele>317.60000610352</ele>
        <time>2015-06-17T12:34:30Z</time>
      </trkpt>
      <trkpt lat="43.39096" lon="6.0892">
        <ele>317.79998779297</ele>
        <time>2015-06-17T12:34:32Z</time>
      </trkpt>
      <trkpt lat="43.39094" lon="6.08928">
        <ele>317.60000610352</ele>
        <time>2015-06-17T12:34:34Z</time>
      </trkpt>
      <trkpt lat="43.39092" lon="6.08936">
        <ele>317.79998779297</ele>
        <time>2015-06-17T12:34:36Z</time>
      </trkpt>
      <trkpt lat="43.3909" lon="6.08945">
        <ele>318.20001220703</ele>
        <time>2015-06-17T12:34:38Z</time>
      </trkpt>
      <trkpt lat="43.3909" lon="6.08948">
        <ele>318.20001220703</ele>
        <time>2015-06-17T12:34:39Z</time>
      </trkpt>
      <trkpt lat="43.39088" lon="6.08952">
        <ele>318.20001220703</ele>
        <time>2015-06-17T12:34:40Z</time>
      </trkpt>
      <trkpt lat="43.39086" lon="6.0896">
        <ele>318</ele>
        <time>2015-06-17T12:34:42Z</time>
      </trkpt>
      <trkpt lat="43.39083" lon="6.08967">
        <ele>318.20001220703</ele>
        <time>2015-06-17T12:34:44Z</time>
      </trkpt>
      <trkpt lat="43.39081" lon="6.0897">
        <ele>318</ele>
        <time>2015-06-17T12:34:45Z</time>
      </trkpt>
      <trkpt lat="43.39079" lon="6.08974">
        <ele>318.20001220703</ele>
        <time>2015-06-17T12:34:46Z</time>
      </trkpt>
      <trkpt lat="43.39077" lon="6.0898">
        <ele>318.60000610352</ele>
        <time>2015-06-17T12:34:48Z</time>
      </trkpt>
      <trkpt lat="43.39075" lon="6.08986">
        <ele>318</ele>
        <time>2015-06-17T12:34:50Z</time>
      </trkpt>
      <trkpt lat="43.39072" lon="6.08992">
        <ele>318.60000610352</ele>
        <time>2015-06-17T12:34:52Z</time>
      </trkpt>
      <trkpt lat="43.39068" lon="6.08997">
        <ele>318.79998779297</ele>
        <time>2015-06-17T12:34:54Z</time>
      </trkpt>
      <trkpt lat="43.39066" lon="6.09001">
        <ele>319</ele>
        <time>2015-06-17T12:34:55Z</time>
      </trkpt>
      <trkpt lat="43.39065" lon="6.09004">
        <ele>319.20001220703</ele>
        <time>2015-06-17T12:34:56Z</time>
      </trkpt>
      <trkpt lat="43.39062" lon="6.09012">
        <ele>319.20001220703</ele>
        <time>2015-06-17T12:34:58Z</time>
      </trkpt>
      <trkpt lat="43.39059" lon="6.0902">
        <ele>319.20001220703</ele>
        <time>2015-06-17T12:35:00Z</time>
      </trkpt>
      <trkpt lat="43.39054" lon="6.09027">
        <ele>319.60000610352</ele>
        <time>2015-06-17T12:35:02Z</time>
      </trkpt>
      <trkpt lat="43.39051" lon="6.09034">
        <ele>319.60000610352</ele>
        <time>2015-06-17T12:35:04Z</time>
      </trkpt>
      <trkpt lat="43.39049" lon="6.0904">
        <ele>319.60000610352</ele>
        <time>2015-06-17T12:35:06Z</time>
      </trkpt>
      <trkpt lat="43.39046" lon="6.09047">
        <ele>319.60000610352</ele>
        <time>2015-06-17T12:35:08Z</time>
      </trkpt>
      <trkpt lat="43.39043" lon="6.09056">
        <ele>320</ele>
        <time>2015-06-17T12:35:10Z</time>
      </trkpt>
      <trkpt lat="43.39041" lon="6.09064">
        <ele>319.79998779297</ele>
        <time>2015-06-17T12:35:12Z</time>
      </trkpt>
      <trkpt lat="43.39038" lon="6.09072">
        <ele>320.39999389648</ele>
        <time>2015-06-17T12:35:14Z</time>
      </trkpt>
      <trkpt lat="43.39035" lon="6.0908">
        <ele>320.39999389648</ele>
        <time>2015-06-17T12:35:16Z</time>
      </trkpt>
      <trkpt lat="43.39032" lon="6.09088">
        <ele>320.60000610352</ele>
        <time>2015-06-17T12:35:18Z</time>
      </trkpt>
      <trkpt lat="43.39031" lon="6.0909">
        <ele>320.39999389648</ele>
        <time>2015-06-17T12:35:19Z</time>
      </trkpt>
      <trkpt lat="43.3903" lon="6.09093">
        <ele>320.39999389648</ele>
        <time>2015-06-17T12:35:20Z</time>
      </trkpt>
      <trkpt lat="43.39029" lon="6.09097">
        <ele>320.39999389648</ele>
        <time>2015-06-17T12:35:22Z</time>
      </trkpt>
      <trkpt lat="43.39027" lon="6.09102">
        <ele>321</ele>
        <time>2015-06-17T12:35:24Z</time>
      </trkpt>
      <trkpt lat="43.39026" lon="6.09106">
        <ele>321</ele>
        <time>2015-06-17T12:35:25Z</time>
      </trkpt>
      <trkpt lat="43.39025" lon="6.0911">
        <ele>321</ele>
        <time>2015-06-17T12:35:26Z</time>
      </trkpt>
      <trkpt lat="43.39023" lon="6.09118">
        <ele>321.20001220703</ele>
        <time>2015-06-17T12:35:28Z</time>
      </trkpt>
      <trkpt lat="43.39022" lon="6.09122">
        <ele>321.39999389648</ele>
        <time>2015-06-17T12:35:29Z</time>
      </trkpt>
      <trkpt lat="43.39021" lon="6.09127">
        <ele>321.39999389648</ele>
        <time>2015-06-17T12:35:30Z</time>
      </trkpt>
      <trkpt lat="43.3902" lon="6.09132">
        <ele>321.39999389648</ele>
        <time>2015-06-17T12:35:31Z</time>
      </trkpt>
      <trkpt lat="43.39018" lon="6.09137">
        <ele>321.39999389648</ele>
        <time>2015-06-17T12:35:32Z</time>
      </trkpt>
      <trkpt lat="43.39016" lon="6.09146">
        <ele>321.60000610352</ele>
        <time>2015-06-17T12:35:34Z</time>
      </trkpt>
      <trkpt lat="43.39013" lon="6.09155">
        <ele>321</ele>
        <time>2015-06-17T12:35:36Z</time>
      </trkpt>
      <trkpt lat="43.39012" lon="6.0916">
        <ele>321.39999389648</ele>
        <time>2015-06-17T12:35:37Z</time>
      </trkpt>
      <trkpt lat="43.39011" lon="6.09164">
        <ele>321.60000610352</ele>
        <time>2015-06-17T12:35:38Z</time>
      </trkpt>
      <trkpt lat="43.39008" lon="6.09173">
        <ele>322</ele>
        <time>2015-06-17T12:35:40Z</time>
      </trkpt>
      <trkpt lat="43.39006" lon="6.09182">
        <ele>322.20001220703</ele>
        <time>2015-06-17T12:35:42Z</time>
      </trkpt>
      <trkpt lat="43.39005" lon="6.09186">
        <ele>322.60000610352</ele>
        <time>2015-06-17T12:35:43Z</time>
      </trkpt>
      <trkpt lat="43.39004" lon="6.09191">
        <ele>322.79998779297</ele>
        <time>2015-06-17T12:35:44Z</time>
      </trkpt>
      <trkpt lat="43.39003" lon="6.092">
        <ele>323</ele>
        <time>2015-06-17T12:35:46Z</time>
      </trkpt>
      <trkpt lat="43.39001" lon="6.09209">
        <ele>323.20001220703</ele>
        <time>2015-06-17T12:35:48Z</time>
      </trkpt>
      <trkpt lat="43.39" lon="6.09218">
        <ele>323.20001220703</ele>
        <time>2015-06-17T12:35:50Z</time>
      </trkpt>
      <trkpt lat="43.38999" lon="6.09222">
        <ele>323</ele>
        <time>2015-06-17T12:35:51Z</time>
      </trkpt>
      <trkpt lat="43.38998" lon="6.09226">
        <ele>323</ele>
        <time>2015-06-17T12:35:52Z</time>
      </trkpt>
      <trkpt lat="43.38997" lon="6.09235">
        <ele>323</ele>
        <time>2015-06-17T12:35:54Z</time>
      </trkpt>
      <trkpt lat="43.38994" lon="6.09242">
        <ele>323</ele>
        <time>2015-06-17T12:35:56Z</time>
      </trkpt>
      <trkpt lat="43.38991" lon="6.09251">
        <ele>323.39999389648</ele>
        <time>2015-06-17T12:35:58Z</time>
      </trkpt>
      <trkpt lat="43.38988" lon="6.09259">
        <ele>323.60000610352</ele>
        <time>2015-06-17T12:36:00Z</time>
      </trkpt>
      <trkpt lat="43.38986" lon="6.09266">
        <ele>324</ele>
        <time>2015-06-17T12:36:02Z</time>
      </trkpt>
      <trkpt lat="43.38984" lon="6.09272">
        <ele>323.60000610352</ele>
        <time>2015-06-17T12:36:04Z</time>
      </trkpt>
      <trkpt lat="43.38981" lon="6.09277">
        <ele>324</ele>
        <time>2015-06-17T12:36:06Z</time>
      </trkpt>
      <trkpt lat="43.38978" lon="6.09282">
        <ele>324</ele>
        <time>2015-06-17T12:36:08Z</time>
      </trkpt>
      <trkpt lat="43.38976" lon="6.09285">
        <ele>324.60000610352</ele>
        <time>2015-06-17T12:36:10Z</time>
      </trkpt>
      <trkpt lat="43.38972" lon="6.0929">
        <ele>325</ele>
        <time>2015-06-17T12:36:12Z</time>
      </trkpt>
      <trkpt lat="43.38969" lon="6.09295">
        <ele>325.39999389648</ele>
        <time>2015-06-17T12:36:14Z</time>
      </trkpt>
      <trkpt lat="43.38966" lon="6.093">
        <ele>325.39999389648</ele>
        <time>2015-06-17T12:36:16Z</time>
      </trkpt>
      <trkpt lat="43.38963" lon="6.09305">
        <ele>325.60000610352</ele>
        <time>2015-06-17T12:36:18Z</time>
      </trkpt>
      <trkpt lat="43.3896" lon="6.0931">
        <ele>326</ele>
        <time>2015-06-17T12:36:20Z</time>
      </trkpt>
      <trkpt lat="43.38956" lon="6.09316">
        <ele>326</ele>
        <time>2015-06-17T12:36:22Z</time>
      </trkpt>
      <trkpt lat="43.38953" lon="6.09322">
        <ele>326.60000610352</ele>
        <time>2015-06-17T12:36:24Z</time>
      </trkpt>
      <trkpt lat="43.3895" lon="6.09328">
        <ele>326.60000610352</ele>
        <time>2015-06-17T12:36:26Z</time>
      </trkpt>
      <trkpt lat="43.38945" lon="6.09332">
        <ele>326.60000610352</ele>
        <time>2015-06-17T12:36:28Z</time>
      </trkpt>
      <trkpt lat="43.38941" lon="6.09337">
        <ele>327</ele>
        <time>2015-06-17T12:36:30Z</time>
      </trkpt>
      <trkpt lat="43.38937" lon="6.09343">
        <ele>327</ele>
        <time>2015-06-17T12:36:32Z</time>
      </trkpt>
      <trkpt lat="43.38935" lon="6.09345">
        <ele>326.79998779297</ele>
        <time>2015-06-17T12:36:33Z</time>
      </trkpt>
      <trkpt lat="43.38933" lon="6.09349">
        <ele>327</ele>
        <time>2015-06-17T12:36:34Z</time>
      </trkpt>
      <trkpt lat="43.38928" lon="6.09355">
        <ele>327</ele>
        <time>2015-06-17T12:36:36Z</time>
      </trkpt>
      <trkpt lat="43.38924" lon="6.0936">
        <ele>327</ele>
        <time>2015-06-17T12:36:38Z</time>
      </trkpt>
      <trkpt lat="43.38922" lon="6.09363">
        <ele>327.20001220703</ele>
        <time>2015-06-17T12:36:39Z</time>
      </trkpt>
      <trkpt lat="43.38921" lon="6.09365">
        <ele>327.39999389648</ele>
        <time>2015-06-17T12:36:40Z</time>
      </trkpt>
      <trkpt lat="43.38918" lon="6.09368">
        <ele>327.79998779297</ele>
        <time>2015-06-17T12:36:42Z</time>
      </trkpt>
      <trkpt lat="43.38916" lon="6.09371">
        <ele>328</ele>
        <time>2015-06-17T12:36:44Z</time>
      </trkpt>
      <trkpt lat="43.38913" lon="6.09374">
        <ele>328</ele>
        <time>2015-06-17T12:36:46Z</time>
      </trkpt>
      <trkpt lat="43.38912" lon="6.09375">
        <ele>328.39999389648</ele>
        <time>2015-06-17T12:36:47Z</time>
      </trkpt>
      <trkpt lat="43.38911" lon="6.09377">
        <ele>328.60000610352</ele>
        <time>2015-06-17T12:36:48Z</time>
      </trkpt>
      <trkpt lat="43.38909" lon="6.09379">
        <ele>328.79998779297</ele>
        <time>2015-06-17T12:36:50Z</time>
      </trkpt>
      <trkpt lat="43.38908" lon="6.0938">
        <ele>328.79998779297</ele>
        <time>2015-06-17T12:36:52Z</time>
      </trkpt>
      <trkpt lat="43.38908" lon="6.0938">
        <ele>328.79998779297</ele>
        <time>2015-06-17T12:36:53Z</time>
      </trkpt>
      <trkpt lat="43.38908" lon="6.09381">
        <ele>328.79998779297</ele>
        <time>2015-06-17T12:36:54Z</time>
      </trkpt>
      <trkpt lat="43.38907" lon="6.09382">
        <ele>328.79998779297</ele>
        <time>2015-06-17T12:36:56Z</time>
      </trkpt>
      <trkpt lat="43.38906" lon="6.09383">
        <ele>329</ele>
        <time>2015-06-17T12:36:58Z</time>
      </trkpt>
      <trkpt lat="43.38906" lon="6.09384">
        <ele>329</ele>
        <time>2015-06-17T12:37:00Z</time>
      </trkpt>
      <trkpt lat="43.38905" lon="6.09385">
        <ele>328.79998779297</ele>
        <time>2015-06-17T12:37:02Z</time>
      </trkpt>
      <trkpt lat="43.38904" lon="6.09385">
        <ele>328.79998779297</ele>
        <time>2015-06-17T12:37:03Z</time>
      </trkpt>
      <trkpt lat="43.38904" lon="6.09385">
        <ele>329</ele>
        <time>2015-06-17T12:37:04Z</time>
      </trkpt>
      <trkpt lat="43.38904" lon="6.09386">
        <ele>329</ele>
        <time>2015-06-17T12:37:06Z</time>
      </trkpt>
      <trkpt lat="43.38903" lon="6.09386">
        <ele>329.20001220703</ele>
        <time>2015-06-17T12:37:08Z</time>
      </trkpt>
      <trkpt lat="43.38903" lon="6.09387">
        <ele>329</ele>
        <time>2015-06-17T12:37:10Z</time>
      </trkpt>
      <trkpt lat="43.38903" lon="6.09387">
        <ele>329</ele>
        <time>2015-06-17T12:37:11Z</time>
      </trkpt>
      <trkpt lat="43.38903" lon="6.09387">
        <ele>329</ele>
        <time>2015-06-17T12:37:12Z</time>
      </trkpt>
      <trkpt lat="43.38903" lon="6.09387">
        <ele>329.20001220703</ele>
        <time>2015-06-17T12:37:14Z</time>
      </trkpt>
      <trkpt lat="43.38902" lon="6.09388">
        <ele>329.20001220703</ele>
        <time>2015-06-17T12:37:16Z</time>
      </trkpt>
      <trkpt lat="43.38902" lon="6.09388">
        <ele>329.20001220703</ele>
        <time>2015-06-17T12:37:18Z</time>
      </trkpt>
      <trkpt lat="43.38901" lon="6.09388">
        <ele>329</ele>
        <time>2015-06-17T12:37:20Z</time>
      </trkpt>
      <trkpt lat="43.389" lon="6.0939">
        <ele>329.20001220703</ele>
        <time>2015-06-17T12:37:22Z</time>
      </trkpt>
      <trkpt lat="43.38898" lon="6.09392">
        <ele>329.39999389648</ele>
        <time>2015-06-17T12:37:24Z</time>
      </trkpt>
      <trkpt lat="43.38895" lon="6.09395">
        <ele>329.39999389648</ele>
        <time>2015-06-17T12:37:26Z</time>
      </trkpt>
      <trkpt lat="43.38892" lon="6.09397">
        <ele>330.20001220703</ele>
        <time>2015-06-17T12:37:28Z</time>
      </trkpt>
      <trkpt lat="43.3889" lon="6.094">
        <ele>330.39999389648</ele>
        <time>2015-06-17T12:37:30Z</time>
      </trkpt>
      <trkpt lat="43.3889" lon="6.09402">
        <ele>330.60000610352</ele>
        <time>2015-06-17T12:37:32Z</time>
      </trkpt>
      <trkpt lat="43.3889" lon="6.09403">
        <ele>331</ele>
        <time>2015-06-17T12:37:34Z</time>
      </trkpt>
      <trkpt lat="43.3889" lon="6.09404">
        <ele>331</ele>
        <time>2015-06-17T12:37:36Z</time>
      </trkpt>
      <trkpt lat="43.38889" lon="6.09405">
        <ele>331</ele>
        <time>2015-06-17T12:37:38Z</time>
      </trkpt>
      <trkpt lat="43.38889" lon="6.09406">
        <ele>331</ele>
        <time>2015-06-17T12:37:40Z</time>
      </trkpt>
      <trkpt lat="43.38887" lon="6.09408">
        <ele>331.20001220703</ele>
        <time>2015-06-17T12:37:42Z</time>
      </trkpt>
      <trkpt lat="43.38887" lon="6.09413">
        <ele>331.39999389648</ele>
        <time>2015-06-17T12:37:44Z</time>
      </trkpt>
      <trkpt lat="43.38886" lon="6.09415">
        <ele>331.60000610352</ele>
        <time>2015-06-17T12:37:45Z</time>
      </trkpt>
      <trkpt lat="43.38885" lon="6.09416">
        <ele>331.60000610352</ele>
        <time>2015-06-17T12:37:46Z</time>
      </trkpt>
      <trkpt lat="43.38885" lon="6.09418">
        <ele>332</ele>
        <time>2015-06-17T12:37:48Z</time>
      </trkpt>
      <trkpt lat="43.38884" lon="6.09418">
        <ele>332.39999389648</ele>
        <time>2015-06-17T12:37:50Z</time>
      </trkpt>
      <trkpt lat="43.38884" lon="6.09419">
        <ele>332.39999389648</ele>
        <time>2015-06-17T12:37:52Z</time>
      </trkpt>
      <trkpt lat="43.38884" lon="6.09419">
        <ele>332.60000610352</ele>
        <time>2015-06-17T12:37:54Z</time>
      </trkpt>
      <trkpt lat="43.38884" lon="6.09419">
        <ele>332.60000610352</ele>
        <time>2015-06-17T12:37:56Z</time>
      </trkpt>
      <trkpt lat="43.38884" lon="6.09419">
        <ele>332.79998779297</ele>
        <time>2015-06-17T12:37:58Z</time>
      </trkpt>
      <trkpt lat="43.38884" lon="6.09419">
        <ele>332.60000610352</ele>
        <time>2015-06-17T12:38:00Z</time>
      </trkpt>
      <trkpt lat="43.38883" lon="6.0942">
        <ele>332.60000610352</ele>
        <time>2015-06-17T12:38:02Z</time>
      </trkpt>
      <trkpt lat="43.38883" lon="6.0942">
        <ele>332.79998779297</ele>
        <time>2015-06-17T12:38:03Z</time>
      </trkpt>
      <trkpt lat="43.38882" lon="6.0942">
        <ele>333</ele>
        <time>2015-06-17T12:38:04Z</time>
      </trkpt>
      <trkpt lat="43.38882" lon="6.09421">
        <ele>332.60000610352</ele>
        <time>2015-06-17T12:38:06Z</time>
      </trkpt>
      <trkpt lat="43.38882" lon="6.09422">
        <ele>332.60000610352</ele>
        <time>2015-06-17T12:38:08Z</time>
      </trkpt>
      <trkpt lat="43.38881" lon="6.09422">
        <ele>333</ele>
        <time>2015-06-17T12:38:10Z</time>
      </trkpt>
      <trkpt lat="43.3888" lon="6.09423">
        <ele>333.20001220703</ele>
        <time>2015-06-17T12:38:12Z</time>
      </trkpt>
      <trkpt lat="43.38879" lon="6.09423">
        <ele>333.60000610352</ele>
        <time>2015-06-17T12:38:14Z</time>
      </trkpt>
      <trkpt lat="43.38879" lon="6.09424">
        <ele>333.39999389648</ele>
        <time>2015-06-17T12:38:16Z</time>
      </trkpt>
      <trkpt lat="43.38878" lon="6.09426">
        <ele>333.60000610352</ele>
        <time>2015-06-17T12:38:18Z</time>
      </trkpt>
      <trkpt lat="43.38877" lon="6.09426">
        <ele>333.79998779297</ele>
        <time>2015-06-17T12:38:19Z</time>
      </trkpt>
      <trkpt lat="43.38877" lon="6.09427">
        <ele>334</ele>
        <time>2015-06-17T12:38:20Z</time>
      </trkpt>
      <trkpt lat="43.38876" lon="6.09428">
        <ele>334.39999389648</ele>
        <time>2015-06-17T12:38:22Z</time>
      </trkpt>
      <trkpt lat="43.38875" lon="6.09429">
        <ele>334.39999389648</ele>
        <time>2015-06-17T12:38:24Z</time>
      </trkpt>
      <trkpt lat="43.38874" lon="6.09429">
        <ele>334.39999389648</ele>
        <time>2015-06-17T12:38:26Z</time>
      </trkpt>
      <trkpt lat="43.38874" lon="6.0943">
        <ele>334.39999389648</ele>
        <time>2015-06-17T12:38:28Z</time>
      </trkpt>
      <trkpt lat="43.38874" lon="6.09432">
        <ele>334.60000610352</ele>
        <time>2015-06-17T12:38:30Z</time>
      </trkpt>
      <trkpt lat="43.38873" lon="6.09433">
        <ele>334.79998779297</ele>
        <time>2015-06-17T12:38:31Z</time>
      </trkpt>
      <trkpt lat="43.38873" lon="6.09434">
        <ele>334.79998779297</ele>
        <time>2015-06-17T12:38:32Z</time>
      </trkpt>
      <trkpt lat="43.38873" lon="6.09435">
        <ele>334.39999389648</ele>
        <time>2015-06-17T12:38:34Z</time>
      </trkpt>
      <trkpt lat="43.38873" lon="6.09435">
        <ele>334.39999389648</ele>
        <time>2015-06-17T12:38:36Z</time>
      </trkpt>
      <trkpt lat="43.38872" lon="6.09436">
        <ele>334.39999389648</ele>
        <time>2015-06-17T12:38:38Z</time>
      </trkpt>
      <trkpt lat="43.38872" lon="6.09436">
        <ele>334.39999389648</ele>
        <time>2015-06-17T12:38:40Z</time>
      </trkpt>
      <trkpt lat="43.38872" lon="6.09436">
        <ele>334.39999389648</ele>
        <time>2015-06-17T12:38:41Z</time>
      </trkpt>
      <trkpt lat="43.38872" lon="6.09436">
        <ele>334.39999389648</ele>
        <time>2015-06-17T12:38:44Z</time>
      </trkpt>
      <trkpt lat="43.38872" lon="6.09437">
        <ele>334.39999389648</ele>
        <time>2015-06-17T12:38:46Z</time>
      </trkpt>
      <trkpt lat="43.38872" lon="6.09437">
        <ele>334.39999389648</ele>
        <time>2015-06-17T12:38:47Z</time>
      </trkpt>
      <trkpt lat="43.38872" lon="6.09437">
        <ele>334.39999389648</ele>
        <time>2015-06-17T12:38:48Z</time>
      </trkpt>
      <trkpt lat="43.38872" lon="6.09437">
        <ele>334.39999389648</ele>
        <time>2015-06-17T12:38:50Z</time>
      </trkpt>
      <trkpt lat="43.38872" lon="6.09437">
        <ele>334.20001220703</ele>
        <time>2015-06-17T12:38:52Z</time>
      </trkpt>
      <trkpt lat="43.38872" lon="6.09437">
        <ele>334.39999389648</ele>
        <time>2015-06-17T12:38:54Z</time>
      </trkpt>
      <trkpt lat="43.38872" lon="6.09437">
        <ele>334.39999389648</ele>
        <time>2015-06-17T12:38:56Z</time>
      </trkpt>
      <trkpt lat="43.38872" lon="6.09437">
        <ele>334.39999389648</ele>
        <time>2015-06-17T12:38:57Z</time>
      </trkpt>
      <trkpt lat="43.38872" lon="6.09437">
        <ele>334.20001220703</ele>
        <time>2015-06-17T12:38:58Z</time>
      </trkpt>
      <trkpt lat="43.38872" lon="6.09437">
        <ele>334.39999389648</ele>
        <time>2015-06-17T12:39:00Z</time>
      </trkpt>
      <trkpt lat="43.38872" lon="6.09438">
        <ele>334.20001220703</ele>
        <time>2015-06-17T12:39:02Z</time>
      </trkpt>
      <trkpt lat="43.38871" lon="6.0944">
        <ele>334</ele>
        <time>2015-06-17T12:39:04Z</time>
      </trkpt>
      <trkpt lat="43.38872" lon="6.09444">
        <ele>334.20001220703</ele>
        <time>2015-06-17T12:39:06Z</time>
      </trkpt>
      <trkpt lat="43.38873" lon="6.09449">
        <ele>334.39999389648</ele>
        <time>2015-06-17T12:39:08Z</time>
      </trkpt>
      <trkpt lat="43.38874" lon="6.09455">
        <ele>334.39999389648</ele>
        <time>2015-06-17T12:39:10Z</time>
      </trkpt>
      <trkpt lat="43.38874" lon="6.09459">
        <ele>334.39999389648</ele>
        <time>2015-06-17T12:39:11Z</time>
      </trkpt>
      <trkpt lat="43.38874" lon="6.09462">
        <ele>334</ele>
        <time>2015-06-17T12:39:12Z</time>
      </trkpt>
      <trkpt lat="43.38873" lon="6.0947">
        <ele>333.20001220703</ele>
        <time>2015-06-17T12:39:14Z</time>
      </trkpt>
      <trkpt lat="43.38872" lon="6.09478">
        <ele>333.39999389648</ele>
        <time>2015-06-17T12:39:16Z</time>
      </trkpt>
      <trkpt lat="43.38871" lon="6.09482">
        <ele>333</ele>
        <time>2015-06-17T12:39:17Z</time>
      </trkpt>
      <trkpt lat="43.3887" lon="6.09487">
        <ele>333</ele>
        <time>2015-06-17T12:39:18Z</time>
      </trkpt>
      <trkpt lat="43.38869" lon="6.09496">
        <ele>332.60000610352</ele>
        <time>2015-06-17T12:39:20Z</time>
      </trkpt>
      <trkpt lat="43.38869" lon="6.09505">
        <ele>332.39999389648</ele>
        <time>2015-06-17T12:39:22Z</time>
      </trkpt>
      <trkpt lat="43.3887" lon="6.09516">
        <ele>332.39999389648</ele>
        <time>2015-06-17T12:39:24Z</time>
      </trkpt>
      <trkpt lat="43.3887" lon="6.09528">
        <ele>332.20001220703</ele>
        <time>2015-06-17T12:39:26Z</time>
      </trkpt>
      <trkpt lat="43.3887" lon="6.09534">
        <ele>332</ele>
        <time>2015-06-17T12:39:27Z</time>
      </trkpt>
      <trkpt lat="43.3887" lon="6.09541">
        <ele>331.79998779297</ele>
        <time>2015-06-17T12:39:28Z</time>
      </trkpt>
      <trkpt lat="43.38871" lon="6.09555">
        <ele>332.20001220703</ele>
        <time>2015-06-17T12:39:30Z</time>
      </trkpt>
      <trkpt lat="43.38871" lon="6.09568">
        <ele>332.39999389648</ele>
        <time>2015-06-17T12:39:32Z</time>
      </trkpt>
      <trkpt lat="43.38873" lon="6.09581">
        <ele>332.20001220703</ele>
        <time>2015-06-17T12:39:34Z</time>
      </trkpt>
      <trkpt lat="43.38874" lon="6.09587">
        <ele>331.79998779297</ele>
        <time>2015-06-17T12:39:35Z</time>
      </trkpt>
      <trkpt lat="43.38874" lon="6.09594">
        <ele>331.39999389648</ele>
        <time>2015-06-17T12:39:36Z</time>
      </trkpt>
      <trkpt lat="43.38877" lon="6.09608">
        <ele>331.20001220703</ele>
        <time>2015-06-17T12:39:38Z</time>
      </trkpt>
      <trkpt lat="43.38879" lon="6.09615">
        <ele>331.20001220703</ele>
        <time>2015-06-17T12:39:39Z</time>
      </trkpt>
      <trkpt lat="43.38882" lon="6.0962">
        <ele>331</ele>
        <time>2015-06-17T12:39:40Z</time>
      </trkpt>
      <trkpt lat="43.38885" lon="6.09625">
        <ele>330.60000610352</ele>
        <time>2015-06-17T12:39:41Z</time>
      </trkpt>
      <trkpt lat="43.38889" lon="6.09629">
        <ele>330.39999389648</ele>
        <time>2015-06-17T12:39:42Z</time>
      </trkpt>
      <trkpt lat="43.38891" lon="6.09634">
        <ele>330.39999389648</ele>
        <time>2015-06-17T12:39:43Z</time>
      </trkpt>
      <trkpt lat="43.38892" lon="6.0964">
        <ele>330.39999389648</ele>
        <time>2015-06-17T12:39:44Z</time>
      </trkpt>
      <trkpt lat="43.38893" lon="6.09647">
        <ele>330.20001220703</ele>
        <time>2015-06-17T12:39:45Z</time>
      </trkpt>
      <trkpt lat="43.38894" lon="6.09655">
        <ele>330</ele>
        <time>2015-06-17T12:39:46Z</time>
      </trkpt>
      <trkpt lat="43.38894" lon="6.09662">
        <ele>330</ele>
        <time>2015-06-17T12:39:47Z</time>
      </trkpt>
      <trkpt lat="43.38894" lon="6.0967">
        <ele>330</ele>
        <time>2015-06-17T12:39:48Z</time>
      </trkpt>
      <trkpt lat="43.38895" lon="6.09688">
        <ele>329.20001220703</ele>
        <time>2015-06-17T12:39:50Z</time>
      </trkpt>
      <trkpt lat="43.38897" lon="6.09706">
        <ele>329.20001220703</ele>
        <time>2015-06-17T12:39:52Z</time>
      </trkpt>
      <trkpt lat="43.38898" lon="6.09715">
        <ele>328.79998779297</ele>
        <time>2015-06-17T12:39:53Z</time>
      </trkpt>
      <trkpt lat="43.38899" lon="6.09725">
        <ele>327.60000610352</ele>
        <time>2015-06-17T12:39:54Z</time>
      </trkpt>
      <trkpt lat="43.38901" lon="6.09742">
        <ele>326.79998779297</ele>
        <time>2015-06-17T12:39:56Z</time>
      </trkpt>
      <trkpt lat="43.38901" lon="6.09751">
        <ele>326</ele>
        <time>2015-06-17T12:39:57Z</time>
      </trkpt>
      <trkpt lat="43.389" lon="6.0976">
        <ele>325.39999389648</ele>
        <time>2015-06-17T12:39:58Z</time>
      </trkpt>
      <trkpt lat="43.38897" lon="6.09778">
        <ele>325</ele>
        <time>2015-06-17T12:40:00Z</time>
      </trkpt>
      <trkpt lat="43.38896" lon="6.09787">
        <ele>324.60000610352</ele>
        <time>2015-06-17T12:40:01Z</time>
      </trkpt>
      <trkpt lat="43.38894" lon="6.09795">
        <ele>324</ele>
        <time>2015-06-17T12:40:02Z</time>
      </trkpt>
      <trkpt lat="43.38891" lon="6.09813">
        <ele>322</ele>
        <time>2015-06-17T12:40:04Z</time>
      </trkpt>
      <trkpt lat="43.38888" lon="6.09833">
        <ele>320.39999389648</ele>
        <time>2015-06-17T12:40:06Z</time>
      </trkpt>
      <trkpt lat="43.38887" lon="6.09844">
        <ele>318.60000610352</ele>
        <time>2015-06-17T12:40:07Z</time>
      </trkpt>
      <trkpt lat="43.38885" lon="6.09855">
        <ele>317.60000610352</ele>
        <time>2015-06-17T12:40:08Z</time>
      </trkpt>
      <trkpt lat="43.38882" lon="6.09878">
        <ele>316</ele>
        <time>2015-06-17T12:40:10Z</time>
      </trkpt>
      <trkpt lat="43.3888" lon="6.09889">
        <ele>314.20001220703</ele>
        <time>2015-06-17T12:40:11Z</time>
      </trkpt>
      <trkpt lat="43.38878" lon="6.09901">
        <ele>313.60000610352</ele>
        <time>2015-06-17T12:40:12Z</time>
      </trkpt>
      <trkpt lat="43.38875" lon="6.09912">
        <ele>312</ele>
        <time>2015-06-17T12:40:13Z</time>
      </trkpt>
      <trkpt lat="43.38872" lon="6.09923">
        <ele>310.79998779297</ele>
        <time>2015-06-17T12:40:14Z</time>
      </trkpt>
      <trkpt lat="43.38869" lon="6.09934">
        <ele>310</ele>
        <time>2015-06-17T12:40:15Z</time>
      </trkpt>
      <trkpt lat="43.38866" lon="6.09946">
        <ele>309.39999389648</ele>
        <time>2015-06-17T12:40:16Z</time>
      </trkpt>
      <trkpt lat="43.38861" lon="6.0997">
        <ele>308</ele>
        <time>2015-06-17T12:40:18Z</time>
      </trkpt>
      <trkpt lat="43.3886" lon="6.09983">
        <ele>307.20001220703</ele>
        <time>2015-06-17T12:40:19Z</time>
      </trkpt>
      <trkpt lat="43.38859" lon="6.09996">
        <ele>306.39999389648</ele>
        <time>2015-06-17T12:40:20Z</time>
      </trkpt>
      <trkpt lat="43.38857" lon="6.10008">
        <ele>304.39999389648</ele>
        <time>2015-06-17T12:40:21Z</time>
      </trkpt>
      <trkpt lat="43.38853" lon="6.10022">
        <ele>304</ele>
        <time>2015-06-17T12:40:22Z</time>
      </trkpt>
      <trkpt lat="43.38847" lon="6.10048">
        <ele>304.60000610352</ele>
        <time>2015-06-17T12:40:24Z</time>
      </trkpt>
      <trkpt lat="43.3884" lon="6.10072">
        <ele>303.20001220703</ele>
        <time>2015-06-17T12:40:26Z</time>
      </trkpt>
      <trkpt lat="43.38835" lon="6.10095">
        <ele>301.20001220703</ele>
        <time>2015-06-17T12:40:28Z</time>
      </trkpt>
      <trkpt lat="43.38832" lon="6.10105">
        <ele>300.20001220703</ele>
        <time>2015-06-17T12:40:29Z</time>
      </trkpt>
      <trkpt lat="43.3883" lon="6.10115">
        <ele>299.60000610352</ele>
        <time>2015-06-17T12:40:30Z</time>
      </trkpt>
      <trkpt lat="43.38825" lon="6.10131">
        <ele>299.20001220703</ele>
        <time>2015-06-17T12:40:32Z</time>
      </trkpt>
      <trkpt lat="43.38824" lon="6.10137">
        <ele>299</ele>
        <time>2015-06-17T12:40:33Z</time>
      </trkpt>
      <trkpt lat="43.38823" lon="6.10141">
        <ele>299</ele>
        <time>2015-06-17T12:40:34Z</time>
      </trkpt>
      <trkpt lat="43.38822" lon="6.10146">
        <ele>298.60000610352</ele>
        <time>2015-06-17T12:40:36Z</time>
      </trkpt>
      <trkpt lat="43.38822" lon="6.10147">
        <ele>298.20001220703</ele>
        <time>2015-06-17T12:40:38Z</time>
      </trkpt>
      <trkpt lat="43.38823" lon="6.10149">
        <ele>298.20001220703</ele>
        <time>2015-06-17T12:40:40Z</time>
      </trkpt>
      <trkpt lat="43.38824" lon="6.10151">
        <ele>298</ele>
        <time>2015-06-17T12:40:41Z</time>
      </trkpt>
      <trkpt lat="43.38825" lon="6.10154">
        <ele>298</ele>
        <time>2015-06-17T12:40:42Z</time>
      </trkpt>
      <trkpt lat="43.38824" lon="6.10159">
        <ele>297.79998779297</ele>
        <time>2015-06-17T12:40:44Z</time>
      </trkpt>
      <trkpt lat="43.38824" lon="6.10162">
        <ele>298</ele>
        <time>2015-06-17T12:40:46Z</time>
      </trkpt>
      <trkpt lat="43.38824" lon="6.10162">
        <ele>298</ele>
        <time>2015-06-17T12:40:48Z</time>
      </trkpt>
      <trkpt lat="43.38824" lon="6.10162">
        <ele>298</ele>
        <time>2015-06-17T12:40:50Z</time>
      </trkpt>
      <trkpt lat="43.38824" lon="6.10162">
        <ele>298.20001220703</ele>
        <time>2015-06-17T12:40:52Z</time>
      </trkpt>
      <trkpt lat="43.38824" lon="6.10163">
        <ele>298.20001220703</ele>
        <time>2015-06-17T12:40:54Z</time>
      </trkpt>
      <trkpt lat="43.38824" lon="6.10163">
        <ele>298.20001220703</ele>
        <time>2015-06-17T12:40:56Z</time>
      </trkpt>
      <trkpt lat="43.38824" lon="6.10163">
        <ele>298.20001220703</ele>
        <time>2015-06-17T12:40:57Z</time>
      </trkpt>
      <trkpt lat="43.38824" lon="6.10166">
        <ele>298</ele>
        <time>2015-06-17T12:41:00Z</time>
      </trkpt>
      <trkpt lat="43.38824" lon="6.10171">
        <ele>298</ele>
        <time>2015-06-17T12:41:02Z</time>
      </trkpt>
      <trkpt lat="43.38824" lon="6.10177">
        <ele>298.20001220703</ele>
        <time>2015-06-17T12:41:04Z</time>
      </trkpt>
      <trkpt lat="43.38823" lon="6.10185">
        <ele>298</ele>
        <time>2015-06-17T12:41:06Z</time>
      </trkpt>
      <trkpt lat="43.38821" lon="6.10187">
        <ele>297.79998779297</ele>
        <time>2015-06-17T12:41:07Z</time>
      </trkpt>
      <trkpt lat="43.3882" lon="6.1019">
        <ele>297.79998779297</ele>
        <time>2015-06-17T12:41:08Z</time>
      </trkpt>
      <trkpt lat="43.38818" lon="6.10195">
        <ele>299</ele>
        <time>2015-06-17T12:41:10Z</time>
      </trkpt>
      <trkpt lat="43.38817" lon="6.10201">
        <ele>299.39999389648</ele>
        <time>2015-06-17T12:41:12Z</time>
      </trkpt>
      <trkpt lat="43.38816" lon="6.10204">
        <ele>299.39999389648</ele>
        <time>2015-06-17T12:41:13Z</time>
      </trkpt>
      <trkpt lat="43.38816" lon="6.10207">
        <ele>299.60000610352</ele>
        <time>2015-06-17T12:41:14Z</time>
      </trkpt>
      <trkpt lat="43.38816" lon="6.10214">
        <ele>300</ele>
        <time>2015-06-17T12:41:16Z</time>
      </trkpt>
      <trkpt lat="43.38816" lon="6.10221">
        <ele>300.20001220703</ele>
        <time>2015-06-17T12:41:18Z</time>
      </trkpt>
      <trkpt lat="43.38816" lon="6.10225">
        <ele>300.60000610352</ele>
        <time>2015-06-17T12:41:19Z</time>
      </trkpt>
      <trkpt lat="43.38817" lon="6.10227">
        <ele>300.79998779297</ele>
        <time>2015-06-17T12:41:20Z</time>
      </trkpt>
      <trkpt lat="43.3882" lon="6.10233">
        <ele>299.79998779297</ele>
        <time>2015-06-17T12:41:22Z</time>
      </trkpt>
      <trkpt lat="43.38821" lon="6.10237">
        <ele>299</ele>
        <time>2015-06-17T12:41:23Z</time>
      </trkpt>
      <trkpt lat="43.38821" lon="6.10242">
        <ele>298.79998779297</ele>
        <time>2015-06-17T12:41:24Z</time>
      </trkpt>
      <trkpt lat="43.38822" lon="6.10251">
        <ele>298.60000610352</ele>
        <time>2015-06-17T12:41:26Z</time>
      </trkpt>
      <trkpt lat="43.38823" lon="6.10262">
        <ele>299.39999389648</ele>
        <time>2015-06-17T12:41:28Z</time>
      </trkpt>
      <trkpt lat="43.38824" lon="6.10268">
        <ele>299</ele>
        <time>2015-06-17T12:41:29Z</time>
      </trkpt>
      <trkpt lat="43.38825" lon="6.10275">
        <ele>298.20001220703</ele>
        <time>2015-06-17T12:41:30Z</time>
      </trkpt>
      <trkpt lat="43.38826" lon="6.10282">
        <ele>297.79998779297</ele>
        <time>2015-06-17T12:41:31Z</time>
      </trkpt>
      <trkpt lat="43.38826" lon="6.10289">
        <ele>297.39999389648</ele>
        <time>2015-06-17T12:41:32Z</time>
      </trkpt>
      <trkpt lat="43.38827" lon="6.10303">
        <ele>297.39999389648</ele>
        <time>2015-06-17T12:41:34Z</time>
      </trkpt>
      <trkpt lat="43.38828" lon="6.10317">
        <ele>296.60000610352</ele>
        <time>2015-06-17T12:41:36Z</time>
      </trkpt>
      <trkpt lat="43.38828" lon="6.10331">
        <ele>296.20001220703</ele>
        <time>2015-06-17T12:41:38Z</time>
      </trkpt>
      <trkpt lat="43.38828" lon="6.10345">
        <ele>296.20001220703</ele>
        <time>2015-06-17T12:41:40Z</time>
      </trkpt>
      <trkpt lat="43.38828" lon="6.10351">
        <ele>296.20001220703</ele>
        <time>2015-06-17T12:41:41Z</time>
      </trkpt>
      <trkpt lat="43.38828" lon="6.10358">
        <ele>296.39999389648</ele>
        <time>2015-06-17T12:41:42Z</time>
      </trkpt>
      <trkpt lat="43.38828" lon="6.10372">
        <ele>295.79998779297</ele>
        <time>2015-06-17T12:41:44Z</time>
      </trkpt>
      <trkpt lat="43.38828" lon="6.10386">
        <ele>295.79998779297</ele>
        <time>2015-06-17T12:41:46Z</time>
      </trkpt>
      <trkpt lat="43.38828" lon="6.10394">
        <ele>295.60000610352</ele>
        <time>2015-06-17T12:41:47Z</time>
      </trkpt>
      <trkpt lat="43.38828" lon="6.10402">
        <ele>294.39999389648</ele>
        <time>2015-06-17T12:41:48Z</time>
      </trkpt>
      <trkpt lat="43.38828" lon="6.10409">
        <ele>294</ele>
        <time>2015-06-17T12:41:49Z</time>
      </trkpt>
      <trkpt lat="43.38827" lon="6.10417">
        <ele>294.39999389648</ele>
        <time>2015-06-17T12:41:50Z</time>
      </trkpt>
      <trkpt lat="43.38824" lon="6.10432">
        <ele>293.79998779297</ele>
        <time>2015-06-17T12:41:52Z</time>
      </trkpt>
      <trkpt lat="43.38823" lon="6.10439">
        <ele>293</ele>
        <time>2015-06-17T12:41:53Z</time>
      </trkpt>
      <trkpt lat="43.38822" lon="6.10445">
        <ele>292.20001220703</ele>
        <time>2015-06-17T12:41:54Z</time>
      </trkpt>
      <trkpt lat="43.38822" lon="6.10458">
        <ele>292.39999389648</ele>
        <time>2015-06-17T12:41:56Z</time>
      </trkpt>
      <trkpt lat="43.38822" lon="6.10471">
        <ele>292</ele>
        <time>2015-06-17T12:41:58Z</time>
      </trkpt>
      <trkpt lat="43.38821" lon="6.10478">
        <ele>291.39999389648</ele>
        <time>2015-06-17T12:41:59Z</time>
      </trkpt>
      <trkpt lat="43.3882" lon="6.10485">
        <ele>291.20001220703</ele>
        <time>2015-06-17T12:42:00Z</time>
      </trkpt>
      <trkpt lat="43.38818" lon="6.10498">
        <ele>291.20001220703</ele>
        <time>2015-06-17T12:42:02Z</time>
      </trkpt>
      <trkpt lat="43.38815" lon="6.10511">
        <ele>290.79998779297</ele>
        <time>2015-06-17T12:42:04Z</time>
      </trkpt>
      <trkpt lat="43.38811" lon="6.10523">
        <ele>289.39999389648</ele>
        <time>2015-06-17T12:42:06Z</time>
      </trkpt>
      <trkpt lat="43.38809" lon="6.10531">
        <ele>289.20001220703</ele>
        <time>2015-06-17T12:42:08Z</time>
      </trkpt>
      <trkpt lat="43.38809" lon="6.10535">
        <ele>289.20001220703</ele>
        <time>2015-06-17T12:42:09Z</time>
      </trkpt>
      <trkpt lat="43.38809" lon="6.1054">
        <ele>289</ele>
        <time>2015-06-17T12:42:10Z</time>
      </trkpt>
      <trkpt lat="43.38808" lon="6.10549">
        <ele>288.60000610352</ele>
        <time>2015-06-17T12:42:12Z</time>
      </trkpt>
      <trkpt lat="43.38807" lon="6.10554">
        <ele>288.79998779297</ele>
        <time>2015-06-17T12:42:13Z</time>
      </trkpt>
      <trkpt lat="43.38805" lon="6.10558">
        <ele>289</ele>
        <time>2015-06-17T12:42:14Z</time>
      </trkpt>
      <trkpt lat="43.38802" lon="6.10566">
        <ele>289</ele>
        <time>2015-06-17T12:42:16Z</time>
      </trkpt>
      <trkpt lat="43.38802" lon="6.10571">
        <ele>288.79998779297</ele>
        <time>2015-06-17T12:42:17Z</time>
      </trkpt>
      <trkpt lat="43.38801" lon="6.10576">
        <ele>288.39999389648</ele>
        <time>2015-06-17T12:42:18Z</time>
      </trkpt>
      <trkpt lat="43.388" lon="6.10582">
        <ele>288.39999389648</ele>
        <time>2015-06-17T12:42:19Z</time>
      </trkpt>
      <trkpt lat="43.38799" lon="6.10588">
        <ele>288.60000610352</ele>
        <time>2015-06-17T12:42:20Z</time>
      </trkpt>
      <trkpt lat="43.38798" lon="6.10595">
        <ele>288.60000610352</ele>
        <time>2015-06-17T12:42:21Z</time>
      </trkpt>
      <trkpt lat="43.38796" lon="6.10601">
        <ele>288.39999389648</ele>
        <time>2015-06-17T12:42:22Z</time>
      </trkpt>
      <trkpt lat="43.38793" lon="6.10615">
        <ele>287.39999389648</ele>
        <time>2015-06-17T12:42:24Z</time>
      </trkpt>
      <trkpt lat="43.38792" lon="6.10623">
        <ele>287.20001220703</ele>
        <time>2015-06-17T12:42:25Z</time>
      </trkpt>
      <trkpt lat="43.38791" lon="6.10629">
        <ele>287.39999389648</ele>
        <time>2015-06-17T12:42:26Z</time>
      </trkpt>
      <trkpt lat="43.3879" lon="6.10639">
        <ele>286.79998779297</ele>
        <time>2015-06-17T12:42:28Z</time>
      </trkpt>
      <trkpt lat="43.38789" lon="6.10642">
        <ele>286.20001220703</ele>
        <time>2015-06-17T12:42:29Z</time>
      </trkpt>
      <trkpt lat="43.38789" lon="6.10645">
        <ele>285.79998779297</ele>
        <time>2015-06-17T12:42:30Z</time>
      </trkpt>
      <trkpt lat="43.38787" lon="6.10653">
        <ele>285.20001220703</ele>
        <time>2015-06-17T12:42:32Z</time>
      </trkpt>
      <trkpt lat="43.38786" lon="6.10657">
        <ele>284.79998779297</ele>
        <time>2015-06-17T12:42:33Z</time>
      </trkpt>
      <trkpt lat="43.38785" lon="6.10662">
        <ele>284.39999389648</ele>
        <time>2015-06-17T12:42:34Z</time>
      </trkpt>
      <trkpt lat="43.38783" lon="6.10671">
        <ele>284.39999389648</ele>
        <time>2015-06-17T12:42:36Z</time>
      </trkpt>
      <trkpt lat="43.38781" lon="6.10681">
        <ele>284.39999389648</ele>
        <time>2015-06-17T12:42:38Z</time>
      </trkpt>
      <trkpt lat="43.38778" lon="6.10693">
        <ele>284.20001220703</ele>
        <time>2015-06-17T12:42:40Z</time>
      </trkpt>
      <trkpt lat="43.38775" lon="6.10704">
        <ele>284.20001220703</ele>
        <time>2015-06-17T12:42:42Z</time>
      </trkpt>
      <trkpt lat="43.38773" lon="6.10717">
        <ele>284</ele>
        <time>2015-06-17T12:42:44Z</time>
      </trkpt>
      <trkpt lat="43.38771" lon="6.1073">
        <ele>284.20001220703</ele>
        <time>2015-06-17T12:42:46Z</time>
      </trkpt>
      <trkpt lat="43.38769" lon="6.10741">
        <ele>283.20001220703</ele>
        <time>2015-06-17T12:42:48Z</time>
      </trkpt>
      <trkpt lat="43.38768" lon="6.10747">
        <ele>283</ele>
        <time>2015-06-17T12:42:49Z</time>
      </trkpt>
      <trkpt lat="43.38768" lon="6.10752">
        <ele>282.79998779297</ele>
        <time>2015-06-17T12:42:50Z</time>
      </trkpt>
      <trkpt lat="43.38766" lon="6.10756">
        <ele>282.39999389648</ele>
        <time>2015-06-17T12:42:51Z</time>
      </trkpt>
      <trkpt lat="43.38764" lon="6.10758">
        <ele>282.60000610352</ele>
        <time>2015-06-17T12:42:52Z</time>
      </trkpt>
      <trkpt lat="43.38761" lon="6.1076">
        <ele>282.60000610352</ele>
        <time>2015-06-17T12:42:53Z</time>
      </trkpt>
      <trkpt lat="43.38758" lon="6.10762">
        <ele>282.39999389648</ele>
        <time>2015-06-17T12:42:54Z</time>
      </trkpt>
      <trkpt lat="43.38754" lon="6.10765">
        <ele>282.79998779297</ele>
        <time>2015-06-17T12:42:56Z</time>
      </trkpt>
      <trkpt lat="43.38752" lon="6.10766">
        <ele>283</ele>
        <time>2015-06-17T12:42:57Z</time>
      </trkpt>
      <trkpt lat="43.3875" lon="6.10766">
        <ele>283.20001220703</ele>
        <time>2015-06-17T12:42:58Z</time>
      </trkpt>
      <trkpt lat="43.38745" lon="6.10768">
        <ele>283.60000610352</ele>
        <time>2015-06-17T12:43:00Z</time>
      </trkpt>
      <trkpt lat="43.38742" lon="6.10769">
        <ele>284</ele>
        <time>2015-06-17T12:43:01Z</time>
      </trkpt>
      <trkpt lat="43.3874" lon="6.10771">
        <ele>284</ele>
        <time>2015-06-17T12:43:02Z</time>
      </trkpt>
      <trkpt lat="43.38738" lon="6.10772">
        <ele>284.20001220703</ele>
        <time>2015-06-17T12:43:03Z</time>
      </trkpt>
      <trkpt lat="43.38737" lon="6.10773">
        <ele>284.39999389648</ele>
        <time>2015-06-17T12:43:04Z</time>
      </trkpt>
      <trkpt lat="43.38734" lon="6.10776">
        <ele>284.60000610352</ele>
        <time>2015-06-17T12:43:06Z</time>
      </trkpt>
      <trkpt lat="43.3873" lon="6.10782">
        <ele>284.39999389648</ele>
        <time>2015-06-17T12:43:08Z</time>
      </trkpt>
      <trkpt lat="43.38726" lon="6.1079">
        <ele>284.39999389648</ele>
        <time>2015-06-17T12:43:10Z</time>
      </trkpt>
      <trkpt lat="43.38725" lon="6.10793">
        <ele>284</ele>
        <time>2015-06-17T12:43:11Z</time>
      </trkpt>
      <trkpt lat="43.38723" lon="6.10797">
        <ele>284</ele>
        <time>2015-06-17T12:43:12Z</time>
      </trkpt>
      <trkpt lat="43.38718" lon="6.10801">
        <ele>284.20001220703</ele>
        <time>2015-06-17T12:43:14Z</time>
      </trkpt>
      <trkpt lat="43.38713" lon="6.10803">
        <ele>284.20001220703</ele>
        <time>2015-06-17T12:43:16Z</time>
      </trkpt>
      <trkpt lat="43.38709" lon="6.10806">
        <ele>284.39999389648</ele>
        <time>2015-06-17T12:43:18Z</time>
      </trkpt>
      <trkpt lat="43.38704" lon="6.10809">
        <ele>284.79998779297</ele>
        <time>2015-06-17T12:43:20Z</time>
      </trkpt>
      <trkpt lat="43.38701" lon="6.10812">
        <ele>284.79998779297</ele>
        <time>2015-06-17T12:43:22Z</time>
      </trkpt>
      <trkpt lat="43.38699" lon="6.10814">
        <ele>285</ele>
        <time>2015-06-17T12:43:23Z</time>
      </trkpt>
      <trkpt lat="43.38697" lon="6.10817">
        <ele>285.20001220703</ele>
        <time>2015-06-17T12:43:24Z</time>
      </trkpt>
      <trkpt lat="43.38694" lon="6.10823">
        <ele>285.39999389648</ele>
        <time>2015-06-17T12:43:26Z</time>
      </trkpt>
      <trkpt lat="43.38691" lon="6.10829">
        <ele>285.39999389648</ele>
        <time>2015-06-17T12:43:28Z</time>
      </trkpt>
      <trkpt lat="43.38689" lon="6.10833">
        <ele>285.39999389648</ele>
        <time>2015-06-17T12:43:29Z</time>
      </trkpt>
      <trkpt lat="43.38689" lon="6.10837">
        <ele>285.20001220703</ele>
        <time>2015-06-17T12:43:30Z</time>
      </trkpt>
      <trkpt lat="43.38686" lon="6.10847">
        <ele>285</ele>
        <time>2015-06-17T12:43:32Z</time>
      </trkpt>
      <trkpt lat="43.38684" lon="6.10858">
        <ele>285</ele>
        <time>2015-06-17T12:43:34Z</time>
      </trkpt>
      <trkpt lat="43.38684" lon="6.10863">
        <ele>285</ele>
        <time>2015-06-17T12:43:35Z</time>
      </trkpt>
      <trkpt lat="43.38683" lon="6.1087">
        <ele>285.20001220703</ele>
        <time>2015-06-17T12:43:36Z</time>
      </trkpt>
      <trkpt lat="43.38681" lon="6.10876">
        <ele>285.20001220703</ele>
        <time>2015-06-17T12:43:37Z</time>
      </trkpt>
      <trkpt lat="43.3868" lon="6.10881">
        <ele>285</ele>
        <time>2015-06-17T12:43:38Z</time>
      </trkpt>
      <trkpt lat="43.38676" lon="6.10892">
        <ele>285</ele>
        <time>2015-06-17T12:43:40Z</time>
      </trkpt>
      <trkpt lat="43.38673" lon="6.10902">
        <ele>284.39999389648</ele>
        <time>2015-06-17T12:43:42Z</time>
      </trkpt>
      <trkpt lat="43.38671" lon="6.10912">
        <ele>284.79998779297</ele>
        <time>2015-06-17T12:43:44Z</time>
      </trkpt>
      <trkpt lat="43.3867" lon="6.10917">
        <ele>284.79998779297</ele>
        <time>2015-06-17T12:43:45Z</time>
      </trkpt>
      <trkpt lat="43.38668" lon="6.10922">
        <ele>284.60000610352</ele>
        <time>2015-06-17T12:43:46Z</time>
      </trkpt>
      <trkpt lat="43.38666" lon="6.10932">
        <ele>284.39999389648</ele>
        <time>2015-06-17T12:43:48Z</time>
      </trkpt>
      <trkpt lat="43.38664" lon="6.10941">
        <ele>284.60000610352</ele>
        <time>2015-06-17T12:43:50Z</time>
      </trkpt>
      <trkpt lat="43.38662" lon="6.1095">
        <ele>285</ele>
        <time>2015-06-17T12:43:52Z</time>
      </trkpt>
      <trkpt lat="43.38661" lon="6.10959">
        <ele>284.79998779297</ele>
        <time>2015-06-17T12:43:54Z</time>
      </trkpt>
      <trkpt lat="43.3866" lon="6.10968">
        <ele>284.79998779297</ele>
        <time>2015-06-17T12:43:56Z</time>
      </trkpt>
      <trkpt lat="43.3866" lon="6.10978">
        <ele>284.79998779297</ele>
        <time>2015-06-17T12:43:58Z</time>
      </trkpt>
      <trkpt lat="43.38659" lon="6.10987">
        <ele>285.20001220703</ele>
        <time>2015-06-17T12:44:00Z</time>
      </trkpt>
      <trkpt lat="43.38658" lon="6.10995">
        <ele>285.20001220703</ele>
        <time>2015-06-17T12:44:02Z</time>
      </trkpt>
      <trkpt lat="43.38656" lon="6.11002">
        <ele>285.20001220703</ele>
        <time>2015-06-17T12:44:04Z</time>
      </trkpt>
      <trkpt lat="43.38654" lon="6.11004">
        <ele>285.79998779297</ele>
        <time>2015-06-17T12:44:05Z</time>
      </trkpt>
      <trkpt lat="43.38652" lon="6.11005">
        <ele>286</ele>
        <time>2015-06-17T12:44:06Z</time>
      </trkpt>
      <trkpt lat="43.3865" lon="6.11005">
        <ele>286.20001220703</ele>
        <time>2015-06-17T12:44:07Z</time>
      </trkpt>
      <trkpt lat="43.38649" lon="6.11004">
        <ele>286.20001220703</ele>
        <time>2015-06-17T12:44:08Z</time>
      </trkpt>
      <trkpt lat="43.38647" lon="6.11004">
        <ele>286.39999389648</ele>
        <time>2015-06-17T12:44:09Z</time>
      </trkpt>
      <trkpt lat="43.38646" lon="6.11004">
        <ele>286.60000610352</ele>
        <time>2015-06-17T12:44:10Z</time>
      </trkpt>
      <trkpt lat="43.38641" lon="6.11005">
        <ele>286.60000610352</ele>
        <time>2015-06-17T12:44:12Z</time>
      </trkpt>
      <trkpt lat="43.38638" lon="6.11008">
        <ele>287.39999389648</ele>
        <time>2015-06-17T12:44:14Z</time>
      </trkpt>
      <trkpt lat="43.38637" lon="6.11009">
        <ele>287.60000610352</ele>
        <time>2015-06-17T12:44:15Z</time>
      </trkpt>
      <trkpt lat="43.38636" lon="6.11009">
        <ele>287.60000610352</ele>
        <time>2015-06-17T12:44:16Z</time>
      </trkpt>
      <trkpt lat="43.38633" lon="6.11009">
        <ele>287.60000610352</ele>
        <time>2015-06-17T12:44:18Z</time>
      </trkpt>
      <trkpt lat="43.38631" lon="6.11008">
        <ele>288</ele>
        <time>2015-06-17T12:44:19Z</time>
      </trkpt>
      <trkpt lat="43.3863" lon="6.11006">
        <ele>288.20001220703</ele>
        <time>2015-06-17T12:44:20Z</time>
      </trkpt>
      <trkpt lat="43.38628" lon="6.11003">
        <ele>288.39999389648</ele>
        <time>2015-06-17T12:44:22Z</time>
      </trkpt>
      <trkpt lat="43.38626" lon="6.11002">
        <ele>288.60000610352</ele>
        <time>2015-06-17T12:44:23Z</time>
      </trkpt>
      <trkpt lat="43.38625" lon="6.11">
        <ele>288.60000610352</ele>
        <time>2015-06-17T12:44:24Z</time>
      </trkpt>
      <trkpt lat="43.38623" lon="6.10999">
        <ele>288.60000610352</ele>
        <time>2015-06-17T12:44:25Z</time>
      </trkpt>
      <trkpt lat="43.38622" lon="6.10997">
        <ele>288.60000610352</ele>
        <time>2015-06-17T12:44:26Z</time>
      </trkpt>
      <trkpt lat="43.38617" lon="6.10995">
        <ele>288.60000610352</ele>
        <time>2015-06-17T12:44:28Z</time>
      </trkpt>
      <trkpt lat="43.38612" lon="6.10992">
        <ele>288.60000610352</ele>
        <time>2015-06-17T12:44:30Z</time>
      </trkpt>
      <trkpt lat="43.38607" lon="6.10989">
        <ele>288.60000610352</ele>
        <time>2015-06-17T12:44:32Z</time>
      </trkpt>
      <trkpt lat="43.386" lon="6.10989">
        <ele>288.20001220703</ele>
        <time>2015-06-17T12:44:34Z</time>
      </trkpt>
      <trkpt lat="43.38596" lon="6.10989">
        <ele>287.60000610352</ele>
        <time>2015-06-17T12:44:35Z</time>
      </trkpt>
      <trkpt lat="43.38593" lon="6.1099">
        <ele>287.39999389648</ele>
        <time>2015-06-17T12:44:36Z</time>
      </trkpt>
      <trkpt lat="43.38583" lon="6.1099">
        <ele>287.39999389648</ele>
        <time>2015-06-17T12:44:38Z</time>
      </trkpt>
      <trkpt lat="43.38573" lon="6.10991">
        <ele>286.79998779297</ele>
        <time>2015-06-17T12:44:40Z</time>
      </trkpt>
      <trkpt lat="43.38568" lon="6.10991">
        <ele>286.20001220703</ele>
        <time>2015-06-17T12:44:41Z</time>
      </trkpt>
      <trkpt lat="43.38562" lon="6.1099">
        <ele>285.79998779297</ele>
        <time>2015-06-17T12:44:42Z</time>
      </trkpt>
      <trkpt lat="43.38556" lon="6.10988">
        <ele>285.20001220703</ele>
        <time>2015-06-17T12:44:43Z</time>
      </trkpt>
      <trkpt lat="43.3855" lon="6.10986">
        <ele>284.79998779297</ele>
        <time>2015-06-17T12:44:44Z</time>
      </trkpt>
      <trkpt lat="43.38538" lon="6.10981">
        <ele>284.60000610352</ele>
        <time>2015-06-17T12:44:46Z</time>
      </trkpt>
      <trkpt lat="43.38525" lon="6.10976">
        <ele>284.20001220703</ele>
        <time>2015-06-17T12:44:48Z</time>
      </trkpt>
      <trkpt lat="43.38517" lon="6.10974">
        <ele>283.60000610352</ele>
        <time>2015-06-17T12:44:49Z</time>
      </trkpt>
      <trkpt lat="43.3851" lon="6.10972">
        <ele>283</ele>
        <time>2015-06-17T12:44:50Z</time>
      </trkpt>
      <trkpt lat="43.38503" lon="6.1097">
        <ele>282</ele>
        <time>2015-06-17T12:44:51Z</time>
      </trkpt>
      <trkpt lat="43.38496" lon="6.10967">
        <ele>281.20001220703</ele>
        <time>2015-06-17T12:44:52Z</time>
      </trkpt>
      <trkpt lat="43.3849" lon="6.10966">
        <ele>280.60000610352</ele>
        <time>2015-06-17T12:44:53Z</time>
      </trkpt>
      <trkpt lat="43.38485" lon="6.10964">
        <ele>280</ele>
        <time>2015-06-17T12:44:54Z</time>
      </trkpt>
      <trkpt lat="43.38477" lon="6.10963">
        <ele>279.60000610352</ele>
        <time>2015-06-17T12:44:56Z</time>
      </trkpt>
      <trkpt lat="43.38476" lon="6.10963">
        <ele>279.60000610352</ele>
        <time>2015-06-17T12:44:57Z</time>
      </trkpt>
      <trkpt lat="43.38475" lon="6.10962">
        <ele>279.39999389648</ele>
        <time>2015-06-17T12:44:58Z</time>
      </trkpt>
      <trkpt lat="43.38471" lon="6.1096">
        <ele>279.20001220703</ele>
        <time>2015-06-17T12:45:00Z</time>
      </trkpt>
      <trkpt lat="43.38465" lon="6.10959">
        <ele>278.79998779297</ele>
        <time>2015-06-17T12:45:02Z</time>
      </trkpt>
      <trkpt lat="43.38458" lon="6.1096">
        <ele>278.60000610352</ele>
        <time>2015-06-17T12:45:04Z</time>
      </trkpt>
      <trkpt lat="43.38451" lon="6.10959">
        <ele>278.39999389648</ele>
        <time>2015-06-17T12:45:06Z</time>
      </trkpt>
      <trkpt lat="43.38442" lon="6.10958">
        <ele>278</ele>
        <time>2015-06-17T12:45:08Z</time>
      </trkpt>
      <trkpt lat="43.38432" lon="6.10956">
        <ele>278.20001220703</ele>
        <time>2015-06-17T12:45:10Z</time>
      </trkpt>
      <trkpt lat="43.38422" lon="6.10953">
        <ele>278.39999389648</ele>
        <time>2015-06-17T12:45:12Z</time>
      </trkpt>
      <trkpt lat="43.38417" lon="6.10952">
        <ele>278.20001220703</ele>
        <time>2015-06-17T12:45:13Z</time>
      </trkpt>
      <trkpt lat="43.38412" lon="6.1095">
        <ele>278</ele>
        <time>2015-06-17T12:45:14Z</time>
      </trkpt>
      <trkpt lat="43.38401" lon="6.10948">
        <ele>277.20001220703</ele>
        <time>2015-06-17T12:45:16Z</time>
      </trkpt>
      <trkpt lat="43.38389" lon="6.10946">
        <ele>276.79998779297</ele>
        <time>2015-06-17T12:45:18Z</time>
      </trkpt>
      <trkpt lat="43.38378" lon="6.10943">
        <ele>276.60000610352</ele>
        <time>2015-06-17T12:45:20Z</time>
      </trkpt>
      <trkpt lat="43.38367" lon="6.1094">
        <ele>276.79998779297</ele>
        <time>2015-06-17T12:45:22Z</time>
      </trkpt>
      <trkpt lat="43.38356" lon="6.10937">
        <ele>276.39999389648</ele>
        <time>2015-06-17T12:45:24Z</time>
      </trkpt>
      <trkpt lat="43.3835" lon="6.10936">
        <ele>276</ele>
        <time>2015-06-17T12:45:25Z</time>
      </trkpt>
      <trkpt lat="43.38345" lon="6.10935">
        <ele>276</ele>
        <time>2015-06-17T12:45:26Z</time>
      </trkpt>
      <trkpt lat="43.38334" lon="6.10932">
        <ele>276</ele>
        <time>2015-06-17T12:45:28Z</time>
      </trkpt>
      <trkpt lat="43.38322" lon="6.10929">
        <ele>275.60000610352</ele>
        <time>2015-06-17T12:45:30Z</time>
      </trkpt>
      <trkpt lat="43.38311" lon="6.10924">
        <ele>275.60000610352</ele>
        <time>2015-06-17T12:45:32Z</time>
      </trkpt>
      <trkpt lat="43.383" lon="6.1092">
        <ele>275.79998779297</ele>
        <time>2015-06-17T12:45:34Z</time>
      </trkpt>
      <trkpt lat="43.38294" lon="6.10918">
        <ele>275.60000610352</ele>
        <time>2015-06-17T12:45:35Z</time>
      </trkpt>
      <trkpt lat="43.38289" lon="6.10916">
        <ele>275.39999389648</ele>
        <time>2015-06-17T12:45:36Z</time>
      </trkpt>
      <trkpt lat="43.38277" lon="6.10912">
        <ele>275.39999389648</ele>
        <time>2015-06-17T12:45:38Z</time>
      </trkpt>
      <trkpt lat="43.38267" lon="6.10909">
        <ele>275.20001220703</ele>
        <time>2015-06-17T12:45:40Z</time>
      </trkpt>
      <trkpt lat="43.38256" lon="6.10906">
        <ele>275.39999389648</ele>
        <time>2015-06-17T12:45:42Z</time>
      </trkpt>
      <trkpt lat="43.38245" lon="6.10902">
        <ele>275.60000610352</ele>
        <time>2015-06-17T12:45:44Z</time>
      </trkpt>
      <trkpt lat="43.38235" lon="6.10899">
        <ele>275.20001220703</ele>
        <time>2015-06-17T12:45:46Z</time>
      </trkpt>
      <trkpt lat="43.38225" lon="6.10897">
        <ele>275.60000610352</ele>
        <time>2015-06-17T12:45:48Z</time>
      </trkpt>
      <trkpt lat="43.38216" lon="6.10894">
        <ele>275.39999389648</ele>
        <time>2015-06-17T12:45:50Z</time>
      </trkpt>
      <trkpt lat="43.38207" lon="6.10892">
        <ele>275.60000610352</ele>
        <time>2015-06-17T12:45:52Z</time>
      </trkpt>
      <trkpt lat="43.382" lon="6.1089">
        <ele>275.79998779297</ele>
        <time>2015-06-17T12:45:54Z</time>
      </trkpt>
      <trkpt lat="43.38197" lon="6.10891">
        <ele>276</ele>
        <time>2015-06-17T12:45:55Z</time>
      </trkpt>
      <trkpt lat="43.38195" lon="6.10894">
        <ele>276.20001220703</ele>
        <time>2015-06-17T12:45:56Z</time>
      </trkpt>
      <trkpt lat="43.38194" lon="6.10902">
        <ele>276.39999389648</ele>
        <time>2015-06-17T12:45:58Z</time>
      </trkpt>
      <trkpt lat="43.38192" lon="6.10911">
        <ele>276.60000610352</ele>
        <time>2015-06-17T12:46:00Z</time>
      </trkpt>
      <trkpt lat="43.38189" lon="6.10919">
        <ele>277</ele>
        <time>2015-06-17T12:46:02Z</time>
      </trkpt>
      <trkpt lat="43.38187" lon="6.10928">
        <ele>277</ele>
        <time>2015-06-17T12:46:04Z</time>
      </trkpt>
      <trkpt lat="43.38187" lon="6.10933">
        <ele>277</ele>
        <time>2015-06-17T12:46:05Z</time>
      </trkpt>
      <trkpt lat="43.38186" lon="6.10938">
        <ele>277.20001220703</ele>
        <time>2015-06-17T12:46:06Z</time>
      </trkpt>
      <trkpt lat="43.38184" lon="6.10947">
        <ele>277.39999389648</ele>
        <time>2015-06-17T12:46:08Z</time>
      </trkpt>
      <trkpt lat="43.38182" lon="6.10956">
        <ele>277.79998779297</ele>
        <time>2015-06-17T12:46:10Z</time>
      </trkpt>
      <trkpt lat="43.38181" lon="6.10965">
        <ele>278</ele>
        <time>2015-06-17T12:46:12Z</time>
      </trkpt>
      <trkpt lat="43.3818" lon="6.1097">
        <ele>278</ele>
        <time>2015-06-17T12:46:13Z</time>
      </trkpt>
      <trkpt lat="43.38179" lon="6.10975">
        <ele>278.20001220703</ele>
        <time>2015-06-17T12:46:14Z</time>
      </trkpt>
      <trkpt lat="43.38178" lon="6.10979">
        <ele>278.20001220703</ele>
        <time>2015-06-17T12:46:15Z</time>
      </trkpt>
      <trkpt lat="43.38177" lon="6.10983">
        <ele>278.39999389648</ele>
        <time>2015-06-17T12:46:16Z</time>
      </trkpt>
      <trkpt lat="43.38176" lon="6.1099">
        <ele>278.60000610352</ele>
        <time>2015-06-17T12:46:18Z</time>
      </trkpt>
      <trkpt lat="43.38174" lon="6.10997">
        <ele>278.79998779297</ele>
        <time>2015-06-17T12:46:20Z</time>
      </trkpt>
      <trkpt lat="43.38174" lon="6.10999">
        <ele>278.79998779297</ele>
        <time>2015-06-17T12:46:21Z</time>
      </trkpt>
      <trkpt lat="43.38174" lon="6.11003">
        <ele>279</ele>
        <time>2015-06-17T12:46:22Z</time>
      </trkpt>
      <trkpt lat="43.38173" lon="6.11009">
        <ele>279</ele>
        <time>2015-06-17T12:46:24Z</time>
      </trkpt>
      <trkpt lat="43.38171" lon="6.11015">
        <ele>279.20001220703</ele>
        <time>2015-06-17T12:46:26Z</time>
      </trkpt>
      <trkpt lat="43.3817" lon="6.11021">
        <ele>279.60000610352</ele>
        <time>2015-06-17T12:46:28Z</time>
      </trkpt>
      <trkpt lat="43.3817" lon="6.11024">
        <ele>279.60000610352</ele>
        <time>2015-06-17T12:46:29Z</time>
      </trkpt>
      <trkpt lat="43.38169" lon="6.11028">
        <ele>279.79998779297</ele>
        <time>2015-06-17T12:46:30Z</time>
      </trkpt>
      <trkpt lat="43.38168" lon="6.11035">
        <ele>279.79998779297</ele>
        <time>2015-06-17T12:46:32Z</time>
      </trkpt>
      <trkpt lat="43.38167" lon="6.11042">
        <ele>280</ele>
        <time>2015-06-17T12:46:34Z</time>
      </trkpt>
      <trkpt lat="43.38166" lon="6.11049">
        <ele>280</ele>
        <time>2015-06-17T12:46:36Z</time>
      </trkpt>
      <trkpt lat="43.38165" lon="6.11052">
        <ele>280</ele>
        <time>2015-06-17T12:46:37Z</time>
      </trkpt>
      <trkpt lat="43.38164" lon="6.11056">
        <ele>280</ele>
        <time>2015-06-17T12:46:38Z</time>
      </trkpt>
      <trkpt lat="43.38162" lon="6.11063">
        <ele>280.39999389648</ele>
        <time>2015-06-17T12:46:40Z</time>
      </trkpt>
      <trkpt lat="43.3816" lon="6.1107">
        <ele>280.60000610352</ele>
        <time>2015-06-17T12:46:42Z</time>
      </trkpt>
      <trkpt lat="43.38158" lon="6.11077">
        <ele>280.60000610352</ele>
        <time>2015-06-17T12:46:44Z</time>
      </trkpt>
      <trkpt lat="43.38156" lon="6.11084">
        <ele>280.79998779297</ele>
        <time>2015-06-17T12:46:46Z</time>
      </trkpt>
      <trkpt lat="43.38153" lon="6.11091">
        <ele>281</ele>
        <time>2015-06-17T12:46:48Z</time>
      </trkpt>
      <trkpt lat="43.3815" lon="6.11098">
        <ele>281</ele>
        <time>2015-06-17T12:46:50Z</time>
      </trkpt>
      <trkpt lat="43.38149" lon="6.11102">
        <ele>281</ele>
        <time>2015-06-17T12:46:51Z</time>
      </trkpt>
      <trkpt lat="43.38147" lon="6.11105">
        <ele>281</ele>
        <time>2015-06-17T12:46:52Z</time>
      </trkpt>
      <trkpt lat="43.38145" lon="6.11109">
        <ele>281</ele>
        <time>2015-06-17T12:46:53Z</time>
      </trkpt>
      <trkpt lat="43.38143" lon="6.11112">
        <ele>281.20001220703</ele>
        <time>2015-06-17T12:46:54Z</time>
      </trkpt>
      <trkpt lat="43.38139" lon="6.11119">
        <ele>281.60000610352</ele>
        <time>2015-06-17T12:46:56Z</time>
      </trkpt>
      <trkpt lat="43.38133" lon="6.11125">
        <ele>281.79998779297</ele>
        <time>2015-06-17T12:46:58Z</time>
      </trkpt>
      <trkpt lat="43.38128" lon="6.1113">
        <ele>282</ele>
        <time>2015-06-17T12:47:00Z</time>
      </trkpt>
      <trkpt lat="43.38123" lon="6.11136">
        <ele>282.60000610352</ele>
        <time>2015-06-17T12:47:02Z</time>
      </trkpt>
      <trkpt lat="43.38118" lon="6.11142">
        <ele>282.60000610352</ele>
        <time>2015-06-17T12:47:04Z</time>
      </trkpt>
      <trkpt lat="43.38115" lon="6.11149">
        <ele>282.60000610352</ele>
        <time>2015-06-17T12:47:06Z</time>
      </trkpt>
      <trkpt lat="43.38115" lon="6.11157">
        <ele>283</ele>
        <time>2015-06-17T12:47:08Z</time>
      </trkpt>
      <trkpt lat="43.38115" lon="6.11162">
        <ele>283.39999389648</ele>
        <time>2015-06-17T12:47:09Z</time>
      </trkpt>
      <trkpt lat="43.38115" lon="6.11166">
        <ele>283.60000610352</ele>
        <time>2015-06-17T12:47:10Z</time>
      </trkpt>
      <trkpt lat="43.38115" lon="6.11175">
        <ele>283.60000610352</ele>
        <time>2015-06-17T12:47:12Z</time>
      </trkpt>
      <trkpt lat="43.38115" lon="6.11184">
        <ele>284</ele>
        <time>2015-06-17T12:47:14Z</time>
      </trkpt>
      <trkpt lat="43.38115" lon="6.11193">
        <ele>284.20001220703</ele>
        <time>2015-06-17T12:47:16Z</time>
      </trkpt>
      <trkpt lat="43.38115" lon="6.11201">
        <ele>284.20001220703</ele>
        <time>2015-06-17T12:47:18Z</time>
      </trkpt>
      <trkpt lat="43.38115" lon="6.11209">
        <ele>284.79998779297</ele>
        <time>2015-06-17T12:47:20Z</time>
      </trkpt>
      <trkpt lat="43.38114" lon="6.11216">
        <ele>285</ele>
        <time>2015-06-17T12:47:22Z</time>
      </trkpt>
      <trkpt lat="43.38113" lon="6.11224">
        <ele>285.20001220703</ele>
        <time>2015-06-17T12:47:24Z</time>
      </trkpt>
      <trkpt lat="43.38112" lon="6.11231">
        <ele>285.39999389648</ele>
        <time>2015-06-17T12:47:26Z</time>
      </trkpt>
      <trkpt lat="43.38112" lon="6.11239">
        <ele>285.60000610352</ele>
        <time>2015-06-17T12:47:28Z</time>
      </trkpt>
      <trkpt lat="43.38111" lon="6.11243">
        <ele>285.79998779297</ele>
        <time>2015-06-17T12:47:29Z</time>
      </trkpt>
      <trkpt lat="43.38111" lon="6.11247">
        <ele>286.20001220703</ele>
        <time>2015-06-17T12:47:30Z</time>
      </trkpt>
      <trkpt lat="43.3811" lon="6.11254">
        <ele>286.39999389648</ele>
        <time>2015-06-17T12:47:32Z</time>
      </trkpt>
      <trkpt lat="43.3811" lon="6.11263">
        <ele>286.60000610352</ele>
        <time>2015-06-17T12:47:34Z</time>
      </trkpt>
      <trkpt lat="43.3811" lon="6.11268">
        <ele>286.60000610352</ele>
        <time>2015-06-17T12:47:35Z</time>
      </trkpt>
      <trkpt lat="43.38109" lon="6.11272">
        <ele>286.79998779297</ele>
        <time>2015-06-17T12:47:36Z</time>
      </trkpt>
      <trkpt lat="43.38108" lon="6.11281">
        <ele>287</ele>
        <time>2015-06-17T12:47:38Z</time>
      </trkpt>
      <trkpt lat="43.38108" lon="6.11289">
        <ele>287.60000610352</ele>
        <time>2015-06-17T12:47:40Z</time>
      </trkpt>
      <trkpt lat="43.38108" lon="6.11297">
        <ele>287.60000610352</ele>
        <time>2015-06-17T12:47:42Z</time>
      </trkpt>
      <trkpt lat="43.38108" lon="6.11305">
        <ele>287.79998779297</ele>
        <time>2015-06-17T12:47:44Z</time>
      </trkpt>
      <trkpt lat="43.38108" lon="6.11313">
        <ele>287.79998779297</ele>
        <time>2015-06-17T12:47:46Z</time>
      </trkpt>
      <trkpt lat="43.38107" lon="6.1132">
        <ele>288</ele>
        <time>2015-06-17T12:47:48Z</time>
      </trkpt>
      <trkpt lat="43.38106" lon="6.11328">
        <ele>288.39999389648</ele>
        <time>2015-06-17T12:47:50Z</time>
      </trkpt>
      <trkpt lat="43.38106" lon="6.11332">
        <ele>288.39999389648</ele>
        <time>2015-06-17T12:47:51Z</time>
      </trkpt>
      <trkpt lat="43.38105" lon="6.11337">
        <ele>288.20001220703</ele>
        <time>2015-06-17T12:47:52Z</time>
      </trkpt>
      <trkpt lat="43.38104" lon="6.11346">
        <ele>288.60000610352</ele>
        <time>2015-06-17T12:47:54Z</time>
      </trkpt>
      <trkpt lat="43.38103" lon="6.11355">
        <ele>288.79998779297</ele>
        <time>2015-06-17T12:47:56Z</time>
      </trkpt>
      <trkpt lat="43.38102" lon="6.11359">
        <ele>289</ele>
        <time>2015-06-17T12:47:57Z</time>
      </trkpt>
      <trkpt lat="43.38102" lon="6.11364">
        <ele>289.20001220703</ele>
        <time>2015-06-17T12:47:58Z</time>
      </trkpt>
      <trkpt lat="43.381" lon="6.11372">
        <ele>289</ele>
        <time>2015-06-17T12:48:00Z</time>
      </trkpt>
      <trkpt lat="43.381" lon="6.11381">
        <ele>289.60000610352</ele>
        <time>2015-06-17T12:48:02Z</time>
      </trkpt>
      <trkpt lat="43.38099" lon="6.11389">
        <ele>289.79998779297</ele>
        <time>2015-06-17T12:48:04Z</time>
      </trkpt>
      <trkpt lat="43.38098" lon="6.11393">
        <ele>290</ele>
        <time>2015-06-17T12:48:05Z</time>
      </trkpt>
      <trkpt lat="43.38098" lon="6.11398">
        <ele>290</ele>
        <time>2015-06-17T12:48:06Z</time>
      </trkpt>
      <trkpt lat="43.38096" lon="6.11406">
        <ele>290.60000610352</ele>
        <time>2015-06-17T12:48:08Z</time>
      </trkpt>
      <trkpt lat="43.38095" lon="6.11415">
        <ele>290.79998779297</ele>
        <time>2015-06-17T12:48:10Z</time>
      </trkpt>
      <trkpt lat="43.38094" lon="6.11423">
        <ele>291.20001220703</ele>
        <time>2015-06-17T12:48:12Z</time>
      </trkpt>
      <trkpt lat="43.38092" lon="6.11431">
        <ele>291.20001220703</ele>
        <time>2015-06-17T12:48:14Z</time>
      </trkpt>
      <trkpt lat="43.3809" lon="6.1144">
        <ele>291.60000610352</ele>
        <time>2015-06-17T12:48:16Z</time>
      </trkpt>
      <trkpt lat="43.38089" lon="6.11444">
        <ele>291.79998779297</ele>
        <time>2015-06-17T12:48:17Z</time>
      </trkpt>
      <trkpt lat="43.38089" lon="6.11449">
        <ele>292</ele>
        <time>2015-06-17T12:48:18Z</time>
      </trkpt>
      <trkpt lat="43.38087" lon="6.11457">
        <ele>292.20001220703</ele>
        <time>2015-06-17T12:48:20Z</time>
      </trkpt>
      <trkpt lat="43.38085" lon="6.11466">
        <ele>292.60000610352</ele>
        <time>2015-06-17T12:48:22Z</time>
      </trkpt>
      <trkpt lat="43.38085" lon="6.1147">
        <ele>292.60000610352</ele>
        <time>2015-06-17T12:48:23Z</time>
      </trkpt>
      <trkpt lat="43.38084" lon="6.11474">
        <ele>292.60000610352</ele>
        <time>2015-06-17T12:48:24Z</time>
      </trkpt>
      <trkpt lat="43.38083" lon="6.11483">
        <ele>293</ele>
        <time>2015-06-17T12:48:26Z</time>
      </trkpt>
      <trkpt lat="43.38083" lon="6.11491">
        <ele>293.20001220703</ele>
        <time>2015-06-17T12:48:28Z</time>
      </trkpt>
      <trkpt lat="43.38083" lon="6.115">
        <ele>293.20001220703</ele>
        <time>2015-06-17T12:48:30Z</time>
      </trkpt>
      <trkpt lat="43.38083" lon="6.11508">
        <ele>293.39999389648</ele>
        <time>2015-06-17T12:48:32Z</time>
      </trkpt>
      <trkpt lat="43.38082" lon="6.11516">
        <ele>293.60000610352</ele>
        <time>2015-06-17T12:48:34Z</time>
      </trkpt>
      <trkpt lat="43.38081" lon="6.11523">
        <ele>293.79998779297</ele>
        <time>2015-06-17T12:48:36Z</time>
      </trkpt>
      <trkpt lat="43.38081" lon="6.11528">
        <ele>294</ele>
        <time>2015-06-17T12:48:37Z</time>
      </trkpt>
      <trkpt lat="43.38081" lon="6.11532">
        <ele>294.39999389648</ele>
        <time>2015-06-17T12:48:38Z</time>
      </trkpt>
      <trkpt lat="43.3808" lon="6.1154">
        <ele>294.39999389648</ele>
        <time>2015-06-17T12:48:40Z</time>
      </trkpt>
      <trkpt lat="43.3808" lon="6.11548">
        <ele>294.39999389648</ele>
        <time>2015-06-17T12:48:42Z</time>
      </trkpt>
      <trkpt lat="43.38079" lon="6.11555">
        <ele>294.79998779297</ele>
        <time>2015-06-17T12:48:44Z</time>
      </trkpt>
      <trkpt lat="43.38078" lon="6.11562">
        <ele>295</ele>
        <time>2015-06-17T12:48:46Z</time>
      </trkpt>
      <trkpt lat="43.38078" lon="6.1157">
        <ele>295.60000610352</ele>
        <time>2015-06-17T12:48:48Z</time>
      </trkpt>
      <trkpt lat="43.38077" lon="6.11577">
        <ele>295.60000610352</ele>
        <time>2015-06-17T12:48:50Z</time>
      </trkpt>
      <trkpt lat="43.38076" lon="6.11583">
        <ele>295.60000610352</ele>
        <time>2015-06-17T12:48:52Z</time>
      </trkpt>
      <trkpt lat="43.38076" lon="6.1159">
        <ele>295.79998779297</ele>
        <time>2015-06-17T12:48:54Z</time>
      </trkpt>
      <trkpt lat="43.38076" lon="6.11598">
        <ele>296</ele>
        <time>2015-06-17T12:48:56Z</time>
      </trkpt>
      <trkpt lat="43.38075" lon="6.11606">
        <ele>296</ele>
        <time>2015-06-17T12:48:58Z</time>
      </trkpt>
      <trkpt lat="43.38076" lon="6.1161">
        <ele>296.20001220703</ele>
        <time>2015-06-17T12:48:59Z</time>
      </trkpt>
      <trkpt lat="43.38076" lon="6.11613">
        <ele>296.39999389648</ele>
        <time>2015-06-17T12:49:00Z</time>
      </trkpt>
      <trkpt lat="43.38076" lon="6.1162">
        <ele>296.39999389648</ele>
        <time>2015-06-17T12:49:02Z</time>
      </trkpt>
      <trkpt lat="43.38076" lon="6.11628">
        <ele>296.79998779297</ele>
        <time>2015-06-17T12:49:04Z</time>
      </trkpt>
      <trkpt lat="43.38076" lon="6.11631">
        <ele>297</ele>
        <time>2015-06-17T12:49:05Z</time>
      </trkpt>
      <trkpt lat="43.38076" lon="6.11635">
        <ele>297</ele>
        <time>2015-06-17T12:49:06Z</time>
      </trkpt>
      <trkpt lat="43.38075" lon="6.11639">
        <ele>297.39999389648</ele>
        <time>2015-06-17T12:49:07Z</time>
      </trkpt>
      <trkpt lat="43.38075" lon="6.11642">
        <ele>297.60000610352</ele>
        <time>2015-06-17T12:49:08Z</time>
      </trkpt>
      <trkpt lat="43.38074" lon="6.11648">
        <ele>297.60000610352</ele>
        <time>2015-06-17T12:49:10Z</time>
      </trkpt>
      <trkpt lat="43.38073" lon="6.11655">
        <ele>298</ele>
        <time>2015-06-17T12:49:12Z</time>
      </trkpt>
      <trkpt lat="43.38072" lon="6.11662">
        <ele>298.20001220703</ele>
        <time>2015-06-17T12:49:14Z</time>
      </trkpt>
      <trkpt lat="43.38071" lon="6.11666">
        <ele>298.20001220703</ele>
        <time>2015-06-17T12:49:15Z</time>
      </trkpt>
      <trkpt lat="43.38071" lon="6.11669">
        <ele>298.39999389648</ele>
        <time>2015-06-17T12:49:16Z</time>
      </trkpt>
      <trkpt lat="43.38071" lon="6.11673">
        <ele>298.79998779297</ele>
        <time>2015-06-17T12:49:17Z</time>
      </trkpt>
      <trkpt lat="43.38071" lon="6.11677">
        <ele>298.79998779297</ele>
        <time>2015-06-17T12:49:18Z</time>
      </trkpt>
      <trkpt lat="43.3807" lon="6.11684">
        <ele>299</ele>
        <time>2015-06-17T12:49:20Z</time>
      </trkpt>
      <trkpt lat="43.3807" lon="6.11691">
        <ele>298.79998779297</ele>
        <time>2015-06-17T12:49:22Z</time>
      </trkpt>
      <trkpt lat="43.38069" lon="6.11699">
        <ele>299.20001220703</ele>
        <time>2015-06-17T12:49:24Z</time>
      </trkpt>
      <trkpt lat="43.38068" lon="6.11706">
        <ele>299.39999389648</ele>
        <time>2015-06-17T12:49:26Z</time>
      </trkpt>
      <trkpt lat="43.38068" lon="6.11713">
        <ele>299.60000610352</ele>
        <time>2015-06-17T12:49:28Z</time>
      </trkpt>
      <trkpt lat="43.38068" lon="6.11716">
        <ele>299.79998779297</ele>
        <time>2015-06-17T12:49:29Z</time>
      </trkpt>
      <trkpt lat="43.38068" lon="6.11719">
        <ele>299.60000610352</ele>
        <time>2015-06-17T12:49:30Z</time>
      </trkpt>
      <trkpt lat="43.38067" lon="6.11726">
        <ele>299.79998779297</ele>
        <time>2015-06-17T12:49:32Z</time>
      </trkpt>
      <trkpt lat="43.38067" lon="6.11729">
        <ele>299.60000610352</ele>
        <time>2015-06-17T12:49:33Z</time>
      </trkpt>
      <trkpt lat="43.38066" lon="6.11733">
        <ele>300</ele>
        <time>2015-06-17T12:49:34Z</time>
      </trkpt>
      <trkpt lat="43.38066" lon="6.1174">
        <ele>300.39999389648</ele>
        <time>2015-06-17T12:49:36Z</time>
      </trkpt>
      <trkpt lat="43.38066" lon="6.11747">
        <ele>300.79998779297</ele>
        <time>2015-06-17T12:49:38Z</time>
      </trkpt>
      <trkpt lat="43.38065" lon="6.11753">
        <ele>301</ele>
        <time>2015-06-17T12:49:40Z</time>
      </trkpt>
      <trkpt lat="43.38065" lon="6.11758">
        <ele>300.79998779297</ele>
        <time>2015-06-17T12:49:42Z</time>
      </trkpt>
      <trkpt lat="43.38066" lon="6.11764">
        <ele>301.20001220703</ele>
        <time>2015-06-17T12:49:44Z</time>
      </trkpt>
      <trkpt lat="43.38067" lon="6.1177">
        <ele>301.60000610352</ele>
        <time>2015-06-17T12:49:46Z</time>
      </trkpt>
      <trkpt lat="43.38067" lon="6.11772">
        <ele>301.79998779297</ele>
        <time>2015-06-17T12:49:47Z</time>
      </trkpt>
      <trkpt lat="43.38068" lon="6.11775">
        <ele>301.79998779297</ele>
        <time>2015-06-17T12:49:48Z</time>
      </trkpt>
      <trkpt lat="43.3807" lon="6.1178">
        <ele>302</ele>
        <time>2015-06-17T12:49:50Z</time>
      </trkpt>
      <trkpt lat="43.38072" lon="6.11785">
        <ele>302</ele>
        <time>2015-06-17T12:49:52Z</time>
      </trkpt>
      <trkpt lat="43.38074" lon="6.1179">
        <ele>302.20001220703</ele>
        <time>2015-06-17T12:49:54Z</time>
      </trkpt>
      <trkpt lat="43.38075" lon="6.11796">
        <ele>302.60000610352</ele>
        <time>2015-06-17T12:49:56Z</time>
      </trkpt>
      <trkpt lat="43.38076" lon="6.11801">
        <ele>302.60000610352</ele>
        <time>2015-06-17T12:49:58Z</time>
      </trkpt>
      <trkpt lat="43.38076" lon="6.11804">
        <ele>303</ele>
        <time>2015-06-17T12:49:59Z</time>
      </trkpt>
      <trkpt lat="43.38076" lon="6.11807">
        <ele>303.20001220703</ele>
        <time>2015-06-17T12:50:00Z</time>
      </trkpt>
      <trkpt lat="43.38076" lon="6.11813">
        <ele>303.39999389648</ele>
        <time>2015-06-17T12:50:02Z</time>
      </trkpt>
      <trkpt lat="43.38076" lon="6.11818">
        <ele>303.79998779297</ele>
        <time>2015-06-17T12:50:04Z</time>
      </trkpt>
      <trkpt lat="43.38076" lon="6.11821">
        <ele>304</ele>
        <time>2015-06-17T12:50:05Z</time>
      </trkpt>
      <trkpt lat="43.38076" lon="6.11824">
        <ele>304</ele>
        <time>2015-06-17T12:50:06Z</time>
      </trkpt>
      <trkpt lat="43.38076" lon="6.11831">
        <ele>304.20001220703</ele>
        <time>2015-06-17T12:50:08Z</time>
      </trkpt>
      <trkpt lat="43.38076" lon="6.11837">
        <ele>304.39999389648</ele>
        <time>2015-06-17T12:50:10Z</time>
      </trkpt>
      <trkpt lat="43.38076" lon="6.11842">
        <ele>304.39999389648</ele>
        <time>2015-06-17T12:50:12Z</time>
      </trkpt>
      <trkpt lat="43.38076" lon="6.11847">
        <ele>304.79998779297</ele>
        <time>2015-06-17T12:50:14Z</time>
      </trkpt>
      <trkpt lat="43.38076" lon="6.11853">
        <ele>305.20001220703</ele>
        <time>2015-06-17T12:50:16Z</time>
      </trkpt>
      <trkpt lat="43.38076" lon="6.11858">
        <ele>305.20001220703</ele>
        <time>2015-06-17T12:50:18Z</time>
      </trkpt>
      <trkpt lat="43.38075" lon="6.1186">
        <ele>305.20001220703</ele>
        <time>2015-06-17T12:50:19Z</time>
      </trkpt>
      <trkpt lat="43.38075" lon="6.11862">
        <ele>305.39999389648</ele>
        <time>2015-06-17T12:50:20Z</time>
      </trkpt>
      <trkpt lat="43.38076" lon="6.11867">
        <ele>305.39999389648</ele>
        <time>2015-06-17T12:50:22Z</time>
      </trkpt>
      <trkpt lat="43.38076" lon="6.11869">
        <ele>305.60000610352</ele>
        <time>2015-06-17T12:50:23Z</time>
      </trkpt>
      <trkpt lat="43.38076" lon="6.11872">
        <ele>305.79998779297</ele>
        <time>2015-06-17T12:50:24Z</time>
      </trkpt>
      <trkpt lat="43.38076" lon="6.11876">
        <ele>306.20001220703</ele>
        <time>2015-06-17T12:50:26Z</time>
      </trkpt>
      <trkpt lat="43.38076" lon="6.11881">
        <ele>306.39999389648</ele>
        <time>2015-06-17T12:50:28Z</time>
      </trkpt>
      <trkpt lat="43.38077" lon="6.11883">
        <ele>306.39999389648</ele>
        <time>2015-06-17T12:50:29Z</time>
      </trkpt>
      <trkpt lat="43.38077" lon="6.11886">
        <ele>306.39999389648</ele>
        <time>2015-06-17T12:50:30Z</time>
      </trkpt>
      <trkpt lat="43.38077" lon="6.11891">
        <ele>307</ele>
        <time>2015-06-17T12:50:32Z</time>
      </trkpt>
      <trkpt lat="43.38078" lon="6.11897">
        <ele>307.20001220703</ele>
        <time>2015-06-17T12:50:34Z</time>
      </trkpt>
      <trkpt lat="43.38077" lon="6.11903">
        <ele>307.20001220703</ele>
        <time>2015-06-17T12:50:36Z</time>
      </trkpt>
      <trkpt lat="43.38078" lon="6.11907">
        <ele>307.79998779297</ele>
        <time>2015-06-17T12:50:38Z</time>
      </trkpt>
      <trkpt lat="43.38077" lon="6.11909">
        <ele>308</ele>
        <time>2015-06-17T12:50:39Z</time>
      </trkpt>
      <trkpt lat="43.38077" lon="6.11912">
        <ele>308</ele>
        <time>2015-06-17T12:50:40Z</time>
      </trkpt>
      <trkpt lat="43.38076" lon="6.11916">
        <ele>308</ele>
        <time>2015-06-17T12:50:42Z</time>
      </trkpt>
      <trkpt lat="43.38076" lon="6.11919">
        <ele>308.39999389648</ele>
        <time>2015-06-17T12:50:43Z</time>
      </trkpt>
      <trkpt lat="43.38076" lon="6.11921">
        <ele>308.60000610352</ele>
        <time>2015-06-17T12:50:44Z</time>
      </trkpt>
      <trkpt lat="43.38076" lon="6.11926">
        <ele>309</ele>
        <time>2015-06-17T12:50:46Z</time>
      </trkpt>
      <trkpt lat="43.38076" lon="6.11933">
        <ele>309.39999389648</ele>
        <time>2015-06-17T12:50:48Z</time>
      </trkpt>
      <trkpt lat="43.38075" lon="6.11936">
        <ele>309.39999389648</ele>
        <time>2015-06-17T12:50:49Z</time>
      </trkpt>
      <trkpt lat="43.38075" lon="6.11939">
        <ele>309.79998779297</ele>
        <time>2015-06-17T12:50:50Z</time>
      </trkpt>
      <trkpt lat="43.38075" lon="6.11944">
        <ele>310</ele>
        <time>2015-06-17T12:50:52Z</time>
      </trkpt>
      <trkpt lat="43.38074" lon="6.1195">
        <ele>310.60000610352</ele>
        <time>2015-06-17T12:50:54Z</time>
      </trkpt>
      <trkpt lat="43.38074" lon="6.11953">
        <ele>310.60000610352</ele>
        <time>2015-06-17T12:50:55Z</time>
      </trkpt>
      <trkpt lat="43.38074" lon="6.11956">
        <ele>311</ele>
        <time>2015-06-17T12:50:56Z</time>
      </trkpt>
      <trkpt lat="43.38074" lon="6.11962">
        <ele>311.60000610352</ele>
        <time>2015-06-17T12:50:58Z</time>
      </trkpt>
      <trkpt lat="43.38074" lon="6.11967">
        <ele>311.79998779297</ele>
        <time>2015-06-17T12:51:00Z</time>
      </trkpt>
      <trkpt lat="43.38074" lon="6.1197">
        <ele>312</ele>
        <time>2015-06-17T12:51:01Z</time>
      </trkpt>
      <trkpt lat="43.38073" lon="6.11973">
        <ele>312.20001220703</ele>
        <time>2015-06-17T12:51:02Z</time>
      </trkpt>
      <trkpt lat="43.38071" lon="6.11978">
        <ele>312.60000610352</ele>
        <time>2015-06-17T12:51:04Z</time>
      </trkpt>
      <trkpt lat="43.38071" lon="6.1198">
        <ele>312.60000610352</ele>
        <time>2015-06-17T12:51:05Z</time>
      </trkpt>
      <trkpt lat="43.38071" lon="6.11981">
        <ele>313</ele>
        <time>2015-06-17T12:51:06Z</time>
      </trkpt>
      <trkpt lat="43.3807" lon="6.11983">
        <ele>313.20001220703</ele>
        <time>2015-06-17T12:51:07Z</time>
      </trkpt>
      <trkpt lat="43.3807" lon="6.11986">
        <ele>313.60000610352</ele>
        <time>2015-06-17T12:51:08Z</time>
      </trkpt>
      <trkpt lat="43.38069" lon="6.1199">
        <ele>314.20001220703</ele>
        <time>2015-06-17T12:51:10Z</time>
      </trkpt>
      <trkpt lat="43.38069" lon="6.11993">
        <ele>314.39999389648</ele>
        <time>2015-06-17T12:51:11Z</time>
      </trkpt>
      <trkpt lat="43.38068" lon="6.11996">
        <ele>314.60000610352</ele>
        <time>2015-06-17T12:51:12Z</time>
      </trkpt>
      <trkpt lat="43.38068" lon="6.12001">
        <ele>315</ele>
        <time>2015-06-17T12:51:14Z</time>
      </trkpt>
      <trkpt lat="43.38068" lon="6.12006">
        <ele>315</ele>
        <time>2015-06-17T12:51:16Z</time>
      </trkpt>
      <trkpt lat="43.38067" lon="6.12008">
        <ele>315.20001220703</ele>
        <time>2015-06-17T12:51:17Z</time>
      </trkpt>
      <trkpt lat="43.38067" lon="6.12009">
        <ele>315.20001220703</ele>
        <time>2015-06-17T12:51:18Z</time>
      </trkpt>
      <trkpt lat="43.38067" lon="6.12012">
        <ele>315.60000610352</ele>
        <time>2015-06-17T12:51:19Z</time>
      </trkpt>
      <trkpt lat="43.38067" lon="6.12013">
        <ele>316</ele>
        <time>2015-06-17T12:51:20Z</time>
      </trkpt>
      <trkpt lat="43.38067" lon="6.12016">
        <ele>316.20001220703</ele>
        <time>2015-06-17T12:51:21Z</time>
      </trkpt>
      <trkpt lat="43.38066" lon="6.12018">
        <ele>316.79998779297</ele>
        <time>2015-06-17T12:51:22Z</time>
      </trkpt>
      <trkpt lat="43.38067" lon="6.12023">
        <ele>317.39999389648</ele>
        <time>2015-06-17T12:51:24Z</time>
      </trkpt>
      <trkpt lat="43.38067" lon="6.12025">
        <ele>317.79998779297</ele>
        <time>2015-06-17T12:51:25Z</time>
      </trkpt>
      <trkpt lat="43.38067" lon="6.12028">
        <ele>317.79998779297</ele>
        <time>2015-06-17T12:51:26Z</time>
      </trkpt>
      <trkpt lat="43.38067" lon="6.12029">
        <ele>317.79998779297</ele>
        <time>2015-06-17T12:51:27Z</time>
      </trkpt>
      <trkpt lat="43.38066" lon="6.12031">
        <ele>317.79998779297</ele>
        <time>2015-06-17T12:51:28Z</time>
      </trkpt>
      <trkpt lat="43.38066" lon="6.12036">
        <ele>317.79998779297</ele>
        <time>2015-06-17T12:51:30Z</time>
      </trkpt>
      <trkpt lat="43.38066" lon="6.1204">
        <ele>318.39999389648</ele>
        <time>2015-06-17T12:51:32Z</time>
      </trkpt>
      <trkpt lat="43.38066" lon="6.12042">
        <ele>318.60000610352</ele>
        <time>2015-06-17T12:51:33Z</time>
      </trkpt>
      <trkpt lat="43.38066" lon="6.12045">
        <ele>318.60000610352</ele>
        <time>2015-06-17T12:51:34Z</time>
      </trkpt>
      <trkpt lat="43.38065" lon="6.1205">
        <ele>318.79998779297</ele>
        <time>2015-06-17T12:51:36Z</time>
      </trkpt>
      <trkpt lat="43.38065" lon="6.12053">
        <ele>319.20001220703</ele>
        <time>2015-06-17T12:51:38Z</time>
      </trkpt>
      <trkpt lat="43.38064" lon="6.12055">
        <ele>319.60000610352</ele>
        <time>2015-06-17T12:51:39Z</time>
      </trkpt>
      <trkpt lat="43.38064" lon="6.12057">
        <ele>319.79998779297</ele>
        <time>2015-06-17T12:51:40Z</time>
      </trkpt>
      <trkpt lat="43.38063" lon="6.12061">
        <ele>319.60000610352</ele>
        <time>2015-06-17T12:51:42Z</time>
      </trkpt>
      <trkpt lat="43.38061" lon="6.12066">
        <ele>319.60000610352</ele>
        <time>2015-06-17T12:51:44Z</time>
      </trkpt>
      <trkpt lat="43.3806" lon="6.12069">
        <ele>319.39999389648</ele>
        <time>2015-06-17T12:51:45Z</time>
      </trkpt>
      <trkpt lat="43.38059" lon="6.12072">
        <ele>319.39999389648</ele>
        <time>2015-06-17T12:51:46Z</time>
      </trkpt>
      <trkpt lat="43.38058" lon="6.12077">
        <ele>320</ele>
        <time>2015-06-17T12:51:48Z</time>
      </trkpt>
      <trkpt lat="43.38058" lon="6.12082">
        <ele>320.20001220703</ele>
        <time>2015-06-17T12:51:50Z</time>
      </trkpt>
      <trkpt lat="43.38058" lon="6.12087">
        <ele>320.39999389648</ele>
        <time>2015-06-17T12:51:52Z</time>
      </trkpt>
      <trkpt lat="43.38057" lon="6.12091">
        <ele>320.20001220703</ele>
        <time>2015-06-17T12:51:54Z</time>
      </trkpt>
      <trkpt lat="43.38055" lon="6.12093">
        <ele>320.20001220703</ele>
        <time>2015-06-17T12:51:55Z</time>
      </trkpt>
      <trkpt lat="43.38055" lon="6.12094">
        <ele>320.60000610352</ele>
        <time>2015-06-17T12:51:56Z</time>
      </trkpt>
      <trkpt lat="43.38054" lon="6.12096">
        <ele>321</ele>
        <time>2015-06-17T12:51:58Z</time>
      </trkpt>
      <trkpt lat="43.38051" lon="6.12101">
        <ele>321</ele>
        <time>2015-06-17T12:52:00Z</time>
      </trkpt>
      <trkpt lat="43.38049" lon="6.12104">
        <ele>321.20001220703</ele>
        <time>2015-06-17T12:52:02Z</time>
      </trkpt>
      <trkpt lat="43.38048" lon="6.12106">
        <ele>321.39999389648</ele>
        <time>2015-06-17T12:52:03Z</time>
      </trkpt>
      <trkpt lat="43.38047" lon="6.12107">
        <ele>321.60000610352</ele>
        <time>2015-06-17T12:52:04Z</time>
      </trkpt>
      <trkpt lat="43.38046" lon="6.1211">
        <ele>322</ele>
        <time>2015-06-17T12:52:06Z</time>
      </trkpt>
      <trkpt lat="43.38046" lon="6.12113">
        <ele>322.20001220703</ele>
        <time>2015-06-17T12:52:08Z</time>
      </trkpt>
      <trkpt lat="43.38046" lon="6.12114">
        <ele>322.39999389648</ele>
        <time>2015-06-17T12:52:09Z</time>
      </trkpt>
      <trkpt lat="43.38045" lon="6.12116">
        <ele>322.60000610352</ele>
        <time>2015-06-17T12:52:10Z</time>
      </trkpt>
      <trkpt lat="43.38042" lon="6.12121">
        <ele>322.79998779297</ele>
        <time>2015-06-17T12:52:12Z</time>
      </trkpt>
      <trkpt lat="43.38041" lon="6.12124">
        <ele>323</ele>
        <time>2015-06-17T12:52:14Z</time>
      </trkpt>
      <trkpt lat="43.38041" lon="6.12126">
        <ele>323.20001220703</ele>
        <time>2015-06-17T12:52:15Z</time>
      </trkpt>
      <trkpt lat="43.38041" lon="6.12128">
        <ele>323.60000610352</ele>
        <time>2015-06-17T12:52:16Z</time>
      </trkpt>
      <trkpt lat="43.3804" lon="6.1213">
        <ele>323.79998779297</ele>
        <time>2015-06-17T12:52:18Z</time>
      </trkpt>
      <trkpt lat="43.3804" lon="6.12131">
        <ele>324</ele>
        <time>2015-06-17T12:52:19Z</time>
      </trkpt>
      <trkpt lat="43.3804" lon="6.12132">
        <ele>324.20001220703</ele>
        <time>2015-06-17T12:52:20Z</time>
      </trkpt>
      <trkpt lat="43.38039" lon="6.12136">
        <ele>324.39999389648</ele>
        <time>2015-06-17T12:52:21Z</time>
      </trkpt>
      <trkpt lat="43.38039" lon="6.12139">
        <ele>324.60000610352</ele>
        <time>2015-06-17T12:52:22Z</time>
      </trkpt>
      <trkpt lat="43.38038" lon="6.12143">
        <ele>324.39999389648</ele>
        <time>2015-06-17T12:52:24Z</time>
      </trkpt>
      <trkpt lat="43.38038" lon="6.12145">
        <ele>324.60000610352</ele>
        <time>2015-06-17T12:52:25Z</time>
      </trkpt>
      <trkpt lat="43.38037" lon="6.12147">
        <ele>324.79998779297</ele>
        <time>2015-06-17T12:52:26Z</time>
      </trkpt>
      <trkpt lat="43.38037" lon="6.12151">
        <ele>324.60000610352</ele>
        <time>2015-06-17T12:52:28Z</time>
      </trkpt>
      <trkpt lat="43.38037" lon="6.12156">
        <ele>325</ele>
        <time>2015-06-17T12:52:30Z</time>
      </trkpt>
      <trkpt lat="43.38036" lon="6.12161">
        <ele>325</ele>
        <time>2015-06-17T12:52:32Z</time>
      </trkpt>
      <trkpt lat="43.38036" lon="6.12164">
        <ele>325</ele>
        <time>2015-06-17T12:52:33Z</time>
      </trkpt>
      <trkpt lat="43.38035" lon="6.12166">
        <ele>325.20001220703</ele>
        <time>2015-06-17T12:52:34Z</time>
      </trkpt>
      <trkpt lat="43.38035" lon="6.12171">
        <ele>325.60000610352</ele>
        <time>2015-06-17T12:52:36Z</time>
      </trkpt>
      <trkpt lat="43.38035" lon="6.12176">
        <ele>325.79998779297</ele>
        <time>2015-06-17T12:52:38Z</time>
      </trkpt>
      <trkpt lat="43.38035" lon="6.12181">
        <ele>325.79998779297</ele>
        <time>2015-06-17T12:52:40Z</time>
      </trkpt>
      <trkpt lat="43.38036" lon="6.12186">
        <ele>325.79998779297</ele>
        <time>2015-06-17T12:52:42Z</time>
      </trkpt>
      <trkpt lat="43.38036" lon="6.12189">
        <ele>325.79998779297</ele>
        <time>2015-06-17T12:52:43Z</time>
      </trkpt>
      <trkpt lat="43.38036" lon="6.12192">
        <ele>326</ele>
        <time>2015-06-17T12:52:44Z</time>
      </trkpt>
      <trkpt lat="43.38037" lon="6.122">
        <ele>326.60000610352</ele>
        <time>2015-06-17T12:52:46Z</time>
      </trkpt>
      <trkpt lat="43.38036" lon="6.12209">
        <ele>326.60000610352</ele>
        <time>2015-06-17T12:52:48Z</time>
      </trkpt>
      <trkpt lat="43.38037" lon="6.12214">
        <ele>326.60000610352</ele>
        <time>2015-06-17T12:52:49Z</time>
      </trkpt>
      <trkpt lat="43.38037" lon="6.12217">
        <ele>326.60000610352</ele>
        <time>2015-06-17T12:52:50Z</time>
      </trkpt>
      <trkpt lat="43.38039" lon="6.12224">
        <ele>326.39999389648</ele>
        <time>2015-06-17T12:52:52Z</time>
      </trkpt>
      <trkpt lat="43.38041" lon="6.12228">
        <ele>326.39999389648</ele>
        <time>2015-06-17T12:52:53Z</time>
      </trkpt>
      <trkpt lat="43.38042" lon="6.12231">
        <ele>326.60000610352</ele>
        <time>2015-06-17T12:52:54Z</time>
      </trkpt>
      <trkpt lat="43.38044" lon="6.12238">
        <ele>327</ele>
        <time>2015-06-17T12:52:56Z</time>
      </trkpt>
      <trkpt lat="43.38046" lon="6.12244">
        <ele>327.39999389648</ele>
        <time>2015-06-17T12:52:58Z</time>
      </trkpt>
      <trkpt lat="43.38046" lon="6.1225">
        <ele>327.79998779297</ele>
        <time>2015-06-17T12:53:00Z</time>
      </trkpt>
      <trkpt lat="43.38046" lon="6.12255">
        <ele>328</ele>
        <time>2015-06-17T12:53:02Z</time>
      </trkpt>
      <trkpt lat="43.38046" lon="6.1226">
        <ele>328.20001220703</ele>
        <time>2015-06-17T12:53:04Z</time>
      </trkpt>
      <trkpt lat="43.38046" lon="6.12265">
        <ele>328.39999389648</ele>
        <time>2015-06-17T12:53:06Z</time>
      </trkpt>
      <trkpt lat="43.38047" lon="6.12267">
        <ele>328.39999389648</ele>
        <time>2015-06-17T12:53:07Z</time>
      </trkpt>
      <trkpt lat="43.38047" lon="6.12269">
        <ele>328.60000610352</ele>
        <time>2015-06-17T12:53:08Z</time>
      </trkpt>
      <trkpt lat="43.38047" lon="6.12271">
        <ele>328.79998779297</ele>
        <time>2015-06-17T12:53:09Z</time>
      </trkpt>
      <trkpt lat="43.38047" lon="6.12273">
        <ele>329.60000610352</ele>
        <time>2015-06-17T12:53:10Z</time>
      </trkpt>
      <trkpt lat="43.38047" lon="6.12278">
        <ele>330</ele>
        <time>2015-06-17T12:53:12Z</time>
      </trkpt>
      <trkpt lat="43.38047" lon="6.12283">
        <ele>330.60000610352</ele>
        <time>2015-06-17T12:53:14Z</time>
      </trkpt>
      <trkpt lat="43.38047" lon="6.12287">
        <ele>331</ele>
        <time>2015-06-17T12:53:16Z</time>
      </trkpt>
      <trkpt lat="43.38047" lon="6.12288">
        <ele>331.20001220703</ele>
        <time>2015-06-17T12:53:17Z</time>
      </trkpt>
      <trkpt lat="43.38048" lon="6.1229">
        <ele>331.20001220703</ele>
        <time>2015-06-17T12:53:18Z</time>
      </trkpt>
      <trkpt lat="43.38047" lon="6.12294">
        <ele>331.20001220703</ele>
        <time>2015-06-17T12:53:20Z</time>
      </trkpt>
      <trkpt lat="43.38048" lon="6.12297">
        <ele>331.39999389648</ele>
        <time>2015-06-17T12:53:22Z</time>
      </trkpt>
      <trkpt lat="43.38049" lon="6.12298">
        <ele>331.60000610352</ele>
        <time>2015-06-17T12:53:23Z</time>
      </trkpt>
      <trkpt lat="43.38049" lon="6.123">
        <ele>331.79998779297</ele>
        <time>2015-06-17T12:53:24Z</time>
      </trkpt>
      <trkpt lat="43.3805" lon="6.12301">
        <ele>331.79998779297</ele>
        <time>2015-06-17T12:53:25Z</time>
      </trkpt>
      <trkpt lat="43.3805" lon="6.12302">
        <ele>331.79998779297</ele>
        <time>2015-06-17T12:53:26Z</time>
      </trkpt>
      <trkpt lat="43.3805" lon="6.12305">
        <ele>332</ele>
        <time>2015-06-17T12:53:28Z</time>
      </trkpt>
      <trkpt lat="43.3805" lon="6.12309">
        <ele>332.20001220703</ele>
        <time>2015-06-17T12:53:30Z</time>
      </trkpt>
      <trkpt lat="43.3805" lon="6.12311">
        <ele>332.39999389648</ele>
        <time>2015-06-17T12:53:31Z</time>
      </trkpt>
      <trkpt lat="43.3805" lon="6.12313">
        <ele>332.60000610352</ele>
        <time>2015-06-17T12:53:32Z</time>
      </trkpt>
      <trkpt lat="43.3805" lon="6.12315">
        <ele>332.60000610352</ele>
        <time>2015-06-17T12:53:33Z</time>
      </trkpt>
      <trkpt lat="43.3805" lon="6.12317">
        <ele>332.60000610352</ele>
        <time>2015-06-17T12:53:34Z</time>
      </trkpt>
      <trkpt lat="43.3805" lon="6.1232">
        <ele>332.60000610352</ele>
        <time>2015-06-17T12:53:36Z</time>
      </trkpt>
      <trkpt lat="43.3805" lon="6.12325">
        <ele>333.20001220703</ele>
        <time>2015-06-17T12:53:38Z</time>
      </trkpt>
      <trkpt lat="43.3805" lon="6.12328">
        <ele>333.39999389648</ele>
        <time>2015-06-17T12:53:39Z</time>
      </trkpt>
      <trkpt lat="43.38049" lon="6.1233">
        <ele>333.39999389648</ele>
        <time>2015-06-17T12:53:40Z</time>
      </trkpt>
      <trkpt lat="43.3805" lon="6.12335">
        <ele>333.60000610352</ele>
        <time>2015-06-17T12:53:42Z</time>
      </trkpt>
      <trkpt lat="43.3805" lon="6.12338">
        <ele>333.79998779297</ele>
        <time>2015-06-17T12:53:43Z</time>
      </trkpt>
      <trkpt lat="43.38051" lon="6.1234">
        <ele>333.79998779297</ele>
        <time>2015-06-17T12:53:44Z</time>
      </trkpt>
      <trkpt lat="43.38052" lon="6.12342">
        <ele>333.60000610352</ele>
        <time>2015-06-17T12:53:45Z</time>
      </trkpt>
      <trkpt lat="43.38052" lon="6.12344">
        <ele>333.39999389648</ele>
        <time>2015-06-17T12:53:46Z</time>
      </trkpt>
      <trkpt lat="43.38053" lon="6.12349">
        <ele>333.79998779297</ele>
        <time>2015-06-17T12:53:48Z</time>
      </trkpt>
      <trkpt lat="43.38054" lon="6.12354">
        <ele>333.79998779297</ele>
        <time>2015-06-17T12:53:50Z</time>
      </trkpt>
      <trkpt lat="43.38055" lon="6.12357">
        <ele>334.20001220703</ele>
        <time>2015-06-17T12:53:51Z</time>
      </trkpt>
      <trkpt lat="43.38055" lon="6.1236">
        <ele>334.60000610352</ele>
        <time>2015-06-17T12:53:52Z</time>
      </trkpt>
      <trkpt lat="43.38056" lon="6.12365">
        <ele>334.79998779297</ele>
        <time>2015-06-17T12:53:54Z</time>
      </trkpt>
      <trkpt lat="43.38056" lon="6.12368">
        <ele>335.20001220703</ele>
        <time>2015-06-17T12:53:55Z</time>
      </trkpt>
      <trkpt lat="43.38057" lon="6.12371">
        <ele>335.39999389648</ele>
        <time>2015-06-17T12:53:56Z</time>
      </trkpt>
      <trkpt lat="43.38057" lon="6.12373">
        <ele>335.39999389648</ele>
        <time>2015-06-17T12:53:57Z</time>
      </trkpt>
      <trkpt lat="43.38056" lon="6.12378">
        <ele>335.60000610352</ele>
        <time>2015-06-17T12:53:58Z</time>
      </trkpt>
      <trkpt lat="43.38057" lon="6.1238">
        <ele>335.79998779297</ele>
        <time>2015-06-17T12:53:59Z</time>
      </trkpt>
      <trkpt lat="43.38057" lon="6.12382">
        <ele>335.79998779297</ele>
        <time>2015-06-17T12:54:00Z</time>
      </trkpt>
      <trkpt lat="43.38058" lon="6.12386">
        <ele>336.20001220703</ele>
        <time>2015-06-17T12:54:02Z</time>
      </trkpt>
      <trkpt lat="43.38058" lon="6.1239">
        <ele>336.39999389648</ele>
        <time>2015-06-17T12:54:03Z</time>
      </trkpt>
      <trkpt lat="43.38058" lon="6.12392">
        <ele>336.39999389648</ele>
        <time>2015-06-17T12:54:04Z</time>
      </trkpt>
      <trkpt lat="43.3806" lon="6.12396">
        <ele>337.39999389648</ele>
        <time>2015-06-17T12:54:06Z</time>
      </trkpt>
      <trkpt lat="43.3806" lon="6.12399">
        <ele>338</ele>
        <time>2015-06-17T12:54:08Z</time>
      </trkpt>
      <trkpt lat="43.38062" lon="6.12402">
        <ele>338.39999389648</ele>
        <time>2015-06-17T12:54:10Z</time>
      </trkpt>
      <trkpt lat="43.38063" lon="6.12404">
        <ele>338.60000610352</ele>
        <time>2015-06-17T12:54:11Z</time>
      </trkpt>
      <trkpt lat="43.38062" lon="6.12407">
        <ele>338.60000610352</ele>
        <time>2015-06-17T12:54:12Z</time>
      </trkpt>
      <trkpt lat="43.38063" lon="6.12409">
        <ele>339.20001220703</ele>
        <time>2015-06-17T12:54:14Z</time>
      </trkpt>
      <trkpt lat="43.38062" lon="6.12411">
        <ele>339.39999389648</ele>
        <time>2015-06-17T12:54:16Z</time>
      </trkpt>
      <trkpt lat="43.38062" lon="6.12415">
        <ele>339.79998779297</ele>
        <time>2015-06-17T12:54:18Z</time>
      </trkpt>
      <trkpt lat="43.38063" lon="6.12418">
        <ele>340</ele>
        <time>2015-06-17T12:54:20Z</time>
      </trkpt>
      <trkpt lat="43.38063" lon="6.12421">
        <ele>340</ele>
        <time>2015-06-17T12:54:22Z</time>
      </trkpt>
      <trkpt lat="43.38064" lon="6.12423">
        <ele>340</ele>
        <time>2015-06-17T12:54:23Z</time>
      </trkpt>
      <trkpt lat="43.38065" lon="6.12425">
        <ele>340.20001220703</ele>
        <time>2015-06-17T12:54:24Z</time>
      </trkpt>
      <trkpt lat="43.38065" lon="6.12427">
        <ele>340.39999389648</ele>
        <time>2015-06-17T12:54:26Z</time>
      </trkpt>
      <trkpt lat="43.38066" lon="6.12429">
        <ele>341</ele>
        <time>2015-06-17T12:54:28Z</time>
      </trkpt>
      <trkpt lat="43.38066" lon="6.12432">
        <ele>341.39999389648</ele>
        <time>2015-06-17T12:54:30Z</time>
      </trkpt>
      <trkpt lat="43.38066" lon="6.12435">
        <ele>341.60000610352</ele>
        <time>2015-06-17T12:54:32Z</time>
      </trkpt>
      <trkpt lat="43.38067" lon="6.12436">
        <ele>341.60000610352</ele>
        <time>2015-06-17T12:54:33Z</time>
      </trkpt>
      <trkpt lat="43.38066" lon="6.12439">
        <ele>341.79998779297</ele>
        <time>2015-06-17T12:54:34Z</time>
      </trkpt>
      <trkpt lat="43.38067" lon="6.12441">
        <ele>342.20001220703</ele>
        <time>2015-06-17T12:54:35Z</time>
      </trkpt>
      <trkpt lat="43.38067" lon="6.12443">
        <ele>342.39999389648</ele>
        <time>2015-06-17T12:54:36Z</time>
      </trkpt>
      <trkpt lat="43.38066" lon="6.12448">
        <ele>342.20001220703</ele>
        <time>2015-06-17T12:54:38Z</time>
      </trkpt>
      <trkpt lat="43.38066" lon="6.12453">
        <ele>342.20001220703</ele>
        <time>2015-06-17T12:54:40Z</time>
      </trkpt>
      <trkpt lat="43.38066" lon="6.12455">
        <ele>342.39999389648</ele>
        <time>2015-06-17T12:54:41Z</time>
      </trkpt>
      <trkpt lat="43.38066" lon="6.12457">
        <ele>342.60000610352</ele>
        <time>2015-06-17T12:54:42Z</time>
      </trkpt>
      <trkpt lat="43.38066" lon="6.12461">
        <ele>343</ele>
        <time>2015-06-17T12:54:44Z</time>
      </trkpt>
      <trkpt lat="43.38066" lon="6.12465">
        <ele>343</ele>
        <time>2015-06-17T12:54:46Z</time>
      </trkpt>
      <trkpt lat="43.38066" lon="6.12467">
        <ele>343</ele>
        <time>2015-06-17T12:54:47Z</time>
      </trkpt>
      <trkpt lat="43.38066" lon="6.12469">
        <ele>343</ele>
        <time>2015-06-17T12:54:48Z</time>
      </trkpt>
      <trkpt lat="43.38066" lon="6.12473">
        <ele>343.20001220703</ele>
        <time>2015-06-17T12:54:50Z</time>
      </trkpt>
      <trkpt lat="43.38066" lon="6.12478">
        <ele>343.39999389648</ele>
        <time>2015-06-17T12:54:52Z</time>
      </trkpt>
      <trkpt lat="43.38065" lon="6.12482">
        <ele>343.39999389648</ele>
        <time>2015-06-17T12:54:53Z</time>
      </trkpt>
      <trkpt lat="43.38065" lon="6.12484">
        <ele>343.39999389648</ele>
        <time>2015-06-17T12:54:54Z</time>
      </trkpt>
      <trkpt lat="43.38065" lon="6.12489">
        <ele>343.39999389648</ele>
        <time>2015-06-17T12:54:56Z</time>
      </trkpt>
      <trkpt lat="43.38063" lon="6.12493">
        <ele>343.79998779297</ele>
        <time>2015-06-17T12:54:58Z</time>
      </trkpt>
      <trkpt lat="43.38063" lon="6.12495">
        <ele>343.79998779297</ele>
        <time>2015-06-17T12:54:59Z</time>
      </trkpt>
      <trkpt lat="43.38063" lon="6.12498">
        <ele>344</ele>
        <time>2015-06-17T12:55:00Z</time>
      </trkpt>
      <trkpt lat="43.38063" lon="6.125">
        <ele>344</ele>
        <time>2015-06-17T12:55:01Z</time>
      </trkpt>
      <trkpt lat="43.38063" lon="6.12502">
        <ele>344.20001220703</ele>
        <time>2015-06-17T12:55:02Z</time>
      </trkpt>
      <trkpt lat="43.38063" lon="6.12507">
        <ele>344.39999389648</ele>
        <time>2015-06-17T12:55:04Z</time>
      </trkpt>
      <trkpt lat="43.38063" lon="6.12509">
        <ele>344.60000610352</ele>
        <time>2015-06-17T12:55:05Z</time>
      </trkpt>
      <trkpt lat="43.38063" lon="6.12511">
        <ele>344.79998779297</ele>
        <time>2015-06-17T12:55:06Z</time>
      </trkpt>
      <trkpt lat="43.38062" lon="6.12515">
        <ele>345.20001220703</ele>
        <time>2015-06-17T12:55:08Z</time>
      </trkpt>
      <trkpt lat="43.3806" lon="6.12522">
        <ele>345.60000610352</ele>
        <time>2015-06-17T12:55:10Z</time>
      </trkpt>
      <trkpt lat="43.3806" lon="6.12524">
        <ele>345.79998779297</ele>
        <time>2015-06-17T12:55:11Z</time>
      </trkpt>
      <trkpt lat="43.38059" lon="6.12526">
        <ele>346</ele>
        <time>2015-06-17T12:55:12Z</time>
      </trkpt>
      <trkpt lat="43.38058" lon="6.12529">
        <ele>346</ele>
        <time>2015-06-17T12:55:14Z</time>
      </trkpt>
      <trkpt lat="43.38058" lon="6.12533">
        <ele>346</ele>
        <time>2015-06-17T12:55:16Z</time>
      </trkpt>
      <trkpt lat="43.38057" lon="6.12538">
        <ele>346.20001220703</ele>
        <time>2015-06-17T12:55:18Z</time>
      </trkpt>
      <trkpt lat="43.38057" lon="6.12543">
        <ele>346.39999389648</ele>
        <time>2015-06-17T12:55:20Z</time>
      </trkpt>
      <trkpt lat="43.38057" lon="6.12545">
        <ele>346.60000610352</ele>
        <time>2015-06-17T12:55:21Z</time>
      </trkpt>
      <trkpt lat="43.38055" lon="6.12547">
        <ele>346.79998779297</ele>
        <time>2015-06-17T12:55:22Z</time>
      </trkpt>
      <trkpt lat="43.38054" lon="6.1255">
        <ele>347</ele>
        <time>2015-06-17T12:55:23Z</time>
      </trkpt>
      <trkpt lat="43.38054" lon="6.12553">
        <ele>347</ele>
        <time>2015-06-17T12:55:24Z</time>
      </trkpt>
      <trkpt lat="43.38053" lon="6.12557">
        <ele>347.39999389648</ele>
        <time>2015-06-17T12:55:26Z</time>
      </trkpt>
      <trkpt lat="43.38052" lon="6.12561">
        <ele>347.60000610352</ele>
        <time>2015-06-17T12:55:28Z</time>
      </trkpt>
      <trkpt lat="43.38052" lon="6.12565">
        <ele>348</ele>
        <time>2015-06-17T12:55:30Z</time>
      </trkpt>
      <trkpt lat="43.38052" lon="6.12566">
        <ele>348.60000610352</ele>
        <time>2015-06-17T12:55:31Z</time>
      </trkpt>
      <trkpt lat="43.38052" lon="6.12567">
        <ele>348.79998779297</ele>
        <time>2015-06-17T12:55:32Z</time>
      </trkpt>
      <trkpt lat="43.38052" lon="6.1257">
        <ele>349.20001220703</ele>
        <time>2015-06-17T12:55:34Z</time>
      </trkpt>
      <trkpt lat="43.38051" lon="6.12572">
        <ele>349.39999389648</ele>
        <time>2015-06-17T12:55:35Z</time>
      </trkpt>
      <trkpt lat="43.3805" lon="6.12574">
        <ele>349.20001220703</ele>
        <time>2015-06-17T12:55:36Z</time>
      </trkpt>
      <trkpt lat="43.38049" lon="6.12579">
        <ele>349.39999389648</ele>
        <time>2015-06-17T12:55:38Z</time>
      </trkpt>
      <trkpt lat="43.38049" lon="6.12582">
        <ele>350</ele>
        <time>2015-06-17T12:55:40Z</time>
      </trkpt>
      <trkpt lat="43.38049" lon="6.12586">
        <ele>350.20001220703</ele>
        <time>2015-06-17T12:55:42Z</time>
      </trkpt>
      <trkpt lat="43.38049" lon="6.12588">
        <ele>350.39999389648</ele>
        <time>2015-06-17T12:55:43Z</time>
      </trkpt>
      <trkpt lat="43.38048" lon="6.1259">
        <ele>350.39999389648</ele>
        <time>2015-06-17T12:55:44Z</time>
      </trkpt>
      <trkpt lat="43.38049" lon="6.12593">
        <ele>351</ele>
        <time>2015-06-17T12:55:46Z</time>
      </trkpt>
      <trkpt lat="43.38048" lon="6.12597">
        <ele>351</ele>
        <time>2015-06-17T12:55:48Z</time>
      </trkpt>
      <trkpt lat="43.38048" lon="6.12602">
        <ele>351</ele>
        <time>2015-06-17T12:55:50Z</time>
      </trkpt>
      <trkpt lat="43.38047" lon="6.12606">
        <ele>351.39999389648</ele>
        <time>2015-06-17T12:55:52Z</time>
      </trkpt>
      <trkpt lat="43.38047" lon="6.12609">
        <ele>351.60000610352</ele>
        <time>2015-06-17T12:55:54Z</time>
      </trkpt>
      <trkpt lat="43.38045" lon="6.12613">
        <ele>351.79998779297</ele>
        <time>2015-06-17T12:55:55Z</time>
      </trkpt>
      <trkpt lat="43.38044" lon="6.12616">
        <ele>352</ele>
        <time>2015-06-17T12:55:56Z</time>
      </trkpt>
      <trkpt lat="43.38042" lon="6.12621">
        <ele>352.39999389648</ele>
        <time>2015-06-17T12:55:58Z</time>
      </trkpt>
      <trkpt lat="43.38042" lon="6.12625">
        <ele>352.79998779297</ele>
        <time>2015-06-17T12:56:00Z</time>
      </trkpt>
      <trkpt lat="43.38041" lon="6.12627">
        <ele>352.79998779297</ele>
        <time>2015-06-17T12:56:01Z</time>
      </trkpt>
      <trkpt lat="43.38041" lon="6.12629">
        <ele>352.79998779297</ele>
        <time>2015-06-17T12:56:02Z</time>
      </trkpt>
      <trkpt lat="43.38041" lon="6.12631">
        <ele>352.79998779297</ele>
        <time>2015-06-17T12:56:03Z</time>
      </trkpt>
      <trkpt lat="43.38041" lon="6.12634">
        <ele>353</ele>
        <time>2015-06-17T12:56:04Z</time>
      </trkpt>
      <trkpt lat="43.3804" lon="6.12639">
        <ele>353.39999389648</ele>
        <time>2015-06-17T12:56:06Z</time>
      </trkpt>
      <trkpt lat="43.38039" lon="6.12642">
        <ele>353.79998779297</ele>
        <time>2015-06-17T12:56:07Z</time>
      </trkpt>
      <trkpt lat="43.38039" lon="6.12645">
        <ele>354.20001220703</ele>
        <time>2015-06-17T12:56:08Z</time>
      </trkpt>
      <trkpt lat="43.38036" lon="6.12652">
        <ele>354.60000610352</ele>
        <time>2015-06-17T12:56:10Z</time>
      </trkpt>
      <trkpt lat="43.38033" lon="6.12659">
        <ele>354.60000610352</ele>
        <time>2015-06-17T12:56:12Z</time>
      </trkpt>
      <trkpt lat="43.38031" lon="6.12662">
        <ele>354.39999389648</ele>
        <time>2015-06-17T12:56:13Z</time>
      </trkpt>
      <trkpt lat="43.38031" lon="6.12664">
        <ele>354.39999389648</ele>
        <time>2015-06-17T12:56:14Z</time>
      </trkpt>
      <trkpt lat="43.38028" lon="6.12669">
        <ele>354.60000610352</ele>
        <time>2015-06-17T12:56:16Z</time>
      </trkpt>
      <trkpt lat="43.38025" lon="6.12676">
        <ele>355</ele>
        <time>2015-06-17T12:56:18Z</time>
      </trkpt>
      <trkpt lat="43.38025" lon="6.12678">
        <ele>355.20001220703</ele>
        <time>2015-06-17T12:56:19Z</time>
      </trkpt>
      <trkpt lat="43.38024" lon="6.12679">
        <ele>355.60000610352</ele>
        <time>2015-06-17T12:56:20Z</time>
      </trkpt>
      <trkpt lat="43.38023" lon="6.12681">
        <ele>356</ele>
        <time>2015-06-17T12:56:21Z</time>
      </trkpt>
      <trkpt lat="43.38022" lon="6.12683">
        <ele>356</ele>
        <time>2015-06-17T12:56:22Z</time>
      </trkpt>
      <trkpt lat="43.3802" lon="6.12687">
        <ele>356</ele>
        <time>2015-06-17T12:56:24Z</time>
      </trkpt>
      <trkpt lat="43.3802" lon="6.12689">
        <ele>356</ele>
        <time>2015-06-17T12:56:25Z</time>
      </trkpt>
      <trkpt lat="43.38019" lon="6.12691">
        <ele>356.20001220703</ele>
        <time>2015-06-17T12:56:26Z</time>
      </trkpt>
      <trkpt lat="43.38018" lon="6.12694">
        <ele>356.20001220703</ele>
        <time>2015-06-17T12:56:28Z</time>
      </trkpt>
      <trkpt lat="43.38018" lon="6.12698">
        <ele>356.60000610352</ele>
        <time>2015-06-17T12:56:30Z</time>
      </trkpt>
      <trkpt lat="43.38017" lon="6.127">
        <ele>356.79998779297</ele>
        <time>2015-06-17T12:56:31Z</time>
      </trkpt>
      <trkpt lat="43.38017" lon="6.12703">
        <ele>356.79998779297</ele>
        <time>2015-06-17T12:56:32Z</time>
      </trkpt>
      <trkpt lat="43.38014" lon="6.12709">
        <ele>357</ele>
        <time>2015-06-17T12:56:34Z</time>
      </trkpt>
      <trkpt lat="43.38013" lon="6.12714">
        <ele>357</ele>
        <time>2015-06-17T12:56:36Z</time>
      </trkpt>
      <trkpt lat="43.38012" lon="6.12717">
        <ele>357</ele>
        <time>2015-06-17T12:56:37Z</time>
      </trkpt>
      <trkpt lat="43.38011" lon="6.12719">
        <ele>357</ele>
        <time>2015-06-17T12:56:38Z</time>
      </trkpt>
      <trkpt lat="43.38011" lon="6.12723">
        <ele>357.20001220703</ele>
        <time>2015-06-17T12:56:40Z</time>
      </trkpt>
      <trkpt lat="43.38012" lon="6.12726">
        <ele>357.39999389648</ele>
        <time>2015-06-17T12:56:41Z</time>
      </trkpt>
      <trkpt lat="43.38011" lon="6.12729">
        <ele>357.60000610352</ele>
        <time>2015-06-17T12:56:42Z</time>
      </trkpt>
      <trkpt lat="43.38011" lon="6.12732">
        <ele>358</ele>
        <time>2015-06-17T12:56:44Z</time>
      </trkpt>
      <trkpt lat="43.3801" lon="6.12736">
        <ele>358</ele>
        <time>2015-06-17T12:56:46Z</time>
      </trkpt>
      <trkpt lat="43.38009" lon="6.12741">
        <ele>358.20001220703</ele>
        <time>2015-06-17T12:56:48Z</time>
      </trkpt>
      <trkpt lat="43.38009" lon="6.12745">
        <ele>358.79998779297</ele>
        <time>2015-06-17T12:56:50Z</time>
      </trkpt>
      <trkpt lat="43.38009" lon="6.12748">
        <ele>359</ele>
        <time>2015-06-17T12:56:52Z</time>
      </trkpt>
      <trkpt lat="43.38008" lon="6.12751">
        <ele>359.60000610352</ele>
        <time>2015-06-17T12:56:54Z</time>
      </trkpt>
      <trkpt lat="43.38007" lon="6.12754">
        <ele>359.79998779297</ele>
        <time>2015-06-17T12:56:55Z</time>
      </trkpt>
      <trkpt lat="43.38007" lon="6.12756">
        <ele>359.79998779297</ele>
        <time>2015-06-17T12:56:56Z</time>
      </trkpt>
      <trkpt lat="43.38006" lon="6.1276">
        <ele>360</ele>
        <time>2015-06-17T12:56:58Z</time>
      </trkpt>
      <trkpt lat="43.38005" lon="6.12765">
        <ele>360.20001220703</ele>
        <time>2015-06-17T12:57:00Z</time>
      </trkpt>
      <trkpt lat="43.38003" lon="6.1277">
        <ele>360.20001220703</ele>
        <time>2015-06-17T12:57:02Z</time>
      </trkpt>
      <trkpt lat="43.38003" lon="6.12772">
        <ele>360.39999389648</ele>
        <time>2015-06-17T12:57:03Z</time>
      </trkpt>
      <trkpt lat="43.38002" lon="6.12775">
        <ele>360.60000610352</ele>
        <time>2015-06-17T12:57:04Z</time>
      </trkpt>
      <trkpt lat="43.38" lon="6.12781">
        <ele>360.60000610352</ele>
        <time>2015-06-17T12:57:06Z</time>
      </trkpt>
      <trkpt lat="43.38" lon="6.12784">
        <ele>360.79998779297</ele>
        <time>2015-06-17T12:57:07Z</time>
      </trkpt>
      <trkpt lat="43.37999" lon="6.12787">
        <ele>360.79998779297</ele>
        <time>2015-06-17T12:57:08Z</time>
      </trkpt>
      <trkpt lat="43.37997" lon="6.12792">
        <ele>360.60000610352</ele>
        <time>2015-06-17T12:57:10Z</time>
      </trkpt>
      <trkpt lat="43.37996" lon="6.12796">
        <ele>361.20001220703</ele>
        <time>2015-06-17T12:57:12Z</time>
      </trkpt>
      <trkpt lat="43.37996" lon="6.12801">
        <ele>361.20001220703</ele>
        <time>2015-06-17T12:57:14Z</time>
      </trkpt>
      <trkpt lat="43.37996" lon="6.12803">
        <ele>361.39999389648</ele>
        <time>2015-06-17T12:57:15Z</time>
      </trkpt>
      <trkpt lat="43.37996" lon="6.12804">
        <ele>361.79998779297</ele>
        <time>2015-06-17T12:57:16Z</time>
      </trkpt>
      <trkpt lat="43.37996" lon="6.12807">
        <ele>362.39999389648</ele>
        <time>2015-06-17T12:57:18Z</time>
      </trkpt>
      <trkpt lat="43.37994" lon="6.12811">
        <ele>362.60000610352</ele>
        <time>2015-06-17T12:57:20Z</time>
      </trkpt>
      <trkpt lat="43.37994" lon="6.12817">
        <ele>362.60000610352</ele>
        <time>2015-06-17T12:57:22Z</time>
      </trkpt>
      <trkpt lat="43.37994" lon="6.12819">
        <ele>362.79998779297</ele>
        <time>2015-06-17T12:57:23Z</time>
      </trkpt>
      <trkpt lat="43.37993" lon="6.12822">
        <ele>363</ele>
        <time>2015-06-17T12:57:24Z</time>
      </trkpt>
      <trkpt lat="43.37994" lon="6.12824">
        <ele>363</ele>
        <time>2015-06-17T12:57:25Z</time>
      </trkpt>
      <trkpt lat="43.37993" lon="6.12826">
        <ele>363</ele>
        <time>2015-06-17T12:57:26Z</time>
      </trkpt>
      <trkpt lat="43.37992" lon="6.12829">
        <ele>363.20001220703</ele>
        <time>2015-06-17T12:57:28Z</time>
      </trkpt>
      <trkpt lat="43.37991" lon="6.12832">
        <ele>363.20001220703</ele>
        <time>2015-06-17T12:57:29Z</time>
      </trkpt>
      <trkpt lat="43.37991" lon="6.12834">
        <ele>363.39999389648</ele>
        <time>2015-06-17T12:57:30Z</time>
      </trkpt>
      <trkpt lat="43.3799" lon="6.12839">
        <ele>363.79998779297</ele>
        <time>2015-06-17T12:57:32Z</time>
      </trkpt>
      <trkpt lat="43.3799" lon="6.12841">
        <ele>364.20001220703</ele>
        <time>2015-06-17T12:57:33Z</time>
      </trkpt>
      <trkpt lat="43.37989" lon="6.12843">
        <ele>364.20001220703</ele>
        <time>2015-06-17T12:57:34Z</time>
      </trkpt>
      <trkpt lat="43.37989" lon="6.12846">
        <ele>364.39999389648</ele>
        <time>2015-06-17T12:57:36Z</time>
      </trkpt>
      <trkpt lat="43.37989" lon="6.12851">
        <ele>364.60000610352</ele>
        <time>2015-06-17T12:57:38Z</time>
      </trkpt>
      <trkpt lat="43.37989" lon="6.12853">
        <ele>365</ele>
        <time>2015-06-17T12:57:39Z</time>
      </trkpt>
      <trkpt lat="43.37988" lon="6.12856">
        <ele>365</ele>
        <time>2015-06-17T12:57:40Z</time>
      </trkpt>
      <trkpt lat="43.37988" lon="6.12859">
        <ele>365.39999389648</ele>
        <time>2015-06-17T12:57:42Z</time>
      </trkpt>
      <trkpt lat="43.37988" lon="6.12862">
        <ele>365.79998779297</ele>
        <time>2015-06-17T12:57:43Z</time>
      </trkpt>
      <trkpt lat="43.37987" lon="6.12864">
        <ele>366</ele>
        <time>2015-06-17T12:57:44Z</time>
      </trkpt>
      <trkpt lat="43.37986" lon="6.12867">
        <ele>366.20001220703</ele>
        <time>2015-06-17T12:57:46Z</time>
      </trkpt>
      <trkpt lat="43.37986" lon="6.1287">
        <ele>366.60000610352</ele>
        <time>2015-06-17T12:57:48Z</time>
      </trkpt>
      <trkpt lat="43.37984" lon="6.12873">
        <ele>367</ele>
        <time>2015-06-17T12:57:50Z</time>
      </trkpt>
      <trkpt lat="43.37984" lon="6.12875">
        <ele>367.39999389648</ele>
        <time>2015-06-17T12:57:51Z</time>
      </trkpt>
      <trkpt lat="43.37984" lon="6.12876">
        <ele>367.39999389648</ele>
        <time>2015-06-17T12:57:52Z</time>
      </trkpt>
      <trkpt lat="43.37984" lon="6.12878">
        <ele>367.39999389648</ele>
        <time>2015-06-17T12:57:53Z</time>
      </trkpt>
      <trkpt lat="43.37984" lon="6.1288">
        <ele>367.39999389648</ele>
        <time>2015-06-17T12:57:54Z</time>
      </trkpt>
      <trkpt lat="43.37983" lon="6.12885">
        <ele>367.39999389648</ele>
        <time>2015-06-17T12:57:56Z</time>
      </trkpt>
      <trkpt lat="43.37983" lon="6.12889">
        <ele>367.39999389648</ele>
        <time>2015-06-17T12:57:58Z</time>
      </trkpt>
      <trkpt lat="43.37981" lon="6.12894">
        <ele>367.60000610352</ele>
        <time>2015-06-17T12:58:00Z</time>
      </trkpt>
      <trkpt lat="43.37981" lon="6.12898">
        <ele>368</ele>
        <time>2015-06-17T12:58:02Z</time>
      </trkpt>
      <trkpt lat="43.37978" lon="6.12903">
        <ele>368.20001220703</ele>
        <time>2015-06-17T12:58:04Z</time>
      </trkpt>
      <trkpt lat="43.37976" lon="6.12908">
        <ele>368.20001220703</ele>
        <time>2015-06-17T12:58:06Z</time>
      </trkpt>
      <trkpt lat="43.37975" lon="6.12909">
        <ele>368.20001220703</ele>
        <time>2015-06-17T12:58:07Z</time>
      </trkpt>
      <trkpt lat="43.37975" lon="6.12911">
        <ele>368.20001220703</ele>
        <time>2015-06-17T12:58:08Z</time>
      </trkpt>
      <trkpt lat="43.37974" lon="6.12913">
        <ele>368.39999389648</ele>
        <time>2015-06-17T12:58:10Z</time>
      </trkpt>
      <trkpt lat="43.37972" lon="6.12915">
        <ele>368.79998779297</ele>
        <time>2015-06-17T12:58:12Z</time>
      </trkpt>
      <trkpt lat="43.3797" lon="6.12918">
        <ele>369.20001220703</ele>
        <time>2015-06-17T12:58:14Z</time>
      </trkpt>
      <trkpt lat="43.37969" lon="6.1292">
        <ele>369.60000610352</ele>
        <time>2015-06-17T12:58:15Z</time>
      </trkpt>
      <trkpt lat="43.37968" lon="6.12921">
        <ele>369.79998779297</ele>
        <time>2015-06-17T12:58:16Z</time>
      </trkpt>
      <trkpt lat="43.37966" lon="6.12925">
        <ele>370</ele>
        <time>2015-06-17T12:58:18Z</time>
      </trkpt>
      <trkpt lat="43.37965" lon="6.1293">
        <ele>370.39999389648</ele>
        <time>2015-06-17T12:58:20Z</time>
      </trkpt>
      <trkpt lat="43.37963" lon="6.12935">
        <ele>370.60000610352</ele>
        <time>2015-06-17T12:58:22Z</time>
      </trkpt>
      <trkpt lat="43.37962" lon="6.12939">
        <ele>370.79998779297</ele>
        <time>2015-06-17T12:58:24Z</time>
      </trkpt>
      <trkpt lat="43.3796" lon="6.12943">
        <ele>371.20001220703</ele>
        <time>2015-06-17T12:58:26Z</time>
      </trkpt>
      <trkpt lat="43.3796" lon="6.12946">
        <ele>371.39999389648</ele>
        <time>2015-06-17T12:58:28Z</time>
      </trkpt>
      <trkpt lat="43.3796" lon="6.12952">
        <ele>371.79998779297</ele>
        <time>2015-06-17T12:58:30Z</time>
      </trkpt>
      <trkpt lat="43.37959" lon="6.12957">
        <ele>372.20001220703</ele>
        <time>2015-06-17T12:58:32Z</time>
      </trkpt>
      <trkpt lat="43.37958" lon="6.12962">
        <ele>372</ele>
        <time>2015-06-17T12:58:34Z</time>
      </trkpt>
      <trkpt lat="43.37957" lon="6.12965">
        <ele>372.20001220703</ele>
        <time>2015-06-17T12:58:35Z</time>
      </trkpt>
      <trkpt lat="43.37956" lon="6.12968">
        <ele>372.39999389648</ele>
        <time>2015-06-17T12:58:36Z</time>
      </trkpt>
      <trkpt lat="43.37955" lon="6.12971">
        <ele>372.79998779297</ele>
        <time>2015-06-17T12:58:38Z</time>
      </trkpt>
      <trkpt lat="43.37954" lon="6.12973">
        <ele>373</ele>
        <time>2015-06-17T12:58:39Z</time>
      </trkpt>
      <trkpt lat="43.37953" lon="6.12975">
        <ele>373</ele>
        <time>2015-06-17T12:58:40Z</time>
      </trkpt>
      <trkpt lat="43.37952" lon="6.12977">
        <ele>373</ele>
        <time>2015-06-17T12:58:42Z</time>
      </trkpt>
      <trkpt lat="43.3795" lon="6.12979">
        <ele>373.20001220703</ele>
        <time>2015-06-17T12:58:44Z</time>
      </trkpt>
      <trkpt lat="43.37949" lon="6.12983">
        <ele>373.60000610352</ele>
        <time>2015-06-17T12:58:46Z</time>
      </trkpt>
      <trkpt lat="43.37947" lon="6.12985">
        <ele>373.60000610352</ele>
        <time>2015-06-17T12:58:47Z</time>
      </trkpt>
      <trkpt lat="43.37946" lon="6.12987">
        <ele>373.60000610352</ele>
        <time>2015-06-17T12:58:48Z</time>
      </trkpt>
      <trkpt lat="43.37946" lon="6.1299">
        <ele>373.60000610352</ele>
        <time>2015-06-17T12:58:50Z</time>
      </trkpt>
      <trkpt lat="43.37946" lon="6.12993">
        <ele>374</ele>
        <time>2015-06-17T12:58:51Z</time>
      </trkpt>
      <trkpt lat="43.37945" lon="6.12994">
        <ele>374.20001220703</ele>
        <time>2015-06-17T12:58:52Z</time>
      </trkpt>
      <trkpt lat="43.37945" lon="6.12996">
        <ele>374.20001220703</ele>
        <time>2015-06-17T12:58:53Z</time>
      </trkpt>
      <trkpt lat="43.37944" lon="6.12998">
        <ele>374.60000610352</ele>
        <time>2015-06-17T12:58:54Z</time>
      </trkpt>
      <trkpt lat="43.37943" lon="6.13">
        <ele>374.79998779297</ele>
        <time>2015-06-17T12:58:56Z</time>
      </trkpt>
      <trkpt lat="43.3794" lon="6.13002">
        <ele>375</ele>
        <time>2015-06-17T12:58:58Z</time>
      </trkpt>
      <trkpt lat="43.37939" lon="6.13006">
        <ele>375.39999389648</ele>
        <time>2015-06-17T12:59:00Z</time>
      </trkpt>
      <trkpt lat="43.37938" lon="6.13007">
        <ele>375.60000610352</ele>
        <time>2015-06-17T12:59:01Z</time>
      </trkpt>
      <trkpt lat="43.37937" lon="6.13009">
        <ele>375.79998779297</ele>
        <time>2015-06-17T12:59:02Z</time>
      </trkpt>
      <trkpt lat="43.37936" lon="6.1301">
        <ele>375.79998779297</ele>
        <time>2015-06-17T12:59:03Z</time>
      </trkpt>
      <trkpt lat="43.37934" lon="6.13012">
        <ele>375.79998779297</ele>
        <time>2015-06-17T12:59:04Z</time>
      </trkpt>
      <trkpt lat="43.37933" lon="6.13016">
        <ele>375.79998779297</ele>
        <time>2015-06-17T12:59:06Z</time>
      </trkpt>
      <trkpt lat="43.37932" lon="6.13018">
        <ele>375.79998779297</ele>
        <time>2015-06-17T12:59:07Z</time>
      </trkpt>
      <trkpt lat="43.37931" lon="6.1302">
        <ele>376</ele>
        <time>2015-06-17T12:59:08Z</time>
      </trkpt>
      <trkpt lat="43.3793" lon="6.13022">
        <ele>376.20001220703</ele>
        <time>2015-06-17T12:59:09Z</time>
      </trkpt>
      <trkpt lat="43.37929" lon="6.13024">
        <ele>376.20001220703</ele>
        <time>2015-06-17T12:59:10Z</time>
      </trkpt>
      <trkpt lat="43.37926" lon="6.13029">
        <ele>376.60000610352</ele>
        <time>2015-06-17T12:59:12Z</time>
      </trkpt>
      <trkpt lat="43.37926" lon="6.1303">
        <ele>376.60000610352</ele>
        <time>2015-06-17T12:59:13Z</time>
      </trkpt>
      <trkpt lat="43.37925" lon="6.13032">
        <ele>377</ele>
        <time>2015-06-17T12:59:14Z</time>
      </trkpt>
      <trkpt lat="43.37923" lon="6.13035">
        <ele>377.20001220703</ele>
        <time>2015-06-17T12:59:16Z</time>
      </trkpt>
      <trkpt lat="43.37922" lon="6.13039">
        <ele>377.60000610352</ele>
        <time>2015-06-17T12:59:17Z</time>
      </trkpt>
      <trkpt lat="43.3792" lon="6.13043">
        <ele>377.60000610352</ele>
        <time>2015-06-17T12:59:18Z</time>
      </trkpt>
      <trkpt lat="43.37917" lon="6.13049">
        <ele>377.79998779297</ele>
        <time>2015-06-17T12:59:20Z</time>
      </trkpt>
      <trkpt lat="43.37915" lon="6.13054">
        <ele>378</ele>
        <time>2015-06-17T12:59:22Z</time>
      </trkpt>
      <trkpt lat="43.37914" lon="6.13059">
        <ele>378.20001220703</ele>
        <time>2015-06-17T12:59:24Z</time>
      </trkpt>
      <trkpt lat="43.37914" lon="6.13062">
        <ele>378.39999389648</ele>
        <time>2015-06-17T12:59:25Z</time>
      </trkpt>
      <trkpt lat="43.37915" lon="6.13065">
        <ele>378.60000610352</ele>
        <time>2015-06-17T12:59:26Z</time>
      </trkpt>
      <trkpt lat="43.37915" lon="6.1307">
        <ele>378.60000610352</ele>
        <time>2015-06-17T12:59:28Z</time>
      </trkpt>
      <trkpt lat="43.37915" lon="6.13075">
        <ele>378.79998779297</ele>
        <time>2015-06-17T12:59:30Z</time>
      </trkpt>
      <trkpt lat="43.37915" lon="6.1308">
        <ele>378.79998779297</ele>
        <time>2015-06-17T12:59:32Z</time>
      </trkpt>
      <trkpt lat="43.37914" lon="6.13084">
        <ele>379</ele>
        <time>2015-06-17T12:59:34Z</time>
      </trkpt>
      <trkpt lat="43.37912" lon="6.1309">
        <ele>379.20001220703</ele>
        <time>2015-06-17T12:59:36Z</time>
      </trkpt>
      <trkpt lat="43.37912" lon="6.13095">
        <ele>379.39999389648</ele>
        <time>2015-06-17T12:59:38Z</time>
      </trkpt>
      <trkpt lat="43.37909" lon="6.13102">
        <ele>380</ele>
        <time>2015-06-17T12:59:40Z</time>
      </trkpt>
      <trkpt lat="43.37907" lon="6.13109">
        <ele>380.39999389648</ele>
        <time>2015-06-17T12:59:42Z</time>
      </trkpt>
      <trkpt lat="43.37906" lon="6.13112">
        <ele>380.39999389648</ele>
        <time>2015-06-17T12:59:43Z</time>
      </trkpt>
      <trkpt lat="43.37906" lon="6.13115">
        <ele>380.39999389648</ele>
        <time>2015-06-17T12:59:44Z</time>
      </trkpt>
      <trkpt lat="43.37905" lon="6.13117">
        <ele>380.39999389648</ele>
        <time>2015-06-17T12:59:45Z</time>
      </trkpt>
      <trkpt lat="43.37905" lon="6.13119">
        <ele>380.39999389648</ele>
        <time>2015-06-17T12:59:46Z</time>
      </trkpt>
      <trkpt lat="43.37904" lon="6.13122">
        <ele>381</ele>
        <time>2015-06-17T12:59:48Z</time>
      </trkpt>
      <trkpt lat="43.37904" lon="6.13125">
        <ele>381.20001220703</ele>
        <time>2015-06-17T12:59:49Z</time>
      </trkpt>
      <trkpt lat="43.37903" lon="6.13127">
        <ele>381.39999389648</ele>
        <time>2015-06-17T12:59:50Z</time>
      </trkpt>
      <trkpt lat="43.37902" lon="6.13131">
        <ele>382</ele>
        <time>2015-06-17T12:59:52Z</time>
      </trkpt>
      <trkpt lat="43.37901" lon="6.13137">
        <ele>382.20001220703</ele>
        <time>2015-06-17T12:59:54Z</time>
      </trkpt>
      <trkpt lat="43.37899" lon="6.13143">
        <ele>382.20001220703</ele>
        <time>2015-06-17T12:59:56Z</time>
      </trkpt>
      <trkpt lat="43.37898" lon="6.13145">
        <ele>382.39999389648</ele>
        <time>2015-06-17T12:59:57Z</time>
      </trkpt>
      <trkpt lat="43.37898" lon="6.13147">
        <ele>382.39999389648</ele>
        <time>2015-06-17T12:59:58Z</time>
      </trkpt>
      <trkpt lat="43.37898" lon="6.13152">
        <ele>382.39999389648</ele>
        <time>2015-06-17T13:00:00Z</time>
      </trkpt>
      <trkpt lat="43.37896" lon="6.13156">
        <ele>382.79998779297</ele>
        <time>2015-06-17T13:00:02Z</time>
      </trkpt>
      <trkpt lat="43.37897" lon="6.1316">
        <ele>383.39999389648</ele>
        <time>2015-06-17T13:00:04Z</time>
      </trkpt>
      <trkpt lat="43.37897" lon="6.13162">
        <ele>383.60000610352</ele>
        <time>2015-06-17T13:00:05Z</time>
      </trkpt>
      <trkpt lat="43.37897" lon="6.13164">
        <ele>383.60000610352</ele>
        <time>2015-06-17T13:00:06Z</time>
      </trkpt>
      <trkpt lat="43.37897" lon="6.1317">
        <ele>384</ele>
        <time>2015-06-17T13:00:08Z</time>
      </trkpt>
      <trkpt lat="43.37897" lon="6.13174">
        <ele>384.39999389648</ele>
        <time>2015-06-17T13:00:10Z</time>
      </trkpt>
      <trkpt lat="43.37897" lon="6.13179">
        <ele>384.39999389648</ele>
        <time>2015-06-17T13:00:12Z</time>
      </trkpt>
      <trkpt lat="43.37898" lon="6.13183">
        <ele>384.39999389648</ele>
        <time>2015-06-17T13:00:14Z</time>
      </trkpt>
      <trkpt lat="43.37897" lon="6.13186">
        <ele>384.79998779297</ele>
        <time>2015-06-17T13:00:15Z</time>
      </trkpt>
      <trkpt lat="43.37897" lon="6.13188">
        <ele>385</ele>
        <time>2015-06-17T13:00:16Z</time>
      </trkpt>
      <trkpt lat="43.37895" lon="6.13195">
        <ele>385.20001220703</ele>
        <time>2015-06-17T13:00:18Z</time>
      </trkpt>
      <trkpt lat="43.37894" lon="6.13199">
        <ele>385.60000610352</ele>
        <time>2015-06-17T13:00:20Z</time>
      </trkpt>
      <trkpt lat="43.37894" lon="6.13201">
        <ele>385.79998779297</ele>
        <time>2015-06-17T13:00:21Z</time>
      </trkpt>
      <trkpt lat="43.37894" lon="6.13203">
        <ele>385.79998779297</ele>
        <time>2015-06-17T13:00:22Z</time>
      </trkpt>
      <trkpt lat="43.37894" lon="6.13207">
        <ele>386.20001220703</ele>
        <time>2015-06-17T13:00:24Z</time>
      </trkpt>
      <trkpt lat="43.37893" lon="6.1321">
        <ele>386.60000610352</ele>
        <time>2015-06-17T13:00:26Z</time>
      </trkpt>
      <trkpt lat="43.37893" lon="6.13213">
        <ele>387</ele>
        <time>2015-06-17T13:00:28Z</time>
      </trkpt>
      <trkpt lat="43.37893" lon="6.13217">
        <ele>387</ele>
        <time>2015-06-17T13:00:30Z</time>
      </trkpt>
      <trkpt lat="43.37891" lon="6.13221">
        <ele>387.39999389648</ele>
        <time>2015-06-17T13:00:32Z</time>
      </trkpt>
      <trkpt lat="43.37888" lon="6.13227">
        <ele>387.60000610352</ele>
        <time>2015-06-17T13:00:34Z</time>
      </trkpt>
      <trkpt lat="43.37886" lon="6.13231">
        <ele>387.79998779297</ele>
        <time>2015-06-17T13:00:36Z</time>
      </trkpt>
      <trkpt lat="43.37886" lon="6.13233">
        <ele>388</ele>
        <time>2015-06-17T13:00:37Z</time>
      </trkpt>
      <trkpt lat="43.37886" lon="6.13235">
        <ele>388.20001220703</ele>
        <time>2015-06-17T13:00:38Z</time>
      </trkpt>
      <trkpt lat="43.37886" lon="6.13236">
        <ele>388.20001220703</ele>
        <time>2015-06-17T13:00:39Z</time>
      </trkpt>
      <trkpt lat="43.37886" lon="6.13238">
        <ele>388.60000610352</ele>
        <time>2015-06-17T13:00:40Z</time>
      </trkpt>
      <trkpt lat="43.37887" lon="6.13242">
        <ele>389</ele>
        <time>2015-06-17T13:00:42Z</time>
      </trkpt>
      <trkpt lat="43.37886" lon="6.13245">
        <ele>389</ele>
        <time>2015-06-17T13:00:44Z</time>
      </trkpt>
      <trkpt lat="43.37886" lon="6.13247">
        <ele>389.20001220703</ele>
        <time>2015-06-17T13:00:45Z</time>
      </trkpt>
      <trkpt lat="43.37886" lon="6.13249">
        <ele>389.39999389648</ele>
        <time>2015-06-17T13:00:46Z</time>
      </trkpt>
      <trkpt lat="43.37886" lon="6.13252">
        <ele>389.60000610352</ele>
        <time>2015-06-17T13:00:48Z</time>
      </trkpt>
      <trkpt lat="43.37886" lon="6.13255">
        <ele>389.60000610352</ele>
        <time>2015-06-17T13:00:50Z</time>
      </trkpt>
      <trkpt lat="43.37885" lon="6.13258">
        <ele>389.79998779297</ele>
        <time>2015-06-17T13:00:51Z</time>
      </trkpt>
      <trkpt lat="43.37885" lon="6.13261">
        <ele>390.20001220703</ele>
        <time>2015-06-17T13:00:52Z</time>
      </trkpt>
      <trkpt lat="43.37883" lon="6.13263">
        <ele>390.39999389648</ele>
        <time>2015-06-17T13:00:53Z</time>
      </trkpt>
      <trkpt lat="43.37883" lon="6.13265">
        <ele>390.39999389648</ele>
        <time>2015-06-17T13:00:54Z</time>
      </trkpt>
      <trkpt lat="43.37882" lon="6.13269">
        <ele>390.60000610352</ele>
        <time>2015-06-17T13:00:56Z</time>
      </trkpt>
      <trkpt lat="43.37881" lon="6.13271">
        <ele>390.79998779297</ele>
        <time>2015-06-17T13:00:57Z</time>
      </trkpt>
      <trkpt lat="43.37881" lon="6.13274">
        <ele>391.39999389648</ele>
        <time>2015-06-17T13:00:58Z</time>
      </trkpt>
      <trkpt lat="43.37882" lon="6.13276">
        <ele>391.39999389648</ele>
        <time>2015-06-17T13:00:59Z</time>
      </trkpt>
      <trkpt lat="43.37882" lon="6.13278">
        <ele>391.39999389648</ele>
        <time>2015-06-17T13:01:00Z</time>
      </trkpt>
      <trkpt lat="43.37881" lon="6.13283">
        <ele>392</ele>
        <time>2015-06-17T13:01:02Z</time>
      </trkpt>
      <trkpt lat="43.37879" lon="6.13287">
        <ele>392</ele>
        <time>2015-06-17T13:01:04Z</time>
      </trkpt>
      <trkpt lat="43.37878" lon="6.13291">
        <ele>392.20001220703</ele>
        <time>2015-06-17T13:01:06Z</time>
      </trkpt>
      <trkpt lat="43.37878" lon="6.13294">
        <ele>392.39999389648</ele>
        <time>2015-06-17T13:01:07Z</time>
      </trkpt>
      <trkpt lat="43.37878" lon="6.13296">
        <ele>392.79998779297</ele>
        <time>2015-06-17T13:01:08Z</time>
      </trkpt>
      <trkpt lat="43.37877" lon="6.13301">
        <ele>393.60000610352</ele>
        <time>2015-06-17T13:01:10Z</time>
      </trkpt>
      <trkpt lat="43.37877" lon="6.13303">
        <ele>394</ele>
        <time>2015-06-17T13:01:11Z</time>
      </trkpt>
      <trkpt lat="43.37876" lon="6.13304">
        <ele>394.20001220703</ele>
        <time>2015-06-17T13:01:12Z</time>
      </trkpt>
      <trkpt lat="43.37875" lon="6.13306">
        <ele>394.39999389648</ele>
        <time>2015-06-17T13:01:13Z</time>
      </trkpt>
      <trkpt lat="43.37875" lon="6.13308">
        <ele>394.79998779297</ele>
        <time>2015-06-17T13:01:14Z</time>
      </trkpt>
      <trkpt lat="43.37874" lon="6.13311">
        <ele>395.39999389648</ele>
        <time>2015-06-17T13:01:16Z</time>
      </trkpt>
      <trkpt lat="43.37872" lon="6.13315">
        <ele>395.60000610352</ele>
        <time>2015-06-17T13:01:18Z</time>
      </trkpt>
      <trkpt lat="43.37872" lon="6.13318">
        <ele>395.79998779297</ele>
        <time>2015-06-17T13:01:19Z</time>
      </trkpt>
      <trkpt lat="43.37872" lon="6.1332">
        <ele>396</ele>
        <time>2015-06-17T13:01:20Z</time>
      </trkpt>
      <trkpt lat="43.37871" lon="6.13324">
        <ele>396.20001220703</ele>
        <time>2015-06-17T13:01:22Z</time>
      </trkpt>
      <trkpt lat="43.3787" lon="6.13328">
        <ele>396.39999389648</ele>
        <time>2015-06-17T13:01:24Z</time>
      </trkpt>
      <trkpt lat="43.3787" lon="6.13332">
        <ele>396.60000610352</ele>
        <time>2015-06-17T13:01:26Z</time>
      </trkpt>
      <trkpt lat="43.3787" lon="6.13336">
        <ele>396.60000610352</ele>
        <time>2015-06-17T13:01:28Z</time>
      </trkpt>
      <trkpt lat="43.3787" lon="6.1334">
        <ele>396.79998779297</ele>
        <time>2015-06-17T13:01:30Z</time>
      </trkpt>
      <trkpt lat="43.37869" lon="6.13343">
        <ele>397</ele>
        <time>2015-06-17T13:01:32Z</time>
      </trkpt>
      <trkpt lat="43.37869" lon="6.13345">
        <ele>397.20001220703</ele>
        <time>2015-06-17T13:01:33Z</time>
      </trkpt>
      <trkpt lat="43.3787" lon="6.13346">
        <ele>397.39999389648</ele>
        <time>2015-06-17T13:01:34Z</time>
      </trkpt>
      <trkpt lat="43.37869" lon="6.13349">
        <ele>397.39999389648</ele>
        <time>2015-06-17T13:01:36Z</time>
      </trkpt>
      <trkpt lat="43.37869" lon="6.13351">
        <ele>397.39999389648</ele>
        <time>2015-06-17T13:01:37Z</time>
      </trkpt>
      <trkpt lat="43.37869" lon="6.13353">
        <ele>397.39999389648</ele>
        <time>2015-06-17T13:01:38Z</time>
      </trkpt>
      <trkpt lat="43.37869" lon="6.13356">
        <ele>397.79998779297</ele>
        <time>2015-06-17T13:01:40Z</time>
      </trkpt>
      <trkpt lat="43.37868" lon="6.13361">
        <ele>397.60000610352</ele>
        <time>2015-06-17T13:01:42Z</time>
      </trkpt>
      <trkpt lat="43.37867" lon="6.13366">
        <ele>397.60000610352</ele>
        <time>2015-06-17T13:01:44Z</time>
      </trkpt>
      <trkpt lat="43.37865" lon="6.1337">
        <ele>397.60000610352</ele>
        <time>2015-06-17T13:01:46Z</time>
      </trkpt>
      <trkpt lat="43.37865" lon="6.13375">
        <ele>397.79998779297</ele>
        <time>2015-06-17T13:01:48Z</time>
      </trkpt>
      <trkpt lat="43.37865" lon="6.13377">
        <ele>398.20001220703</ele>
        <time>2015-06-17T13:01:49Z</time>
      </trkpt>
      <trkpt lat="43.37865" lon="6.13378">
        <ele>398.20001220703</ele>
        <time>2015-06-17T13:01:50Z</time>
      </trkpt>
      <trkpt lat="43.37864" lon="6.13383">
        <ele>397.60000610352</ele>
        <time>2015-06-17T13:01:52Z</time>
      </trkpt>
      <trkpt lat="43.37863" lon="6.1339">
        <ele>397.60000610352</ele>
        <time>2015-06-17T13:01:54Z</time>
      </trkpt>
      <trkpt lat="43.37862" lon="6.13394">
        <ele>397.79998779297</ele>
        <time>2015-06-17T13:01:56Z</time>
      </trkpt>
      <trkpt lat="43.3786" lon="6.13399">
        <ele>398</ele>
        <time>2015-06-17T13:01:58Z</time>
      </trkpt>
      <trkpt lat="43.3786" lon="6.13405">
        <ele>398</ele>
        <time>2015-06-17T13:02:00Z</time>
      </trkpt>
      <trkpt lat="43.3786" lon="6.13407">
        <ele>397.79998779297</ele>
        <time>2015-06-17T13:02:01Z</time>
      </trkpt>
      <trkpt lat="43.3786" lon="6.13409">
        <ele>397.60000610352</ele>
        <time>2015-06-17T13:02:02Z</time>
      </trkpt>
      <trkpt lat="43.3786" lon="6.13414">
        <ele>397.60000610352</ele>
        <time>2015-06-17T13:02:04Z</time>
      </trkpt>
      <trkpt lat="43.37859" lon="6.13421">
        <ele>398</ele>
        <time>2015-06-17T13:02:06Z</time>
      </trkpt>
      <trkpt lat="43.37859" lon="6.13424">
        <ele>398.20001220703</ele>
        <time>2015-06-17T13:02:07Z</time>
      </trkpt>
      <trkpt lat="43.37859" lon="6.13426">
        <ele>398.39999389648</ele>
        <time>2015-06-17T13:02:08Z</time>
      </trkpt>
      <trkpt lat="43.37858" lon="6.13432">
        <ele>398.60000610352</ele>
        <time>2015-06-17T13:02:10Z</time>
      </trkpt>
      <trkpt lat="43.37857" lon="6.13436">
        <ele>398.60000610352</ele>
        <time>2015-06-17T13:02:11Z</time>
      </trkpt>
      <trkpt lat="43.37857" lon="6.13438">
        <ele>398.79998779297</ele>
        <time>2015-06-17T13:02:12Z</time>
      </trkpt>
      <trkpt lat="43.37858" lon="6.13444">
        <ele>398.79998779297</ele>
        <time>2015-06-17T13:02:14Z</time>
      </trkpt>
      <trkpt lat="43.37858" lon="6.1345">
        <ele>399.20001220703</ele>
        <time>2015-06-17T13:02:16Z</time>
      </trkpt>
      <trkpt lat="43.37858" lon="6.13456">
        <ele>399.60000610352</ele>
        <time>2015-06-17T13:02:18Z</time>
      </trkpt>
      <trkpt lat="43.37858" lon="6.13458">
        <ele>400</ele>
        <time>2015-06-17T13:02:19Z</time>
      </trkpt>
      <trkpt lat="43.37858" lon="6.13461">
        <ele>400</ele>
        <time>2015-06-17T13:02:20Z</time>
      </trkpt>
      <trkpt lat="43.37859" lon="6.13464">
        <ele>399.79998779297</ele>
        <time>2015-06-17T13:02:22Z</time>
      </trkpt>
      <trkpt lat="43.37858" lon="6.13466">
        <ele>399.79998779297</ele>
        <time>2015-06-17T13:02:23Z</time>
      </trkpt>
      <trkpt lat="43.37858" lon="6.13468">
        <ele>400</ele>
        <time>2015-06-17T13:02:24Z</time>
      </trkpt>
      <trkpt lat="43.37857" lon="6.13471">
        <ele>400.79998779297</ele>
        <time>2015-06-17T13:02:26Z</time>
      </trkpt>
      <trkpt lat="43.37857" lon="6.13473">
        <ele>401</ele>
        <time>2015-06-17T13:02:27Z</time>
      </trkpt>
      <trkpt lat="43.37857" lon="6.13474">
        <ele>401.20001220703</ele>
        <time>2015-06-17T13:02:28Z</time>
      </trkpt>
      <trkpt lat="43.37857" lon="6.13477">
        <ele>401.39999389648</ele>
        <time>2015-06-17T13:02:30Z</time>
      </trkpt>
      <trkpt lat="43.37857" lon="6.13481">
        <ele>401.39999389648</ele>
        <time>2015-06-17T13:02:32Z</time>
      </trkpt>
      <trkpt lat="43.37857" lon="6.13487">
        <ele>401.79998779297</ele>
        <time>2015-06-17T13:02:34Z</time>
      </trkpt>
      <trkpt lat="43.37856" lon="6.13492">
        <ele>402</ele>
        <time>2015-06-17T13:02:36Z</time>
      </trkpt>
      <trkpt lat="43.37856" lon="6.13494">
        <ele>402.20001220703</ele>
        <time>2015-06-17T13:02:37Z</time>
      </trkpt>
      <trkpt lat="43.37856" lon="6.13496">
        <ele>402.20001220703</ele>
        <time>2015-06-17T13:02:38Z</time>
      </trkpt>
      <trkpt lat="43.37856" lon="6.13498">
        <ele>402.20001220703</ele>
        <time>2015-06-17T13:02:39Z</time>
      </trkpt>
      <trkpt lat="43.37856" lon="6.135">
        <ele>402.20001220703</ele>
        <time>2015-06-17T13:02:40Z</time>
      </trkpt>
      <trkpt lat="43.37856" lon="6.13504">
        <ele>402.39999389648</ele>
        <time>2015-06-17T13:02:42Z</time>
      </trkpt>
      <trkpt lat="43.37856" lon="6.13506">
        <ele>402.39999389648</ele>
        <time>2015-06-17T13:02:43Z</time>
      </trkpt>
      <trkpt lat="43.37856" lon="6.13508">
        <ele>402.79998779297</ele>
        <time>2015-06-17T13:02:44Z</time>
      </trkpt>
      <trkpt lat="43.37855" lon="6.13512">
        <ele>403</ele>
        <time>2015-06-17T13:02:46Z</time>
      </trkpt>
      <trkpt lat="43.37854" lon="6.13516">
        <ele>403</ele>
        <time>2015-06-17T13:02:48Z</time>
      </trkpt>
      <trkpt lat="43.37853" lon="6.13518">
        <ele>403</ele>
        <time>2015-06-17T13:02:49Z</time>
      </trkpt>
      <trkpt lat="43.37852" lon="6.1352">
        <ele>403.20001220703</ele>
        <time>2015-06-17T13:02:50Z</time>
      </trkpt>
      <trkpt lat="43.37852" lon="6.13522">
        <ele>403.39999389648</ele>
        <time>2015-06-17T13:02:51Z</time>
      </trkpt>
      <trkpt lat="43.37852" lon="6.13524">
        <ele>403.39999389648</ele>
        <time>2015-06-17T13:02:52Z</time>
      </trkpt>
      <trkpt lat="43.37851" lon="6.13527">
        <ele>403.60000610352</ele>
        <time>2015-06-17T13:02:54Z</time>
      </trkpt>
      <trkpt lat="43.3785" lon="6.13528">
        <ele>403.60000610352</ele>
        <time>2015-06-17T13:02:55Z</time>
      </trkpt>
      <trkpt lat="43.37849" lon="6.1353">
        <ele>403.60000610352</ele>
        <time>2015-06-17T13:02:56Z</time>
      </trkpt>
      <trkpt lat="43.37849" lon="6.13534">
        <ele>403.79998779297</ele>
        <time>2015-06-17T13:02:58Z</time>
      </trkpt>
      <trkpt lat="43.37849" lon="6.13538">
        <ele>403.79998779297</ele>
        <time>2015-06-17T13:03:00Z</time>
      </trkpt>
      <trkpt lat="43.37848" lon="6.13542">
        <ele>403.79998779297</ele>
        <time>2015-06-17T13:03:02Z</time>
      </trkpt>
      <trkpt lat="43.37848" lon="6.13543">
        <ele>403.60000610352</ele>
        <time>2015-06-17T13:03:03Z</time>
      </trkpt>
      <trkpt lat="43.37847" lon="6.13545">
        <ele>403.60000610352</ele>
        <time>2015-06-17T13:03:04Z</time>
      </trkpt>
      <trkpt lat="43.37845" lon="6.13546">
        <ele>403.60000610352</ele>
        <time>2015-06-17T13:03:06Z</time>
      </trkpt>
      <trkpt lat="43.37844" lon="6.13547">
        <ele>403.60000610352</ele>
        <time>2015-06-17T13:03:07Z</time>
      </trkpt>
      <trkpt lat="43.37843" lon="6.13548">
        <ele>403.79998779297</ele>
        <time>2015-06-17T13:03:08Z</time>
      </trkpt>
      <trkpt lat="43.37842" lon="6.13553">
        <ele>404</ele>
        <time>2015-06-17T13:03:10Z</time>
      </trkpt>
      <trkpt lat="43.3784" lon="6.13555">
        <ele>403.79998779297</ele>
        <time>2015-06-17T13:03:11Z</time>
      </trkpt>
      <trkpt lat="43.3784" lon="6.13556">
        <ele>404</ele>
        <time>2015-06-17T13:03:12Z</time>
      </trkpt>
      <trkpt lat="43.3784" lon="6.13557">
        <ele>403.79998779297</ele>
        <time>2015-06-17T13:03:14Z</time>
      </trkpt>
      <trkpt lat="43.3784" lon="6.13557">
        <ele>404</ele>
        <time>2015-06-17T13:03:15Z</time>
      </trkpt>
      <trkpt lat="43.3784" lon="6.13557">
        <ele>404</ele>
        <time>2015-06-17T13:03:16Z</time>
      </trkpt>
      <trkpt lat="43.3784" lon="6.13557">
        <ele>403.79998779297</ele>
        <time>2015-06-17T13:03:18Z</time>
      </trkpt>
      <trkpt lat="43.3784" lon="6.13557">
        <ele>403.79998779297</ele>
        <time>2015-06-17T13:03:20Z</time>
      </trkpt>
      <trkpt lat="43.3784" lon="6.13557">
        <ele>403.79998779297</ele>
        <time>2015-06-17T13:03:22Z</time>
      </trkpt>
      <trkpt lat="43.3784" lon="6.13557">
        <ele>403.79998779297</ele>
        <time>2015-06-17T13:03:24Z</time>
      </trkpt>
      <trkpt lat="43.3784" lon="6.13557">
        <ele>403.60000610352</ele>
        <time>2015-06-17T13:03:26Z</time>
      </trkpt>
      <trkpt lat="43.3784" lon="6.13557">
        <ele>403.60000610352</ele>
        <time>2015-06-17T13:03:28Z</time>
      </trkpt>
      <trkpt lat="43.3784" lon="6.13557">
        <ele>403.60000610352</ele>
        <time>2015-06-17T13:03:30Z</time>
      </trkpt>
      <trkpt lat="43.3784" lon="6.13557">
        <ele>403.79998779297</ele>
        <time>2015-06-17T13:03:32Z</time>
      </trkpt>
      <trkpt lat="43.3784" lon="6.13557">
        <ele>403.79998779297</ele>
        <time>2015-06-17T13:03:34Z</time>
      </trkpt>
      <trkpt lat="43.3784" lon="6.13557">
        <ele>403.79998779297</ele>
        <time>2015-06-17T13:03:36Z</time>
      </trkpt>
      <trkpt lat="43.3784" lon="6.13557">
        <ele>403.60000610352</ele>
        <time>2015-06-17T13:03:38Z</time>
      </trkpt>
      <trkpt lat="43.3784" lon="6.13557">
        <ele>403.79998779297</ele>
        <time>2015-06-17T13:03:40Z</time>
      </trkpt>
      <trkpt lat="43.3784" lon="6.13557">
        <ele>403.79998779297</ele>
        <time>2015-06-17T13:03:42Z</time>
      </trkpt>
      <trkpt lat="43.3784" lon="6.13557">
        <ele>403.60000610352</ele>
        <time>2015-06-17T13:03:43Z</time>
      </trkpt>
      <trkpt lat="43.3784" lon="6.13557">
        <ele>403.60000610352</ele>
        <time>2015-06-17T13:03:44Z</time>
      </trkpt>
      <trkpt lat="43.3784" lon="6.13557">
        <ele>403.39999389648</ele>
        <time>2015-06-17T13:03:46Z</time>
      </trkpt>
      <trkpt lat="43.3784" lon="6.13557">
        <ele>403.60000610352</ele>
        <time>2015-06-17T13:03:48Z</time>
      </trkpt>
      <trkpt lat="43.3784" lon="6.13557">
        <ele>403.60000610352</ele>
        <time>2015-06-17T13:03:50Z</time>
      </trkpt>
      <trkpt lat="43.3784" lon="6.13557">
        <ele>403.60000610352</ele>
        <time>2015-06-17T13:03:52Z</time>
      </trkpt>
      <trkpt lat="43.3784" lon="6.13557">
        <ele>403.60000610352</ele>
        <time>2015-06-17T13:03:54Z</time>
      </trkpt>
      <trkpt lat="43.3784" lon="6.13557">
        <ele>403.79998779297</ele>
        <time>2015-06-17T13:03:56Z</time>
      </trkpt>
      <trkpt lat="43.3784" lon="6.13557">
        <ele>404</ele>
        <time>2015-06-17T13:03:58Z</time>
      </trkpt>
      <trkpt lat="43.3784" lon="6.13557">
        <ele>403.79998779297</ele>
        <time>2015-06-17T13:04:00Z</time>
      </trkpt>
      <trkpt lat="43.3784" lon="6.13557">
        <ele>403.79998779297</ele>
        <time>2015-06-17T13:04:02Z</time>
      </trkpt>
      <trkpt lat="43.3784" lon="6.13557">
        <ele>403.79998779297</ele>
        <time>2015-06-17T13:04:04Z</time>
      </trkpt>
      <trkpt lat="43.3784" lon="6.13557">
        <ele>403.79998779297</ele>
        <time>2015-06-17T13:04:06Z</time>
      </trkpt>
      <trkpt lat="43.3784" lon="6.13557">
        <ele>403.79998779297</ele>
        <time>2015-06-17T13:04:08Z</time>
      </trkpt>
      <trkpt lat="43.3784" lon="6.13557">
        <ele>403.79998779297</ele>
        <time>2015-06-17T13:04:10Z</time>
      </trkpt>
      <trkpt lat="43.3784" lon="6.13557">
        <ele>403.60000610352</ele>
        <time>2015-06-17T13:04:12Z</time>
      </trkpt>
      <trkpt lat="43.3784" lon="6.13557">
        <ele>403.60000610352</ele>
        <time>2015-06-17T13:04:14Z</time>
      </trkpt>
      <trkpt lat="43.3784" lon="6.13557">
        <ele>403.60000610352</ele>
        <time>2015-06-17T13:04:15Z</time>
      </trkpt>
      <trkpt lat="43.3784" lon="6.13557">
        <ele>403.60000610352</ele>
        <time>2015-06-17T13:04:16Z</time>
      </trkpt>
      <trkpt lat="43.3784" lon="6.13557">
        <ele>403.60000610352</ele>
        <time>2015-06-17T13:04:18Z</time>
      </trkpt>
      <trkpt lat="43.3784" lon="6.13557">
        <ele>403.79998779297</ele>
        <time>2015-06-17T13:04:20Z</time>
      </trkpt>
      <trkpt lat="43.3784" lon="6.13557">
        <ele>403.79998779297</ele>
        <time>2015-06-17T13:04:22Z</time>
      </trkpt>
      <trkpt lat="43.3784" lon="6.13557">
        <ele>403.60000610352</ele>
        <time>2015-06-17T13:04:24Z</time>
      </trkpt>
      <trkpt lat="43.3784" lon="6.13557">
        <ele>403.79998779297</ele>
        <time>2015-06-17T13:04:26Z</time>
      </trkpt>
      <trkpt lat="43.3784" lon="6.13557">
        <ele>403.79998779297</ele>
        <time>2015-06-17T13:04:28Z</time>
      </trkpt>
      <trkpt lat="43.3784" lon="6.13557">
        <ele>403.60000610352</ele>
        <time>2015-06-17T13:04:30Z</time>
      </trkpt>
      <trkpt lat="43.3784" lon="6.13557">
        <ele>403.60000610352</ele>
        <time>2015-06-17T13:04:32Z</time>
      </trkpt>
      <trkpt lat="43.3784" lon="6.13557">
        <ele>403.60000610352</ele>
        <time>2015-06-17T13:04:34Z</time>
      </trkpt>
      <trkpt lat="43.3784" lon="6.13557">
        <ele>403.60000610352</ele>
        <time>2015-06-17T13:04:36Z</time>
      </trkpt>
      <trkpt lat="43.3784" lon="6.13557">
        <ele>403.60000610352</ele>
        <time>2015-06-17T13:04:38Z</time>
      </trkpt>
      <trkpt lat="43.3784" lon="6.13557">
        <ele>403.79998779297</ele>
        <time>2015-06-17T13:04:40Z</time>
      </trkpt>
      <trkpt lat="43.3784" lon="6.13557">
        <ele>403.60000610352</ele>
        <time>2015-06-17T13:04:42Z</time>
      </trkpt>
      <trkpt lat="43.3784" lon="6.13557">
        <ele>403.60000610352</ele>
        <time>2015-06-17T13:04:44Z</time>
      </trkpt>
      <trkpt lat="43.3784" lon="6.13557">
        <ele>403.60000610352</ele>
        <time>2015-06-17T13:04:46Z</time>
      </trkpt>
      <trkpt lat="43.3784" lon="6.13557">
        <ele>403.60000610352</ele>
        <time>2015-06-17T13:04:48Z</time>
      </trkpt>
      <trkpt lat="43.3784" lon="6.13557">
        <ele>403.60000610352</ele>
        <time>2015-06-17T13:04:50Z</time>
      </trkpt>
      <trkpt lat="43.3784" lon="6.13557">
        <ele>403.60000610352</ele>
        <time>2015-06-17T13:04:52Z</time>
      </trkpt>
      <trkpt lat="43.3784" lon="6.13557">
        <ele>403.60000610352</ele>
        <time>2015-06-17T13:04:54Z</time>
      </trkpt>
      <trkpt lat="43.3784" lon="6.13557">
        <ele>404</ele>
        <time>2015-06-17T13:04:56Z</time>
      </trkpt>
      <trkpt lat="43.3784" lon="6.13557">
        <ele>404</ele>
        <time>2015-06-17T13:04:58Z</time>
      </trkpt>
      <trkpt lat="43.3784" lon="6.13557">
        <ele>404</ele>
        <time>2015-06-17T13:05:00Z</time>
      </trkpt>
      <trkpt lat="43.3784" lon="6.13557">
        <ele>403.79998779297</ele>
        <time>2015-06-17T13:05:02Z</time>
      </trkpt>
      <trkpt lat="43.3784" lon="6.13557">
        <ele>404</ele>
        <time>2015-06-17T13:05:04Z</time>
      </trkpt>
      <trkpt lat="43.3784" lon="6.13557">
        <ele>404</ele>
        <time>2015-06-17T13:05:06Z</time>
      </trkpt>
      <trkpt lat="43.3784" lon="6.13557">
        <ele>403.79998779297</ele>
        <time>2015-06-17T13:05:08Z</time>
      </trkpt>
      <trkpt lat="43.3784" lon="6.13557">
        <ele>403.60000610352</ele>
        <time>2015-06-17T13:05:10Z</time>
      </trkpt>
      <trkpt lat="43.3784" lon="6.13557">
        <ele>403.39999389648</ele>
        <time>2015-06-17T13:05:12Z</time>
      </trkpt>
      <trkpt lat="43.3784" lon="6.13557">
        <ele>403.39999389648</ele>
        <time>2015-06-17T13:05:14Z</time>
      </trkpt>
      <trkpt lat="43.3784" lon="6.13557">
        <ele>403.60000610352</ele>
        <time>2015-06-17T13:05:16Z</time>
      </trkpt>
      <trkpt lat="43.3784" lon="6.13557">
        <ele>403.60000610352</ele>
        <time>2015-06-17T13:05:18Z</time>
      </trkpt>
      <trkpt lat="43.3784" lon="6.13557">
        <ele>403.60000610352</ele>
        <time>2015-06-17T13:05:20Z</time>
      </trkpt>
      <trkpt lat="43.3784" lon="6.13557">
        <ele>403.39999389648</ele>
        <time>2015-06-17T13:05:22Z</time>
      </trkpt>
      <trkpt lat="43.3784" lon="6.13557">
        <ele>403.20001220703</ele>
        <time>2015-06-17T13:05:24Z</time>
      </trkpt>
      <trkpt lat="43.3784" lon="6.13557">
        <ele>403.20001220703</ele>
        <time>2015-06-17T13:05:26Z</time>
      </trkpt>
      <trkpt lat="43.3784" lon="6.13557">
        <ele>403</ele>
        <time>2015-06-17T13:05:27Z</time>
      </trkpt>
      <trkpt lat="43.3784" lon="6.13557">
        <ele>403</ele>
        <time>2015-06-17T13:05:28Z</time>
      </trkpt>
      <trkpt lat="43.3784" lon="6.13557">
        <ele>403</ele>
        <time>2015-06-17T13:05:30Z</time>
      </trkpt>
      <trkpt lat="43.3784" lon="6.13557">
        <ele>402.79998779297</ele>
        <time>2015-06-17T13:05:32Z</time>
      </trkpt>
      <trkpt lat="43.3784" lon="6.13557">
        <ele>402.79998779297</ele>
        <time>2015-06-17T13:05:34Z</time>
      </trkpt>
      <trkpt lat="43.3784" lon="6.13557">
        <ele>403</ele>
        <time>2015-06-17T13:05:36Z</time>
      </trkpt>
      <trkpt lat="43.3784" lon="6.13557">
        <ele>402.79998779297</ele>
        <time>2015-06-17T13:05:38Z</time>
      </trkpt>
      <trkpt lat="43.3784" lon="6.13557">
        <ele>402.79998779297</ele>
        <time>2015-06-17T13:05:40Z</time>
      </trkpt>
      <trkpt lat="43.3784" lon="6.13557">
        <ele>402.79998779297</ele>
        <time>2015-06-17T13:05:42Z</time>
      </trkpt>
      <trkpt lat="43.3784" lon="6.13558">
        <ele>402.79998779297</ele>
        <time>2015-06-17T13:05:44Z</time>
      </trkpt>
      <trkpt lat="43.3784" lon="6.13558">
        <ele>403</ele>
        <time>2015-06-17T13:05:46Z</time>
      </trkpt>
      <trkpt lat="43.3784" lon="6.13557">
        <ele>403</ele>
        <time>2015-06-17T13:05:48Z</time>
      </trkpt>
      <trkpt lat="43.3784" lon="6.13557">
        <ele>403</ele>
        <time>2015-06-17T13:05:50Z</time>
      </trkpt>
      <trkpt lat="43.3784" lon="6.13557">
        <ele>403</ele>
        <time>2015-06-17T13:05:52Z</time>
      </trkpt>
      <trkpt lat="43.3784" lon="6.13557">
        <ele>403</ele>
        <time>2015-06-17T13:05:53Z</time>
      </trkpt>
      <trkpt lat="43.3784" lon="6.13557">
        <ele>403</ele>
        <time>2015-06-17T13:05:54Z</time>
      </trkpt>
      <trkpt lat="43.37841" lon="6.13557">
        <ele>403</ele>
        <time>2015-06-17T13:05:56Z</time>
      </trkpt>
      <trkpt lat="43.37841" lon="6.13557">
        <ele>402.79998779297</ele>
        <time>2015-06-17T13:05:58Z</time>
      </trkpt>
      <trkpt lat="43.37841" lon="6.13557">
        <ele>402.79998779297</ele>
        <time>2015-06-17T13:06:00Z</time>
      </trkpt>
      <trkpt lat="43.37841" lon="6.13557">
        <ele>403</ele>
        <time>2015-06-17T13:06:02Z</time>
      </trkpt>
      <trkpt lat="43.37841" lon="6.13558">
        <ele>402.79998779297</ele>
        <time>2015-06-17T13:06:04Z</time>
      </trkpt>
      <trkpt lat="43.37841" lon="6.13558">
        <ele>402.79998779297</ele>
        <time>2015-06-17T13:06:05Z</time>
      </trkpt>
      <trkpt lat="43.37841" lon="6.13558">
        <ele>402.60000610352</ele>
        <time>2015-06-17T13:06:06Z</time>
      </trkpt>
      <trkpt lat="43.37841" lon="6.13558">
        <ele>402.79998779297</ele>
        <time>2015-06-17T13:06:08Z</time>
      </trkpt>
      <trkpt lat="43.3784" lon="6.13558">
        <ele>402.60000610352</ele>
        <time>2015-06-17T13:06:10Z</time>
      </trkpt>
      <trkpt lat="43.3784" lon="6.13558">
        <ele>402.79998779297</ele>
        <time>2015-06-17T13:06:12Z</time>
      </trkpt>
      <trkpt lat="43.3784" lon="6.13558">
        <ele>402.60000610352</ele>
        <time>2015-06-17T13:06:14Z</time>
      </trkpt>
      <trkpt lat="43.3784" lon="6.13558">
        <ele>402.60000610352</ele>
        <time>2015-06-17T13:06:16Z</time>
      </trkpt>
      <trkpt lat="43.3784" lon="6.13558">
        <ele>402.79998779297</ele>
        <time>2015-06-17T13:06:18Z</time>
      </trkpt>
      <trkpt lat="43.3784" lon="6.13558">
        <ele>402.79998779297</ele>
        <time>2015-06-17T13:06:19Z</time>
      </trkpt>
      <trkpt lat="43.3784" lon="6.13558">
        <ele>402.79998779297</ele>
        <time>2015-06-17T13:06:20Z</time>
      </trkpt>
      <trkpt lat="43.3784" lon="6.13558">
        <ele>402.79998779297</ele>
        <time>2015-06-17T13:06:22Z</time>
      </trkpt>
      <trkpt lat="43.3784" lon="6.13558">
        <ele>403</ele>
        <time>2015-06-17T13:06:24Z</time>
      </trkpt>
      <trkpt lat="43.3784" lon="6.13558">
        <ele>402.79998779297</ele>
        <time>2015-06-17T13:06:26Z</time>
      </trkpt>
      <trkpt lat="43.3784" lon="6.13558">
        <ele>402.79998779297</ele>
        <time>2015-06-17T13:06:28Z</time>
      </trkpt>
      <trkpt lat="43.3784" lon="6.13558">
        <ele>402.79998779297</ele>
        <time>2015-06-17T13:06:29Z</time>
      </trkpt>
      <trkpt lat="43.3784" lon="6.13558">
        <ele>402.79998779297</ele>
        <time>2015-06-17T13:06:30Z</time>
      </trkpt>
      <trkpt lat="43.3784" lon="6.13558">
        <ele>402.79998779297</ele>
        <time>2015-06-17T13:06:32Z</time>
      </trkpt>
      <trkpt lat="43.3784" lon="6.13558">
        <ele>402.79998779297</ele>
        <time>2015-06-17T13:06:34Z</time>
      </trkpt>
      <trkpt lat="43.3784" lon="6.13558">
        <ele>402.79998779297</ele>
        <time>2015-06-17T13:06:36Z</time>
      </trkpt>
      <trkpt lat="43.3784" lon="6.13558">
        <ele>403</ele>
        <time>2015-06-17T13:06:38Z</time>
      </trkpt>
      <trkpt lat="43.3784" lon="6.13558">
        <ele>403</ele>
        <time>2015-06-17T13:06:40Z</time>
      </trkpt>
      <trkpt lat="43.3784" lon="6.13558">
        <ele>402.79998779297</ele>
        <time>2015-06-17T13:06:42Z</time>
      </trkpt>
      <trkpt lat="43.3784" lon="6.13558">
        <ele>403</ele>
        <time>2015-06-17T13:06:44Z</time>
      </trkpt>
      <trkpt lat="43.3784" lon="6.13558">
        <ele>403</ele>
        <time>2015-06-17T13:06:46Z</time>
      </trkpt>
      <trkpt lat="43.3784" lon="6.13558">
        <ele>402.79998779297</ele>
        <time>2015-06-17T13:06:47Z</time>
      </trkpt>
      <trkpt lat="43.3784" lon="6.13558">
        <ele>402.79998779297</ele>
        <time>2015-06-17T13:06:48Z</time>
      </trkpt>
      <trkpt lat="43.3784" lon="6.13557">
        <ele>403</ele>
        <time>2015-06-17T13:06:50Z</time>
      </trkpt>
      <trkpt lat="43.3784" lon="6.13557">
        <ele>403</ele>
        <time>2015-06-17T13:06:52Z</time>
      </trkpt>
      <trkpt lat="43.3784" lon="6.13558">
        <ele>402.79998779297</ele>
        <time>2015-06-17T13:06:54Z</time>
      </trkpt>
      <trkpt lat="43.3784" lon="6.13558">
        <ele>402.79998779297</ele>
        <time>2015-06-17T13:06:56Z</time>
      </trkpt>
      <trkpt lat="43.3784" lon="6.13558">
        <ele>402.79998779297</ele>
        <time>2015-06-17T13:06:58Z</time>
      </trkpt>
      <trkpt lat="43.3784" lon="6.13558">
        <ele>402.79998779297</ele>
        <time>2015-06-17T13:07:00Z</time>
      </trkpt>
      <trkpt lat="43.3784" lon="6.13558">
        <ele>402.79998779297</ele>
        <time>2015-06-17T13:07:02Z</time>
      </trkpt>
      <trkpt lat="43.3784" lon="6.13558">
        <ele>402.79998779297</ele>
        <time>2015-06-17T13:07:04Z</time>
      </trkpt>
      <trkpt lat="43.37841" lon="6.13558">
        <ele>403</ele>
        <time>2015-06-17T13:07:06Z</time>
      </trkpt>
      <trkpt lat="43.37841" lon="6.13558">
        <ele>403</ele>
        <time>2015-06-17T13:07:08Z</time>
      </trkpt>
      <trkpt lat="43.37841" lon="6.13558">
        <ele>403</ele>
        <time>2015-06-17T13:07:10Z</time>
      </trkpt>
      <trkpt lat="43.37841" lon="6.13558">
        <ele>403</ele>
        <time>2015-06-17T13:07:12Z</time>
      </trkpt>
      <trkpt lat="43.37841" lon="6.13559">
        <ele>403</ele>
        <time>2015-06-17T13:07:14Z</time>
      </trkpt>
      <trkpt lat="43.37841" lon="6.13559">
        <ele>403</ele>
        <time>2015-06-17T13:07:15Z</time>
      </trkpt>
      <trkpt lat="43.37841" lon="6.13559">
        <ele>403</ele>
        <time>2015-06-17T13:07:16Z</time>
      </trkpt>
      <trkpt lat="43.37841" lon="6.13559">
        <ele>402.79998779297</ele>
        <time>2015-06-17T13:07:18Z</time>
      </trkpt>
      <trkpt lat="43.37842" lon="6.13559">
        <ele>402.79998779297</ele>
        <time>2015-06-17T13:07:20Z</time>
      </trkpt>
      <trkpt lat="43.37842" lon="6.13559">
        <ele>403</ele>
        <time>2015-06-17T13:07:22Z</time>
      </trkpt>
      <trkpt lat="43.37841" lon="6.13559">
        <ele>402.79998779297</ele>
        <time>2015-06-17T13:07:24Z</time>
      </trkpt>
      <trkpt lat="43.37841" lon="6.13559">
        <ele>403</ele>
        <time>2015-06-17T13:07:26Z</time>
      </trkpt>
      <trkpt lat="43.37841" lon="6.13558">
        <ele>403</ele>
        <time>2015-06-17T13:07:28Z</time>
      </trkpt>
      <trkpt lat="43.37841" lon="6.13558">
        <ele>403</ele>
        <time>2015-06-17T13:07:30Z</time>
      </trkpt>
      <trkpt lat="43.37841" lon="6.13558">
        <ele>403.20001220703</ele>
        <time>2015-06-17T13:07:32Z</time>
      </trkpt>
      <trkpt lat="43.37841" lon="6.13558">
        <ele>403.20001220703</ele>
        <time>2015-06-17T13:07:34Z</time>
      </trkpt>
      <trkpt lat="43.37841" lon="6.13558">
        <ele>403.20001220703</ele>
        <time>2015-06-17T13:07:36Z</time>
      </trkpt>
      <trkpt lat="43.37841" lon="6.13558">
        <ele>403</ele>
        <time>2015-06-17T13:07:37Z</time>
      </trkpt>
      <trkpt lat="43.37841" lon="6.13558">
        <ele>403</ele>
        <time>2015-06-17T13:07:38Z</time>
      </trkpt>
      <trkpt lat="43.37841" lon="6.13558">
        <ele>403.20001220703</ele>
        <time>2015-06-17T13:07:40Z</time>
      </trkpt>
      <trkpt lat="43.37841" lon="6.13558">
        <ele>403.20001220703</ele>
        <time>2015-06-17T13:07:42Z</time>
      </trkpt>
      <trkpt lat="43.37841" lon="6.13558">
        <ele>403.39999389648</ele>
        <time>2015-06-17T13:07:44Z</time>
      </trkpt>
      <trkpt lat="43.37841" lon="6.13558">
        <ele>403.39999389648</ele>
        <time>2015-06-17T13:07:46Z</time>
      </trkpt>
      <trkpt lat="43.37841" lon="6.13558">
        <ele>403.39999389648</ele>
        <time>2015-06-17T13:07:48Z</time>
      </trkpt>
      <trkpt lat="43.37841" lon="6.13558">
        <ele>403.39999389648</ele>
        <time>2015-06-17T13:07:49Z</time>
      </trkpt>
      <trkpt lat="43.37841" lon="6.13558">
        <ele>403.20001220703</ele>
        <time>2015-06-17T13:07:50Z</time>
      </trkpt>
      <trkpt lat="43.37841" lon="6.13558">
        <ele>403.20001220703</ele>
        <time>2015-06-17T13:07:52Z</time>
      </trkpt>
      <trkpt lat="43.37841" lon="6.13558">
        <ele>403.20001220703</ele>
        <time>2015-06-17T13:07:54Z</time>
      </trkpt>
      <trkpt lat="43.37841" lon="6.13558">
        <ele>403.20001220703</ele>
        <time>2015-06-17T13:07:56Z</time>
      </trkpt>
      <trkpt lat="43.37841" lon="6.13558">
        <ele>403.20001220703</ele>
        <time>2015-06-17T13:07:58Z</time>
      </trkpt>
      <trkpt lat="43.37841" lon="6.13558">
        <ele>403.20001220703</ele>
        <time>2015-06-17T13:08:00Z</time>
      </trkpt>
      <trkpt lat="43.37841" lon="6.13558">
        <ele>403.20001220703</ele>
        <time>2015-06-17T13:08:02Z</time>
      </trkpt>
      <trkpt lat="43.37841" lon="6.13558">
        <ele>403.20001220703</ele>
        <time>2015-06-17T13:08:04Z</time>
      </trkpt>
      <trkpt lat="43.37841" lon="6.13558">
        <ele>403.20001220703</ele>
        <time>2015-06-17T13:08:06Z</time>
      </trkpt>
      <trkpt lat="43.37841" lon="6.13558">
        <ele>403</ele>
        <time>2015-06-17T13:08:08Z</time>
      </trkpt>
      <trkpt lat="43.37841" lon="6.13558">
        <ele>403</ele>
        <time>2015-06-17T13:08:10Z</time>
      </trkpt>
      <trkpt lat="43.37841" lon="6.13558">
        <ele>403</ele>
        <time>2015-06-17T13:08:12Z</time>
      </trkpt>
      <trkpt lat="43.37841" lon="6.13558">
        <ele>403</ele>
        <time>2015-06-17T13:08:14Z</time>
      </trkpt>
      <trkpt lat="43.37841" lon="6.13558">
        <ele>403</ele>
        <time>2015-06-17T13:08:16Z</time>
      </trkpt>
      <trkpt lat="43.37841" lon="6.13558">
        <ele>403.20001220703</ele>
        <time>2015-06-17T13:08:18Z</time>
      </trkpt>
      <trkpt lat="43.37841" lon="6.13558">
        <ele>403</ele>
        <time>2015-06-17T13:08:20Z</time>
      </trkpt>
      <trkpt lat="43.37841" lon="6.13558">
        <ele>403.20001220703</ele>
        <time>2015-06-17T13:08:22Z</time>
      </trkpt>
      <trkpt lat="43.37841" lon="6.13558">
        <ele>403.20001220703</ele>
        <time>2015-06-17T13:08:24Z</time>
      </trkpt>
      <trkpt lat="43.37841" lon="6.13558">
        <ele>403</ele>
        <time>2015-06-17T13:08:26Z</time>
      </trkpt>
      <trkpt lat="43.37841" lon="6.13558">
        <ele>403</ele>
        <time>2015-06-17T13:08:28Z</time>
      </trkpt>
      <trkpt lat="43.37841" lon="6.13558">
        <ele>403</ele>
        <time>2015-06-17T13:08:30Z</time>
      </trkpt>
      <trkpt lat="43.37841" lon="6.13558">
        <ele>403</ele>
        <time>2015-06-17T13:08:32Z</time>
      </trkpt>
      <trkpt lat="43.37841" lon="6.13558">
        <ele>403</ele>
        <time>2015-06-17T13:08:34Z</time>
      </trkpt>
      <trkpt lat="43.37841" lon="6.13558">
        <ele>403</ele>
        <time>2015-06-17T13:08:36Z</time>
      </trkpt>
      <trkpt lat="43.37841" lon="6.13558">
        <ele>403</ele>
        <time>2015-06-17T13:08:38Z</time>
      </trkpt>
      <trkpt lat="43.37841" lon="6.13558">
        <ele>403</ele>
        <time>2015-06-17T13:08:39Z</time>
      </trkpt>
      <trkpt lat="43.37841" lon="6.13559">
        <ele>403</ele>
        <time>2015-06-17T13:08:40Z</time>
      </trkpt>
      <trkpt lat="43.37841" lon="6.13559">
        <ele>402.79998779297</ele>
        <time>2015-06-17T13:08:42Z</time>
      </trkpt>
      <trkpt lat="43.37841" lon="6.13559">
        <ele>403</ele>
        <time>2015-06-17T13:08:44Z</time>
      </trkpt>
      <trkpt lat="43.37841" lon="6.13559">
        <ele>403</ele>
        <time>2015-06-17T13:08:46Z</time>
      </trkpt>
      <trkpt lat="43.37841" lon="6.13559">
        <ele>402.79998779297</ele>
        <time>2015-06-17T13:08:48Z</time>
      </trkpt>
      <trkpt lat="43.37841" lon="6.13559">
        <ele>402.60000610352</ele>
        <time>2015-06-17T13:08:50Z</time>
      </trkpt>
      <trkpt lat="43.37841" lon="6.13559">
        <ele>402.60000610352</ele>
        <time>2015-06-17T13:08:52Z</time>
      </trkpt>
      <trkpt lat="43.37841" lon="6.13559">
        <ele>402.79998779297</ele>
        <time>2015-06-17T13:08:54Z</time>
      </trkpt>
      <trkpt lat="43.37841" lon="6.13559">
        <ele>402.79998779297</ele>
        <time>2015-06-17T13:08:56Z</time>
      </trkpt>
      <trkpt lat="43.37841" lon="6.13559">
        <ele>403</ele>
        <time>2015-06-17T13:08:58Z</time>
      </trkpt>
      <trkpt lat="43.37841" lon="6.13559">
        <ele>403.20001220703</ele>
        <time>2015-06-17T13:09:00Z</time>
      </trkpt>
      <trkpt lat="43.37841" lon="6.13559">
        <ele>403</ele>
        <time>2015-06-17T13:09:02Z</time>
      </trkpt>
      <trkpt lat="43.37841" lon="6.13559">
        <ele>403.20001220703</ele>
        <time>2015-06-17T13:09:04Z</time>
      </trkpt>
      <trkpt lat="43.37841" lon="6.13559">
        <ele>403</ele>
        <time>2015-06-17T13:09:06Z</time>
      </trkpt>
      <trkpt lat="43.37841" lon="6.13559">
        <ele>403</ele>
        <time>2015-06-17T13:09:08Z</time>
      </trkpt>
      <trkpt lat="43.37841" lon="6.13559">
        <ele>403.39999389648</ele>
        <time>2015-06-17T13:09:10Z</time>
      </trkpt>
      <trkpt lat="43.37841" lon="6.13559">
        <ele>403.60000610352</ele>
        <time>2015-06-17T13:09:12Z</time>
      </trkpt>
      <trkpt lat="43.37841" lon="6.13559">
        <ele>403.79998779297</ele>
        <time>2015-06-17T13:09:14Z</time>
      </trkpt>
      <trkpt lat="43.37841" lon="6.13559">
        <ele>403.60000610352</ele>
        <time>2015-06-17T13:09:16Z</time>
      </trkpt>
      <trkpt lat="43.37841" lon="6.13559">
        <ele>403.79998779297</ele>
        <time>2015-06-17T13:09:18Z</time>
      </trkpt>
      <trkpt lat="43.37841" lon="6.13559">
        <ele>403.79998779297</ele>
        <time>2015-06-17T13:09:20Z</time>
      </trkpt>
      <trkpt lat="43.37841" lon="6.13559">
        <ele>403.79998779297</ele>
        <time>2015-06-17T13:09:22Z</time>
      </trkpt>
      <trkpt lat="43.37841" lon="6.13559">
        <ele>403.79998779297</ele>
        <time>2015-06-17T13:09:23Z</time>
      </trkpt>
      <trkpt lat="43.37841" lon="6.13559">
        <ele>403.60000610352</ele>
        <time>2015-06-17T13:09:24Z</time>
      </trkpt>
      <trkpt lat="43.37841" lon="6.13559">
        <ele>403.79998779297</ele>
        <time>2015-06-17T13:09:26Z</time>
      </trkpt>
      <trkpt lat="43.37841" lon="6.13559">
        <ele>403.79998779297</ele>
        <time>2015-06-17T13:09:28Z</time>
      </trkpt>
      <trkpt lat="43.37841" lon="6.13559">
        <ele>403.60000610352</ele>
        <time>2015-06-17T13:09:30Z</time>
      </trkpt>
      <trkpt lat="43.37841" lon="6.13559">
        <ele>403.60000610352</ele>
        <time>2015-06-17T13:09:32Z</time>
      </trkpt>
      <trkpt lat="43.37841" lon="6.13559">
        <ele>403.39999389648</ele>
        <time>2015-06-17T13:09:34Z</time>
      </trkpt>
      <trkpt lat="43.37841" lon="6.13559">
        <ele>403.39999389648</ele>
        <time>2015-06-17T13:09:36Z</time>
      </trkpt>
      <trkpt lat="43.37841" lon="6.13559">
        <ele>403.39999389648</ele>
        <time>2015-06-17T13:09:38Z</time>
      </trkpt>
      <trkpt lat="43.37841" lon="6.13559">
        <ele>403.60000610352</ele>
        <time>2015-06-17T13:09:40Z</time>
      </trkpt>
      <trkpt lat="43.37841" lon="6.13559">
        <ele>403.39999389648</ele>
        <time>2015-06-17T13:09:42Z</time>
      </trkpt>
      <trkpt lat="43.37841" lon="6.13559">
        <ele>403.39999389648</ele>
        <time>2015-06-17T13:09:44Z</time>
      </trkpt>
      <trkpt lat="43.37841" lon="6.13559">
        <ele>403.39999389648</ele>
        <time>2015-06-17T13:09:46Z</time>
      </trkpt>
      <trkpt lat="43.37841" lon="6.13559">
        <ele>403.39999389648</ele>
        <time>2015-06-17T13:09:48Z</time>
      </trkpt>
      <trkpt lat="43.37841" lon="6.13559">
        <ele>403.39999389648</ele>
        <time>2015-06-17T13:09:50Z</time>
      </trkpt>
      <trkpt lat="43.37841" lon="6.13559">
        <ele>403.60000610352</ele>
        <time>2015-06-17T13:09:52Z</time>
      </trkpt>
      <trkpt lat="43.37841" lon="6.13559">
        <ele>403.79998779297</ele>
        <time>2015-06-17T13:09:54Z</time>
      </trkpt>
      <trkpt lat="43.37841" lon="6.13559">
        <ele>403.60000610352</ele>
        <time>2015-06-17T13:09:56Z</time>
      </trkpt>
      <trkpt lat="43.37841" lon="6.13559">
        <ele>403.60000610352</ele>
        <time>2015-06-17T13:09:58Z</time>
      </trkpt>
      <trkpt lat="43.37841" lon="6.13559">
        <ele>403.39999389648</ele>
        <time>2015-06-17T13:10:00Z</time>
      </trkpt>
      <trkpt lat="43.37841" lon="6.13559">
        <ele>403.60000610352</ele>
        <time>2015-06-17T13:10:02Z</time>
      </trkpt>
      <trkpt lat="43.37841" lon="6.13559">
        <ele>403.60000610352</ele>
        <time>2015-06-17T13:10:04Z</time>
      </trkpt>
      <trkpt lat="43.37841" lon="6.13559">
        <ele>403.60000610352</ele>
        <time>2015-06-17T13:10:06Z</time>
      </trkpt>
      <trkpt lat="43.37841" lon="6.13559">
        <ele>403.79998779297</ele>
        <time>2015-06-17T13:10:08Z</time>
      </trkpt>
      <trkpt lat="43.37841" lon="6.13559">
        <ele>403.60000610352</ele>
        <time>2015-06-17T13:10:10Z</time>
      </trkpt>
      <trkpt lat="43.37841" lon="6.13559">
        <ele>403.79998779297</ele>
        <time>2015-06-17T13:10:12Z</time>
      </trkpt>
      <trkpt lat="43.37841" lon="6.13559">
        <ele>403.79998779297</ele>
        <time>2015-06-17T13:10:14Z</time>
      </trkpt>
      <trkpt lat="43.37841" lon="6.13559">
        <ele>403.60000610352</ele>
        <time>2015-06-17T13:10:16Z</time>
      </trkpt>
      <trkpt lat="43.37841" lon="6.13559">
        <ele>403.79998779297</ele>
        <time>2015-06-17T13:10:18Z</time>
      </trkpt>
      <trkpt lat="43.37841" lon="6.13559">
        <ele>403.79998779297</ele>
        <time>2015-06-17T13:10:20Z</time>
      </trkpt>
      <trkpt lat="43.37841" lon="6.13559">
        <ele>403.79998779297</ele>
        <time>2015-06-17T13:10:21Z</time>
      </trkpt>
      <trkpt lat="43.37841" lon="6.13559">
        <ele>403.60000610352</ele>
        <time>2015-06-17T13:10:22Z</time>
      </trkpt>
      <trkpt lat="43.37841" lon="6.13559">
        <ele>403.60000610352</ele>
        <time>2015-06-17T13:10:24Z</time>
      </trkpt>
      <trkpt lat="43.37841" lon="6.13559">
        <ele>403.79998779297</ele>
        <time>2015-06-17T13:10:26Z</time>
      </trkpt>
      <trkpt lat="43.37841" lon="6.13559">
        <ele>403.79998779297</ele>
        <time>2015-06-17T13:10:28Z</time>
      </trkpt>
      <trkpt lat="43.37841" lon="6.13559">
        <ele>403.79998779297</ele>
        <time>2015-06-17T13:10:30Z</time>
      </trkpt>
      <trkpt lat="43.37841" lon="6.13559">
        <ele>403.79998779297</ele>
        <time>2015-06-17T13:10:32Z</time>
      </trkpt>
      <trkpt lat="43.37841" lon="6.13559">
        <ele>403.79998779297</ele>
        <time>2015-06-17T13:10:34Z</time>
      </trkpt>
      <trkpt lat="43.37841" lon="6.13559">
        <ele>403.79998779297</ele>
        <time>2015-06-17T13:10:36Z</time>
      </trkpt>
      <trkpt lat="43.37841" lon="6.13559">
        <ele>403.79998779297</ele>
        <time>2015-06-17T13:10:38Z</time>
      </trkpt>
      <trkpt lat="43.37841" lon="6.13559">
        <ele>403.79998779297</ele>
        <time>2015-06-17T13:10:40Z</time>
      </trkpt>
      <trkpt lat="43.37841" lon="6.13559">
        <ele>404</ele>
        <time>2015-06-17T13:10:42Z</time>
      </trkpt>
      <trkpt lat="43.37841" lon="6.13559">
        <ele>403.79998779297</ele>
        <time>2015-06-17T13:10:44Z</time>
      </trkpt>
      <trkpt lat="43.37841" lon="6.13559">
        <ele>403.79998779297</ele>
        <time>2015-06-17T13:10:46Z</time>
      </trkpt>
      <trkpt lat="43.37841" lon="6.13559">
        <ele>403.79998779297</ele>
        <time>2015-06-17T13:10:48Z</time>
      </trkpt>
      <trkpt lat="43.37841" lon="6.13559">
        <ele>403.60000610352</ele>
        <time>2015-06-17T13:10:50Z</time>
      </trkpt>
      <trkpt lat="43.37841" lon="6.13559">
        <ele>404</ele>
        <time>2015-06-17T13:10:52Z</time>
      </trkpt>
      <trkpt lat="43.37841" lon="6.13559">
        <ele>404</ele>
        <time>2015-06-17T13:10:54Z</time>
      </trkpt>
      <trkpt lat="43.37841" lon="6.13559">
        <ele>404.20001220703</ele>
        <time>2015-06-17T13:10:56Z</time>
      </trkpt>
      <trkpt lat="43.37841" lon="6.13559">
        <ele>404</ele>
        <time>2015-06-17T13:10:58Z</time>
      </trkpt>
      <trkpt lat="43.37841" lon="6.13559">
        <ele>404</ele>
        <time>2015-06-17T13:11:00Z</time>
      </trkpt>
      <trkpt lat="43.37841" lon="6.13559">
        <ele>404</ele>
        <time>2015-06-17T13:11:02Z</time>
      </trkpt>
      <trkpt lat="43.37841" lon="6.13559">
        <ele>403.79998779297</ele>
        <time>2015-06-17T13:11:04Z</time>
      </trkpt>
      <trkpt lat="43.37841" lon="6.13559">
        <ele>403.79998779297</ele>
        <time>2015-06-17T13:11:06Z</time>
      </trkpt>
      <trkpt lat="43.37841" lon="6.13559">
        <ele>404</ele>
        <time>2015-06-17T13:11:08Z</time>
      </trkpt>
      <trkpt lat="43.37841" lon="6.13559">
        <ele>404</ele>
        <time>2015-06-17T13:11:10Z</time>
      </trkpt>
      <trkpt lat="43.37841" lon="6.13559">
        <ele>403.79998779297</ele>
        <time>2015-06-17T13:11:12Z</time>
      </trkpt>
      <trkpt lat="43.37841" lon="6.13559">
        <ele>404</ele>
        <time>2015-06-17T13:11:14Z</time>
      </trkpt>
      <trkpt lat="43.37841" lon="6.13559">
        <ele>404</ele>
        <time>2015-06-17T13:11:16Z</time>
      </trkpt>
      <trkpt lat="43.37841" lon="6.13559">
        <ele>404</ele>
        <time>2015-06-17T13:11:17Z</time>
      </trkpt>
      <trkpt lat="43.37841" lon="6.13559">
        <ele>404</ele>
        <time>2015-06-17T13:11:18Z</time>
      </trkpt>
      <trkpt lat="43.37841" lon="6.13559">
        <ele>403.79998779297</ele>
        <time>2015-06-17T13:11:20Z</time>
      </trkpt>
      <trkpt lat="43.37841" lon="6.13559">
        <ele>403.79998779297</ele>
        <time>2015-06-17T13:11:22Z</time>
      </trkpt>
      <trkpt lat="43.37841" lon="6.13559">
        <ele>404</ele>
        <time>2015-06-17T13:11:24Z</time>
      </trkpt>
      <trkpt lat="43.37841" lon="6.13559">
        <ele>403.79998779297</ele>
        <time>2015-06-17T13:11:26Z</time>
      </trkpt>
      <trkpt lat="43.37841" lon="6.13559">
        <ele>403.79998779297</ele>
        <time>2015-06-17T13:11:28Z</time>
      </trkpt>
      <trkpt lat="43.37841" lon="6.13559">
        <ele>403.79998779297</ele>
        <time>2015-06-17T13:11:30Z</time>
      </trkpt>
      <trkpt lat="43.37841" lon="6.13559">
        <ele>404</ele>
        <time>2015-06-17T13:11:32Z</time>
      </trkpt>
      <trkpt lat="43.37841" lon="6.13559">
        <ele>404</ele>
        <time>2015-06-17T13:11:34Z</time>
      </trkpt>
      <trkpt lat="43.37841" lon="6.13559">
        <ele>404</ele>
        <time>2015-06-17T13:11:36Z</time>
      </trkpt>
      <trkpt lat="43.37841" lon="6.13559">
        <ele>404</ele>
        <time>2015-06-17T13:11:38Z</time>
      </trkpt>
      <trkpt lat="43.37841" lon="6.13559">
        <ele>404</ele>
        <time>2015-06-17T13:11:40Z</time>
      </trkpt>
      <trkpt lat="43.37841" lon="6.13559">
        <ele>404</ele>
        <time>2015-06-17T13:11:42Z</time>
      </trkpt>
      <trkpt lat="43.37841" lon="6.13559">
        <ele>404</ele>
        <time>2015-06-17T13:11:44Z</time>
      </trkpt>
      <trkpt lat="43.37841" lon="6.13559">
        <ele>404</ele>
        <time>2015-06-17T13:11:46Z</time>
      </trkpt>
      <trkpt lat="43.37841" lon="6.13559">
        <ele>403.79998779297</ele>
        <time>2015-06-17T13:11:48Z</time>
      </trkpt>
      <trkpt lat="43.37841" lon="6.13559">
        <ele>404</ele>
        <time>2015-06-17T13:11:50Z</time>
      </trkpt>
      <trkpt lat="43.37841" lon="6.13559">
        <ele>404</ele>
        <time>2015-06-17T13:11:52Z</time>
      </trkpt>
      <trkpt lat="43.37841" lon="6.13559">
        <ele>404</ele>
        <time>2015-06-17T13:11:54Z</time>
      </trkpt>
      <trkpt lat="43.37841" lon="6.13559">
        <ele>404.20001220703</ele>
        <time>2015-06-17T13:11:56Z</time>
      </trkpt>
      <trkpt lat="43.37841" lon="6.1356">
        <ele>404.20001220703</ele>
        <time>2015-06-17T13:11:58Z</time>
      </trkpt>
      <trkpt lat="43.37841" lon="6.1356">
        <ele>404.20001220703</ele>
        <time>2015-06-17T13:12:00Z</time>
      </trkpt>
      <trkpt lat="43.37841" lon="6.1356">
        <ele>404.20001220703</ele>
        <time>2015-06-17T13:12:02Z</time>
      </trkpt>
      <trkpt lat="43.37841" lon="6.1356">
        <ele>404.20001220703</ele>
        <time>2015-06-17T13:12:03Z</time>
      </trkpt>
      <trkpt lat="43.37841" lon="6.1356">
        <ele>404.20001220703</ele>
        <time>2015-06-17T13:12:04Z</time>
      </trkpt>
      <trkpt lat="43.37841" lon="6.1356">
        <ele>404</ele>
        <time>2015-06-17T13:12:06Z</time>
      </trkpt>
      <trkpt lat="43.37841" lon="6.1356">
        <ele>404.20001220703</ele>
        <time>2015-06-17T13:12:08Z</time>
      </trkpt>
      <trkpt lat="43.37841" lon="6.1356">
        <ele>404.20001220703</ele>
        <time>2015-06-17T13:12:10Z</time>
      </trkpt>
      <trkpt lat="43.37841" lon="6.1356">
        <ele>404</ele>
        <time>2015-06-17T13:12:12Z</time>
      </trkpt>
      <trkpt lat="43.37841" lon="6.1356">
        <ele>404</ele>
        <time>2015-06-17T13:12:14Z</time>
      </trkpt>
      <trkpt lat="43.37841" lon="6.1356">
        <ele>404</ele>
        <time>2015-06-17T13:12:16Z</time>
      </trkpt>
      <trkpt lat="43.37841" lon="6.1356">
        <ele>403.79998779297</ele>
        <time>2015-06-17T13:12:18Z</time>
      </trkpt>
      <trkpt lat="43.37841" lon="6.1356">
        <ele>403.79998779297</ele>
        <time>2015-06-17T13:12:20Z</time>
      </trkpt>
      <trkpt lat="43.37841" lon="6.1356">
        <ele>403.79998779297</ele>
        <time>2015-06-17T13:12:22Z</time>
      </trkpt>
      <trkpt lat="43.37841" lon="6.1356">
        <ele>404</ele>
        <time>2015-06-17T13:12:24Z</time>
      </trkpt>
      <trkpt lat="43.37841" lon="6.1356">
        <ele>403.79998779297</ele>
        <time>2015-06-17T13:12:26Z</time>
      </trkpt>
      <trkpt lat="43.37841" lon="6.1356">
        <ele>403.79998779297</ele>
        <time>2015-06-17T13:12:28Z</time>
      </trkpt>
      <trkpt lat="43.37841" lon="6.1356">
        <ele>403.79998779297</ele>
        <time>2015-06-17T13:12:30Z</time>
      </trkpt>
      <trkpt lat="43.37841" lon="6.1356">
        <ele>403.79998779297</ele>
        <time>2015-06-17T13:12:32Z</time>
      </trkpt>
      <trkpt lat="43.37841" lon="6.1356">
        <ele>403.79998779297</ele>
        <time>2015-06-17T13:12:34Z</time>
      </trkpt>
      <trkpt lat="43.37841" lon="6.1356">
        <ele>403.60000610352</ele>
        <time>2015-06-17T13:12:36Z</time>
      </trkpt>
      <trkpt lat="43.37841" lon="6.1356">
        <ele>403.79998779297</ele>
        <time>2015-06-17T13:12:38Z</time>
      </trkpt>
      <trkpt lat="43.37841" lon="6.1356">
        <ele>403.79998779297</ele>
        <time>2015-06-17T13:12:40Z</time>
      </trkpt>
      <trkpt lat="43.37841" lon="6.1356">
        <ele>403.79998779297</ele>
        <time>2015-06-17T13:12:42Z</time>
      </trkpt>
      <trkpt lat="43.37841" lon="6.1356">
        <ele>403.79998779297</ele>
        <time>2015-06-17T13:12:44Z</time>
      </trkpt>
      <trkpt lat="43.37841" lon="6.1356">
        <ele>403.79998779297</ele>
        <time>2015-06-17T13:12:46Z</time>
      </trkpt>
      <trkpt lat="43.37841" lon="6.1356">
        <ele>404</ele>
        <time>2015-06-17T13:12:48Z</time>
      </trkpt>
      <trkpt lat="43.37841" lon="6.1356">
        <ele>404</ele>
        <time>2015-06-17T13:12:50Z</time>
      </trkpt>
      <trkpt lat="43.37841" lon="6.1356">
        <ele>403.79998779297</ele>
        <time>2015-06-17T13:12:52Z</time>
      </trkpt>
      <trkpt lat="43.37841" lon="6.1356">
        <ele>404</ele>
        <time>2015-06-17T13:12:54Z</time>
      </trkpt>
      <trkpt lat="43.37841" lon="6.1356">
        <ele>404</ele>
        <time>2015-06-17T13:12:56Z</time>
      </trkpt>
      <trkpt lat="43.37841" lon="6.1356">
        <ele>404</ele>
        <time>2015-06-17T13:12:58Z</time>
      </trkpt>
      <trkpt lat="43.37841" lon="6.1356">
        <ele>403.79998779297</ele>
        <time>2015-06-17T13:13:00Z</time>
      </trkpt>
      <trkpt lat="43.37841" lon="6.1356">
        <ele>403.79998779297</ele>
        <time>2015-06-17T13:13:02Z</time>
      </trkpt>
      <trkpt lat="43.37841" lon="6.1356">
        <ele>404</ele>
        <time>2015-06-17T13:13:04Z</time>
      </trkpt>
      <trkpt lat="43.37841" lon="6.1356">
        <ele>404</ele>
        <time>2015-06-17T13:13:06Z</time>
      </trkpt>
      <trkpt lat="43.37841" lon="6.1356">
        <ele>404</ele>
        <time>2015-06-17T13:13:08Z</time>
      </trkpt>
      <trkpt lat="43.37841" lon="6.1356">
        <ele>404</ele>
        <time>2015-06-17T13:13:10Z</time>
      </trkpt>
      <trkpt lat="43.37841" lon="6.1356">
        <ele>403.79998779297</ele>
        <time>2015-06-17T13:13:12Z</time>
      </trkpt>
      <trkpt lat="43.37841" lon="6.1356">
        <ele>403.79998779297</ele>
        <time>2015-06-17T13:13:14Z</time>
      </trkpt>
      <trkpt lat="43.37841" lon="6.1356">
        <ele>404</ele>
        <time>2015-06-17T13:13:16Z</time>
      </trkpt>
      <trkpt lat="43.37841" lon="6.1356">
        <ele>404</ele>
        <time>2015-06-17T13:13:18Z</time>
      </trkpt>
      <trkpt lat="43.37841" lon="6.1356">
        <ele>404</ele>
        <time>2015-06-17T13:13:20Z</time>
      </trkpt>
      <trkpt lat="43.37841" lon="6.1356">
        <ele>404</ele>
        <time>2015-06-17T13:13:22Z</time>
      </trkpt>
      <trkpt lat="43.37841" lon="6.1356">
        <ele>404</ele>
        <time>2015-06-17T13:13:24Z</time>
      </trkpt>
      <trkpt lat="43.37841" lon="6.1356">
        <ele>404.20001220703</ele>
        <time>2015-06-17T13:13:26Z</time>
      </trkpt>
      <trkpt lat="43.37841" lon="6.1356">
        <ele>404</ele>
        <time>2015-06-17T13:13:28Z</time>
      </trkpt>
      <trkpt lat="43.37841" lon="6.1356">
        <ele>404.20001220703</ele>
        <time>2015-06-17T13:13:30Z</time>
      </trkpt>
      <trkpt lat="43.37841" lon="6.1356">
        <ele>404.20001220703</ele>
        <time>2015-06-17T13:13:32Z</time>
      </trkpt>
      <trkpt lat="43.37841" lon="6.1356">
        <ele>404.20001220703</ele>
        <time>2015-06-17T13:13:34Z</time>
      </trkpt>
      <trkpt lat="43.37841" lon="6.1356">
        <ele>404.20001220703</ele>
        <time>2015-06-17T13:13:36Z</time>
      </trkpt>
      <trkpt lat="43.37841" lon="6.1356">
        <ele>403.79998779297</ele>
        <time>2015-06-17T13:13:38Z</time>
      </trkpt>
      <trkpt lat="43.37841" lon="6.1356">
        <ele>404</ele>
        <time>2015-06-17T13:13:40Z</time>
      </trkpt>
      <trkpt lat="43.37841" lon="6.1356">
        <ele>404</ele>
        <time>2015-06-17T13:13:42Z</time>
      </trkpt>
      <trkpt lat="43.37841" lon="6.1356">
        <ele>404</ele>
        <time>2015-06-17T13:13:44Z</time>
      </trkpt>
      <trkpt lat="43.37841" lon="6.1356">
        <ele>403.79998779297</ele>
        <time>2015-06-17T13:13:46Z</time>
      </trkpt>
      <trkpt lat="43.37841" lon="6.1356">
        <ele>403.79998779297</ele>
        <time>2015-06-17T13:13:48Z</time>
      </trkpt>
      <trkpt lat="43.37841" lon="6.1356">
        <ele>403.79998779297</ele>
        <time>2015-06-17T13:13:50Z</time>
      </trkpt>
      <trkpt lat="43.37841" lon="6.1356">
        <ele>403.60000610352</ele>
        <time>2015-06-17T13:13:52Z</time>
      </trkpt>
      <trkpt lat="43.37841" lon="6.1356">
        <ele>403.79998779297</ele>
        <time>2015-06-17T13:13:54Z</time>
      </trkpt>
      <trkpt lat="43.37841" lon="6.1356">
        <ele>404</ele>
        <time>2015-06-17T13:13:56Z</time>
      </trkpt>
      <trkpt lat="43.37841" lon="6.1356">
        <ele>404</ele>
        <time>2015-06-17T13:13:58Z</time>
      </trkpt>
      <trkpt lat="43.37841" lon="6.1356">
        <ele>403.79998779297</ele>
        <time>2015-06-17T13:14:00Z</time>
      </trkpt>
      <trkpt lat="43.37841" lon="6.1356">
        <ele>404</ele>
        <time>2015-06-17T13:14:02Z</time>
      </trkpt>
      <trkpt lat="43.37841" lon="6.1356">
        <ele>404</ele>
        <time>2015-06-17T13:14:04Z</time>
      </trkpt>
      <trkpt lat="43.37841" lon="6.1356">
        <ele>403.60000610352</ele>
        <time>2015-06-17T13:14:06Z</time>
      </trkpt>
      <trkpt lat="43.37841" lon="6.1356">
        <ele>403.79998779297</ele>
        <time>2015-06-17T13:14:08Z</time>
      </trkpt>
      <trkpt lat="43.37841" lon="6.1356">
        <ele>403.79998779297</ele>
        <time>2015-06-17T13:14:10Z</time>
      </trkpt>
      <trkpt lat="43.37841" lon="6.1356">
        <ele>403.79998779297</ele>
        <time>2015-06-17T13:14:12Z</time>
      </trkpt>
      <trkpt lat="43.37841" lon="6.1356">
        <ele>403.39999389648</ele>
        <time>2015-06-17T13:14:14Z</time>
      </trkpt>
      <trkpt lat="43.37841" lon="6.1356">
        <ele>403.60000610352</ele>
        <time>2015-06-17T13:14:16Z</time>
      </trkpt>
      <trkpt lat="43.37841" lon="6.1356">
        <ele>403.60000610352</ele>
        <time>2015-06-17T13:14:18Z</time>
      </trkpt>
      <trkpt lat="43.37841" lon="6.1356">
        <ele>403.60000610352</ele>
        <time>2015-06-17T13:14:20Z</time>
      </trkpt>
      <trkpt lat="43.37841" lon="6.1356">
        <ele>403.60000610352</ele>
        <time>2015-06-17T13:14:22Z</time>
      </trkpt>
      <trkpt lat="43.37841" lon="6.1356">
        <ele>403.79998779297</ele>
        <time>2015-06-17T13:14:24Z</time>
      </trkpt>
      <trkpt lat="43.37841" lon="6.1356">
        <ele>403.79998779297</ele>
        <time>2015-06-17T13:14:26Z</time>
      </trkpt>
      <trkpt lat="43.37841" lon="6.1356">
        <ele>403.79998779297</ele>
        <time>2015-06-17T13:14:28Z</time>
      </trkpt>
      <trkpt lat="43.37841" lon="6.1356">
        <ele>403.60000610352</ele>
        <time>2015-06-17T13:14:30Z</time>
      </trkpt>
      <trkpt lat="43.37841" lon="6.1356">
        <ele>403.79998779297</ele>
        <time>2015-06-17T13:14:32Z</time>
      </trkpt>
      <trkpt lat="43.37841" lon="6.1356">
        <ele>403.79998779297</ele>
        <time>2015-06-17T13:14:34Z</time>
      </trkpt>
      <trkpt lat="43.37841" lon="6.1356">
        <ele>403.79998779297</ele>
        <time>2015-06-17T13:14:36Z</time>
      </trkpt>
      <trkpt lat="43.37841" lon="6.1356">
        <ele>403.60000610352</ele>
        <time>2015-06-17T13:14:38Z</time>
      </trkpt>
      <trkpt lat="43.37841" lon="6.1356">
        <ele>403.60000610352</ele>
        <time>2015-06-17T13:14:40Z</time>
      </trkpt>
      <trkpt lat="43.37841" lon="6.1356">
        <ele>403.79998779297</ele>
        <time>2015-06-17T13:14:42Z</time>
      </trkpt>
      <trkpt lat="43.37841" lon="6.1356">
        <ele>403.79998779297</ele>
        <time>2015-06-17T13:14:43Z</time>
      </trkpt>
      <trkpt lat="43.37841" lon="6.1356">
        <ele>403.60000610352</ele>
        <time>2015-06-17T13:14:46Z</time>
      </trkpt>
      <trkpt lat="43.37841" lon="6.13559">
        <ele>403.60000610352</ele>
        <time>2015-06-17T13:14:48Z</time>
      </trkpt>
      <trkpt lat="43.37841" lon="6.1356">
        <ele>403.60000610352</ele>
        <time>2015-06-17T13:14:50Z</time>
      </trkpt>
      <trkpt lat="43.37841" lon="6.1356">
        <ele>403.60000610352</ele>
        <time>2015-06-17T13:14:52Z</time>
      </trkpt>
      <trkpt lat="43.37841" lon="6.1356">
        <ele>403.60000610352</ele>
        <time>2015-06-17T13:14:54Z</time>
      </trkpt>
      <trkpt lat="43.3784" lon="6.1356">
        <ele>403.60000610352</ele>
        <time>2015-06-17T13:14:56Z</time>
      </trkpt>
      <trkpt lat="43.37839" lon="6.1356">
        <ele>403.60000610352</ele>
        <time>2015-06-17T13:14:57Z</time>
      </trkpt>
      <trkpt lat="43.37838" lon="6.13559">
        <ele>403.60000610352</ele>
        <time>2015-06-17T13:14:58Z</time>
      </trkpt>
      <trkpt lat="43.37836" lon="6.13559">
        <ele>403.79998779297</ele>
        <time>2015-06-17T13:15:00Z</time>
      </trkpt>
      <trkpt lat="43.37834" lon="6.13558">
        <ele>404</ele>
        <time>2015-06-17T13:15:02Z</time>
      </trkpt>
      <trkpt lat="43.37832" lon="6.13558">
        <ele>404</ele>
        <time>2015-06-17T13:15:04Z</time>
      </trkpt>
      <trkpt lat="43.37831" lon="6.13558">
        <ele>403.79998779297</ele>
        <time>2015-06-17T13:15:05Z</time>
      </trkpt>
      <trkpt lat="43.37831" lon="6.13558">
        <ele>403.79998779297</ele>
        <time>2015-06-17T13:15:06Z</time>
      </trkpt>
      <trkpt lat="43.37828" lon="6.13558">
        <ele>404</ele>
        <time>2015-06-17T13:15:08Z</time>
      </trkpt>
      <trkpt lat="43.37826" lon="6.13557">
        <ele>403.39999389648</ele>
        <time>2015-06-17T13:15:10Z</time>
      </trkpt>
      <trkpt lat="43.37822" lon="6.13556">
        <ele>403.20001220703</ele>
        <time>2015-06-17T13:15:12Z</time>
      </trkpt>
      <trkpt lat="43.3782" lon="6.13555">
        <ele>403</ele>
        <time>2015-06-17T13:15:13Z</time>
      </trkpt>
      <trkpt lat="43.37819" lon="6.13555">
        <ele>403.20001220703</ele>
        <time>2015-06-17T13:15:14Z</time>
      </trkpt>
      <trkpt lat="43.37813" lon="6.13555">
        <ele>403</ele>
        <time>2015-06-17T13:15:16Z</time>
      </trkpt>
      <trkpt lat="43.37808" lon="6.13555">
        <ele>402.79998779297</ele>
        <time>2015-06-17T13:15:18Z</time>
      </trkpt>
      <trkpt lat="43.37801" lon="6.13557">
        <ele>402</ele>
        <time>2015-06-17T13:15:20Z</time>
      </trkpt>
      <trkpt lat="43.37795" lon="6.13558">
        <ele>401.60000610352</ele>
        <time>2015-06-17T13:15:22Z</time>
      </trkpt>
      <trkpt lat="43.37791" lon="6.13557">
        <ele>401.39999389648</ele>
        <time>2015-06-17T13:15:24Z</time>
      </trkpt>
      <trkpt lat="43.37789" lon="6.13558">
        <ele>401.39999389648</ele>
        <time>2015-06-17T13:15:25Z</time>
      </trkpt>
      <trkpt lat="43.37788" lon="6.13559">
        <ele>401.20001220703</ele>
        <time>2015-06-17T13:15:26Z</time>
      </trkpt>
      <trkpt lat="43.37782" lon="6.13567">
        <ele>401</ele>
        <time>2015-06-17T13:15:28Z</time>
      </trkpt>
      <trkpt lat="43.3778" lon="6.13571">
        <ele>400.79998779297</ele>
        <time>2015-06-17T13:15:29Z</time>
      </trkpt>
      <trkpt lat="43.37778" lon="6.13574">
        <ele>400.79998779297</ele>
        <time>2015-06-17T13:15:30Z</time>
      </trkpt>
      <trkpt lat="43.37775" lon="6.13577">
        <ele>400.79998779297</ele>
        <time>2015-06-17T13:15:31Z</time>
      </trkpt>
      <trkpt lat="43.37773" lon="6.13579">
        <ele>401</ele>
        <time>2015-06-17T13:15:32Z</time>
      </trkpt>
      <trkpt lat="43.37769" lon="6.13585">
        <ele>400.60000610352</ele>
        <time>2015-06-17T13:15:34Z</time>
      </trkpt>
      <trkpt lat="43.37765" lon="6.13589">
        <ele>400.60000610352</ele>
        <time>2015-06-17T13:15:36Z</time>
      </trkpt>
      <trkpt lat="43.37762" lon="6.13593">
        <ele>400.39999389648</ele>
        <time>2015-06-17T13:15:37Z</time>
      </trkpt>
      <trkpt lat="43.37761" lon="6.13595">
        <ele>400.60000610352</ele>
        <time>2015-06-17T13:15:38Z</time>
      </trkpt>
      <trkpt lat="43.37756" lon="6.13599">
        <ele>401</ele>
        <time>2015-06-17T13:15:40Z</time>
      </trkpt>
      <trkpt lat="43.37751" lon="6.13603">
        <ele>401</ele>
        <time>2015-06-17T13:15:42Z</time>
      </trkpt>
      <trkpt lat="43.37743" lon="6.1361">
        <ele>399.60000610352</ele>
        <time>2015-06-17T13:15:44Z</time>
      </trkpt>
      <trkpt lat="43.37738" lon="6.13615">
        <ele>397.79998779297</ele>
        <time>2015-06-17T13:15:45Z</time>
      </trkpt>
      <trkpt lat="43.37734" lon="6.13621">
        <ele>397.20001220703</ele>
        <time>2015-06-17T13:15:46Z</time>
      </trkpt>
      <trkpt lat="43.37725" lon="6.13633">
        <ele>398.20001220703</ele>
        <time>2015-06-17T13:15:48Z</time>
      </trkpt>
      <trkpt lat="43.37716" lon="6.13647">
        <ele>395.20001220703</ele>
        <time>2015-06-17T13:15:50Z</time>
      </trkpt>
      <trkpt lat="43.37704" lon="6.13659">
        <ele>395</ele>
        <time>2015-06-17T13:15:52Z</time>
      </trkpt>
      <trkpt lat="43.37695" lon="6.13669">
        <ele>393.20001220703</ele>
        <time>2015-06-17T13:15:54Z</time>
      </trkpt>
      <trkpt lat="43.37688" lon="6.13673">
        <ele>391.79998779297</ele>
        <time>2015-06-17T13:15:56Z</time>
      </trkpt>
      <trkpt lat="43.37685" lon="6.13672">
        <ele>391.39999389648</ele>
        <time>2015-06-17T13:15:57Z</time>
      </trkpt>
      <trkpt lat="43.37683" lon="6.1367">
        <ele>391.39999389648</ele>
        <time>2015-06-17T13:15:58Z</time>
      </trkpt>
      <trkpt lat="43.37677" lon="6.13663">
        <ele>390.20001220703</ele>
        <time>2015-06-17T13:16:00Z</time>
      </trkpt>
      <trkpt lat="43.37673" lon="6.13658">
        <ele>389.20001220703</ele>
        <time>2015-06-17T13:16:01Z</time>
      </trkpt>
      <trkpt lat="43.3767" lon="6.13653">
        <ele>388.60000610352</ele>
        <time>2015-06-17T13:16:02Z</time>
      </trkpt>
      <trkpt lat="43.37667" lon="6.13648">
        <ele>388.79998779297</ele>
        <time>2015-06-17T13:16:03Z</time>
      </trkpt>
      <trkpt lat="43.37665" lon="6.13643">
        <ele>387</ele>
        <time>2015-06-17T13:16:04Z</time>
      </trkpt>
      <trkpt lat="43.37663" lon="6.13639">
        <ele>386</ele>
        <time>2015-06-17T13:16:05Z</time>
      </trkpt>
      <trkpt lat="43.37661" lon="6.13635">
        <ele>386.60000610352</ele>
        <time>2015-06-17T13:16:06Z</time>
      </trkpt>
      <trkpt lat="43.37657" lon="6.13629">
        <ele>386.39999389648</ele>
        <time>2015-06-17T13:16:08Z</time>
      </trkpt>
      <trkpt lat="43.37656" lon="6.13627">
        <ele>386.20001220703</ele>
        <time>2015-06-17T13:16:09Z</time>
      </trkpt>
      <trkpt lat="43.37654" lon="6.13626">
        <ele>385.60000610352</ele>
        <time>2015-06-17T13:16:10Z</time>
      </trkpt>
      <trkpt lat="43.37654" lon="6.13625">
        <ele>385</ele>
        <time>2015-06-17T13:16:12Z</time>
      </trkpt>
      <trkpt lat="43.37653" lon="6.13623">
        <ele>384.39999389648</ele>
        <time>2015-06-17T13:16:14Z</time>
      </trkpt>
      <trkpt lat="43.37651" lon="6.13619">
        <ele>384.60000610352</ele>
        <time>2015-06-17T13:16:16Z</time>
      </trkpt>
      <trkpt lat="43.37649" lon="6.13614">
        <ele>384.20001220703</ele>
        <time>2015-06-17T13:16:18Z</time>
      </trkpt>
      <trkpt lat="43.37647" lon="6.13606">
        <ele>383</ele>
        <time>2015-06-17T13:16:20Z</time>
      </trkpt>
      <trkpt lat="43.37646" lon="6.13602">
        <ele>382.39999389648</ele>
        <time>2015-06-17T13:16:21Z</time>
      </trkpt>
      <trkpt lat="43.37645" lon="6.13597">
        <ele>382.39999389648</ele>
        <time>2015-06-17T13:16:22Z</time>
      </trkpt>
      <trkpt lat="43.37643" lon="6.13593">
        <ele>381.79998779297</ele>
        <time>2015-06-17T13:16:23Z</time>
      </trkpt>
      <trkpt lat="43.37641" lon="6.13589">
        <ele>380.79998779297</ele>
        <time>2015-06-17T13:16:24Z</time>
      </trkpt>
      <trkpt lat="43.3764" lon="6.13585">
        <ele>380.79998779297</ele>
        <time>2015-06-17T13:16:25Z</time>
      </trkpt>
      <trkpt lat="43.37638" lon="6.13581">
        <ele>380.39999389648</ele>
        <time>2015-06-17T13:16:26Z</time>
      </trkpt>
      <trkpt lat="43.37636" lon="6.13577">
        <ele>379.79998779297</ele>
        <time>2015-06-17T13:16:27Z</time>
      </trkpt>
      <trkpt lat="43.37634" lon="6.13571">
        <ele>379.60000610352</ele>
        <time>2015-06-17T13:16:28Z</time>
      </trkpt>
      <trkpt lat="43.3763" lon="6.13561">
        <ele>378.39999389648</ele>
        <time>2015-06-17T13:16:30Z</time>
      </trkpt>
      <trkpt lat="43.37629" lon="6.13556">
        <ele>379.20001220703</ele>
        <time>2015-06-17T13:16:31Z</time>
      </trkpt>
      <trkpt lat="43.37628" lon="6.1355">
        <ele>378</ele>
        <time>2015-06-17T13:16:32Z</time>
      </trkpt>
      <trkpt lat="43.37626" lon="6.13543">
        <ele>376.79998779297</ele>
        <time>2015-06-17T13:16:33Z</time>
      </trkpt>
      <trkpt lat="43.37624" lon="6.13536">
        <ele>375.39999389648</ele>
        <time>2015-06-17T13:16:34Z</time>
      </trkpt>
      <trkpt lat="43.37619" lon="6.13521">
        <ele>374.39999389648</ele>
        <time>2015-06-17T13:16:36Z</time>
      </trkpt>
      <trkpt lat="43.37615" lon="6.13507">
        <ele>374.60000610352</ele>
        <time>2015-06-17T13:16:38Z</time>
      </trkpt>
      <trkpt lat="43.37613" lon="6.13501">
        <ele>373.39999389648</ele>
        <time>2015-06-17T13:16:39Z</time>
      </trkpt>
      <trkpt lat="43.37611" lon="6.13494">
        <ele>372.39999389648</ele>
        <time>2015-06-17T13:16:40Z</time>
      </trkpt>
      <trkpt lat="43.37608" lon="6.13489">
        <ele>371.60000610352</ele>
        <time>2015-06-17T13:16:41Z</time>
      </trkpt>
      <trkpt lat="43.37606" lon="6.13483">
        <ele>372</ele>
        <time>2015-06-17T13:16:42Z</time>
      </trkpt>
      <trkpt lat="43.37602" lon="6.13474">
        <ele>370.20001220703</ele>
        <time>2015-06-17T13:16:44Z</time>
      </trkpt>
      <trkpt lat="43.376" lon="6.1347">
        <ele>368.60000610352</ele>
        <time>2015-06-17T13:16:45Z</time>
      </trkpt>
      <trkpt lat="43.37598" lon="6.13466">
        <ele>367.79998779297</ele>
        <time>2015-06-17T13:16:46Z</time>
      </trkpt>
      <trkpt lat="43.37596" lon="6.13463">
        <ele>366.79998779297</ele>
        <time>2015-06-17T13:16:47Z</time>
      </trkpt>
      <trkpt lat="43.37594" lon="6.13462">
        <ele>366.39999389648</ele>
        <time>2015-06-17T13:16:48Z</time>
      </trkpt>
      <trkpt lat="43.3759" lon="6.13465">
        <ele>366.60000610352</ele>
        <time>2015-06-17T13:16:50Z</time>
      </trkpt>
      <trkpt lat="43.37588" lon="6.13469">
        <ele>365.79998779297</ele>
        <time>2015-06-17T13:16:51Z</time>
      </trkpt>
      <trkpt lat="43.37586" lon="6.13473">
        <ele>365</ele>
        <time>2015-06-17T13:16:52Z</time>
      </trkpt>
      <trkpt lat="43.37585" lon="6.13478">
        <ele>364.20001220703</ele>
        <time>2015-06-17T13:16:53Z</time>
      </trkpt>
      <trkpt lat="43.37583" lon="6.13482">
        <ele>363</ele>
        <time>2015-06-17T13:16:54Z</time>
      </trkpt>
      <trkpt lat="43.3758" lon="6.13492">
        <ele>363.60000610352</ele>
        <time>2015-06-17T13:16:56Z</time>
      </trkpt>
      <trkpt lat="43.37576" lon="6.13502">
        <ele>362.60000610352</ele>
        <time>2015-06-17T13:16:58Z</time>
      </trkpt>
      <trkpt lat="43.37574" lon="6.13507">
        <ele>363</ele>
        <time>2015-06-17T13:16:59Z</time>
      </trkpt>
      <trkpt lat="43.37572" lon="6.13512">
        <ele>362.79998779297</ele>
        <time>2015-06-17T13:17:00Z</time>
      </trkpt>
      <trkpt lat="43.37568" lon="6.13516">
        <ele>361.39999389648</ele>
        <time>2015-06-17T13:17:02Z</time>
      </trkpt>
      <trkpt lat="43.37565" lon="6.13516">
        <ele>360.60000610352</ele>
        <time>2015-06-17T13:17:03Z</time>
      </trkpt>
      <trkpt lat="43.37563" lon="6.13513">
        <ele>360.39999389648</ele>
        <time>2015-06-17T13:17:04Z</time>
      </trkpt>
      <trkpt lat="43.37562" lon="6.13509">
        <ele>359.79998779297</ele>
        <time>2015-06-17T13:17:05Z</time>
      </trkpt>
      <trkpt lat="43.37563" lon="6.13505">
        <ele>359</ele>
        <time>2015-06-17T13:17:06Z</time>
      </trkpt>
      <trkpt lat="43.37562" lon="6.135">
        <ele>358.60000610352</ele>
        <time>2015-06-17T13:17:07Z</time>
      </trkpt>
      <trkpt lat="43.37561" lon="6.13495">
        <ele>358.60000610352</ele>
        <time>2015-06-17T13:17:08Z</time>
      </trkpt>
      <trkpt lat="43.3756" lon="6.13491">
        <ele>358.79998779297</ele>
        <time>2015-06-17T13:17:09Z</time>
      </trkpt>
      <trkpt lat="43.37559" lon="6.13487">
        <ele>358</ele>
        <time>2015-06-17T13:17:10Z</time>
      </trkpt>
      <trkpt lat="43.37558" lon="6.13483">
        <ele>356.20001220703</ele>
        <time>2015-06-17T13:17:11Z</time>
      </trkpt>
      <trkpt lat="43.37556" lon="6.1348">
        <ele>356</ele>
        <time>2015-06-17T13:17:12Z</time>
      </trkpt>
      <trkpt lat="43.37553" lon="6.13472">
        <ele>355.79998779297</ele>
        <time>2015-06-17T13:17:14Z</time>
      </trkpt>
      <trkpt lat="43.37551" lon="6.13469">
        <ele>355.20001220703</ele>
        <time>2015-06-17T13:17:15Z</time>
      </trkpt>
      <trkpt lat="43.37549" lon="6.13465">
        <ele>354.60000610352</ele>
        <time>2015-06-17T13:17:16Z</time>
      </trkpt>
      <trkpt lat="43.37546" lon="6.13462">
        <ele>354.20001220703</ele>
        <time>2015-06-17T13:17:17Z</time>
      </trkpt>
      <trkpt lat="43.37543" lon="6.1346">
        <ele>353.60000610352</ele>
        <time>2015-06-17T13:17:18Z</time>
      </trkpt>
      <trkpt lat="43.37541" lon="6.13459">
        <ele>352.20001220703</ele>
        <time>2015-06-17T13:17:19Z</time>
      </trkpt>
      <trkpt lat="43.37539" lon="6.13459">
        <ele>352</ele>
        <time>2015-06-17T13:17:20Z</time>
      </trkpt>
      <trkpt lat="43.37533" lon="6.13461">
        <ele>351.39999389648</ele>
        <time>2015-06-17T13:17:22Z</time>
      </trkpt>
      <trkpt lat="43.37531" lon="6.13462">
        <ele>351</ele>
        <time>2015-06-17T13:17:23Z</time>
      </trkpt>
      <trkpt lat="43.37529" lon="6.13465">
        <ele>350.39999389648</ele>
        <time>2015-06-17T13:17:24Z</time>
      </trkpt>
      <trkpt lat="43.37527" lon="6.13468">
        <ele>350</ele>
        <time>2015-06-17T13:17:25Z</time>
      </trkpt>
      <trkpt lat="43.37527" lon="6.13471">
        <ele>349.39999389648</ele>
        <time>2015-06-17T13:17:26Z</time>
      </trkpt>
      <trkpt lat="43.37526" lon="6.13473">
        <ele>349.20001220703</ele>
        <time>2015-06-17T13:17:27Z</time>
      </trkpt>
      <trkpt lat="43.37526" lon="6.13474">
        <ele>349.20001220703</ele>
        <time>2015-06-17T13:17:28Z</time>
      </trkpt>
      <trkpt lat="43.37526" lon="6.13474">
        <ele>349.39999389648</ele>
        <time>2015-06-17T13:17:30Z</time>
      </trkpt>
      <trkpt lat="43.37526" lon="6.13474">
        <ele>349.39999389648</ele>
        <time>2015-06-17T13:17:32Z</time>
      </trkpt>
      <trkpt lat="43.37526" lon="6.13474">
        <ele>349.60000610352</ele>
        <time>2015-06-17T13:17:34Z</time>
      </trkpt>
      <trkpt lat="43.37526" lon="6.13474">
        <ele>349.60000610352</ele>
        <time>2015-06-17T13:17:36Z</time>
      </trkpt>
      <trkpt lat="43.37526" lon="6.13474">
        <ele>349.39999389648</ele>
        <time>2015-06-17T13:17:38Z</time>
      </trkpt>
      <trkpt lat="43.37526" lon="6.13474">
        <ele>349.39999389648</ele>
        <time>2015-06-17T13:17:40Z</time>
      </trkpt>
      <trkpt lat="43.37526" lon="6.13474">
        <ele>349.39999389648</ele>
        <time>2015-06-17T13:17:42Z</time>
      </trkpt>
      <trkpt lat="43.37526" lon="6.13474">
        <ele>349.79998779297</ele>
        <time>2015-06-17T13:17:43Z</time>
      </trkpt>
      <trkpt lat="43.37526" lon="6.13474">
        <ele>349.79998779297</ele>
        <time>2015-06-17T13:17:44Z</time>
      </trkpt>
      <trkpt lat="43.37526" lon="6.13474">
        <ele>349.79998779297</ele>
        <time>2015-06-17T13:17:46Z</time>
      </trkpt>
      <trkpt lat="43.37526" lon="6.13474">
        <ele>350</ele>
        <time>2015-06-17T13:17:48Z</time>
      </trkpt>
      <trkpt lat="43.37526" lon="6.13474">
        <ele>350</ele>
        <time>2015-06-17T13:17:50Z</time>
      </trkpt>
      <trkpt lat="43.37526" lon="6.13474">
        <ele>349.79998779297</ele>
        <time>2015-06-17T13:17:52Z</time>
      </trkpt>
      <trkpt lat="43.37526" lon="6.13474">
        <ele>349.79998779297</ele>
        <time>2015-06-17T13:17:54Z</time>
      </trkpt>
      <trkpt lat="43.37526" lon="6.13474">
        <ele>349.79998779297</ele>
        <time>2015-06-17T13:17:56Z</time>
      </trkpt>
      <trkpt lat="43.37526" lon="6.13474">
        <ele>349.79998779297</ele>
        <time>2015-06-17T13:17:58Z</time>
      </trkpt>
      <trkpt lat="43.37526" lon="6.13474">
        <ele>350</ele>
        <time>2015-06-17T13:18:00Z</time>
      </trkpt>
      <trkpt lat="43.37526" lon="6.13474">
        <ele>349.79998779297</ele>
        <time>2015-06-17T13:18:02Z</time>
      </trkpt>
      <trkpt lat="43.37526" lon="6.13474">
        <ele>349.60000610352</ele>
        <time>2015-06-17T13:18:04Z</time>
      </trkpt>
      <trkpt lat="43.37526" lon="6.13474">
        <ele>349.39999389648</ele>
        <time>2015-06-17T13:18:06Z</time>
      </trkpt>
      <trkpt lat="43.37526" lon="6.13474">
        <ele>349.39999389648</ele>
        <time>2015-06-17T13:18:08Z</time>
      </trkpt>
      <trkpt lat="43.37526" lon="6.13474">
        <ele>349.60000610352</ele>
        <time>2015-06-17T13:18:10Z</time>
      </trkpt>
      <trkpt lat="43.37526" lon="6.13474">
        <ele>349.39999389648</ele>
        <time>2015-06-17T13:18:12Z</time>
      </trkpt>
      <trkpt lat="43.37526" lon="6.13474">
        <ele>349.20001220703</ele>
        <time>2015-06-17T13:18:14Z</time>
      </trkpt>
      <trkpt lat="43.37526" lon="6.13474">
        <ele>349.39999389648</ele>
        <time>2015-06-17T13:18:16Z</time>
      </trkpt>
      <trkpt lat="43.37526" lon="6.13474">
        <ele>349.20001220703</ele>
        <time>2015-06-17T13:18:18Z</time>
      </trkpt>
      <trkpt lat="43.37526" lon="6.13474">
        <ele>349.20001220703</ele>
        <time>2015-06-17T13:18:20Z</time>
      </trkpt>
      <trkpt lat="43.37526" lon="6.13474">
        <ele>349.39999389648</ele>
        <time>2015-06-17T13:18:22Z</time>
      </trkpt>
      <trkpt lat="43.37526" lon="6.13474">
        <ele>349.20001220703</ele>
        <time>2015-06-17T13:18:24Z</time>
      </trkpt>
      <trkpt lat="43.37526" lon="6.13474">
        <ele>349.20001220703</ele>
        <time>2015-06-17T13:18:26Z</time>
      </trkpt>
      <trkpt lat="43.37526" lon="6.13474">
        <ele>349.39999389648</ele>
        <time>2015-06-17T13:18:28Z</time>
      </trkpt>
      <trkpt lat="43.37526" lon="6.13474">
        <ele>349.39999389648</ele>
        <time>2015-06-17T13:18:30Z</time>
      </trkpt>
      <trkpt lat="43.37526" lon="6.13474">
        <ele>349</ele>
        <time>2015-06-17T13:18:32Z</time>
      </trkpt>
      <trkpt lat="43.37526" lon="6.13474">
        <ele>349</ele>
        <time>2015-06-17T13:18:33Z</time>
      </trkpt>
      <trkpt lat="43.37526" lon="6.13474">
        <ele>349</ele>
        <time>2015-06-17T13:18:34Z</time>
      </trkpt>
      <trkpt lat="43.37526" lon="6.13474">
        <ele>349.20001220703</ele>
        <time>2015-06-17T13:18:35Z</time>
      </trkpt>
      <trkpt lat="43.37526" lon="6.13474">
        <ele>349.39999389648</ele>
        <time>2015-06-17T13:18:36Z</time>
      </trkpt>
      <trkpt lat="43.37526" lon="6.13474">
        <ele>349.20001220703</ele>
        <time>2015-06-17T13:18:38Z</time>
      </trkpt>
      <trkpt lat="43.37526" lon="6.13474">
        <ele>349</ele>
        <time>2015-06-17T13:18:40Z</time>
      </trkpt>
      <trkpt lat="43.37526" lon="6.13474">
        <ele>349.20001220703</ele>
        <time>2015-06-17T13:18:42Z</time>
      </trkpt>
      <trkpt lat="43.37526" lon="6.13474">
        <ele>349.20001220703</ele>
        <time>2015-06-17T13:18:44Z</time>
      </trkpt>
      <trkpt lat="43.37526" lon="6.13474">
        <ele>349</ele>
        <time>2015-06-17T13:18:46Z</time>
      </trkpt>
      <trkpt lat="43.37526" lon="6.13474">
        <ele>349</ele>
        <time>2015-06-17T13:18:48Z</time>
      </trkpt>
      <trkpt lat="43.37526" lon="6.13474">
        <ele>349.20001220703</ele>
        <time>2015-06-17T13:18:50Z</time>
      </trkpt>
      <trkpt lat="43.37526" lon="6.13474">
        <ele>349</ele>
        <time>2015-06-17T13:18:52Z</time>
      </trkpt>
      <trkpt lat="43.37526" lon="6.13474">
        <ele>349</ele>
        <time>2015-06-17T13:18:53Z</time>
      </trkpt>
      <trkpt lat="43.37526" lon="6.13474">
        <ele>349</ele>
        <time>2015-06-17T13:18:54Z</time>
      </trkpt>
      <trkpt lat="43.37526" lon="6.13474">
        <ele>349.39999389648</ele>
        <time>2015-06-17T13:18:56Z</time>
      </trkpt>
      <trkpt lat="43.37526" lon="6.13474">
        <ele>349.20001220703</ele>
        <time>2015-06-17T13:18:58Z</time>
      </trkpt>
      <trkpt lat="43.37526" lon="6.13474">
        <ele>349</ele>
        <time>2015-06-17T13:19:00Z</time>
      </trkpt>
      <trkpt lat="43.37526" lon="6.13474">
        <ele>349.39999389648</ele>
        <time>2015-06-17T13:19:02Z</time>
      </trkpt>
      <trkpt lat="43.37526" lon="6.13474">
        <ele>349.39999389648</ele>
        <time>2015-06-17T13:19:04Z</time>
      </trkpt>
      <trkpt lat="43.37526" lon="6.13474">
        <ele>349.39999389648</ele>
        <time>2015-06-17T13:19:06Z</time>
      </trkpt>
      <trkpt lat="43.37526" lon="6.13474">
        <ele>349.39999389648</ele>
        <time>2015-06-17T13:19:08Z</time>
      </trkpt>
      <trkpt lat="43.37526" lon="6.13474">
        <ele>349.39999389648</ele>
        <time>2015-06-17T13:19:10Z</time>
      </trkpt>
      <trkpt lat="43.37526" lon="6.13474">
        <ele>349.39999389648</ele>
        <time>2015-06-17T13:19:12Z</time>
      </trkpt>
      <trkpt lat="43.37526" lon="6.13474">
        <ele>349.20001220703</ele>
        <time>2015-06-17T13:19:14Z</time>
      </trkpt>
      <trkpt lat="43.37526" lon="6.13474">
        <ele>349.20001220703</ele>
        <time>2015-06-17T13:19:16Z</time>
      </trkpt>
      <trkpt lat="43.37526" lon="6.13474">
        <ele>349.39999389648</ele>
        <time>2015-06-17T13:19:18Z</time>
      </trkpt>
      <trkpt lat="43.37526" lon="6.13474">
        <ele>349.60000610352</ele>
        <time>2015-06-17T13:19:19Z</time>
      </trkpt>
      <trkpt lat="43.37526" lon="6.13474">
        <ele>349.60000610352</ele>
        <time>2015-06-17T13:19:20Z</time>
      </trkpt>
      <trkpt lat="43.37526" lon="6.13474">
        <ele>349.20001220703</ele>
        <time>2015-06-17T13:19:22Z</time>
      </trkpt>
      <trkpt lat="43.37526" lon="6.13474">
        <ele>349.20001220703</ele>
        <time>2015-06-17T13:19:24Z</time>
      </trkpt>
      <trkpt lat="43.37526" lon="6.13474">
        <ele>349.39999389648</ele>
        <time>2015-06-17T13:19:26Z</time>
      </trkpt>
      <trkpt lat="43.37526" lon="6.13475">
        <ele>349.60000610352</ele>
        <time>2015-06-17T13:19:28Z</time>
      </trkpt>
      <trkpt lat="43.37526" lon="6.13475">
        <ele>349.60000610352</ele>
        <time>2015-06-17T13:19:30Z</time>
      </trkpt>
      <trkpt lat="43.37526" lon="6.13475">
        <ele>349.20001220703</ele>
        <time>2015-06-17T13:19:32Z</time>
      </trkpt>
      <trkpt lat="43.37526" lon="6.13475">
        <ele>349.39999389648</ele>
        <time>2015-06-17T13:19:34Z</time>
      </trkpt>
      <trkpt lat="43.37526" lon="6.13475">
        <ele>349</ele>
        <time>2015-06-17T13:19:36Z</time>
      </trkpt>
      <trkpt lat="43.37526" lon="6.13475">
        <ele>348.60000610352</ele>
        <time>2015-06-17T13:19:38Z</time>
      </trkpt>
      <trkpt lat="43.37526" lon="6.13475">
        <ele>348.79998779297</ele>
        <time>2015-06-17T13:19:40Z</time>
      </trkpt>
      <trkpt lat="43.37526" lon="6.13475">
        <ele>348.79998779297</ele>
        <time>2015-06-17T13:19:42Z</time>
      </trkpt>
      <trkpt lat="43.37526" lon="6.13475">
        <ele>348.60000610352</ele>
        <time>2015-06-17T13:19:43Z</time>
      </trkpt>
      <trkpt lat="43.37526" lon="6.13475">
        <ele>348.60000610352</ele>
        <time>2015-06-17T13:19:44Z</time>
      </trkpt>
      <trkpt lat="43.37526" lon="6.13475">
        <ele>348.60000610352</ele>
        <time>2015-06-17T13:19:46Z</time>
      </trkpt>
      <trkpt lat="43.37526" lon="6.13475">
        <ele>348.79998779297</ele>
        <time>2015-06-17T13:19:48Z</time>
      </trkpt>
      <trkpt lat="43.37526" lon="6.13475">
        <ele>349</ele>
        <time>2015-06-17T13:19:50Z</time>
      </trkpt>
      <trkpt lat="43.37526" lon="6.13475">
        <ele>349.20001220703</ele>
        <time>2015-06-17T13:19:52Z</time>
      </trkpt>
      <trkpt lat="43.37526" lon="6.13475">
        <ele>349</ele>
        <time>2015-06-17T13:19:54Z</time>
      </trkpt>
      <trkpt lat="43.37526" lon="6.13475">
        <ele>349</ele>
        <time>2015-06-17T13:19:56Z</time>
      </trkpt>
      <trkpt lat="43.37526" lon="6.13475">
        <ele>349</ele>
        <time>2015-06-17T13:19:58Z</time>
      </trkpt>
      <trkpt lat="43.37526" lon="6.13475">
        <ele>349.20001220703</ele>
        <time>2015-06-17T13:20:00Z</time>
      </trkpt>
      <trkpt lat="43.37526" lon="6.13475">
        <ele>349.39999389648</ele>
        <time>2015-06-17T13:20:02Z</time>
      </trkpt>
      <trkpt lat="43.37526" lon="6.13475">
        <ele>349.39999389648</ele>
        <time>2015-06-17T13:20:04Z</time>
      </trkpt>
      <trkpt lat="43.37526" lon="6.13475">
        <ele>349.39999389648</ele>
        <time>2015-06-17T13:20:05Z</time>
      </trkpt>
      <trkpt lat="43.37526" lon="6.13475">
        <ele>349.20001220703</ele>
        <time>2015-06-17T13:20:06Z</time>
      </trkpt>
      <trkpt lat="43.37526" lon="6.13475">
        <ele>349.39999389648</ele>
        <time>2015-06-17T13:20:08Z</time>
      </trkpt>
      <trkpt lat="43.37526" lon="6.13475">
        <ele>349.39999389648</ele>
        <time>2015-06-17T13:20:10Z</time>
      </trkpt>
      <trkpt lat="43.37526" lon="6.13475">
        <ele>349</ele>
        <time>2015-06-17T13:20:12Z</time>
      </trkpt>
      <trkpt lat="43.37526" lon="6.13475">
        <ele>348.79998779297</ele>
        <time>2015-06-17T13:20:14Z</time>
      </trkpt>
      <trkpt lat="43.37526" lon="6.13475">
        <ele>349</ele>
        <time>2015-06-17T13:20:16Z</time>
      </trkpt>
      <trkpt lat="43.37526" lon="6.13475">
        <ele>349.20001220703</ele>
        <time>2015-06-17T13:20:18Z</time>
      </trkpt>
      <trkpt lat="43.37526" lon="6.13475">
        <ele>349.20001220703</ele>
        <time>2015-06-17T13:20:20Z</time>
      </trkpt>
      <trkpt lat="43.37526" lon="6.13475">
        <ele>349.20001220703</ele>
        <time>2015-06-17T13:20:22Z</time>
      </trkpt>
      <trkpt lat="43.37526" lon="6.13475">
        <ele>349.20001220703</ele>
        <time>2015-06-17T13:20:24Z</time>
      </trkpt>
      <trkpt lat="43.37526" lon="6.13475">
        <ele>349</ele>
        <time>2015-06-17T13:20:26Z</time>
      </trkpt>
      <trkpt lat="43.37526" lon="6.13475">
        <ele>349.20001220703</ele>
        <time>2015-06-17T13:20:28Z</time>
      </trkpt>
      <trkpt lat="43.37526" lon="6.13477">
        <ele>349.60000610352</ele>
        <time>2015-06-17T13:20:30Z</time>
      </trkpt>
      <trkpt lat="43.37525" lon="6.13481">
        <ele>349.60000610352</ele>
        <time>2015-06-17T13:20:32Z</time>
      </trkpt>
      <trkpt lat="43.37525" lon="6.13485">
        <ele>349.79998779297</ele>
        <time>2015-06-17T13:20:34Z</time>
      </trkpt>
      <trkpt lat="43.37526" lon="6.1349">
        <ele>349.20001220703</ele>
        <time>2015-06-17T13:20:36Z</time>
      </trkpt>
      <trkpt lat="43.37527" lon="6.13495">
        <ele>350</ele>
        <time>2015-06-17T13:20:38Z</time>
      </trkpt>
      <trkpt lat="43.37527" lon="6.13498">
        <ele>350.79998779297</ele>
        <time>2015-06-17T13:20:39Z</time>
      </trkpt>
      <trkpt lat="43.37528" lon="6.13501">
        <ele>351</ele>
        <time>2015-06-17T13:20:40Z</time>
      </trkpt>
      <trkpt lat="43.37529" lon="6.13508">
        <ele>350.20001220703</ele>
        <time>2015-06-17T13:20:42Z</time>
      </trkpt>
      <trkpt lat="43.37529" lon="6.13516">
        <ele>351.39999389648</ele>
        <time>2015-06-17T13:20:44Z</time>
      </trkpt>
      <trkpt lat="43.3753" lon="6.13523">
        <ele>351.20001220703</ele>
        <time>2015-06-17T13:20:46Z</time>
      </trkpt>
      <trkpt lat="43.3753" lon="6.13527">
        <ele>351</ele>
        <time>2015-06-17T13:20:47Z</time>
      </trkpt>
      <trkpt lat="43.3753" lon="6.1353">
        <ele>351.39999389648</ele>
        <time>2015-06-17T13:20:48Z</time>
      </trkpt>
      <trkpt lat="43.37529" lon="6.13537">
        <ele>352</ele>
        <time>2015-06-17T13:20:50Z</time>
      </trkpt>
      <trkpt lat="43.3753" lon="6.13544">
        <ele>352.20001220703</ele>
        <time>2015-06-17T13:20:52Z</time>
      </trkpt>
      <trkpt lat="43.3753" lon="6.1355">
        <ele>352</ele>
        <time>2015-06-17T13:20:54Z</time>
      </trkpt>
      <trkpt lat="43.3753" lon="6.13556">
        <ele>352.20001220703</ele>
        <time>2015-06-17T13:20:56Z</time>
      </trkpt>
      <trkpt lat="43.37531" lon="6.13561">
        <ele>352.39999389648</ele>
        <time>2015-06-17T13:20:58Z</time>
      </trkpt>
      <trkpt lat="43.37532" lon="6.13564">
        <ele>352.60000610352</ele>
        <time>2015-06-17T13:20:59Z</time>
      </trkpt>
      <trkpt lat="43.37532" lon="6.13566">
        <ele>352.60000610352</ele>
        <time>2015-06-17T13:21:00Z</time>
      </trkpt>
      <trkpt lat="43.37534" lon="6.13571">
        <ele>353</ele>
        <time>2015-06-17T13:21:02Z</time>
      </trkpt>
      <trkpt lat="43.37535" lon="6.13577">
        <ele>353.20001220703</ele>
        <time>2015-06-17T13:21:04Z</time>
      </trkpt>
      <trkpt lat="43.37536" lon="6.1358">
        <ele>353.60000610352</ele>
        <time>2015-06-17T13:21:05Z</time>
      </trkpt>
      <trkpt lat="43.37537" lon="6.13582">
        <ele>353.79998779297</ele>
        <time>2015-06-17T13:21:06Z</time>
      </trkpt>
      <trkpt lat="43.37538" lon="6.13588">
        <ele>353.79998779297</ele>
        <time>2015-06-17T13:21:08Z</time>
      </trkpt>
      <trkpt lat="43.37539" lon="6.13593">
        <ele>353.79998779297</ele>
        <time>2015-06-17T13:21:10Z</time>
      </trkpt>
      <trkpt lat="43.3754" lon="6.13599">
        <ele>354</ele>
        <time>2015-06-17T13:21:12Z</time>
      </trkpt>
      <trkpt lat="43.37542" lon="6.13604">
        <ele>354.39999389648</ele>
        <time>2015-06-17T13:21:14Z</time>
      </trkpt>
      <trkpt lat="43.37542" lon="6.13607">
        <ele>354.60000610352</ele>
        <time>2015-06-17T13:21:15Z</time>
      </trkpt>
      <trkpt lat="43.37543" lon="6.1361">
        <ele>354.79998779297</ele>
        <time>2015-06-17T13:21:16Z</time>
      </trkpt>
      <trkpt lat="43.37544" lon="6.13613">
        <ele>354.79998779297</ele>
        <time>2015-06-17T13:21:17Z</time>
      </trkpt>
      <trkpt lat="43.37545" lon="6.13615">
        <ele>354.79998779297</ele>
        <time>2015-06-17T13:21:18Z</time>
      </trkpt>
      <trkpt lat="43.37546" lon="6.1362">
        <ele>355</ele>
        <time>2015-06-17T13:21:20Z</time>
      </trkpt>
      <trkpt lat="43.37548" lon="6.13626">
        <ele>355.20001220703</ele>
        <time>2015-06-17T13:21:22Z</time>
      </trkpt>
      <trkpt lat="43.3755" lon="6.13631">
        <ele>355</ele>
        <time>2015-06-17T13:21:24Z</time>
      </trkpt>
      <trkpt lat="43.3755" lon="6.13634">
        <ele>355</ele>
        <time>2015-06-17T13:21:25Z</time>
      </trkpt>
      <trkpt lat="43.37551" lon="6.13637">
        <ele>355.39999389648</ele>
        <time>2015-06-17T13:21:26Z</time>
      </trkpt>
      <trkpt lat="43.37551" lon="6.1364">
        <ele>355.79998779297</ele>
        <time>2015-06-17T13:21:27Z</time>
      </trkpt>
      <trkpt lat="43.37552" lon="6.13643">
        <ele>356</ele>
        <time>2015-06-17T13:21:28Z</time>
      </trkpt>
      <trkpt lat="43.37553" lon="6.13649">
        <ele>356</ele>
        <time>2015-06-17T13:21:30Z</time>
      </trkpt>
      <trkpt lat="43.37553" lon="6.13655">
        <ele>356.39999389648</ele>
        <time>2015-06-17T13:21:32Z</time>
      </trkpt>
      <trkpt lat="43.37554" lon="6.13662">
        <ele>356.20001220703</ele>
        <time>2015-06-17T13:21:34Z</time>
      </trkpt>
      <trkpt lat="43.37554" lon="6.13669">
        <ele>356.39999389648</ele>
        <time>2015-06-17T13:21:36Z</time>
      </trkpt>
      <trkpt lat="43.37554" lon="6.13676">
        <ele>356.39999389648</ele>
        <time>2015-06-17T13:21:38Z</time>
      </trkpt>
      <trkpt lat="43.37554" lon="6.13683">
        <ele>356.60000610352</ele>
        <time>2015-06-17T13:21:40Z</time>
      </trkpt>
      <trkpt lat="43.37554" lon="6.13689">
        <ele>356.79998779297</ele>
        <time>2015-06-17T13:21:42Z</time>
      </trkpt>
      <trkpt lat="43.37555" lon="6.13696">
        <ele>357</ele>
        <time>2015-06-17T13:21:44Z</time>
      </trkpt>
      <trkpt lat="43.37556" lon="6.13702">
        <ele>357.39999389648</ele>
        <time>2015-06-17T13:21:46Z</time>
      </trkpt>
      <trkpt lat="43.37557" lon="6.13705">
        <ele>357.79998779297</ele>
        <time>2015-06-17T13:21:47Z</time>
      </trkpt>
      <trkpt lat="43.37557" lon="6.13708">
        <ele>358</ele>
        <time>2015-06-17T13:21:48Z</time>
      </trkpt>
      <trkpt lat="43.37559" lon="6.13713">
        <ele>358</ele>
        <time>2015-06-17T13:21:50Z</time>
      </trkpt>
      <trkpt lat="43.3756" lon="6.13718">
        <ele>358.60000610352</ele>
        <time>2015-06-17T13:21:52Z</time>
      </trkpt>
      <trkpt lat="43.3756" lon="6.13721">
        <ele>358.79998779297</ele>
        <time>2015-06-17T13:21:53Z</time>
      </trkpt>
      <trkpt lat="43.37561" lon="6.13724">
        <ele>358.79998779297</ele>
        <time>2015-06-17T13:21:54Z</time>
      </trkpt>
      <trkpt lat="43.37562" lon="6.1373">
        <ele>359</ele>
        <time>2015-06-17T13:21:56Z</time>
      </trkpt>
      <trkpt lat="43.37563" lon="6.13736">
        <ele>359</ele>
        <time>2015-06-17T13:21:58Z</time>
      </trkpt>
      <trkpt lat="43.37564" lon="6.13742">
        <ele>359.39999389648</ele>
        <time>2015-06-17T13:22:00Z</time>
      </trkpt>
      <trkpt lat="43.37564" lon="6.13744">
        <ele>359.60000610352</ele>
        <time>2015-06-17T13:22:01Z</time>
      </trkpt>
      <trkpt lat="43.37564" lon="6.13747">
        <ele>360</ele>
        <time>2015-06-17T13:22:02Z</time>
      </trkpt>
      <trkpt lat="43.37565" lon="6.13753">
        <ele>360.20001220703</ele>
        <time>2015-06-17T13:22:04Z</time>
      </trkpt>
      <trkpt lat="43.37566" lon="6.13759">
        <ele>360.39999389648</ele>
        <time>2015-06-17T13:22:06Z</time>
      </trkpt>
      <trkpt lat="43.37566" lon="6.13764">
        <ele>360.79998779297</ele>
        <time>2015-06-17T13:22:08Z</time>
      </trkpt>
      <trkpt lat="43.37567" lon="6.1377">
        <ele>360.79998779297</ele>
        <time>2015-06-17T13:22:10Z</time>
      </trkpt>
      <trkpt lat="43.37568" lon="6.13776">
        <ele>361</ele>
        <time>2015-06-17T13:22:12Z</time>
      </trkpt>
      <trkpt lat="43.37568" lon="6.13779">
        <ele>361.39999389648</ele>
        <time>2015-06-17T13:22:13Z</time>
      </trkpt>
      <trkpt lat="43.37568" lon="6.13782">
        <ele>361.20001220703</ele>
        <time>2015-06-17T13:22:14Z</time>
      </trkpt>
      <trkpt lat="43.37569" lon="6.13788">
        <ele>361.20001220703</ele>
        <time>2015-06-17T13:22:16Z</time>
      </trkpt>
      <trkpt lat="43.37569" lon="6.13794">
        <ele>361.39999389648</ele>
        <time>2015-06-17T13:22:18Z</time>
      </trkpt>
      <trkpt lat="43.3757" lon="6.13801">
        <ele>361.60000610352</ele>
        <time>2015-06-17T13:22:20Z</time>
      </trkpt>
      <trkpt lat="43.3757" lon="6.13805">
        <ele>361.79998779297</ele>
        <time>2015-06-17T13:22:21Z</time>
      </trkpt>
      <trkpt lat="43.37569" lon="6.13809">
        <ele>361.79998779297</ele>
        <time>2015-06-17T13:22:22Z</time>
      </trkpt>
      <trkpt lat="43.37568" lon="6.13816">
        <ele>362</ele>
        <time>2015-06-17T13:22:24Z</time>
      </trkpt>
      <trkpt lat="43.37567" lon="6.13823">
        <ele>362.20001220703</ele>
        <time>2015-06-17T13:22:26Z</time>
      </trkpt>
      <trkpt lat="43.37567" lon="6.13827">
        <ele>362.20001220703</ele>
        <time>2015-06-17T13:22:27Z</time>
      </trkpt>
      <trkpt lat="43.37566" lon="6.13831">
        <ele>362.20001220703</ele>
        <time>2015-06-17T13:22:28Z</time>
      </trkpt>
      <trkpt lat="43.37565" lon="6.13839">
        <ele>362</ele>
        <time>2015-06-17T13:22:30Z</time>
      </trkpt>
      <trkpt lat="43.37564" lon="6.13848">
        <ele>362</ele>
        <time>2015-06-17T13:22:32Z</time>
      </trkpt>
      <trkpt lat="43.37563" lon="6.13852">
        <ele>362</ele>
        <time>2015-06-17T13:22:33Z</time>
      </trkpt>
      <trkpt lat="43.37563" lon="6.13856">
        <ele>362.20001220703</ele>
        <time>2015-06-17T13:22:34Z</time>
      </trkpt>
      <trkpt lat="43.37562" lon="6.13864">
        <ele>361.79998779297</ele>
        <time>2015-06-17T13:22:36Z</time>
      </trkpt>
      <trkpt lat="43.37562" lon="6.13872">
        <ele>362.20001220703</ele>
        <time>2015-06-17T13:22:38Z</time>
      </trkpt>
      <trkpt lat="43.37561" lon="6.1388">
        <ele>362.60000610352</ele>
        <time>2015-06-17T13:22:40Z</time>
      </trkpt>
      <trkpt lat="43.37561" lon="6.13884">
        <ele>362.60000610352</ele>
        <time>2015-06-17T13:22:41Z</time>
      </trkpt>
      <trkpt lat="43.37561" lon="6.13888">
        <ele>362.39999389648</ele>
        <time>2015-06-17T13:22:42Z</time>
      </trkpt>
      <trkpt lat="43.37559" lon="6.13895">
        <ele>362.60000610352</ele>
        <time>2015-06-17T13:22:44Z</time>
      </trkpt>
      <trkpt lat="43.37557" lon="6.13902">
        <ele>363</ele>
        <time>2015-06-17T13:22:46Z</time>
      </trkpt>
      <trkpt lat="43.37556" lon="6.13905">
        <ele>363.39999389648</ele>
        <time>2015-06-17T13:22:47Z</time>
      </trkpt>
      <trkpt lat="43.37555" lon="6.13908">
        <ele>363.39999389648</ele>
        <time>2015-06-17T13:22:48Z</time>
      </trkpt>
      <trkpt lat="43.37553" lon="6.13915">
        <ele>363.79998779297</ele>
        <time>2015-06-17T13:22:50Z</time>
      </trkpt>
      <trkpt lat="43.37551" lon="6.13922">
        <ele>363.79998779297</ele>
        <time>2015-06-17T13:22:52Z</time>
      </trkpt>
      <trkpt lat="43.3755" lon="6.13928">
        <ele>363.79998779297</ele>
        <time>2015-06-17T13:22:54Z</time>
      </trkpt>
      <trkpt lat="43.37548" lon="6.13935">
        <ele>364</ele>
        <time>2015-06-17T13:22:56Z</time>
      </trkpt>
      <trkpt lat="43.37546" lon="6.13942">
        <ele>364.39999389648</ele>
        <time>2015-06-17T13:22:58Z</time>
      </trkpt>
      <trkpt lat="43.37544" lon="6.13949">
        <ele>364.20001220703</ele>
        <time>2015-06-17T13:23:00Z</time>
      </trkpt>
      <trkpt lat="43.37543" lon="6.13953">
        <ele>363.79998779297</ele>
        <time>2015-06-17T13:23:01Z</time>
      </trkpt>
      <trkpt lat="43.37542" lon="6.13956">
        <ele>363.60000610352</ele>
        <time>2015-06-17T13:23:02Z</time>
      </trkpt>
      <trkpt lat="43.3754" lon="6.13961">
        <ele>364.20001220703</ele>
        <time>2015-06-17T13:23:04Z</time>
      </trkpt>
      <trkpt lat="43.37538" lon="6.13967">
        <ele>364.39999389648</ele>
        <time>2015-06-17T13:23:06Z</time>
      </trkpt>
      <trkpt lat="43.37537" lon="6.1397">
        <ele>364.39999389648</ele>
        <time>2015-06-17T13:23:07Z</time>
      </trkpt>
      <trkpt lat="43.37536" lon="6.13972">
        <ele>364.39999389648</ele>
        <time>2015-06-17T13:23:08Z</time>
      </trkpt>
      <trkpt lat="43.37535" lon="6.13978">
        <ele>365.20001220703</ele>
        <time>2015-06-17T13:23:10Z</time>
      </trkpt>
      <trkpt lat="43.37534" lon="6.13984">
        <ele>366</ele>
        <time>2015-06-17T13:23:12Z</time>
      </trkpt>
      <trkpt lat="43.37534" lon="6.13991">
        <ele>365.79998779297</ele>
        <time>2015-06-17T13:23:14Z</time>
      </trkpt>
      <trkpt lat="43.37534" lon="6.13998">
        <ele>365.79998779297</ele>
        <time>2015-06-17T13:23:16Z</time>
      </trkpt>
      <trkpt lat="43.37533" lon="6.14004">
        <ele>366</ele>
        <time>2015-06-17T13:23:18Z</time>
      </trkpt>
      <trkpt lat="43.37532" lon="6.1401">
        <ele>366.39999389648</ele>
        <time>2015-06-17T13:23:20Z</time>
      </trkpt>
      <trkpt lat="43.37531" lon="6.14013">
        <ele>366.60000610352</ele>
        <time>2015-06-17T13:23:21Z</time>
      </trkpt>
      <trkpt lat="43.3753" lon="6.14016">
        <ele>367</ele>
        <time>2015-06-17T13:23:22Z</time>
      </trkpt>
      <trkpt lat="43.37529" lon="6.14018">
        <ele>367</ele>
        <time>2015-06-17T13:23:23Z</time>
      </trkpt>
      <trkpt lat="43.37529" lon="6.14021">
        <ele>367.20001220703</ele>
        <time>2015-06-17T13:23:24Z</time>
      </trkpt>
      <trkpt lat="43.37527" lon="6.14026">
        <ele>367.20001220703</ele>
        <time>2015-06-17T13:23:26Z</time>
      </trkpt>
      <trkpt lat="43.37526" lon="6.14031">
        <ele>367.39999389648</ele>
        <time>2015-06-17T13:23:28Z</time>
      </trkpt>
      <trkpt lat="43.37524" lon="6.14035">
        <ele>367.60000610352</ele>
        <time>2015-06-17T13:23:30Z</time>
      </trkpt>
      <trkpt lat="43.37522" lon="6.14039">
        <ele>367.79998779297</ele>
        <time>2015-06-17T13:23:32Z</time>
      </trkpt>
      <trkpt lat="43.3752" lon="6.14043">
        <ele>368.20001220703</ele>
        <time>2015-06-17T13:23:34Z</time>
      </trkpt>
      <trkpt lat="43.37519" lon="6.14045">
        <ele>368.39999389648</ele>
        <time>2015-06-17T13:23:35Z</time>
      </trkpt>
      <trkpt lat="43.37519" lon="6.14048">
        <ele>368.60000610352</ele>
        <time>2015-06-17T13:23:36Z</time>
      </trkpt>
      <trkpt lat="43.37518" lon="6.14051">
        <ele>368.79998779297</ele>
        <time>2015-06-17T13:23:37Z</time>
      </trkpt>
      <trkpt lat="43.37518" lon="6.14053">
        <ele>368.79998779297</ele>
        <time>2015-06-17T13:23:38Z</time>
      </trkpt>
      <trkpt lat="43.37517" lon="6.14059">
        <ele>368.79998779297</ele>
        <time>2015-06-17T13:23:40Z</time>
      </trkpt>
      <trkpt lat="43.37516" lon="6.14064">
        <ele>369</ele>
        <time>2015-06-17T13:23:42Z</time>
      </trkpt>
      <trkpt lat="43.37515" lon="6.14067">
        <ele>369.20001220703</ele>
        <time>2015-06-17T13:23:43Z</time>
      </trkpt>
      <trkpt lat="43.37515" lon="6.1407">
        <ele>369.20001220703</ele>
        <time>2015-06-17T13:23:44Z</time>
      </trkpt>
      <trkpt lat="43.37514" lon="6.14074">
        <ele>369.39999389648</ele>
        <time>2015-06-17T13:23:46Z</time>
      </trkpt>
      <trkpt lat="43.37514" lon="6.14079">
        <ele>369.79998779297</ele>
        <time>2015-06-17T13:23:48Z</time>
      </trkpt>
      <trkpt lat="43.37514" lon="6.14082">
        <ele>369.79998779297</ele>
        <time>2015-06-17T13:23:49Z</time>
      </trkpt>
      <trkpt lat="43.37514" lon="6.14084">
        <ele>370</ele>
        <time>2015-06-17T13:23:50Z</time>
      </trkpt>
      <trkpt lat="43.37514" lon="6.14089">
        <ele>370.20001220703</ele>
        <time>2015-06-17T13:23:52Z</time>
      </trkpt>
      <trkpt lat="43.37513" lon="6.14094">
        <ele>370.39999389648</ele>
        <time>2015-06-17T13:23:54Z</time>
      </trkpt>
      <trkpt lat="43.37511" lon="6.141">
        <ele>370.60000610352</ele>
        <time>2015-06-17T13:23:56Z</time>
      </trkpt>
      <trkpt lat="43.3751" lon="6.14102">
        <ele>370.60000610352</ele>
        <time>2015-06-17T13:23:57Z</time>
      </trkpt>
      <trkpt lat="43.37509" lon="6.14104">
        <ele>370.60000610352</ele>
        <time>2015-06-17T13:23:58Z</time>
      </trkpt>
      <trkpt lat="43.37506" lon="6.14108">
        <ele>370.20001220703</ele>
        <time>2015-06-17T13:24:00Z</time>
      </trkpt>
      <trkpt lat="43.37504" lon="6.14111">
        <ele>370.39999389648</ele>
        <time>2015-06-17T13:24:02Z</time>
      </trkpt>
      <trkpt lat="43.37502" lon="6.14114">
        <ele>370.79998779297</ele>
        <time>2015-06-17T13:24:04Z</time>
      </trkpt>
      <trkpt lat="43.37502" lon="6.14116">
        <ele>371.20001220703</ele>
        <time>2015-06-17T13:24:05Z</time>
      </trkpt>
      <trkpt lat="43.37501" lon="6.14118">
        <ele>371.60000610352</ele>
        <time>2015-06-17T13:24:06Z</time>
      </trkpt>
      <trkpt lat="43.37499" lon="6.14121">
        <ele>371.79998779297</ele>
        <time>2015-06-17T13:24:08Z</time>
      </trkpt>
      <trkpt lat="43.37497" lon="6.14125">
        <ele>372.39999389648</ele>
        <time>2015-06-17T13:24:10Z</time>
      </trkpt>
      <trkpt lat="43.37496" lon="6.14126">
        <ele>372.60000610352</ele>
        <time>2015-06-17T13:24:11Z</time>
      </trkpt>
      <trkpt lat="43.37495" lon="6.14128">
        <ele>373</ele>
        <time>2015-06-17T13:24:12Z</time>
      </trkpt>
      <trkpt lat="43.37494" lon="6.14129">
        <ele>373.39999389648</ele>
        <time>2015-06-17T13:24:13Z</time>
      </trkpt>
      <trkpt lat="43.37492" lon="6.14129">
        <ele>373.79998779297</ele>
        <time>2015-06-17T13:24:14Z</time>
      </trkpt>
      <trkpt lat="43.3749" lon="6.14132">
        <ele>374</ele>
        <time>2015-06-17T13:24:16Z</time>
      </trkpt>
      <trkpt lat="43.37487" lon="6.14135">
        <ele>373.79998779297</ele>
        <time>2015-06-17T13:24:18Z</time>
      </trkpt>
      <trkpt lat="43.37485" lon="6.14138">
        <ele>374</ele>
        <time>2015-06-17T13:24:20Z</time>
      </trkpt>
      <trkpt lat="43.37482" lon="6.14142">
        <ele>374.20001220703</ele>
        <time>2015-06-17T13:24:22Z</time>
      </trkpt>
      <trkpt lat="43.37481" lon="6.14145">
        <ele>374.60000610352</ele>
        <time>2015-06-17T13:24:24Z</time>
      </trkpt>
      <trkpt lat="43.37478" lon="6.14149">
        <ele>375.39999389648</ele>
        <time>2015-06-17T13:24:26Z</time>
      </trkpt>
      <trkpt lat="43.37477" lon="6.1415">
        <ele>375.79998779297</ele>
        <time>2015-06-17T13:24:27Z</time>
      </trkpt>
      <trkpt lat="43.37476" lon="6.14151">
        <ele>375.79998779297</ele>
        <time>2015-06-17T13:24:28Z</time>
      </trkpt>
      <trkpt lat="43.37474" lon="6.14153">
        <ele>375.60000610352</ele>
        <time>2015-06-17T13:24:30Z</time>
      </trkpt>
      <trkpt lat="43.37471" lon="6.14154">
        <ele>376.20001220703</ele>
        <time>2015-06-17T13:24:32Z</time>
      </trkpt>
      <trkpt lat="43.37469" lon="6.14154">
        <ele>376.60000610352</ele>
        <time>2015-06-17T13:24:33Z</time>
      </trkpt>
      <trkpt lat="43.37468" lon="6.14154">
        <ele>376.79998779297</ele>
        <time>2015-06-17T13:24:34Z</time>
      </trkpt>
      <trkpt lat="43.37465" lon="6.14154">
        <ele>377</ele>
        <time>2015-06-17T13:24:36Z</time>
      </trkpt>
      <trkpt lat="43.37462" lon="6.14155">
        <ele>377.20001220703</ele>
        <time>2015-06-17T13:24:38Z</time>
      </trkpt>
      <trkpt lat="43.3746" lon="6.14156">
        <ele>377.60000610352</ele>
        <time>2015-06-17T13:24:40Z</time>
      </trkpt>
      <trkpt lat="43.37457" lon="6.14159">
        <ele>377.60000610352</ele>
        <time>2015-06-17T13:24:42Z</time>
      </trkpt>
      <trkpt lat="43.37455" lon="6.14162">
        <ele>377.79998779297</ele>
        <time>2015-06-17T13:24:44Z</time>
      </trkpt>
      <trkpt lat="43.37452" lon="6.14164">
        <ele>378.20001220703</ele>
        <time>2015-06-17T13:24:46Z</time>
      </trkpt>
      <trkpt lat="43.37449" lon="6.14166">
        <ele>378</ele>
        <time>2015-06-17T13:24:48Z</time>
      </trkpt>
      <trkpt lat="43.37446" lon="6.14167">
        <ele>378.39999389648</ele>
        <time>2015-06-17T13:24:50Z</time>
      </trkpt>
      <trkpt lat="43.37444" lon="6.14168">
        <ele>378.39999389648</ele>
        <time>2015-06-17T13:24:51Z</time>
      </trkpt>
      <trkpt lat="43.37443" lon="6.14169">
        <ele>378.79998779297</ele>
        <time>2015-06-17T13:24:52Z</time>
      </trkpt>
      <trkpt lat="43.3744" lon="6.1417">
        <ele>378.79998779297</ele>
        <time>2015-06-17T13:24:54Z</time>
      </trkpt>
      <trkpt lat="43.37439" lon="6.1417">
        <ele>379.20001220703</ele>
        <time>2015-06-17T13:24:55Z</time>
      </trkpt>
      <trkpt lat="43.37437" lon="6.1417">
        <ele>379.39999389648</ele>
        <time>2015-06-17T13:24:56Z</time>
      </trkpt>
      <trkpt lat="43.37436" lon="6.1417">
        <ele>379.60000610352</ele>
        <time>2015-06-17T13:24:57Z</time>
      </trkpt>
      <trkpt lat="43.37435" lon="6.14171">
        <ele>379.39999389648</ele>
        <time>2015-06-17T13:24:58Z</time>
      </trkpt>
      <trkpt lat="43.37432" lon="6.14172">
        <ele>379.60000610352</ele>
        <time>2015-06-17T13:25:00Z</time>
      </trkpt>
      <trkpt lat="43.37431" lon="6.14173">
        <ele>380</ele>
        <time>2015-06-17T13:25:01Z</time>
      </trkpt>
      <trkpt lat="43.3743" lon="6.14173">
        <ele>380.20001220703</ele>
        <time>2015-06-17T13:25:02Z</time>
      </trkpt>
      <trkpt lat="43.37428" lon="6.14175">
        <ele>381</ele>
        <time>2015-06-17T13:25:04Z</time>
      </trkpt>
      <trkpt lat="43.37425" lon="6.14176">
        <ele>381.39999389648</ele>
        <time>2015-06-17T13:25:06Z</time>
      </trkpt>
      <trkpt lat="43.37424" lon="6.14177">
        <ele>381.79998779297</ele>
        <time>2015-06-17T13:25:07Z</time>
      </trkpt>
      <trkpt lat="43.37423" lon="6.14177">
        <ele>382</ele>
        <time>2015-06-17T13:25:08Z</time>
      </trkpt>
      <trkpt lat="43.3742" lon="6.14179">
        <ele>382.60000610352</ele>
        <time>2015-06-17T13:25:10Z</time>
      </trkpt>
      <trkpt lat="43.37418" lon="6.1418">
        <ele>383</ele>
        <time>2015-06-17T13:25:12Z</time>
      </trkpt>
      <trkpt lat="43.37417" lon="6.14181">
        <ele>383</ele>
        <time>2015-06-17T13:25:13Z</time>
      </trkpt>
      <trkpt lat="43.37416" lon="6.14181">
        <ele>383</ele>
        <time>2015-06-17T13:25:14Z</time>
      </trkpt>
      <trkpt lat="43.37413" lon="6.14182">
        <ele>383.79998779297</ele>
        <time>2015-06-17T13:25:16Z</time>
      </trkpt>
      <trkpt lat="43.37413" lon="6.14182">
        <ele>384</ele>
        <time>2015-06-17T13:25:17Z</time>
      </trkpt>
      <trkpt lat="43.37412" lon="6.14182">
        <ele>384</ele>
        <time>2015-06-17T13:25:18Z</time>
      </trkpt>
      <trkpt lat="43.37411" lon="6.14182">
        <ele>384</ele>
        <time>2015-06-17T13:25:19Z</time>
      </trkpt>
      <trkpt lat="43.3741" lon="6.14182">
        <ele>384.60000610352</ele>
        <time>2015-06-17T13:25:20Z</time>
      </trkpt>
      <trkpt lat="43.37408" lon="6.14183">
        <ele>385.20001220703</ele>
        <time>2015-06-17T13:25:22Z</time>
      </trkpt>
      <trkpt lat="43.37406" lon="6.14185">
        <ele>385.39999389648</ele>
        <time>2015-06-17T13:25:24Z</time>
      </trkpt>
      <trkpt lat="43.37404" lon="6.14186">
        <ele>385.39999389648</ele>
        <time>2015-06-17T13:25:26Z</time>
      </trkpt>
      <trkpt lat="43.37403" lon="6.14187">
        <ele>385.60000610352</ele>
        <time>2015-06-17T13:25:27Z</time>
      </trkpt>
      <trkpt lat="43.37402" lon="6.14187">
        <ele>386.20001220703</ele>
        <time>2015-06-17T13:25:28Z</time>
      </trkpt>
      <trkpt lat="43.374" lon="6.14187">
        <ele>386.60000610352</ele>
        <time>2015-06-17T13:25:30Z</time>
      </trkpt>
      <trkpt lat="43.37397" lon="6.14187">
        <ele>386.79998779297</ele>
        <time>2015-06-17T13:25:32Z</time>
      </trkpt>
      <trkpt lat="43.37395" lon="6.14188">
        <ele>386.79998779297</ele>
        <time>2015-06-17T13:25:34Z</time>
      </trkpt>
      <trkpt lat="43.37394" lon="6.14188">
        <ele>386.60000610352</ele>
        <time>2015-06-17T13:25:35Z</time>
      </trkpt>
      <trkpt lat="43.37392" lon="6.14187">
        <ele>386.60000610352</ele>
        <time>2015-06-17T13:25:36Z</time>
      </trkpt>
      <trkpt lat="43.37389" lon="6.14186">
        <ele>387</ele>
        <time>2015-06-17T13:25:38Z</time>
      </trkpt>
      <trkpt lat="43.37387" lon="6.14186">
        <ele>386.60000610352</ele>
        <time>2015-06-17T13:25:39Z</time>
      </trkpt>
      <trkpt lat="43.37386" lon="6.14186">
        <ele>386.60000610352</ele>
        <time>2015-06-17T13:25:40Z</time>
      </trkpt>
      <trkpt lat="43.37383" lon="6.14186">
        <ele>386.79998779297</ele>
        <time>2015-06-17T13:25:42Z</time>
      </trkpt>
      <trkpt lat="43.37381" lon="6.14188">
        <ele>387</ele>
        <time>2015-06-17T13:25:44Z</time>
      </trkpt>
      <trkpt lat="43.37379" lon="6.14189">
        <ele>387.20001220703</ele>
        <time>2015-06-17T13:25:45Z</time>
      </trkpt>
      <trkpt lat="43.37378" lon="6.1419">
        <ele>387.20001220703</ele>
        <time>2015-06-17T13:25:46Z</time>
      </trkpt>
      <trkpt lat="43.37375" lon="6.14192">
        <ele>387.60000610352</ele>
        <time>2015-06-17T13:25:48Z</time>
      </trkpt>
      <trkpt lat="43.37373" lon="6.14193">
        <ele>388</ele>
        <time>2015-06-17T13:25:50Z</time>
      </trkpt>
      <trkpt lat="43.37371" lon="6.14196">
        <ele>388</ele>
        <time>2015-06-17T13:25:52Z</time>
      </trkpt>
      <trkpt lat="43.3737" lon="6.14199">
        <ele>388.39999389648</ele>
        <time>2015-06-17T13:25:54Z</time>
      </trkpt>
      <trkpt lat="43.37368" lon="6.14202">
        <ele>388.60000610352</ele>
        <time>2015-06-17T13:25:56Z</time>
      </trkpt>
      <trkpt lat="43.37367" lon="6.14205">
        <ele>388.79998779297</ele>
        <time>2015-06-17T13:25:58Z</time>
      </trkpt>
      <trkpt lat="43.37366" lon="6.14208">
        <ele>389.20001220703</ele>
        <time>2015-06-17T13:26:00Z</time>
      </trkpt>
      <trkpt lat="43.37364" lon="6.14211">
        <ele>389.39999389648</ele>
        <time>2015-06-17T13:26:02Z</time>
      </trkpt>
      <trkpt lat="43.37363" lon="6.14215">
        <ele>389.20001220703</ele>
        <time>2015-06-17T13:26:04Z</time>
      </trkpt>
      <trkpt lat="43.37362" lon="6.14218">
        <ele>389.39999389648</ele>
        <time>2015-06-17T13:26:06Z</time>
      </trkpt>
      <trkpt lat="43.3736" lon="6.14222">
        <ele>389.79998779297</ele>
        <time>2015-06-17T13:26:08Z</time>
      </trkpt>
      <trkpt lat="43.37358" lon="6.14226">
        <ele>389.79998779297</ele>
        <time>2015-06-17T13:26:10Z</time>
      </trkpt>
      <trkpt lat="43.37358" lon="6.14228">
        <ele>389.60000610352</ele>
        <time>2015-06-17T13:26:11Z</time>
      </trkpt>
      <trkpt lat="43.37357" lon="6.14229">
        <ele>389.79998779297</ele>
        <time>2015-06-17T13:26:12Z</time>
      </trkpt>
      <trkpt lat="43.37355" lon="6.14234">
        <ele>389.79998779297</ele>
        <time>2015-06-17T13:26:14Z</time>
      </trkpt>
      <trkpt lat="43.37353" lon="6.14237">
        <ele>389.79998779297</ele>
        <time>2015-06-17T13:26:16Z</time>
      </trkpt>
      <trkpt lat="43.37352" lon="6.14238">
        <ele>389.79998779297</ele>
        <time>2015-06-17T13:26:17Z</time>
      </trkpt>
      <trkpt lat="43.3735" lon="6.14239">
        <ele>389.60000610352</ele>
        <time>2015-06-17T13:26:18Z</time>
      </trkpt>
      <trkpt lat="43.37347" lon="6.14242">
        <ele>389.39999389648</ele>
        <time>2015-06-17T13:26:20Z</time>
      </trkpt>
      <trkpt lat="43.37344" lon="6.14245">
        <ele>389.39999389648</ele>
        <time>2015-06-17T13:26:22Z</time>
      </trkpt>
      <trkpt lat="43.37341" lon="6.14249">
        <ele>389</ele>
        <time>2015-06-17T13:26:24Z</time>
      </trkpt>
      <trkpt lat="43.37337" lon="6.14252">
        <ele>388.79998779297</ele>
        <time>2015-06-17T13:26:26Z</time>
      </trkpt>
      <trkpt lat="43.37333" lon="6.14257">
        <ele>388.60000610352</ele>
        <time>2015-06-17T13:26:28Z</time>
      </trkpt>
      <trkpt lat="43.3733" lon="6.1426">
        <ele>387.60000610352</ele>
        <time>2015-06-17T13:26:29Z</time>
      </trkpt>
      <trkpt lat="43.37327" lon="6.14264">
        <ele>386.79998779297</ele>
        <time>2015-06-17T13:26:30Z</time>
      </trkpt>
      <trkpt lat="43.37324" lon="6.14268">
        <ele>386</ele>
        <time>2015-06-17T13:26:31Z</time>
      </trkpt>
      <trkpt lat="43.37321" lon="6.14272">
        <ele>384.79998779297</ele>
        <time>2015-06-17T13:26:32Z</time>
      </trkpt>
      <trkpt lat="43.37319" lon="6.14275">
        <ele>384.60000610352</ele>
        <time>2015-06-17T13:26:33Z</time>
      </trkpt>
      <trkpt lat="43.37317" lon="6.14277">
        <ele>384.39999389648</ele>
        <time>2015-06-17T13:26:34Z</time>
      </trkpt>
      <trkpt lat="43.3731" lon="6.14281">
        <ele>384</ele>
        <time>2015-06-17T13:26:36Z</time>
      </trkpt>
      <trkpt lat="43.37305" lon="6.14283">
        <ele>382.79998779297</ele>
        <time>2015-06-17T13:26:37Z</time>
      </trkpt>
      <trkpt lat="43.37301" lon="6.14284">
        <ele>381.60000610352</ele>
        <time>2015-06-17T13:26:38Z</time>
      </trkpt>
      <trkpt lat="43.37293" lon="6.14289">
        <ele>380.39999389648</ele>
        <time>2015-06-17T13:26:40Z</time>
      </trkpt>
      <trkpt lat="43.37289" lon="6.14293">
        <ele>380.20001220703</ele>
        <time>2015-06-17T13:26:41Z</time>
      </trkpt>
      <trkpt lat="43.37285" lon="6.14298">
        <ele>379.20001220703</ele>
        <time>2015-06-17T13:26:42Z</time>
      </trkpt>
      <trkpt lat="43.37281" lon="6.14302">
        <ele>377.60000610352</ele>
        <time>2015-06-17T13:26:43Z</time>
      </trkpt>
      <trkpt lat="43.37277" lon="6.14306">
        <ele>376.39999389648</ele>
        <time>2015-06-17T13:26:44Z</time>
      </trkpt>
      <trkpt lat="43.37273" lon="6.14309">
        <ele>376.20001220703</ele>
        <time>2015-06-17T13:26:45Z</time>
      </trkpt>
      <trkpt lat="43.37268" lon="6.14312">
        <ele>376</ele>
        <time>2015-06-17T13:26:46Z</time>
      </trkpt>
      <trkpt lat="43.37262" lon="6.14318">
        <ele>375.39999389648</ele>
        <time>2015-06-17T13:26:48Z</time>
      </trkpt>
      <trkpt lat="43.37261" lon="6.14321">
        <ele>375.20001220703</ele>
        <time>2015-06-17T13:26:49Z</time>
      </trkpt>
      <trkpt lat="43.3726" lon="6.14323">
        <ele>375.20001220703</ele>
        <time>2015-06-17T13:26:50Z</time>
      </trkpt>
      <trkpt lat="43.37259" lon="6.14328">
        <ele>375.60000610352</ele>
        <time>2015-06-17T13:26:52Z</time>
      </trkpt>
      <trkpt lat="43.37259" lon="6.1433">
        <ele>375.60000610352</ele>
        <time>2015-06-17T13:26:54Z</time>
      </trkpt>
      <trkpt lat="43.37259" lon="6.14331">
        <ele>375.39999389648</ele>
        <time>2015-06-17T13:26:56Z</time>
      </trkpt>
      <trkpt lat="43.37259" lon="6.14331">
        <ele>375.60000610352</ele>
        <time>2015-06-17T13:26:58Z</time>
      </trkpt>
      <trkpt lat="43.37259" lon="6.14331">
        <ele>375.60000610352</ele>
        <time>2015-06-17T13:27:00Z</time>
      </trkpt>
      <trkpt lat="43.37259" lon="6.14331">
        <ele>375.60000610352</ele>
        <time>2015-06-17T13:27:02Z</time>
      </trkpt>
      <trkpt lat="43.37258" lon="6.14331">
        <ele>375.79998779297</ele>
        <time>2015-06-17T13:27:04Z</time>
      </trkpt>
      <trkpt lat="43.37258" lon="6.14331">
        <ele>376</ele>
        <time>2015-06-17T13:27:06Z</time>
      </trkpt>
      <trkpt lat="43.37258" lon="6.14331">
        <ele>376</ele>
        <time>2015-06-17T13:27:08Z</time>
      </trkpt>
      <trkpt lat="43.37258" lon="6.14331">
        <ele>376</ele>
        <time>2015-06-17T13:27:10Z</time>
      </trkpt>
      <trkpt lat="43.37258" lon="6.14331">
        <ele>375.79998779297</ele>
        <time>2015-06-17T13:27:12Z</time>
      </trkpt>
      <trkpt lat="43.37258" lon="6.14331">
        <ele>376</ele>
        <time>2015-06-17T13:27:14Z</time>
      </trkpt>
      <trkpt lat="43.37258" lon="6.14331">
        <ele>376</ele>
        <time>2015-06-17T13:27:16Z</time>
      </trkpt>
      <trkpt lat="43.37259" lon="6.14331">
        <ele>376</ele>
        <time>2015-06-17T13:27:18Z</time>
      </trkpt>
      <trkpt lat="43.37259" lon="6.14331">
        <ele>375.79998779297</ele>
        <time>2015-06-17T13:27:20Z</time>
      </trkpt>
      <trkpt lat="43.37258" lon="6.14331">
        <ele>376</ele>
        <time>2015-06-17T13:27:22Z</time>
      </trkpt>
      <trkpt lat="43.37258" lon="6.14331">
        <ele>376</ele>
        <time>2015-06-17T13:27:24Z</time>
      </trkpt>
      <trkpt lat="43.37258" lon="6.14331">
        <ele>376.20001220703</ele>
        <time>2015-06-17T13:27:25Z</time>
      </trkpt>
      <trkpt lat="43.37258" lon="6.14331">
        <ele>375.79998779297</ele>
        <time>2015-06-17T13:27:26Z</time>
      </trkpt>
      <trkpt lat="43.37258" lon="6.14331">
        <ele>375.79998779297</ele>
        <time>2015-06-17T13:27:28Z</time>
      </trkpt>
      <trkpt lat="43.37258" lon="6.14331">
        <ele>375.60000610352</ele>
        <time>2015-06-17T13:27:30Z</time>
      </trkpt>
      <trkpt lat="43.37258" lon="6.14331">
        <ele>375.60000610352</ele>
        <time>2015-06-17T13:27:32Z</time>
      </trkpt>
      <trkpt lat="43.37258" lon="6.14331">
        <ele>375.79998779297</ele>
        <time>2015-06-17T13:27:34Z</time>
      </trkpt>
      <trkpt lat="43.37258" lon="6.14331">
        <ele>375.60000610352</ele>
        <time>2015-06-17T13:27:36Z</time>
      </trkpt>
      <trkpt lat="43.37258" lon="6.14331">
        <ele>375.79998779297</ele>
        <time>2015-06-17T13:27:38Z</time>
      </trkpt>
      <trkpt lat="43.37259" lon="6.14331">
        <ele>375.79998779297</ele>
        <time>2015-06-17T13:27:40Z</time>
      </trkpt>
      <trkpt lat="43.37259" lon="6.14331">
        <ele>375.60000610352</ele>
        <time>2015-06-17T13:27:42Z</time>
      </trkpt>
      <trkpt lat="43.37259" lon="6.14331">
        <ele>375.79998779297</ele>
        <time>2015-06-17T13:27:44Z</time>
      </trkpt>
      <trkpt lat="43.37259" lon="6.14331">
        <ele>375.79998779297</ele>
        <time>2015-06-17T13:27:46Z</time>
      </trkpt>
      <trkpt lat="43.37259" lon="6.14332">
        <ele>375.60000610352</ele>
        <time>2015-06-17T13:27:48Z</time>
      </trkpt>
      <trkpt lat="43.37259" lon="6.14332">
        <ele>375.60000610352</ele>
        <time>2015-06-17T13:27:50Z</time>
      </trkpt>
      <trkpt lat="43.37259" lon="6.14332">
        <ele>375.60000610352</ele>
        <time>2015-06-17T13:27:52Z</time>
      </trkpt>
      <trkpt lat="43.37259" lon="6.14332">
        <ele>375.60000610352</ele>
        <time>2015-06-17T13:27:53Z</time>
      </trkpt>
      <trkpt lat="43.37259" lon="6.14332">
        <ele>375.79998779297</ele>
        <time>2015-06-17T13:27:54Z</time>
      </trkpt>
      <trkpt lat="43.37259" lon="6.14332">
        <ele>375.79998779297</ele>
        <time>2015-06-17T13:27:56Z</time>
      </trkpt>
      <trkpt lat="43.37259" lon="6.14332">
        <ele>376</ele>
        <time>2015-06-17T13:27:58Z</time>
      </trkpt>
      <trkpt lat="43.37259" lon="6.14332">
        <ele>375.79998779297</ele>
        <time>2015-06-17T13:28:00Z</time>
      </trkpt>
      <trkpt lat="43.37259" lon="6.14332">
        <ele>375.79998779297</ele>
        <time>2015-06-17T13:28:02Z</time>
      </trkpt>
      <trkpt lat="43.37259" lon="6.14332">
        <ele>375.79998779297</ele>
        <time>2015-06-17T13:28:04Z</time>
      </trkpt>
      <trkpt lat="43.37259" lon="6.14332">
        <ele>376</ele>
        <time>2015-06-17T13:28:06Z</time>
      </trkpt>
      <trkpt lat="43.37259" lon="6.14332">
        <ele>375.60000610352</ele>
        <time>2015-06-17T13:28:08Z</time>
      </trkpt>
      <trkpt lat="43.37259" lon="6.14332">
        <ele>375.79998779297</ele>
        <time>2015-06-17T13:28:10Z</time>
      </trkpt>
      <trkpt lat="43.37259" lon="6.14332">
        <ele>375.79998779297</ele>
        <time>2015-06-17T13:28:12Z</time>
      </trkpt>
      <trkpt lat="43.37259" lon="6.14332">
        <ele>375.60000610352</ele>
        <time>2015-06-17T13:28:14Z</time>
      </trkpt>
      <trkpt lat="43.37259" lon="6.14332">
        <ele>375.60000610352</ele>
        <time>2015-06-17T13:28:16Z</time>
      </trkpt>
      <trkpt lat="43.37259" lon="6.14332">
        <ele>375.79998779297</ele>
        <time>2015-06-17T13:28:18Z</time>
      </trkpt>
      <trkpt lat="43.37259" lon="6.14332">
        <ele>375.60000610352</ele>
        <time>2015-06-17T13:28:20Z</time>
      </trkpt>
      <trkpt lat="43.37259" lon="6.14332">
        <ele>375.60000610352</ele>
        <time>2015-06-17T13:28:22Z</time>
      </trkpt>
      <trkpt lat="43.37259" lon="6.14332">
        <ele>375.60000610352</ele>
        <time>2015-06-17T13:28:24Z</time>
      </trkpt>
      <trkpt lat="43.37259" lon="6.14332">
        <ele>375.60000610352</ele>
        <time>2015-06-17T13:28:26Z</time>
      </trkpt>
      <trkpt lat="43.37259" lon="6.14332">
        <ele>375.60000610352</ele>
        <time>2015-06-17T13:28:28Z</time>
      </trkpt>
      <trkpt lat="43.37259" lon="6.14332">
        <ele>375.60000610352</ele>
        <time>2015-06-17T13:28:30Z</time>
      </trkpt>
      <trkpt lat="43.37259" lon="6.14332">
        <ele>375.60000610352</ele>
        <time>2015-06-17T13:28:32Z</time>
      </trkpt>
      <trkpt lat="43.37258" lon="6.14333">
        <ele>375.60000610352</ele>
        <time>2015-06-17T13:28:34Z</time>
      </trkpt>
      <trkpt lat="43.37258" lon="6.14334">
        <ele>375.79998779297</ele>
        <time>2015-06-17T13:28:36Z</time>
      </trkpt>
      <trkpt lat="43.37258" lon="6.14334">
        <ele>375.60000610352</ele>
        <time>2015-06-17T13:28:38Z</time>
      </trkpt>
      <trkpt lat="43.37258" lon="6.14334">
        <ele>375.60000610352</ele>
        <time>2015-06-17T13:28:40Z</time>
      </trkpt>
      <trkpt lat="43.37258" lon="6.14334">
        <ele>375.60000610352</ele>
        <time>2015-06-17T13:28:42Z</time>
      </trkpt>
      <trkpt lat="43.37259" lon="6.14335">
        <ele>375.60000610352</ele>
        <time>2015-06-17T13:28:44Z</time>
      </trkpt>
      <trkpt lat="43.37259" lon="6.14335">
        <ele>375.60000610352</ele>
        <time>2015-06-17T13:28:46Z</time>
      </trkpt>
      <trkpt lat="43.37259" lon="6.14335">
        <ele>375.79998779297</ele>
        <time>2015-06-17T13:28:47Z</time>
      </trkpt>
      <trkpt lat="43.37259" lon="6.14335">
        <ele>375.79998779297</ele>
        <time>2015-06-17T13:28:50Z</time>
      </trkpt>
      <trkpt lat="43.37259" lon="6.14335">
        <ele>375.79998779297</ele>
        <time>2015-06-17T13:28:52Z</time>
      </trkpt>
      <trkpt lat="43.37259" lon="6.14335">
        <ele>375.79998779297</ele>
        <time>2015-06-17T13:28:54Z</time>
      </trkpt>
      <trkpt lat="43.37259" lon="6.14335">
        <ele>375.60000610352</ele>
        <time>2015-06-17T13:28:56Z</time>
      </trkpt>
      <trkpt lat="43.37259" lon="6.14336">
        <ele>375.60000610352</ele>
        <time>2015-06-17T13:28:58Z</time>
      </trkpt>
      <trkpt lat="43.37259" lon="6.14336">
        <ele>375.60000610352</ele>
        <time>2015-06-17T13:29:00Z</time>
      </trkpt>
      <trkpt lat="43.3726" lon="6.14338">
        <ele>375.60000610352</ele>
        <time>2015-06-17T13:29:01Z</time>
      </trkpt>
      <trkpt lat="43.3726" lon="6.14339">
        <ele>375.79998779297</ele>
        <time>2015-06-17T13:29:02Z</time>
      </trkpt>
      <trkpt lat="43.37261" lon="6.14342">
        <ele>375.60000610352</ele>
        <time>2015-06-17T13:29:04Z</time>
      </trkpt>
      <trkpt lat="43.37262" lon="6.14345">
        <ele>376</ele>
        <time>2015-06-17T13:29:06Z</time>
      </trkpt>
      <trkpt lat="43.37263" lon="6.1435">
        <ele>375.79998779297</ele>
        <time>2015-06-17T13:29:08Z</time>
      </trkpt>
      <trkpt lat="43.37263" lon="6.14352">
        <ele>375.79998779297</ele>
        <time>2015-06-17T13:29:09Z</time>
      </trkpt>
      <trkpt lat="43.37264" lon="6.14355">
        <ele>376</ele>
        <time>2015-06-17T13:29:10Z</time>
      </trkpt>
      <trkpt lat="43.37264" lon="6.14357">
        <ele>376.20001220703</ele>
        <time>2015-06-17T13:29:11Z</time>
      </trkpt>
      <trkpt lat="43.37264" lon="6.1436">
        <ele>376.79998779297</ele>
        <time>2015-06-17T13:29:12Z</time>
      </trkpt>
      <trkpt lat="43.37263" lon="6.14366">
        <ele>376.60000610352</ele>
        <time>2015-06-17T13:29:14Z</time>
      </trkpt>
      <trkpt lat="43.37262" lon="6.14371">
        <ele>377</ele>
        <time>2015-06-17T13:29:16Z</time>
      </trkpt>
      <trkpt lat="43.37262" lon="6.14374">
        <ele>377.39999389648</ele>
        <time>2015-06-17T13:29:17Z</time>
      </trkpt>
      <trkpt lat="43.37263" lon="6.14377">
        <ele>377.60000610352</ele>
        <time>2015-06-17T13:29:18Z</time>
      </trkpt>
      <trkpt lat="43.37263" lon="6.14383">
        <ele>378</ele>
        <time>2015-06-17T13:29:20Z</time>
      </trkpt>
      <trkpt lat="43.37265" lon="6.14387">
        <ele>378.20001220703</ele>
        <time>2015-06-17T13:29:22Z</time>
      </trkpt>
      <trkpt lat="43.37265" lon="6.14389">
        <ele>378.39999389648</ele>
        <time>2015-06-17T13:29:23Z</time>
      </trkpt>
      <trkpt lat="43.37265" lon="6.14392">
        <ele>378.60000610352</ele>
        <time>2015-06-17T13:29:24Z</time>
      </trkpt>
      <trkpt lat="43.37265" lon="6.14396">
        <ele>378.60000610352</ele>
        <time>2015-06-17T13:29:25Z</time>
      </trkpt>
      <trkpt lat="43.37266" lon="6.14399">
        <ele>378.79998779297</ele>
        <time>2015-06-17T13:29:26Z</time>
      </trkpt>
      <trkpt lat="43.37266" lon="6.14405">
        <ele>379.20001220703</ele>
        <time>2015-06-17T13:29:28Z</time>
      </trkpt>
      <trkpt lat="43.37266" lon="6.14408">
        <ele>379.60000610352</ele>
        <time>2015-06-17T13:29:29Z</time>
      </trkpt>
      <trkpt lat="43.37267" lon="6.14411">
        <ele>379.79998779297</ele>
        <time>2015-06-17T13:29:30Z</time>
      </trkpt>
      <trkpt lat="43.37269" lon="6.14413">
        <ele>379.79998779297</ele>
        <time>2015-06-17T13:29:31Z</time>
      </trkpt>
      <trkpt lat="43.37271" lon="6.14415">
        <ele>379.79998779297</ele>
        <time>2015-06-17T13:29:32Z</time>
      </trkpt>
      <trkpt lat="43.37273" lon="6.14419">
        <ele>379.79998779297</ele>
        <time>2015-06-17T13:29:34Z</time>
      </trkpt>
      <trkpt lat="43.37275" lon="6.14421">
        <ele>380</ele>
        <time>2015-06-17T13:29:35Z</time>
      </trkpt>
      <trkpt lat="43.37276" lon="6.14423">
        <ele>380.39999389648</ele>
        <time>2015-06-17T13:29:36Z</time>
      </trkpt>
      <trkpt lat="43.37277" lon="6.14426">
        <ele>380.60000610352</ele>
        <time>2015-06-17T13:29:37Z</time>
      </trkpt>
      <trkpt lat="43.37278" lon="6.14428">
        <ele>380.39999389648</ele>
        <time>2015-06-17T13:29:38Z</time>
      </trkpt>
      <trkpt lat="43.3728" lon="6.14432">
        <ele>380.79998779297</ele>
        <time>2015-06-17T13:29:40Z</time>
      </trkpt>
      <trkpt lat="43.37282" lon="6.14436">
        <ele>381</ele>
        <time>2015-06-17T13:29:42Z</time>
      </trkpt>
      <trkpt lat="43.37283" lon="6.14438">
        <ele>381</ele>
        <time>2015-06-17T13:29:43Z</time>
      </trkpt>
      <trkpt lat="43.37283" lon="6.1444">
        <ele>381.20001220703</ele>
        <time>2015-06-17T13:29:44Z</time>
      </trkpt>
      <trkpt lat="43.37284" lon="6.14445">
        <ele>381.60000610352</ele>
        <time>2015-06-17T13:29:46Z</time>
      </trkpt>
      <trkpt lat="43.37284" lon="6.14447">
        <ele>382</ele>
        <time>2015-06-17T13:29:47Z</time>
      </trkpt>
      <trkpt lat="43.37284" lon="6.14449">
        <ele>382</ele>
        <time>2015-06-17T13:29:48Z</time>
      </trkpt>
      <trkpt lat="43.37285" lon="6.14452">
        <ele>382</ele>
        <time>2015-06-17T13:29:50Z</time>
      </trkpt>
      <trkpt lat="43.37286" lon="6.14456">
        <ele>382.20001220703</ele>
        <time>2015-06-17T13:29:52Z</time>
      </trkpt>
      <trkpt lat="43.37286" lon="6.1446">
        <ele>382.39999389648</ele>
        <time>2015-06-17T13:29:54Z</time>
      </trkpt>
      <trkpt lat="43.37288" lon="6.14465">
        <ele>382.39999389648</ele>
        <time>2015-06-17T13:29:56Z</time>
      </trkpt>
      <trkpt lat="43.37289" lon="6.1447">
        <ele>382.39999389648</ele>
        <time>2015-06-17T13:29:58Z</time>
      </trkpt>
      <trkpt lat="43.37289" lon="6.14474">
        <ele>382.60000610352</ele>
        <time>2015-06-17T13:30:00Z</time>
      </trkpt>
      <trkpt lat="43.3729" lon="6.14478">
        <ele>383</ele>
        <time>2015-06-17T13:30:02Z</time>
      </trkpt>
      <trkpt lat="43.3729" lon="6.14479">
        <ele>383</ele>
        <time>2015-06-17T13:30:03Z</time>
      </trkpt>
      <trkpt lat="43.3729" lon="6.14481">
        <ele>383.20001220703</ele>
        <time>2015-06-17T13:30:04Z</time>
      </trkpt>
      <trkpt lat="43.3729" lon="6.14486">
        <ele>383.79998779297</ele>
        <time>2015-06-17T13:30:06Z</time>
      </trkpt>
      <trkpt lat="43.37291" lon="6.1449">
        <ele>383.79998779297</ele>
        <time>2015-06-17T13:30:08Z</time>
      </trkpt>
      <trkpt lat="43.37291" lon="6.14491">
        <ele>384.20001220703</ele>
        <time>2015-06-17T13:30:09Z</time>
      </trkpt>
      <trkpt lat="43.37291" lon="6.14492">
        <ele>384.39999389648</ele>
        <time>2015-06-17T13:30:10Z</time>
      </trkpt>
      <trkpt lat="43.37292" lon="6.14496">
        <ele>384.60000610352</ele>
        <time>2015-06-17T13:30:12Z</time>
      </trkpt>
      <trkpt lat="43.37292" lon="6.145">
        <ele>384.79998779297</ele>
        <time>2015-06-17T13:30:14Z</time>
      </trkpt>
      <trkpt lat="43.37293" lon="6.14504">
        <ele>385.20001220703</ele>
        <time>2015-06-17T13:30:16Z</time>
      </trkpt>
      <trkpt lat="43.37294" lon="6.14507">
        <ele>385.39999389648</ele>
        <time>2015-06-17T13:30:18Z</time>
      </trkpt>
      <trkpt lat="43.37294" lon="6.14509">
        <ele>385.39999389648</ele>
        <time>2015-06-17T13:30:19Z</time>
      </trkpt>
      <trkpt lat="43.37294" lon="6.14511">
        <ele>385.60000610352</ele>
        <time>2015-06-17T13:30:20Z</time>
      </trkpt>
      <trkpt lat="43.37295" lon="6.14515">
        <ele>385.39999389648</ele>
        <time>2015-06-17T13:30:22Z</time>
      </trkpt>
      <trkpt lat="43.37296" lon="6.14517">
        <ele>385.79998779297</ele>
        <time>2015-06-17T13:30:23Z</time>
      </trkpt>
      <trkpt lat="43.37296" lon="6.14519">
        <ele>386</ele>
        <time>2015-06-17T13:30:24Z</time>
      </trkpt>
      <trkpt lat="43.37298" lon="6.14523">
        <ele>386.39999389648</ele>
        <time>2015-06-17T13:30:26Z</time>
      </trkpt>
      <trkpt lat="43.37299" lon="6.14525">
        <ele>386.39999389648</ele>
        <time>2015-06-17T13:30:27Z</time>
      </trkpt>
      <trkpt lat="43.37299" lon="6.14527">
        <ele>386.39999389648</ele>
        <time>2015-06-17T13:30:28Z</time>
      </trkpt>
      <trkpt lat="43.37301" lon="6.14531">
        <ele>386.60000610352</ele>
        <time>2015-06-17T13:30:30Z</time>
      </trkpt>
      <trkpt lat="43.37302" lon="6.14535">
        <ele>386.79998779297</ele>
        <time>2015-06-17T13:30:32Z</time>
      </trkpt>
      <trkpt lat="43.37304" lon="6.1454">
        <ele>387.20001220703</ele>
        <time>2015-06-17T13:30:34Z</time>
      </trkpt>
      <trkpt lat="43.37304" lon="6.14541">
        <ele>387.60000610352</ele>
        <time>2015-06-17T13:30:35Z</time>
      </trkpt>
      <trkpt lat="43.37305" lon="6.14543">
        <ele>387.79998779297</ele>
        <time>2015-06-17T13:30:36Z</time>
      </trkpt>
      <trkpt lat="43.37306" lon="6.14547">
        <ele>388</ele>
        <time>2015-06-17T13:30:38Z</time>
      </trkpt>
      <trkpt lat="43.37307" lon="6.14551">
        <ele>388.20001220703</ele>
        <time>2015-06-17T13:30:40Z</time>
      </trkpt>
      <trkpt lat="43.37308" lon="6.14555">
        <ele>388.60000610352</ele>
        <time>2015-06-17T13:30:42Z</time>
      </trkpt>
      <trkpt lat="43.37309" lon="6.1456">
        <ele>388.79998779297</ele>
        <time>2015-06-17T13:30:44Z</time>
      </trkpt>
      <trkpt lat="43.3731" lon="6.14563">
        <ele>388.79998779297</ele>
        <time>2015-06-17T13:30:46Z</time>
      </trkpt>
      <trkpt lat="43.37311" lon="6.14566">
        <ele>389.20001220703</ele>
        <time>2015-06-17T13:30:48Z</time>
      </trkpt>
      <trkpt lat="43.37313" lon="6.14568">
        <ele>389.20001220703</ele>
        <time>2015-06-17T13:30:50Z</time>
      </trkpt>
      <trkpt lat="43.37315" lon="6.14572">
        <ele>389.20001220703</ele>
        <time>2015-06-17T13:30:52Z</time>
      </trkpt>
      <trkpt lat="43.37315" lon="6.14575">
        <ele>389.39999389648</ele>
        <time>2015-06-17T13:30:54Z</time>
      </trkpt>
      <trkpt lat="43.37316" lon="6.14577">
        <ele>389.60000610352</ele>
        <time>2015-06-17T13:30:55Z</time>
      </trkpt>
      <trkpt lat="43.37316" lon="6.14579">
        <ele>390</ele>
        <time>2015-06-17T13:30:56Z</time>
      </trkpt>
      <trkpt lat="43.37317" lon="6.14582">
        <ele>390</ele>
        <time>2015-06-17T13:30:58Z</time>
      </trkpt>
      <trkpt lat="43.37317" lon="6.14586">
        <ele>390.20001220703</ele>
        <time>2015-06-17T13:31:00Z</time>
      </trkpt>
      <trkpt lat="43.37318" lon="6.14591">
        <ele>390.39999389648</ele>
        <time>2015-06-17T13:31:02Z</time>
      </trkpt>
      <trkpt lat="43.37319" lon="6.14595">
        <ele>390.79998779297</ele>
        <time>2015-06-17T13:31:04Z</time>
      </trkpt>
      <trkpt lat="43.3732" lon="6.14599">
        <ele>391.20001220703</ele>
        <time>2015-06-17T13:31:06Z</time>
      </trkpt>
      <trkpt lat="43.37321" lon="6.14601">
        <ele>391.39999389648</ele>
        <time>2015-06-17T13:31:07Z</time>
      </trkpt>
      <trkpt lat="43.37321" lon="6.14603">
        <ele>391.39999389648</ele>
        <time>2015-06-17T13:31:08Z</time>
      </trkpt>
      <trkpt lat="43.37323" lon="6.14606">
        <ele>391.60000610352</ele>
        <time>2015-06-17T13:31:10Z</time>
      </trkpt>
      <trkpt lat="43.37325" lon="6.1461">
        <ele>391.79998779297</ele>
        <time>2015-06-17T13:31:12Z</time>
      </trkpt>
      <trkpt lat="43.37325" lon="6.14612">
        <ele>392</ele>
        <time>2015-06-17T13:31:13Z</time>
      </trkpt>
      <trkpt lat="43.37326" lon="6.14614">
        <ele>392.39999389648</ele>
        <time>2015-06-17T13:31:14Z</time>
      </trkpt>
      <trkpt lat="43.37328" lon="6.14618">
        <ele>392.39999389648</ele>
        <time>2015-06-17T13:31:16Z</time>
      </trkpt>
      <trkpt lat="43.37329" lon="6.14621">
        <ele>392.60000610352</ele>
        <time>2015-06-17T13:31:18Z</time>
      </trkpt>
      <trkpt lat="43.37331" lon="6.14625">
        <ele>392.79998779297</ele>
        <time>2015-06-17T13:31:20Z</time>
      </trkpt>
      <trkpt lat="43.37331" lon="6.14626">
        <ele>393</ele>
        <time>2015-06-17T13:31:21Z</time>
      </trkpt>
      <trkpt lat="43.37331" lon="6.14629">
        <ele>393.20001220703</ele>
        <time>2015-06-17T13:31:22Z</time>
      </trkpt>
      <trkpt lat="43.3733" lon="6.14632">
        <ele>393</ele>
        <time>2015-06-17T13:31:24Z</time>
      </trkpt>
      <trkpt lat="43.3733" lon="6.14636">
        <ele>393.39999389648</ele>
        <time>2015-06-17T13:31:26Z</time>
      </trkpt>
      <trkpt lat="43.37329" lon="6.14638">
        <ele>394</ele>
        <time>2015-06-17T13:31:28Z</time>
      </trkpt>
      <trkpt lat="43.37329" lon="6.1464">
        <ele>394</ele>
        <time>2015-06-17T13:31:29Z</time>
      </trkpt>
      <trkpt lat="43.37329" lon="6.14642">
        <ele>394.20001220703</ele>
        <time>2015-06-17T13:31:30Z</time>
      </trkpt>
      <trkpt lat="43.37329" lon="6.14645">
        <ele>394.20001220703</ele>
        <time>2015-06-17T13:31:32Z</time>
      </trkpt>
      <trkpt lat="43.37329" lon="6.14648">
        <ele>394.39999389648</ele>
        <time>2015-06-17T13:31:34Z</time>
      </trkpt>
      <trkpt lat="43.3733" lon="6.14652">
        <ele>394.79998779297</ele>
        <time>2015-06-17T13:31:36Z</time>
      </trkpt>
      <trkpt lat="43.3733" lon="6.14654">
        <ele>395.60000610352</ele>
        <time>2015-06-17T13:31:38Z</time>
      </trkpt>
      <trkpt lat="43.3733" lon="6.14657">
        <ele>396</ele>
        <time>2015-06-17T13:31:40Z</time>
      </trkpt>
      <trkpt lat="43.3733" lon="6.14661">
        <ele>396.20001220703</ele>
        <time>2015-06-17T13:31:42Z</time>
      </trkpt>
      <trkpt lat="43.37331" lon="6.14664">
        <ele>396.20001220703</ele>
        <time>2015-06-17T13:31:44Z</time>
      </trkpt>
      <trkpt lat="43.37331" lon="6.14668">
        <ele>396.60000610352</ele>
        <time>2015-06-17T13:31:46Z</time>
      </trkpt>
      <trkpt lat="43.37331" lon="6.14669">
        <ele>397</ele>
        <time>2015-06-17T13:31:47Z</time>
      </trkpt>
      <trkpt lat="43.37332" lon="6.14671">
        <ele>397.20001220703</ele>
        <time>2015-06-17T13:31:48Z</time>
      </trkpt>
      <trkpt lat="43.37333" lon="6.14675">
        <ele>397.39999389648</ele>
        <time>2015-06-17T13:31:50Z</time>
      </trkpt>
      <trkpt lat="43.37334" lon="6.14677">
        <ele>397.60000610352</ele>
        <time>2015-06-17T13:31:51Z</time>
      </trkpt>
      <trkpt lat="43.37334" lon="6.14679">
        <ele>397.79998779297</ele>
        <time>2015-06-17T13:31:52Z</time>
      </trkpt>
      <trkpt lat="43.37335" lon="6.14681">
        <ele>398</ele>
        <time>2015-06-17T13:31:53Z</time>
      </trkpt>
      <trkpt lat="43.37335" lon="6.14682">
        <ele>398.20001220703</ele>
        <time>2015-06-17T13:31:54Z</time>
      </trkpt>
      <trkpt lat="43.37337" lon="6.14687">
        <ele>398.39999389648</ele>
        <time>2015-06-17T13:31:56Z</time>
      </trkpt>
      <trkpt lat="43.37338" lon="6.14691">
        <ele>398.39999389648</ele>
        <time>2015-06-17T13:31:58Z</time>
      </trkpt>
      <trkpt lat="43.3734" lon="6.14695">
        <ele>398.79998779297</ele>
        <time>2015-06-17T13:32:00Z</time>
      </trkpt>
      <trkpt lat="43.37341" lon="6.14699">
        <ele>399</ele>
        <time>2015-06-17T13:32:02Z</time>
      </trkpt>
      <trkpt lat="43.37341" lon="6.14701">
        <ele>399</ele>
        <time>2015-06-17T13:32:03Z</time>
      </trkpt>
      <trkpt lat="43.37342" lon="6.14703">
        <ele>399.20001220703</ele>
        <time>2015-06-17T13:32:04Z</time>
      </trkpt>
      <trkpt lat="43.37343" lon="6.14705">
        <ele>399.20001220703</ele>
        <time>2015-06-17T13:32:05Z</time>
      </trkpt>
      <trkpt lat="43.37344" lon="6.14707">
        <ele>399.20001220703</ele>
        <time>2015-06-17T13:32:06Z</time>
      </trkpt>
      <trkpt lat="43.37344" lon="6.14711">
        <ele>399.60000610352</ele>
        <time>2015-06-17T13:32:08Z</time>
      </trkpt>
      <trkpt lat="43.37345" lon="6.14715">
        <ele>400</ele>
        <time>2015-06-17T13:32:10Z</time>
      </trkpt>
      <trkpt lat="43.37345" lon="6.14717">
        <ele>400</ele>
        <time>2015-06-17T13:32:11Z</time>
      </trkpt>
      <trkpt lat="43.37346" lon="6.14719">
        <ele>400.20001220703</ele>
        <time>2015-06-17T13:32:12Z</time>
      </trkpt>
      <trkpt lat="43.37346" lon="6.14723">
        <ele>400.20001220703</ele>
        <time>2015-06-17T13:32:14Z</time>
      </trkpt>
      <trkpt lat="43.37345" lon="6.14728">
        <ele>400.60000610352</ele>
        <time>2015-06-17T13:32:16Z</time>
      </trkpt>
      <trkpt lat="43.37345" lon="6.1473">
        <ele>401</ele>
        <time>2015-06-17T13:32:17Z</time>
      </trkpt>
      <trkpt lat="43.37345" lon="6.14732">
        <ele>401.20001220703</ele>
        <time>2015-06-17T13:32:18Z</time>
      </trkpt>
      <trkpt lat="43.37345" lon="6.14736">
        <ele>401.39999389648</ele>
        <time>2015-06-17T13:32:20Z</time>
      </trkpt>
      <trkpt lat="43.37345" lon="6.1474">
        <ele>402</ele>
        <time>2015-06-17T13:32:22Z</time>
      </trkpt>
      <trkpt lat="43.37346" lon="6.14743">
        <ele>403</ele>
        <time>2015-06-17T13:32:24Z</time>
      </trkpt>
      <trkpt lat="43.37345" lon="6.14747">
        <ele>403.20001220703</ele>
        <time>2015-06-17T13:32:26Z</time>
      </trkpt>
      <trkpt lat="43.37346" lon="6.1475">
        <ele>403.39999389648</ele>
        <time>2015-06-17T13:32:28Z</time>
      </trkpt>
      <trkpt lat="43.37347" lon="6.14754">
        <ele>403.79998779297</ele>
        <time>2015-06-17T13:32:30Z</time>
      </trkpt>
      <trkpt lat="43.37348" lon="6.14756">
        <ele>404</ele>
        <time>2015-06-17T13:32:31Z</time>
      </trkpt>
      <trkpt lat="43.37349" lon="6.14757">
        <ele>404.20001220703</ele>
        <time>2015-06-17T13:32:32Z</time>
      </trkpt>
      <trkpt lat="43.3735" lon="6.1476">
        <ele>404.39999389648</ele>
        <time>2015-06-17T13:32:34Z</time>
      </trkpt>
      <trkpt lat="43.37351" lon="6.14763">
        <ele>404.60000610352</ele>
        <time>2015-06-17T13:32:36Z</time>
      </trkpt>
      <trkpt lat="43.37353" lon="6.14767">
        <ele>404.79998779297</ele>
        <time>2015-06-17T13:32:38Z</time>
      </trkpt>
      <trkpt lat="43.37353" lon="6.14769">
        <ele>405</ele>
        <time>2015-06-17T13:32:39Z</time>
      </trkpt>
      <trkpt lat="43.37353" lon="6.1477">
        <ele>405.20001220703</ele>
        <time>2015-06-17T13:32:40Z</time>
      </trkpt>
      <trkpt lat="43.37354" lon="6.14774">
        <ele>405.39999389648</ele>
        <time>2015-06-17T13:32:42Z</time>
      </trkpt>
      <trkpt lat="43.37355" lon="6.14778">
        <ele>405.79998779297</ele>
        <time>2015-06-17T13:32:44Z</time>
      </trkpt>
      <trkpt lat="43.37356" lon="6.14782">
        <ele>406</ele>
        <time>2015-06-17T13:32:46Z</time>
      </trkpt>
      <trkpt lat="43.37357" lon="6.14786">
        <ele>406.39999389648</ele>
        <time>2015-06-17T13:32:48Z</time>
      </trkpt>
      <trkpt lat="43.37357" lon="6.1479">
        <ele>406.79998779297</ele>
        <time>2015-06-17T13:32:50Z</time>
      </trkpt>
      <trkpt lat="43.37357" lon="6.14791">
        <ele>407</ele>
        <time>2015-06-17T13:32:51Z</time>
      </trkpt>
      <trkpt lat="43.37357" lon="6.14793">
        <ele>407</ele>
        <time>2015-06-17T13:32:52Z</time>
      </trkpt>
      <trkpt lat="43.37357" lon="6.14797">
        <ele>407.20001220703</ele>
        <time>2015-06-17T13:32:54Z</time>
      </trkpt>
      <trkpt lat="43.37357" lon="6.148">
        <ele>407.79998779297</ele>
        <time>2015-06-17T13:32:56Z</time>
      </trkpt>
      <trkpt lat="43.37357" lon="6.14803">
        <ele>408</ele>
        <time>2015-06-17T13:32:58Z</time>
      </trkpt>
      <trkpt lat="43.37357" lon="6.14807">
        <ele>408.20001220703</ele>
        <time>2015-06-17T13:33:00Z</time>
      </trkpt>
      <trkpt lat="43.37358" lon="6.1481">
        <ele>408.60000610352</ele>
        <time>2015-06-17T13:33:02Z</time>
      </trkpt>
      <trkpt lat="43.37358" lon="6.14811">
        <ele>408.79998779297</ele>
        <time>2015-06-17T13:33:03Z</time>
      </trkpt>
      <trkpt lat="43.37358" lon="6.14813">
        <ele>409</ele>
        <time>2015-06-17T13:33:04Z</time>
      </trkpt>
      <trkpt lat="43.37358" lon="6.14815">
        <ele>409.20001220703</ele>
        <time>2015-06-17T13:33:05Z</time>
      </trkpt>
      <trkpt lat="43.37359" lon="6.14816">
        <ele>409.79998779297</ele>
        <time>2015-06-17T13:33:06Z</time>
      </trkpt>
      <trkpt lat="43.3736" lon="6.14819">
        <ele>409.79998779297</ele>
        <time>2015-06-17T13:33:08Z</time>
      </trkpt>
      <trkpt lat="43.3736" lon="6.14822">
        <ele>410.39999389648</ele>
        <time>2015-06-17T13:33:10Z</time>
      </trkpt>
      <trkpt lat="43.37361" lon="6.14823">
        <ele>410.60000610352</ele>
        <time>2015-06-17T13:33:11Z</time>
      </trkpt>
      <trkpt lat="43.37361" lon="6.14824">
        <ele>410.60000610352</ele>
        <time>2015-06-17T13:33:12Z</time>
      </trkpt>
      <trkpt lat="43.37362" lon="6.14827">
        <ele>411</ele>
        <time>2015-06-17T13:33:14Z</time>
      </trkpt>
      <trkpt lat="43.37362" lon="6.1483">
        <ele>411</ele>
        <time>2015-06-17T13:33:16Z</time>
      </trkpt>
      <trkpt lat="43.37363" lon="6.14833">
        <ele>411.20001220703</ele>
        <time>2015-06-17T13:33:18Z</time>
      </trkpt>
      <trkpt lat="43.37363" lon="6.14834">
        <ele>411.20001220703</ele>
        <time>2015-06-17T13:33:19Z</time>
      </trkpt>
      <trkpt lat="43.37363" lon="6.14836">
        <ele>411.39999389648</ele>
        <time>2015-06-17T13:33:20Z</time>
      </trkpt>
      <trkpt lat="43.37363" lon="6.14839">
        <ele>411.60000610352</ele>
        <time>2015-06-17T13:33:22Z</time>
      </trkpt>
      <trkpt lat="43.37364" lon="6.14841">
        <ele>411.79998779297</ele>
        <time>2015-06-17T13:33:24Z</time>
      </trkpt>
      <trkpt lat="43.37364" lon="6.14844">
        <ele>412</ele>
        <time>2015-06-17T13:33:26Z</time>
      </trkpt>
      <trkpt lat="43.37363" lon="6.14847">
        <ele>412.60000610352</ele>
        <time>2015-06-17T13:33:28Z</time>
      </trkpt>
      <trkpt lat="43.37363" lon="6.14848">
        <ele>412.79998779297</ele>
        <time>2015-06-17T13:33:29Z</time>
      </trkpt>
      <trkpt lat="43.37363" lon="6.14849">
        <ele>413</ele>
        <time>2015-06-17T13:33:30Z</time>
      </trkpt>
      <trkpt lat="43.37363" lon="6.14852">
        <ele>413.39999389648</ele>
        <time>2015-06-17T13:33:32Z</time>
      </trkpt>
      <trkpt lat="43.37364" lon="6.14853">
        <ele>413.60000610352</ele>
        <time>2015-06-17T13:33:33Z</time>
      </trkpt>
      <trkpt lat="43.37364" lon="6.14854">
        <ele>413.60000610352</ele>
        <time>2015-06-17T13:33:34Z</time>
      </trkpt>
      <trkpt lat="43.37365" lon="6.14856">
        <ele>413.60000610352</ele>
        <time>2015-06-17T13:33:36Z</time>
      </trkpt>
      <trkpt lat="43.37365" lon="6.14859">
        <ele>413.79998779297</ele>
        <time>2015-06-17T13:33:38Z</time>
      </trkpt>
      <trkpt lat="43.37365" lon="6.14859">
        <ele>413.79998779297</ele>
        <time>2015-06-17T13:33:39Z</time>
      </trkpt>
      <trkpt lat="43.37365" lon="6.14859">
        <ele>413.79998779297</ele>
        <time>2015-06-17T13:33:40Z</time>
      </trkpt>
      <trkpt lat="43.37366" lon="6.14859">
        <ele>413.79998779297</ele>
        <time>2015-06-17T13:33:42Z</time>
      </trkpt>
      <trkpt lat="43.37366" lon="6.14859">
        <ele>413.60000610352</ele>
        <time>2015-06-17T13:33:44Z</time>
      </trkpt>
      <trkpt lat="43.37366" lon="6.14859">
        <ele>413.60000610352</ele>
        <time>2015-06-17T13:33:46Z</time>
      </trkpt>
      <trkpt lat="43.37366" lon="6.14859">
        <ele>413.60000610352</ele>
        <time>2015-06-17T13:33:48Z</time>
      </trkpt>
      <trkpt lat="43.37366" lon="6.14859">
        <ele>413.60000610352</ele>
        <time>2015-06-17T13:33:50Z</time>
      </trkpt>
      <trkpt lat="43.37366" lon="6.14859">
        <ele>413.60000610352</ele>
        <time>2015-06-17T13:33:52Z</time>
      </trkpt>
      <trkpt lat="43.37366" lon="6.14859">
        <ele>413.79998779297</ele>
        <time>2015-06-17T13:33:54Z</time>
      </trkpt>
      <trkpt lat="43.37366" lon="6.14859">
        <ele>413.79998779297</ele>
        <time>2015-06-17T13:33:56Z</time>
      </trkpt>
      <trkpt lat="43.37366" lon="6.14859">
        <ele>414</ele>
        <time>2015-06-17T13:33:58Z</time>
      </trkpt>
      <trkpt lat="43.37366" lon="6.14859">
        <ele>414</ele>
        <time>2015-06-17T13:33:59Z</time>
      </trkpt>
      <trkpt lat="43.37366" lon="6.14859">
        <ele>413.79998779297</ele>
        <time>2015-06-17T13:34:00Z</time>
      </trkpt>
      <trkpt lat="43.37366" lon="6.14859">
        <ele>413.79998779297</ele>
        <time>2015-06-17T13:34:02Z</time>
      </trkpt>
      <trkpt lat="43.37366" lon="6.14859">
        <ele>413.79998779297</ele>
        <time>2015-06-17T13:34:04Z</time>
      </trkpt>
      <trkpt lat="43.37366" lon="6.14859">
        <ele>413.60000610352</ele>
        <time>2015-06-17T13:34:06Z</time>
      </trkpt>
      <trkpt lat="43.37366" lon="6.14859">
        <ele>413.79998779297</ele>
        <time>2015-06-17T13:34:08Z</time>
      </trkpt>
      <trkpt lat="43.37366" lon="6.14859">
        <ele>413.60000610352</ele>
        <time>2015-06-17T13:34:10Z</time>
      </trkpt>
      <trkpt lat="43.37366" lon="6.14859">
        <ele>413.39999389648</ele>
        <time>2015-06-17T13:34:12Z</time>
      </trkpt>
      <trkpt lat="43.37366" lon="6.14859">
        <ele>413.39999389648</ele>
        <time>2015-06-17T13:34:14Z</time>
      </trkpt>
      <trkpt lat="43.37366" lon="6.14859">
        <ele>413.20001220703</ele>
        <time>2015-06-17T13:34:16Z</time>
      </trkpt>
      <trkpt lat="43.37366" lon="6.14859">
        <ele>413.20001220703</ele>
        <time>2015-06-17T13:34:17Z</time>
      </trkpt>
      <trkpt lat="43.37366" lon="6.14859">
        <ele>413.20001220703</ele>
        <time>2015-06-17T13:34:18Z</time>
      </trkpt>
      <trkpt lat="43.37366" lon="6.14859">
        <ele>413.20001220703</ele>
        <time>2015-06-17T13:34:20Z</time>
      </trkpt>
      <trkpt lat="43.37366" lon="6.14859">
        <ele>413.39999389648</ele>
        <time>2015-06-17T13:34:22Z</time>
      </trkpt>
      <trkpt lat="43.37366" lon="6.14859">
        <ele>413.39999389648</ele>
        <time>2015-06-17T13:34:24Z</time>
      </trkpt>
      <trkpt lat="43.37366" lon="6.14859">
        <ele>413.39999389648</ele>
        <time>2015-06-17T13:34:26Z</time>
      </trkpt>
      <trkpt lat="43.37366" lon="6.14859">
        <ele>413.60000610352</ele>
        <time>2015-06-17T13:34:28Z</time>
      </trkpt>
      <trkpt lat="43.37366" lon="6.1486">
        <ele>413.39999389648</ele>
        <time>2015-06-17T13:34:30Z</time>
      </trkpt>
      <trkpt lat="43.37366" lon="6.1486">
        <ele>413.60000610352</ele>
        <time>2015-06-17T13:34:32Z</time>
      </trkpt>
      <trkpt lat="43.37366" lon="6.1486">
        <ele>413.60000610352</ele>
        <time>2015-06-17T13:34:34Z</time>
      </trkpt>
      <trkpt lat="43.37366" lon="6.1486">
        <ele>413.79998779297</ele>
        <time>2015-06-17T13:34:36Z</time>
      </trkpt>
      <trkpt lat="43.37365" lon="6.1486">
        <ele>413.79998779297</ele>
        <time>2015-06-17T13:34:38Z</time>
      </trkpt>
      <trkpt lat="43.37366" lon="6.1486">
        <ele>413.60000610352</ele>
        <time>2015-06-17T13:34:40Z</time>
      </trkpt>
      <trkpt lat="43.37365" lon="6.1486">
        <ele>413.79998779297</ele>
        <time>2015-06-17T13:34:42Z</time>
      </trkpt>
      <trkpt lat="43.37365" lon="6.1486">
        <ele>413.79998779297</ele>
        <time>2015-06-17T13:34:43Z</time>
      </trkpt>
      <trkpt lat="43.37365" lon="6.1486">
        <ele>414</ele>
        <time>2015-06-17T13:34:46Z</time>
      </trkpt>
      <trkpt lat="43.37365" lon="6.1486">
        <ele>413.79998779297</ele>
        <time>2015-06-17T13:34:48Z</time>
      </trkpt>
      <trkpt lat="43.37365" lon="6.1486">
        <ele>413.79998779297</ele>
        <time>2015-06-17T13:34:52Z</time>
      </trkpt>
      <trkpt lat="43.37365" lon="6.1486">
        <ele>413.60000610352</ele>
        <time>2015-06-17T13:34:54Z</time>
      </trkpt>
      <trkpt lat="43.37365" lon="6.1486">
        <ele>413.60000610352</ele>
        <time>2015-06-17T13:34:56Z</time>
      </trkpt>
      <trkpt lat="43.37365" lon="6.1486">
        <ele>413.60000610352</ele>
        <time>2015-06-17T13:34:58Z</time>
      </trkpt>
      <trkpt lat="43.37365" lon="6.1486">
        <ele>413.39999389648</ele>
        <time>2015-06-17T13:35:00Z</time>
      </trkpt>
      <trkpt lat="43.37365" lon="6.1486">
        <ele>413.20001220703</ele>
        <time>2015-06-17T13:35:04Z</time>
      </trkpt>
      <trkpt lat="43.37365" lon="6.1486">
        <ele>413.39999389648</ele>
        <time>2015-06-17T13:35:06Z</time>
      </trkpt>
      <trkpt lat="43.37365" lon="6.1486">
        <ele>413.39999389648</ele>
        <time>2015-06-17T13:35:08Z</time>
      </trkpt>
      <trkpt lat="43.37365" lon="6.1486">
        <ele>413.39999389648</ele>
        <time>2015-06-17T13:35:10Z</time>
      </trkpt>
      <trkpt lat="43.37365" lon="6.1486">
        <ele>413.39999389648</ele>
        <time>2015-06-17T13:35:12Z</time>
      </trkpt>
      <trkpt lat="43.37365" lon="6.1486">
        <ele>413.39999389648</ele>
        <time>2015-06-17T13:35:14Z</time>
      </trkpt>
      <trkpt lat="43.37365" lon="6.1486">
        <ele>413.20001220703</ele>
        <time>2015-06-17T13:35:16Z</time>
      </trkpt>
      <trkpt lat="43.37365" lon="6.1486">
        <ele>413.39999389648</ele>
        <time>2015-06-17T13:35:18Z</time>
      </trkpt>
      <trkpt lat="43.37365" lon="6.1486">
        <ele>413.39999389648</ele>
        <time>2015-06-17T13:35:20Z</time>
      </trkpt>
      <trkpt lat="43.37365" lon="6.1486">
        <ele>413.39999389648</ele>
        <time>2015-06-17T13:35:22Z</time>
      </trkpt>
      <trkpt lat="43.37365" lon="6.1486">
        <ele>413.39999389648</ele>
        <time>2015-06-17T13:35:23Z</time>
      </trkpt>
      <trkpt lat="43.37365" lon="6.1486">
        <ele>413.20001220703</ele>
        <time>2015-06-17T13:35:26Z</time>
      </trkpt>
      <trkpt lat="43.37365" lon="6.1486">
        <ele>413.39999389648</ele>
        <time>2015-06-17T13:35:28Z</time>
      </trkpt>
      <trkpt lat="43.37365" lon="6.1486">
        <ele>413.39999389648</ele>
        <time>2015-06-17T13:35:30Z</time>
      </trkpt>
      <trkpt lat="43.37365" lon="6.1486">
        <ele>413.60000610352</ele>
        <time>2015-06-17T13:35:32Z</time>
      </trkpt>
      <trkpt lat="43.37365" lon="6.14861">
        <ele>413.60000610352</ele>
        <time>2015-06-17T13:35:34Z</time>
      </trkpt>
      <trkpt lat="43.37365" lon="6.14861">
        <ele>413.60000610352</ele>
        <time>2015-06-17T13:35:36Z</time>
      </trkpt>
      <trkpt lat="43.37365" lon="6.14861">
        <ele>413.60000610352</ele>
        <time>2015-06-17T13:35:37Z</time>
      </trkpt>
      <trkpt lat="43.37366" lon="6.14861">
        <ele>413.79998779297</ele>
        <time>2015-06-17T13:35:38Z</time>
      </trkpt>
      <trkpt lat="43.37366" lon="6.14861">
        <ele>413.79998779297</ele>
        <time>2015-06-17T13:35:40Z</time>
      </trkpt>
      <trkpt lat="43.37366" lon="6.14862">
        <ele>413.60000610352</ele>
        <time>2015-06-17T13:35:42Z</time>
      </trkpt>
      <trkpt lat="43.37367" lon="6.14862">
        <ele>413.79998779297</ele>
        <time>2015-06-17T13:35:44Z</time>
      </trkpt>
      <trkpt lat="43.37367" lon="6.14862">
        <ele>413.60000610352</ele>
        <time>2015-06-17T13:35:46Z</time>
      </trkpt>
      <trkpt lat="43.37367" lon="6.14863">
        <ele>413.60000610352</ele>
        <time>2015-06-17T13:35:48Z</time>
      </trkpt>
      <trkpt lat="43.37367" lon="6.14862">
        <ele>413.60000610352</ele>
        <time>2015-06-17T13:35:50Z</time>
      </trkpt>
      <trkpt lat="43.37367" lon="6.14862">
        <ele>413.60000610352</ele>
        <time>2015-06-17T13:35:52Z</time>
      </trkpt>
      <trkpt lat="43.37367" lon="6.14862">
        <ele>413.39999389648</ele>
        <time>2015-06-17T13:35:54Z</time>
      </trkpt>
      <trkpt lat="43.37367" lon="6.14862">
        <ele>413.60000610352</ele>
        <time>2015-06-17T13:35:56Z</time>
      </trkpt>
      <trkpt lat="43.37367" lon="6.14862">
        <ele>413.60000610352</ele>
        <time>2015-06-17T13:35:58Z</time>
      </trkpt>
      <trkpt lat="43.37367" lon="6.14862">
        <ele>413.79998779297</ele>
        <time>2015-06-17T13:35:59Z</time>
      </trkpt>
      <trkpt lat="43.37367" lon="6.14862">
        <ele>413.79998779297</ele>
        <time>2015-06-17T13:36:00Z</time>
      </trkpt>
      <trkpt lat="43.37367" lon="6.14862">
        <ele>413.39999389648</ele>
        <time>2015-06-17T13:36:02Z</time>
      </trkpt>
      <trkpt lat="43.37367" lon="6.14862">
        <ele>413.60000610352</ele>
        <time>2015-06-17T13:36:04Z</time>
      </trkpt>
      <trkpt lat="43.37367" lon="6.14862">
        <ele>413.60000610352</ele>
        <time>2015-06-17T13:36:06Z</time>
      </trkpt>
      <trkpt lat="43.37366" lon="6.14862">
        <ele>413.60000610352</ele>
        <time>2015-06-17T13:36:08Z</time>
      </trkpt>
      <trkpt lat="43.37366" lon="6.14862">
        <ele>413.79998779297</ele>
        <time>2015-06-17T13:36:10Z</time>
      </trkpt>
      <trkpt lat="43.37366" lon="6.14862">
        <ele>413.20001220703</ele>
        <time>2015-06-17T13:36:12Z</time>
      </trkpt>
      <trkpt lat="43.37366" lon="6.14862">
        <ele>413.39999389648</ele>
        <time>2015-06-17T13:36:14Z</time>
      </trkpt>
      <trkpt lat="43.37366" lon="6.14862">
        <ele>413.39999389648</ele>
        <time>2015-06-17T13:36:16Z</time>
      </trkpt>
      <trkpt lat="43.37366" lon="6.14862">
        <ele>413.39999389648</ele>
        <time>2015-06-17T13:36:18Z</time>
      </trkpt>
      <trkpt lat="43.37366" lon="6.14862">
        <ele>413.20001220703</ele>
        <time>2015-06-17T13:36:20Z</time>
      </trkpt>
      <trkpt lat="43.37366" lon="6.14862">
        <ele>413.20001220703</ele>
        <time>2015-06-17T13:36:22Z</time>
      </trkpt>
      <trkpt lat="43.37366" lon="6.14862">
        <ele>413.20001220703</ele>
        <time>2015-06-17T13:36:24Z</time>
      </trkpt>
      <trkpt lat="43.37366" lon="6.14862">
        <ele>413.20001220703</ele>
        <time>2015-06-17T13:36:26Z</time>
      </trkpt>
      <trkpt lat="43.37366" lon="6.14862">
        <ele>413.39999389648</ele>
        <time>2015-06-17T13:36:28Z</time>
      </trkpt>
      <trkpt lat="43.37366" lon="6.14862">
        <ele>413.20001220703</ele>
        <time>2015-06-17T13:36:30Z</time>
      </trkpt>
      <trkpt lat="43.37366" lon="6.14862">
        <ele>413.39999389648</ele>
        <time>2015-06-17T13:36:32Z</time>
      </trkpt>
      <trkpt lat="43.37366" lon="6.14862">
        <ele>413.39999389648</ele>
        <time>2015-06-17T13:36:34Z</time>
      </trkpt>
      <trkpt lat="43.37366" lon="6.14862">
        <ele>413.20001220703</ele>
        <time>2015-06-17T13:36:36Z</time>
      </trkpt>
      <trkpt lat="43.37366" lon="6.14862">
        <ele>413.20001220703</ele>
        <time>2015-06-17T13:36:38Z</time>
      </trkpt>
      <trkpt lat="43.37366" lon="6.14862">
        <ele>413.20001220703</ele>
        <time>2015-06-17T13:36:40Z</time>
      </trkpt>
      <trkpt lat="43.37366" lon="6.14862">
        <ele>413.20001220703</ele>
        <time>2015-06-17T13:36:42Z</time>
      </trkpt>
      <trkpt lat="43.37366" lon="6.14862">
        <ele>413.20001220703</ele>
        <time>2015-06-17T13:36:44Z</time>
      </trkpt>
      <trkpt lat="43.37366" lon="6.14862">
        <ele>413.39999389648</ele>
        <time>2015-06-17T13:36:46Z</time>
      </trkpt>
      <trkpt lat="43.37366" lon="6.14862">
        <ele>413.39999389648</ele>
        <time>2015-06-17T13:36:48Z</time>
      </trkpt>
      <trkpt lat="43.37366" lon="6.14862">
        <ele>413.39999389648</ele>
        <time>2015-06-17T13:36:50Z</time>
      </trkpt>
      <trkpt lat="43.37366" lon="6.14862">
        <ele>413.39999389648</ele>
        <time>2015-06-17T13:36:52Z</time>
      </trkpt>
      <trkpt lat="43.37366" lon="6.14862">
        <ele>413.60000610352</ele>
        <time>2015-06-17T13:36:54Z</time>
      </trkpt>
      <trkpt lat="43.37366" lon="6.14862">
        <ele>413.60000610352</ele>
        <time>2015-06-17T13:36:56Z</time>
      </trkpt>
      <trkpt lat="43.37366" lon="6.14862">
        <ele>413.20001220703</ele>
        <time>2015-06-17T13:36:58Z</time>
      </trkpt>
      <trkpt lat="43.37366" lon="6.14862">
        <ele>413.39999389648</ele>
        <time>2015-06-17T13:37:00Z</time>
      </trkpt>
      <trkpt lat="43.37366" lon="6.14862">
        <ele>413.39999389648</ele>
        <time>2015-06-17T13:37:02Z</time>
      </trkpt>
      <trkpt lat="43.37366" lon="6.14862">
        <ele>413.39999389648</ele>
        <time>2015-06-17T13:37:04Z</time>
      </trkpt>
      <trkpt lat="43.37366" lon="6.14862">
        <ele>413.39999389648</ele>
        <time>2015-06-17T13:37:06Z</time>
      </trkpt>
      <trkpt lat="43.37366" lon="6.14862">
        <ele>413.60000610352</ele>
        <time>2015-06-17T13:37:08Z</time>
      </trkpt>
      <trkpt lat="43.37366" lon="6.14862">
        <ele>413.60000610352</ele>
        <time>2015-06-17T13:37:10Z</time>
      </trkpt>
      <trkpt lat="43.37366" lon="6.14862">
        <ele>413.79998779297</ele>
        <time>2015-06-17T13:37:12Z</time>
      </trkpt>
      <trkpt lat="43.37366" lon="6.14862">
        <ele>413.60000610352</ele>
        <time>2015-06-17T13:37:14Z</time>
      </trkpt>
      <trkpt lat="43.37366" lon="6.14862">
        <ele>413.79998779297</ele>
        <time>2015-06-17T13:37:16Z</time>
      </trkpt>
      <trkpt lat="43.37366" lon="6.14862">
        <ele>413.79998779297</ele>
        <time>2015-06-17T13:37:18Z</time>
      </trkpt>
      <trkpt lat="43.37366" lon="6.14862">
        <ele>413.79998779297</ele>
        <time>2015-06-17T13:37:20Z</time>
      </trkpt>
      <trkpt lat="43.37366" lon="6.14862">
        <ele>413.79998779297</ele>
        <time>2015-06-17T13:37:22Z</time>
      </trkpt>
      <trkpt lat="43.37366" lon="6.14862">
        <ele>413.79998779297</ele>
        <time>2015-06-17T13:37:24Z</time>
      </trkpt>
      <trkpt lat="43.37366" lon="6.14862">
        <ele>413.79998779297</ele>
        <time>2015-06-17T13:37:26Z</time>
      </trkpt>
      <trkpt lat="43.37366" lon="6.14862">
        <ele>413.60000610352</ele>
        <time>2015-06-17T13:37:28Z</time>
      </trkpt>
      <trkpt lat="43.37366" lon="6.14862">
        <ele>413.79998779297</ele>
        <time>2015-06-17T13:37:30Z</time>
      </trkpt>
      <trkpt lat="43.37366" lon="6.14862">
        <ele>413.60000610352</ele>
        <time>2015-06-17T13:37:32Z</time>
      </trkpt>
      <trkpt lat="43.37366" lon="6.14862">
        <ele>413.60000610352</ele>
        <time>2015-06-17T13:37:34Z</time>
      </trkpt>
      <trkpt lat="43.37366" lon="6.14862">
        <ele>413.79998779297</ele>
        <time>2015-06-17T13:37:36Z</time>
      </trkpt>
      <trkpt lat="43.37366" lon="6.14862">
        <ele>413.79998779297</ele>
        <time>2015-06-17T13:37:38Z</time>
      </trkpt>
      <trkpt lat="43.37366" lon="6.14862">
        <ele>413.79998779297</ele>
        <time>2015-06-17T13:37:40Z</time>
      </trkpt>
      <trkpt lat="43.37366" lon="6.14862">
        <ele>413.79998779297</ele>
        <time>2015-06-17T13:37:42Z</time>
      </trkpt>
      <trkpt lat="43.37366" lon="6.14862">
        <ele>413.79998779297</ele>
        <time>2015-06-17T13:37:44Z</time>
      </trkpt>
      <trkpt lat="43.37366" lon="6.14862">
        <ele>414</ele>
        <time>2015-06-17T13:37:46Z</time>
      </trkpt>
      <trkpt lat="43.37366" lon="6.14862">
        <ele>413.79998779297</ele>
        <time>2015-06-17T13:37:48Z</time>
      </trkpt>
      <trkpt lat="43.37366" lon="6.14862">
        <ele>413.79998779297</ele>
        <time>2015-06-17T13:37:50Z</time>
      </trkpt>
      <trkpt lat="43.37366" lon="6.14862">
        <ele>413.79998779297</ele>
        <time>2015-06-17T13:37:52Z</time>
      </trkpt>
      <trkpt lat="43.37366" lon="6.14862">
        <ele>413.79998779297</ele>
        <time>2015-06-17T13:37:54Z</time>
      </trkpt>
      <trkpt lat="43.37366" lon="6.14862">
        <ele>414</ele>
        <time>2015-06-17T13:37:56Z</time>
      </trkpt>
      <trkpt lat="43.37366" lon="6.14862">
        <ele>413.79998779297</ele>
        <time>2015-06-17T13:37:58Z</time>
      </trkpt>
      <trkpt lat="43.37366" lon="6.14863">
        <ele>413.39999389648</ele>
        <time>2015-06-17T13:38:00Z</time>
      </trkpt>
      <trkpt lat="43.37366" lon="6.14863">
        <ele>413.39999389648</ele>
        <time>2015-06-17T13:38:02Z</time>
      </trkpt>
      <trkpt lat="43.37366" lon="6.14863">
        <ele>413.60000610352</ele>
        <time>2015-06-17T13:38:04Z</time>
      </trkpt>
      <trkpt lat="43.37366" lon="6.14863">
        <ele>413.79998779297</ele>
        <time>2015-06-17T13:38:06Z</time>
      </trkpt>
      <trkpt lat="43.37366" lon="6.14863">
        <ele>413.60000610352</ele>
        <time>2015-06-17T13:38:07Z</time>
      </trkpt>
      <trkpt lat="43.37366" lon="6.14863">
        <ele>413.60000610352</ele>
        <time>2015-06-17T13:38:08Z</time>
      </trkpt>
      <trkpt lat="43.37366" lon="6.14863">
        <ele>413.79998779297</ele>
        <time>2015-06-17T13:38:10Z</time>
      </trkpt>
      <trkpt lat="43.37366" lon="6.14863">
        <ele>413.79998779297</ele>
        <time>2015-06-17T13:38:12Z</time>
      </trkpt>
      <trkpt lat="43.37366" lon="6.14863">
        <ele>413.79998779297</ele>
        <time>2015-06-17T13:38:14Z</time>
      </trkpt>
      <trkpt lat="43.37366" lon="6.14863">
        <ele>413.39999389648</ele>
        <time>2015-06-17T13:38:16Z</time>
      </trkpt>
      <trkpt lat="43.37366" lon="6.14863">
        <ele>413.20001220703</ele>
        <time>2015-06-17T13:38:18Z</time>
      </trkpt>
      <trkpt lat="43.37366" lon="6.14863">
        <ele>413.39999389648</ele>
        <time>2015-06-17T13:38:20Z</time>
      </trkpt>
      <trkpt lat="43.37367" lon="6.14863">
        <ele>413.60000610352</ele>
        <time>2015-06-17T13:38:22Z</time>
      </trkpt>
      <trkpt lat="43.37367" lon="6.14863">
        <ele>413.79998779297</ele>
        <time>2015-06-17T13:38:24Z</time>
      </trkpt>
      <trkpt lat="43.37367" lon="6.14863">
        <ele>413.79998779297</ele>
        <time>2015-06-17T13:38:26Z</time>
      </trkpt>
      <trkpt lat="43.37367" lon="6.14863">
        <ele>414</ele>
        <time>2015-06-17T13:38:28Z</time>
      </trkpt>
      <trkpt lat="43.37367" lon="6.14863">
        <ele>413.79998779297</ele>
        <time>2015-06-17T13:38:30Z</time>
      </trkpt>
      <trkpt lat="43.37367" lon="6.14863">
        <ele>413.39999389648</ele>
        <time>2015-06-17T13:38:32Z</time>
      </trkpt>
      <trkpt lat="43.37367" lon="6.14863">
        <ele>413.60000610352</ele>
        <time>2015-06-17T13:38:34Z</time>
      </trkpt>
      <trkpt lat="43.37367" lon="6.14863">
        <ele>413.60000610352</ele>
        <time>2015-06-17T13:38:36Z</time>
      </trkpt>
      <trkpt lat="43.37367" lon="6.14863">
        <ele>413.39999389648</ele>
        <time>2015-06-17T13:38:38Z</time>
      </trkpt>
      <trkpt lat="43.37367" lon="6.14863">
        <ele>413.39999389648</ele>
        <time>2015-06-17T13:38:40Z</time>
      </trkpt>
      <trkpt lat="43.37367" lon="6.14863">
        <ele>413.60000610352</ele>
        <time>2015-06-17T13:38:42Z</time>
      </trkpt>
      <trkpt lat="43.37367" lon="6.14863">
        <ele>413.39999389648</ele>
        <time>2015-06-17T13:38:43Z</time>
      </trkpt>
      <trkpt lat="43.37367" lon="6.14863">
        <ele>413.39999389648</ele>
        <time>2015-06-17T13:38:44Z</time>
      </trkpt>
      <trkpt lat="43.37367" lon="6.14863">
        <ele>413.20001220703</ele>
        <time>2015-06-17T13:38:46Z</time>
      </trkpt>
      <trkpt lat="43.37367" lon="6.14863">
        <ele>413.39999389648</ele>
        <time>2015-06-17T13:38:47Z</time>
      </trkpt>
      <trkpt lat="43.37367" lon="6.14863">
        <ele>413.39999389648</ele>
        <time>2015-06-17T13:38:48Z</time>
      </trkpt>
      <trkpt lat="43.37367" lon="6.14863">
        <ele>413.60000610352</ele>
        <time>2015-06-17T13:38:50Z</time>
      </trkpt>
      <trkpt lat="43.37367" lon="6.14864">
        <ele>413.60000610352</ele>
        <time>2015-06-17T13:38:52Z</time>
      </trkpt>
      <trkpt lat="43.37367" lon="6.14864">
        <ele>413.60000610352</ele>
        <time>2015-06-17T13:38:54Z</time>
      </trkpt>
      <trkpt lat="43.37367" lon="6.14864">
        <ele>413.20001220703</ele>
        <time>2015-06-17T13:38:56Z</time>
      </trkpt>
      <trkpt lat="43.37368" lon="6.14864">
        <ele>413.20001220703</ele>
        <time>2015-06-17T13:38:57Z</time>
      </trkpt>
      <trkpt lat="43.37368" lon="6.14864">
        <ele>413.39999389648</ele>
        <time>2015-06-17T13:38:58Z</time>
      </trkpt>
      <trkpt lat="43.37368" lon="6.14864">
        <ele>413.39999389648</ele>
        <time>2015-06-17T13:39:00Z</time>
      </trkpt>
      <trkpt lat="43.37368" lon="6.14865">
        <ele>413.39999389648</ele>
        <time>2015-06-17T13:39:02Z</time>
      </trkpt>
      <trkpt lat="43.37368" lon="6.14865">
        <ele>413.60000610352</ele>
        <time>2015-06-17T13:39:04Z</time>
      </trkpt>
      <trkpt lat="43.37368" lon="6.14865">
        <ele>413.60000610352</ele>
        <time>2015-06-17T13:39:06Z</time>
      </trkpt>
      <trkpt lat="43.37368" lon="6.14866">
        <ele>413.60000610352</ele>
        <time>2015-06-17T13:39:07Z</time>
      </trkpt>
      <trkpt lat="43.37368" lon="6.14868">
        <ele>413.60000610352</ele>
        <time>2015-06-17T13:39:08Z</time>
      </trkpt>
      <trkpt lat="43.37367" lon="6.1487">
        <ele>413.60000610352</ele>
        <time>2015-06-17T13:39:10Z</time>
      </trkpt>
      <trkpt lat="43.37367" lon="6.14874">
        <ele>413.60000610352</ele>
        <time>2015-06-17T13:39:12Z</time>
      </trkpt>
      <trkpt lat="43.37367" lon="6.14876">
        <ele>413.39999389648</ele>
        <time>2015-06-17T13:39:13Z</time>
      </trkpt>
      <trkpt lat="43.37368" lon="6.14878">
        <ele>413.39999389648</ele>
        <time>2015-06-17T13:39:14Z</time>
      </trkpt>
      <trkpt lat="43.3737" lon="6.14882">
        <ele>413.20001220703</ele>
        <time>2015-06-17T13:39:16Z</time>
      </trkpt>
      <trkpt lat="43.37373" lon="6.14888">
        <ele>413.20001220703</ele>
        <time>2015-06-17T13:39:18Z</time>
      </trkpt>
      <trkpt lat="43.37374" lon="6.14891">
        <ele>413.39999389648</ele>
        <time>2015-06-17T13:39:19Z</time>
      </trkpt>
      <trkpt lat="43.37377" lon="6.14894">
        <ele>413.20001220703</ele>
        <time>2015-06-17T13:39:20Z</time>
      </trkpt>
      <trkpt lat="43.37381" lon="6.14902">
        <ele>412.20001220703</ele>
        <time>2015-06-17T13:39:22Z</time>
      </trkpt>
      <trkpt lat="43.37382" lon="6.14906">
        <ele>412.39999389648</ele>
        <time>2015-06-17T13:39:23Z</time>
      </trkpt>
      <trkpt lat="43.37383" lon="6.14908">
        <ele>411.79998779297</ele>
        <time>2015-06-17T13:39:24Z</time>
      </trkpt>
      <trkpt lat="43.37383" lon="6.14911">
        <ele>411.20001220703</ele>
        <time>2015-06-17T13:39:25Z</time>
      </trkpt>
      <trkpt lat="43.37383" lon="6.14914">
        <ele>410.79998779297</ele>
        <time>2015-06-17T13:39:26Z</time>
      </trkpt>
      <trkpt lat="43.37383" lon="6.14917">
        <ele>410.39999389648</ele>
        <time>2015-06-17T13:39:27Z</time>
      </trkpt>
      <trkpt lat="43.37383" lon="6.14921">
        <ele>410.60000610352</ele>
        <time>2015-06-17T13:39:28Z</time>
      </trkpt>
      <trkpt lat="43.37384" lon="6.14924">
        <ele>410.60000610352</ele>
        <time>2015-06-17T13:39:29Z</time>
      </trkpt>
      <trkpt lat="43.37384" lon="6.14929">
        <ele>410.39999389648</ele>
        <time>2015-06-17T13:39:30Z</time>
      </trkpt>
      <trkpt lat="43.37385" lon="6.14934">
        <ele>409.79998779297</ele>
        <time>2015-06-17T13:39:31Z</time>
      </trkpt>
      <trkpt lat="43.37386" lon="6.14939">
        <ele>409.60000610352</ele>
        <time>2015-06-17T13:39:32Z</time>
      </trkpt>
      <trkpt lat="43.37387" lon="6.14949">
        <ele>409</ele>
        <time>2015-06-17T13:39:34Z</time>
      </trkpt>
      <trkpt lat="43.37388" lon="6.14953">
        <ele>408.60000610352</ele>
        <time>2015-06-17T13:39:35Z</time>
      </trkpt>
      <trkpt lat="43.37389" lon="6.14956">
        <ele>408.39999389648</ele>
        <time>2015-06-17T13:39:36Z</time>
      </trkpt>
      <trkpt lat="43.37391" lon="6.14964">
        <ele>408</ele>
        <time>2015-06-17T13:39:38Z</time>
      </trkpt>
      <trkpt lat="43.37391" lon="6.14968">
        <ele>407.20001220703</ele>
        <time>2015-06-17T13:39:39Z</time>
      </trkpt>
      <trkpt lat="43.37393" lon="6.14973">
        <ele>406.60000610352</ele>
        <time>2015-06-17T13:39:40Z</time>
      </trkpt>
      <trkpt lat="43.37395" lon="6.14977">
        <ele>406.20001220703</ele>
        <time>2015-06-17T13:39:41Z</time>
      </trkpt>
      <trkpt lat="43.37399" lon="6.14982">
        <ele>406</ele>
        <time>2015-06-17T13:39:42Z</time>
      </trkpt>
      <trkpt lat="43.37402" lon="6.14986">
        <ele>405.79998779297</ele>
        <time>2015-06-17T13:39:43Z</time>
      </trkpt>
      <trkpt lat="43.37405" lon="6.14988">
        <ele>405.79998779297</ele>
        <time>2015-06-17T13:39:44Z</time>
      </trkpt>
      <trkpt lat="43.37409" lon="6.1499">
        <ele>405.60000610352</ele>
        <time>2015-06-17T13:39:45Z</time>
      </trkpt>
      <trkpt lat="43.37414" lon="6.14992">
        <ele>405.20001220703</ele>
        <time>2015-06-17T13:39:46Z</time>
      </trkpt>
      <trkpt lat="43.37418" lon="6.14994">
        <ele>404.79998779297</ele>
        <time>2015-06-17T13:39:47Z</time>
      </trkpt>
      <trkpt lat="43.37423" lon="6.14996">
        <ele>403.79998779297</ele>
        <time>2015-06-17T13:39:48Z</time>
      </trkpt>
      <trkpt lat="43.37432" lon="6.15004">
        <ele>402.60000610352</ele>
        <time>2015-06-17T13:39:50Z</time>
      </trkpt>
      <trkpt lat="43.37441" lon="6.15013">
        <ele>402.79998779297</ele>
        <time>2015-06-17T13:39:52Z</time>
      </trkpt>
      <trkpt lat="43.3745" lon="6.15021">
        <ele>402</ele>
        <time>2015-06-17T13:39:54Z</time>
      </trkpt>
      <trkpt lat="43.3746" lon="6.15026">
        <ele>401.79998779297</ele>
        <time>2015-06-17T13:39:56Z</time>
      </trkpt>
      <trkpt lat="43.37464" lon="6.15028">
        <ele>401.20001220703</ele>
        <time>2015-06-17T13:39:57Z</time>
      </trkpt>
      <trkpt lat="43.37469" lon="6.15028">
        <ele>400.79998779297</ele>
        <time>2015-06-17T13:39:58Z</time>
      </trkpt>
      <trkpt lat="43.37477" lon="6.1503">
        <ele>400.79998779297</ele>
        <time>2015-06-17T13:40:00Z</time>
      </trkpt>
      <trkpt lat="43.3748" lon="6.15032">
        <ele>400.60000610352</ele>
        <time>2015-06-17T13:40:01Z</time>
      </trkpt>
      <trkpt lat="43.37484" lon="6.15034">
        <ele>400.39999389648</ele>
        <time>2015-06-17T13:40:02Z</time>
      </trkpt>
      <trkpt lat="43.37488" lon="6.15036">
        <ele>399.79998779297</ele>
        <time>2015-06-17T13:40:03Z</time>
      </trkpt>
      <trkpt lat="43.37493" lon="6.15038">
        <ele>399.39999389648</ele>
        <time>2015-06-17T13:40:04Z</time>
      </trkpt>
      <trkpt lat="43.37499" lon="6.1504">
        <ele>398.79998779297</ele>
        <time>2015-06-17T13:40:05Z</time>
      </trkpt>
      <trkpt lat="43.37505" lon="6.15041">
        <ele>398</ele>
        <time>2015-06-17T13:40:06Z</time>
      </trkpt>
      <trkpt lat="43.37516" lon="6.15045">
        <ele>397.20001220703</ele>
        <time>2015-06-17T13:40:08Z</time>
      </trkpt>
      <trkpt lat="43.37522" lon="6.15047">
        <ele>395.39999389648</ele>
        <time>2015-06-17T13:40:09Z</time>
      </trkpt>
      <trkpt lat="43.37528" lon="6.15047">
        <ele>395.20001220703</ele>
        <time>2015-06-17T13:40:10Z</time>
      </trkpt>
      <trkpt lat="43.37539" lon="6.15049">
        <ele>395.39999389648</ele>
        <time>2015-06-17T13:40:12Z</time>
      </trkpt>
      <trkpt lat="43.37547" lon="6.1505">
        <ele>394.20001220703</ele>
        <time>2015-06-17T13:40:14Z</time>
      </trkpt>
      <trkpt lat="43.37554" lon="6.15052">
        <ele>393.20001220703</ele>
        <time>2015-06-17T13:40:16Z</time>
      </trkpt>
      <trkpt lat="43.37559" lon="6.15054">
        <ele>392.79998779297</ele>
        <time>2015-06-17T13:40:18Z</time>
      </trkpt>
      <trkpt lat="43.37564" lon="6.15056">
        <ele>392.20001220703</ele>
        <time>2015-06-17T13:40:20Z</time>
      </trkpt>
      <trkpt lat="43.3757" lon="6.15061">
        <ele>392.39999389648</ele>
        <time>2015-06-17T13:40:22Z</time>
      </trkpt>
      <trkpt lat="43.37573" lon="6.15064">
        <ele>392</ele>
        <time>2015-06-17T13:40:23Z</time>
      </trkpt>
      <trkpt lat="43.37576" lon="6.15068">
        <ele>391.60000610352</ele>
        <time>2015-06-17T13:40:24Z</time>
      </trkpt>
      <trkpt lat="43.37579" lon="6.15071">
        <ele>390.20001220703</ele>
        <time>2015-06-17T13:40:25Z</time>
      </trkpt>
      <trkpt lat="43.37582" lon="6.15073">
        <ele>389.39999389648</ele>
        <time>2015-06-17T13:40:26Z</time>
      </trkpt>
      <trkpt lat="43.37584" lon="6.15076">
        <ele>388.79998779297</ele>
        <time>2015-06-17T13:40:27Z</time>
      </trkpt>
      <trkpt lat="43.37585" lon="6.15079">
        <ele>388.60000610352</ele>
        <time>2015-06-17T13:40:28Z</time>
      </trkpt>
      <trkpt lat="43.3759" lon="6.15085">
        <ele>387.79998779297</ele>
        <time>2015-06-17T13:40:30Z</time>
      </trkpt>
      <trkpt lat="43.37592" lon="6.15087">
        <ele>387</ele>
        <time>2015-06-17T13:40:31Z</time>
      </trkpt>
      <trkpt lat="43.37594" lon="6.15088">
        <ele>386.20001220703</ele>
        <time>2015-06-17T13:40:32Z</time>
      </trkpt>
      <trkpt lat="43.37596" lon="6.1509">
        <ele>385.39999389648</ele>
        <time>2015-06-17T13:40:33Z</time>
      </trkpt>
      <trkpt lat="43.37598" lon="6.15092">
        <ele>384.79998779297</ele>
        <time>2015-06-17T13:40:34Z</time>
      </trkpt>
      <trkpt lat="43.376" lon="6.15093">
        <ele>384.20001220703</ele>
        <time>2015-06-17T13:40:35Z</time>
      </trkpt>
      <trkpt lat="43.37601" lon="6.15095">
        <ele>383.20001220703</ele>
        <time>2015-06-17T13:40:36Z</time>
      </trkpt>
      <trkpt lat="43.37602" lon="6.15096">
        <ele>383.20001220703</ele>
        <time>2015-06-17T13:40:37Z</time>
      </trkpt>
      <trkpt lat="43.37604" lon="6.15098">
        <ele>383.20001220703</ele>
        <time>2015-06-17T13:40:38Z</time>
      </trkpt>
      <trkpt lat="43.37606" lon="6.15103">
        <ele>382</ele>
        <time>2015-06-17T13:40:40Z</time>
      </trkpt>
      <trkpt lat="43.3761" lon="6.15108">
        <ele>381</ele>
        <time>2015-06-17T13:40:42Z</time>
      </trkpt>
      <trkpt lat="43.37612" lon="6.15111">
        <ele>380</ele>
        <time>2015-06-17T13:40:43Z</time>
      </trkpt>
      <trkpt lat="43.37614" lon="6.15114">
        <ele>380</ele>
        <time>2015-06-17T13:40:44Z</time>
      </trkpt>
      <trkpt lat="43.37616" lon="6.15116">
        <ele>379.60000610352</ele>
        <time>2015-06-17T13:40:45Z</time>
      </trkpt>
      <trkpt lat="43.37617" lon="6.15119">
        <ele>379</ele>
        <time>2015-06-17T13:40:46Z</time>
      </trkpt>
      <trkpt lat="43.37619" lon="6.15122">
        <ele>377.79998779297</ele>
        <time>2015-06-17T13:40:47Z</time>
      </trkpt>
      <trkpt lat="43.37621" lon="6.15125">
        <ele>376.79998779297</ele>
        <time>2015-06-17T13:40:48Z</time>
      </trkpt>
      <trkpt lat="43.37622" lon="6.15127">
        <ele>376.60000610352</ele>
        <time>2015-06-17T13:40:49Z</time>
      </trkpt>
      <trkpt lat="43.37624" lon="6.15129">
        <ele>376</ele>
        <time>2015-06-17T13:40:50Z</time>
      </trkpt>
      <trkpt lat="43.37626" lon="6.15132">
        <ele>375.39999389648</ele>
        <time>2015-06-17T13:40:51Z</time>
      </trkpt>
      <trkpt lat="43.37627" lon="6.15134">
        <ele>375</ele>
        <time>2015-06-17T13:40:52Z</time>
      </trkpt>
      <trkpt lat="43.3763" lon="6.15137">
        <ele>374.20001220703</ele>
        <time>2015-06-17T13:40:54Z</time>
      </trkpt>
      <trkpt lat="43.37633" lon="6.15141">
        <ele>372.79998779297</ele>
        <time>2015-06-17T13:40:56Z</time>
      </trkpt>
      <trkpt lat="43.37634" lon="6.15143">
        <ele>372</ele>
        <time>2015-06-17T13:40:58Z</time>
      </trkpt>
      <trkpt lat="43.37635" lon="6.15144">
        <ele>371.60000610352</ele>
        <time>2015-06-17T13:40:59Z</time>
      </trkpt>
      <trkpt lat="43.37636" lon="6.15145">
        <ele>371.39999389648</ele>
        <time>2015-06-17T13:41:00Z</time>
      </trkpt>
      <trkpt lat="43.37638" lon="6.15147">
        <ele>370.79998779297</ele>
        <time>2015-06-17T13:41:02Z</time>
      </trkpt>
      <trkpt lat="43.3764" lon="6.15149">
        <ele>370.60000610352</ele>
        <time>2015-06-17T13:41:03Z</time>
      </trkpt>
      <trkpt lat="43.37641" lon="6.15151">
        <ele>370.20001220703</ele>
        <time>2015-06-17T13:41:04Z</time>
      </trkpt>
      <trkpt lat="43.37642" lon="6.15156">
        <ele>368.79998779297</ele>
        <time>2015-06-17T13:41:06Z</time>
      </trkpt>
      <trkpt lat="43.37642" lon="6.1516">
        <ele>367.79998779297</ele>
        <time>2015-06-17T13:41:08Z</time>
      </trkpt>
      <trkpt lat="43.37643" lon="6.15163">
        <ele>367.60000610352</ele>
        <time>2015-06-17T13:41:09Z</time>
      </trkpt>
      <trkpt lat="43.37643" lon="6.15165">
        <ele>367</ele>
        <time>2015-06-17T13:41:10Z</time>
      </trkpt>
      <trkpt lat="43.37643" lon="6.15167">
        <ele>366.20001220703</ele>
        <time>2015-06-17T13:41:11Z</time>
      </trkpt>
      <trkpt lat="43.37644" lon="6.15168">
        <ele>365.39999389648</ele>
        <time>2015-06-17T13:41:12Z</time>
      </trkpt>
      <trkpt lat="43.37644" lon="6.1517">
        <ele>364.79998779297</ele>
        <time>2015-06-17T13:41:13Z</time>
      </trkpt>
      <trkpt lat="43.37645" lon="6.15172">
        <ele>364.60000610352</ele>
        <time>2015-06-17T13:41:14Z</time>
      </trkpt>
      <trkpt lat="43.37649" lon="6.15178">
        <ele>364</ele>
        <time>2015-06-17T13:41:16Z</time>
      </trkpt>
      <trkpt lat="43.37652" lon="6.15181">
        <ele>363.79998779297</ele>
        <time>2015-06-17T13:41:17Z</time>
      </trkpt>
      <trkpt lat="43.37654" lon="6.15185">
        <ele>363.60000610352</ele>
        <time>2015-06-17T13:41:18Z</time>
      </trkpt>
      <trkpt lat="43.37656" lon="6.1519">
        <ele>363.20001220703</ele>
        <time>2015-06-17T13:41:19Z</time>
      </trkpt>
      <trkpt lat="43.37658" lon="6.15194">
        <ele>362.20001220703</ele>
        <time>2015-06-17T13:41:20Z</time>
      </trkpt>
      <trkpt lat="43.37663" lon="6.15201">
        <ele>360.79998779297</ele>
        <time>2015-06-17T13:41:22Z</time>
      </trkpt>
      <trkpt lat="43.37666" lon="6.15204">
        <ele>360</ele>
        <time>2015-06-17T13:41:23Z</time>
      </trkpt>
      <trkpt lat="43.3767" lon="6.15207">
        <ele>359.60000610352</ele>
        <time>2015-06-17T13:41:24Z</time>
      </trkpt>
      <trkpt lat="43.37675" lon="6.15211">
        <ele>358.79998779297</ele>
        <time>2015-06-17T13:41:26Z</time>
      </trkpt>
      <trkpt lat="43.37678" lon="6.15212">
        <ele>358.79998779297</ele>
        <time>2015-06-17T13:41:27Z</time>
      </trkpt>
      <trkpt lat="43.37681" lon="6.15215">
        <ele>358</ele>
        <time>2015-06-17T13:41:28Z</time>
      </trkpt>
      <trkpt lat="43.37684" lon="6.15219">
        <ele>357.39999389648</ele>
        <time>2015-06-17T13:41:29Z</time>
      </trkpt>
      <trkpt lat="43.37686" lon="6.15223">
        <ele>357.20001220703</ele>
        <time>2015-06-17T13:41:30Z</time>
      </trkpt>
      <trkpt lat="43.37689" lon="6.15228">
        <ele>356.60000610352</ele>
        <time>2015-06-17T13:41:31Z</time>
      </trkpt>
      <trkpt lat="43.37691" lon="6.15233">
        <ele>356.20001220703</ele>
        <time>2015-06-17T13:41:32Z</time>
      </trkpt>
      <trkpt lat="43.37695" lon="6.15237">
        <ele>355.60000610352</ele>
        <time>2015-06-17T13:41:33Z</time>
      </trkpt>
      <trkpt lat="43.377" lon="6.15239">
        <ele>354.60000610352</ele>
        <time>2015-06-17T13:41:34Z</time>
      </trkpt>
      <trkpt lat="43.37704" lon="6.15241">
        <ele>354</ele>
        <time>2015-06-17T13:41:35Z</time>
      </trkpt>
      <trkpt lat="43.37708" lon="6.15243">
        <ele>353.79998779297</ele>
        <time>2015-06-17T13:41:36Z</time>
      </trkpt>
      <trkpt lat="43.37715" lon="6.15245">
        <ele>353.39999389648</ele>
        <time>2015-06-17T13:41:38Z</time>
      </trkpt>
      <trkpt lat="43.37719" lon="6.15248">
        <ele>353.39999389648</ele>
        <time>2015-06-17T13:41:40Z</time>
      </trkpt>
      <trkpt lat="43.37721" lon="6.1525">
        <ele>352.79998779297</ele>
        <time>2015-06-17T13:41:41Z</time>
      </trkpt>
      <trkpt lat="43.37723" lon="6.15254">
        <ele>352.20001220703</ele>
        <time>2015-06-17T13:41:42Z</time>
      </trkpt>
      <trkpt lat="43.37729" lon="6.15261">
        <ele>351.39999389648</ele>
        <time>2015-06-17T13:41:44Z</time>
      </trkpt>
      <trkpt lat="43.37732" lon="6.15267">
        <ele>350.39999389648</ele>
        <time>2015-06-17T13:41:46Z</time>
      </trkpt>
      <trkpt lat="43.37732" lon="6.15268">
        <ele>350.20001220703</ele>
        <time>2015-06-17T13:41:47Z</time>
      </trkpt>
      <trkpt lat="43.37732" lon="6.15269">
        <ele>350.20001220703</ele>
        <time>2015-06-17T13:41:48Z</time>
      </trkpt>
      <trkpt lat="43.37732" lon="6.15269">
        <ele>350</ele>
        <time>2015-06-17T13:41:50Z</time>
      </trkpt>
      <trkpt lat="43.37733" lon="6.15269">
        <ele>350</ele>
        <time>2015-06-17T13:41:52Z</time>
      </trkpt>
      <trkpt lat="43.37734" lon="6.1527">
        <ele>350</ele>
        <time>2015-06-17T13:41:54Z</time>
      </trkpt>
      <trkpt lat="43.37734" lon="6.1527">
        <ele>349.79998779297</ele>
        <time>2015-06-17T13:41:56Z</time>
      </trkpt>
      <trkpt lat="43.37734" lon="6.1527">
        <ele>349.79998779297</ele>
        <time>2015-06-17T13:41:57Z</time>
      </trkpt>
      <trkpt lat="43.37734" lon="6.1527">
        <ele>350</ele>
        <time>2015-06-17T13:41:58Z</time>
      </trkpt>
      <trkpt lat="43.37734" lon="6.1527">
        <ele>349.60000610352</ele>
        <time>2015-06-17T13:42:00Z</time>
      </trkpt>
      <trkpt lat="43.37734" lon="6.1527">
        <ele>349.60000610352</ele>
        <time>2015-06-17T13:42:02Z</time>
      </trkpt>
      <trkpt lat="43.37734" lon="6.1527">
        <ele>349.60000610352</ele>
        <time>2015-06-17T13:42:04Z</time>
      </trkpt>
      <trkpt lat="43.37734" lon="6.1527">
        <ele>349.79998779297</ele>
        <time>2015-06-17T13:42:06Z</time>
      </trkpt>
      <trkpt lat="43.37734" lon="6.1527">
        <ele>349.79998779297</ele>
        <time>2015-06-17T13:42:08Z</time>
      </trkpt>
      <trkpt lat="43.37734" lon="6.1527">
        <ele>349.79998779297</ele>
        <time>2015-06-17T13:42:10Z</time>
      </trkpt>
      <trkpt lat="43.37734" lon="6.15271">
        <ele>350.20001220703</ele>
        <time>2015-06-17T13:42:14Z</time>
      </trkpt>
      <trkpt lat="43.37734" lon="6.15271">
        <ele>350.39999389648</ele>
        <time>2015-06-17T13:42:16Z</time>
      </trkpt>
      <trkpt lat="43.37734" lon="6.15271">
        <ele>350.20001220703</ele>
        <time>2015-06-17T13:42:18Z</time>
      </trkpt>
      <trkpt lat="43.37734" lon="6.15271">
        <ele>350.20001220703</ele>
        <time>2015-06-17T13:42:20Z</time>
      </trkpt>
      <trkpt lat="43.37734" lon="6.15271">
        <ele>350.20001220703</ele>
        <time>2015-06-17T13:42:22Z</time>
      </trkpt>
      <trkpt lat="43.37734" lon="6.15271">
        <ele>350.20001220703</ele>
        <time>2015-06-17T13:42:24Z</time>
      </trkpt>
      <trkpt lat="43.37734" lon="6.15271">
        <ele>350</ele>
        <time>2015-06-17T13:42:26Z</time>
      </trkpt>
      <trkpt lat="43.37734" lon="6.15271">
        <ele>350</ele>
        <time>2015-06-17T13:42:28Z</time>
      </trkpt>
      <trkpt lat="43.37734" lon="6.15271">
        <ele>350</ele>
        <time>2015-06-17T13:42:30Z</time>
      </trkpt>
      <trkpt lat="43.37734" lon="6.15271">
        <ele>350</ele>
        <time>2015-06-17T13:42:32Z</time>
      </trkpt>
      <trkpt lat="43.37734" lon="6.15271">
        <ele>349.79998779297</ele>
        <time>2015-06-17T13:42:34Z</time>
      </trkpt>
      <trkpt lat="43.37734" lon="6.15271">
        <ele>349.79998779297</ele>
        <time>2015-06-17T13:42:36Z</time>
      </trkpt>
      <trkpt lat="43.37734" lon="6.15271">
        <ele>349.79998779297</ele>
        <time>2015-06-17T13:42:38Z</time>
      </trkpt>
      <trkpt lat="43.37734" lon="6.15271">
        <ele>349.60000610352</ele>
        <time>2015-06-17T13:42:40Z</time>
      </trkpt>
      <trkpt lat="43.37734" lon="6.15271">
        <ele>349.60000610352</ele>
        <time>2015-06-17T13:42:42Z</time>
      </trkpt>
      <trkpt lat="43.37734" lon="6.15271">
        <ele>349.79998779297</ele>
        <time>2015-06-17T13:42:44Z</time>
      </trkpt>
      <trkpt lat="43.37734" lon="6.15271">
        <ele>350</ele>
        <time>2015-06-17T13:42:46Z</time>
      </trkpt>
      <trkpt lat="43.37734" lon="6.15271">
        <ele>350</ele>
        <time>2015-06-17T13:42:48Z</time>
      </trkpt>
      <trkpt lat="43.37734" lon="6.15271">
        <ele>350</ele>
        <time>2015-06-17T13:42:50Z</time>
      </trkpt>
      <trkpt lat="43.37734" lon="6.15271">
        <ele>350</ele>
        <time>2015-06-17T13:42:52Z</time>
      </trkpt>
      <trkpt lat="43.37734" lon="6.15271">
        <ele>350</ele>
        <time>2015-06-17T13:42:54Z</time>
      </trkpt>
      <trkpt lat="43.37734" lon="6.15271">
        <ele>350</ele>
        <time>2015-06-17T13:42:56Z</time>
      </trkpt>
      <trkpt lat="43.37734" lon="6.15271">
        <ele>349.79998779297</ele>
        <time>2015-06-17T13:42:58Z</time>
      </trkpt>
      <trkpt lat="43.37734" lon="6.15271">
        <ele>349.60000610352</ele>
        <time>2015-06-17T13:43:00Z</time>
      </trkpt>
      <trkpt lat="43.37734" lon="6.15271">
        <ele>349.79998779297</ele>
        <time>2015-06-17T13:43:02Z</time>
      </trkpt>
      <trkpt lat="43.37734" lon="6.15271">
        <ele>349.79998779297</ele>
        <time>2015-06-17T13:43:04Z</time>
      </trkpt>
      <trkpt lat="43.37734" lon="6.15271">
        <ele>350</ele>
        <time>2015-06-17T13:43:06Z</time>
      </trkpt>
      <trkpt lat="43.37734" lon="6.15271">
        <ele>350</ele>
        <time>2015-06-17T13:43:08Z</time>
      </trkpt>
      <trkpt lat="43.37734" lon="6.15271">
        <ele>349.79998779297</ele>
        <time>2015-06-17T13:43:10Z</time>
      </trkpt>
      <trkpt lat="43.37734" lon="6.15271">
        <ele>349.79998779297</ele>
        <time>2015-06-17T13:43:12Z</time>
      </trkpt>
      <trkpt lat="43.37734" lon="6.15271">
        <ele>349.79998779297</ele>
        <time>2015-06-17T13:43:14Z</time>
      </trkpt>
      <trkpt lat="43.37734" lon="6.15271">
        <ele>349.79998779297</ele>
        <time>2015-06-17T13:43:16Z</time>
      </trkpt>
      <trkpt lat="43.37734" lon="6.15271">
        <ele>350</ele>
        <time>2015-06-17T13:43:18Z</time>
      </trkpt>
      <trkpt lat="43.37734" lon="6.15271">
        <ele>350</ele>
        <time>2015-06-17T13:43:20Z</time>
      </trkpt>
      <trkpt lat="43.37734" lon="6.15271">
        <ele>349.79998779297</ele>
        <time>2015-06-17T13:43:22Z</time>
      </trkpt>
      <trkpt lat="43.37734" lon="6.15271">
        <ele>350</ele>
        <time>2015-06-17T13:43:24Z</time>
      </trkpt>
      <trkpt lat="43.37734" lon="6.15271">
        <ele>349.79998779297</ele>
        <time>2015-06-17T13:43:26Z</time>
      </trkpt>
      <trkpt lat="43.37734" lon="6.15272">
        <ele>349.79998779297</ele>
        <time>2015-06-17T13:43:27Z</time>
      </trkpt>
      <trkpt lat="43.37733" lon="6.15273">
        <ele>349.79998779297</ele>
        <time>2015-06-17T13:43:28Z</time>
      </trkpt>
      <trkpt lat="43.37731" lon="6.15278">
        <ele>350</ele>
        <time>2015-06-17T13:43:30Z</time>
      </trkpt>
      <trkpt lat="43.3773" lon="6.15281">
        <ele>349.79998779297</ele>
        <time>2015-06-17T13:43:31Z</time>
      </trkpt>
      <trkpt lat="43.37729" lon="6.15284">
        <ele>349.79998779297</ele>
        <time>2015-06-17T13:43:32Z</time>
      </trkpt>
      <trkpt lat="43.37727" lon="6.15288">
        <ele>350.39999389648</ele>
        <time>2015-06-17T13:43:34Z</time>
      </trkpt>
      <trkpt lat="43.37726" lon="6.1529">
        <ele>350.60000610352</ele>
        <time>2015-06-17T13:43:35Z</time>
      </trkpt>
      <trkpt lat="43.37724" lon="6.15293">
        <ele>350.60000610352</ele>
        <time>2015-06-17T13:43:36Z</time>
      </trkpt>
      <trkpt lat="43.37721" lon="6.15298">
        <ele>351.20001220703</ele>
        <time>2015-06-17T13:43:38Z</time>
      </trkpt>
      <trkpt lat="43.3772" lon="6.15299">
        <ele>351.39999389648</ele>
        <time>2015-06-17T13:43:39Z</time>
      </trkpt>
      <trkpt lat="43.37719" lon="6.15301">
        <ele>351.79998779297</ele>
        <time>2015-06-17T13:43:40Z</time>
      </trkpt>
      <trkpt lat="43.37717" lon="6.15306">
        <ele>352.39999389648</ele>
        <time>2015-06-17T13:43:42Z</time>
      </trkpt>
      <trkpt lat="43.37716" lon="6.15311">
        <ele>352.79998779297</ele>
        <time>2015-06-17T13:43:44Z</time>
      </trkpt>
      <trkpt lat="43.37714" lon="6.15318">
        <ele>353</ele>
        <time>2015-06-17T13:43:46Z</time>
      </trkpt>
      <trkpt lat="43.37712" lon="6.15325">
        <ele>353.20001220703</ele>
        <time>2015-06-17T13:43:48Z</time>
      </trkpt>
      <trkpt lat="43.37711" lon="6.15332">
        <ele>353.60000610352</ele>
        <time>2015-06-17T13:43:50Z</time>
      </trkpt>
      <trkpt lat="43.37709" lon="6.15338">
        <ele>354</ele>
        <time>2015-06-17T13:43:52Z</time>
      </trkpt>
      <trkpt lat="43.37707" lon="6.15344">
        <ele>354.20001220703</ele>
        <time>2015-06-17T13:43:54Z</time>
      </trkpt>
      <trkpt lat="43.37704" lon="6.1535">
        <ele>354.60000610352</ele>
        <time>2015-06-17T13:43:56Z</time>
      </trkpt>
      <trkpt lat="43.37702" lon="6.15354">
        <ele>355.20001220703</ele>
        <time>2015-06-17T13:43:58Z</time>
      </trkpt>
      <trkpt lat="43.377" lon="6.15358">
        <ele>356</ele>
        <time>2015-06-17T13:44:00Z</time>
      </trkpt>
      <trkpt lat="43.37698" lon="6.15363">
        <ele>356.20001220703</ele>
        <time>2015-06-17T13:44:02Z</time>
      </trkpt>
      <trkpt lat="43.37697" lon="6.15365">
        <ele>356.39999389648</ele>
        <time>2015-06-17T13:44:03Z</time>
      </trkpt>
      <trkpt lat="43.37696" lon="6.15367">
        <ele>356.60000610352</ele>
        <time>2015-06-17T13:44:04Z</time>
      </trkpt>
      <trkpt lat="43.37694" lon="6.15372">
        <ele>357</ele>
        <time>2015-06-17T13:44:06Z</time>
      </trkpt>
      <trkpt lat="43.37691" lon="6.15377">
        <ele>357.20001220703</ele>
        <time>2015-06-17T13:44:08Z</time>
      </trkpt>
      <trkpt lat="43.37689" lon="6.15381">
        <ele>357.60000610352</ele>
        <time>2015-06-17T13:44:10Z</time>
      </trkpt>
      <trkpt lat="43.37687" lon="6.15384">
        <ele>357.79998779297</ele>
        <time>2015-06-17T13:44:12Z</time>
      </trkpt>
      <trkpt lat="43.37685" lon="6.15387">
        <ele>358.20001220703</ele>
        <time>2015-06-17T13:44:14Z</time>
      </trkpt>
      <trkpt lat="43.37682" lon="6.1539">
        <ele>358.39999389648</ele>
        <time>2015-06-17T13:44:16Z</time>
      </trkpt>
      <trkpt lat="43.3768" lon="6.15394">
        <ele>358.79998779297</ele>
        <time>2015-06-17T13:44:18Z</time>
      </trkpt>
      <trkpt lat="43.3768" lon="6.15395">
        <ele>359</ele>
        <time>2015-06-17T13:44:19Z</time>
      </trkpt>
      <trkpt lat="43.37679" lon="6.15397">
        <ele>359.20001220703</ele>
        <time>2015-06-17T13:44:20Z</time>
      </trkpt>
      <trkpt lat="43.37679" lon="6.15399">
        <ele>359.39999389648</ele>
        <time>2015-06-17T13:44:21Z</time>
      </trkpt>
      <trkpt lat="43.37678" lon="6.154">
        <ele>359.60000610352</ele>
        <time>2015-06-17T13:44:22Z</time>
      </trkpt>
      <trkpt lat="43.37678" lon="6.15402">
        <ele>359.79998779297</ele>
        <time>2015-06-17T13:44:23Z</time>
      </trkpt>
      <trkpt lat="43.37677" lon="6.15404">
        <ele>360</ele>
        <time>2015-06-17T13:44:24Z</time>
      </trkpt>
      <trkpt lat="43.37677" lon="6.15406">
        <ele>360.20001220703</ele>
        <time>2015-06-17T13:44:25Z</time>
      </trkpt>
      <trkpt lat="43.37676" lon="6.15407">
        <ele>360.20001220703</ele>
        <time>2015-06-17T13:44:26Z</time>
      </trkpt>
      <trkpt lat="43.37675" lon="6.15411">
        <ele>360.60000610352</ele>
        <time>2015-06-17T13:44:28Z</time>
      </trkpt>
      <trkpt lat="43.37675" lon="6.15412">
        <ele>360.60000610352</ele>
        <time>2015-06-17T13:44:29Z</time>
      </trkpt>
      <trkpt lat="43.37674" lon="6.15414">
        <ele>360.79998779297</ele>
        <time>2015-06-17T13:44:30Z</time>
      </trkpt>
      <trkpt lat="43.37673" lon="6.15417">
        <ele>361</ele>
        <time>2015-06-17T13:44:32Z</time>
      </trkpt>
      <trkpt lat="43.37671" lon="6.1542">
        <ele>361.20001220703</ele>
        <time>2015-06-17T13:44:34Z</time>
      </trkpt>
      <trkpt lat="43.37671" lon="6.15422">
        <ele>361.20001220703</ele>
        <time>2015-06-17T13:44:35Z</time>
      </trkpt>
      <trkpt lat="43.3767" lon="6.15425">
        <ele>361.39999389648</ele>
        <time>2015-06-17T13:44:36Z</time>
      </trkpt>
      <trkpt lat="43.37669" lon="6.15428">
        <ele>361.60000610352</ele>
        <time>2015-06-17T13:44:38Z</time>
      </trkpt>
      <trkpt lat="43.37667" lon="6.15433">
        <ele>361.60000610352</ele>
        <time>2015-06-17T13:44:40Z</time>
      </trkpt>
      <trkpt lat="43.37666" lon="6.15437">
        <ele>361.79998779297</ele>
        <time>2015-06-17T13:44:42Z</time>
      </trkpt>
      <trkpt lat="43.37665" lon="6.15441">
        <ele>362</ele>
        <time>2015-06-17T13:44:44Z</time>
      </trkpt>
      <trkpt lat="43.37664" lon="6.15442">
        <ele>362.39999389648</ele>
        <time>2015-06-17T13:44:45Z</time>
      </trkpt>
      <trkpt lat="43.37664" lon="6.15444">
        <ele>362.60000610352</ele>
        <time>2015-06-17T13:44:46Z</time>
      </trkpt>
      <trkpt lat="43.37664" lon="6.15445">
        <ele>362.79998779297</ele>
        <time>2015-06-17T13:44:47Z</time>
      </trkpt>
      <trkpt lat="43.37664" lon="6.15447">
        <ele>362.79998779297</ele>
        <time>2015-06-17T13:44:48Z</time>
      </trkpt>
      <trkpt lat="43.37664" lon="6.15448">
        <ele>363.20001220703</ele>
        <time>2015-06-17T13:44:49Z</time>
      </trkpt>
      <trkpt lat="43.37664" lon="6.1545">
        <ele>363.20001220703</ele>
        <time>2015-06-17T13:44:50Z</time>
      </trkpt>
      <trkpt lat="43.37664" lon="6.15453">
        <ele>363.60000610352</ele>
        <time>2015-06-17T13:44:52Z</time>
      </trkpt>
      <trkpt lat="43.37664" lon="6.15455">
        <ele>363.60000610352</ele>
        <time>2015-06-17T13:44:53Z</time>
      </trkpt>
      <trkpt lat="43.37664" lon="6.15456">
        <ele>363.60000610352</ele>
        <time>2015-06-17T13:44:54Z</time>
      </trkpt>
      <trkpt lat="43.37663" lon="6.15458">
        <ele>363.79998779297</ele>
        <time>2015-06-17T13:44:55Z</time>
      </trkpt>
      <trkpt lat="43.37663" lon="6.15459">
        <ele>364</ele>
        <time>2015-06-17T13:44:56Z</time>
      </trkpt>
      <trkpt lat="43.37662" lon="6.1546">
        <ele>364</ele>
        <time>2015-06-17T13:44:57Z</time>
      </trkpt>
      <trkpt lat="43.37662" lon="6.15461">
        <ele>364.20001220703</ele>
        <time>2015-06-17T13:44:58Z</time>
      </trkpt>
      <trkpt lat="43.37661" lon="6.15464">
        <ele>364.39999389648</ele>
        <time>2015-06-17T13:45:00Z</time>
      </trkpt>
      <trkpt lat="43.37661" lon="6.15465">
        <ele>364.60000610352</ele>
        <time>2015-06-17T13:45:01Z</time>
      </trkpt>
      <trkpt lat="43.37661" lon="6.15467">
        <ele>364.60000610352</ele>
        <time>2015-06-17T13:45:02Z</time>
      </trkpt>
      <trkpt lat="43.37661" lon="6.15469">
        <ele>365</ele>
        <time>2015-06-17T13:45:04Z</time>
      </trkpt>
      <trkpt lat="43.37661" lon="6.1547">
        <ele>365.20001220703</ele>
        <time>2015-06-17T13:45:05Z</time>
      </trkpt>
      <trkpt lat="43.37661" lon="6.15472">
        <ele>365.39999389648</ele>
        <time>2015-06-17T13:45:06Z</time>
      </trkpt>
      <trkpt lat="43.37661" lon="6.15473">
        <ele>365.60000610352</ele>
        <time>2015-06-17T13:45:07Z</time>
      </trkpt>
      <trkpt lat="43.37661" lon="6.15474">
        <ele>365.79998779297</ele>
        <time>2015-06-17T13:45:08Z</time>
      </trkpt>
      <trkpt lat="43.37661" lon="6.15478">
        <ele>366</ele>
        <time>2015-06-17T13:45:10Z</time>
      </trkpt>
      <trkpt lat="43.37661" lon="6.15482">
        <ele>366.20001220703</ele>
        <time>2015-06-17T13:45:12Z</time>
      </trkpt>
      <trkpt lat="43.37661" lon="6.15484">
        <ele>366.39999389648</ele>
        <time>2015-06-17T13:45:14Z</time>
      </trkpt>
      <trkpt lat="43.3766" lon="6.15488">
        <ele>366.79998779297</ele>
        <time>2015-06-17T13:45:16Z</time>
      </trkpt>
      <trkpt lat="43.3766" lon="6.15489">
        <ele>367.20001220703</ele>
        <time>2015-06-17T13:45:17Z</time>
      </trkpt>
      <trkpt lat="43.3766" lon="6.15491">
        <ele>367.39999389648</ele>
        <time>2015-06-17T13:45:18Z</time>
      </trkpt>
      <trkpt lat="43.37661" lon="6.15494">
        <ele>367.79998779297</ele>
        <time>2015-06-17T13:45:20Z</time>
      </trkpt>
      <trkpt lat="43.37661" lon="6.15497">
        <ele>368.39999389648</ele>
        <time>2015-06-17T13:45:22Z</time>
      </trkpt>
      <trkpt lat="43.37661" lon="6.155">
        <ele>368.39999389648</ele>
        <time>2015-06-17T13:45:24Z</time>
      </trkpt>
      <trkpt lat="43.37661" lon="6.15503">
        <ele>368.79998779297</ele>
        <time>2015-06-17T13:45:26Z</time>
      </trkpt>
      <trkpt lat="43.37661" lon="6.15506">
        <ele>369.39999389648</ele>
        <time>2015-06-17T13:45:28Z</time>
      </trkpt>
      <trkpt lat="43.37661" lon="6.15507">
        <ele>369.60000610352</ele>
        <time>2015-06-17T13:45:29Z</time>
      </trkpt>
      <trkpt lat="43.37661" lon="6.15508">
        <ele>369.79998779297</ele>
        <time>2015-06-17T13:45:30Z</time>
      </trkpt>
      <trkpt lat="43.37661" lon="6.15511">
        <ele>369.79998779297</ele>
        <time>2015-06-17T13:45:32Z</time>
      </trkpt>
      <trkpt lat="43.37661" lon="6.15512">
        <ele>370</ele>
        <time>2015-06-17T13:45:33Z</time>
      </trkpt>
      <trkpt lat="43.37661" lon="6.15514">
        <ele>370.20001220703</ele>
        <time>2015-06-17T13:45:34Z</time>
      </trkpt>
      <trkpt lat="43.37661" lon="6.15516">
        <ele>370.39999389648</ele>
        <time>2015-06-17T13:45:36Z</time>
      </trkpt>
      <trkpt lat="43.37661" lon="6.15519">
        <ele>370.60000610352</ele>
        <time>2015-06-17T13:45:38Z</time>
      </trkpt>
      <trkpt lat="43.37661" lon="6.15521">
        <ele>370.60000610352</ele>
        <time>2015-06-17T13:45:40Z</time>
      </trkpt>
      <trkpt lat="43.37661" lon="6.15521">
        <ele>370.60000610352</ele>
        <time>2015-06-17T13:45:41Z</time>
      </trkpt>
      <trkpt lat="43.3766" lon="6.15522">
        <ele>370.79998779297</ele>
        <time>2015-06-17T13:45:42Z</time>
      </trkpt>
      <trkpt lat="43.3766" lon="6.15525">
        <ele>371.20001220703</ele>
        <time>2015-06-17T13:45:44Z</time>
      </trkpt>
      <trkpt lat="43.37659" lon="6.15528">
        <ele>371.39999389648</ele>
        <time>2015-06-17T13:45:46Z</time>
      </trkpt>
      <trkpt lat="43.37658" lon="6.1553">
        <ele>371.39999389648</ele>
        <time>2015-06-17T13:45:48Z</time>
      </trkpt>
      <trkpt lat="43.37658" lon="6.15531">
        <ele>371.39999389648</ele>
        <time>2015-06-17T13:45:49Z</time>
      </trkpt>
      <trkpt lat="43.37658" lon="6.15532">
        <ele>371.39999389648</ele>
        <time>2015-06-17T13:45:50Z</time>
      </trkpt>
      <trkpt lat="43.37657" lon="6.15533">
        <ele>371.60000610352</ele>
        <time>2015-06-17T13:45:51Z</time>
      </trkpt>
      <trkpt lat="43.37656" lon="6.15534">
        <ele>371.60000610352</ele>
        <time>2015-06-17T13:45:52Z</time>
      </trkpt>
      <trkpt lat="43.37656" lon="6.15536">
        <ele>371.79998779297</ele>
        <time>2015-06-17T13:45:53Z</time>
      </trkpt>
      <trkpt lat="43.37656" lon="6.15537">
        <ele>371.79998779297</ele>
        <time>2015-06-17T13:45:54Z</time>
      </trkpt>
      <trkpt lat="43.37655" lon="6.15538">
        <ele>371.79998779297</ele>
        <time>2015-06-17T13:45:55Z</time>
      </trkpt>
      <trkpt lat="43.37655" lon="6.1554">
        <ele>372</ele>
        <time>2015-06-17T13:45:56Z</time>
      </trkpt>
      <trkpt lat="43.37654" lon="6.15542">
        <ele>372</ele>
        <time>2015-06-17T13:45:58Z</time>
      </trkpt>
      <trkpt lat="43.37653" lon="6.15544">
        <ele>372</ele>
        <time>2015-06-17T13:45:59Z</time>
      </trkpt>
      <trkpt lat="43.37653" lon="6.15546">
        <ele>372</ele>
        <time>2015-06-17T13:46:00Z</time>
      </trkpt>
      <trkpt lat="43.37653" lon="6.15548">
        <ele>372</ele>
        <time>2015-06-17T13:46:01Z</time>
      </trkpt>
      <trkpt lat="43.37652" lon="6.15551">
        <ele>371.79998779297</ele>
        <time>2015-06-17T13:46:02Z</time>
      </trkpt>
      <trkpt lat="43.37652" lon="6.15556">
        <ele>371.39999389648</ele>
        <time>2015-06-17T13:46:04Z</time>
      </trkpt>
      <trkpt lat="43.3765" lon="6.15562">
        <ele>371</ele>
        <time>2015-06-17T13:46:06Z</time>
      </trkpt>
      <trkpt lat="43.3765" lon="6.15565">
        <ele>370.60000610352</ele>
        <time>2015-06-17T13:46:07Z</time>
      </trkpt>
      <trkpt lat="43.3765" lon="6.15569">
        <ele>370</ele>
        <time>2015-06-17T13:46:08Z</time>
      </trkpt>
      <trkpt lat="43.37649" lon="6.15577">
        <ele>368.79998779297</ele>
        <time>2015-06-17T13:46:10Z</time>
      </trkpt>
      <trkpt lat="43.37647" lon="6.15582">
        <ele>368.20001220703</ele>
        <time>2015-06-17T13:46:11Z</time>
      </trkpt>
      <trkpt lat="43.37646" lon="6.15588">
        <ele>367.79998779297</ele>
        <time>2015-06-17T13:46:12Z</time>
      </trkpt>
      <trkpt lat="43.37644" lon="6.15597">
        <ele>367</ele>
        <time>2015-06-17T13:46:13Z</time>
      </trkpt>
      <trkpt lat="43.37642" lon="6.15607">
        <ele>365.60000610352</ele>
        <time>2015-06-17T13:46:14Z</time>
      </trkpt>
      <trkpt lat="43.3764" lon="6.15615">
        <ele>363.39999389648</ele>
        <time>2015-06-17T13:46:15Z</time>
      </trkpt>
      <trkpt lat="43.37639" lon="6.15623">
        <ele>362.20001220703</ele>
        <time>2015-06-17T13:46:16Z</time>
      </trkpt>
      <trkpt lat="43.37639" lon="6.15629">
        <ele>361.79998779297</ele>
        <time>2015-06-17T13:46:17Z</time>
      </trkpt>
      <trkpt lat="43.37639" lon="6.15634">
        <ele>362</ele>
        <time>2015-06-17T13:46:18Z</time>
      </trkpt>
      <trkpt lat="43.37638" lon="6.15642">
        <ele>361.39999389648</ele>
        <time>2015-06-17T13:46:20Z</time>
      </trkpt>
      <trkpt lat="43.37637" lon="6.15646">
        <ele>361.39999389648</ele>
        <time>2015-06-17T13:46:22Z</time>
      </trkpt>
      <trkpt lat="43.37635" lon="6.15651">
        <ele>361.79998779297</ele>
        <time>2015-06-17T13:46:24Z</time>
      </trkpt>
      <trkpt lat="43.37633" lon="6.15656">
        <ele>362.20001220703</ele>
        <time>2015-06-17T13:46:26Z</time>
      </trkpt>
      <trkpt lat="43.37632" lon="6.15659">
        <ele>362.39999389648</ele>
        <time>2015-06-17T13:46:27Z</time>
      </trkpt>
      <trkpt lat="43.3763" lon="6.15663">
        <ele>362.20001220703</ele>
        <time>2015-06-17T13:46:28Z</time>
      </trkpt>
      <trkpt lat="43.37627" lon="6.1567">
        <ele>362</ele>
        <time>2015-06-17T13:46:30Z</time>
      </trkpt>
      <trkpt lat="43.37623" lon="6.15676">
        <ele>362.20001220703</ele>
        <time>2015-06-17T13:46:32Z</time>
      </trkpt>
      <trkpt lat="43.37621" lon="6.15681">
        <ele>362</ele>
        <time>2015-06-17T13:46:34Z</time>
      </trkpt>
      <trkpt lat="43.37618" lon="6.15685">
        <ele>362</ele>
        <time>2015-06-17T13:46:36Z</time>
      </trkpt>
      <trkpt lat="43.37616" lon="6.15688">
        <ele>361.79998779297</ele>
        <time>2015-06-17T13:46:37Z</time>
      </trkpt>
      <trkpt lat="43.37615" lon="6.15691">
        <ele>361.39999389648</ele>
        <time>2015-06-17T13:46:38Z</time>
      </trkpt>
      <trkpt lat="43.37611" lon="6.15698">
        <ele>361</ele>
        <time>2015-06-17T13:46:40Z</time>
      </trkpt>
      <trkpt lat="43.37605" lon="6.15706">
        <ele>360.79998779297</ele>
        <time>2015-06-17T13:46:42Z</time>
      </trkpt>
      <trkpt lat="43.37601" lon="6.15709">
        <ele>359.39999389648</ele>
        <time>2015-06-17T13:46:43Z</time>
      </trkpt>
      <trkpt lat="43.37598" lon="6.15713">
        <ele>358.39999389648</ele>
        <time>2015-06-17T13:46:44Z</time>
      </trkpt>
      <trkpt lat="43.37596" lon="6.15716">
        <ele>358.20001220703</ele>
        <time>2015-06-17T13:46:45Z</time>
      </trkpt>
      <trkpt lat="43.37594" lon="6.1572">
        <ele>357.39999389648</ele>
        <time>2015-06-17T13:46:46Z</time>
      </trkpt>
      <trkpt lat="43.37592" lon="6.15724">
        <ele>356.39999389648</ele>
        <time>2015-06-17T13:46:47Z</time>
      </trkpt>
      <trkpt lat="43.37589" lon="6.15727">
        <ele>355.39999389648</ele>
        <time>2015-06-17T13:46:48Z</time>
      </trkpt>
      <trkpt lat="43.37586" lon="6.1573">
        <ele>354</ele>
        <time>2015-06-17T13:46:49Z</time>
      </trkpt>
      <trkpt lat="43.37584" lon="6.15733">
        <ele>353.60000610352</ele>
        <time>2015-06-17T13:46:50Z</time>
      </trkpt>
      <trkpt lat="43.3758" lon="6.15736">
        <ele>353.20001220703</ele>
        <time>2015-06-17T13:46:51Z</time>
      </trkpt>
      <trkpt lat="43.37577" lon="6.15738">
        <ele>352.20001220703</ele>
        <time>2015-06-17T13:46:52Z</time>
      </trkpt>
      <trkpt lat="43.37572" lon="6.15741">
        <ele>351.39999389648</ele>
        <time>2015-06-17T13:46:54Z</time>
      </trkpt>
      <trkpt lat="43.37571" lon="6.15743">
        <ele>351.20001220703</ele>
        <time>2015-06-17T13:46:55Z</time>
      </trkpt>
      <trkpt lat="43.37571" lon="6.15745">
        <ele>351</ele>
        <time>2015-06-17T13:46:56Z</time>
      </trkpt>
      <trkpt lat="43.37573" lon="6.15747">
        <ele>350.60000610352</ele>
        <time>2015-06-17T13:46:58Z</time>
      </trkpt>
      <trkpt lat="43.37576" lon="6.15747">
        <ele>350.20001220703</ele>
        <time>2015-06-17T13:47:00Z</time>
      </trkpt>
      <trkpt lat="43.37579" lon="6.15748">
        <ele>350.20001220703</ele>
        <time>2015-06-17T13:47:02Z</time>
      </trkpt>
      <trkpt lat="43.37582" lon="6.15748">
        <ele>350</ele>
        <time>2015-06-17T13:47:03Z</time>
      </trkpt>
      <trkpt lat="43.37584" lon="6.15749">
        <ele>349.39999389648</ele>
        <time>2015-06-17T13:47:04Z</time>
      </trkpt>
      <trkpt lat="43.37587" lon="6.15749">
        <ele>348.20001220703</ele>
        <time>2015-06-17T13:47:05Z</time>
      </trkpt>
      <trkpt lat="43.37589" lon="6.15751">
        <ele>347.20001220703</ele>
        <time>2015-06-17T13:47:06Z</time>
      </trkpt>
      <trkpt lat="43.37593" lon="6.15752">
        <ele>346.39999389648</ele>
        <time>2015-06-17T13:47:07Z</time>
      </trkpt>
      <trkpt lat="43.37596" lon="6.15754">
        <ele>345.79998779297</ele>
        <time>2015-06-17T13:47:08Z</time>
      </trkpt>
      <trkpt lat="43.376" lon="6.15757">
        <ele>344.79998779297</ele>
        <time>2015-06-17T13:47:10Z</time>
      </trkpt>
      <trkpt lat="43.37605" lon="6.15761">
        <ele>343.79998779297</ele>
        <time>2015-06-17T13:47:12Z</time>
      </trkpt>
      <trkpt lat="43.37608" lon="6.15763">
        <ele>343.20001220703</ele>
        <time>2015-06-17T13:47:13Z</time>
      </trkpt>
      <trkpt lat="43.3761" lon="6.15765">
        <ele>342.60000610352</ele>
        <time>2015-06-17T13:47:14Z</time>
      </trkpt>
      <trkpt lat="43.37613" lon="6.15767">
        <ele>342</ele>
        <time>2015-06-17T13:47:15Z</time>
      </trkpt>
      <trkpt lat="43.37616" lon="6.15769">
        <ele>341.79998779297</ele>
        <time>2015-06-17T13:47:16Z</time>
      </trkpt>
      <trkpt lat="43.3762" lon="6.15771">
        <ele>341</ele>
        <time>2015-06-17T13:47:17Z</time>
      </trkpt>
      <trkpt lat="43.37623" lon="6.15773">
        <ele>340.20001220703</ele>
        <time>2015-06-17T13:47:18Z</time>
      </trkpt>
      <trkpt lat="43.37629" lon="6.15776">
        <ele>339.60000610352</ele>
        <time>2015-06-17T13:47:20Z</time>
      </trkpt>
      <trkpt lat="43.37631" lon="6.15777">
        <ele>339.20001220703</ele>
        <time>2015-06-17T13:47:21Z</time>
      </trkpt>
      <trkpt lat="43.37634" lon="6.15779">
        <ele>338.79998779297</ele>
        <time>2015-06-17T13:47:22Z</time>
      </trkpt>
      <trkpt lat="43.37636" lon="6.1578">
        <ele>338.20001220703</ele>
        <time>2015-06-17T13:47:23Z</time>
      </trkpt>
      <trkpt lat="43.37638" lon="6.15782">
        <ele>337.60000610352</ele>
        <time>2015-06-17T13:47:24Z</time>
      </trkpt>
      <trkpt lat="43.37642" lon="6.15784">
        <ele>337</ele>
        <time>2015-06-17T13:47:26Z</time>
      </trkpt>
      <trkpt lat="43.37644" lon="6.15785">
        <ele>336.39999389648</ele>
        <time>2015-06-17T13:47:27Z</time>
      </trkpt>
      <trkpt lat="43.37646" lon="6.15787">
        <ele>336</ele>
        <time>2015-06-17T13:47:28Z</time>
      </trkpt>
      <trkpt lat="43.37647" lon="6.15789">
        <ele>335.39999389648</ele>
        <time>2015-06-17T13:47:29Z</time>
      </trkpt>
      <trkpt lat="43.37648" lon="6.15791">
        <ele>335.20001220703</ele>
        <time>2015-06-17T13:47:30Z</time>
      </trkpt>
      <trkpt lat="43.37648" lon="6.15794">
        <ele>335</ele>
        <time>2015-06-17T13:47:31Z</time>
      </trkpt>
      <trkpt lat="43.37646" lon="6.15795">
        <ele>335</ele>
        <time>2015-06-17T13:47:32Z</time>
      </trkpt>
      <trkpt lat="43.37643" lon="6.15795">
        <ele>334.79998779297</ele>
        <time>2015-06-17T13:47:34Z</time>
      </trkpt>
      <trkpt lat="43.3764" lon="6.15794">
        <ele>334.79998779297</ele>
        <time>2015-06-17T13:47:36Z</time>
      </trkpt>
      <trkpt lat="43.37637" lon="6.15792">
        <ele>335.20001220703</ele>
        <time>2015-06-17T13:47:38Z</time>
      </trkpt>
      <trkpt lat="43.37634" lon="6.15791">
        <ele>335.39999389648</ele>
        <time>2015-06-17T13:47:40Z</time>
      </trkpt>
      <trkpt lat="43.37632" lon="6.1579">
        <ele>335.60000610352</ele>
        <time>2015-06-17T13:47:41Z</time>
      </trkpt>
      <trkpt lat="43.37631" lon="6.15789">
        <ele>335.60000610352</ele>
        <time>2015-06-17T13:47:42Z</time>
      </trkpt>
      <trkpt lat="43.37628" lon="6.15788">
        <ele>336</ele>
        <time>2015-06-17T13:47:44Z</time>
      </trkpt>
      <trkpt lat="43.37625" lon="6.15788">
        <ele>336.39999389648</ele>
        <time>2015-06-17T13:47:46Z</time>
      </trkpt>
      <trkpt lat="43.37624" lon="6.15787">
        <ele>336.60000610352</ele>
        <time>2015-06-17T13:47:47Z</time>
      </trkpt>
      <trkpt lat="43.37622" lon="6.15786">
        <ele>336.60000610352</ele>
        <time>2015-06-17T13:47:48Z</time>
      </trkpt>
      <trkpt lat="43.37619" lon="6.15785">
        <ele>336.79998779297</ele>
        <time>2015-06-17T13:47:50Z</time>
      </trkpt>
      <trkpt lat="43.37616" lon="6.15784">
        <ele>336.79998779297</ele>
        <time>2015-06-17T13:47:52Z</time>
      </trkpt>
      <trkpt lat="43.37613" lon="6.15783">
        <ele>337</ele>
        <time>2015-06-17T13:47:54Z</time>
      </trkpt>
      <trkpt lat="43.37612" lon="6.15782">
        <ele>337.20001220703</ele>
        <time>2015-06-17T13:47:55Z</time>
      </trkpt>
      <trkpt lat="43.37611" lon="6.15782">
        <ele>337.39999389648</ele>
        <time>2015-06-17T13:47:56Z</time>
      </trkpt>
      <trkpt lat="43.37609" lon="6.15781">
        <ele>337.39999389648</ele>
        <time>2015-06-17T13:47:58Z</time>
      </trkpt>
      <trkpt lat="43.37606" lon="6.15781">
        <ele>337.60000610352</ele>
        <time>2015-06-17T13:48:00Z</time>
      </trkpt>
      <trkpt lat="43.37603" lon="6.15781">
        <ele>337.79998779297</ele>
        <time>2015-06-17T13:48:02Z</time>
      </trkpt>
      <trkpt lat="43.37603" lon="6.15781">
        <ele>337.79998779297</ele>
        <time>2015-06-17T13:48:03Z</time>
      </trkpt>
      <trkpt lat="43.37601" lon="6.15781">
        <ele>338</ele>
        <time>2015-06-17T13:48:04Z</time>
      </trkpt>
      <trkpt lat="43.376" lon="6.15782">
        <ele>338</ele>
        <time>2015-06-17T13:48:06Z</time>
      </trkpt>
      <trkpt lat="43.37597" lon="6.15784">
        <ele>338.20001220703</ele>
        <time>2015-06-17T13:48:08Z</time>
      </trkpt>
      <trkpt lat="43.37595" lon="6.15785">
        <ele>338.39999389648</ele>
        <time>2015-06-17T13:48:09Z</time>
      </trkpt>
      <trkpt lat="43.37594" lon="6.15786">
        <ele>338.39999389648</ele>
        <time>2015-06-17T13:48:10Z</time>
      </trkpt>
      <trkpt lat="43.37592" lon="6.15788">
        <ele>338.39999389648</ele>
        <time>2015-06-17T13:48:12Z</time>
      </trkpt>
      <trkpt lat="43.3759" lon="6.15792">
        <ele>338.79998779297</ele>
        <time>2015-06-17T13:48:14Z</time>
      </trkpt>
      <trkpt lat="43.37589" lon="6.15797">
        <ele>339</ele>
        <time>2015-06-17T13:48:16Z</time>
      </trkpt>
      <trkpt lat="43.37589" lon="6.15803">
        <ele>339.20001220703</ele>
        <time>2015-06-17T13:48:18Z</time>
      </trkpt>
      <trkpt lat="43.37589" lon="6.15806">
        <ele>339.39999389648</ele>
        <time>2015-06-17T13:48:19Z</time>
      </trkpt>
      <trkpt lat="43.3759" lon="6.15808">
        <ele>339.60000610352</ele>
        <time>2015-06-17T13:48:20Z</time>
      </trkpt>
      <trkpt lat="43.3759" lon="6.15811">
        <ele>340</ele>
        <time>2015-06-17T13:48:21Z</time>
      </trkpt>
      <trkpt lat="43.3759" lon="6.15814">
        <ele>340.20001220703</ele>
        <time>2015-06-17T13:48:22Z</time>
      </trkpt>
      <trkpt lat="43.3759" lon="6.15819">
        <ele>340.60000610352</ele>
        <time>2015-06-17T13:48:24Z</time>
      </trkpt>
      <trkpt lat="43.3759" lon="6.15825">
        <ele>340.60000610352</ele>
        <time>2015-06-17T13:48:26Z</time>
      </trkpt>
      <trkpt lat="43.3759" lon="6.15831">
        <ele>340.60000610352</ele>
        <time>2015-06-17T13:48:28Z</time>
      </trkpt>
      <trkpt lat="43.37589" lon="6.15837">
        <ele>341</ele>
        <time>2015-06-17T13:48:30Z</time>
      </trkpt>
      <trkpt lat="43.37589" lon="6.15843">
        <ele>341</ele>
        <time>2015-06-17T13:48:32Z</time>
      </trkpt>
      <trkpt lat="43.37588" lon="6.15849">
        <ele>341.20001220703</ele>
        <time>2015-06-17T13:48:34Z</time>
      </trkpt>
      <trkpt lat="43.37587" lon="6.15855">
        <ele>341.79998779297</ele>
        <time>2015-06-17T13:48:36Z</time>
      </trkpt>
      <trkpt lat="43.37586" lon="6.15858">
        <ele>342</ele>
        <time>2015-06-17T13:48:37Z</time>
      </trkpt>
      <trkpt lat="43.37585" lon="6.1586">
        <ele>342</ele>
        <time>2015-06-17T13:48:38Z</time>
      </trkpt>
      <trkpt lat="43.37584" lon="6.15866">
        <ele>342.20001220703</ele>
        <time>2015-06-17T13:48:40Z</time>
      </trkpt>
      <trkpt lat="43.37582" lon="6.15871">
        <ele>342.20001220703</ele>
        <time>2015-06-17T13:48:42Z</time>
      </trkpt>
      <trkpt lat="43.3758" lon="6.15875">
        <ele>342.79998779297</ele>
        <time>2015-06-17T13:48:44Z</time>
      </trkpt>
      <trkpt lat="43.37579" lon="6.15877">
        <ele>343</ele>
        <time>2015-06-17T13:48:45Z</time>
      </trkpt>
      <trkpt lat="43.37578" lon="6.1588">
        <ele>343</ele>
        <time>2015-06-17T13:48:46Z</time>
      </trkpt>
      <trkpt lat="43.37576" lon="6.15884">
        <ele>343.39999389648</ele>
        <time>2015-06-17T13:48:48Z</time>
      </trkpt>
      <trkpt lat="43.37574" lon="6.15889">
        <ele>343.60000610352</ele>
        <time>2015-06-17T13:48:50Z</time>
      </trkpt>
      <trkpt lat="43.37572" lon="6.15894">
        <ele>344</ele>
        <time>2015-06-17T13:48:52Z</time>
      </trkpt>
      <trkpt lat="43.37571" lon="6.15897">
        <ele>343.79998779297</ele>
        <time>2015-06-17T13:48:53Z</time>
      </trkpt>
      <trkpt lat="43.3757" lon="6.15899">
        <ele>343.79998779297</ele>
        <time>2015-06-17T13:48:54Z</time>
      </trkpt>
      <trkpt lat="43.37568" lon="6.15905">
        <ele>344</ele>
        <time>2015-06-17T13:48:56Z</time>
      </trkpt>
      <trkpt lat="43.37566" lon="6.15909">
        <ele>344.39999389648</ele>
        <time>2015-06-17T13:48:58Z</time>
      </trkpt>
      <trkpt lat="43.37564" lon="6.15914">
        <ele>344.79998779297</ele>
        <time>2015-06-17T13:49:00Z</time>
      </trkpt>
      <trkpt lat="43.37563" lon="6.15916">
        <ele>344.79998779297</ele>
        <time>2015-06-17T13:49:01Z</time>
      </trkpt>
      <trkpt lat="43.37562" lon="6.15919">
        <ele>345</ele>
        <time>2015-06-17T13:49:02Z</time>
      </trkpt>
      <trkpt lat="43.3756" lon="6.15924">
        <ele>345.39999389648</ele>
        <time>2015-06-17T13:49:04Z</time>
      </trkpt>
      <trkpt lat="43.37558" lon="6.15929">
        <ele>345.39999389648</ele>
        <time>2015-06-17T13:49:06Z</time>
      </trkpt>
      <trkpt lat="43.37555" lon="6.15934">
        <ele>345.60000610352</ele>
        <time>2015-06-17T13:49:08Z</time>
      </trkpt>
      <trkpt lat="43.37554" lon="6.15936">
        <ele>345.79998779297</ele>
        <time>2015-06-17T13:49:09Z</time>
      </trkpt>
      <trkpt lat="43.37553" lon="6.15939">
        <ele>346.20001220703</ele>
        <time>2015-06-17T13:49:10Z</time>
      </trkpt>
      <trkpt lat="43.3755" lon="6.15943">
        <ele>346.39999389648</ele>
        <time>2015-06-17T13:49:12Z</time>
      </trkpt>
      <trkpt lat="43.37547" lon="6.15948">
        <ele>346.79998779297</ele>
        <time>2015-06-17T13:49:14Z</time>
      </trkpt>
      <trkpt lat="43.37544" lon="6.15952">
        <ele>346.79998779297</ele>
        <time>2015-06-17T13:49:16Z</time>
      </trkpt>
      <trkpt lat="43.37542" lon="6.15954">
        <ele>347</ele>
        <time>2015-06-17T13:49:17Z</time>
      </trkpt>
      <trkpt lat="43.3754" lon="6.15955">
        <ele>347.20001220703</ele>
        <time>2015-06-17T13:49:18Z</time>
      </trkpt>
      <trkpt lat="43.37537" lon="6.15959">
        <ele>347.39999389648</ele>
        <time>2015-06-17T13:49:20Z</time>
      </trkpt>
      <trkpt lat="43.37535" lon="6.15962">
        <ele>347.79998779297</ele>
        <time>2015-06-17T13:49:22Z</time>
      </trkpt>
      <trkpt lat="43.37532" lon="6.15966">
        <ele>348.20001220703</ele>
        <time>2015-06-17T13:49:24Z</time>
      </trkpt>
      <trkpt lat="43.37529" lon="6.15969">
        <ele>348.60000610352</ele>
        <time>2015-06-17T13:49:26Z</time>
      </trkpt>
      <trkpt lat="43.37527" lon="6.15972">
        <ele>348.79998779297</ele>
        <time>2015-06-17T13:49:28Z</time>
      </trkpt>
      <trkpt lat="43.37524" lon="6.15976">
        <ele>349.39999389648</ele>
        <time>2015-06-17T13:49:30Z</time>
      </trkpt>
      <trkpt lat="43.37523" lon="6.15978">
        <ele>349.60000610352</ele>
        <time>2015-06-17T13:49:31Z</time>
      </trkpt>
      <trkpt lat="43.37521" lon="6.15979">
        <ele>349.79998779297</ele>
        <time>2015-06-17T13:49:32Z</time>
      </trkpt>
      <trkpt lat="43.37518" lon="6.15983">
        <ele>350.20001220703</ele>
        <time>2015-06-17T13:49:34Z</time>
      </trkpt>
      <trkpt lat="43.37515" lon="6.15987">
        <ele>350</ele>
        <time>2015-06-17T13:49:36Z</time>
      </trkpt>
      <trkpt lat="43.37512" lon="6.1599">
        <ele>350.39999389648</ele>
        <time>2015-06-17T13:49:38Z</time>
      </trkpt>
      <trkpt lat="43.3751" lon="6.15993">
        <ele>350.60000610352</ele>
        <time>2015-06-17T13:49:40Z</time>
      </trkpt>
      <trkpt lat="43.37506" lon="6.15997">
        <ele>350.79998779297</ele>
        <time>2015-06-17T13:49:42Z</time>
      </trkpt>
      <trkpt lat="43.37503" lon="6.16">
        <ele>351.20001220703</ele>
        <time>2015-06-17T13:49:44Z</time>
      </trkpt>
      <trkpt lat="43.37502" lon="6.16002">
        <ele>351.39999389648</ele>
        <time>2015-06-17T13:49:45Z</time>
      </trkpt>
      <trkpt lat="43.37501" lon="6.16003">
        <ele>351.60000610352</ele>
        <time>2015-06-17T13:49:46Z</time>
      </trkpt>
      <trkpt lat="43.37498" lon="6.16007">
        <ele>351.79998779297</ele>
        <time>2015-06-17T13:49:48Z</time>
      </trkpt>
      <trkpt lat="43.37495" lon="6.1601">
        <ele>352</ele>
        <time>2015-06-17T13:49:50Z</time>
      </trkpt>
      <trkpt lat="43.37492" lon="6.16013">
        <ele>352.39999389648</ele>
        <time>2015-06-17T13:49:52Z</time>
      </trkpt>
      <trkpt lat="43.37489" lon="6.16017">
        <ele>352.60000610352</ele>
        <time>2015-06-17T13:49:54Z</time>
      </trkpt>
      <trkpt lat="43.37487" lon="6.16018">
        <ele>352.79998779297</ele>
        <time>2015-06-17T13:49:55Z</time>
      </trkpt>
      <trkpt lat="43.37486" lon="6.1602">
        <ele>352.79998779297</ele>
        <time>2015-06-17T13:49:56Z</time>
      </trkpt>
      <trkpt lat="43.37482" lon="6.16023">
        <ele>353</ele>
        <time>2015-06-17T13:49:58Z</time>
      </trkpt>
      <trkpt lat="43.37479" lon="6.16026">
        <ele>353</ele>
        <time>2015-06-17T13:50:00Z</time>
      </trkpt>
      <trkpt lat="43.37476" lon="6.16029">
        <ele>353.60000610352</ele>
        <time>2015-06-17T13:50:02Z</time>
      </trkpt>
      <trkpt lat="43.37474" lon="6.16031">
        <ele>354</ele>
        <time>2015-06-17T13:50:03Z</time>
      </trkpt>
      <trkpt lat="43.37472" lon="6.16032">
        <ele>354</ele>
        <time>2015-06-17T13:50:04Z</time>
      </trkpt>
      <trkpt lat="43.37469" lon="6.16034">
        <ele>354.39999389648</ele>
        <time>2015-06-17T13:50:06Z</time>
      </trkpt>
      <trkpt lat="43.37465" lon="6.16036">
        <ele>354.20001220703</ele>
        <time>2015-06-17T13:50:08Z</time>
      </trkpt>
      <trkpt lat="43.37462" lon="6.16038">
        <ele>354.60000610352</ele>
        <time>2015-06-17T13:50:10Z</time>
      </trkpt>
      <trkpt lat="43.37458" lon="6.16039">
        <ele>354.79998779297</ele>
        <time>2015-06-17T13:50:12Z</time>
      </trkpt>
      <trkpt lat="43.37456" lon="6.16039">
        <ele>355</ele>
        <time>2015-06-17T13:50:13Z</time>
      </trkpt>
      <trkpt lat="43.37454" lon="6.1604">
        <ele>355.39999389648</ele>
        <time>2015-06-17T13:50:14Z</time>
      </trkpt>
      <trkpt lat="43.3745" lon="6.1604">
        <ele>355.60000610352</ele>
        <time>2015-06-17T13:50:16Z</time>
      </trkpt>
      <trkpt lat="43.37449" lon="6.1604">
        <ele>355.79998779297</ele>
        <time>2015-06-17T13:50:17Z</time>
      </trkpt>
      <trkpt lat="43.37446" lon="6.1604">
        <ele>356.20001220703</ele>
        <time>2015-06-17T13:50:18Z</time>
      </trkpt>
      <trkpt lat="43.37442" lon="6.16039">
        <ele>356.20001220703</ele>
        <time>2015-06-17T13:50:20Z</time>
      </trkpt>
      <trkpt lat="43.3744" lon="6.16039">
        <ele>356</ele>
        <time>2015-06-17T13:50:21Z</time>
      </trkpt>
      <trkpt lat="43.37437" lon="6.16039">
        <ele>355.79998779297</ele>
        <time>2015-06-17T13:50:22Z</time>
      </trkpt>
      <trkpt lat="43.37433" lon="6.16037">
        <ele>356</ele>
        <time>2015-06-17T13:50:24Z</time>
      </trkpt>
      <trkpt lat="43.37429" lon="6.16036">
        <ele>356.20001220703</ele>
        <time>2015-06-17T13:50:26Z</time>
      </trkpt>
      <trkpt lat="43.37424" lon="6.16035">
        <ele>356</ele>
        <time>2015-06-17T13:50:28Z</time>
      </trkpt>
      <trkpt lat="43.37422" lon="6.16035">
        <ele>356</ele>
        <time>2015-06-17T13:50:29Z</time>
      </trkpt>
      <trkpt lat="43.3742" lon="6.16035">
        <ele>356.20001220703</ele>
        <time>2015-06-17T13:50:30Z</time>
      </trkpt>
      <trkpt lat="43.37415" lon="6.16034">
        <ele>357</ele>
        <time>2015-06-17T13:50:32Z</time>
      </trkpt>
      <trkpt lat="43.37411" lon="6.16034">
        <ele>357</ele>
        <time>2015-06-17T13:50:34Z</time>
      </trkpt>
      <trkpt lat="43.37406" lon="6.16034">
        <ele>357.20001220703</ele>
        <time>2015-06-17T13:50:36Z</time>
      </trkpt>
      <trkpt lat="43.37402" lon="6.16034">
        <ele>357.60000610352</ele>
        <time>2015-06-17T13:50:38Z</time>
      </trkpt>
      <trkpt lat="43.374" lon="6.16033">
        <ele>358</ele>
        <time>2015-06-17T13:50:39Z</time>
      </trkpt>
      <trkpt lat="43.37397" lon="6.16033">
        <ele>358.20001220703</ele>
        <time>2015-06-17T13:50:40Z</time>
      </trkpt>
      <trkpt lat="43.37393" lon="6.16033">
        <ele>358.20001220703</ele>
        <time>2015-06-17T13:50:42Z</time>
      </trkpt>
      <trkpt lat="43.37388" lon="6.16032">
        <ele>358.20001220703</ele>
        <time>2015-06-17T13:50:44Z</time>
      </trkpt>
      <trkpt lat="43.37384" lon="6.16031">
        <ele>358.60000610352</ele>
        <time>2015-06-17T13:50:46Z</time>
      </trkpt>
      <trkpt lat="43.37379" lon="6.1603">
        <ele>358.79998779297</ele>
        <time>2015-06-17T13:50:48Z</time>
      </trkpt>
      <trkpt lat="43.37375" lon="6.16029">
        <ele>359.39999389648</ele>
        <time>2015-06-17T13:50:50Z</time>
      </trkpt>
      <trkpt lat="43.3737" lon="6.16029">
        <ele>359.79998779297</ele>
        <time>2015-06-17T13:50:52Z</time>
      </trkpt>
      <trkpt lat="43.37365" lon="6.16028">
        <ele>359.79998779297</ele>
        <time>2015-06-17T13:50:54Z</time>
      </trkpt>
      <trkpt lat="43.37361" lon="6.16027">
        <ele>360.20001220703</ele>
        <time>2015-06-17T13:50:56Z</time>
      </trkpt>
      <trkpt lat="43.37356" lon="6.16027">
        <ele>360.39999389648</ele>
        <time>2015-06-17T13:50:58Z</time>
      </trkpt>
      <trkpt lat="43.37354" lon="6.16026">
        <ele>360.39999389648</ele>
        <time>2015-06-17T13:50:59Z</time>
      </trkpt>
      <trkpt lat="43.37352" lon="6.16026">
        <ele>360.60000610352</ele>
        <time>2015-06-17T13:51:00Z</time>
      </trkpt>
      <trkpt lat="43.37347" lon="6.16026">
        <ele>360.60000610352</ele>
        <time>2015-06-17T13:51:02Z</time>
      </trkpt>
      <trkpt lat="43.37345" lon="6.16026">
        <ele>360.60000610352</ele>
        <time>2015-06-17T13:51:03Z</time>
      </trkpt>
      <trkpt lat="43.37342" lon="6.16026">
        <ele>360.79998779297</ele>
        <time>2015-06-17T13:51:04Z</time>
      </trkpt>
      <trkpt lat="43.37338" lon="6.16026">
        <ele>361</ele>
        <time>2015-06-17T13:51:06Z</time>
      </trkpt>
      <trkpt lat="43.37334" lon="6.16026">
        <ele>361.20001220703</ele>
        <time>2015-06-17T13:51:08Z</time>
      </trkpt>
      <trkpt lat="43.37332" lon="6.16026">
        <ele>361.39999389648</ele>
        <time>2015-06-17T13:51:09Z</time>
      </trkpt>
      <trkpt lat="43.37329" lon="6.16026">
        <ele>361.39999389648</ele>
        <time>2015-06-17T13:51:10Z</time>
      </trkpt>
      <trkpt lat="43.37325" lon="6.16027">
        <ele>361.20001220703</ele>
        <time>2015-06-17T13:51:12Z</time>
      </trkpt>
      <trkpt lat="43.37321" lon="6.16028">
        <ele>361.39999389648</ele>
        <time>2015-06-17T13:51:14Z</time>
      </trkpt>
      <trkpt lat="43.37316" lon="6.16028">
        <ele>361.60000610352</ele>
        <time>2015-06-17T13:51:16Z</time>
      </trkpt>
      <trkpt lat="43.37312" lon="6.16029">
        <ele>361.79998779297</ele>
        <time>2015-06-17T13:51:18Z</time>
      </trkpt>
      <trkpt lat="43.37309" lon="6.16029">
        <ele>362</ele>
        <time>2015-06-17T13:51:19Z</time>
      </trkpt>
      <trkpt lat="43.37307" lon="6.16029">
        <ele>362.20001220703</ele>
        <time>2015-06-17T13:51:20Z</time>
      </trkpt>
      <trkpt lat="43.37303" lon="6.1603">
        <ele>362.39999389648</ele>
        <time>2015-06-17T13:51:22Z</time>
      </trkpt>
      <trkpt lat="43.37298" lon="6.16031">
        <ele>362.60000610352</ele>
        <time>2015-06-17T13:51:24Z</time>
      </trkpt>
      <trkpt lat="43.37294" lon="6.16032">
        <ele>362.60000610352</ele>
        <time>2015-06-17T13:51:26Z</time>
      </trkpt>
      <trkpt lat="43.3729" lon="6.16032">
        <ele>363</ele>
        <time>2015-06-17T13:51:28Z</time>
      </trkpt>
      <trkpt lat="43.37285" lon="6.16033">
        <ele>363.20001220703</ele>
        <time>2015-06-17T13:51:30Z</time>
      </trkpt>
      <trkpt lat="43.37281" lon="6.16033">
        <ele>363.20001220703</ele>
        <time>2015-06-17T13:51:32Z</time>
      </trkpt>
      <trkpt lat="43.37276" lon="6.16032">
        <ele>363.60000610352</ele>
        <time>2015-06-17T13:51:34Z</time>
      </trkpt>
      <trkpt lat="43.37272" lon="6.16032">
        <ele>363.79998779297</ele>
        <time>2015-06-17T13:51:36Z</time>
      </trkpt>
      <trkpt lat="43.3727" lon="6.16032">
        <ele>364</ele>
        <time>2015-06-17T13:51:37Z</time>
      </trkpt>
      <trkpt lat="43.37268" lon="6.16032">
        <ele>364.39999389648</ele>
        <time>2015-06-17T13:51:38Z</time>
      </trkpt>
      <trkpt lat="43.37265" lon="6.16031">
        <ele>364.79998779297</ele>
        <time>2015-06-17T13:51:39Z</time>
      </trkpt>
      <trkpt lat="43.37263" lon="6.16031">
        <ele>365</ele>
        <time>2015-06-17T13:51:40Z</time>
      </trkpt>
      <trkpt lat="43.37259" lon="6.1603">
        <ele>365</ele>
        <time>2015-06-17T13:51:42Z</time>
      </trkpt>
      <trkpt lat="43.37255" lon="6.16029">
        <ele>365.39999389648</ele>
        <time>2015-06-17T13:51:44Z</time>
      </trkpt>
      <trkpt lat="43.37252" lon="6.16028">
        <ele>366</ele>
        <time>2015-06-17T13:51:46Z</time>
      </trkpt>
      <trkpt lat="43.37247" lon="6.16027">
        <ele>366</ele>
        <time>2015-06-17T13:51:48Z</time>
      </trkpt>
      <trkpt lat="43.37244" lon="6.16025">
        <ele>366.20001220703</ele>
        <time>2015-06-17T13:51:50Z</time>
      </trkpt>
      <trkpt lat="43.3724" lon="6.16023">
        <ele>366.60000610352</ele>
        <time>2015-06-17T13:51:52Z</time>
      </trkpt>
      <trkpt lat="43.37237" lon="6.16022">
        <ele>367</ele>
        <time>2015-06-17T13:51:54Z</time>
      </trkpt>
      <trkpt lat="43.37233" lon="6.16019">
        <ele>367.20001220703</ele>
        <time>2015-06-17T13:51:56Z</time>
      </trkpt>
      <trkpt lat="43.3723" lon="6.16018">
        <ele>367.60000610352</ele>
        <time>2015-06-17T13:51:58Z</time>
      </trkpt>
      <trkpt lat="43.37228" lon="6.16017">
        <ele>367.79998779297</ele>
        <time>2015-06-17T13:51:59Z</time>
      </trkpt>
      <trkpt lat="43.37226" lon="6.16016">
        <ele>367.79998779297</ele>
        <time>2015-06-17T13:52:00Z</time>
      </trkpt>
      <trkpt lat="43.37223" lon="6.16013">
        <ele>368.20001220703</ele>
        <time>2015-06-17T13:52:02Z</time>
      </trkpt>
      <trkpt lat="43.3722" lon="6.16011">
        <ele>368.39999389648</ele>
        <time>2015-06-17T13:52:04Z</time>
      </trkpt>
      <trkpt lat="43.37218" lon="6.1601">
        <ele>368.60000610352</ele>
        <time>2015-06-17T13:52:05Z</time>
      </trkpt>
      <trkpt lat="43.37216" lon="6.16009">
        <ele>368.79998779297</ele>
        <time>2015-06-17T13:52:06Z</time>
      </trkpt>
      <trkpt lat="43.37213" lon="6.16007">
        <ele>369</ele>
        <time>2015-06-17T13:52:08Z</time>
      </trkpt>
      <trkpt lat="43.3721" lon="6.16005">
        <ele>369.39999389648</ele>
        <time>2015-06-17T13:52:10Z</time>
      </trkpt>
      <trkpt lat="43.37207" lon="6.16003">
        <ele>369.39999389648</ele>
        <time>2015-06-17T13:52:12Z</time>
      </trkpt>
      <trkpt lat="43.37203" lon="6.16001">
        <ele>369.39999389648</ele>
        <time>2015-06-17T13:52:14Z</time>
      </trkpt>
      <trkpt lat="43.372" lon="6.15999">
        <ele>369.79998779297</ele>
        <time>2015-06-17T13:52:16Z</time>
      </trkpt>
      <trkpt lat="43.37197" lon="6.15997">
        <ele>370</ele>
        <time>2015-06-17T13:52:18Z</time>
      </trkpt>
      <trkpt lat="43.37193" lon="6.15995">
        <ele>370.39999389648</ele>
        <time>2015-06-17T13:52:20Z</time>
      </trkpt>
      <trkpt lat="43.37191" lon="6.15994">
        <ele>370.39999389648</ele>
        <time>2015-06-17T13:52:21Z</time>
      </trkpt>
      <trkpt lat="43.37189" lon="6.15992">
        <ele>370.60000610352</ele>
        <time>2015-06-17T13:52:22Z</time>
      </trkpt>
      <trkpt lat="43.37185" lon="6.1599">
        <ele>370.79998779297</ele>
        <time>2015-06-17T13:52:24Z</time>
      </trkpt>
      <trkpt lat="43.37182" lon="6.15988">
        <ele>371</ele>
        <time>2015-06-17T13:52:26Z</time>
      </trkpt>
      <trkpt lat="43.37178" lon="6.15985">
        <ele>370.60000610352</ele>
        <time>2015-06-17T13:52:28Z</time>
      </trkpt>
      <trkpt lat="43.37175" lon="6.15981">
        <ele>371.39999389648</ele>
        <time>2015-06-17T13:52:30Z</time>
      </trkpt>
      <trkpt lat="43.37172" lon="6.15978">
        <ele>371.60000610352</ele>
        <time>2015-06-17T13:52:32Z</time>
      </trkpt>
      <trkpt lat="43.37169" lon="6.15974">
        <ele>371.79998779297</ele>
        <time>2015-06-17T13:52:34Z</time>
      </trkpt>
      <trkpt lat="43.37167" lon="6.15972">
        <ele>371.79998779297</ele>
        <time>2015-06-17T13:52:35Z</time>
      </trkpt>
      <trkpt lat="43.37166" lon="6.1597">
        <ele>372</ele>
        <time>2015-06-17T13:52:36Z</time>
      </trkpt>
      <trkpt lat="43.37164" lon="6.15967">
        <ele>372.39999389648</ele>
        <time>2015-06-17T13:52:37Z</time>
      </trkpt>
      <trkpt lat="43.37163" lon="6.15965">
        <ele>372.60000610352</ele>
        <time>2015-06-17T13:52:38Z</time>
      </trkpt>
      <trkpt lat="43.3716" lon="6.15961">
        <ele>372.60000610352</ele>
        <time>2015-06-17T13:52:40Z</time>
      </trkpt>
      <trkpt lat="43.37158" lon="6.15956">
        <ele>373</ele>
        <time>2015-06-17T13:52:42Z</time>
      </trkpt>
      <trkpt lat="43.37156" lon="6.15951">
        <ele>373</ele>
        <time>2015-06-17T13:52:44Z</time>
      </trkpt>
      <trkpt lat="43.37154" lon="6.15947">
        <ele>373</ele>
        <time>2015-06-17T13:52:46Z</time>
      </trkpt>
      <trkpt lat="43.37153" lon="6.15942">
        <ele>373.20001220703</ele>
        <time>2015-06-17T13:52:48Z</time>
      </trkpt>
      <trkpt lat="43.37152" lon="6.15939">
        <ele>373.39999389648</ele>
        <time>2015-06-17T13:52:49Z</time>
      </trkpt>
      <trkpt lat="43.37151" lon="6.15937">
        <ele>373.60000610352</ele>
        <time>2015-06-17T13:52:50Z</time>
      </trkpt>
      <trkpt lat="43.37149" lon="6.15932">
        <ele>374</ele>
        <time>2015-06-17T13:52:52Z</time>
      </trkpt>
      <trkpt lat="43.37148" lon="6.15927">
        <ele>374.20001220703</ele>
        <time>2015-06-17T13:52:54Z</time>
      </trkpt>
      <trkpt lat="43.37147" lon="6.15924">
        <ele>374.20001220703</ele>
        <time>2015-06-17T13:52:55Z</time>
      </trkpt>
      <trkpt lat="43.37146" lon="6.15921">
        <ele>374</ele>
        <time>2015-06-17T13:52:56Z</time>
      </trkpt>
      <trkpt lat="43.37145" lon="6.15916">
        <ele>374.39999389648</ele>
        <time>2015-06-17T13:52:58Z</time>
      </trkpt>
      <trkpt lat="43.37143" lon="6.15911">
        <ele>374.79998779297</ele>
        <time>2015-06-17T13:53:00Z</time>
      </trkpt>
      <trkpt lat="43.37141" lon="6.15906">
        <ele>374.79998779297</ele>
        <time>2015-06-17T13:53:02Z</time>
      </trkpt>
      <trkpt lat="43.37141" lon="6.15901">
        <ele>375</ele>
        <time>2015-06-17T13:53:04Z</time>
      </trkpt>
      <trkpt lat="43.3714" lon="6.15896">
        <ele>375.60000610352</ele>
        <time>2015-06-17T13:53:06Z</time>
      </trkpt>
      <trkpt lat="43.37138" lon="6.15891">
        <ele>375.60000610352</ele>
        <time>2015-06-17T13:53:08Z</time>
      </trkpt>
      <trkpt lat="43.37137" lon="6.15886">
        <ele>376</ele>
        <time>2015-06-17T13:53:10Z</time>
      </trkpt>
      <trkpt lat="43.37135" lon="6.15881">
        <ele>376.39999389648</ele>
        <time>2015-06-17T13:53:12Z</time>
      </trkpt>
      <trkpt lat="43.37134" lon="6.15879">
        <ele>376.60000610352</ele>
        <time>2015-06-17T13:53:13Z</time>
      </trkpt>
      <trkpt lat="43.37132" lon="6.15877">
        <ele>376.79998779297</ele>
        <time>2015-06-17T13:53:14Z</time>
      </trkpt>
      <trkpt lat="43.37129" lon="6.15874">
        <ele>377</ele>
        <time>2015-06-17T13:53:16Z</time>
      </trkpt>
      <trkpt lat="43.37123" lon="6.15872">
        <ele>377</ele>
        <time>2015-06-17T13:53:18Z</time>
      </trkpt>
      <trkpt lat="43.37119" lon="6.15873">
        <ele>376.79998779297</ele>
        <time>2015-06-17T13:53:20Z</time>
      </trkpt>
      <trkpt lat="43.37117" lon="6.15875">
        <ele>376.79998779297</ele>
        <time>2015-06-17T13:53:21Z</time>
      </trkpt>
      <trkpt lat="43.37115" lon="6.15876">
        <ele>377.20001220703</ele>
        <time>2015-06-17T13:53:22Z</time>
      </trkpt>
      <trkpt lat="43.37111" lon="6.15879">
        <ele>377.39999389648</ele>
        <time>2015-06-17T13:53:24Z</time>
      </trkpt>
      <trkpt lat="43.37109" lon="6.15884">
        <ele>377.39999389648</ele>
        <time>2015-06-17T13:53:26Z</time>
      </trkpt>
      <trkpt lat="43.37108" lon="6.15885">
        <ele>377.79998779297</ele>
        <time>2015-06-17T13:53:27Z</time>
      </trkpt>
      <trkpt lat="43.37107" lon="6.15888">
        <ele>378</ele>
        <time>2015-06-17T13:53:28Z</time>
      </trkpt>
      <trkpt lat="43.37104" lon="6.15891">
        <ele>378</ele>
        <time>2015-06-17T13:53:30Z</time>
      </trkpt>
      <trkpt lat="43.37102" lon="6.15896">
        <ele>378</ele>
        <time>2015-06-17T13:53:32Z</time>
      </trkpt>
      <trkpt lat="43.371" lon="6.15898">
        <ele>378.20001220703</ele>
        <time>2015-06-17T13:53:33Z</time>
      </trkpt>
      <trkpt lat="43.37099" lon="6.159">
        <ele>378.20001220703</ele>
        <time>2015-06-17T13:53:34Z</time>
      </trkpt>
      <trkpt lat="43.37096" lon="6.15904">
        <ele>378.39999389648</ele>
        <time>2015-06-17T13:53:36Z</time>
      </trkpt>
      <trkpt lat="43.37092" lon="6.15907">
        <ele>378.39999389648</ele>
        <time>2015-06-17T13:53:38Z</time>
      </trkpt>
      <trkpt lat="43.3709" lon="6.15908">
        <ele>378.79998779297</ele>
        <time>2015-06-17T13:53:39Z</time>
      </trkpt>
      <trkpt lat="43.37088" lon="6.1591">
        <ele>379</ele>
        <time>2015-06-17T13:53:40Z</time>
      </trkpt>
      <trkpt lat="43.37085" lon="6.15912">
        <ele>378.79998779297</ele>
        <time>2015-06-17T13:53:42Z</time>
      </trkpt>
      <trkpt lat="43.37082" lon="6.15914">
        <ele>379</ele>
        <time>2015-06-17T13:53:44Z</time>
      </trkpt>
      <trkpt lat="43.37078" lon="6.15915">
        <ele>379.60000610352</ele>
        <time>2015-06-17T13:53:46Z</time>
      </trkpt>
      <trkpt lat="43.37074" lon="6.15916">
        <ele>379.79998779297</ele>
        <time>2015-06-17T13:53:48Z</time>
      </trkpt>
      <trkpt lat="43.3707" lon="6.15918">
        <ele>379.79998779297</ele>
        <time>2015-06-17T13:53:50Z</time>
      </trkpt>
      <trkpt lat="43.37067" lon="6.15918">
        <ele>380.39999389648</ele>
        <time>2015-06-17T13:53:52Z</time>
      </trkpt>
      <trkpt lat="43.37065" lon="6.15918">
        <ele>380.60000610352</ele>
        <time>2015-06-17T13:53:53Z</time>
      </trkpt>
      <trkpt lat="43.37063" lon="6.15918">
        <ele>380.79998779297</ele>
        <time>2015-06-17T13:53:54Z</time>
      </trkpt>
      <trkpt lat="43.37059" lon="6.15918">
        <ele>381</ele>
        <time>2015-06-17T13:53:56Z</time>
      </trkpt>
      <trkpt lat="43.37056" lon="6.15916">
        <ele>381.20001220703</ele>
        <time>2015-06-17T13:53:58Z</time>
      </trkpt>
      <trkpt lat="43.37053" lon="6.15914">
        <ele>381.39999389648</ele>
        <time>2015-06-17T13:54:00Z</time>
      </trkpt>
      <trkpt lat="43.37051" lon="6.15913">
        <ele>381.39999389648</ele>
        <time>2015-06-17T13:54:01Z</time>
      </trkpt>
      <trkpt lat="43.37049" lon="6.15912">
        <ele>381.20001220703</ele>
        <time>2015-06-17T13:54:02Z</time>
      </trkpt>
      <trkpt lat="43.37046" lon="6.15909">
        <ele>381</ele>
        <time>2015-06-17T13:54:04Z</time>
      </trkpt>
      <trkpt lat="43.37043" lon="6.15907">
        <ele>381.39999389648</ele>
        <time>2015-06-17T13:54:06Z</time>
      </trkpt>
      <trkpt lat="43.3704" lon="6.15903">
        <ele>381.60000610352</ele>
        <time>2015-06-17T13:54:08Z</time>
      </trkpt>
      <trkpt lat="43.37038" lon="6.15898">
        <ele>382.39999389648</ele>
        <time>2015-06-17T13:54:10Z</time>
      </trkpt>
      <trkpt lat="43.37035" lon="6.15894">
        <ele>382.79998779297</ele>
        <time>2015-06-17T13:54:12Z</time>
      </trkpt>
      <trkpt lat="43.37032" lon="6.15889">
        <ele>382.60000610352</ele>
        <time>2015-06-17T13:54:14Z</time>
      </trkpt>
      <trkpt lat="43.37029" lon="6.15885">
        <ele>382.79998779297</ele>
        <time>2015-06-17T13:54:16Z</time>
      </trkpt>
      <trkpt lat="43.37027" lon="6.15883">
        <ele>382.79998779297</ele>
        <time>2015-06-17T13:54:17Z</time>
      </trkpt>
      <trkpt lat="43.37025" lon="6.15881">
        <ele>382.79998779297</ele>
        <time>2015-06-17T13:54:18Z</time>
      </trkpt>
      <trkpt lat="43.37022" lon="6.15877">
        <ele>382.79998779297</ele>
        <time>2015-06-17T13:54:20Z</time>
      </trkpt>
      <trkpt lat="43.37018" lon="6.15874">
        <ele>383.20001220703</ele>
        <time>2015-06-17T13:54:22Z</time>
      </trkpt>
      <trkpt lat="43.37015" lon="6.15871">
        <ele>383.20001220703</ele>
        <time>2015-06-17T13:54:24Z</time>
      </trkpt>
      <trkpt lat="43.37012" lon="6.15869">
        <ele>383.79998779297</ele>
        <time>2015-06-17T13:54:26Z</time>
      </trkpt>
      <trkpt lat="43.37009" lon="6.15866">
        <ele>383.79998779297</ele>
        <time>2015-06-17T13:54:28Z</time>
      </trkpt>
      <trkpt lat="43.37004" lon="6.15864">
        <ele>383.79998779297</ele>
        <time>2015-06-17T13:54:30Z</time>
      </trkpt>
      <trkpt lat="43.37" lon="6.15862">
        <ele>384</ele>
        <time>2015-06-17T13:54:32Z</time>
      </trkpt>
      <trkpt lat="43.36995" lon="6.1586">
        <ele>384.60000610352</ele>
        <time>2015-06-17T13:54:34Z</time>
      </trkpt>
      <trkpt lat="43.36991" lon="6.15859">
        <ele>385</ele>
        <time>2015-06-17T13:54:36Z</time>
      </trkpt>
      <trkpt lat="43.36988" lon="6.15858">
        <ele>385.20001220703</ele>
        <time>2015-06-17T13:54:37Z</time>
      </trkpt>
      <trkpt lat="43.36987" lon="6.15857">
        <ele>385.39999389648</ele>
        <time>2015-06-17T13:54:38Z</time>
      </trkpt>
      <trkpt lat="43.36983" lon="6.15854">
        <ele>385.60000610352</ele>
        <time>2015-06-17T13:54:40Z</time>
      </trkpt>
      <trkpt lat="43.3698" lon="6.15853">
        <ele>386</ele>
        <time>2015-06-17T13:54:42Z</time>
      </trkpt>
      <trkpt lat="43.36976" lon="6.15852">
        <ele>386</ele>
        <time>2015-06-17T13:54:44Z</time>
      </trkpt>
      <trkpt lat="43.36975" lon="6.15851">
        <ele>386</ele>
        <time>2015-06-17T13:54:45Z</time>
      </trkpt>
      <trkpt lat="43.36973" lon="6.15851">
        <ele>386.39999389648</ele>
        <time>2015-06-17T13:54:46Z</time>
      </trkpt>
      <trkpt lat="43.3697" lon="6.15849">
        <ele>386.79998779297</ele>
        <time>2015-06-17T13:54:48Z</time>
      </trkpt>
      <trkpt lat="43.36966" lon="6.15847">
        <ele>387.20001220703</ele>
        <time>2015-06-17T13:54:50Z</time>
      </trkpt>
      <trkpt lat="43.36963" lon="6.15846">
        <ele>387.39999389648</ele>
        <time>2015-06-17T13:54:52Z</time>
      </trkpt>
      <trkpt lat="43.36959" lon="6.15844">
        <ele>387.39999389648</ele>
        <time>2015-06-17T13:54:54Z</time>
      </trkpt>
      <trkpt lat="43.36956" lon="6.15842">
        <ele>387.79998779297</ele>
        <time>2015-06-17T13:54:56Z</time>
      </trkpt>
      <trkpt lat="43.36953" lon="6.1584">
        <ele>388</ele>
        <time>2015-06-17T13:54:58Z</time>
      </trkpt>
      <trkpt lat="43.36952" lon="6.15839">
        <ele>388.20001220703</ele>
        <time>2015-06-17T13:54:59Z</time>
      </trkpt>
      <trkpt lat="43.36951" lon="6.15837">
        <ele>388.60000610352</ele>
        <time>2015-06-17T13:55:00Z</time>
      </trkpt>
      <trkpt lat="43.36949" lon="6.15836">
        <ele>388.60000610352</ele>
        <time>2015-06-17T13:55:01Z</time>
      </trkpt>
      <trkpt lat="43.36948" lon="6.15835">
        <ele>388.79998779297</ele>
        <time>2015-06-17T13:55:02Z</time>
      </trkpt>
      <trkpt lat="43.36944" lon="6.15832">
        <ele>389</ele>
        <time>2015-06-17T13:55:04Z</time>
      </trkpt>
      <trkpt lat="43.3694" lon="6.15829">
        <ele>389</ele>
        <time>2015-06-17T13:55:06Z</time>
      </trkpt>
      <trkpt lat="43.36937" lon="6.15827">
        <ele>389</ele>
        <time>2015-06-17T13:55:08Z</time>
      </trkpt>
      <trkpt lat="43.36934" lon="6.15826">
        <ele>389.20001220703</ele>
        <time>2015-06-17T13:55:09Z</time>
      </trkpt>
      <trkpt lat="43.36931" lon="6.15826">
        <ele>389</ele>
        <time>2015-06-17T13:55:10Z</time>
      </trkpt>
      <trkpt lat="43.36926" lon="6.1583">
        <ele>388.79998779297</ele>
        <time>2015-06-17T13:55:12Z</time>
      </trkpt>
      <trkpt lat="43.36924" lon="6.15833">
        <ele>388.79998779297</ele>
        <time>2015-06-17T13:55:13Z</time>
      </trkpt>
      <trkpt lat="43.36923" lon="6.15836">
        <ele>388.60000610352</ele>
        <time>2015-06-17T13:55:14Z</time>
      </trkpt>
      <trkpt lat="43.36921" lon="6.15843">
        <ele>389</ele>
        <time>2015-06-17T13:55:16Z</time>
      </trkpt>
      <trkpt lat="43.36921" lon="6.15846">
        <ele>389.39999389648</ele>
        <time>2015-06-17T13:55:17Z</time>
      </trkpt>
      <trkpt lat="43.36921" lon="6.15849">
        <ele>389.60000610352</ele>
        <time>2015-06-17T13:55:18Z</time>
      </trkpt>
      <trkpt lat="43.36922" lon="6.15854">
        <ele>389.79998779297</ele>
        <time>2015-06-17T13:55:20Z</time>
      </trkpt>
      <trkpt lat="43.36923" lon="6.1586">
        <ele>390.39999389648</ele>
        <time>2015-06-17T13:55:22Z</time>
      </trkpt>
      <trkpt lat="43.36924" lon="6.15866">
        <ele>390.79998779297</ele>
        <time>2015-06-17T13:55:24Z</time>
      </trkpt>
      <trkpt lat="43.36925" lon="6.15872">
        <ele>391.39999389648</ele>
        <time>2015-06-17T13:55:26Z</time>
      </trkpt>
      <trkpt lat="43.36926" lon="6.15878">
        <ele>391.60000610352</ele>
        <time>2015-06-17T13:55:28Z</time>
      </trkpt>
      <trkpt lat="43.36927" lon="6.15883">
        <ele>391.39999389648</ele>
        <time>2015-06-17T13:55:30Z</time>
      </trkpt>
      <trkpt lat="43.36929" lon="6.15888">
        <ele>391.60000610352</ele>
        <time>2015-06-17T13:55:32Z</time>
      </trkpt>
      <trkpt lat="43.36929" lon="6.15891">
        <ele>391.79998779297</ele>
        <time>2015-06-17T13:55:33Z</time>
      </trkpt>
      <trkpt lat="43.3693" lon="6.15894">
        <ele>392</ele>
        <time>2015-06-17T13:55:34Z</time>
      </trkpt>
      <trkpt lat="43.36931" lon="6.15899">
        <ele>392.20001220703</ele>
        <time>2015-06-17T13:55:36Z</time>
      </trkpt>
      <trkpt lat="43.36932" lon="6.15902">
        <ele>392.39999389648</ele>
        <time>2015-06-17T13:55:37Z</time>
      </trkpt>
      <trkpt lat="43.36932" lon="6.15905">
        <ele>392.60000610352</ele>
        <time>2015-06-17T13:55:38Z</time>
      </trkpt>
      <trkpt lat="43.36934" lon="6.15911">
        <ele>392.60000610352</ele>
        <time>2015-06-17T13:55:40Z</time>
      </trkpt>
      <trkpt lat="43.36934" lon="6.15913">
        <ele>392.79998779297</ele>
        <time>2015-06-17T13:55:41Z</time>
      </trkpt>
      <trkpt lat="43.36935" lon="6.15916">
        <ele>392.79998779297</ele>
        <time>2015-06-17T13:55:42Z</time>
      </trkpt>
      <trkpt lat="43.36937" lon="6.15922">
        <ele>393.39999389648</ele>
        <time>2015-06-17T13:55:44Z</time>
      </trkpt>
      <trkpt lat="43.36937" lon="6.15928">
        <ele>393.60000610352</ele>
        <time>2015-06-17T13:55:46Z</time>
      </trkpt>
      <trkpt lat="43.36938" lon="6.15933">
        <ele>394</ele>
        <time>2015-06-17T13:55:48Z</time>
      </trkpt>
      <trkpt lat="43.36938" lon="6.15936">
        <ele>394.20001220703</ele>
        <time>2015-06-17T13:55:49Z</time>
      </trkpt>
      <trkpt lat="43.36939" lon="6.15939">
        <ele>394.39999389648</ele>
        <time>2015-06-17T13:55:50Z</time>
      </trkpt>
      <trkpt lat="43.36939" lon="6.15945">
        <ele>394.79998779297</ele>
        <time>2015-06-17T13:55:52Z</time>
      </trkpt>
      <trkpt lat="43.36938" lon="6.15951">
        <ele>395.20001220703</ele>
        <time>2015-06-17T13:55:54Z</time>
      </trkpt>
      <trkpt lat="43.36937" lon="6.15955">
        <ele>395.60000610352</ele>
        <time>2015-06-17T13:55:56Z</time>
      </trkpt>
      <trkpt lat="43.36936" lon="6.15958">
        <ele>395.79998779297</ele>
        <time>2015-06-17T13:55:57Z</time>
      </trkpt>
      <trkpt lat="43.36935" lon="6.15961">
        <ele>396.20001220703</ele>
        <time>2015-06-17T13:55:58Z</time>
      </trkpt>
      <trkpt lat="43.36933" lon="6.15966">
        <ele>396.39999389648</ele>
        <time>2015-06-17T13:56:00Z</time>
      </trkpt>
      <trkpt lat="43.3693" lon="6.15971">
        <ele>396.39999389648</ele>
        <time>2015-06-17T13:56:02Z</time>
      </trkpt>
      <trkpt lat="43.36928" lon="6.15975">
        <ele>396.39999389648</ele>
        <time>2015-06-17T13:56:04Z</time>
      </trkpt>
      <trkpt lat="43.36926" lon="6.1598">
        <ele>396.60000610352</ele>
        <time>2015-06-17T13:56:06Z</time>
      </trkpt>
      <trkpt lat="43.36925" lon="6.15982">
        <ele>396.79998779297</ele>
        <time>2015-06-17T13:56:07Z</time>
      </trkpt>
      <trkpt lat="43.36924" lon="6.15985">
        <ele>397</ele>
        <time>2015-06-17T13:56:08Z</time>
      </trkpt>
      <trkpt lat="43.36922" lon="6.15989">
        <ele>397</ele>
        <time>2015-06-17T13:56:10Z</time>
      </trkpt>
      <trkpt lat="43.3692" lon="6.15994">
        <ele>397.39999389648</ele>
        <time>2015-06-17T13:56:12Z</time>
      </trkpt>
      <trkpt lat="43.36918" lon="6.15999">
        <ele>397.79998779297</ele>
        <time>2015-06-17T13:56:14Z</time>
      </trkpt>
      <trkpt lat="43.36917" lon="6.16002">
        <ele>397.79998779297</ele>
        <time>2015-06-17T13:56:15Z</time>
      </trkpt>
      <trkpt lat="43.36916" lon="6.16004">
        <ele>398</ele>
        <time>2015-06-17T13:56:16Z</time>
      </trkpt>
      <trkpt lat="43.36915" lon="6.16009">
        <ele>398.20001220703</ele>
        <time>2015-06-17T13:56:18Z</time>
      </trkpt>
      <trkpt lat="43.36913" lon="6.16013">
        <ele>398.20001220703</ele>
        <time>2015-06-17T13:56:20Z</time>
      </trkpt>
      <trkpt lat="43.36911" lon="6.16016">
        <ele>398.39999389648</ele>
        <time>2015-06-17T13:56:22Z</time>
      </trkpt>
      <trkpt lat="43.36911" lon="6.16018">
        <ele>398.39999389648</ele>
        <time>2015-06-17T13:56:23Z</time>
      </trkpt>
      <trkpt lat="43.3691" lon="6.16019">
        <ele>398.39999389648</ele>
        <time>2015-06-17T13:56:24Z</time>
      </trkpt>
      <trkpt lat="43.36909" lon="6.16022">
        <ele>399</ele>
        <time>2015-06-17T13:56:26Z</time>
      </trkpt>
      <trkpt lat="43.36908" lon="6.16024">
        <ele>399</ele>
        <time>2015-06-17T13:56:28Z</time>
      </trkpt>
      <trkpt lat="43.36908" lon="6.16025">
        <ele>399</ele>
        <time>2015-06-17T13:56:29Z</time>
      </trkpt>
      <trkpt lat="43.36908" lon="6.16025">
        <ele>399.20001220703</ele>
        <time>2015-06-17T13:56:30Z</time>
      </trkpt>
      <trkpt lat="43.36908" lon="6.16025">
        <ele>399.20001220703</ele>
        <time>2015-06-17T13:56:32Z</time>
      </trkpt>
      <trkpt lat="43.36908" lon="6.16026">
        <ele>399</ele>
        <time>2015-06-17T13:56:34Z</time>
      </trkpt>
      <trkpt lat="43.36908" lon="6.16026">
        <ele>398.79998779297</ele>
        <time>2015-06-17T13:56:36Z</time>
      </trkpt>
      <trkpt lat="43.36908" lon="6.16026">
        <ele>398.79998779297</ele>
        <time>2015-06-17T13:56:38Z</time>
      </trkpt>
      <trkpt lat="43.36908" lon="6.16026">
        <ele>398.79998779297</ele>
        <time>2015-06-17T13:56:39Z</time>
      </trkpt>
      <trkpt lat="43.36908" lon="6.16026">
        <ele>398.79998779297</ele>
        <time>2015-06-17T13:56:40Z</time>
      </trkpt>
      <trkpt lat="43.36908" lon="6.16026">
        <ele>398.79998779297</ele>
        <time>2015-06-17T13:56:42Z</time>
      </trkpt>
      <trkpt lat="43.36908" lon="6.16026">
        <ele>399</ele>
        <time>2015-06-17T13:56:44Z</time>
      </trkpt>
      <trkpt lat="43.36908" lon="6.16026">
        <ele>398.79998779297</ele>
        <time>2015-06-17T13:56:46Z</time>
      </trkpt>
      <trkpt lat="43.36908" lon="6.16026">
        <ele>399</ele>
        <time>2015-06-17T13:56:48Z</time>
      </trkpt>
      <trkpt lat="43.36908" lon="6.16026">
        <ele>399</ele>
        <time>2015-06-17T13:56:50Z</time>
      </trkpt>
      <trkpt lat="43.36908" lon="6.16026">
        <ele>399</ele>
        <time>2015-06-17T13:56:52Z</time>
      </trkpt>
      <trkpt lat="43.36908" lon="6.16026">
        <ele>399</ele>
        <time>2015-06-17T13:56:54Z</time>
      </trkpt>
      <trkpt lat="43.36908" lon="6.16026">
        <ele>398.79998779297</ele>
        <time>2015-06-17T13:56:56Z</time>
      </trkpt>
      <trkpt lat="43.36908" lon="6.16026">
        <ele>398.79998779297</ele>
        <time>2015-06-17T13:56:58Z</time>
      </trkpt>
      <trkpt lat="43.36908" lon="6.16026">
        <ele>398.79998779297</ele>
        <time>2015-06-17T13:57:00Z</time>
      </trkpt>
      <trkpt lat="43.36908" lon="6.16026">
        <ele>398.79998779297</ele>
        <time>2015-06-17T13:57:02Z</time>
      </trkpt>
      <trkpt lat="43.36908" lon="6.16026">
        <ele>398.79998779297</ele>
        <time>2015-06-17T13:57:04Z</time>
      </trkpt>
      <trkpt lat="43.36908" lon="6.16026">
        <ele>399</ele>
        <time>2015-06-17T13:57:06Z</time>
      </trkpt>
      <trkpt lat="43.36908" lon="6.16026">
        <ele>399</ele>
        <time>2015-06-17T13:57:08Z</time>
      </trkpt>
      <trkpt lat="43.36908" lon="6.16026">
        <ele>399</ele>
        <time>2015-06-17T13:57:10Z</time>
      </trkpt>
      <trkpt lat="43.36908" lon="6.16026">
        <ele>399</ele>
        <time>2015-06-17T13:57:12Z</time>
      </trkpt>
      <trkpt lat="43.36908" lon="6.16026">
        <ele>399.20001220703</ele>
        <time>2015-06-17T13:57:14Z</time>
      </trkpt>
      <trkpt lat="43.36908" lon="6.16026">
        <ele>399</ele>
        <time>2015-06-17T13:57:16Z</time>
      </trkpt>
      <trkpt lat="43.36908" lon="6.16026">
        <ele>399</ele>
        <time>2015-06-17T13:57:18Z</time>
      </trkpt>
      <trkpt lat="43.36908" lon="6.16026">
        <ele>399</ele>
        <time>2015-06-17T13:57:20Z</time>
      </trkpt>
      <trkpt lat="43.36908" lon="6.16026">
        <ele>398.60000610352</ele>
        <time>2015-06-17T13:57:22Z</time>
      </trkpt>
      <trkpt lat="43.36908" lon="6.16026">
        <ele>398.60000610352</ele>
        <time>2015-06-17T13:57:23Z</time>
      </trkpt>
      <trkpt lat="43.36908" lon="6.16026">
        <ele>398.79998779297</ele>
        <time>2015-06-17T13:57:24Z</time>
      </trkpt>
      <trkpt lat="43.36908" lon="6.16026">
        <ele>398.60000610352</ele>
        <time>2015-06-17T13:57:26Z</time>
      </trkpt>
      <trkpt lat="43.36908" lon="6.16026">
        <ele>398.79998779297</ele>
        <time>2015-06-17T13:57:28Z</time>
      </trkpt>
      <trkpt lat="43.36908" lon="6.16026">
        <ele>398.79998779297</ele>
        <time>2015-06-17T13:57:30Z</time>
      </trkpt>
      <trkpt lat="43.36908" lon="6.16026">
        <ele>398.79998779297</ele>
        <time>2015-06-17T13:57:32Z</time>
      </trkpt>
      <trkpt lat="43.36908" lon="6.16026">
        <ele>398.60000610352</ele>
        <time>2015-06-17T13:57:34Z</time>
      </trkpt>
      <trkpt lat="43.36908" lon="6.16026">
        <ele>398.60000610352</ele>
        <time>2015-06-17T13:57:36Z</time>
      </trkpt>
      <trkpt lat="43.36908" lon="6.16026">
        <ele>398.79998779297</ele>
        <time>2015-06-17T13:57:38Z</time>
      </trkpt>
      <trkpt lat="43.36908" lon="6.16026">
        <ele>398.79998779297</ele>
        <time>2015-06-17T13:57:40Z</time>
      </trkpt>
      <trkpt lat="43.36908" lon="6.16026">
        <ele>398.79998779297</ele>
        <time>2015-06-17T13:57:42Z</time>
      </trkpt>
      <trkpt lat="43.36908" lon="6.16026">
        <ele>398.79998779297</ele>
        <time>2015-06-17T13:57:44Z</time>
      </trkpt>
      <trkpt lat="43.36908" lon="6.16026">
        <ele>399</ele>
        <time>2015-06-17T13:57:46Z</time>
      </trkpt>
      <trkpt lat="43.36908" lon="6.16026">
        <ele>399</ele>
        <time>2015-06-17T13:57:48Z</time>
      </trkpt>
      <trkpt lat="43.36908" lon="6.16026">
        <ele>399</ele>
        <time>2015-06-17T13:57:50Z</time>
      </trkpt>
      <trkpt lat="43.36908" lon="6.16026">
        <ele>399</ele>
        <time>2015-06-17T13:57:52Z</time>
      </trkpt>
      <trkpt lat="43.36908" lon="6.16026">
        <ele>398.79998779297</ele>
        <time>2015-06-17T13:57:53Z</time>
      </trkpt>
      <trkpt lat="43.36908" lon="6.16026">
        <ele>398.79998779297</ele>
        <time>2015-06-17T13:57:54Z</time>
      </trkpt>
      <trkpt lat="43.36908" lon="6.16026">
        <ele>399</ele>
        <time>2015-06-17T13:57:56Z</time>
      </trkpt>
      <trkpt lat="43.36908" lon="6.16026">
        <ele>398.79998779297</ele>
        <time>2015-06-17T13:57:58Z</time>
      </trkpt>
      <trkpt lat="43.36908" lon="6.16026">
        <ele>398.79998779297</ele>
        <time>2015-06-17T13:58:00Z</time>
      </trkpt>
      <trkpt lat="43.36908" lon="6.16026">
        <ele>398.79998779297</ele>
        <time>2015-06-17T13:58:02Z</time>
      </trkpt>
      <trkpt lat="43.36908" lon="6.16026">
        <ele>398.79998779297</ele>
        <time>2015-06-17T13:58:04Z</time>
      </trkpt>
      <trkpt lat="43.36908" lon="6.16026">
        <ele>398.79998779297</ele>
        <time>2015-06-17T13:58:06Z</time>
      </trkpt>
      <trkpt lat="43.36908" lon="6.16026">
        <ele>398.79998779297</ele>
        <time>2015-06-17T13:58:08Z</time>
      </trkpt>
      <trkpt lat="43.36908" lon="6.16026">
        <ele>398.79998779297</ele>
        <time>2015-06-17T13:58:10Z</time>
      </trkpt>
      <trkpt lat="43.36908" lon="6.16026">
        <ele>398.79998779297</ele>
        <time>2015-06-17T13:58:12Z</time>
      </trkpt>
      <trkpt lat="43.36908" lon="6.16026">
        <ele>398.79998779297</ele>
        <time>2015-06-17T13:58:13Z</time>
      </trkpt>
      <trkpt lat="43.36908" lon="6.16026">
        <ele>398.79998779297</ele>
        <time>2015-06-17T13:58:16Z</time>
      </trkpt>
      <trkpt lat="43.36908" lon="6.16026">
        <ele>398.79998779297</ele>
        <time>2015-06-17T13:58:18Z</time>
      </trkpt>
      <trkpt lat="43.36908" lon="6.16026">
        <ele>398.79998779297</ele>
        <time>2015-06-17T13:58:20Z</time>
      </trkpt>
      <trkpt lat="43.36908" lon="6.16026">
        <ele>398.79998779297</ele>
        <time>2015-06-17T13:58:22Z</time>
      </trkpt>
      <trkpt lat="43.36908" lon="6.16026">
        <ele>399</ele>
        <time>2015-06-17T13:58:24Z</time>
      </trkpt>
      <trkpt lat="43.36908" lon="6.16026">
        <ele>399</ele>
        <time>2015-06-17T13:58:26Z</time>
      </trkpt>
      <trkpt lat="43.36908" lon="6.16026">
        <ele>399</ele>
        <time>2015-06-17T13:58:28Z</time>
      </trkpt>
      <trkpt lat="43.36908" lon="6.16026">
        <ele>399.20001220703</ele>
        <time>2015-06-17T13:58:30Z</time>
      </trkpt>
      <trkpt lat="43.36908" lon="6.16026">
        <ele>399.20001220703</ele>
        <time>2015-06-17T13:58:32Z</time>
      </trkpt>
      <trkpt lat="43.36908" lon="6.16026">
        <ele>399.20001220703</ele>
        <time>2015-06-17T13:58:34Z</time>
      </trkpt>
      <trkpt lat="43.36908" lon="6.16026">
        <ele>399.39999389648</ele>
        <time>2015-06-17T13:58:36Z</time>
      </trkpt>
      <trkpt lat="43.36907" lon="6.16028">
        <ele>399.20001220703</ele>
        <time>2015-06-17T13:58:38Z</time>
      </trkpt>
      <trkpt lat="43.36906" lon="6.16032">
        <ele>399.20001220703</ele>
        <time>2015-06-17T13:58:40Z</time>
      </trkpt>
      <trkpt lat="43.36904" lon="6.16038">
        <ele>398.60000610352</ele>
        <time>2015-06-17T13:58:42Z</time>
      </trkpt>
      <trkpt lat="43.36902" lon="6.16044">
        <ele>399</ele>
        <time>2015-06-17T13:58:44Z</time>
      </trkpt>
      <trkpt lat="43.36901" lon="6.16047">
        <ele>399.20001220703</ele>
        <time>2015-06-17T13:58:45Z</time>
      </trkpt>
      <trkpt lat="43.369" lon="6.1605">
        <ele>399</ele>
        <time>2015-06-17T13:58:46Z</time>
      </trkpt>
      <trkpt lat="43.36899" lon="6.16055">
        <ele>399.39999389648</ele>
        <time>2015-06-17T13:58:48Z</time>
      </trkpt>
      <trkpt lat="43.36897" lon="6.16061">
        <ele>399.79998779297</ele>
        <time>2015-06-17T13:58:50Z</time>
      </trkpt>
      <trkpt lat="43.36896" lon="6.16066">
        <ele>400.39999389648</ele>
        <time>2015-06-17T13:58:52Z</time>
      </trkpt>
      <trkpt lat="43.36895" lon="6.16071">
        <ele>400.60000610352</ele>
        <time>2015-06-17T13:58:54Z</time>
      </trkpt>
      <trkpt lat="43.36893" lon="6.16076">
        <ele>400.79998779297</ele>
        <time>2015-06-17T13:58:56Z</time>
      </trkpt>
      <trkpt lat="43.36892" lon="6.16081">
        <ele>401.60000610352</ele>
        <time>2015-06-17T13:58:58Z</time>
      </trkpt>
      <trkpt lat="43.36891" lon="6.16086">
        <ele>401.79998779297</ele>
        <time>2015-06-17T13:59:00Z</time>
      </trkpt>
      <trkpt lat="43.3689" lon="6.16091">
        <ele>401.79998779297</ele>
        <time>2015-06-17T13:59:02Z</time>
      </trkpt>
      <trkpt lat="43.3689" lon="6.16093">
        <ele>402</ele>
        <time>2015-06-17T13:59:03Z</time>
      </trkpt>
      <trkpt lat="43.36889" lon="6.16095">
        <ele>402.20001220703</ele>
        <time>2015-06-17T13:59:04Z</time>
      </trkpt>
      <trkpt lat="43.36887" lon="6.161">
        <ele>402.39999389648</ele>
        <time>2015-06-17T13:59:06Z</time>
      </trkpt>
      <trkpt lat="43.36886" lon="6.16105">
        <ele>402.79998779297</ele>
        <time>2015-06-17T13:59:08Z</time>
      </trkpt>
      <trkpt lat="43.36885" lon="6.1611">
        <ele>402.79998779297</ele>
        <time>2015-06-17T13:59:10Z</time>
      </trkpt>
      <trkpt lat="43.36884" lon="6.16115">
        <ele>403</ele>
        <time>2015-06-17T13:59:12Z</time>
      </trkpt>
      <trkpt lat="43.36882" lon="6.1612">
        <ele>403.79998779297</ele>
        <time>2015-06-17T13:59:14Z</time>
      </trkpt>
      <trkpt lat="43.36881" lon="6.16125">
        <ele>404</ele>
        <time>2015-06-17T13:59:16Z</time>
      </trkpt>
      <trkpt lat="43.3688" lon="6.16131">
        <ele>404</ele>
        <time>2015-06-17T13:59:18Z</time>
      </trkpt>
      <trkpt lat="43.36879" lon="6.16135">
        <ele>404.20001220703</ele>
        <time>2015-06-17T13:59:20Z</time>
      </trkpt>
      <trkpt lat="43.36878" lon="6.16141">
        <ele>404.20001220703</ele>
        <time>2015-06-17T13:59:22Z</time>
      </trkpt>
      <trkpt lat="43.36877" lon="6.16146">
        <ele>404.39999389648</ele>
        <time>2015-06-17T13:59:24Z</time>
      </trkpt>
      <trkpt lat="43.36876" lon="6.16148">
        <ele>404.60000610352</ele>
        <time>2015-06-17T13:59:25Z</time>
      </trkpt>
      <trkpt lat="43.36876" lon="6.16151">
        <ele>404.79998779297</ele>
        <time>2015-06-17T13:59:26Z</time>
      </trkpt>
      <trkpt lat="43.36875" lon="6.16153">
        <ele>405</ele>
        <time>2015-06-17T13:59:27Z</time>
      </trkpt>
      <trkpt lat="43.36874" lon="6.16156">
        <ele>405.20001220703</ele>
        <time>2015-06-17T13:59:28Z</time>
      </trkpt>
      <trkpt lat="43.36873" lon="6.16161">
        <ele>405.39999389648</ele>
        <time>2015-06-17T13:59:30Z</time>
      </trkpt>
      <trkpt lat="43.36871" lon="6.16165">
        <ele>405.39999389648</ele>
        <time>2015-06-17T13:59:32Z</time>
      </trkpt>
      <trkpt lat="43.3687" lon="6.16169">
        <ele>405.79998779297</ele>
        <time>2015-06-17T13:59:34Z</time>
      </trkpt>
      <trkpt lat="43.36869" lon="6.16171">
        <ele>406</ele>
        <time>2015-06-17T13:59:35Z</time>
      </trkpt>
      <trkpt lat="43.36868" lon="6.16173">
        <ele>406.20001220703</ele>
        <time>2015-06-17T13:59:36Z</time>
      </trkpt>
      <trkpt lat="43.36866" lon="6.16176">
        <ele>406.39999389648</ele>
        <time>2015-06-17T13:59:38Z</time>
      </trkpt>
      <trkpt lat="43.36863" lon="6.16179">
        <ele>406.60000610352</ele>
        <time>2015-06-17T13:59:40Z</time>
      </trkpt>
      <trkpt lat="43.36861" lon="6.1618">
        <ele>406.79998779297</ele>
        <time>2015-06-17T13:59:41Z</time>
      </trkpt>
      <trkpt lat="43.3686" lon="6.16182">
        <ele>407</ele>
        <time>2015-06-17T13:59:42Z</time>
      </trkpt>
      <trkpt lat="43.36857" lon="6.16184">
        <ele>407.20001220703</ele>
        <time>2015-06-17T13:59:44Z</time>
      </trkpt>
      <trkpt lat="43.36853" lon="6.16184">
        <ele>407.60000610352</ele>
        <time>2015-06-17T13:59:46Z</time>
      </trkpt>
      <trkpt lat="43.36852" lon="6.16184">
        <ele>407.39999389648</ele>
        <time>2015-06-17T13:59:47Z</time>
      </trkpt>
      <trkpt lat="43.3685" lon="6.16185">
        <ele>407.20001220703</ele>
        <time>2015-06-17T13:59:48Z</time>
      </trkpt>
      <trkpt lat="43.36847" lon="6.16186">
        <ele>407.20001220703</ele>
        <time>2015-06-17T13:59:50Z</time>
      </trkpt>
      <trkpt lat="43.36845" lon="6.16188">
        <ele>407.20001220703</ele>
        <time>2015-06-17T13:59:51Z</time>
      </trkpt>
      <trkpt lat="43.36845" lon="6.16191">
        <ele>407.20001220703</ele>
        <time>2015-06-17T13:59:52Z</time>
      </trkpt>
      <trkpt lat="43.36845" lon="6.16194">
        <ele>407.20001220703</ele>
        <time>2015-06-17T13:59:53Z</time>
      </trkpt>
      <trkpt lat="43.36847" lon="6.16198">
        <ele>407</ele>
        <time>2015-06-17T13:59:54Z</time>
      </trkpt>
      <trkpt lat="43.36851" lon="6.16203">
        <ele>406.39999389648</ele>
        <time>2015-06-17T13:59:56Z</time>
      </trkpt>
      <trkpt lat="43.36855" lon="6.16206">
        <ele>406.39999389648</ele>
        <time>2015-06-17T13:59:58Z</time>
      </trkpt>
      <trkpt lat="43.36858" lon="6.16207">
        <ele>406.60000610352</ele>
        <time>2015-06-17T14:00:00Z</time>
      </trkpt>
      <trkpt lat="43.36861" lon="6.16207">
        <ele>406.79998779297</ele>
        <time>2015-06-17T14:00:02Z</time>
      </trkpt>
      <trkpt lat="43.36863" lon="6.16206">
        <ele>407</ele>
        <time>2015-06-17T14:00:03Z</time>
      </trkpt>
      <trkpt lat="43.36864" lon="6.16205">
        <ele>407</ele>
        <time>2015-06-17T14:00:04Z</time>
      </trkpt>
      <trkpt lat="43.36866" lon="6.16202">
        <ele>406.79998779297</ele>
        <time>2015-06-17T14:00:06Z</time>
      </trkpt>
      <trkpt lat="43.36867" lon="6.16199">
        <ele>406.60000610352</ele>
        <time>2015-06-17T14:00:08Z</time>
      </trkpt>
      <trkpt lat="43.36868" lon="6.16196">
        <ele>406.39999389648</ele>
        <time>2015-06-17T14:00:10Z</time>
      </trkpt>
      <trkpt lat="43.36869" lon="6.16193">
        <ele>406.20001220703</ele>
        <time>2015-06-17T14:00:12Z</time>
      </trkpt>
      <trkpt lat="43.36871" lon="6.16191">
        <ele>406.20001220703</ele>
        <time>2015-06-17T14:00:14Z</time>
      </trkpt>
      <trkpt lat="43.36872" lon="6.16187">
        <ele>406.20001220703</ele>
        <time>2015-06-17T14:00:16Z</time>
      </trkpt>
      <trkpt lat="43.36874" lon="6.16184">
        <ele>405.60000610352</ele>
        <time>2015-06-17T14:00:18Z</time>
      </trkpt>
      <trkpt lat="43.36877" lon="6.16181">
        <ele>405</ele>
        <time>2015-06-17T14:00:20Z</time>
      </trkpt>
      <trkpt lat="43.36878" lon="6.16178">
        <ele>404.60000610352</ele>
        <time>2015-06-17T14:00:21Z</time>
      </trkpt>
      <trkpt lat="43.36879" lon="6.16176">
        <ele>404.39999389648</ele>
        <time>2015-06-17T14:00:22Z</time>
      </trkpt>
      <trkpt lat="43.3688" lon="6.16172">
        <ele>403.60000610352</ele>
        <time>2015-06-17T14:00:24Z</time>
      </trkpt>
      <trkpt lat="43.36884" lon="6.16166">
        <ele>403.79998779297</ele>
        <time>2015-06-17T14:00:26Z</time>
      </trkpt>
      <trkpt lat="43.36887" lon="6.16159">
        <ele>402.79998779297</ele>
        <time>2015-06-17T14:00:28Z</time>
      </trkpt>
      <trkpt lat="43.3689" lon="6.16149">
        <ele>401.20001220703</ele>
        <time>2015-06-17T14:00:30Z</time>
      </trkpt>
      <trkpt lat="43.36893" lon="6.16138">
        <ele>399.79998779297</ele>
        <time>2015-06-17T14:00:32Z</time>
      </trkpt>
      <trkpt lat="43.36895" lon="6.16133">
        <ele>400</ele>
        <time>2015-06-17T14:00:33Z</time>
      </trkpt>
      <trkpt lat="43.36897" lon="6.16128">
        <ele>398.79998779297</ele>
        <time>2015-06-17T14:00:34Z</time>
      </trkpt>
      <trkpt lat="43.36899" lon="6.16123">
        <ele>398.39999389648</ele>
        <time>2015-06-17T14:00:35Z</time>
      </trkpt>
      <trkpt lat="43.369" lon="6.16119">
        <ele>398.39999389648</ele>
        <time>2015-06-17T14:00:36Z</time>
      </trkpt>
      <trkpt lat="43.36905" lon="6.16113">
        <ele>397.79998779297</ele>
        <time>2015-06-17T14:00:38Z</time>
      </trkpt>
      <trkpt lat="43.36908" lon="6.1611">
        <ele>396.79998779297</ele>
        <time>2015-06-17T14:00:39Z</time>
      </trkpt>
      <trkpt lat="43.36911" lon="6.16107">
        <ele>395.20001220703</ele>
        <time>2015-06-17T14:00:40Z</time>
      </trkpt>
      <trkpt lat="43.36917" lon="6.16101">
        <ele>393.79998779297</ele>
        <time>2015-06-17T14:00:42Z</time>
      </trkpt>
      <trkpt lat="43.36919" lon="6.16098">
        <ele>392.79998779297</ele>
        <time>2015-06-17T14:00:43Z</time>
      </trkpt>
      <trkpt lat="43.36922" lon="6.16095">
        <ele>392</ele>
        <time>2015-06-17T14:00:44Z</time>
      </trkpt>
      <trkpt lat="43.36924" lon="6.16092">
        <ele>391.39999389648</ele>
        <time>2015-06-17T14:00:45Z</time>
      </trkpt>
      <trkpt lat="43.36927" lon="6.16089">
        <ele>390.60000610352</ele>
        <time>2015-06-17T14:00:46Z</time>
      </trkpt>
      <trkpt lat="43.36929" lon="6.16085">
        <ele>390</ele>
        <time>2015-06-17T14:00:47Z</time>
      </trkpt>
      <trkpt lat="43.36931" lon="6.16082">
        <ele>389.20001220703</ele>
        <time>2015-06-17T14:00:48Z</time>
      </trkpt>
      <trkpt lat="43.36933" lon="6.16077">
        <ele>388.79998779297</ele>
        <time>2015-06-17T14:00:49Z</time>
      </trkpt>
      <trkpt lat="43.36934" lon="6.16071">
        <ele>388</ele>
        <time>2015-06-17T14:00:50Z</time>
      </trkpt>
      <trkpt lat="43.36935" lon="6.16065">
        <ele>387.60000610352</ele>
        <time>2015-06-17T14:00:51Z</time>
      </trkpt>
      <trkpt lat="43.36937" lon="6.16061">
        <ele>387.39999389648</ele>
        <time>2015-06-17T14:00:52Z</time>
      </trkpt>
      <trkpt lat="43.36942" lon="6.16051">
        <ele>386.79998779297</ele>
        <time>2015-06-17T14:00:54Z</time>
      </trkpt>
      <trkpt lat="43.36944" lon="6.16045">
        <ele>386.39999389648</ele>
        <time>2015-06-17T14:00:55Z</time>
      </trkpt>
      <trkpt lat="43.36947" lon="6.16043">
        <ele>386.39999389648</ele>
        <time>2015-06-17T14:00:56Z</time>
      </trkpt>
      <trkpt lat="43.36953" lon="6.16042">
        <ele>386</ele>
        <time>2015-06-17T14:00:58Z</time>
      </trkpt>
      <trkpt lat="43.36956" lon="6.16042">
        <ele>385.79998779297</ele>
        <time>2015-06-17T14:00:59Z</time>
      </trkpt>
      <trkpt lat="43.36959" lon="6.16042">
        <ele>385.39999389648</ele>
        <time>2015-06-17T14:01:00Z</time>
      </trkpt>
      <trkpt lat="43.36961" lon="6.1604">
        <ele>385</ele>
        <time>2015-06-17T14:01:01Z</time>
      </trkpt>
      <trkpt lat="43.36963" lon="6.16039">
        <ele>384.60000610352</ele>
        <time>2015-06-17T14:01:02Z</time>
      </trkpt>
      <trkpt lat="43.3697" lon="6.16035">
        <ele>383.79998779297</ele>
        <time>2015-06-17T14:01:04Z</time>
      </trkpt>
      <trkpt lat="43.36978" lon="6.16031">
        <ele>384</ele>
        <time>2015-06-17T14:01:06Z</time>
      </trkpt>
      <trkpt lat="43.36986" lon="6.16029">
        <ele>383.20001220703</ele>
        <time>2015-06-17T14:01:08Z</time>
      </trkpt>
      <trkpt lat="43.36989" lon="6.16028">
        <ele>382.60000610352</ele>
        <time>2015-06-17T14:01:09Z</time>
      </trkpt>
      <trkpt lat="43.36993" lon="6.16028">
        <ele>382.39999389648</ele>
        <time>2015-06-17T14:01:10Z</time>
      </trkpt>
      <trkpt lat="43.36999" lon="6.16026">
        <ele>381.60000610352</ele>
        <time>2015-06-17T14:01:12Z</time>
      </trkpt>
      <trkpt lat="43.37005" lon="6.16023">
        <ele>381.60000610352</ele>
        <time>2015-06-17T14:01:14Z</time>
      </trkpt>
      <trkpt lat="43.37009" lon="6.16022">
        <ele>381.39999389648</ele>
        <time>2015-06-17T14:01:15Z</time>
      </trkpt>
      <trkpt lat="43.37011" lon="6.1602">
        <ele>381.20001220703</ele>
        <time>2015-06-17T14:01:16Z</time>
      </trkpt>
      <trkpt lat="43.37016" lon="6.16019">
        <ele>379.79998779297</ele>
        <time>2015-06-17T14:01:18Z</time>
      </trkpt>
      <trkpt lat="43.37019" lon="6.16017">
        <ele>379.39999389648</ele>
        <time>2015-06-17T14:01:20Z</time>
      </trkpt>
      <trkpt lat="43.37023" lon="6.16017">
        <ele>378.79998779297</ele>
        <time>2015-06-17T14:01:22Z</time>
      </trkpt>
      <trkpt lat="43.37025" lon="6.16017">
        <ele>378.79998779297</ele>
        <time>2015-06-17T14:01:23Z</time>
      </trkpt>
      <trkpt lat="43.37027" lon="6.16017">
        <ele>378.79998779297</ele>
        <time>2015-06-17T14:01:24Z</time>
      </trkpt>
      <trkpt lat="43.37031" lon="6.16018">
        <ele>378.79998779297</ele>
        <time>2015-06-17T14:01:26Z</time>
      </trkpt>
      <trkpt lat="43.37037" lon="6.16017">
        <ele>378.39999389648</ele>
        <time>2015-06-17T14:01:28Z</time>
      </trkpt>
      <trkpt lat="43.37041" lon="6.16017">
        <ele>378.20001220703</ele>
        <time>2015-06-17T14:01:30Z</time>
      </trkpt>
      <trkpt lat="43.37046" lon="6.16018">
        <ele>378.60000610352</ele>
        <time>2015-06-17T14:01:32Z</time>
      </trkpt>
      <trkpt lat="43.3705" lon="6.16019">
        <ele>378.39999389648</ele>
        <time>2015-06-17T14:01:34Z</time>
      </trkpt>
      <trkpt lat="43.37055" lon="6.1602">
        <ele>378.20001220703</ele>
        <time>2015-06-17T14:01:36Z</time>
      </trkpt>
      <trkpt lat="43.3706" lon="6.16021">
        <ele>378.39999389648</ele>
        <time>2015-06-17T14:01:38Z</time>
      </trkpt>
      <trkpt lat="43.37062" lon="6.16022">
        <ele>378.39999389648</ele>
        <time>2015-06-17T14:01:39Z</time>
      </trkpt>
      <trkpt lat="43.37062" lon="6.16025">
        <ele>378.60000610352</ele>
        <time>2015-06-17T14:01:40Z</time>
      </trkpt>
      <trkpt lat="43.37064" lon="6.16028">
        <ele>378.79998779297</ele>
        <time>2015-06-17T14:01:42Z</time>
      </trkpt>
      <trkpt lat="43.37066" lon="6.1603">
        <ele>378.60000610352</ele>
        <time>2015-06-17T14:01:43Z</time>
      </trkpt>
      <trkpt lat="43.37066" lon="6.1603">
        <ele>378.60000610352</ele>
        <time>2015-06-17T14:01:44Z</time>
      </trkpt>
      <trkpt lat="43.37067" lon="6.16031">
        <ele>378.39999389648</ele>
        <time>2015-06-17T14:01:46Z</time>
      </trkpt>
      <trkpt lat="43.37068" lon="6.16031">
        <ele>378.39999389648</ele>
        <time>2015-06-17T14:01:48Z</time>
      </trkpt>
      <trkpt lat="43.37068" lon="6.16031">
        <ele>378.39999389648</ele>
        <time>2015-06-17T14:01:50Z</time>
      </trkpt>
      <trkpt lat="43.37068" lon="6.16031">
        <ele>378.20001220703</ele>
        <time>2015-06-17T14:01:52Z</time>
      </trkpt>
      <trkpt lat="43.37068" lon="6.16031">
        <ele>378</ele>
        <time>2015-06-17T14:01:54Z</time>
      </trkpt>
      <trkpt lat="43.37068" lon="6.16031">
        <ele>378.20001220703</ele>
        <time>2015-06-17T14:01:56Z</time>
      </trkpt>
      <trkpt lat="43.37068" lon="6.16031">
        <ele>378.39999389648</ele>
        <time>2015-06-17T14:01:58Z</time>
      </trkpt>
      <trkpt lat="43.37068" lon="6.16031">
        <ele>378.39999389648</ele>
        <time>2015-06-17T14:02:00Z</time>
      </trkpt>
      <trkpt lat="43.37068" lon="6.16031">
        <ele>378.20001220703</ele>
        <time>2015-06-17T14:02:01Z</time>
      </trkpt>
      <trkpt lat="43.37068" lon="6.16031">
        <ele>378.39999389648</ele>
        <time>2015-06-17T14:02:02Z</time>
      </trkpt>
      <trkpt lat="43.37068" lon="6.16031">
        <ele>378.39999389648</ele>
        <time>2015-06-17T14:02:04Z</time>
      </trkpt>
      <trkpt lat="43.37068" lon="6.16031">
        <ele>378.39999389648</ele>
        <time>2015-06-17T14:02:06Z</time>
      </trkpt>
      <trkpt lat="43.37068" lon="6.16031">
        <ele>378.39999389648</ele>
        <time>2015-06-17T14:02:08Z</time>
      </trkpt>
      <trkpt lat="43.37068" lon="6.16031">
        <ele>378.20001220703</ele>
        <time>2015-06-17T14:02:10Z</time>
      </trkpt>
      <trkpt lat="43.37068" lon="6.16031">
        <ele>378.20001220703</ele>
        <time>2015-06-17T14:02:12Z</time>
      </trkpt>
      <trkpt lat="43.37068" lon="6.1603">
        <ele>378.39999389648</ele>
        <time>2015-06-17T14:02:14Z</time>
      </trkpt>
      <trkpt lat="43.37068" lon="6.1603">
        <ele>378.39999389648</ele>
        <time>2015-06-17T14:02:16Z</time>
      </trkpt>
      <trkpt lat="43.37068" lon="6.16031">
        <ele>378.39999389648</ele>
        <time>2015-06-17T14:02:18Z</time>
      </trkpt>
      <trkpt lat="43.37068" lon="6.16031">
        <ele>378.39999389648</ele>
        <time>2015-06-17T14:02:20Z</time>
      </trkpt>
      <trkpt lat="43.37068" lon="6.16031">
        <ele>378.39999389648</ele>
        <time>2015-06-17T14:02:22Z</time>
      </trkpt>
      <trkpt lat="43.37068" lon="6.16031">
        <ele>378.20001220703</ele>
        <time>2015-06-17T14:02:24Z</time>
      </trkpt>
      <trkpt lat="43.37068" lon="6.16031">
        <ele>378.39999389648</ele>
        <time>2015-06-17T14:02:26Z</time>
      </trkpt>
      <trkpt lat="43.3707" lon="6.16033">
        <ele>378.20001220703</ele>
        <time>2015-06-17T14:02:28Z</time>
      </trkpt>
      <trkpt lat="43.37072" lon="6.16035">
        <ele>378</ele>
        <time>2015-06-17T14:02:29Z</time>
      </trkpt>
      <trkpt lat="43.37074" lon="6.16038">
        <ele>377.79998779297</ele>
        <time>2015-06-17T14:02:30Z</time>
      </trkpt>
      <trkpt lat="43.37079" lon="6.16042">
        <ele>377.60000610352</ele>
        <time>2015-06-17T14:02:32Z</time>
      </trkpt>
      <trkpt lat="43.37081" lon="6.16043">
        <ele>377.20001220703</ele>
        <time>2015-06-17T14:02:33Z</time>
      </trkpt>
      <trkpt lat="43.37082" lon="6.16043">
        <ele>376.60000610352</ele>
        <time>2015-06-17T14:02:34Z</time>
      </trkpt>
      <trkpt lat="43.37086" lon="6.16042">
        <ele>375.79998779297</ele>
        <time>2015-06-17T14:02:36Z</time>
      </trkpt>
      <trkpt lat="43.37092" lon="6.1604">
        <ele>375.20001220703</ele>
        <time>2015-06-17T14:02:38Z</time>
      </trkpt>
      <trkpt lat="43.37095" lon="6.1604">
        <ele>374.20001220703</ele>
        <time>2015-06-17T14:02:39Z</time>
      </trkpt>
      <trkpt lat="43.37098" lon="6.16042">
        <ele>373.60000610352</ele>
        <time>2015-06-17T14:02:40Z</time>
      </trkpt>
      <trkpt lat="43.37103" lon="6.16046">
        <ele>373.79998779297</ele>
        <time>2015-06-17T14:02:42Z</time>
      </trkpt>
      <trkpt lat="43.37111" lon="6.16048">
        <ele>373.39999389648</ele>
        <time>2015-06-17T14:02:44Z</time>
      </trkpt>
      <trkpt lat="43.37114" lon="6.16051">
        <ele>373</ele>
        <time>2015-06-17T14:02:45Z</time>
      </trkpt>
      <trkpt lat="43.37119" lon="6.16052">
        <ele>372.60000610352</ele>
        <time>2015-06-17T14:02:46Z</time>
      </trkpt>
      <trkpt lat="43.37125" lon="6.16051">
        <ele>371.20001220703</ele>
        <time>2015-06-17T14:02:48Z</time>
      </trkpt>
      <trkpt lat="43.37133" lon="6.16054">
        <ele>370.20001220703</ele>
        <time>2015-06-17T14:02:50Z</time>
      </trkpt>
      <trkpt lat="43.37138" lon="6.16055">
        <ele>370</ele>
        <time>2015-06-17T14:02:51Z</time>
      </trkpt>
      <trkpt lat="43.37142" lon="6.16057">
        <ele>369.39999389648</ele>
        <time>2015-06-17T14:02:52Z</time>
      </trkpt>
      <trkpt lat="43.37146" lon="6.16059">
        <ele>368.60000610352</ele>
        <time>2015-06-17T14:02:53Z</time>
      </trkpt>
      <trkpt lat="43.37149" lon="6.16061">
        <ele>368</ele>
        <time>2015-06-17T14:02:54Z</time>
      </trkpt>
      <trkpt lat="43.37155" lon="6.16067">
        <ele>367.60000610352</ele>
        <time>2015-06-17T14:02:56Z</time>
      </trkpt>
      <trkpt lat="43.37157" lon="6.16068">
        <ele>367.60000610352</ele>
        <time>2015-06-17T14:02:57Z</time>
      </trkpt>
      <trkpt lat="43.37159" lon="6.16065">
        <ele>367</ele>
        <time>2015-06-17T14:02:58Z</time>
      </trkpt>
      <trkpt lat="43.37162" lon="6.16063">
        <ele>366.39999389648</ele>
        <time>2015-06-17T14:02:59Z</time>
      </trkpt>
      <trkpt lat="43.37166" lon="6.16061">
        <ele>366</ele>
        <time>2015-06-17T14:03:00Z</time>
      </trkpt>
      <trkpt lat="43.37174" lon="6.16055">
        <ele>365.60000610352</ele>
        <time>2015-06-17T14:03:02Z</time>
      </trkpt>
      <trkpt lat="43.37178" lon="6.16053">
        <ele>365.39999389648</ele>
        <time>2015-06-17T14:03:03Z</time>
      </trkpt>
      <trkpt lat="43.37182" lon="6.16052">
        <ele>365.79998779297</ele>
        <time>2015-06-17T14:03:04Z</time>
      </trkpt>
      <trkpt lat="43.37189" lon="6.1605">
        <ele>364.39999389648</ele>
        <time>2015-06-17T14:03:06Z</time>
      </trkpt>
      <trkpt lat="43.37193" lon="6.1605">
        <ele>363.79998779297</ele>
        <time>2015-06-17T14:03:07Z</time>
      </trkpt>
      <trkpt lat="43.37196" lon="6.16052">
        <ele>363.79998779297</ele>
        <time>2015-06-17T14:03:08Z</time>
      </trkpt>
      <trkpt lat="43.37199" lon="6.16053">
        <ele>363.39999389648</ele>
        <time>2015-06-17T14:03:09Z</time>
      </trkpt>
      <trkpt lat="43.37202" lon="6.16054">
        <ele>363.39999389648</ele>
        <time>2015-06-17T14:03:10Z</time>
      </trkpt>
      <trkpt lat="43.37205" lon="6.16055">
        <ele>363.60000610352</ele>
        <time>2015-06-17T14:03:11Z</time>
      </trkpt>
      <trkpt lat="43.37207" lon="6.16055">
        <ele>363.79998779297</ele>
        <time>2015-06-17T14:03:12Z</time>
      </trkpt>
      <trkpt lat="43.37213" lon="6.16055">
        <ele>363.60000610352</ele>
        <time>2015-06-17T14:03:14Z</time>
      </trkpt>
      <trkpt lat="43.37218" lon="6.16057">
        <ele>363.60000610352</ele>
        <time>2015-06-17T14:03:16Z</time>
      </trkpt>
      <trkpt lat="43.37224" lon="6.16059">
        <ele>363.39999389648</ele>
        <time>2015-06-17T14:03:18Z</time>
      </trkpt>
      <trkpt lat="43.37226" lon="6.16061">
        <ele>363.60000610352</ele>
        <time>2015-06-17T14:03:19Z</time>
      </trkpt>
      <trkpt lat="43.37229" lon="6.16062">
        <ele>364</ele>
        <time>2015-06-17T14:03:20Z</time>
      </trkpt>
      <trkpt lat="43.37233" lon="6.16063">
        <ele>363.39999389648</ele>
        <time>2015-06-17T14:03:22Z</time>
      </trkpt>
      <trkpt lat="43.37237" lon="6.16063">
        <ele>362.79998779297</ele>
        <time>2015-06-17T14:03:24Z</time>
      </trkpt>
      <trkpt lat="43.3724" lon="6.16064">
        <ele>362.79998779297</ele>
        <time>2015-06-17T14:03:25Z</time>
      </trkpt>
      <trkpt lat="43.37242" lon="6.16065">
        <ele>362.79998779297</ele>
        <time>2015-06-17T14:03:26Z</time>
      </trkpt>
      <trkpt lat="43.37245" lon="6.16067">
        <ele>363.20001220703</ele>
        <time>2015-06-17T14:03:28Z</time>
      </trkpt>
      <trkpt lat="43.37249" lon="6.16069">
        <ele>363.20001220703</ele>
        <time>2015-06-17T14:03:30Z</time>
      </trkpt>
      <trkpt lat="43.37251" lon="6.1607">
        <ele>363.20001220703</ele>
        <time>2015-06-17T14:03:31Z</time>
      </trkpt>
      <trkpt lat="43.37254" lon="6.1607">
        <ele>363</ele>
        <time>2015-06-17T14:03:32Z</time>
      </trkpt>
      <trkpt lat="43.37262" lon="6.1607">
        <ele>363.20001220703</ele>
        <time>2015-06-17T14:03:34Z</time>
      </trkpt>
      <trkpt lat="43.37265" lon="6.16071">
        <ele>362.79998779297</ele>
        <time>2015-06-17T14:03:35Z</time>
      </trkpt>
      <trkpt lat="43.37269" lon="6.16071">
        <ele>362.79998779297</ele>
        <time>2015-06-17T14:03:36Z</time>
      </trkpt>
      <trkpt lat="43.37275" lon="6.16072">
        <ele>362.39999389648</ele>
        <time>2015-06-17T14:03:38Z</time>
      </trkpt>
      <trkpt lat="43.37281" lon="6.16072">
        <ele>362</ele>
        <time>2015-06-17T14:03:40Z</time>
      </trkpt>
      <trkpt lat="43.37288" lon="6.16069">
        <ele>361.39999389648</ele>
        <time>2015-06-17T14:03:42Z</time>
      </trkpt>
      <trkpt lat="43.37293" lon="6.16068">
        <ele>361.20001220703</ele>
        <time>2015-06-17T14:03:43Z</time>
      </trkpt>
      <trkpt lat="43.37296" lon="6.16067">
        <ele>361.20001220703</ele>
        <time>2015-06-17T14:03:44Z</time>
      </trkpt>
      <trkpt lat="43.373" lon="6.16066">
        <ele>360.60000610352</ele>
        <time>2015-06-17T14:03:46Z</time>
      </trkpt>
      <trkpt lat="43.373" lon="6.16065">
        <ele>360.60000610352</ele>
        <time>2015-06-17T14:03:47Z</time>
      </trkpt>
      <trkpt lat="43.373" lon="6.16066">
        <ele>360.39999389648</ele>
        <time>2015-06-17T14:03:48Z</time>
      </trkpt>
      <trkpt lat="43.37301" lon="6.16065">
        <ele>360.39999389648</ele>
        <time>2015-06-17T14:03:50Z</time>
      </trkpt>
      <trkpt lat="43.37301" lon="6.16066">
        <ele>360.20001220703</ele>
        <time>2015-06-17T14:03:52Z</time>
      </trkpt>
      <trkpt lat="43.37303" lon="6.16066">
        <ele>360.20001220703</ele>
        <time>2015-06-17T14:03:53Z</time>
      </trkpt>
      <trkpt lat="43.37305" lon="6.16066">
        <ele>360.20001220703</ele>
        <time>2015-06-17T14:03:54Z</time>
      </trkpt>
      <trkpt lat="43.3731" lon="6.16067">
        <ele>359</ele>
        <time>2015-06-17T14:03:56Z</time>
      </trkpt>
      <trkpt lat="43.37317" lon="6.16068">
        <ele>359.79998779297</ele>
        <time>2015-06-17T14:03:58Z</time>
      </trkpt>
      <trkpt lat="43.3732" lon="6.16069">
        <ele>360</ele>
        <time>2015-06-17T14:03:59Z</time>
      </trkpt>
      <trkpt lat="43.37323" lon="6.1607">
        <ele>359.60000610352</ele>
        <time>2015-06-17T14:04:00Z</time>
      </trkpt>
      <trkpt lat="43.37329" lon="6.16072">
        <ele>358.79998779297</ele>
        <time>2015-06-17T14:04:02Z</time>
      </trkpt>
      <trkpt lat="43.37336" lon="6.16074">
        <ele>358.60000610352</ele>
        <time>2015-06-17T14:04:04Z</time>
      </trkpt>
      <trkpt lat="43.37342" lon="6.16076">
        <ele>358.60000610352</ele>
        <time>2015-06-17T14:04:06Z</time>
      </trkpt>
      <trkpt lat="43.3735" lon="6.16077">
        <ele>358</ele>
        <time>2015-06-17T14:04:08Z</time>
      </trkpt>
      <trkpt lat="43.37361" lon="6.1608">
        <ele>356.60000610352</ele>
        <time>2015-06-17T14:04:10Z</time>
      </trkpt>
      <trkpt lat="43.3737" lon="6.16083">
        <ele>356.20001220703</ele>
        <time>2015-06-17T14:04:12Z</time>
      </trkpt>
      <trkpt lat="43.37374" lon="6.16085">
        <ele>355.39999389648</ele>
        <time>2015-06-17T14:04:13Z</time>
      </trkpt>
      <trkpt lat="43.37378" lon="6.16086">
        <ele>355</ele>
        <time>2015-06-17T14:04:14Z</time>
      </trkpt>
      <trkpt lat="43.37386" lon="6.16087">
        <ele>355.39999389648</ele>
        <time>2015-06-17T14:04:16Z</time>
      </trkpt>
      <trkpt lat="43.37392" lon="6.16091">
        <ele>355</ele>
        <time>2015-06-17T14:04:18Z</time>
      </trkpt>
      <trkpt lat="43.37399" lon="6.16096">
        <ele>355.39999389648</ele>
        <time>2015-06-17T14:04:20Z</time>
      </trkpt>
      <trkpt lat="43.37403" lon="6.161">
        <ele>354.20001220703</ele>
        <time>2015-06-17T14:04:22Z</time>
      </trkpt>
      <trkpt lat="43.37406" lon="6.161">
        <ele>353.39999389648</ele>
        <time>2015-06-17T14:04:24Z</time>
      </trkpt>
      <trkpt lat="43.37406" lon="6.161">
        <ele>353.20001220703</ele>
        <time>2015-06-17T14:04:25Z</time>
      </trkpt>
      <trkpt lat="43.37407" lon="6.161">
        <ele>353</ele>
        <time>2015-06-17T14:04:26Z</time>
      </trkpt>
      <trkpt lat="43.37408" lon="6.161">
        <ele>353</ele>
        <time>2015-06-17T14:04:27Z</time>
      </trkpt>
      <trkpt lat="43.37407" lon="6.161">
        <ele>352.79998779297</ele>
        <time>2015-06-17T14:04:28Z</time>
      </trkpt>
      <trkpt lat="43.37407" lon="6.161">
        <ele>352.79998779297</ele>
        <time>2015-06-17T14:04:30Z</time>
      </trkpt>
      <trkpt lat="43.37408" lon="6.161">
        <ele>352.79998779297</ele>
        <time>2015-06-17T14:04:32Z</time>
      </trkpt>
      <trkpt lat="43.37408" lon="6.161">
        <ele>352.60000610352</ele>
        <time>2015-06-17T14:04:34Z</time>
      </trkpt>
      <trkpt lat="43.37408" lon="6.161">
        <ele>352.39999389648</ele>
        <time>2015-06-17T14:04:36Z</time>
      </trkpt>
      <trkpt lat="43.37408" lon="6.161">
        <ele>352.39999389648</ele>
        <time>2015-06-17T14:04:38Z</time>
      </trkpt>
      <trkpt lat="43.37408" lon="6.161">
        <ele>352.60000610352</ele>
        <time>2015-06-17T14:04:40Z</time>
      </trkpt>
      <trkpt lat="43.37408" lon="6.161">
        <ele>352.60000610352</ele>
        <time>2015-06-17T14:04:42Z</time>
      </trkpt>
      <trkpt lat="43.37408" lon="6.161">
        <ele>352.60000610352</ele>
        <time>2015-06-17T14:04:44Z</time>
      </trkpt>
      <trkpt lat="43.37408" lon="6.161">
        <ele>352.60000610352</ele>
        <time>2015-06-17T14:04:46Z</time>
      </trkpt>
      <trkpt lat="43.37414" lon="6.16104">
        <ele>352.39999389648</ele>
        <time>2015-06-17T14:04:48Z</time>
      </trkpt>
      <trkpt lat="43.3742" lon="6.1611">
        <ele>352.20001220703</ele>
        <time>2015-06-17T14:04:50Z</time>
      </trkpt>
      <trkpt lat="43.37423" lon="6.16114">
        <ele>351.20001220703</ele>
        <time>2015-06-17T14:04:51Z</time>
      </trkpt>
      <trkpt lat="43.37427" lon="6.16117">
        <ele>350.20001220703</ele>
        <time>2015-06-17T14:04:52Z</time>
      </trkpt>
      <trkpt lat="43.37429" lon="6.1612">
        <ele>350.39999389648</ele>
        <time>2015-06-17T14:04:53Z</time>
      </trkpt>
      <trkpt lat="43.37432" lon="6.16123">
        <ele>350.39999389648</ele>
        <time>2015-06-17T14:04:54Z</time>
      </trkpt>
      <trkpt lat="43.37438" lon="6.16127">
        <ele>349.60000610352</ele>
        <time>2015-06-17T14:04:56Z</time>
      </trkpt>
      <trkpt lat="43.37444" lon="6.1613">
        <ele>348</ele>
        <time>2015-06-17T14:04:58Z</time>
      </trkpt>
      <trkpt lat="43.37446" lon="6.16132">
        <ele>347.60000610352</ele>
        <time>2015-06-17T14:04:59Z</time>
      </trkpt>
      <trkpt lat="43.37448" lon="6.16135">
        <ele>346.39999389648</ele>
        <time>2015-06-17T14:05:00Z</time>
      </trkpt>
      <trkpt lat="43.3745" lon="6.16136">
        <ele>346</ele>
        <time>2015-06-17T14:05:01Z</time>
      </trkpt>
      <trkpt lat="43.37451" lon="6.16136">
        <ele>345.60000610352</ele>
        <time>2015-06-17T14:05:02Z</time>
      </trkpt>
      <trkpt lat="43.37453" lon="6.16135">
        <ele>345</ele>
        <time>2015-06-17T14:05:03Z</time>
      </trkpt>
      <trkpt lat="43.37457" lon="6.16134">
        <ele>344.79998779297</ele>
        <time>2015-06-17T14:05:04Z</time>
      </trkpt>
      <trkpt lat="43.37464" lon="6.16132">
        <ele>343.39999389648</ele>
        <time>2015-06-17T14:05:06Z</time>
      </trkpt>
      <trkpt lat="43.37468" lon="6.16133">
        <ele>343</ele>
        <time>2015-06-17T14:05:07Z</time>
      </trkpt>
      <trkpt lat="43.3747" lon="6.16134">
        <ele>342.39999389648</ele>
        <time>2015-06-17T14:05:08Z</time>
      </trkpt>
      <trkpt lat="43.37472" lon="6.16134">
        <ele>342.20001220703</ele>
        <time>2015-06-17T14:05:09Z</time>
      </trkpt>
      <trkpt lat="43.37474" lon="6.16133">
        <ele>342</ele>
        <time>2015-06-17T14:05:10Z</time>
      </trkpt>
      <trkpt lat="43.3748" lon="6.16132">
        <ele>342</ele>
        <time>2015-06-17T14:05:12Z</time>
      </trkpt>
      <trkpt lat="43.37484" lon="6.16132">
        <ele>341.20001220703</ele>
        <time>2015-06-17T14:05:13Z</time>
      </trkpt>
      <trkpt lat="43.37486" lon="6.16131">
        <ele>340.39999389648</ele>
        <time>2015-06-17T14:05:14Z</time>
      </trkpt>
      <trkpt lat="43.37489" lon="6.16129">
        <ele>340.20001220703</ele>
        <time>2015-06-17T14:05:15Z</time>
      </trkpt>
      <trkpt lat="43.37491" lon="6.16126">
        <ele>340.20001220703</ele>
        <time>2015-06-17T14:05:16Z</time>
      </trkpt>
      <trkpt lat="43.37493" lon="6.16123">
        <ele>339.79998779297</ele>
        <time>2015-06-17T14:05:17Z</time>
      </trkpt>
      <trkpt lat="43.37495" lon="6.1612">
        <ele>339.20001220703</ele>
        <time>2015-06-17T14:05:18Z</time>
      </trkpt>
      <trkpt lat="43.37498" lon="6.16115">
        <ele>338.60000610352</ele>
        <time>2015-06-17T14:05:20Z</time>
      </trkpt>
      <trkpt lat="43.37502" lon="6.16111">
        <ele>338</ele>
        <time>2015-06-17T14:05:22Z</time>
      </trkpt>
      <trkpt lat="43.37502" lon="6.16108">
        <ele>338</ele>
        <time>2015-06-17T14:05:23Z</time>
      </trkpt>
      <trkpt lat="43.37502" lon="6.16107">
        <ele>337.79998779297</ele>
        <time>2015-06-17T14:05:24Z</time>
      </trkpt>
      <trkpt lat="43.37503" lon="6.16106">
        <ele>337.60000610352</ele>
        <time>2015-06-17T14:05:25Z</time>
      </trkpt>
      <trkpt lat="43.37502" lon="6.16106">
        <ele>337.60000610352</ele>
        <time>2015-06-17T14:05:26Z</time>
      </trkpt>
      <trkpt lat="43.37503" lon="6.16106">
        <ele>337.60000610352</ele>
        <time>2015-06-17T14:05:28Z</time>
      </trkpt>
      <trkpt lat="43.37503" lon="6.16106">
        <ele>337.60000610352</ele>
        <time>2015-06-17T14:05:30Z</time>
      </trkpt>
      <trkpt lat="43.37504" lon="6.16105">
        <ele>337.79998779297</ele>
        <time>2015-06-17T14:05:32Z</time>
      </trkpt>
      <trkpt lat="43.37505" lon="6.16104">
        <ele>337.79998779297</ele>
        <time>2015-06-17T14:05:34Z</time>
      </trkpt>
      <trkpt lat="43.37505" lon="6.16104">
        <ele>337.60000610352</ele>
        <time>2015-06-17T14:05:36Z</time>
      </trkpt>
      <trkpt lat="43.37505" lon="6.16104">
        <ele>337.39999389648</ele>
        <time>2015-06-17T14:05:38Z</time>
      </trkpt>
      <trkpt lat="43.37506" lon="6.16101">
        <ele>337.20001220703</ele>
        <time>2015-06-17T14:05:40Z</time>
      </trkpt>
      <trkpt lat="43.37506" lon="6.16099">
        <ele>337</ele>
        <time>2015-06-17T14:05:41Z</time>
      </trkpt>
      <trkpt lat="43.37508" lon="6.16094">
        <ele>336.20001220703</ele>
        <time>2015-06-17T14:05:42Z</time>
      </trkpt>
      <trkpt lat="43.37511" lon="6.16085">
        <ele>335</ele>
        <time>2015-06-17T14:05:44Z</time>
      </trkpt>
      <trkpt lat="43.37514" lon="6.16081">
        <ele>336</ele>
        <time>2015-06-17T14:05:46Z</time>
      </trkpt>
      <trkpt lat="43.37515" lon="6.16079">
        <ele>336.39999389648</ele>
        <time>2015-06-17T14:05:47Z</time>
      </trkpt>
      <trkpt lat="43.37516" lon="6.16078">
        <ele>336.60000610352</ele>
        <time>2015-06-17T14:05:48Z</time>
      </trkpt>
      <trkpt lat="43.37518" lon="6.16073">
        <ele>337</ele>
        <time>2015-06-17T14:05:50Z</time>
      </trkpt>
      <trkpt lat="43.37521" lon="6.16068">
        <ele>337.20001220703</ele>
        <time>2015-06-17T14:05:52Z</time>
      </trkpt>
      <trkpt lat="43.37523" lon="6.16066">
        <ele>337.39999389648</ele>
        <time>2015-06-17T14:05:53Z</time>
      </trkpt>
      <trkpt lat="43.37525" lon="6.16064">
        <ele>337.20001220703</ele>
        <time>2015-06-17T14:05:54Z</time>
      </trkpt>
      <trkpt lat="43.3753" lon="6.16061">
        <ele>337</ele>
        <time>2015-06-17T14:05:56Z</time>
      </trkpt>
      <trkpt lat="43.37535" lon="6.16056">
        <ele>337</ele>
        <time>2015-06-17T14:05:58Z</time>
      </trkpt>
      <trkpt lat="43.37538" lon="6.16053">
        <ele>337.20001220703</ele>
        <time>2015-06-17T14:05:59Z</time>
      </trkpt>
      <trkpt lat="43.37541" lon="6.16049">
        <ele>336.79998779297</ele>
        <time>2015-06-17T14:06:00Z</time>
      </trkpt>
      <trkpt lat="43.37545" lon="6.16045">
        <ele>336</ele>
        <time>2015-06-17T14:06:01Z</time>
      </trkpt>
      <trkpt lat="43.37548" lon="6.1604">
        <ele>335.39999389648</ele>
        <time>2015-06-17T14:06:02Z</time>
      </trkpt>
      <trkpt lat="43.37552" lon="6.16036">
        <ele>335</ele>
        <time>2015-06-17T14:06:03Z</time>
      </trkpt>
      <trkpt lat="43.37555" lon="6.16031">
        <ele>334.60000610352</ele>
        <time>2015-06-17T14:06:04Z</time>
      </trkpt>
      <trkpt lat="43.37562" lon="6.16019">
        <ele>334.20001220703</ele>
        <time>2015-06-17T14:06:06Z</time>
      </trkpt>
      <trkpt lat="43.37565" lon="6.16014">
        <ele>334.20001220703</ele>
        <time>2015-06-17T14:06:07Z</time>
      </trkpt>
      <trkpt lat="43.37569" lon="6.16009">
        <ele>334.20001220703</ele>
        <time>2015-06-17T14:06:08Z</time>
      </trkpt>
      <trkpt lat="43.37573" lon="6.16004">
        <ele>333.39999389648</ele>
        <time>2015-06-17T14:06:09Z</time>
      </trkpt>
      <trkpt lat="43.37577" lon="6.15999">
        <ele>332.39999389648</ele>
        <time>2015-06-17T14:06:10Z</time>
      </trkpt>
      <trkpt lat="43.37585" lon="6.1599">
        <ele>332</ele>
        <time>2015-06-17T14:06:12Z</time>
      </trkpt>
      <trkpt lat="43.37593" lon="6.15979">
        <ele>331</ele>
        <time>2015-06-17T14:06:14Z</time>
      </trkpt>
      <trkpt lat="43.37597" lon="6.15973">
        <ele>330.60000610352</ele>
        <time>2015-06-17T14:06:15Z</time>
      </trkpt>
      <trkpt lat="43.376" lon="6.15968">
        <ele>330.60000610352</ele>
        <time>2015-06-17T14:06:16Z</time>
      </trkpt>
      <trkpt lat="43.37605" lon="6.15962">
        <ele>331</ele>
        <time>2015-06-17T14:06:17Z</time>
      </trkpt>
      <trkpt lat="43.37609" lon="6.15957">
        <ele>331</ele>
        <time>2015-06-17T14:06:18Z</time>
      </trkpt>
      <trkpt lat="43.37618" lon="6.15947">
        <ele>330.20001220703</ele>
        <time>2015-06-17T14:06:20Z</time>
      </trkpt>
      <trkpt lat="43.37621" lon="6.15941">
        <ele>329.79998779297</ele>
        <time>2015-06-17T14:06:21Z</time>
      </trkpt>
      <trkpt lat="43.37624" lon="6.15934">
        <ele>328.39999389648</ele>
        <time>2015-06-17T14:06:22Z</time>
      </trkpt>
      <trkpt lat="43.3763" lon="6.15923">
        <ele>328.60000610352</ele>
        <time>2015-06-17T14:06:24Z</time>
      </trkpt>
      <trkpt lat="43.37634" lon="6.15917">
        <ele>329</ele>
        <time>2015-06-17T14:06:25Z</time>
      </trkpt>
      <trkpt lat="43.37638" lon="6.15914">
        <ele>328.60000610352</ele>
        <time>2015-06-17T14:06:26Z</time>
      </trkpt>
      <trkpt lat="43.37643" lon="6.15911">
        <ele>328.39999389648</ele>
        <time>2015-06-17T14:06:27Z</time>
      </trkpt>
      <trkpt lat="43.37648" lon="6.15909">
        <ele>328.20001220703</ele>
        <time>2015-06-17T14:06:28Z</time>
      </trkpt>
      <trkpt lat="43.37659" lon="6.15904">
        <ele>328</ele>
        <time>2015-06-17T14:06:30Z</time>
      </trkpt>
      <trkpt lat="43.3767" lon="6.15895">
        <ele>327.20001220703</ele>
        <time>2015-06-17T14:06:32Z</time>
      </trkpt>
      <trkpt lat="43.3768" lon="6.15886">
        <ele>326.60000610352</ele>
        <time>2015-06-17T14:06:34Z</time>
      </trkpt>
      <trkpt lat="43.37687" lon="6.15876">
        <ele>327.39999389648</ele>
        <time>2015-06-17T14:06:36Z</time>
      </trkpt>
      <trkpt lat="43.3769" lon="6.15871">
        <ele>327.60000610352</ele>
        <time>2015-06-17T14:06:37Z</time>
      </trkpt>
      <trkpt lat="43.37692" lon="6.15866">
        <ele>328</ele>
        <time>2015-06-17T14:06:38Z</time>
      </trkpt>
      <trkpt lat="43.37694" lon="6.15861">
        <ele>328.20001220703</ele>
        <time>2015-06-17T14:06:39Z</time>
      </trkpt>
      <trkpt lat="43.37696" lon="6.15858">
        <ele>328.60000610352</ele>
        <time>2015-06-17T14:06:40Z</time>
      </trkpt>
      <trkpt lat="43.37701" lon="6.15851">
        <ele>329.39999389648</ele>
        <time>2015-06-17T14:06:42Z</time>
      </trkpt>
      <trkpt lat="43.37705" lon="6.15847">
        <ele>329.60000610352</ele>
        <time>2015-06-17T14:06:44Z</time>
      </trkpt>
      <trkpt lat="43.37709" lon="6.15843">
        <ele>329.39999389648</ele>
        <time>2015-06-17T14:06:46Z</time>
      </trkpt>
      <trkpt lat="43.37711" lon="6.15841">
        <ele>329.60000610352</ele>
        <time>2015-06-17T14:06:47Z</time>
      </trkpt>
      <trkpt lat="43.37712" lon="6.1584">
        <ele>329.79998779297</ele>
        <time>2015-06-17T14:06:48Z</time>
      </trkpt>
      <trkpt lat="43.37715" lon="6.15838">
        <ele>330.20001220703</ele>
        <time>2015-06-17T14:06:50Z</time>
      </trkpt>
      <trkpt lat="43.37719" lon="6.15838">
        <ele>330.20001220703</ele>
        <time>2015-06-17T14:06:52Z</time>
      </trkpt>
      <trkpt lat="43.3772" lon="6.15837">
        <ele>330</ele>
        <time>2015-06-17T14:06:53Z</time>
      </trkpt>
      <trkpt lat="43.3772" lon="6.15836">
        <ele>329.79998779297</ele>
        <time>2015-06-17T14:06:54Z</time>
      </trkpt>
      <trkpt lat="43.3772" lon="6.15836">
        <ele>329.79998779297</ele>
        <time>2015-06-17T14:06:56Z</time>
      </trkpt>
      <trkpt lat="43.3772" lon="6.15837">
        <ele>329.79998779297</ele>
        <time>2015-06-17T14:06:57Z</time>
      </trkpt>
      <trkpt lat="43.3772" lon="6.15837">
        <ele>329.79998779297</ele>
        <time>2015-06-17T14:06:58Z</time>
      </trkpt>
      <trkpt lat="43.3772" lon="6.15837">
        <ele>330</ele>
        <time>2015-06-17T14:07:00Z</time>
      </trkpt>
      <trkpt lat="43.3772" lon="6.15837">
        <ele>330</ele>
        <time>2015-06-17T14:07:02Z</time>
      </trkpt>
      <trkpt lat="43.3772" lon="6.15837">
        <ele>330</ele>
        <time>2015-06-17T14:07:04Z</time>
      </trkpt>
      <trkpt lat="43.3772" lon="6.15837">
        <ele>329.60000610352</ele>
        <time>2015-06-17T14:07:06Z</time>
      </trkpt>
      <trkpt lat="43.3772" lon="6.15837">
        <ele>329.39999389648</ele>
        <time>2015-06-17T14:07:08Z</time>
      </trkpt>
      <trkpt lat="43.3772" lon="6.15837">
        <ele>329.39999389648</ele>
        <time>2015-06-17T14:07:10Z</time>
      </trkpt>
      <trkpt lat="43.3772" lon="6.15837">
        <ele>329.39999389648</ele>
        <time>2015-06-17T14:07:12Z</time>
      </trkpt>
      <trkpt lat="43.3772" lon="6.15837">
        <ele>329.39999389648</ele>
        <time>2015-06-17T14:07:14Z</time>
      </trkpt>
      <trkpt lat="43.3772" lon="6.15836">
        <ele>329.60000610352</ele>
        <time>2015-06-17T14:07:16Z</time>
      </trkpt>
      <trkpt lat="43.3772" lon="6.15836">
        <ele>329.60000610352</ele>
        <time>2015-06-17T14:07:18Z</time>
      </trkpt>
      <trkpt lat="43.3772" lon="6.15836">
        <ele>329.60000610352</ele>
        <time>2015-06-17T14:07:20Z</time>
      </trkpt>
      <trkpt lat="43.3772" lon="6.15836">
        <ele>329.60000610352</ele>
        <time>2015-06-17T14:07:22Z</time>
      </trkpt>
      <trkpt lat="43.3772" lon="6.15836">
        <ele>329.39999389648</ele>
        <time>2015-06-17T14:07:24Z</time>
      </trkpt>
      <trkpt lat="43.3772" lon="6.15836">
        <ele>329.39999389648</ele>
        <time>2015-06-17T14:07:25Z</time>
      </trkpt>
      <trkpt lat="43.3772" lon="6.15836">
        <ele>329.60000610352</ele>
        <time>2015-06-17T14:07:26Z</time>
      </trkpt>
      <trkpt lat="43.3772" lon="6.15836">
        <ele>329.60000610352</ele>
        <time>2015-06-17T14:07:28Z</time>
      </trkpt>
      <trkpt lat="43.3772" lon="6.15836">
        <ele>329.79998779297</ele>
        <time>2015-06-17T14:07:30Z</time>
      </trkpt>
      <trkpt lat="43.3772" lon="6.15836">
        <ele>329.79998779297</ele>
        <time>2015-06-17T14:07:32Z</time>
      </trkpt>
      <trkpt lat="43.3772" lon="6.15836">
        <ele>329.79998779297</ele>
        <time>2015-06-17T14:07:34Z</time>
      </trkpt>
      <trkpt lat="43.3772" lon="6.15836">
        <ele>329.79998779297</ele>
        <time>2015-06-17T14:07:36Z</time>
      </trkpt>
      <trkpt lat="43.3772" lon="6.15836">
        <ele>330</ele>
        <time>2015-06-17T14:07:38Z</time>
      </trkpt>
      <trkpt lat="43.37721" lon="6.15836">
        <ele>330.20001220703</ele>
        <time>2015-06-17T14:07:40Z</time>
      </trkpt>
      <trkpt lat="43.37722" lon="6.15836">
        <ele>330</ele>
        <time>2015-06-17T14:07:42Z</time>
      </trkpt>
      <trkpt lat="43.37722" lon="6.15836">
        <ele>330</ele>
        <time>2015-06-17T14:07:44Z</time>
      </trkpt>
      <trkpt lat="43.37722" lon="6.15836">
        <ele>330</ele>
        <time>2015-06-17T14:07:46Z</time>
      </trkpt>
      <trkpt lat="43.37722" lon="6.15836">
        <ele>330</ele>
        <time>2015-06-17T14:07:48Z</time>
      </trkpt>
      <trkpt lat="43.37722" lon="6.15836">
        <ele>330</ele>
        <time>2015-06-17T14:07:50Z</time>
      </trkpt>
      <trkpt lat="43.37722" lon="6.15836">
        <ele>329.79998779297</ele>
        <time>2015-06-17T14:07:52Z</time>
      </trkpt>
      <trkpt lat="43.37722" lon="6.15836">
        <ele>329.79998779297</ele>
        <time>2015-06-17T14:07:54Z</time>
      </trkpt>
      <trkpt lat="43.37722" lon="6.15836">
        <ele>329.79998779297</ele>
        <time>2015-06-17T14:07:55Z</time>
      </trkpt>
      <trkpt lat="43.37722" lon="6.15836">
        <ele>329.60000610352</ele>
        <time>2015-06-17T14:07:56Z</time>
      </trkpt>
      <trkpt lat="43.37722" lon="6.15836">
        <ele>329.39999389648</ele>
        <time>2015-06-17T14:07:58Z</time>
      </trkpt>
      <trkpt lat="43.37722" lon="6.15836">
        <ele>329.60000610352</ele>
        <time>2015-06-17T14:08:00Z</time>
      </trkpt>
      <trkpt lat="43.37722" lon="6.15836">
        <ele>329.60000610352</ele>
        <time>2015-06-17T14:08:02Z</time>
      </trkpt>
      <trkpt lat="43.37722" lon="6.15836">
        <ele>329.79998779297</ele>
        <time>2015-06-17T14:08:04Z</time>
      </trkpt>
      <trkpt lat="43.37722" lon="6.15836">
        <ele>329.79998779297</ele>
        <time>2015-06-17T14:08:06Z</time>
      </trkpt>
      <trkpt lat="43.37722" lon="6.15836">
        <ele>330</ele>
        <time>2015-06-17T14:08:08Z</time>
      </trkpt>
      <trkpt lat="43.37722" lon="6.15836">
        <ele>329.79998779297</ele>
        <time>2015-06-17T14:08:10Z</time>
      </trkpt>
      <trkpt lat="43.37722" lon="6.15836">
        <ele>329.60000610352</ele>
        <time>2015-06-17T14:08:12Z</time>
      </trkpt>
      <trkpt lat="43.37722" lon="6.15836">
        <ele>329.60000610352</ele>
        <time>2015-06-17T14:08:14Z</time>
      </trkpt>
      <trkpt lat="43.37722" lon="6.15836">
        <ele>329.60000610352</ele>
        <time>2015-06-17T14:08:16Z</time>
      </trkpt>
      <trkpt lat="43.37722" lon="6.15836">
        <ele>329.60000610352</ele>
        <time>2015-06-17T14:08:17Z</time>
      </trkpt>
      <trkpt lat="43.37722" lon="6.15836">
        <ele>329.60000610352</ele>
        <time>2015-06-17T14:08:18Z</time>
      </trkpt>
      <trkpt lat="43.37722" lon="6.15836">
        <ele>329.60000610352</ele>
        <time>2015-06-17T14:08:20Z</time>
      </trkpt>
      <trkpt lat="43.37722" lon="6.15836">
        <ele>329.60000610352</ele>
        <time>2015-06-17T14:08:22Z</time>
      </trkpt>
      <trkpt lat="43.37722" lon="6.15836">
        <ele>329.79998779297</ele>
        <time>2015-06-17T14:08:24Z</time>
      </trkpt>
      <trkpt lat="43.37722" lon="6.15836">
        <ele>329.79998779297</ele>
        <time>2015-06-17T14:08:26Z</time>
      </trkpt>
      <trkpt lat="43.37722" lon="6.15836">
        <ele>329.60000610352</ele>
        <time>2015-06-17T14:08:28Z</time>
      </trkpt>
      <trkpt lat="43.37722" lon="6.15836">
        <ele>329.60000610352</ele>
        <time>2015-06-17T14:08:30Z</time>
      </trkpt>
      <trkpt lat="43.37722" lon="6.15836">
        <ele>329.60000610352</ele>
        <time>2015-06-17T14:08:32Z</time>
      </trkpt>
      <trkpt lat="43.37722" lon="6.15836">
        <ele>329.79998779297</ele>
        <time>2015-06-17T14:08:34Z</time>
      </trkpt>
      <trkpt lat="43.37722" lon="6.15836">
        <ele>330</ele>
        <time>2015-06-17T14:08:36Z</time>
      </trkpt>
      <trkpt lat="43.37722" lon="6.15836">
        <ele>330.20001220703</ele>
        <time>2015-06-17T14:08:37Z</time>
      </trkpt>
      <trkpt lat="43.37722" lon="6.15836">
        <ele>330.20001220703</ele>
        <time>2015-06-17T14:08:38Z</time>
      </trkpt>
      <trkpt lat="43.37722" lon="6.15836">
        <ele>330</ele>
        <time>2015-06-17T14:08:40Z</time>
      </trkpt>
      <trkpt lat="43.37722" lon="6.15836">
        <ele>329.60000610352</ele>
        <time>2015-06-17T14:08:42Z</time>
      </trkpt>
      <trkpt lat="43.37722" lon="6.15836">
        <ele>329.79998779297</ele>
        <time>2015-06-17T14:08:44Z</time>
      </trkpt>
      <trkpt lat="43.37722" lon="6.15836">
        <ele>329.79998779297</ele>
        <time>2015-06-17T14:08:46Z</time>
      </trkpt>
      <trkpt lat="43.37722" lon="6.15836">
        <ele>329.60000610352</ele>
        <time>2015-06-17T14:08:48Z</time>
      </trkpt>
      <trkpt lat="43.37722" lon="6.15836">
        <ele>329.39999389648</ele>
        <time>2015-06-17T14:08:50Z</time>
      </trkpt>
      <trkpt lat="43.37722" lon="6.15836">
        <ele>329.60000610352</ele>
        <time>2015-06-17T14:08:52Z</time>
      </trkpt>
      <trkpt lat="43.37722" lon="6.15836">
        <ele>329.60000610352</ele>
        <time>2015-06-17T14:08:54Z</time>
      </trkpt>
      <trkpt lat="43.37722" lon="6.15836">
        <ele>329.39999389648</ele>
        <time>2015-06-17T14:08:56Z</time>
      </trkpt>
      <trkpt lat="43.37722" lon="6.15836">
        <ele>329.39999389648</ele>
        <time>2015-06-17T14:08:58Z</time>
      </trkpt>
      <trkpt lat="43.37722" lon="6.15836">
        <ele>329.39999389648</ele>
        <time>2015-06-17T14:09:00Z</time>
      </trkpt>
      <trkpt lat="43.37722" lon="6.15836">
        <ele>329.60000610352</ele>
        <time>2015-06-17T14:09:02Z</time>
      </trkpt>
      <trkpt lat="43.37722" lon="6.15836">
        <ele>329.60000610352</ele>
        <time>2015-06-17T14:09:04Z</time>
      </trkpt>
      <trkpt lat="43.37722" lon="6.15836">
        <ele>329.60000610352</ele>
        <time>2015-06-17T14:09:05Z</time>
      </trkpt>
      <trkpt lat="43.37722" lon="6.15836">
        <ele>329.60000610352</ele>
        <time>2015-06-17T14:09:08Z</time>
      </trkpt>
      <trkpt lat="43.37722" lon="6.15836">
        <ele>329.79998779297</ele>
        <time>2015-06-17T14:09:12Z</time>
      </trkpt>
      <trkpt lat="43.37722" lon="6.15836">
        <ele>329.79998779297</ele>
        <time>2015-06-17T14:09:14Z</time>
      </trkpt>
      <trkpt lat="43.37722" lon="6.15836">
        <ele>329.79998779297</ele>
        <time>2015-06-17T14:09:16Z</time>
      </trkpt>
      <trkpt lat="43.37722" lon="6.15836">
        <ele>330</ele>
        <time>2015-06-17T14:09:18Z</time>
      </trkpt>
      <trkpt lat="43.37722" lon="6.15836">
        <ele>329.79998779297</ele>
        <time>2015-06-17T14:09:20Z</time>
      </trkpt>
      <trkpt lat="43.37722" lon="6.15836">
        <ele>329.79998779297</ele>
        <time>2015-06-17T14:09:22Z</time>
      </trkpt>
      <trkpt lat="43.37722" lon="6.15836">
        <ele>329.79998779297</ele>
        <time>2015-06-17T14:09:24Z</time>
      </trkpt>
      <trkpt lat="43.37722" lon="6.15836">
        <ele>329.79998779297</ele>
        <time>2015-06-17T14:09:26Z</time>
      </trkpt>
      <trkpt lat="43.37722" lon="6.15836">
        <ele>330</ele>
        <time>2015-06-17T14:09:28Z</time>
      </trkpt>
      <trkpt lat="43.37722" lon="6.15836">
        <ele>330</ele>
        <time>2015-06-17T14:09:30Z</time>
      </trkpt>
      <trkpt lat="43.37722" lon="6.15836">
        <ele>329.79998779297</ele>
        <time>2015-06-17T14:09:32Z</time>
      </trkpt>
      <trkpt lat="43.37722" lon="6.15836">
        <ele>329.79998779297</ele>
        <time>2015-06-17T14:09:34Z</time>
      </trkpt>
      <trkpt lat="43.37722" lon="6.15836">
        <ele>329.79998779297</ele>
        <time>2015-06-17T14:09:36Z</time>
      </trkpt>
      <trkpt lat="43.37722" lon="6.15836">
        <ele>329.39999389648</ele>
        <time>2015-06-17T14:09:38Z</time>
      </trkpt>
      <trkpt lat="43.37722" lon="6.15836">
        <ele>329.39999389648</ele>
        <time>2015-06-17T14:09:40Z</time>
      </trkpt>
      <trkpt lat="43.37722" lon="6.15836">
        <ele>329.39999389648</ele>
        <time>2015-06-17T14:09:42Z</time>
      </trkpt>
      <trkpt lat="43.37722" lon="6.15836">
        <ele>329.39999389648</ele>
        <time>2015-06-17T14:09:43Z</time>
      </trkpt>
      <trkpt lat="43.37722" lon="6.15836">
        <ele>329.79998779297</ele>
        <time>2015-06-17T14:09:44Z</time>
      </trkpt>
      <trkpt lat="43.37722" lon="6.15836">
        <ele>329.79998779297</ele>
        <time>2015-06-17T14:09:46Z</time>
      </trkpt>
      <trkpt lat="43.37722" lon="6.15836">
        <ele>329.79998779297</ele>
        <time>2015-06-17T14:09:48Z</time>
      </trkpt>
      <trkpt lat="43.37722" lon="6.15836">
        <ele>329.79998779297</ele>
        <time>2015-06-17T14:09:50Z</time>
      </trkpt>
      <trkpt lat="43.37722" lon="6.15836">
        <ele>329.79998779297</ele>
        <time>2015-06-17T14:09:52Z</time>
      </trkpt>
      <trkpt lat="43.37722" lon="6.15836">
        <ele>329.79998779297</ele>
        <time>2015-06-17T14:09:54Z</time>
      </trkpt>
      <trkpt lat="43.37722" lon="6.15836">
        <ele>329.79998779297</ele>
        <time>2015-06-17T14:09:56Z</time>
      </trkpt>
      <trkpt lat="43.37722" lon="6.15836">
        <ele>329.79998779297</ele>
        <time>2015-06-17T14:09:58Z</time>
      </trkpt>
      <trkpt lat="43.37722" lon="6.15836">
        <ele>329.79998779297</ele>
        <time>2015-06-17T14:10:00Z</time>
      </trkpt>
      <trkpt lat="43.37722" lon="6.15836">
        <ele>329.79998779297</ele>
        <time>2015-06-17T14:10:02Z</time>
      </trkpt>
      <trkpt lat="43.37722" lon="6.15836">
        <ele>329.79998779297</ele>
        <time>2015-06-17T14:10:04Z</time>
      </trkpt>
      <trkpt lat="43.37722" lon="6.15836">
        <ele>329.79998779297</ele>
        <time>2015-06-17T14:10:06Z</time>
      </trkpt>
      <trkpt lat="43.37722" lon="6.15836">
        <ele>329.60000610352</ele>
        <time>2015-06-17T14:10:08Z</time>
      </trkpt>
      <trkpt lat="43.37722" lon="6.15836">
        <ele>329.60000610352</ele>
        <time>2015-06-17T14:10:10Z</time>
      </trkpt>
      <trkpt lat="43.37722" lon="6.15836">
        <ele>329.39999389648</ele>
        <time>2015-06-17T14:10:12Z</time>
      </trkpt>
      <trkpt lat="43.37722" lon="6.15836">
        <ele>329.39999389648</ele>
        <time>2015-06-17T14:10:13Z</time>
      </trkpt>
      <trkpt lat="43.37722" lon="6.15836">
        <ele>329.60000610352</ele>
        <time>2015-06-17T14:10:14Z</time>
      </trkpt>
      <trkpt lat="43.37722" lon="6.15836">
        <ele>329.79998779297</ele>
        <time>2015-06-17T14:10:16Z</time>
      </trkpt>
      <trkpt lat="43.37722" lon="6.15836">
        <ele>329.60000610352</ele>
        <time>2015-06-17T14:10:18Z</time>
      </trkpt>
      <trkpt lat="43.37722" lon="6.15836">
        <ele>329.60000610352</ele>
        <time>2015-06-17T14:10:20Z</time>
      </trkpt>
      <trkpt lat="43.37722" lon="6.15836">
        <ele>329.60000610352</ele>
        <time>2015-06-17T14:10:22Z</time>
      </trkpt>
      <trkpt lat="43.37722" lon="6.15836">
        <ele>329.60000610352</ele>
        <time>2015-06-17T14:10:24Z</time>
      </trkpt>
      <trkpt lat="43.37722" lon="6.15836">
        <ele>329.60000610352</ele>
        <time>2015-06-17T14:10:26Z</time>
      </trkpt>
      <trkpt lat="43.37722" lon="6.15836">
        <ele>329.60000610352</ele>
        <time>2015-06-17T14:10:28Z</time>
      </trkpt>
      <trkpt lat="43.37722" lon="6.15836">
        <ele>329.79998779297</ele>
        <time>2015-06-17T14:10:30Z</time>
      </trkpt>
      <trkpt lat="43.37722" lon="6.15836">
        <ele>330</ele>
        <time>2015-06-17T14:10:32Z</time>
      </trkpt>
      <trkpt lat="43.37722" lon="6.15836">
        <ele>329.79998779297</ele>
        <time>2015-06-17T14:10:34Z</time>
      </trkpt>
      <trkpt lat="43.37722" lon="6.15836">
        <ele>329.79998779297</ele>
        <time>2015-06-17T14:10:36Z</time>
      </trkpt>
      <trkpt lat="43.37722" lon="6.15836">
        <ele>329.79998779297</ele>
        <time>2015-06-17T14:10:38Z</time>
      </trkpt>
      <trkpt lat="43.37722" lon="6.15836">
        <ele>329.79998779297</ele>
        <time>2015-06-17T14:10:40Z</time>
      </trkpt>
      <trkpt lat="43.37722" lon="6.15836">
        <ele>329.79998779297</ele>
        <time>2015-06-17T14:10:42Z</time>
      </trkpt>
      <trkpt lat="43.37722" lon="6.15836">
        <ele>329.79998779297</ele>
        <time>2015-06-17T14:10:44Z</time>
      </trkpt>
      <trkpt lat="43.37722" lon="6.15836">
        <ele>329.79998779297</ele>
        <time>2015-06-17T14:10:45Z</time>
      </trkpt>
      <trkpt lat="43.37722" lon="6.15836">
        <ele>329.79998779297</ele>
        <time>2015-06-17T14:10:48Z</time>
      </trkpt>
      <trkpt lat="43.37722" lon="6.15836">
        <ele>329.79998779297</ele>
        <time>2015-06-17T14:10:50Z</time>
      </trkpt>
      <trkpt lat="43.37722" lon="6.15836">
        <ele>329.79998779297</ele>
        <time>2015-06-17T14:10:52Z</time>
      </trkpt>
      <trkpt lat="43.37722" lon="6.15836">
        <ele>329.79998779297</ele>
        <time>2015-06-17T14:10:54Z</time>
      </trkpt>
      <trkpt lat="43.37722" lon="6.15836">
        <ele>329.60000610352</ele>
        <time>2015-06-17T14:10:56Z</time>
      </trkpt>
      <trkpt lat="43.37722" lon="6.15836">
        <ele>329.39999389648</ele>
        <time>2015-06-17T14:10:58Z</time>
      </trkpt>
      <trkpt lat="43.37722" lon="6.15836">
        <ele>329.60000610352</ele>
        <time>2015-06-17T14:11:00Z</time>
      </trkpt>
      <trkpt lat="43.37722" lon="6.15836">
        <ele>329.79998779297</ele>
        <time>2015-06-17T14:11:02Z</time>
      </trkpt>
      <trkpt lat="43.37723" lon="6.15836">
        <ele>329.79998779297</ele>
        <time>2015-06-17T14:11:04Z</time>
      </trkpt>
      <trkpt lat="43.37724" lon="6.15836">
        <ele>329.60000610352</ele>
        <time>2015-06-17T14:11:05Z</time>
      </trkpt>
      <trkpt lat="43.37726" lon="6.15836">
        <ele>329.60000610352</ele>
        <time>2015-06-17T14:11:06Z</time>
      </trkpt>
      <trkpt lat="43.37732" lon="6.15836">
        <ele>329.39999389648</ele>
        <time>2015-06-17T14:11:08Z</time>
      </trkpt>
      <trkpt lat="43.37738" lon="6.15836">
        <ele>329.39999389648</ele>
        <time>2015-06-17T14:11:10Z</time>
      </trkpt>
      <trkpt lat="43.37745" lon="6.15836">
        <ele>329.20001220703</ele>
        <time>2015-06-17T14:11:12Z</time>
      </trkpt>
      <trkpt lat="43.37752" lon="6.15836">
        <ele>329.20001220703</ele>
        <time>2015-06-17T14:11:14Z</time>
      </trkpt>
      <trkpt lat="43.3776" lon="6.15835">
        <ele>329.20001220703</ele>
        <time>2015-06-17T14:11:16Z</time>
      </trkpt>
      <trkpt lat="43.37764" lon="6.15835">
        <ele>329.20001220703</ele>
        <time>2015-06-17T14:11:17Z</time>
      </trkpt>
      <trkpt lat="43.37768" lon="6.15835">
        <ele>329</ele>
        <time>2015-06-17T14:11:18Z</time>
      </trkpt>
      <trkpt lat="43.37777" lon="6.15835">
        <ele>328.79998779297</ele>
        <time>2015-06-17T14:11:20Z</time>
      </trkpt>
      <trkpt lat="43.37786" lon="6.15837">
        <ele>328.60000610352</ele>
        <time>2015-06-17T14:11:22Z</time>
      </trkpt>
      <trkpt lat="43.37791" lon="6.15839">
        <ele>328.39999389648</ele>
        <time>2015-06-17T14:11:23Z</time>
      </trkpt>
      <trkpt lat="43.37795" lon="6.15843">
        <ele>328</ele>
        <time>2015-06-17T14:11:24Z</time>
      </trkpt>
      <trkpt lat="43.37804" lon="6.15854">
        <ele>328.20001220703</ele>
        <time>2015-06-17T14:11:26Z</time>
      </trkpt>
      <trkpt lat="43.37807" lon="6.1586">
        <ele>328.39999389648</ele>
        <time>2015-06-17T14:11:27Z</time>
      </trkpt>
      <trkpt lat="43.37812" lon="6.15867">
        <ele>326.79998779297</ele>
        <time>2015-06-17T14:11:28Z</time>
      </trkpt>
      <trkpt lat="43.37817" lon="6.15874">
        <ele>325.39999389648</ele>
        <time>2015-06-17T14:11:29Z</time>
      </trkpt>
      <trkpt lat="43.37822" lon="6.15881">
        <ele>324.60000610352</ele>
        <time>2015-06-17T14:11:30Z</time>
      </trkpt>
      <trkpt lat="43.37833" lon="6.15894">
        <ele>324.60000610352</ele>
        <time>2015-06-17T14:11:32Z</time>
      </trkpt>
      <trkpt lat="43.37839" lon="6.159">
        <ele>324.39999389648</ele>
        <time>2015-06-17T14:11:33Z</time>
      </trkpt>
      <trkpt lat="43.37846" lon="6.15904">
        <ele>324.39999389648</ele>
        <time>2015-06-17T14:11:34Z</time>
      </trkpt>
      <trkpt lat="43.37854" lon="6.15906">
        <ele>324</ele>
        <time>2015-06-17T14:11:35Z</time>
      </trkpt>
      <trkpt lat="43.37861" lon="6.15907">
        <ele>323</ele>
        <time>2015-06-17T14:11:36Z</time>
      </trkpt>
      <trkpt lat="43.37876" lon="6.15901">
        <ele>321.60000610352</ele>
        <time>2015-06-17T14:11:38Z</time>
      </trkpt>
      <trkpt lat="43.37883" lon="6.15897">
        <ele>321.20001220703</ele>
        <time>2015-06-17T14:11:39Z</time>
      </trkpt>
      <trkpt lat="43.37891" lon="6.15892">
        <ele>321</ele>
        <time>2015-06-17T14:11:40Z</time>
      </trkpt>
      <trkpt lat="43.379" lon="6.15887">
        <ele>320.39999389648</ele>
        <time>2015-06-17T14:11:41Z</time>
      </trkpt>
      <trkpt lat="43.37908" lon="6.15883">
        <ele>320.20001220703</ele>
        <time>2015-06-17T14:11:42Z</time>
      </trkpt>
      <trkpt lat="43.37917" lon="6.15879">
        <ele>319.79998779297</ele>
        <time>2015-06-17T14:11:43Z</time>
      </trkpt>
      <trkpt lat="43.37926" lon="6.15876">
        <ele>318.79998779297</ele>
        <time>2015-06-17T14:11:44Z</time>
      </trkpt>
      <trkpt lat="43.37944" lon="6.15871">
        <ele>318</ele>
        <time>2015-06-17T14:11:46Z</time>
      </trkpt>
      <trkpt lat="43.37954" lon="6.15867">
        <ele>316.79998779297</ele>
        <time>2015-06-17T14:11:47Z</time>
      </trkpt>
      <trkpt lat="43.37963" lon="6.15863">
        <ele>316.20001220703</ele>
        <time>2015-06-17T14:11:48Z</time>
      </trkpt>
      <trkpt lat="43.37973" lon="6.15857">
        <ele>315.79998779297</ele>
        <time>2015-06-17T14:11:49Z</time>
      </trkpt>
      <trkpt lat="43.37981" lon="6.15854">
        <ele>315.60000610352</ele>
        <time>2015-06-17T14:11:50Z</time>
      </trkpt>
      <trkpt lat="43.37999" lon="6.15848">
        <ele>314.39999389648</ele>
        <time>2015-06-17T14:11:52Z</time>
      </trkpt>
      <trkpt lat="43.38008" lon="6.15845">
        <ele>313.39999389648</ele>
        <time>2015-06-17T14:11:53Z</time>
      </trkpt>
      <trkpt lat="43.38018" lon="6.15842">
        <ele>313.39999389648</ele>
        <time>2015-06-17T14:11:54Z</time>
      </trkpt>
      <trkpt lat="43.38035" lon="6.15836">
        <ele>313.79998779297</ele>
        <time>2015-06-17T14:11:56Z</time>
      </trkpt>
      <trkpt lat="43.38051" lon="6.15831">
        <ele>312.79998779297</ele>
        <time>2015-06-17T14:11:58Z</time>
      </trkpt>
      <trkpt lat="43.38058" lon="6.15829">
        <ele>311.79998779297</ele>
        <time>2015-06-17T14:11:59Z</time>
      </trkpt>
      <trkpt lat="43.38066" lon="6.15827">
        <ele>311.20001220703</ele>
        <time>2015-06-17T14:12:00Z</time>
      </trkpt>
      <trkpt lat="43.38081" lon="6.15822">
        <ele>311.20001220703</ele>
        <time>2015-06-17T14:12:02Z</time>
      </trkpt>
      <trkpt lat="43.38097" lon="6.15817">
        <ele>311.20001220703</ele>
        <time>2015-06-17T14:12:04Z</time>
      </trkpt>
      <trkpt lat="43.38104" lon="6.15815">
        <ele>310.79998779297</ele>
        <time>2015-06-17T14:12:05Z</time>
      </trkpt>
      <trkpt lat="43.38112" lon="6.15813">
        <ele>310.60000610352</ele>
        <time>2015-06-17T14:12:06Z</time>
      </trkpt>
      <trkpt lat="43.38128" lon="6.15811">
        <ele>309.79998779297</ele>
        <time>2015-06-17T14:12:08Z</time>
      </trkpt>
      <trkpt lat="43.38143" lon="6.15809">
        <ele>310</ele>
        <time>2015-06-17T14:12:10Z</time>
      </trkpt>
      <trkpt lat="43.38158" lon="6.15807">
        <ele>309.20001220703</ele>
        <time>2015-06-17T14:12:12Z</time>
      </trkpt>
      <trkpt lat="43.38173" lon="6.15805">
        <ele>309.60000610352</ele>
        <time>2015-06-17T14:12:14Z</time>
      </trkpt>
      <trkpt lat="43.38187" lon="6.15803">
        <ele>309.39999389648</ele>
        <time>2015-06-17T14:12:16Z</time>
      </trkpt>
      <trkpt lat="43.38201" lon="6.15801">
        <ele>309.39999389648</ele>
        <time>2015-06-17T14:12:18Z</time>
      </trkpt>
      <trkpt lat="43.38215" lon="6.15797">
        <ele>309</ele>
        <time>2015-06-17T14:12:20Z</time>
      </trkpt>
      <trkpt lat="43.38229" lon="6.15795">
        <ele>308.79998779297</ele>
        <time>2015-06-17T14:12:22Z</time>
      </trkpt>
      <trkpt lat="43.38244" lon="6.15791">
        <ele>308.60000610352</ele>
        <time>2015-06-17T14:12:24Z</time>
      </trkpt>
      <trkpt lat="43.38251" lon="6.15789">
        <ele>307.79998779297</ele>
        <time>2015-06-17T14:12:25Z</time>
      </trkpt>
      <trkpt lat="43.38259" lon="6.15788">
        <ele>307.39999389648</ele>
        <time>2015-06-17T14:12:26Z</time>
      </trkpt>
      <trkpt lat="43.38273" lon="6.15784">
        <ele>307.60000610352</ele>
        <time>2015-06-17T14:12:28Z</time>
      </trkpt>
      <trkpt lat="43.38288" lon="6.1578">
        <ele>307.60000610352</ele>
        <time>2015-06-17T14:12:30Z</time>
      </trkpt>
      <trkpt lat="43.38296" lon="6.15779">
        <ele>307.60000610352</ele>
        <time>2015-06-17T14:12:31Z</time>
      </trkpt>
      <trkpt lat="43.38303" lon="6.15776">
        <ele>307.39999389648</ele>
        <time>2015-06-17T14:12:32Z</time>
      </trkpt>
      <trkpt lat="43.38316" lon="6.15769">
        <ele>307.20001220703</ele>
        <time>2015-06-17T14:12:34Z</time>
      </trkpt>
      <trkpt lat="43.38322" lon="6.15765">
        <ele>306.60000610352</ele>
        <time>2015-06-17T14:12:35Z</time>
      </trkpt>
      <trkpt lat="43.38329" lon="6.1576">
        <ele>306.39999389648</ele>
        <time>2015-06-17T14:12:36Z</time>
      </trkpt>
      <trkpt lat="43.38341" lon="6.15751">
        <ele>305.39999389648</ele>
        <time>2015-06-17T14:12:38Z</time>
      </trkpt>
      <trkpt lat="43.38353" lon="6.15742">
        <ele>304.79998779297</ele>
        <time>2015-06-17T14:12:40Z</time>
      </trkpt>
      <trkpt lat="43.38359" lon="6.15737">
        <ele>304.39999389648</ele>
        <time>2015-06-17T14:12:41Z</time>
      </trkpt>
      <trkpt lat="43.38364" lon="6.15731">
        <ele>304.39999389648</ele>
        <time>2015-06-17T14:12:42Z</time>
      </trkpt>
      <trkpt lat="43.38375" lon="6.1572">
        <ele>304.60000610352</ele>
        <time>2015-06-17T14:12:44Z</time>
      </trkpt>
      <trkpt lat="43.3838" lon="6.15714">
        <ele>304.60000610352</ele>
        <time>2015-06-17T14:12:45Z</time>
      </trkpt>
      <trkpt lat="43.38384" lon="6.15707">
        <ele>305</ele>
        <time>2015-06-17T14:12:46Z</time>
      </trkpt>
      <trkpt lat="43.38387" lon="6.157">
        <ele>305.60000610352</ele>
        <time>2015-06-17T14:12:47Z</time>
      </trkpt>
      <trkpt lat="43.38389" lon="6.15692">
        <ele>305.60000610352</ele>
        <time>2015-06-17T14:12:48Z</time>
      </trkpt>
      <trkpt lat="43.38388" lon="6.15679">
        <ele>304.39999389648</ele>
        <time>2015-06-17T14:12:50Z</time>
      </trkpt>
      <trkpt lat="43.38384" lon="6.15671">
        <ele>304.20001220703</ele>
        <time>2015-06-17T14:12:52Z</time>
      </trkpt>
      <trkpt lat="43.3838" lon="6.15666">
        <ele>304.39999389648</ele>
        <time>2015-06-17T14:12:54Z</time>
      </trkpt>
      <trkpt lat="43.38377" lon="6.15661">
        <ele>305</ele>
        <time>2015-06-17T14:12:56Z</time>
      </trkpt>
      <trkpt lat="43.38375" lon="6.15659">
        <ele>305.20001220703</ele>
        <time>2015-06-17T14:12:58Z</time>
      </trkpt>
      <trkpt lat="43.38373" lon="6.15656">
        <ele>305.60000610352</ele>
        <time>2015-06-17T14:13:00Z</time>
      </trkpt>
      <trkpt lat="43.38372" lon="6.15652">
        <ele>306</ele>
        <time>2015-06-17T14:13:02Z</time>
      </trkpt>
      <trkpt lat="43.3837" lon="6.15649">
        <ele>306.20001220703</ele>
        <time>2015-06-17T14:13:04Z</time>
      </trkpt>
      <trkpt lat="43.38368" lon="6.15645">
        <ele>306.39999389648</ele>
        <time>2015-06-17T14:13:06Z</time>
      </trkpt>
      <trkpt lat="43.38366" lon="6.15641">
        <ele>306.60000610352</ele>
        <time>2015-06-17T14:13:08Z</time>
      </trkpt>
      <trkpt lat="43.38364" lon="6.15637">
        <ele>306.79998779297</ele>
        <time>2015-06-17T14:13:10Z</time>
      </trkpt>
      <trkpt lat="43.38363" lon="6.15632">
        <ele>307</ele>
        <time>2015-06-17T14:13:12Z</time>
      </trkpt>
      <trkpt lat="43.3836" lon="6.15627">
        <ele>307.20001220703</ele>
        <time>2015-06-17T14:13:14Z</time>
      </trkpt>
      <trkpt lat="43.38359" lon="6.15624">
        <ele>307.39999389648</ele>
        <time>2015-06-17T14:13:15Z</time>
      </trkpt>
      <trkpt lat="43.38358" lon="6.15621">
        <ele>307.60000610352</ele>
        <time>2015-06-17T14:13:16Z</time>
      </trkpt>
      <trkpt lat="43.38356" lon="6.15616">
        <ele>307.79998779297</ele>
        <time>2015-06-17T14:13:18Z</time>
      </trkpt>
      <trkpt lat="43.38355" lon="6.15613">
        <ele>308</ele>
        <time>2015-06-17T14:13:19Z</time>
      </trkpt>
      <trkpt lat="43.38354" lon="6.15611">
        <ele>308</ele>
        <time>2015-06-17T14:13:20Z</time>
      </trkpt>
      <trkpt lat="43.38352" lon="6.15607">
        <ele>308.60000610352</ele>
        <time>2015-06-17T14:13:22Z</time>
      </trkpt>
      <trkpt lat="43.38351" lon="6.15605">
        <ele>308.79998779297</ele>
        <time>2015-06-17T14:13:23Z</time>
      </trkpt>
      <trkpt lat="43.38351" lon="6.15603">
        <ele>308.79998779297</ele>
        <time>2015-06-17T14:13:24Z</time>
      </trkpt>
      <trkpt lat="43.3835" lon="6.15602">
        <ele>309</ele>
        <time>2015-06-17T14:13:25Z</time>
      </trkpt>
      <trkpt lat="43.3835" lon="6.156">
        <ele>309</ele>
        <time>2015-06-17T14:13:26Z</time>
      </trkpt>
      <trkpt lat="43.38348" lon="6.15596">
        <ele>309.20001220703</ele>
        <time>2015-06-17T14:13:28Z</time>
      </trkpt>
      <trkpt lat="43.38346" lon="6.15594">
        <ele>309.20001220703</ele>
        <time>2015-06-17T14:13:30Z</time>
      </trkpt>
      <trkpt lat="43.38345" lon="6.1559">
        <ele>309.20001220703</ele>
        <time>2015-06-17T14:13:32Z</time>
      </trkpt>
      <trkpt lat="43.38343" lon="6.15585">
        <ele>309.60000610352</ele>
        <time>2015-06-17T14:13:34Z</time>
      </trkpt>
      <trkpt lat="43.38341" lon="6.1558">
        <ele>310</ele>
        <time>2015-06-17T14:13:36Z</time>
      </trkpt>
      <trkpt lat="43.38339" lon="6.15576">
        <ele>309.79998779297</ele>
        <time>2015-06-17T14:13:38Z</time>
      </trkpt>
      <trkpt lat="43.38337" lon="6.15573">
        <ele>310</ele>
        <time>2015-06-17T14:13:40Z</time>
      </trkpt>
      <trkpt lat="43.38335" lon="6.15572">
        <ele>310</ele>
        <time>2015-06-17T14:13:42Z</time>
      </trkpt>
      <trkpt lat="43.38334" lon="6.15571">
        <ele>310</ele>
        <time>2015-06-17T14:13:43Z</time>
      </trkpt>
      <trkpt lat="43.38333" lon="6.1557">
        <ele>310</ele>
        <time>2015-06-17T14:13:44Z</time>
      </trkpt>
      <trkpt lat="43.38333" lon="6.15569">
        <ele>309.79998779297</ele>
        <time>2015-06-17T14:13:46Z</time>
      </trkpt>
      <trkpt lat="43.38333" lon="6.1557">
        <ele>310</ele>
        <time>2015-06-17T14:13:48Z</time>
      </trkpt>
      <trkpt lat="43.38333" lon="6.1557">
        <ele>310</ele>
        <time>2015-06-17T14:13:50Z</time>
      </trkpt>
      <trkpt lat="43.38333" lon="6.1557">
        <ele>310.20001220703</ele>
        <time>2015-06-17T14:13:52Z</time>
      </trkpt>
      <trkpt lat="43.38333" lon="6.1557">
        <ele>310.20001220703</ele>
        <time>2015-06-17T14:13:54Z</time>
      </trkpt>
      <trkpt lat="43.38333" lon="6.1557">
        <ele>310.20001220703</ele>
        <time>2015-06-17T14:13:56Z</time>
      </trkpt>
      <trkpt lat="43.38333" lon="6.1557">
        <ele>310.20001220703</ele>
        <time>2015-06-17T14:13:58Z</time>
      </trkpt>
      <trkpt lat="43.38333" lon="6.1557">
        <ele>310.39999389648</ele>
        <time>2015-06-17T14:13:59Z</time>
      </trkpt>
      <trkpt lat="43.38333" lon="6.1557">
        <ele>310.39999389648</ele>
        <time>2015-06-17T14:14:00Z</time>
      </trkpt>
      <trkpt lat="43.38333" lon="6.1557">
        <ele>310.39999389648</ele>
        <time>2015-06-17T14:14:02Z</time>
      </trkpt>
      <trkpt lat="43.38333" lon="6.1557">
        <ele>310.39999389648</ele>
        <time>2015-06-17T14:14:04Z</time>
      </trkpt>
      <trkpt lat="43.38333" lon="6.1557">
        <ele>310.60000610352</ele>
        <time>2015-06-17T14:14:06Z</time>
      </trkpt>
      <trkpt lat="43.38333" lon="6.1557">
        <ele>310.60000610352</ele>
        <time>2015-06-17T14:14:08Z</time>
      </trkpt>
      <trkpt lat="43.38332" lon="6.15569">
        <ele>310.39999389648</ele>
        <time>2015-06-17T14:14:10Z</time>
      </trkpt>
      <trkpt lat="43.38332" lon="6.15569">
        <ele>310.20001220703</ele>
        <time>2015-06-17T14:14:12Z</time>
      </trkpt>
      <trkpt lat="43.38332" lon="6.15569">
        <ele>310.39999389648</ele>
        <time>2015-06-17T14:14:13Z</time>
      </trkpt>
      <trkpt lat="43.38332" lon="6.15569">
        <ele>310.39999389648</ele>
        <time>2015-06-17T14:14:14Z</time>
      </trkpt>
      <trkpt lat="43.38332" lon="6.15569">
        <ele>310.39999389648</ele>
        <time>2015-06-17T14:14:16Z</time>
      </trkpt>
      <trkpt lat="43.38332" lon="6.15569">
        <ele>310.39999389648</ele>
        <time>2015-06-17T14:14:18Z</time>
      </trkpt>
      <trkpt lat="43.38332" lon="6.15569">
        <ele>310.39999389648</ele>
        <time>2015-06-17T14:14:20Z</time>
      </trkpt>
      <trkpt lat="43.38332" lon="6.15569">
        <ele>310.60000610352</ele>
        <time>2015-06-17T14:14:22Z</time>
      </trkpt>
      <trkpt lat="43.38333" lon="6.15569">
        <ele>310.60000610352</ele>
        <time>2015-06-17T14:14:24Z</time>
      </trkpt>
      <trkpt lat="43.38333" lon="6.15569">
        <ele>310.60000610352</ele>
        <time>2015-06-17T14:14:26Z</time>
      </trkpt>
      <trkpt lat="43.38333" lon="6.15569">
        <ele>310.39999389648</ele>
        <time>2015-06-17T14:14:27Z</time>
      </trkpt>
      <trkpt lat="43.38333" lon="6.15569">
        <ele>310.60000610352</ele>
        <time>2015-06-17T14:14:28Z</time>
      </trkpt>
      <trkpt lat="43.38332" lon="6.15569">
        <ele>310.79998779297</ele>
        <time>2015-06-17T14:14:30Z</time>
      </trkpt>
      <trkpt lat="43.38333" lon="6.15569">
        <ele>310.79998779297</ele>
        <time>2015-06-17T14:14:32Z</time>
      </trkpt>
      <trkpt lat="43.38333" lon="6.15569">
        <ele>310.79998779297</ele>
        <time>2015-06-17T14:14:34Z</time>
      </trkpt>
      <trkpt lat="43.38332" lon="6.15569">
        <ele>310.79998779297</ele>
        <time>2015-06-17T14:14:36Z</time>
      </trkpt>
      <trkpt lat="43.38332" lon="6.15569">
        <ele>310.79998779297</ele>
        <time>2015-06-17T14:14:37Z</time>
      </trkpt>
      <trkpt lat="43.38332" lon="6.15568">
        <ele>310.79998779297</ele>
        <time>2015-06-17T14:14:38Z</time>
      </trkpt>
      <trkpt lat="43.38329" lon="6.15566">
        <ele>310.79998779297</ele>
        <time>2015-06-17T14:14:40Z</time>
      </trkpt>
      <trkpt lat="43.38328" lon="6.15564">
        <ele>310.79998779297</ele>
        <time>2015-06-17T14:14:41Z</time>
      </trkpt>
      <trkpt lat="43.38326" lon="6.15562">
        <ele>310.79998779297</ele>
        <time>2015-06-17T14:14:42Z</time>
      </trkpt>
      <trkpt lat="43.38323" lon="6.15557">
        <ele>310.60000610352</ele>
        <time>2015-06-17T14:14:44Z</time>
      </trkpt>
      <trkpt lat="43.38321" lon="6.15552">
        <ele>310.39999389648</ele>
        <time>2015-06-17T14:14:46Z</time>
      </trkpt>
      <trkpt lat="43.38319" lon="6.15548">
        <ele>310.39999389648</ele>
        <time>2015-06-17T14:14:47Z</time>
      </trkpt>
      <trkpt lat="43.38318" lon="6.15545">
        <ele>310.39999389648</ele>
        <time>2015-06-17T14:14:48Z</time>
      </trkpt>
      <trkpt lat="43.38316" lon="6.15539">
        <ele>310.20001220703</ele>
        <time>2015-06-17T14:14:50Z</time>
      </trkpt>
      <trkpt lat="43.38315" lon="6.15532">
        <ele>310</ele>
        <time>2015-06-17T14:14:52Z</time>
      </trkpt>
      <trkpt lat="43.38313" lon="6.15526">
        <ele>310</ele>
        <time>2015-06-17T14:14:54Z</time>
      </trkpt>
      <trkpt lat="43.38312" lon="6.1552">
        <ele>310</ele>
        <time>2015-06-17T14:14:56Z</time>
      </trkpt>
      <trkpt lat="43.38311" lon="6.15514">
        <ele>310</ele>
        <time>2015-06-17T14:14:58Z</time>
      </trkpt>
      <trkpt lat="43.38309" lon="6.15508">
        <ele>309.60000610352</ele>
        <time>2015-06-17T14:15:00Z</time>
      </trkpt>
      <trkpt lat="43.38308" lon="6.15505">
        <ele>309.60000610352</ele>
        <time>2015-06-17T14:15:01Z</time>
      </trkpt>
      <trkpt lat="43.38307" lon="6.15502">
        <ele>309.60000610352</ele>
        <time>2015-06-17T14:15:02Z</time>
      </trkpt>
      <trkpt lat="43.38305" lon="6.15494">
        <ele>309.60000610352</ele>
        <time>2015-06-17T14:15:04Z</time>
      </trkpt>
      <trkpt lat="43.38303" lon="6.15484">
        <ele>308.79998779297</ele>
        <time>2015-06-17T14:15:06Z</time>
      </trkpt>
      <trkpt lat="43.383" lon="6.15473">
        <ele>309.20001220703</ele>
        <time>2015-06-17T14:15:08Z</time>
      </trkpt>
      <trkpt lat="43.38298" lon="6.15462">
        <ele>309.39999389648</ele>
        <time>2015-06-17T14:15:10Z</time>
      </trkpt>
      <trkpt lat="43.38295" lon="6.15451">
        <ele>309.20001220703</ele>
        <time>2015-06-17T14:15:12Z</time>
      </trkpt>
      <trkpt lat="43.38294" lon="6.15445">
        <ele>309.20001220703</ele>
        <time>2015-06-17T14:15:13Z</time>
      </trkpt>
      <trkpt lat="43.38293" lon="6.15439">
        <ele>309</ele>
        <time>2015-06-17T14:15:14Z</time>
      </trkpt>
      <trkpt lat="43.38292" lon="6.15428">
        <ele>308.20001220703</ele>
        <time>2015-06-17T14:15:16Z</time>
      </trkpt>
      <trkpt lat="43.3829" lon="6.15417">
        <ele>308.60000610352</ele>
        <time>2015-06-17T14:15:18Z</time>
      </trkpt>
      <trkpt lat="43.38288" lon="6.15406">
        <ele>309.39999389648</ele>
        <time>2015-06-17T14:15:20Z</time>
      </trkpt>
      <trkpt lat="43.38287" lon="6.15395">
        <ele>308</ele>
        <time>2015-06-17T14:15:22Z</time>
      </trkpt>
      <trkpt lat="43.38286" lon="6.15389">
        <ele>308</ele>
        <time>2015-06-17T14:15:23Z</time>
      </trkpt>
      <trkpt lat="43.38286" lon="6.15383">
        <ele>308.20001220703</ele>
        <time>2015-06-17T14:15:24Z</time>
      </trkpt>
      <trkpt lat="43.38285" lon="6.15371">
        <ele>308.39999389648</ele>
        <time>2015-06-17T14:15:26Z</time>
      </trkpt>
      <trkpt lat="43.38284" lon="6.15359">
        <ele>308.20001220703</ele>
        <time>2015-06-17T14:15:28Z</time>
      </trkpt>
      <trkpt lat="43.38283" lon="6.15347">
        <ele>307.79998779297</ele>
        <time>2015-06-17T14:15:30Z</time>
      </trkpt>
      <trkpt lat="43.38283" lon="6.15334">
        <ele>308</ele>
        <time>2015-06-17T14:15:32Z</time>
      </trkpt>
      <trkpt lat="43.38283" lon="6.15321">
        <ele>306.60000610352</ele>
        <time>2015-06-17T14:15:34Z</time>
      </trkpt>
      <trkpt lat="43.38282" lon="6.15306">
        <ele>307.20001220703</ele>
        <time>2015-06-17T14:15:36Z</time>
      </trkpt>
      <trkpt lat="43.38282" lon="6.15299">
        <ele>307.79998779297</ele>
        <time>2015-06-17T14:15:37Z</time>
      </trkpt>
      <trkpt lat="43.38282" lon="6.15291">
        <ele>307</ele>
        <time>2015-06-17T14:15:38Z</time>
      </trkpt>
      <trkpt lat="43.38282" lon="6.15284">
        <ele>305.79998779297</ele>
        <time>2015-06-17T14:15:39Z</time>
      </trkpt>
      <trkpt lat="43.38283" lon="6.15277">
        <ele>306.39999389648</ele>
        <time>2015-06-17T14:15:40Z</time>
      </trkpt>
      <trkpt lat="43.38283" lon="6.1527">
        <ele>307</ele>
        <time>2015-06-17T14:15:41Z</time>
      </trkpt>
      <trkpt lat="43.38283" lon="6.15262">
        <ele>306.60000610352</ele>
        <time>2015-06-17T14:15:42Z</time>
      </trkpt>
      <trkpt lat="43.38284" lon="6.15248">
        <ele>306.39999389648</ele>
        <time>2015-06-17T14:15:44Z</time>
      </trkpt>
      <trkpt lat="43.38284" lon="6.15233">
        <ele>306.60000610352</ele>
        <time>2015-06-17T14:15:46Z</time>
      </trkpt>
      <trkpt lat="43.38284" lon="6.15217">
        <ele>305.79998779297</ele>
        <time>2015-06-17T14:15:48Z</time>
      </trkpt>
      <trkpt lat="43.38284" lon="6.15202">
        <ele>306</ele>
        <time>2015-06-17T14:15:50Z</time>
      </trkpt>
      <trkpt lat="43.38285" lon="6.15185">
        <ele>305.60000610352</ele>
        <time>2015-06-17T14:15:52Z</time>
      </trkpt>
      <trkpt lat="43.38285" lon="6.15168">
        <ele>305.20001220703</ele>
        <time>2015-06-17T14:15:54Z</time>
      </trkpt>
      <trkpt lat="43.38286" lon="6.15152">
        <ele>305.39999389648</ele>
        <time>2015-06-17T14:15:56Z</time>
      </trkpt>
      <trkpt lat="43.38287" lon="6.15135">
        <ele>305</ele>
        <time>2015-06-17T14:15:58Z</time>
      </trkpt>
      <trkpt lat="43.38288" lon="6.15118">
        <ele>305</ele>
        <time>2015-06-17T14:16:00Z</time>
      </trkpt>
      <trkpt lat="43.38288" lon="6.1511">
        <ele>304.79998779297</ele>
        <time>2015-06-17T14:16:01Z</time>
      </trkpt>
      <trkpt lat="43.38289" lon="6.15101">
        <ele>305.20001220703</ele>
        <time>2015-06-17T14:16:02Z</time>
      </trkpt>
      <trkpt lat="43.3829" lon="6.15084">
        <ele>305.39999389648</ele>
        <time>2015-06-17T14:16:04Z</time>
      </trkpt>
      <trkpt lat="43.38291" lon="6.15067">
        <ele>305</ele>
        <time>2015-06-17T14:16:06Z</time>
      </trkpt>
      <trkpt lat="43.38292" lon="6.1505">
        <ele>305</ele>
        <time>2015-06-17T14:16:08Z</time>
      </trkpt>
      <trkpt lat="43.38293" lon="6.15042">
        <ele>304.60000610352</ele>
        <time>2015-06-17T14:16:09Z</time>
      </trkpt>
      <trkpt lat="43.38293" lon="6.15032">
        <ele>304.39999389648</ele>
        <time>2015-06-17T14:16:10Z</time>
      </trkpt>
      <trkpt lat="43.38294" lon="6.15015">
        <ele>304.20001220703</ele>
        <time>2015-06-17T14:16:12Z</time>
      </trkpt>
      <trkpt lat="43.38296" lon="6.14997">
        <ele>304.60000610352</ele>
        <time>2015-06-17T14:16:14Z</time>
      </trkpt>
      <trkpt lat="43.38297" lon="6.14979">
        <ele>304.20001220703</ele>
        <time>2015-06-17T14:16:16Z</time>
      </trkpt>
      <trkpt lat="43.38295" lon="6.14961">
        <ele>303.79998779297</ele>
        <time>2015-06-17T14:16:18Z</time>
      </trkpt>
      <trkpt lat="43.38294" lon="6.14952">
        <ele>303.39999389648</ele>
        <time>2015-06-17T14:16:19Z</time>
      </trkpt>
      <trkpt lat="43.38293" lon="6.14943">
        <ele>303.20001220703</ele>
        <time>2015-06-17T14:16:20Z</time>
      </trkpt>
      <trkpt lat="43.3829" lon="6.14924">
        <ele>303.79998779297</ele>
        <time>2015-06-17T14:16:22Z</time>
      </trkpt>
      <trkpt lat="43.38288" lon="6.14906">
        <ele>303.79998779297</ele>
        <time>2015-06-17T14:16:24Z</time>
      </trkpt>
      <trkpt lat="43.38286" lon="6.14897">
        <ele>303.39999389648</ele>
        <time>2015-06-17T14:16:25Z</time>
      </trkpt>
      <trkpt lat="43.38285" lon="6.14888">
        <ele>303</ele>
        <time>2015-06-17T14:16:26Z</time>
      </trkpt>
      <trkpt lat="43.38281" lon="6.14872">
        <ele>303</ele>
        <time>2015-06-17T14:16:28Z</time>
      </trkpt>
      <trkpt lat="43.38277" lon="6.14856">
        <ele>303.20001220703</ele>
        <time>2015-06-17T14:16:30Z</time>
      </trkpt>
      <trkpt lat="43.38272" lon="6.14842">
        <ele>303.20001220703</ele>
        <time>2015-06-17T14:16:32Z</time>
      </trkpt>
      <trkpt lat="43.38266" lon="6.14828">
        <ele>303.39999389648</ele>
        <time>2015-06-17T14:16:34Z</time>
      </trkpt>
      <trkpt lat="43.38263" lon="6.14821">
        <ele>303.39999389648</ele>
        <time>2015-06-17T14:16:35Z</time>
      </trkpt>
      <trkpt lat="43.3826" lon="6.14815">
        <ele>303.39999389648</ele>
        <time>2015-06-17T14:16:36Z</time>
      </trkpt>
      <trkpt lat="43.38253" lon="6.14802">
        <ele>303.79998779297</ele>
        <time>2015-06-17T14:16:38Z</time>
      </trkpt>
      <trkpt lat="43.38247" lon="6.14789">
        <ele>303.79998779297</ele>
        <time>2015-06-17T14:16:40Z</time>
      </trkpt>
      <trkpt lat="43.38243" lon="6.14783">
        <ele>303.60000610352</ele>
        <time>2015-06-17T14:16:41Z</time>
      </trkpt>
      <trkpt lat="43.3824" lon="6.14777">
        <ele>303.79998779297</ele>
        <time>2015-06-17T14:16:42Z</time>
      </trkpt>
      <trkpt lat="43.38236" lon="6.14763">
        <ele>304</ele>
        <time>2015-06-17T14:16:44Z</time>
      </trkpt>
      <trkpt lat="43.38235" lon="6.14755">
        <ele>304</ele>
        <time>2015-06-17T14:16:45Z</time>
      </trkpt>
      <trkpt lat="43.38237" lon="6.14748">
        <ele>303.79998779297</ele>
        <time>2015-06-17T14:16:46Z</time>
      </trkpt>
      <trkpt lat="43.3824" lon="6.14733">
        <ele>304.39999389648</ele>
        <time>2015-06-17T14:16:48Z</time>
      </trkpt>
      <trkpt lat="43.38242" lon="6.14726">
        <ele>304.39999389648</ele>
        <time>2015-06-17T14:16:49Z</time>
      </trkpt>
      <trkpt lat="43.38244" lon="6.14719">
        <ele>304.39999389648</ele>
        <time>2015-06-17T14:16:50Z</time>
      </trkpt>
      <trkpt lat="43.38246" lon="6.14712">
        <ele>304.20001220703</ele>
        <time>2015-06-17T14:16:51Z</time>
      </trkpt>
      <trkpt lat="43.38248" lon="6.14705">
        <ele>304.20001220703</ele>
        <time>2015-06-17T14:16:52Z</time>
      </trkpt>
      <trkpt lat="43.38251" lon="6.14689">
        <ele>304.60000610352</ele>
        <time>2015-06-17T14:16:54Z</time>
      </trkpt>
      <trkpt lat="43.38254" lon="6.14673">
        <ele>304.39999389648</ele>
        <time>2015-06-17T14:16:56Z</time>
      </trkpt>
      <trkpt lat="43.38257" lon="6.14657">
        <ele>304.79998779297</ele>
        <time>2015-06-17T14:16:58Z</time>
      </trkpt>
      <trkpt lat="43.38261" lon="6.14642">
        <ele>304.39999389648</ele>
        <time>2015-06-17T14:17:00Z</time>
      </trkpt>
      <trkpt lat="43.38263" lon="6.14634">
        <ele>304.39999389648</ele>
        <time>2015-06-17T14:17:01Z</time>
      </trkpt>
      <trkpt lat="43.38264" lon="6.14627">
        <ele>304.39999389648</ele>
        <time>2015-06-17T14:17:02Z</time>
      </trkpt>
      <trkpt lat="43.38267" lon="6.14611">
        <ele>304.60000610352</ele>
        <time>2015-06-17T14:17:04Z</time>
      </trkpt>
      <trkpt lat="43.3827" lon="6.14596">
        <ele>304.39999389648</ele>
        <time>2015-06-17T14:17:06Z</time>
      </trkpt>
      <trkpt lat="43.38273" lon="6.14581">
        <ele>304.60000610352</ele>
        <time>2015-06-17T14:17:08Z</time>
      </trkpt>
      <trkpt lat="43.38274" lon="6.14574">
        <ele>304.60000610352</ele>
        <time>2015-06-17T14:17:09Z</time>
      </trkpt>
      <trkpt lat="43.38275" lon="6.14566">
        <ele>304.79998779297</ele>
        <time>2015-06-17T14:17:10Z</time>
      </trkpt>
      <trkpt lat="43.38276" lon="6.14551">
        <ele>304.79998779297</ele>
        <time>2015-06-17T14:17:12Z</time>
      </trkpt>
      <trkpt lat="43.38277" lon="6.14536">
        <ele>305</ele>
        <time>2015-06-17T14:17:14Z</time>
      </trkpt>
      <trkpt lat="43.38278" lon="6.14521">
        <ele>304.39999389648</ele>
        <time>2015-06-17T14:17:16Z</time>
      </trkpt>
      <trkpt lat="43.38279" lon="6.14514">
        <ele>304.20001220703</ele>
        <time>2015-06-17T14:17:17Z</time>
      </trkpt>
      <trkpt lat="43.3828" lon="6.14507">
        <ele>304.20001220703</ele>
        <time>2015-06-17T14:17:18Z</time>
      </trkpt>
      <trkpt lat="43.38283" lon="6.14492">
        <ele>304.60000610352</ele>
        <time>2015-06-17T14:17:20Z</time>
      </trkpt>
      <trkpt lat="43.38285" lon="6.14478">
        <ele>304.79998779297</ele>
        <time>2015-06-17T14:17:22Z</time>
      </trkpt>
      <trkpt lat="43.38288" lon="6.14464">
        <ele>305</ele>
        <time>2015-06-17T14:17:24Z</time>
      </trkpt>
      <trkpt lat="43.38289" lon="6.14457">
        <ele>305.20001220703</ele>
        <time>2015-06-17T14:17:25Z</time>
      </trkpt>
      <trkpt lat="43.3829" lon="6.1445">
        <ele>305.39999389648</ele>
        <time>2015-06-17T14:17:26Z</time>
      </trkpt>
      <trkpt lat="43.38293" lon="6.14438">
        <ele>305</ele>
        <time>2015-06-17T14:17:28Z</time>
      </trkpt>
      <trkpt lat="43.38295" lon="6.14425">
        <ele>305.20001220703</ele>
        <time>2015-06-17T14:17:30Z</time>
      </trkpt>
      <trkpt lat="43.38295" lon="6.14419">
        <ele>305.39999389648</ele>
        <time>2015-06-17T14:17:31Z</time>
      </trkpt>
      <trkpt lat="43.38296" lon="6.14413">
        <ele>305.79998779297</ele>
        <time>2015-06-17T14:17:32Z</time>
      </trkpt>
      <trkpt lat="43.38297" lon="6.144">
        <ele>306</ele>
        <time>2015-06-17T14:17:34Z</time>
      </trkpt>
      <trkpt lat="43.38298" lon="6.14387">
        <ele>305.79998779297</ele>
        <time>2015-06-17T14:17:36Z</time>
      </trkpt>
      <trkpt lat="43.38299" lon="6.14373">
        <ele>305.60000610352</ele>
        <time>2015-06-17T14:17:38Z</time>
      </trkpt>
      <trkpt lat="43.383" lon="6.14367">
        <ele>305.79998779297</ele>
        <time>2015-06-17T14:17:39Z</time>
      </trkpt>
      <trkpt lat="43.38301" lon="6.1436">
        <ele>305.60000610352</ele>
        <time>2015-06-17T14:17:40Z</time>
      </trkpt>
      <trkpt lat="43.38302" lon="6.14346">
        <ele>305.39999389648</ele>
        <time>2015-06-17T14:17:42Z</time>
      </trkpt>
      <trkpt lat="43.38303" lon="6.14333">
        <ele>305</ele>
        <time>2015-06-17T14:17:44Z</time>
      </trkpt>
      <trkpt lat="43.38305" lon="6.14319">
        <ele>304.79998779297</ele>
        <time>2015-06-17T14:17:46Z</time>
      </trkpt>
      <trkpt lat="43.38306" lon="6.14306">
        <ele>305.60000610352</ele>
        <time>2015-06-17T14:17:48Z</time>
      </trkpt>
      <trkpt lat="43.38308" lon="6.14292">
        <ele>306</ele>
        <time>2015-06-17T14:17:50Z</time>
      </trkpt>
      <trkpt lat="43.3831" lon="6.14279">
        <ele>305.39999389648</ele>
        <time>2015-06-17T14:17:52Z</time>
      </trkpt>
      <trkpt lat="43.3831" lon="6.14272">
        <ele>305.20001220703</ele>
        <time>2015-06-17T14:17:53Z</time>
      </trkpt>
      <trkpt lat="43.38311" lon="6.14265">
        <ele>305.39999389648</ele>
        <time>2015-06-17T14:17:54Z</time>
      </trkpt>
      <trkpt lat="43.38312" lon="6.14251">
        <ele>305.79998779297</ele>
        <time>2015-06-17T14:17:56Z</time>
      </trkpt>
      <trkpt lat="43.38313" lon="6.14238">
        <ele>305.20001220703</ele>
        <time>2015-06-17T14:17:58Z</time>
      </trkpt>
      <trkpt lat="43.38314" lon="6.14225">
        <ele>305.60000610352</ele>
        <time>2015-06-17T14:18:00Z</time>
      </trkpt>
      <trkpt lat="43.38316" lon="6.14218">
        <ele>305.60000610352</ele>
        <time>2015-06-17T14:18:01Z</time>
      </trkpt>
      <trkpt lat="43.38317" lon="6.14212">
        <ele>305.60000610352</ele>
        <time>2015-06-17T14:18:02Z</time>
      </trkpt>
      <trkpt lat="43.38319" lon="6.14199">
        <ele>305.60000610352</ele>
        <time>2015-06-17T14:18:04Z</time>
      </trkpt>
      <trkpt lat="43.38323" lon="6.14187">
        <ele>305.39999389648</ele>
        <time>2015-06-17T14:18:06Z</time>
      </trkpt>
      <trkpt lat="43.38327" lon="6.14174">
        <ele>306</ele>
        <time>2015-06-17T14:18:08Z</time>
      </trkpt>
      <trkpt lat="43.3833" lon="6.14163">
        <ele>306</ele>
        <time>2015-06-17T14:18:10Z</time>
      </trkpt>
      <trkpt lat="43.38332" lon="6.14158">
        <ele>306.20001220703</ele>
        <time>2015-06-17T14:18:11Z</time>
      </trkpt>
      <trkpt lat="43.38334" lon="6.14153">
        <ele>306.39999389648</ele>
        <time>2015-06-17T14:18:12Z</time>
      </trkpt>
      <trkpt lat="43.38335" lon="6.14148">
        <ele>306.60000610352</ele>
        <time>2015-06-17T14:18:13Z</time>
      </trkpt>
      <trkpt lat="43.38336" lon="6.14142">
        <ele>306.60000610352</ele>
        <time>2015-06-17T14:18:14Z</time>
      </trkpt>
      <trkpt lat="43.38339" lon="6.14132">
        <ele>306.79998779297</ele>
        <time>2015-06-17T14:18:16Z</time>
      </trkpt>
      <trkpt lat="43.38342" lon="6.14122">
        <ele>307.20001220703</ele>
        <time>2015-06-17T14:18:18Z</time>
      </trkpt>
      <trkpt lat="43.38344" lon="6.14114">
        <ele>307.39999389648</ele>
        <time>2015-06-17T14:18:20Z</time>
      </trkpt>
      <trkpt lat="43.38347" lon="6.14105">
        <ele>307.39999389648</ele>
        <time>2015-06-17T14:18:22Z</time>
      </trkpt>
      <trkpt lat="43.3835" lon="6.14095">
        <ele>307.60000610352</ele>
        <time>2015-06-17T14:18:24Z</time>
      </trkpt>
      <trkpt lat="43.38352" lon="6.1409">
        <ele>307.60000610352</ele>
        <time>2015-06-17T14:18:25Z</time>
      </trkpt>
      <trkpt lat="43.38353" lon="6.14085">
        <ele>307.60000610352</ele>
        <time>2015-06-17T14:18:26Z</time>
      </trkpt>
      <trkpt lat="43.38356" lon="6.14074">
        <ele>307.39999389648</ele>
        <time>2015-06-17T14:18:28Z</time>
      </trkpt>
      <trkpt lat="43.38357" lon="6.14068">
        <ele>307.39999389648</ele>
        <time>2015-06-17T14:18:29Z</time>
      </trkpt>
      <trkpt lat="43.38359" lon="6.14062">
        <ele>307.39999389648</ele>
        <time>2015-06-17T14:18:30Z</time>
      </trkpt>
      <trkpt lat="43.38363" lon="6.14052">
        <ele>307.20001220703</ele>
        <time>2015-06-17T14:18:32Z</time>
      </trkpt>
      <trkpt lat="43.38367" lon="6.14039">
        <ele>307.39999389648</ele>
        <time>2015-06-17T14:18:34Z</time>
      </trkpt>
      <trkpt lat="43.38371" lon="6.14027">
        <ele>307.39999389648</ele>
        <time>2015-06-17T14:18:36Z</time>
      </trkpt>
      <trkpt lat="43.38374" lon="6.14014">
        <ele>307.39999389648</ele>
        <time>2015-06-17T14:18:38Z</time>
      </trkpt>
      <trkpt lat="43.38378" lon="6.14001">
        <ele>307.20001220703</ele>
        <time>2015-06-17T14:18:40Z</time>
      </trkpt>
      <trkpt lat="43.38382" lon="6.13988">
        <ele>307</ele>
        <time>2015-06-17T14:18:42Z</time>
      </trkpt>
      <trkpt lat="43.38383" lon="6.13981">
        <ele>307</ele>
        <time>2015-06-17T14:18:43Z</time>
      </trkpt>
      <trkpt lat="43.38385" lon="6.13974">
        <ele>307</ele>
        <time>2015-06-17T14:18:44Z</time>
      </trkpt>
      <trkpt lat="43.38389" lon="6.13963">
        <ele>306.79998779297</ele>
        <time>2015-06-17T14:18:46Z</time>
      </trkpt>
      <trkpt lat="43.38393" lon="6.13951">
        <ele>307</ele>
        <time>2015-06-17T14:18:48Z</time>
      </trkpt>
      <trkpt lat="43.38397" lon="6.13939">
        <ele>306.79998779297</ele>
        <time>2015-06-17T14:18:50Z</time>
      </trkpt>
      <trkpt lat="43.38401" lon="6.13927">
        <ele>306.79998779297</ele>
        <time>2015-06-17T14:18:52Z</time>
      </trkpt>
      <trkpt lat="43.38403" lon="6.13915">
        <ele>307.39999389648</ele>
        <time>2015-06-17T14:18:54Z</time>
      </trkpt>
      <trkpt lat="43.38404" lon="6.13904">
        <ele>307.60000610352</ele>
        <time>2015-06-17T14:18:56Z</time>
      </trkpt>
      <trkpt lat="43.38404" lon="6.13891">
        <ele>307.79998779297</ele>
        <time>2015-06-17T14:18:58Z</time>
      </trkpt>
      <trkpt lat="43.38406" lon="6.13876">
        <ele>307.60000610352</ele>
        <time>2015-06-17T14:19:00Z</time>
      </trkpt>
      <trkpt lat="43.38408" lon="6.1386">
        <ele>307.39999389648</ele>
        <time>2015-06-17T14:19:02Z</time>
      </trkpt>
      <trkpt lat="43.3841" lon="6.13844">
        <ele>307.39999389648</ele>
        <time>2015-06-17T14:19:04Z</time>
      </trkpt>
      <trkpt lat="43.38412" lon="6.13828">
        <ele>307.39999389648</ele>
        <time>2015-06-17T14:19:06Z</time>
      </trkpt>
      <trkpt lat="43.38414" lon="6.13812">
        <ele>306.79998779297</ele>
        <time>2015-06-17T14:19:08Z</time>
      </trkpt>
      <trkpt lat="43.38415" lon="6.13804">
        <ele>306.79998779297</ele>
        <time>2015-06-17T14:19:09Z</time>
      </trkpt>
      <trkpt lat="43.38416" lon="6.13795">
        <ele>306.79998779297</ele>
        <time>2015-06-17T14:19:10Z</time>
      </trkpt>
      <trkpt lat="43.38418" lon="6.13779">
        <ele>306.60000610352</ele>
        <time>2015-06-17T14:19:12Z</time>
      </trkpt>
      <trkpt lat="43.3842" lon="6.13761">
        <ele>306.60000610352</ele>
        <time>2015-06-17T14:19:14Z</time>
      </trkpt>
      <trkpt lat="43.38422" lon="6.13744">
        <ele>306.60000610352</ele>
        <time>2015-06-17T14:19:16Z</time>
      </trkpt>
      <trkpt lat="43.38423" lon="6.13735">
        <ele>306.39999389648</ele>
        <time>2015-06-17T14:19:17Z</time>
      </trkpt>
      <trkpt lat="43.38424" lon="6.13726">
        <ele>306.20001220703</ele>
        <time>2015-06-17T14:19:18Z</time>
      </trkpt>
      <trkpt lat="43.38428" lon="6.13709">
        <ele>305.60000610352</ele>
        <time>2015-06-17T14:19:20Z</time>
      </trkpt>
      <trkpt lat="43.38431" lon="6.13693">
        <ele>305.60000610352</ele>
        <time>2015-06-17T14:19:22Z</time>
      </trkpt>
      <trkpt lat="43.38432" lon="6.13684">
        <ele>305.39999389648</ele>
        <time>2015-06-17T14:19:23Z</time>
      </trkpt>
      <trkpt lat="43.38435" lon="6.13675">
        <ele>305.20001220703</ele>
        <time>2015-06-17T14:19:24Z</time>
      </trkpt>
      <trkpt lat="43.38439" lon="6.13659">
        <ele>305</ele>
        <time>2015-06-17T14:19:26Z</time>
      </trkpt>
      <trkpt lat="43.38443" lon="6.13642">
        <ele>305.20001220703</ele>
        <time>2015-06-17T14:19:28Z</time>
      </trkpt>
      <trkpt lat="43.38444" lon="6.13633">
        <ele>305</ele>
        <time>2015-06-17T14:19:29Z</time>
      </trkpt>
      <trkpt lat="43.38445" lon="6.13624">
        <ele>305</ele>
        <time>2015-06-17T14:19:30Z</time>
      </trkpt>
      <trkpt lat="43.38446" lon="6.13614">
        <ele>304.39999389648</ele>
        <time>2015-06-17T14:19:31Z</time>
      </trkpt>
      <trkpt lat="43.38447" lon="6.13605">
        <ele>304.20001220703</ele>
        <time>2015-06-17T14:19:32Z</time>
      </trkpt>
      <trkpt lat="43.38451" lon="6.13587">
        <ele>304</ele>
        <time>2015-06-17T14:19:34Z</time>
      </trkpt>
      <trkpt lat="43.38455" lon="6.13569">
        <ele>303.60000610352</ele>
        <time>2015-06-17T14:19:36Z</time>
      </trkpt>
      <trkpt lat="43.38457" lon="6.1356">
        <ele>303.39999389648</ele>
        <time>2015-06-17T14:19:37Z</time>
      </trkpt>
      <trkpt lat="43.38459" lon="6.13551">
        <ele>303.20001220703</ele>
        <time>2015-06-17T14:19:38Z</time>
      </trkpt>
      <trkpt lat="43.38462" lon="6.13531">
        <ele>302.20001220703</ele>
        <time>2015-06-17T14:19:40Z</time>
      </trkpt>
      <trkpt lat="43.38464" lon="6.13521">
        <ele>301.79998779297</ele>
        <time>2015-06-17T14:19:41Z</time>
      </trkpt>
      <trkpt lat="43.38466" lon="6.13511">
        <ele>301.60000610352</ele>
        <time>2015-06-17T14:19:42Z</time>
      </trkpt>
      <trkpt lat="43.3847" lon="6.1349">
        <ele>301.20001220703</ele>
        <time>2015-06-17T14:19:44Z</time>
      </trkpt>
      <trkpt lat="43.38473" lon="6.13468">
        <ele>300</ele>
        <time>2015-06-17T14:19:46Z</time>
      </trkpt>
      <trkpt lat="43.38474" lon="6.13457">
        <ele>299.39999389648</ele>
        <time>2015-06-17T14:19:47Z</time>
      </trkpt>
      <trkpt lat="43.38475" lon="6.13446">
        <ele>299.20001220703</ele>
        <time>2015-06-17T14:19:48Z</time>
      </trkpt>
      <trkpt lat="43.38477" lon="6.13424">
        <ele>299.20001220703</ele>
        <time>2015-06-17T14:19:50Z</time>
      </trkpt>
      <trkpt lat="43.38478" lon="6.13413">
        <ele>299</ele>
        <time>2015-06-17T14:19:51Z</time>
      </trkpt>
      <trkpt lat="43.38479" lon="6.13402">
        <ele>298.39999389648</ele>
        <time>2015-06-17T14:19:52Z</time>
      </trkpt>
      <trkpt lat="43.3848" lon="6.1338">
        <ele>297.79998779297</ele>
        <time>2015-06-17T14:19:54Z</time>
      </trkpt>
      <trkpt lat="43.3848" lon="6.13369">
        <ele>296.60000610352</ele>
        <time>2015-06-17T14:19:55Z</time>
      </trkpt>
      <trkpt lat="43.38481" lon="6.13358">
        <ele>296.20001220703</ele>
        <time>2015-06-17T14:19:56Z</time>
      </trkpt>
      <trkpt lat="43.38481" lon="6.13338">
        <ele>296.20001220703</ele>
        <time>2015-06-17T14:19:58Z</time>
      </trkpt>
      <trkpt lat="43.38482" lon="6.13329">
        <ele>296.39999389648</ele>
        <time>2015-06-17T14:19:59Z</time>
      </trkpt>
      <trkpt lat="43.38482" lon="6.1332">
        <ele>296.60000610352</ele>
        <time>2015-06-17T14:20:00Z</time>
      </trkpt>
      <trkpt lat="43.38482" lon="6.13303">
        <ele>296.79998779297</ele>
        <time>2015-06-17T14:20:02Z</time>
      </trkpt>
      <trkpt lat="43.38482" lon="6.13287">
        <ele>297.20001220703</ele>
        <time>2015-06-17T14:20:04Z</time>
      </trkpt>
      <trkpt lat="43.38482" lon="6.13279">
        <ele>297</ele>
        <time>2015-06-17T14:20:05Z</time>
      </trkpt>
      <trkpt lat="43.38482" lon="6.1327">
        <ele>296.79998779297</ele>
        <time>2015-06-17T14:20:06Z</time>
      </trkpt>
      <trkpt lat="43.38482" lon="6.13253">
        <ele>296.60000610352</ele>
        <time>2015-06-17T14:20:08Z</time>
      </trkpt>
      <trkpt lat="43.38482" lon="6.13237">
        <ele>296.79998779297</ele>
        <time>2015-06-17T14:20:10Z</time>
      </trkpt>
      <trkpt lat="43.38483" lon="6.13221">
        <ele>296.79998779297</ele>
        <time>2015-06-17T14:20:12Z</time>
      </trkpt>
      <trkpt lat="43.38484" lon="6.13213">
        <ele>296.79998779297</ele>
        <time>2015-06-17T14:20:13Z</time>
      </trkpt>
      <trkpt lat="43.38485" lon="6.13205">
        <ele>296.60000610352</ele>
        <time>2015-06-17T14:20:14Z</time>
      </trkpt>
      <trkpt lat="43.38486" lon="6.1319">
        <ele>296.79998779297</ele>
        <time>2015-06-17T14:20:16Z</time>
      </trkpt>
      <trkpt lat="43.38488" lon="6.13173">
        <ele>296.60000610352</ele>
        <time>2015-06-17T14:20:18Z</time>
      </trkpt>
      <trkpt lat="43.38489" lon="6.13164">
        <ele>296.20001220703</ele>
        <time>2015-06-17T14:20:19Z</time>
      </trkpt>
      <trkpt lat="43.3849" lon="6.13155">
        <ele>296</ele>
        <time>2015-06-17T14:20:20Z</time>
      </trkpt>
      <trkpt lat="43.38492" lon="6.13137">
        <ele>295.60000610352</ele>
        <time>2015-06-17T14:20:22Z</time>
      </trkpt>
      <trkpt lat="43.38493" lon="6.13117">
        <ele>295</ele>
        <time>2015-06-17T14:20:24Z</time>
      </trkpt>
      <trkpt lat="43.38494" lon="6.13098">
        <ele>294.39999389648</ele>
        <time>2015-06-17T14:20:26Z</time>
      </trkpt>
      <trkpt lat="43.38496" lon="6.13079">
        <ele>294.79998779297</ele>
        <time>2015-06-17T14:20:28Z</time>
      </trkpt>
      <trkpt lat="43.38498" lon="6.13062">
        <ele>294.39999389648</ele>
        <time>2015-06-17T14:20:30Z</time>
      </trkpt>
      <trkpt lat="43.38499" lon="6.13045">
        <ele>294.20001220703</ele>
        <time>2015-06-17T14:20:32Z</time>
      </trkpt>
      <trkpt lat="43.38502" lon="6.1303">
        <ele>294</ele>
        <time>2015-06-17T14:20:34Z</time>
      </trkpt>
      <trkpt lat="43.38505" lon="6.13014">
        <ele>294.60000610352</ele>
        <time>2015-06-17T14:20:36Z</time>
      </trkpt>
      <trkpt lat="43.38509" lon="6.12997">
        <ele>294.60000610352</ele>
        <time>2015-06-17T14:20:38Z</time>
      </trkpt>
      <trkpt lat="43.38511" lon="6.12989">
        <ele>294.60000610352</ele>
        <time>2015-06-17T14:20:39Z</time>
      </trkpt>
      <trkpt lat="43.38512" lon="6.1298">
        <ele>294.39999389648</ele>
        <time>2015-06-17T14:20:40Z</time>
      </trkpt>
      <trkpt lat="43.38517" lon="6.12963">
        <ele>294.60000610352</ele>
        <time>2015-06-17T14:20:42Z</time>
      </trkpt>
      <trkpt lat="43.38521" lon="6.12946">
        <ele>294.60000610352</ele>
        <time>2015-06-17T14:20:44Z</time>
      </trkpt>
      <trkpt lat="43.38525" lon="6.12928">
        <ele>294.79998779297</ele>
        <time>2015-06-17T14:20:46Z</time>
      </trkpt>
      <trkpt lat="43.38528" lon="6.12911">
        <ele>294.60000610352</ele>
        <time>2015-06-17T14:20:48Z</time>
      </trkpt>
      <trkpt lat="43.38532" lon="6.12893">
        <ele>294.60000610352</ele>
        <time>2015-06-17T14:20:50Z</time>
      </trkpt>
      <trkpt lat="43.38533" lon="6.12884">
        <ele>294.60000610352</ele>
        <time>2015-06-17T14:20:51Z</time>
      </trkpt>
      <trkpt lat="43.38535" lon="6.12875">
        <ele>294.79998779297</ele>
        <time>2015-06-17T14:20:52Z</time>
      </trkpt>
      <trkpt lat="43.38537" lon="6.12858">
        <ele>294.79998779297</ele>
        <time>2015-06-17T14:20:54Z</time>
      </trkpt>
      <trkpt lat="43.3854" lon="6.12841">
        <ele>294.60000610352</ele>
        <time>2015-06-17T14:20:56Z</time>
      </trkpt>
      <trkpt lat="43.38543" lon="6.12824">
        <ele>294.39999389648</ele>
        <time>2015-06-17T14:20:58Z</time>
      </trkpt>
      <trkpt lat="43.38546" lon="6.12808">
        <ele>294.60000610352</ele>
        <time>2015-06-17T14:21:00Z</time>
      </trkpt>
      <trkpt lat="43.38548" lon="6.12792">
        <ele>294</ele>
        <time>2015-06-17T14:21:02Z</time>
      </trkpt>
      <trkpt lat="43.3855" lon="6.12776">
        <ele>294</ele>
        <time>2015-06-17T14:21:04Z</time>
      </trkpt>
      <trkpt lat="43.38553" lon="6.12761">
        <ele>294</ele>
        <time>2015-06-17T14:21:06Z</time>
      </trkpt>
      <trkpt lat="43.38555" lon="6.12747">
        <ele>294</ele>
        <time>2015-06-17T14:21:08Z</time>
      </trkpt>
      <trkpt lat="43.38558" lon="6.12735">
        <ele>293.79998779297</ele>
        <time>2015-06-17T14:21:10Z</time>
      </trkpt>
      <trkpt lat="43.38559" lon="6.12724">
        <ele>294</ele>
        <time>2015-06-17T14:21:12Z</time>
      </trkpt>
      <trkpt lat="43.3856" lon="6.12718">
        <ele>294.20001220703</ele>
        <time>2015-06-17T14:21:14Z</time>
      </trkpt>
      <trkpt lat="43.3856" lon="6.12717">
        <ele>294.20001220703</ele>
        <time>2015-06-17T14:21:15Z</time>
      </trkpt>
      <trkpt lat="43.38561" lon="6.12716">
        <ele>294</ele>
        <time>2015-06-17T14:21:16Z</time>
      </trkpt>
      <trkpt lat="43.38561" lon="6.12715">
        <ele>293.79998779297</ele>
        <time>2015-06-17T14:21:17Z</time>
      </trkpt>
      <trkpt lat="43.38561" lon="6.12713">
        <ele>293.79998779297</ele>
        <time>2015-06-17T14:21:18Z</time>
      </trkpt>
      <trkpt lat="43.38562" lon="6.12709">
        <ele>294</ele>
        <time>2015-06-17T14:21:20Z</time>
      </trkpt>
      <trkpt lat="43.38562" lon="6.12704">
        <ele>293.79998779297</ele>
        <time>2015-06-17T14:21:22Z</time>
      </trkpt>
      <trkpt lat="43.38563" lon="6.12699">
        <ele>293.79998779297</ele>
        <time>2015-06-17T14:21:24Z</time>
      </trkpt>
      <trkpt lat="43.38564" lon="6.12693">
        <ele>293.60000610352</ele>
        <time>2015-06-17T14:21:26Z</time>
      </trkpt>
      <trkpt lat="43.38565" lon="6.12686">
        <ele>293.60000610352</ele>
        <time>2015-06-17T14:21:28Z</time>
      </trkpt>
      <trkpt lat="43.38567" lon="6.12679">
        <ele>293.60000610352</ele>
        <time>2015-06-17T14:21:30Z</time>
      </trkpt>
      <trkpt lat="43.38568" lon="6.12671">
        <ele>293.60000610352</ele>
        <time>2015-06-17T14:21:32Z</time>
      </trkpt>
      <trkpt lat="43.38568" lon="6.12668">
        <ele>293.60000610352</ele>
        <time>2015-06-17T14:21:33Z</time>
      </trkpt>
      <trkpt lat="43.38568" lon="6.12664">
        <ele>293.79998779297</ele>
        <time>2015-06-17T14:21:34Z</time>
      </trkpt>
      <trkpt lat="43.3857" lon="6.12656">
        <ele>293.79998779297</ele>
        <time>2015-06-17T14:21:36Z</time>
      </trkpt>
      <trkpt lat="43.38571" lon="6.12646">
        <ele>293.60000610352</ele>
        <time>2015-06-17T14:21:38Z</time>
      </trkpt>
      <trkpt lat="43.38572" lon="6.12636">
        <ele>293.39999389648</ele>
        <time>2015-06-17T14:21:40Z</time>
      </trkpt>
      <trkpt lat="43.38573" lon="6.12627">
        <ele>293.39999389648</ele>
        <time>2015-06-17T14:21:42Z</time>
      </trkpt>
      <trkpt lat="43.38574" lon="6.1262">
        <ele>293.60000610352</ele>
        <time>2015-06-17T14:21:44Z</time>
      </trkpt>
      <trkpt lat="43.38575" lon="6.12617">
        <ele>293.60000610352</ele>
        <time>2015-06-17T14:21:45Z</time>
      </trkpt>
      <trkpt lat="43.38576" lon="6.12615">
        <ele>293.39999389648</ele>
        <time>2015-06-17T14:21:46Z</time>
      </trkpt>
      <trkpt lat="43.38577" lon="6.12615">
        <ele>293.20001220703</ele>
        <time>2015-06-17T14:21:47Z</time>
      </trkpt>
      <trkpt lat="43.38578" lon="6.12616">
        <ele>293</ele>
        <time>2015-06-17T14:21:48Z</time>
      </trkpt>
      <trkpt lat="43.38579" lon="6.12618">
        <ele>292.79998779297</ele>
        <time>2015-06-17T14:21:49Z</time>
      </trkpt>
      <trkpt lat="43.38579" lon="6.1262">
        <ele>292.60000610352</ele>
        <time>2015-06-17T14:21:50Z</time>
      </trkpt>
      <trkpt lat="43.38578" lon="6.12622">
        <ele>292.39999389648</ele>
        <time>2015-06-17T14:21:51Z</time>
      </trkpt>
      <trkpt lat="43.38578" lon="6.12626">
        <ele>292.20001220703</ele>
        <time>2015-06-17T14:21:52Z</time>
      </trkpt>
      <trkpt lat="43.38577" lon="6.1263">
        <ele>292</ele>
        <time>2015-06-17T14:21:53Z</time>
      </trkpt>
      <trkpt lat="43.38577" lon="6.12635">
        <ele>292</ele>
        <time>2015-06-17T14:21:54Z</time>
      </trkpt>
      <trkpt lat="43.38577" lon="6.12646">
        <ele>291.20001220703</ele>
        <time>2015-06-17T14:21:56Z</time>
      </trkpt>
      <trkpt lat="43.38577" lon="6.12652">
        <ele>291</ele>
        <time>2015-06-17T14:21:57Z</time>
      </trkpt>
      <trkpt lat="43.38577" lon="6.12659">
        <ele>291</ele>
        <time>2015-06-17T14:21:58Z</time>
      </trkpt>
      <trkpt lat="43.38577" lon="6.12665">
        <ele>290.79998779297</ele>
        <time>2015-06-17T14:21:59Z</time>
      </trkpt>
      <trkpt lat="43.38577" lon="6.12672">
        <ele>290.39999389648</ele>
        <time>2015-06-17T14:22:00Z</time>
      </trkpt>
      <trkpt lat="43.38577" lon="6.12684">
        <ele>290.20001220703</ele>
        <time>2015-06-17T14:22:02Z</time>
      </trkpt>
      <trkpt lat="43.38579" lon="6.12694">
        <ele>290.39999389648</ele>
        <time>2015-06-17T14:22:04Z</time>
      </trkpt>
      <trkpt lat="43.3858" lon="6.12698">
        <ele>290.20001220703</ele>
        <time>2015-06-17T14:22:05Z</time>
      </trkpt>
      <trkpt lat="43.38583" lon="6.12703">
        <ele>290.20001220703</ele>
        <time>2015-06-17T14:22:06Z</time>
      </trkpt>
      <trkpt lat="43.38586" lon="6.12706">
        <ele>290</ele>
        <time>2015-06-17T14:22:07Z</time>
      </trkpt>
      <trkpt lat="43.38589" lon="6.12708">
        <ele>289.79998779297</ele>
        <time>2015-06-17T14:22:08Z</time>
      </trkpt>
      <trkpt lat="43.38592" lon="6.1271">
        <ele>289.60000610352</ele>
        <time>2015-06-17T14:22:09Z</time>
      </trkpt>
      <trkpt lat="43.38594" lon="6.12711">
        <ele>289.60000610352</ele>
        <time>2015-06-17T14:22:10Z</time>
      </trkpt>
      <trkpt lat="43.386" lon="6.12712">
        <ele>289.79998779297</ele>
        <time>2015-06-17T14:22:12Z</time>
      </trkpt>
      <trkpt lat="43.38606" lon="6.12714">
        <ele>289.79998779297</ele>
        <time>2015-06-17T14:22:14Z</time>
      </trkpt>
      <trkpt lat="43.38612" lon="6.12715">
        <ele>289.60000610352</ele>
        <time>2015-06-17T14:22:16Z</time>
      </trkpt>
      <trkpt lat="43.38618" lon="6.12716">
        <ele>290</ele>
        <time>2015-06-17T14:22:18Z</time>
      </trkpt>
      <trkpt lat="43.38624" lon="6.12718">
        <ele>289.79998779297</ele>
        <time>2015-06-17T14:22:20Z</time>
      </trkpt>
      <trkpt lat="43.38631" lon="6.12719">
        <ele>289.60000610352</ele>
        <time>2015-06-17T14:22:22Z</time>
      </trkpt>
      <trkpt lat="43.38637" lon="6.12722">
        <ele>289.79998779297</ele>
        <time>2015-06-17T14:22:24Z</time>
      </trkpt>
      <trkpt lat="43.38642" lon="6.12727">
        <ele>290.20001220703</ele>
        <time>2015-06-17T14:22:26Z</time>
      </trkpt>
      <trkpt lat="43.38643" lon="6.12731">
        <ele>290.39999389648</ele>
        <time>2015-06-17T14:22:27Z</time>
      </trkpt>
      <trkpt lat="43.38643" lon="6.12735">
        <ele>290.60000610352</ele>
        <time>2015-06-17T14:22:28Z</time>
      </trkpt>
      <trkpt lat="43.38643" lon="6.12743">
        <ele>290.20001220703</ele>
        <time>2015-06-17T14:22:30Z</time>
      </trkpt>
      <trkpt lat="43.38644" lon="6.12751">
        <ele>290.20001220703</ele>
        <time>2015-06-17T14:22:32Z</time>
      </trkpt>
      <trkpt lat="43.38646" lon="6.12761">
        <ele>290.39999389648</ele>
        <time>2015-06-17T14:22:34Z</time>
      </trkpt>
      <trkpt lat="43.38649" lon="6.1277">
        <ele>290.60000610352</ele>
        <time>2015-06-17T14:22:36Z</time>
      </trkpt>
      <trkpt lat="43.38651" lon="6.12778">
        <ele>290.79998779297</ele>
        <time>2015-06-17T14:22:38Z</time>
      </trkpt>
      <trkpt lat="43.38654" lon="6.12785">
        <ele>290.60000610352</ele>
        <time>2015-06-17T14:22:40Z</time>
      </trkpt>
      <trkpt lat="43.38659" lon="6.12793">
        <ele>290.60000610352</ele>
        <time>2015-06-17T14:22:42Z</time>
      </trkpt>
      <trkpt lat="43.38663" lon="6.12798">
        <ele>291</ele>
        <time>2015-06-17T14:22:44Z</time>
      </trkpt>
      <trkpt lat="43.38668" lon="6.12802">
        <ele>291.39999389648</ele>
        <time>2015-06-17T14:22:46Z</time>
      </trkpt>
      <trkpt lat="43.3867" lon="6.12804">
        <ele>291.39999389648</ele>
        <time>2015-06-17T14:22:47Z</time>
      </trkpt>
      <trkpt lat="43.38673" lon="6.12806">
        <ele>291.39999389648</ele>
        <time>2015-06-17T14:22:48Z</time>
      </trkpt>
      <trkpt lat="43.38678" lon="6.1281">
        <ele>291.60000610352</ele>
        <time>2015-06-17T14:22:50Z</time>
      </trkpt>
      <trkpt lat="43.38683" lon="6.12815">
        <ele>291.60000610352</ele>
        <time>2015-06-17T14:22:52Z</time>
      </trkpt>
      <trkpt lat="43.38688" lon="6.12819">
        <ele>291.79998779297</ele>
        <time>2015-06-17T14:22:54Z</time>
      </trkpt>
      <trkpt lat="43.38693" lon="6.12823">
        <ele>291.60000610352</ele>
        <time>2015-06-17T14:22:56Z</time>
      </trkpt>
      <trkpt lat="43.38698" lon="6.12827">
        <ele>291.39999389648</ele>
        <time>2015-06-17T14:22:58Z</time>
      </trkpt>
      <trkpt lat="43.38701" lon="6.12829">
        <ele>291.60000610352</ele>
        <time>2015-06-17T14:22:59Z</time>
      </trkpt>
      <trkpt lat="43.38704" lon="6.12831">
        <ele>291.60000610352</ele>
        <time>2015-06-17T14:23:00Z</time>
      </trkpt>
      <trkpt lat="43.3871" lon="6.12835">
        <ele>291.60000610352</ele>
        <time>2015-06-17T14:23:02Z</time>
      </trkpt>
      <trkpt lat="43.38717" lon="6.12838">
        <ele>291.79998779297</ele>
        <time>2015-06-17T14:23:04Z</time>
      </trkpt>
      <trkpt lat="43.38724" lon="6.1284">
        <ele>291.60000610352</ele>
        <time>2015-06-17T14:23:06Z</time>
      </trkpt>
      <trkpt lat="43.3873" lon="6.1284">
        <ele>292.20001220703</ele>
        <time>2015-06-17T14:23:08Z</time>
      </trkpt>
      <trkpt lat="43.38735" lon="6.12841">
        <ele>292.39999389648</ele>
        <time>2015-06-17T14:23:10Z</time>
      </trkpt>
      <trkpt lat="43.38741" lon="6.12845">
        <ele>292.20001220703</ele>
        <time>2015-06-17T14:23:12Z</time>
      </trkpt>
      <trkpt lat="43.38748" lon="6.12846">
        <ele>292.39999389648</ele>
        <time>2015-06-17T14:23:14Z</time>
      </trkpt>
      <trkpt lat="43.38752" lon="6.12846">
        <ele>292.39999389648</ele>
        <time>2015-06-17T14:23:15Z</time>
      </trkpt>
      <trkpt lat="43.38755" lon="6.12845">
        <ele>292.20001220703</ele>
        <time>2015-06-17T14:23:16Z</time>
      </trkpt>
      <trkpt lat="43.38761" lon="6.12841">
        <ele>292</ele>
        <time>2015-06-17T14:23:18Z</time>
      </trkpt>
      <trkpt lat="43.38765" lon="6.12837">
        <ele>292.60000610352</ele>
        <time>2015-06-17T14:23:20Z</time>
      </trkpt>
      <trkpt lat="43.38769" lon="6.12832">
        <ele>293</ele>
        <time>2015-06-17T14:23:22Z</time>
      </trkpt>
      <trkpt lat="43.38771" lon="6.1283">
        <ele>293.60000610352</ele>
        <time>2015-06-17T14:23:23Z</time>
      </trkpt>
      <trkpt lat="43.38772" lon="6.12827">
        <ele>293.79998779297</ele>
        <time>2015-06-17T14:23:24Z</time>
      </trkpt>
      <trkpt lat="43.38775" lon="6.12822">
        <ele>293.79998779297</ele>
        <time>2015-06-17T14:23:26Z</time>
      </trkpt>
      <trkpt lat="43.38778" lon="6.12817">
        <ele>293.79998779297</ele>
        <time>2015-06-17T14:23:28Z</time>
      </trkpt>
      <trkpt lat="43.3878" lon="6.12811">
        <ele>294</ele>
        <time>2015-06-17T14:23:30Z</time>
      </trkpt>
      <trkpt lat="43.38782" lon="6.12806">
        <ele>294.20001220703</ele>
        <time>2015-06-17T14:23:32Z</time>
      </trkpt>
      <trkpt lat="43.38784" lon="6.12801">
        <ele>294.20001220703</ele>
        <time>2015-06-17T14:23:34Z</time>
      </trkpt>
      <trkpt lat="43.38785" lon="6.12797">
        <ele>294.60000610352</ele>
        <time>2015-06-17T14:23:36Z</time>
      </trkpt>
      <trkpt lat="43.38786" lon="6.12794">
        <ele>294.79998779297</ele>
        <time>2015-06-17T14:23:37Z</time>
      </trkpt>
      <trkpt lat="43.38787" lon="6.12791">
        <ele>294.79998779297</ele>
        <time>2015-06-17T14:23:38Z</time>
      </trkpt>
      <trkpt lat="43.38789" lon="6.12786">
        <ele>295.20001220703</ele>
        <time>2015-06-17T14:23:40Z</time>
      </trkpt>
      <trkpt lat="43.38792" lon="6.12781">
        <ele>295.20001220703</ele>
        <time>2015-06-17T14:23:42Z</time>
      </trkpt>
      <trkpt lat="43.38794" lon="6.12777">
        <ele>295.60000610352</ele>
        <time>2015-06-17T14:23:44Z</time>
      </trkpt>
      <trkpt lat="43.38796" lon="6.12775">
        <ele>295.79998779297</ele>
        <time>2015-06-17T14:23:45Z</time>
      </trkpt>
      <trkpt lat="43.38797" lon="6.12773">
        <ele>295.60000610352</ele>
        <time>2015-06-17T14:23:46Z</time>
      </trkpt>
      <trkpt lat="43.38799" lon="6.12768">
        <ele>295.60000610352</ele>
        <time>2015-06-17T14:23:48Z</time>
      </trkpt>
      <trkpt lat="43.38801" lon="6.12763">
        <ele>295.79998779297</ele>
        <time>2015-06-17T14:23:50Z</time>
      </trkpt>
      <trkpt lat="43.38801" lon="6.1276">
        <ele>295.79998779297</ele>
        <time>2015-06-17T14:23:51Z</time>
      </trkpt>
      <trkpt lat="43.38802" lon="6.12757">
        <ele>296</ele>
        <time>2015-06-17T14:23:52Z</time>
      </trkpt>
      <trkpt lat="43.38803" lon="6.12752">
        <ele>296.39999389648</ele>
        <time>2015-06-17T14:23:54Z</time>
      </trkpt>
      <trkpt lat="43.38803" lon="6.12747">
        <ele>296.79998779297</ele>
        <time>2015-06-17T14:23:56Z</time>
      </trkpt>
      <trkpt lat="43.38804" lon="6.12745">
        <ele>297</ele>
        <time>2015-06-17T14:23:57Z</time>
      </trkpt>
      <trkpt lat="43.38805" lon="6.12742">
        <ele>297</ele>
        <time>2015-06-17T14:23:58Z</time>
      </trkpt>
      <trkpt lat="43.38807" lon="6.12737">
        <ele>297</ele>
        <time>2015-06-17T14:24:00Z</time>
      </trkpt>
      <trkpt lat="43.38807" lon="6.12731">
        <ele>297</ele>
        <time>2015-06-17T14:24:02Z</time>
      </trkpt>
      <trkpt lat="43.38808" lon="6.12726">
        <ele>297.20001220703</ele>
        <time>2015-06-17T14:24:04Z</time>
      </trkpt>
      <trkpt lat="43.3881" lon="6.1272">
        <ele>297</ele>
        <time>2015-06-17T14:24:06Z</time>
      </trkpt>
      <trkpt lat="43.38812" lon="6.12713">
        <ele>297.60000610352</ele>
        <time>2015-06-17T14:24:08Z</time>
      </trkpt>
      <trkpt lat="43.38815" lon="6.12705">
        <ele>297.79998779297</ele>
        <time>2015-06-17T14:24:10Z</time>
      </trkpt>
      <trkpt lat="43.38816" lon="6.12703">
        <ele>298.60000610352</ele>
        <time>2015-06-17T14:24:11Z</time>
      </trkpt>
      <trkpt lat="43.38818" lon="6.12702">
        <ele>298.79998779297</ele>
        <time>2015-06-17T14:24:12Z</time>
      </trkpt>
      <trkpt lat="43.38821" lon="6.12698">
        <ele>299.20001220703</ele>
        <time>2015-06-17T14:24:14Z</time>
      </trkpt>
      <trkpt lat="43.38822" lon="6.12691">
        <ele>298.79998779297</ele>
        <time>2015-06-17T14:24:16Z</time>
      </trkpt>
      <trkpt lat="43.38823" lon="6.12685">
        <ele>299.20001220703</ele>
        <time>2015-06-17T14:24:18Z</time>
      </trkpt>
      <trkpt lat="43.38824" lon="6.12679">
        <ele>299.20001220703</ele>
        <time>2015-06-17T14:24:20Z</time>
      </trkpt>
      <trkpt lat="43.38825" lon="6.12672">
        <ele>299.20001220703</ele>
        <time>2015-06-17T14:24:22Z</time>
      </trkpt>
      <trkpt lat="43.38826" lon="6.12666">
        <ele>299.39999389648</ele>
        <time>2015-06-17T14:24:24Z</time>
      </trkpt>
      <trkpt lat="43.38826" lon="6.12663">
        <ele>299.39999389648</ele>
        <time>2015-06-17T14:24:25Z</time>
      </trkpt>
      <trkpt lat="43.38827" lon="6.1266">
        <ele>299.20001220703</ele>
        <time>2015-06-17T14:24:26Z</time>
      </trkpt>
      <trkpt lat="43.38828" lon="6.12654">
        <ele>299.20001220703</ele>
        <time>2015-06-17T14:24:28Z</time>
      </trkpt>
      <trkpt lat="43.38828" lon="6.12648">
        <ele>299.39999389648</ele>
        <time>2015-06-17T14:24:30Z</time>
      </trkpt>
      <trkpt lat="43.38829" lon="6.12642">
        <ele>299.60000610352</ele>
        <time>2015-06-17T14:24:32Z</time>
      </trkpt>
      <trkpt lat="43.38829" lon="6.12639">
        <ele>299.79998779297</ele>
        <time>2015-06-17T14:24:33Z</time>
      </trkpt>
      <trkpt lat="43.38829" lon="6.12636">
        <ele>300.20001220703</ele>
        <time>2015-06-17T14:24:34Z</time>
      </trkpt>
      <trkpt lat="43.38828" lon="6.1263">
        <ele>300.39999389648</ele>
        <time>2015-06-17T14:24:36Z</time>
      </trkpt>
      <trkpt lat="43.38827" lon="6.12624">
        <ele>300.79998779297</ele>
        <time>2015-06-17T14:24:38Z</time>
      </trkpt>
      <trkpt lat="43.38827" lon="6.12621">
        <ele>301</ele>
        <time>2015-06-17T14:24:39Z</time>
      </trkpt>
      <trkpt lat="43.38827" lon="6.12619">
        <ele>301.20001220703</ele>
        <time>2015-06-17T14:24:40Z</time>
      </trkpt>
      <trkpt lat="43.38828" lon="6.12615">
        <ele>301.79998779297</ele>
        <time>2015-06-17T14:24:42Z</time>
      </trkpt>
      <trkpt lat="43.38829" lon="6.12612">
        <ele>301.79998779297</ele>
        <time>2015-06-17T14:24:43Z</time>
      </trkpt>
      <trkpt lat="43.38829" lon="6.12609">
        <ele>301.79998779297</ele>
        <time>2015-06-17T14:24:44Z</time>
      </trkpt>
      <trkpt lat="43.38831" lon="6.12603">
        <ele>301.79998779297</ele>
        <time>2015-06-17T14:24:46Z</time>
      </trkpt>
      <trkpt lat="43.38832" lon="6.12597">
        <ele>301.79998779297</ele>
        <time>2015-06-17T14:24:48Z</time>
      </trkpt>
      <trkpt lat="43.38834" lon="6.12591">
        <ele>302</ele>
        <time>2015-06-17T14:24:50Z</time>
      </trkpt>
      <trkpt lat="43.38834" lon="6.12588">
        <ele>302.20001220703</ele>
        <time>2015-06-17T14:24:51Z</time>
      </trkpt>
      <trkpt lat="43.38835" lon="6.12585">
        <ele>302.20001220703</ele>
        <time>2015-06-17T14:24:52Z</time>
      </trkpt>
      <trkpt lat="43.38835" lon="6.12579">
        <ele>302.20001220703</ele>
        <time>2015-06-17T14:24:54Z</time>
      </trkpt>
      <trkpt lat="43.38836" lon="6.12573">
        <ele>302.60000610352</ele>
        <time>2015-06-17T14:24:56Z</time>
      </trkpt>
      <trkpt lat="43.38837" lon="6.12568">
        <ele>302.79998779297</ele>
        <time>2015-06-17T14:24:58Z</time>
      </trkpt>
      <trkpt lat="43.38838" lon="6.12563">
        <ele>303</ele>
        <time>2015-06-17T14:25:00Z</time>
      </trkpt>
      <trkpt lat="43.38839" lon="6.12558">
        <ele>303</ele>
        <time>2015-06-17T14:25:02Z</time>
      </trkpt>
      <trkpt lat="43.38839" lon="6.12555">
        <ele>303</ele>
        <time>2015-06-17T14:25:03Z</time>
      </trkpt>
      <trkpt lat="43.3884" lon="6.12553">
        <ele>303.20001220703</ele>
        <time>2015-06-17T14:25:04Z</time>
      </trkpt>
      <trkpt lat="43.3884" lon="6.1255">
        <ele>303.39999389648</ele>
        <time>2015-06-17T14:25:05Z</time>
      </trkpt>
      <trkpt lat="43.38841" lon="6.12547">
        <ele>303.60000610352</ele>
        <time>2015-06-17T14:25:06Z</time>
      </trkpt>
      <trkpt lat="43.38842" lon="6.12542">
        <ele>303.60000610352</ele>
        <time>2015-06-17T14:25:08Z</time>
      </trkpt>
      <trkpt lat="43.38843" lon="6.12536">
        <ele>303.79998779297</ele>
        <time>2015-06-17T14:25:10Z</time>
      </trkpt>
      <trkpt lat="43.38844" lon="6.1253">
        <ele>304</ele>
        <time>2015-06-17T14:25:12Z</time>
      </trkpt>
      <trkpt lat="43.38845" lon="6.12527">
        <ele>304.20001220703</ele>
        <time>2015-06-17T14:25:13Z</time>
      </trkpt>
      <trkpt lat="43.38846" lon="6.12524">
        <ele>304.20001220703</ele>
        <time>2015-06-17T14:25:14Z</time>
      </trkpt>
      <trkpt lat="43.38847" lon="6.12519">
        <ele>304.39999389648</ele>
        <time>2015-06-17T14:25:16Z</time>
      </trkpt>
      <trkpt lat="43.38848" lon="6.12513">
        <ele>304.39999389648</ele>
        <time>2015-06-17T14:25:18Z</time>
      </trkpt>
      <trkpt lat="43.38848" lon="6.12508">
        <ele>304.60000610352</ele>
        <time>2015-06-17T14:25:20Z</time>
      </trkpt>
      <trkpt lat="43.3885" lon="6.12502">
        <ele>304.79998779297</ele>
        <time>2015-06-17T14:25:22Z</time>
      </trkpt>
      <trkpt lat="43.3885" lon="6.12497">
        <ele>305.20001220703</ele>
        <time>2015-06-17T14:25:24Z</time>
      </trkpt>
      <trkpt lat="43.3885" lon="6.12494">
        <ele>305.20001220703</ele>
        <time>2015-06-17T14:25:25Z</time>
      </trkpt>
      <trkpt lat="43.3885" lon="6.12492">
        <ele>305.39999389648</ele>
        <time>2015-06-17T14:25:26Z</time>
      </trkpt>
      <trkpt lat="43.38851" lon="6.12487">
        <ele>305.60000610352</ele>
        <time>2015-06-17T14:25:28Z</time>
      </trkpt>
      <trkpt lat="43.38851" lon="6.12483">
        <ele>306.20001220703</ele>
        <time>2015-06-17T14:25:30Z</time>
      </trkpt>
      <trkpt lat="43.38851" lon="6.12479">
        <ele>306.39999389648</ele>
        <time>2015-06-17T14:25:32Z</time>
      </trkpt>
      <trkpt lat="43.38852" lon="6.12475">
        <ele>306.79998779297</ele>
        <time>2015-06-17T14:25:34Z</time>
      </trkpt>
      <trkpt lat="43.38853" lon="6.12473">
        <ele>306.60000610352</ele>
        <time>2015-06-17T14:25:35Z</time>
      </trkpt>
      <trkpt lat="43.38854" lon="6.12472">
        <ele>306.60000610352</ele>
        <time>2015-06-17T14:25:36Z</time>
      </trkpt>
      <trkpt lat="43.38856" lon="6.12469">
        <ele>307</ele>
        <time>2015-06-17T14:25:38Z</time>
      </trkpt>
      <trkpt lat="43.38857" lon="6.12467">
        <ele>307</ele>
        <time>2015-06-17T14:25:39Z</time>
      </trkpt>
      <trkpt lat="43.38857" lon="6.12464">
        <ele>307</ele>
        <time>2015-06-17T14:25:40Z</time>
      </trkpt>
      <trkpt lat="43.38858" lon="6.12458">
        <ele>307</ele>
        <time>2015-06-17T14:25:42Z</time>
      </trkpt>
      <trkpt lat="43.3886" lon="6.12451">
        <ele>307</ele>
        <time>2015-06-17T14:25:44Z</time>
      </trkpt>
      <trkpt lat="43.38862" lon="6.12443">
        <ele>307</ele>
        <time>2015-06-17T14:25:46Z</time>
      </trkpt>
      <trkpt lat="43.38865" lon="6.12435">
        <ele>306.79998779297</ele>
        <time>2015-06-17T14:25:48Z</time>
      </trkpt>
      <trkpt lat="43.38867" lon="6.12426">
        <ele>306.79998779297</ele>
        <time>2015-06-17T14:25:50Z</time>
      </trkpt>
      <trkpt lat="43.38869" lon="6.12417">
        <ele>306.79998779297</ele>
        <time>2015-06-17T14:25:52Z</time>
      </trkpt>
      <trkpt lat="43.38872" lon="6.12407">
        <ele>306.39999389648</ele>
        <time>2015-06-17T14:25:54Z</time>
      </trkpt>
      <trkpt lat="43.38875" lon="6.12397">
        <ele>306.39999389648</ele>
        <time>2015-06-17T14:25:56Z</time>
      </trkpt>
      <trkpt lat="43.38878" lon="6.12386">
        <ele>305.60000610352</ele>
        <time>2015-06-17T14:25:58Z</time>
      </trkpt>
      <trkpt lat="43.38882" lon="6.12375">
        <ele>305.60000610352</ele>
        <time>2015-06-17T14:26:00Z</time>
      </trkpt>
      <trkpt lat="43.38885" lon="6.12363">
        <ele>305.20001220703</ele>
        <time>2015-06-17T14:26:02Z</time>
      </trkpt>
      <trkpt lat="43.38887" lon="6.12356">
        <ele>305</ele>
        <time>2015-06-17T14:26:03Z</time>
      </trkpt>
      <trkpt lat="43.38888" lon="6.1235">
        <ele>304.60000610352</ele>
        <time>2015-06-17T14:26:04Z</time>
      </trkpt>
      <trkpt lat="43.3889" lon="6.12336">
        <ele>304.79998779297</ele>
        <time>2015-06-17T14:26:06Z</time>
      </trkpt>
      <trkpt lat="43.38892" lon="6.12329">
        <ele>305</ele>
        <time>2015-06-17T14:26:07Z</time>
      </trkpt>
      <trkpt lat="43.38893" lon="6.12322">
        <ele>305</ele>
        <time>2015-06-17T14:26:08Z</time>
      </trkpt>
      <trkpt lat="43.38894" lon="6.12315">
        <ele>304.60000610352</ele>
        <time>2015-06-17T14:26:09Z</time>
      </trkpt>
      <trkpt lat="43.38896" lon="6.12308">
        <ele>304.39999389648</ele>
        <time>2015-06-17T14:26:10Z</time>
      </trkpt>
      <trkpt lat="43.389" lon="6.12294">
        <ele>304.20001220703</ele>
        <time>2015-06-17T14:26:12Z</time>
      </trkpt>
      <trkpt lat="43.38901" lon="6.12287">
        <ele>304.20001220703</ele>
        <time>2015-06-17T14:26:13Z</time>
      </trkpt>
      <trkpt lat="43.38902" lon="6.1228">
        <ele>304</ele>
        <time>2015-06-17T14:26:14Z</time>
      </trkpt>
      <trkpt lat="43.38903" lon="6.12273">
        <ele>304</ele>
        <time>2015-06-17T14:26:15Z</time>
      </trkpt>
      <trkpt lat="43.38904" lon="6.12265">
        <ele>304.20001220703</ele>
        <time>2015-06-17T14:26:16Z</time>
      </trkpt>
      <trkpt lat="43.38904" lon="6.12258">
        <ele>304</ele>
        <time>2015-06-17T14:26:17Z</time>
      </trkpt>
      <trkpt lat="43.38906" lon="6.12251">
        <ele>303.79998779297</ele>
        <time>2015-06-17T14:26:18Z</time>
      </trkpt>
      <trkpt lat="43.38911" lon="6.12239">
        <ele>303.39999389648</ele>
        <time>2015-06-17T14:26:20Z</time>
      </trkpt>
      <trkpt lat="43.38914" lon="6.12233">
        <ele>303.39999389648</ele>
        <time>2015-06-17T14:26:21Z</time>
      </trkpt>
      <trkpt lat="43.38917" lon="6.12227">
        <ele>303.60000610352</ele>
        <time>2015-06-17T14:26:22Z</time>
      </trkpt>
      <trkpt lat="43.38921" lon="6.12213">
        <ele>303.79998779297</ele>
        <time>2015-06-17T14:26:24Z</time>
      </trkpt>
      <trkpt lat="43.38922" lon="6.12206">
        <ele>303.20001220703</ele>
        <time>2015-06-17T14:26:25Z</time>
      </trkpt>
      <trkpt lat="43.38923" lon="6.12198">
        <ele>302.39999389648</ele>
        <time>2015-06-17T14:26:26Z</time>
      </trkpt>
      <trkpt lat="43.38927" lon="6.12183">
        <ele>302</ele>
        <time>2015-06-17T14:26:28Z</time>
      </trkpt>
      <trkpt lat="43.38929" lon="6.12176">
        <ele>301.79998779297</ele>
        <time>2015-06-17T14:26:29Z</time>
      </trkpt>
      <trkpt lat="43.38932" lon="6.12169">
        <ele>301.79998779297</ele>
        <time>2015-06-17T14:26:30Z</time>
      </trkpt>
      <trkpt lat="43.38936" lon="6.12154">
        <ele>301.20001220703</ele>
        <time>2015-06-17T14:26:32Z</time>
      </trkpt>
      <trkpt lat="43.3894" lon="6.12139">
        <ele>301</ele>
        <time>2015-06-17T14:26:34Z</time>
      </trkpt>
      <trkpt lat="43.38943" lon="6.12123">
        <ele>301</ele>
        <time>2015-06-17T14:26:36Z</time>
      </trkpt>
      <trkpt lat="43.38948" lon="6.12108">
        <ele>300.79998779297</ele>
        <time>2015-06-17T14:26:38Z</time>
      </trkpt>
      <trkpt lat="43.38952" lon="6.12093">
        <ele>300.20001220703</ele>
        <time>2015-06-17T14:26:40Z</time>
      </trkpt>
      <trkpt lat="43.38956" lon="6.12078">
        <ele>299.79998779297</ele>
        <time>2015-06-17T14:26:42Z</time>
      </trkpt>
      <trkpt lat="43.38961" lon="6.12063">
        <ele>299.60000610352</ele>
        <time>2015-06-17T14:26:44Z</time>
      </trkpt>
      <trkpt lat="43.38964" lon="6.12048">
        <ele>299.60000610352</ele>
        <time>2015-06-17T14:26:46Z</time>
      </trkpt>
      <trkpt lat="43.38965" lon="6.12041">
        <ele>299.60000610352</ele>
        <time>2015-06-17T14:26:47Z</time>
      </trkpt>
      <trkpt lat="43.38967" lon="6.12033">
        <ele>299.39999389648</ele>
        <time>2015-06-17T14:26:48Z</time>
      </trkpt>
      <trkpt lat="43.38971" lon="6.12018">
        <ele>299.39999389648</ele>
        <time>2015-06-17T14:26:50Z</time>
      </trkpt>
      <trkpt lat="43.38972" lon="6.12011">
        <ele>299.20001220703</ele>
        <time>2015-06-17T14:26:51Z</time>
      </trkpt>
      <trkpt lat="43.38972" lon="6.12004">
        <ele>299.20001220703</ele>
        <time>2015-06-17T14:26:52Z</time>
      </trkpt>
      <trkpt lat="43.38973" lon="6.11999">
        <ele>299.39999389648</ele>
        <time>2015-06-17T14:26:53Z</time>
      </trkpt>
      <trkpt lat="43.38973" lon="6.11995">
        <ele>299.60000610352</ele>
        <time>2015-06-17T14:26:54Z</time>
      </trkpt>
      <trkpt lat="43.38972" lon="6.11988">
        <ele>299.60000610352</ele>
        <time>2015-06-17T14:26:56Z</time>
      </trkpt>
      <trkpt lat="43.38971" lon="6.11985">
        <ele>299.39999389648</ele>
        <time>2015-06-17T14:26:57Z</time>
      </trkpt>
      <trkpt lat="43.38969" lon="6.11982">
        <ele>299.20001220703</ele>
        <time>2015-06-17T14:26:58Z</time>
      </trkpt>
      <trkpt lat="43.38968" lon="6.11976">
        <ele>299.79998779297</ele>
        <time>2015-06-17T14:27:00Z</time>
      </trkpt>
      <trkpt lat="43.38968" lon="6.11971">
        <ele>300.20001220703</ele>
        <time>2015-06-17T14:27:02Z</time>
      </trkpt>
      <trkpt lat="43.38968" lon="6.11969">
        <ele>300.20001220703</ele>
        <time>2015-06-17T14:27:03Z</time>
      </trkpt>
      <trkpt lat="43.38969" lon="6.11965">
        <ele>300.20001220703</ele>
        <time>2015-06-17T14:27:04Z</time>
      </trkpt>
      <trkpt lat="43.38971" lon="6.11956">
        <ele>300.20001220703</ele>
        <time>2015-06-17T14:27:06Z</time>
      </trkpt>
      <trkpt lat="43.38972" lon="6.1195">
        <ele>300.20001220703</ele>
        <time>2015-06-17T14:27:07Z</time>
      </trkpt>
      <trkpt lat="43.38973" lon="6.11945">
        <ele>300</ele>
        <time>2015-06-17T14:27:08Z</time>
      </trkpt>
      <trkpt lat="43.38976" lon="6.11932">
        <ele>299.39999389648</ele>
        <time>2015-06-17T14:27:10Z</time>
      </trkpt>
      <trkpt lat="43.38976" lon="6.11926">
        <ele>299.20001220703</ele>
        <time>2015-06-17T14:27:11Z</time>
      </trkpt>
      <trkpt lat="43.38977" lon="6.11918">
        <ele>299</ele>
        <time>2015-06-17T14:27:12Z</time>
      </trkpt>
      <trkpt lat="43.38978" lon="6.11911">
        <ele>298.79998779297</ele>
        <time>2015-06-17T14:27:13Z</time>
      </trkpt>
      <trkpt lat="43.38979" lon="6.11904">
        <ele>298.60000610352</ele>
        <time>2015-06-17T14:27:14Z</time>
      </trkpt>
      <trkpt lat="43.38979" lon="6.1189">
        <ele>298.39999389648</ele>
        <time>2015-06-17T14:27:16Z</time>
      </trkpt>
      <trkpt lat="43.3898" lon="6.11877">
        <ele>298.79998779297</ele>
        <time>2015-06-17T14:27:18Z</time>
      </trkpt>
      <trkpt lat="43.38981" lon="6.1187">
        <ele>299</ele>
        <time>2015-06-17T14:27:19Z</time>
      </trkpt>
      <trkpt lat="43.38982" lon="6.11863">
        <ele>298.60000610352</ele>
        <time>2015-06-17T14:27:20Z</time>
      </trkpt>
      <trkpt lat="43.38984" lon="6.11856">
        <ele>298.20001220703</ele>
        <time>2015-06-17T14:27:21Z</time>
      </trkpt>
      <trkpt lat="43.38985" lon="6.11849">
        <ele>297.60000610352</ele>
        <time>2015-06-17T14:27:22Z</time>
      </trkpt>
      <trkpt lat="43.38987" lon="6.11836">
        <ele>297.60000610352</ele>
        <time>2015-06-17T14:27:24Z</time>
      </trkpt>
      <trkpt lat="43.3899" lon="6.11821">
        <ele>297</ele>
        <time>2015-06-17T14:27:26Z</time>
      </trkpt>
      <trkpt lat="43.38991" lon="6.11815">
        <ele>296.79998779297</ele>
        <time>2015-06-17T14:27:27Z</time>
      </trkpt>
      <trkpt lat="43.38993" lon="6.11807">
        <ele>296.39999389648</ele>
        <time>2015-06-17T14:27:28Z</time>
      </trkpt>
      <trkpt lat="43.38995" lon="6.118">
        <ele>296.20001220703</ele>
        <time>2015-06-17T14:27:29Z</time>
      </trkpt>
      <trkpt lat="43.38997" lon="6.11793">
        <ele>296.20001220703</ele>
        <time>2015-06-17T14:27:30Z</time>
      </trkpt>
      <trkpt lat="43.38998" lon="6.11785">
        <ele>296.20001220703</ele>
        <time>2015-06-17T14:27:31Z</time>
      </trkpt>
      <trkpt lat="43.38999" lon="6.11778">
        <ele>296.20001220703</ele>
        <time>2015-06-17T14:27:32Z</time>
      </trkpt>
      <trkpt lat="43.39" lon="6.1177">
        <ele>296.20001220703</ele>
        <time>2015-06-17T14:27:33Z</time>
      </trkpt>
      <trkpt lat="43.39001" lon="6.11762">
        <ele>296</ele>
        <time>2015-06-17T14:27:34Z</time>
      </trkpt>
      <trkpt lat="43.39001" lon="6.11754">
        <ele>296.20001220703</ele>
        <time>2015-06-17T14:27:35Z</time>
      </trkpt>
      <trkpt lat="43.39001" lon="6.11746">
        <ele>296</ele>
        <time>2015-06-17T14:27:36Z</time>
      </trkpt>
      <trkpt lat="43.39001" lon="6.11738">
        <ele>296</ele>
        <time>2015-06-17T14:27:37Z</time>
      </trkpt>
      <trkpt lat="43.39001" lon="6.1173">
        <ele>296</ele>
        <time>2015-06-17T14:27:38Z</time>
      </trkpt>
      <trkpt lat="43.39005" lon="6.11716">
        <ele>295</ele>
        <time>2015-06-17T14:27:40Z</time>
      </trkpt>
      <trkpt lat="43.39007" lon="6.11709">
        <ele>294.79998779297</ele>
        <time>2015-06-17T14:27:41Z</time>
      </trkpt>
      <trkpt lat="43.3901" lon="6.11702">
        <ele>294.79998779297</ele>
        <time>2015-06-17T14:27:42Z</time>
      </trkpt>
      <trkpt lat="43.39012" lon="6.11695">
        <ele>294.79998779297</ele>
        <time>2015-06-17T14:27:43Z</time>
      </trkpt>
      <trkpt lat="43.39014" lon="6.11688">
        <ele>294.79998779297</ele>
        <time>2015-06-17T14:27:44Z</time>
      </trkpt>
      <trkpt lat="43.39017" lon="6.11673">
        <ele>294.60000610352</ele>
        <time>2015-06-17T14:27:46Z</time>
      </trkpt>
      <trkpt lat="43.39023" lon="6.1166">
        <ele>294.20001220703</ele>
        <time>2015-06-17T14:27:48Z</time>
      </trkpt>
      <trkpt lat="43.3903" lon="6.11647">
        <ele>293.60000610352</ele>
        <time>2015-06-17T14:27:50Z</time>
      </trkpt>
      <trkpt lat="43.39037" lon="6.11633">
        <ele>294</ele>
        <time>2015-06-17T14:27:52Z</time>
      </trkpt>
      <trkpt lat="43.39039" lon="6.11625">
        <ele>294.20001220703</ele>
        <time>2015-06-17T14:27:53Z</time>
      </trkpt>
      <trkpt lat="43.39042" lon="6.11618">
        <ele>294.20001220703</ele>
        <time>2015-06-17T14:27:54Z</time>
      </trkpt>
      <trkpt lat="43.39044" lon="6.1161">
        <ele>293.79998779297</ele>
        <time>2015-06-17T14:27:55Z</time>
      </trkpt>
      <trkpt lat="43.39045" lon="6.11602">
        <ele>293.60000610352</ele>
        <time>2015-06-17T14:27:56Z</time>
      </trkpt>
      <trkpt lat="43.39048" lon="6.11587">
        <ele>293.60000610352</ele>
        <time>2015-06-17T14:27:58Z</time>
      </trkpt>
      <trkpt lat="43.39051" lon="6.11572">
        <ele>293.79998779297</ele>
        <time>2015-06-17T14:28:00Z</time>
      </trkpt>
      <trkpt lat="43.39053" lon="6.11557">
        <ele>293.60000610352</ele>
        <time>2015-06-17T14:28:02Z</time>
      </trkpt>
      <trkpt lat="43.39055" lon="6.11543">
        <ele>294.20001220703</ele>
        <time>2015-06-17T14:28:04Z</time>
      </trkpt>
      <trkpt lat="43.39058" lon="6.11528">
        <ele>294.20001220703</ele>
        <time>2015-06-17T14:28:06Z</time>
      </trkpt>
      <trkpt lat="43.39061" lon="6.11513">
        <ele>294</ele>
        <time>2015-06-17T14:28:08Z</time>
      </trkpt>
      <trkpt lat="43.39063" lon="6.11497">
        <ele>294.39999389648</ele>
        <time>2015-06-17T14:28:10Z</time>
      </trkpt>
      <trkpt lat="43.39065" lon="6.11482">
        <ele>294.39999389648</ele>
        <time>2015-06-17T14:28:12Z</time>
      </trkpt>
      <trkpt lat="43.39066" lon="6.11467">
        <ele>294.20001220703</ele>
        <time>2015-06-17T14:28:14Z</time>
      </trkpt>
      <trkpt lat="43.39066" lon="6.11451">
        <ele>294</ele>
        <time>2015-06-17T14:28:16Z</time>
      </trkpt>
      <trkpt lat="43.39066" lon="6.11435">
        <ele>293.79998779297</ele>
        <time>2015-06-17T14:28:18Z</time>
      </trkpt>
      <trkpt lat="43.39066" lon="6.11427">
        <ele>293.60000610352</ele>
        <time>2015-06-17T14:28:19Z</time>
      </trkpt>
      <trkpt lat="43.39067" lon="6.1142">
        <ele>293.60000610352</ele>
        <time>2015-06-17T14:28:20Z</time>
      </trkpt>
      <trkpt lat="43.3907" lon="6.11405">
        <ele>293.60000610352</ele>
        <time>2015-06-17T14:28:22Z</time>
      </trkpt>
      <trkpt lat="43.39073" lon="6.11391">
        <ele>293.60000610352</ele>
        <time>2015-06-17T14:28:24Z</time>
      </trkpt>
      <trkpt lat="43.39074" lon="6.11384">
        <ele>293.79998779297</ele>
        <time>2015-06-17T14:28:25Z</time>
      </trkpt>
      <trkpt lat="43.39075" lon="6.11377">
        <ele>293.79998779297</ele>
        <time>2015-06-17T14:28:26Z</time>
      </trkpt>
      <trkpt lat="43.39077" lon="6.11363">
        <ele>293.79998779297</ele>
        <time>2015-06-17T14:28:28Z</time>
      </trkpt>
      <trkpt lat="43.39078" lon="6.11349">
        <ele>292.79998779297</ele>
        <time>2015-06-17T14:28:30Z</time>
      </trkpt>
      <trkpt lat="43.39079" lon="6.11336">
        <ele>292.60000610352</ele>
        <time>2015-06-17T14:28:32Z</time>
      </trkpt>
      <trkpt lat="43.39079" lon="6.11331">
        <ele>292.79998779297</ele>
        <time>2015-06-17T14:28:33Z</time>
      </trkpt>
      <trkpt lat="43.3908" lon="6.11327">
        <ele>292.79998779297</ele>
        <time>2015-06-17T14:28:34Z</time>
      </trkpt>
      <trkpt lat="43.39081" lon="6.11322">
        <ele>292.39999389648</ele>
        <time>2015-06-17T14:28:35Z</time>
      </trkpt>
      <trkpt lat="43.39081" lon="6.11318">
        <ele>292.39999389648</ele>
        <time>2015-06-17T14:28:36Z</time>
      </trkpt>
      <trkpt lat="43.39082" lon="6.11312">
        <ele>292.39999389648</ele>
        <time>2015-06-17T14:28:38Z</time>
      </trkpt>
      <trkpt lat="43.39082" lon="6.11307">
        <ele>292.39999389648</ele>
        <time>2015-06-17T14:28:40Z</time>
      </trkpt>
      <trkpt lat="43.39083" lon="6.11303">
        <ele>292.39999389648</ele>
        <time>2015-06-17T14:28:42Z</time>
      </trkpt>
      <trkpt lat="43.39083" lon="6.11302">
        <ele>292</ele>
        <time>2015-06-17T14:28:44Z</time>
      </trkpt>
      <trkpt lat="43.39083" lon="6.11301">
        <ele>292</ele>
        <time>2015-06-17T14:28:46Z</time>
      </trkpt>
      <trkpt lat="43.39084" lon="6.113">
        <ele>291.79998779297</ele>
        <time>2015-06-17T14:28:48Z</time>
      </trkpt>
      <trkpt lat="43.39084" lon="6.113">
        <ele>291.79998779297</ele>
        <time>2015-06-17T14:28:50Z</time>
      </trkpt>
      <trkpt lat="43.39084" lon="6.11299">
        <ele>291.79998779297</ele>
        <time>2015-06-17T14:28:52Z</time>
      </trkpt>
      <trkpt lat="43.39084" lon="6.113">
        <ele>291.60000610352</ele>
        <time>2015-06-17T14:28:54Z</time>
      </trkpt>
      <trkpt lat="43.39084" lon="6.113">
        <ele>291.39999389648</ele>
        <time>2015-06-17T14:28:55Z</time>
      </trkpt>
      <trkpt lat="43.39084" lon="6.113">
        <ele>291.39999389648</ele>
        <time>2015-06-17T14:28:56Z</time>
      </trkpt>
      <trkpt lat="43.39084" lon="6.113">
        <ele>291.39999389648</ele>
        <time>2015-06-17T14:28:58Z</time>
      </trkpt>
      <trkpt lat="43.39084" lon="6.11299">
        <ele>291.39999389648</ele>
        <time>2015-06-17T14:29:00Z</time>
      </trkpt>
      <trkpt lat="43.39084" lon="6.113">
        <ele>291.39999389648</ele>
        <time>2015-06-17T14:29:01Z</time>
      </trkpt>
      <trkpt lat="43.39084" lon="6.11299">
        <ele>291.39999389648</ele>
        <time>2015-06-17T14:29:02Z</time>
      </trkpt>
      <trkpt lat="43.39084" lon="6.11299">
        <ele>291.60000610352</ele>
        <time>2015-06-17T14:29:04Z</time>
      </trkpt>
      <trkpt lat="43.39084" lon="6.11299">
        <ele>291.60000610352</ele>
        <time>2015-06-17T14:29:06Z</time>
      </trkpt>
      <trkpt lat="43.39085" lon="6.11299">
        <ele>291.60000610352</ele>
        <time>2015-06-17T14:29:08Z</time>
      </trkpt>
      <trkpt lat="43.39085" lon="6.11299">
        <ele>291.60000610352</ele>
        <time>2015-06-17T14:29:10Z</time>
      </trkpt>
      <trkpt lat="43.39085" lon="6.11299">
        <ele>291.39999389648</ele>
        <time>2015-06-17T14:29:12Z</time>
      </trkpt>
      <trkpt lat="43.39085" lon="6.11299">
        <ele>291.60000610352</ele>
        <time>2015-06-17T14:29:14Z</time>
      </trkpt>
      <trkpt lat="43.39085" lon="6.11299">
        <ele>291.39999389648</ele>
        <time>2015-06-17T14:29:16Z</time>
      </trkpt>
      <trkpt lat="43.39085" lon="6.11299">
        <ele>291.39999389648</ele>
        <time>2015-06-17T14:29:18Z</time>
      </trkpt>
      <trkpt lat="43.39085" lon="6.11299">
        <ele>291.39999389648</ele>
        <time>2015-06-17T14:29:20Z</time>
      </trkpt>
      <trkpt lat="43.39085" lon="6.11299">
        <ele>291.20001220703</ele>
        <time>2015-06-17T14:29:22Z</time>
      </trkpt>
      <trkpt lat="43.39085" lon="6.11299">
        <ele>291.39999389648</ele>
        <time>2015-06-17T14:29:24Z</time>
      </trkpt>
      <trkpt lat="43.39085" lon="6.11299">
        <ele>291.20001220703</ele>
        <time>2015-06-17T14:29:26Z</time>
      </trkpt>
      <trkpt lat="43.39085" lon="6.11299">
        <ele>291.20001220703</ele>
        <time>2015-06-17T14:29:28Z</time>
      </trkpt>
      <trkpt lat="43.39085" lon="6.11299">
        <ele>291.39999389648</ele>
        <time>2015-06-17T14:29:30Z</time>
      </trkpt>
      <trkpt lat="43.39085" lon="6.11299">
        <ele>291.60000610352</ele>
        <time>2015-06-17T14:29:32Z</time>
      </trkpt>
      <trkpt lat="43.39085" lon="6.11299">
        <ele>291.60000610352</ele>
        <time>2015-06-17T14:29:34Z</time>
      </trkpt>
      <trkpt lat="43.39085" lon="6.11299">
        <ele>291.60000610352</ele>
        <time>2015-06-17T14:29:36Z</time>
      </trkpt>
      <trkpt lat="43.39085" lon="6.11299">
        <ele>291.60000610352</ele>
        <time>2015-06-17T14:29:38Z</time>
      </trkpt>
      <trkpt lat="43.39085" lon="6.11299">
        <ele>291.79998779297</ele>
        <time>2015-06-17T14:29:40Z</time>
      </trkpt>
      <trkpt lat="43.39085" lon="6.11299">
        <ele>291.79998779297</ele>
        <time>2015-06-17T14:29:42Z</time>
      </trkpt>
      <trkpt lat="43.39085" lon="6.11299">
        <ele>291.60000610352</ele>
        <time>2015-06-17T14:29:44Z</time>
      </trkpt>
      <trkpt lat="43.39085" lon="6.11299">
        <ele>291.79998779297</ele>
        <time>2015-06-17T14:29:46Z</time>
      </trkpt>
      <trkpt lat="43.39085" lon="6.11299">
        <ele>291.60000610352</ele>
        <time>2015-06-17T14:29:48Z</time>
      </trkpt>
      <trkpt lat="43.39085" lon="6.11299">
        <ele>291.79998779297</ele>
        <time>2015-06-17T14:29:50Z</time>
      </trkpt>
      <trkpt lat="43.39085" lon="6.11299">
        <ele>291.60000610352</ele>
        <time>2015-06-17T14:29:52Z</time>
      </trkpt>
      <trkpt lat="43.39085" lon="6.11299">
        <ele>291.60000610352</ele>
        <time>2015-06-17T14:29:54Z</time>
      </trkpt>
      <trkpt lat="43.39085" lon="6.11299">
        <ele>291.79998779297</ele>
        <time>2015-06-17T14:29:56Z</time>
      </trkpt>
      <trkpt lat="43.39085" lon="6.11299">
        <ele>291.60000610352</ele>
        <time>2015-06-17T14:29:58Z</time>
      </trkpt>
      <trkpt lat="43.39085" lon="6.11299">
        <ele>291.39999389648</ele>
        <time>2015-06-17T14:30:00Z</time>
      </trkpt>
      <trkpt lat="43.39085" lon="6.11299">
        <ele>291.39999389648</ele>
        <time>2015-06-17T14:30:02Z</time>
      </trkpt>
      <trkpt lat="43.39085" lon="6.11299">
        <ele>291.39999389648</ele>
        <time>2015-06-17T14:30:04Z</time>
      </trkpt>
      <trkpt lat="43.39085" lon="6.11299">
        <ele>291.39999389648</ele>
        <time>2015-06-17T14:30:06Z</time>
      </trkpt>
      <trkpt lat="43.39085" lon="6.11299">
        <ele>291.39999389648</ele>
        <time>2015-06-17T14:30:08Z</time>
      </trkpt>
      <trkpt lat="43.39085" lon="6.11299">
        <ele>291.20001220703</ele>
        <time>2015-06-17T14:30:10Z</time>
      </trkpt>
      <trkpt lat="43.39085" lon="6.11299">
        <ele>291.20001220703</ele>
        <time>2015-06-17T14:30:12Z</time>
      </trkpt>
      <trkpt lat="43.39085" lon="6.11299">
        <ele>291.20001220703</ele>
        <time>2015-06-17T14:30:14Z</time>
      </trkpt>
      <trkpt lat="43.39085" lon="6.11299">
        <ele>291.20001220703</ele>
        <time>2015-06-17T14:30:16Z</time>
      </trkpt>
      <trkpt lat="43.39085" lon="6.11299">
        <ele>291.20001220703</ele>
        <time>2015-06-17T14:30:18Z</time>
      </trkpt>
      <trkpt lat="43.39085" lon="6.11299">
        <ele>291.20001220703</ele>
        <time>2015-06-17T14:30:20Z</time>
      </trkpt>
      <trkpt lat="43.39085" lon="6.11299">
        <ele>291.20001220703</ele>
        <time>2015-06-17T14:30:22Z</time>
      </trkpt>
      <trkpt lat="43.39088" lon="6.11298">
        <ele>291.20001220703</ele>
        <time>2015-06-17T14:30:24Z</time>
      </trkpt>
      <trkpt lat="43.39089" lon="6.11296">
        <ele>291.20001220703</ele>
        <time>2015-06-17T14:30:25Z</time>
      </trkpt>
      <trkpt lat="43.39091" lon="6.11294">
        <ele>290.60000610352</ele>
        <time>2015-06-17T14:30:26Z</time>
      </trkpt>
      <trkpt lat="43.39095" lon="6.11286">
        <ele>290</ele>
        <time>2015-06-17T14:30:28Z</time>
      </trkpt>
      <trkpt lat="43.39097" lon="6.11282">
        <ele>290</ele>
        <time>2015-06-17T14:30:29Z</time>
      </trkpt>
      <trkpt lat="43.39098" lon="6.11278">
        <ele>289.79998779297</ele>
        <time>2015-06-17T14:30:30Z</time>
      </trkpt>
      <trkpt lat="43.39101" lon="6.11272">
        <ele>289.60000610352</ele>
        <time>2015-06-17T14:30:32Z</time>
      </trkpt>
      <trkpt lat="43.39102" lon="6.11269">
        <ele>289.79998779297</ele>
        <time>2015-06-17T14:30:33Z</time>
      </trkpt>
      <trkpt lat="43.39103" lon="6.11265">
        <ele>289.79998779297</ele>
        <time>2015-06-17T14:30:34Z</time>
      </trkpt>
      <trkpt lat="43.39104" lon="6.11259">
        <ele>290.20001220703</ele>
        <time>2015-06-17T14:30:36Z</time>
      </trkpt>
      <trkpt lat="43.39105" lon="6.11253">
        <ele>290.20001220703</ele>
        <time>2015-06-17T14:30:38Z</time>
      </trkpt>
      <trkpt lat="43.39105" lon="6.1125">
        <ele>290.20001220703</ele>
        <time>2015-06-17T14:30:39Z</time>
      </trkpt>
      <trkpt lat="43.39106" lon="6.11246">
        <ele>290.39999389648</ele>
        <time>2015-06-17T14:30:40Z</time>
      </trkpt>
      <trkpt lat="43.39108" lon="6.11238">
        <ele>290.60000610352</ele>
        <time>2015-06-17T14:30:42Z</time>
      </trkpt>
      <trkpt lat="43.39109" lon="6.11228">
        <ele>291</ele>
        <time>2015-06-17T14:30:44Z</time>
      </trkpt>
      <trkpt lat="43.39109" lon="6.11224">
        <ele>290.79998779297</ele>
        <time>2015-06-17T14:30:45Z</time>
      </trkpt>
      <trkpt lat="43.39109" lon="6.11219">
        <ele>290.79998779297</ele>
        <time>2015-06-17T14:30:46Z</time>
      </trkpt>
      <trkpt lat="43.39112" lon="6.11209">
        <ele>290.39999389648</ele>
        <time>2015-06-17T14:30:48Z</time>
      </trkpt>
      <trkpt lat="43.39112" lon="6.11202">
        <ele>289.60000610352</ele>
        <time>2015-06-17T14:30:50Z</time>
      </trkpt>
      <trkpt lat="43.39113" lon="6.11193">
        <ele>289.39999389648</ele>
        <time>2015-06-17T14:30:52Z</time>
      </trkpt>
      <trkpt lat="43.39113" lon="6.11182">
        <ele>289</ele>
        <time>2015-06-17T14:30:54Z</time>
      </trkpt>
      <trkpt lat="43.39114" lon="6.11178">
        <ele>288.79998779297</ele>
        <time>2015-06-17T14:30:55Z</time>
      </trkpt>
      <trkpt lat="43.39116" lon="6.11177">
        <ele>288.60000610352</ele>
        <time>2015-06-17T14:30:56Z</time>
      </trkpt>
      <trkpt lat="43.39118" lon="6.11176">
        <ele>288.39999389648</ele>
        <time>2015-06-17T14:30:57Z</time>
      </trkpt>
      <trkpt lat="43.39119" lon="6.11176">
        <ele>288.20001220703</ele>
        <time>2015-06-17T14:30:58Z</time>
      </trkpt>
      <trkpt lat="43.39122" lon="6.11176">
        <ele>287.39999389648</ele>
        <time>2015-06-17T14:31:00Z</time>
      </trkpt>
      <trkpt lat="43.39127" lon="6.11173">
        <ele>285.79998779297</ele>
        <time>2015-06-17T14:31:02Z</time>
      </trkpt>
      <trkpt lat="43.39133" lon="6.11169">
        <ele>284.79998779297</ele>
        <time>2015-06-17T14:31:04Z</time>
      </trkpt>
      <trkpt lat="43.39136" lon="6.11167">
        <ele>284.60000610352</ele>
        <time>2015-06-17T14:31:05Z</time>
      </trkpt>
      <trkpt lat="43.39138" lon="6.11163">
        <ele>284.39999389648</ele>
        <time>2015-06-17T14:31:06Z</time>
      </trkpt>
      <trkpt lat="43.3914" lon="6.11159">
        <ele>283.39999389648</ele>
        <time>2015-06-17T14:31:07Z</time>
      </trkpt>
      <trkpt lat="43.39141" lon="6.11153">
        <ele>282.79998779297</ele>
        <time>2015-06-17T14:31:08Z</time>
      </trkpt>
      <trkpt lat="43.39141" lon="6.11142">
        <ele>282.79998779297</ele>
        <time>2015-06-17T14:31:10Z</time>
      </trkpt>
      <trkpt lat="43.39142" lon="6.11129">
        <ele>283.20001220703</ele>
        <time>2015-06-17T14:31:12Z</time>
      </trkpt>
      <trkpt lat="43.39143" lon="6.11114">
        <ele>282.79998779297</ele>
        <time>2015-06-17T14:31:14Z</time>
      </trkpt>
      <trkpt lat="43.39144" lon="6.11099">
        <ele>282.39999389648</ele>
        <time>2015-06-17T14:31:16Z</time>
      </trkpt>
      <trkpt lat="43.39147" lon="6.11085">
        <ele>282</ele>
        <time>2015-06-17T14:31:18Z</time>
      </trkpt>
      <trkpt lat="43.39146" lon="6.11072">
        <ele>282</ele>
        <time>2015-06-17T14:31:20Z</time>
      </trkpt>
      <trkpt lat="43.39146" lon="6.11061">
        <ele>281.60000610352</ele>
        <time>2015-06-17T14:31:22Z</time>
      </trkpt>
      <trkpt lat="43.39147" lon="6.11053">
        <ele>281.39999389648</ele>
        <time>2015-06-17T14:31:24Z</time>
      </trkpt>
      <trkpt lat="43.39148" lon="6.11049">
        <ele>281.20001220703</ele>
        <time>2015-06-17T14:31:25Z</time>
      </trkpt>
      <trkpt lat="43.39149" lon="6.11044">
        <ele>281</ele>
        <time>2015-06-17T14:31:26Z</time>
      </trkpt>
      <trkpt lat="43.39151" lon="6.11034">
        <ele>280.39999389648</ele>
        <time>2015-06-17T14:31:28Z</time>
      </trkpt>
      <trkpt lat="43.39151" lon="6.11029">
        <ele>280</ele>
        <time>2015-06-17T14:31:29Z</time>
      </trkpt>
      <trkpt lat="43.39151" lon="6.11024">
        <ele>280</ele>
        <time>2015-06-17T14:31:30Z</time>
      </trkpt>
      <trkpt lat="43.39149" lon="6.11014">
        <ele>280.20001220703</ele>
        <time>2015-06-17T14:31:32Z</time>
      </trkpt>
      <trkpt lat="43.39148" lon="6.11004">
        <ele>280.79998779297</ele>
        <time>2015-06-17T14:31:34Z</time>
      </trkpt>
      <trkpt lat="43.39148" lon="6.10999">
        <ele>281.20001220703</ele>
        <time>2015-06-17T14:31:35Z</time>
      </trkpt>
      <trkpt lat="43.39148" lon="6.10993">
        <ele>281.20001220703</ele>
        <time>2015-06-17T14:31:36Z</time>
      </trkpt>
      <trkpt lat="43.39149" lon="6.10989">
        <ele>281.20001220703</ele>
        <time>2015-06-17T14:31:37Z</time>
      </trkpt>
      <trkpt lat="43.39152" lon="6.10985">
        <ele>281.20001220703</ele>
        <time>2015-06-17T14:31:38Z</time>
      </trkpt>
      <trkpt lat="43.39154" lon="6.10981">
        <ele>281.20001220703</ele>
        <time>2015-06-17T14:31:39Z</time>
      </trkpt>
      <trkpt lat="43.39157" lon="6.10977">
        <ele>280.79998779297</ele>
        <time>2015-06-17T14:31:40Z</time>
      </trkpt>
      <trkpt lat="43.3916" lon="6.10974">
        <ele>280.20001220703</ele>
        <time>2015-06-17T14:31:41Z</time>
      </trkpt>
      <trkpt lat="43.39163" lon="6.10971">
        <ele>280</ele>
        <time>2015-06-17T14:31:42Z</time>
      </trkpt>
      <trkpt lat="43.39165" lon="6.10969">
        <ele>279.79998779297</ele>
        <time>2015-06-17T14:31:43Z</time>
      </trkpt>
      <trkpt lat="43.39167" lon="6.10968">
        <ele>279.79998779297</ele>
        <time>2015-06-17T14:31:44Z</time>
      </trkpt>
      <trkpt lat="43.39169" lon="6.10965">
        <ele>279.79998779297</ele>
        <time>2015-06-17T14:31:45Z</time>
      </trkpt>
      <trkpt lat="43.39171" lon="6.10963">
        <ele>279.39999389648</ele>
        <time>2015-06-17T14:31:46Z</time>
      </trkpt>
      <trkpt lat="43.39174" lon="6.1096">
        <ele>279</ele>
        <time>2015-06-17T14:31:47Z</time>
      </trkpt>
      <trkpt lat="43.39176" lon="6.10955">
        <ele>278.60000610352</ele>
        <time>2015-06-17T14:31:48Z</time>
      </trkpt>
      <trkpt lat="43.3918" lon="6.10944">
        <ele>278.39999389648</ele>
        <time>2015-06-17T14:31:50Z</time>
      </trkpt>
      <trkpt lat="43.39182" lon="6.10939">
        <ele>278.39999389648</ele>
        <time>2015-06-17T14:31:51Z</time>
      </trkpt>
      <trkpt lat="43.39185" lon="6.10934">
        <ele>278.20001220703</ele>
        <time>2015-06-17T14:31:52Z</time>
      </trkpt>
      <trkpt lat="43.39188" lon="6.10931">
        <ele>278.39999389648</ele>
        <time>2015-06-17T14:31:53Z</time>
      </trkpt>
      <trkpt lat="43.39192" lon="6.10928">
        <ele>278</ele>
        <time>2015-06-17T14:31:54Z</time>
      </trkpt>
      <trkpt lat="43.39199" lon="6.10925">
        <ele>277.60000610352</ele>
        <time>2015-06-17T14:31:56Z</time>
      </trkpt>
      <trkpt lat="43.39204" lon="6.1092">
        <ele>278.20001220703</ele>
        <time>2015-06-17T14:31:58Z</time>
      </trkpt>
      <trkpt lat="43.39206" lon="6.10918">
        <ele>277.79998779297</ele>
        <time>2015-06-17T14:31:59Z</time>
      </trkpt>
      <trkpt lat="43.39208" lon="6.10914">
        <ele>277.39999389648</ele>
        <time>2015-06-17T14:32:00Z</time>
      </trkpt>
      <trkpt lat="43.39212" lon="6.10907">
        <ele>277.20001220703</ele>
        <time>2015-06-17T14:32:02Z</time>
      </trkpt>
      <trkpt lat="43.39217" lon="6.109">
        <ele>277</ele>
        <time>2015-06-17T14:32:04Z</time>
      </trkpt>
      <trkpt lat="43.39219" lon="6.10896">
        <ele>277</ele>
        <time>2015-06-17T14:32:05Z</time>
      </trkpt>
      <trkpt lat="43.39222" lon="6.10891">
        <ele>277</ele>
        <time>2015-06-17T14:32:06Z</time>
      </trkpt>
      <trkpt lat="43.39227" lon="6.10882">
        <ele>277.39999389648</ele>
        <time>2015-06-17T14:32:08Z</time>
      </trkpt>
      <trkpt lat="43.39228" lon="6.10877">
        <ele>277.39999389648</ele>
        <time>2015-06-17T14:32:09Z</time>
      </trkpt>
      <trkpt lat="43.39228" lon="6.10871">
        <ele>277.39999389648</ele>
        <time>2015-06-17T14:32:10Z</time>
      </trkpt>
      <trkpt lat="43.39227" lon="6.1086">
        <ele>277.39999389648</ele>
        <time>2015-06-17T14:32:12Z</time>
      </trkpt>
      <trkpt lat="43.39228" lon="6.10848">
        <ele>277.39999389648</ele>
        <time>2015-06-17T14:32:14Z</time>
      </trkpt>
      <trkpt lat="43.39228" lon="6.10843">
        <ele>277.60000610352</ele>
        <time>2015-06-17T14:32:15Z</time>
      </trkpt>
      <trkpt lat="43.39226" lon="6.10838">
        <ele>278</ele>
        <time>2015-06-17T14:32:16Z</time>
      </trkpt>
      <trkpt lat="43.39225" lon="6.10827">
        <ele>277.39999389648</ele>
        <time>2015-06-17T14:32:18Z</time>
      </trkpt>
      <trkpt lat="43.39224" lon="6.10818">
        <ele>276.39999389648</ele>
        <time>2015-06-17T14:32:20Z</time>
      </trkpt>
      <trkpt lat="43.39222" lon="6.10807">
        <ele>276.39999389648</ele>
        <time>2015-06-17T14:32:22Z</time>
      </trkpt>
      <trkpt lat="43.3922" lon="6.10795">
        <ele>276.60000610352</ele>
        <time>2015-06-17T14:32:24Z</time>
      </trkpt>
      <trkpt lat="43.39219" lon="6.10784">
        <ele>276.39999389648</ele>
        <time>2015-06-17T14:32:26Z</time>
      </trkpt>
      <trkpt lat="43.3922" lon="6.10774">
        <ele>275.79998779297</ele>
        <time>2015-06-17T14:32:28Z</time>
      </trkpt>
      <trkpt lat="43.39219" lon="6.10769">
        <ele>275.60000610352</ele>
        <time>2015-06-17T14:32:29Z</time>
      </trkpt>
      <trkpt lat="43.39217" lon="6.10765">
        <ele>275.79998779297</ele>
        <time>2015-06-17T14:32:30Z</time>
      </trkpt>
      <trkpt lat="43.39216" lon="6.10756">
        <ele>276</ele>
        <time>2015-06-17T14:32:32Z</time>
      </trkpt>
      <trkpt lat="43.39217" lon="6.10749">
        <ele>276</ele>
        <time>2015-06-17T14:32:34Z</time>
      </trkpt>
      <trkpt lat="43.39217" lon="6.10744">
        <ele>276.39999389648</ele>
        <time>2015-06-17T14:32:36Z</time>
      </trkpt>
      <trkpt lat="43.39217" lon="6.1074">
        <ele>276.79998779297</ele>
        <time>2015-06-17T14:32:38Z</time>
      </trkpt>
      <trkpt lat="43.39217" lon="6.10739">
        <ele>276.79998779297</ele>
        <time>2015-06-17T14:32:39Z</time>
      </trkpt>
      <trkpt lat="43.39216" lon="6.10738">
        <ele>276.60000610352</ele>
        <time>2015-06-17T14:32:40Z</time>
      </trkpt>
      <trkpt lat="43.39216" lon="6.10738">
        <ele>276.60000610352</ele>
        <time>2015-06-17T14:32:42Z</time>
      </trkpt>
      <trkpt lat="43.39216" lon="6.10738">
        <ele>276.79998779297</ele>
        <time>2015-06-17T14:32:44Z</time>
      </trkpt>
      <trkpt lat="43.39216" lon="6.10738">
        <ele>276.79998779297</ele>
        <time>2015-06-17T14:32:45Z</time>
      </trkpt>
      <trkpt lat="43.39216" lon="6.10738">
        <ele>277</ele>
        <time>2015-06-17T14:32:46Z</time>
      </trkpt>
      <trkpt lat="43.39216" lon="6.10738">
        <ele>276.79998779297</ele>
        <time>2015-06-17T14:32:48Z</time>
      </trkpt>
      <trkpt lat="43.39216" lon="6.10738">
        <ele>276.79998779297</ele>
        <time>2015-06-17T14:32:50Z</time>
      </trkpt>
      <trkpt lat="43.39216" lon="6.10738">
        <ele>276.79998779297</ele>
        <time>2015-06-17T14:32:52Z</time>
      </trkpt>
      <trkpt lat="43.39216" lon="6.10738">
        <ele>276.60000610352</ele>
        <time>2015-06-17T14:32:54Z</time>
      </trkpt>
      <trkpt lat="43.39216" lon="6.10738">
        <ele>276</ele>
        <time>2015-06-17T14:32:56Z</time>
      </trkpt>
      <trkpt lat="43.39216" lon="6.10738">
        <ele>276</ele>
        <time>2015-06-17T14:32:58Z</time>
      </trkpt>
      <trkpt lat="43.39216" lon="6.10738">
        <ele>276</ele>
        <time>2015-06-17T14:33:00Z</time>
      </trkpt>
      <trkpt lat="43.39216" lon="6.10738">
        <ele>276</ele>
        <time>2015-06-17T14:33:02Z</time>
      </trkpt>
      <trkpt lat="43.39216" lon="6.10738">
        <ele>276</ele>
        <time>2015-06-17T14:33:04Z</time>
      </trkpt>
      <trkpt lat="43.39216" lon="6.10738">
        <ele>275.79998779297</ele>
        <time>2015-06-17T14:33:06Z</time>
      </trkpt>
      <trkpt lat="43.39216" lon="6.10738">
        <ele>276</ele>
        <time>2015-06-17T14:33:08Z</time>
      </trkpt>
      <trkpt lat="43.39216" lon="6.10738">
        <ele>275.79998779297</ele>
        <time>2015-06-17T14:33:10Z</time>
      </trkpt>
      <trkpt lat="43.39216" lon="6.10738">
        <ele>275.79998779297</ele>
        <time>2015-06-17T14:33:12Z</time>
      </trkpt>
      <trkpt lat="43.39216" lon="6.10738">
        <ele>276</ele>
        <time>2015-06-17T14:33:14Z</time>
      </trkpt>
      <trkpt lat="43.39216" lon="6.10738">
        <ele>276</ele>
        <time>2015-06-17T14:33:16Z</time>
      </trkpt>
      <trkpt lat="43.39216" lon="6.10738">
        <ele>276</ele>
        <time>2015-06-17T14:33:17Z</time>
      </trkpt>
      <trkpt lat="43.39216" lon="6.10737">
        <ele>276.20001220703</ele>
        <time>2015-06-17T14:33:20Z</time>
      </trkpt>
      <trkpt lat="43.39216" lon="6.10737">
        <ele>276.20001220703</ele>
        <time>2015-06-17T14:33:22Z</time>
      </trkpt>
      <trkpt lat="43.39216" lon="6.10737">
        <ele>276.39999389648</ele>
        <time>2015-06-17T14:33:24Z</time>
      </trkpt>
      <trkpt lat="43.39216" lon="6.10737">
        <ele>276.20001220703</ele>
        <time>2015-06-17T14:33:26Z</time>
      </trkpt>
      <trkpt lat="43.39215" lon="6.10735">
        <ele>275.79998779297</ele>
        <time>2015-06-17T14:33:28Z</time>
      </trkpt>
      <trkpt lat="43.39214" lon="6.10733">
        <ele>275.79998779297</ele>
        <time>2015-06-17T14:33:30Z</time>
      </trkpt>
      <trkpt lat="43.39211" lon="6.10727">
        <ele>275.39999389648</ele>
        <time>2015-06-17T14:33:32Z</time>
      </trkpt>
      <trkpt lat="43.39207" lon="6.10719">
        <ele>275.39999389648</ele>
        <time>2015-06-17T14:33:34Z</time>
      </trkpt>
      <trkpt lat="43.39202" lon="6.10709">
        <ele>274.60000610352</ele>
        <time>2015-06-17T14:33:36Z</time>
      </trkpt>
      <trkpt lat="43.39195" lon="6.107">
        <ele>274.20001220703</ele>
        <time>2015-06-17T14:33:38Z</time>
      </trkpt>
      <trkpt lat="43.39191" lon="6.10695">
        <ele>273.79998779297</ele>
        <time>2015-06-17T14:33:40Z</time>
      </trkpt>
      <trkpt lat="43.3919" lon="6.10694">
        <ele>273.60000610352</ele>
        <time>2015-06-17T14:33:41Z</time>
      </trkpt>
      <trkpt lat="43.39189" lon="6.10692">
        <ele>273.60000610352</ele>
        <time>2015-06-17T14:33:42Z</time>
      </trkpt>
      <trkpt lat="43.39187" lon="6.10691">
        <ele>273.60000610352</ele>
        <time>2015-06-17T14:33:43Z</time>
      </trkpt>
      <trkpt lat="43.39185" lon="6.10689">
        <ele>273.60000610352</ele>
        <time>2015-06-17T14:33:44Z</time>
      </trkpt>
      <trkpt lat="43.39182" lon="6.10686">
        <ele>274</ele>
        <time>2015-06-17T14:33:46Z</time>
      </trkpt>
      <trkpt lat="43.3918" lon="6.10683">
        <ele>274</ele>
        <time>2015-06-17T14:33:47Z</time>
      </trkpt>
      <trkpt lat="43.3918" lon="6.10679">
        <ele>273.79998779297</ele>
        <time>2015-06-17T14:33:48Z</time>
      </trkpt>
      <trkpt lat="43.3918" lon="6.10675">
        <ele>273.60000610352</ele>
        <time>2015-06-17T14:33:49Z</time>
      </trkpt>
      <trkpt lat="43.39181" lon="6.10671">
        <ele>273.39999389648</ele>
        <time>2015-06-17T14:33:50Z</time>
      </trkpt>
      <trkpt lat="43.39184" lon="6.10663">
        <ele>273.60000610352</ele>
        <time>2015-06-17T14:33:52Z</time>
      </trkpt>
      <trkpt lat="43.39186" lon="6.1066">
        <ele>273.60000610352</ele>
        <time>2015-06-17T14:33:53Z</time>
      </trkpt>
      <trkpt lat="43.39188" lon="6.10656">
        <ele>273.79998779297</ele>
        <time>2015-06-17T14:33:54Z</time>
      </trkpt>
      <trkpt lat="43.39193" lon="6.10648">
        <ele>273.60000610352</ele>
        <time>2015-06-17T14:33:56Z</time>
      </trkpt>
      <trkpt lat="43.39198" lon="6.10641">
        <ele>273.20001220703</ele>
        <time>2015-06-17T14:33:58Z</time>
      </trkpt>
      <trkpt lat="43.39201" lon="6.10639">
        <ele>273.20001220703</ele>
        <time>2015-06-17T14:33:59Z</time>
      </trkpt>
      <trkpt lat="43.39205" lon="6.10637">
        <ele>273.20001220703</ele>
        <time>2015-06-17T14:34:00Z</time>
      </trkpt>
      <trkpt lat="43.39212" lon="6.10634">
        <ele>273.60000610352</ele>
        <time>2015-06-17T14:34:02Z</time>
      </trkpt>
      <trkpt lat="43.39217" lon="6.10627">
        <ele>273.39999389648</ele>
        <time>2015-06-17T14:34:04Z</time>
      </trkpt>
      <trkpt lat="43.39223" lon="6.10622">
        <ele>273.39999389648</ele>
        <time>2015-06-17T14:34:06Z</time>
      </trkpt>
      <trkpt lat="43.39229" lon="6.10616">
        <ele>273.39999389648</ele>
        <time>2015-06-17T14:34:08Z</time>
      </trkpt>
      <trkpt lat="43.39232" lon="6.10613">
        <ele>273.39999389648</ele>
        <time>2015-06-17T14:34:09Z</time>
      </trkpt>
      <trkpt lat="43.39235" lon="6.10609">
        <ele>273.60000610352</ele>
        <time>2015-06-17T14:34:10Z</time>
      </trkpt>
      <trkpt lat="43.39241" lon="6.10604">
        <ele>274</ele>
        <time>2015-06-17T14:34:12Z</time>
      </trkpt>
      <trkpt lat="43.39248" lon="6.106">
        <ele>274.20001220703</ele>
        <time>2015-06-17T14:34:14Z</time>
      </trkpt>
      <trkpt lat="43.39253" lon="6.10593">
        <ele>274.20001220703</ele>
        <time>2015-06-17T14:34:16Z</time>
      </trkpt>
      <trkpt lat="43.39258" lon="6.10582">
        <ele>274.20001220703</ele>
        <time>2015-06-17T14:34:18Z</time>
      </trkpt>
      <trkpt lat="43.39263" lon="6.10572">
        <ele>273.79998779297</ele>
        <time>2015-06-17T14:34:20Z</time>
      </trkpt>
      <trkpt lat="43.39265" lon="6.10566">
        <ele>273.79998779297</ele>
        <time>2015-06-17T14:34:21Z</time>
      </trkpt>
      <trkpt lat="43.39267" lon="6.1056">
        <ele>274</ele>
        <time>2015-06-17T14:34:22Z</time>
      </trkpt>
      <trkpt lat="43.3927" lon="6.10549">
        <ele>274.39999389648</ele>
        <time>2015-06-17T14:34:24Z</time>
      </trkpt>
      <trkpt lat="43.39273" lon="6.10543">
        <ele>274.39999389648</ele>
        <time>2015-06-17T14:34:25Z</time>
      </trkpt>
      <trkpt lat="43.39275" lon="6.10538">
        <ele>274.39999389648</ele>
        <time>2015-06-17T14:34:26Z</time>
      </trkpt>
      <trkpt lat="43.39281" lon="6.10527">
        <ele>274.20001220703</ele>
        <time>2015-06-17T14:34:28Z</time>
      </trkpt>
      <trkpt lat="43.39283" lon="6.10521">
        <ele>274.20001220703</ele>
        <time>2015-06-17T14:34:29Z</time>
      </trkpt>
      <trkpt lat="43.39286" lon="6.10514">
        <ele>274.20001220703</ele>
        <time>2015-06-17T14:34:30Z</time>
      </trkpt>
      <trkpt lat="43.39291" lon="6.10501">
        <ele>274</ele>
        <time>2015-06-17T14:34:32Z</time>
      </trkpt>
      <trkpt lat="43.39294" lon="6.10494">
        <ele>273.79998779297</ele>
        <time>2015-06-17T14:34:33Z</time>
      </trkpt>
      <trkpt lat="43.39297" lon="6.10488">
        <ele>273</ele>
        <time>2015-06-17T14:34:34Z</time>
      </trkpt>
      <trkpt lat="43.39301" lon="6.10482">
        <ele>272.39999389648</ele>
        <time>2015-06-17T14:34:35Z</time>
      </trkpt>
      <trkpt lat="43.39305" lon="6.10475">
        <ele>272</ele>
        <time>2015-06-17T14:34:36Z</time>
      </trkpt>
      <trkpt lat="43.39312" lon="6.10461">
        <ele>271.79998779297</ele>
        <time>2015-06-17T14:34:38Z</time>
      </trkpt>
      <trkpt lat="43.3932" lon="6.10448">
        <ele>271.60000610352</ele>
        <time>2015-06-17T14:34:40Z</time>
      </trkpt>
      <trkpt lat="43.39324" lon="6.10442">
        <ele>271.39999389648</ele>
        <time>2015-06-17T14:34:41Z</time>
      </trkpt>
      <trkpt lat="43.39328" lon="6.10435">
        <ele>271.20001220703</ele>
        <time>2015-06-17T14:34:42Z</time>
      </trkpt>
      <trkpt lat="43.39337" lon="6.10424">
        <ele>270.60000610352</ele>
        <time>2015-06-17T14:34:44Z</time>
      </trkpt>
      <trkpt lat="43.39341" lon="6.1042">
        <ele>270.39999389648</ele>
        <time>2015-06-17T14:34:45Z</time>
      </trkpt>
      <trkpt lat="43.39346" lon="6.10418">
        <ele>270</ele>
        <time>2015-06-17T14:34:46Z</time>
      </trkpt>
      <trkpt lat="43.39354" lon="6.10419">
        <ele>270.60000610352</ele>
        <time>2015-06-17T14:34:48Z</time>
      </trkpt>
      <trkpt lat="43.39358" lon="6.1042">
        <ele>270.39999389648</ele>
        <time>2015-06-17T14:34:49Z</time>
      </trkpt>
      <trkpt lat="43.39361" lon="6.1042">
        <ele>270</ele>
        <time>2015-06-17T14:34:50Z</time>
      </trkpt>
      <trkpt lat="43.39363" lon="6.10417">
        <ele>269</ele>
        <time>2015-06-17T14:34:51Z</time>
      </trkpt>
      <trkpt lat="43.39366" lon="6.10413">
        <ele>268.39999389648</ele>
        <time>2015-06-17T14:34:52Z</time>
      </trkpt>
      <trkpt lat="43.39368" lon="6.10408">
        <ele>268.60000610352</ele>
        <time>2015-06-17T14:34:53Z</time>
      </trkpt>
      <trkpt lat="43.39369" lon="6.10402">
        <ele>268.79998779297</ele>
        <time>2015-06-17T14:34:54Z</time>
      </trkpt>
      <trkpt lat="43.39371" lon="6.10392">
        <ele>269.20001220703</ele>
        <time>2015-06-17T14:34:56Z</time>
      </trkpt>
      <trkpt lat="43.39374" lon="6.10387">
        <ele>269</ele>
        <time>2015-06-17T14:34:57Z</time>
      </trkpt>
      <trkpt lat="43.39377" lon="6.10382">
        <ele>268.60000610352</ele>
        <time>2015-06-17T14:34:58Z</time>
      </trkpt>
      <trkpt lat="43.39381" lon="6.10377">
        <ele>268.39999389648</ele>
        <time>2015-06-17T14:34:59Z</time>
      </trkpt>
      <trkpt lat="43.39384" lon="6.10371">
        <ele>268.39999389648</ele>
        <time>2015-06-17T14:35:00Z</time>
      </trkpt>
      <trkpt lat="43.39389" lon="6.10359">
        <ele>268</ele>
        <time>2015-06-17T14:35:02Z</time>
      </trkpt>
      <trkpt lat="43.39396" lon="6.10348">
        <ele>267.60000610352</ele>
        <time>2015-06-17T14:35:04Z</time>
      </trkpt>
      <trkpt lat="43.39399" lon="6.10344">
        <ele>267.39999389648</ele>
        <time>2015-06-17T14:35:05Z</time>
      </trkpt>
      <trkpt lat="43.39402" lon="6.10339">
        <ele>267.20001220703</ele>
        <time>2015-06-17T14:35:06Z</time>
      </trkpt>
      <trkpt lat="43.39404" lon="6.10335">
        <ele>267.20001220703</ele>
        <time>2015-06-17T14:35:07Z</time>
      </trkpt>
      <trkpt lat="43.39407" lon="6.1033">
        <ele>267.39999389648</ele>
        <time>2015-06-17T14:35:08Z</time>
      </trkpt>
      <trkpt lat="43.39413" lon="6.10321">
        <ele>267.39999389648</ele>
        <time>2015-06-17T14:35:10Z</time>
      </trkpt>
      <trkpt lat="43.39419" lon="6.10312">
        <ele>267.20001220703</ele>
        <time>2015-06-17T14:35:12Z</time>
      </trkpt>
      <trkpt lat="43.39422" lon="6.10307">
        <ele>267.39999389648</ele>
        <time>2015-06-17T14:35:13Z</time>
      </trkpt>
      <trkpt lat="43.39426" lon="6.10303">
        <ele>267.39999389648</ele>
        <time>2015-06-17T14:35:14Z</time>
      </trkpt>
      <trkpt lat="43.39436" lon="6.10296">
        <ele>267</ele>
        <time>2015-06-17T14:35:16Z</time>
      </trkpt>
      <trkpt lat="43.39441" lon="6.10292">
        <ele>267.20001220703</ele>
        <time>2015-06-17T14:35:17Z</time>
      </trkpt>
      <trkpt lat="43.39446" lon="6.10288">
        <ele>267.39999389648</ele>
        <time>2015-06-17T14:35:18Z</time>
      </trkpt>
      <trkpt lat="43.39456" lon="6.1028">
        <ele>266.39999389648</ele>
        <time>2015-06-17T14:35:20Z</time>
      </trkpt>
      <trkpt lat="43.3946" lon="6.10275">
        <ele>265.39999389648</ele>
        <time>2015-06-17T14:35:21Z</time>
      </trkpt>
      <trkpt lat="43.39465" lon="6.10271">
        <ele>265</ele>
        <time>2015-06-17T14:35:22Z</time>
      </trkpt>
      <trkpt lat="43.39474" lon="6.10261">
        <ele>263.79998779297</ele>
        <time>2015-06-17T14:35:24Z</time>
      </trkpt>
      <trkpt lat="43.39478" lon="6.10256">
        <ele>262.79998779297</ele>
        <time>2015-06-17T14:35:25Z</time>
      </trkpt>
      <trkpt lat="43.39482" lon="6.10252">
        <ele>262.60000610352</ele>
        <time>2015-06-17T14:35:26Z</time>
      </trkpt>
      <trkpt lat="43.39485" lon="6.10246">
        <ele>262.79998779297</ele>
        <time>2015-06-17T14:35:27Z</time>
      </trkpt>
      <trkpt lat="43.39488" lon="6.1024">
        <ele>262.60000610352</ele>
        <time>2015-06-17T14:35:28Z</time>
      </trkpt>
      <trkpt lat="43.39491" lon="6.10234">
        <ele>262.20001220703</ele>
        <time>2015-06-17T14:35:29Z</time>
      </trkpt>
      <trkpt lat="43.39494" lon="6.10225">
        <ele>262.39999389648</ele>
        <time>2015-06-17T14:35:30Z</time>
      </trkpt>
      <trkpt lat="43.395" lon="6.10208">
        <ele>262.20001220703</ele>
        <time>2015-06-17T14:35:32Z</time>
      </trkpt>
      <trkpt lat="43.39504" lon="6.10191">
        <ele>261.60000610352</ele>
        <time>2015-06-17T14:35:34Z</time>
      </trkpt>
      <trkpt lat="43.39506" lon="6.10182">
        <ele>261.39999389648</ele>
        <time>2015-06-17T14:35:35Z</time>
      </trkpt>
      <trkpt lat="43.39508" lon="6.10172">
        <ele>260.79998779297</ele>
        <time>2015-06-17T14:35:36Z</time>
      </trkpt>
      <trkpt lat="43.39513" lon="6.10153">
        <ele>261</ele>
        <time>2015-06-17T14:35:38Z</time>
      </trkpt>
      <trkpt lat="43.39518" lon="6.10134">
        <ele>261.20001220703</ele>
        <time>2015-06-17T14:35:40Z</time>
      </trkpt>
      <trkpt lat="43.39521" lon="6.10124">
        <ele>261</ele>
        <time>2015-06-17T14:35:41Z</time>
      </trkpt>
      <trkpt lat="43.39524" lon="6.10115">
        <ele>260.79998779297</ele>
        <time>2015-06-17T14:35:42Z</time>
      </trkpt>
      <trkpt lat="43.39527" lon="6.10107">
        <ele>259.60000610352</ele>
        <time>2015-06-17T14:35:43Z</time>
      </trkpt>
      <trkpt lat="43.39531" lon="6.10099">
        <ele>259</ele>
        <time>2015-06-17T14:35:44Z</time>
      </trkpt>
      <trkpt lat="43.39536" lon="6.10092">
        <ele>260</ele>
        <time>2015-06-17T14:35:45Z</time>
      </trkpt>
      <trkpt lat="43.3954" lon="6.10085">
        <ele>260.60000610352</ele>
        <time>2015-06-17T14:35:46Z</time>
      </trkpt>
      <trkpt lat="43.39546" lon="6.10068">
        <ele>259.79998779297</ele>
        <time>2015-06-17T14:35:48Z</time>
      </trkpt>
      <trkpt lat="43.39548" lon="6.10058">
        <ele>259.20001220703</ele>
        <time>2015-06-17T14:35:49Z</time>
      </trkpt>
      <trkpt lat="43.39551" lon="6.10049">
        <ele>258.79998779297</ele>
        <time>2015-06-17T14:35:50Z</time>
      </trkpt>
      <trkpt lat="43.39553" lon="6.1004">
        <ele>258.39999389648</ele>
        <time>2015-06-17T14:35:51Z</time>
      </trkpt>
      <trkpt lat="43.39555" lon="6.10032">
        <ele>258</ele>
        <time>2015-06-17T14:35:52Z</time>
      </trkpt>
      <trkpt lat="43.39558" lon="6.10023">
        <ele>257.79998779297</ele>
        <time>2015-06-17T14:35:54Z</time>
      </trkpt>
      <trkpt lat="43.39558" lon="6.10015">
        <ele>258</ele>
        <time>2015-06-17T14:35:56Z</time>
      </trkpt>
      <trkpt lat="43.39555" lon="6.1001">
        <ele>258</ele>
        <time>2015-06-17T14:35:58Z</time>
      </trkpt>
      <trkpt lat="43.39553" lon="6.10006">
        <ele>258</ele>
        <time>2015-06-17T14:36:00Z</time>
      </trkpt>
      <trkpt lat="43.39553" lon="6.10005">
        <ele>258</ele>
        <time>2015-06-17T14:36:01Z</time>
      </trkpt>
      <trkpt lat="43.39553" lon="6.10004">
        <ele>257.79998779297</ele>
        <time>2015-06-17T14:36:02Z</time>
      </trkpt>
      <trkpt lat="43.39552" lon="6.1">
        <ele>258</ele>
        <time>2015-06-17T14:36:04Z</time>
      </trkpt>
      <trkpt lat="43.39552" lon="6.09996">
        <ele>257.79998779297</ele>
        <time>2015-06-17T14:36:06Z</time>
      </trkpt>
      <trkpt lat="43.39552" lon="6.0999">
        <ele>258</ele>
        <time>2015-06-17T14:36:08Z</time>
      </trkpt>
      <trkpt lat="43.39553" lon="6.09983">
        <ele>258.20001220703</ele>
        <time>2015-06-17T14:36:10Z</time>
      </trkpt>
      <trkpt lat="43.39554" lon="6.0998">
        <ele>258.20001220703</ele>
        <time>2015-06-17T14:36:11Z</time>
      </trkpt>
      <trkpt lat="43.39554" lon="6.09975">
        <ele>258.39999389648</ele>
        <time>2015-06-17T14:36:12Z</time>
      </trkpt>
      <trkpt lat="43.39554" lon="6.09971">
        <ele>258.39999389648</ele>
        <time>2015-06-17T14:36:13Z</time>
      </trkpt>
      <trkpt lat="43.39554" lon="6.09967">
        <ele>258.60000610352</ele>
        <time>2015-06-17T14:36:14Z</time>
      </trkpt>
      <trkpt lat="43.39555" lon="6.09959">
        <ele>258.79998779297</ele>
        <time>2015-06-17T14:36:16Z</time>
      </trkpt>
      <trkpt lat="43.39554" lon="6.0995">
        <ele>259.20001220703</ele>
        <time>2015-06-17T14:36:18Z</time>
      </trkpt>
      <trkpt lat="43.39552" lon="6.09942">
        <ele>259.60000610352</ele>
        <time>2015-06-17T14:36:20Z</time>
      </trkpt>
      <trkpt lat="43.3955" lon="6.09936">
        <ele>260</ele>
        <time>2015-06-17T14:36:22Z</time>
      </trkpt>
      <trkpt lat="43.39548" lon="6.09933">
        <ele>260.79998779297</ele>
        <time>2015-06-17T14:36:23Z</time>
      </trkpt>
      <trkpt lat="43.39547" lon="6.09929">
        <ele>261.39999389648</ele>
        <time>2015-06-17T14:36:24Z</time>
      </trkpt>
      <trkpt lat="43.39545" lon="6.09924">
        <ele>262</ele>
        <time>2015-06-17T14:36:26Z</time>
      </trkpt>
      <trkpt lat="43.39544" lon="6.09917">
        <ele>262.39999389648</ele>
        <time>2015-06-17T14:36:28Z</time>
      </trkpt>
      <trkpt lat="43.39544" lon="6.09909">
        <ele>262.60000610352</ele>
        <time>2015-06-17T14:36:30Z</time>
      </trkpt>
      <trkpt lat="43.39546" lon="6.09902">
        <ele>262.79998779297</ele>
        <time>2015-06-17T14:36:32Z</time>
      </trkpt>
      <trkpt lat="43.39548" lon="6.09897">
        <ele>263</ele>
        <time>2015-06-17T14:36:34Z</time>
      </trkpt>
      <trkpt lat="43.3955" lon="6.09895">
        <ele>263.20001220703</ele>
        <time>2015-06-17T14:36:35Z</time>
      </trkpt>
      <trkpt lat="43.39552" lon="6.09892">
        <ele>263.39999389648</ele>
        <time>2015-06-17T14:36:36Z</time>
      </trkpt>
      <trkpt lat="43.39554" lon="6.09885">
        <ele>263.79998779297</ele>
        <time>2015-06-17T14:36:38Z</time>
      </trkpt>
      <trkpt lat="43.39555" lon="6.09877">
        <ele>263.60000610352</ele>
        <time>2015-06-17T14:36:40Z</time>
      </trkpt>
      <trkpt lat="43.39557" lon="6.09867">
        <ele>263.20001220703</ele>
        <time>2015-06-17T14:36:42Z</time>
      </trkpt>
      <trkpt lat="43.39558" lon="6.09858">
        <ele>263.20001220703</ele>
        <time>2015-06-17T14:36:44Z</time>
      </trkpt>
      <trkpt lat="43.39558" lon="6.09849">
        <ele>263.20001220703</ele>
        <time>2015-06-17T14:36:46Z</time>
      </trkpt>
      <trkpt lat="43.39558" lon="6.09844">
        <ele>263.39999389648</ele>
        <time>2015-06-17T14:36:47Z</time>
      </trkpt>
      <trkpt lat="43.39558" lon="6.0984">
        <ele>263.39999389648</ele>
        <time>2015-06-17T14:36:48Z</time>
      </trkpt>
      <trkpt lat="43.3956" lon="6.09831">
        <ele>263.39999389648</ele>
        <time>2015-06-17T14:36:50Z</time>
      </trkpt>
      <trkpt lat="43.39562" lon="6.09823">
        <ele>263.39999389648</ele>
        <time>2015-06-17T14:36:52Z</time>
      </trkpt>
      <trkpt lat="43.39563" lon="6.09819">
        <ele>263.60000610352</ele>
        <time>2015-06-17T14:36:53Z</time>
      </trkpt>
      <trkpt lat="43.39563" lon="6.09816">
        <ele>263.79998779297</ele>
        <time>2015-06-17T14:36:54Z</time>
      </trkpt>
      <trkpt lat="43.39564" lon="6.09812">
        <ele>264</ele>
        <time>2015-06-17T14:36:55Z</time>
      </trkpt>
      <trkpt lat="43.39564" lon="6.09809">
        <ele>264</ele>
        <time>2015-06-17T14:36:56Z</time>
      </trkpt>
      <trkpt lat="43.39565" lon="6.09806">
        <ele>263.60000610352</ele>
        <time>2015-06-17T14:36:57Z</time>
      </trkpt>
      <trkpt lat="43.39566" lon="6.09802">
        <ele>263.20001220703</ele>
        <time>2015-06-17T14:36:58Z</time>
      </trkpt>
      <trkpt lat="43.39567" lon="6.09795">
        <ele>263.39999389648</ele>
        <time>2015-06-17T14:37:00Z</time>
      </trkpt>
      <trkpt lat="43.39569" lon="6.09788">
        <ele>264</ele>
        <time>2015-06-17T14:37:02Z</time>
      </trkpt>
      <trkpt lat="43.39571" lon="6.0978">
        <ele>263.79998779297</ele>
        <time>2015-06-17T14:37:04Z</time>
      </trkpt>
      <trkpt lat="43.39573" lon="6.09772">
        <ele>263.79998779297</ele>
        <time>2015-06-17T14:37:06Z</time>
      </trkpt>
      <trkpt lat="43.39575" lon="6.09763">
        <ele>263.79998779297</ele>
        <time>2015-06-17T14:37:08Z</time>
      </trkpt>
      <trkpt lat="43.39578" lon="6.09753">
        <ele>263.79998779297</ele>
        <time>2015-06-17T14:37:10Z</time>
      </trkpt>
      <trkpt lat="43.39581" lon="6.09743">
        <ele>263.60000610352</ele>
        <time>2015-06-17T14:37:12Z</time>
      </trkpt>
      <trkpt lat="43.39584" lon="6.09732">
        <ele>263.39999389648</ele>
        <time>2015-06-17T14:37:14Z</time>
      </trkpt>
      <trkpt lat="43.39586" lon="6.09727">
        <ele>263.39999389648</ele>
        <time>2015-06-17T14:37:15Z</time>
      </trkpt>
      <trkpt lat="43.39588" lon="6.09721">
        <ele>263.39999389648</ele>
        <time>2015-06-17T14:37:16Z</time>
      </trkpt>
      <trkpt lat="43.3959" lon="6.09709">
        <ele>263.20001220703</ele>
        <time>2015-06-17T14:37:18Z</time>
      </trkpt>
      <trkpt lat="43.39593" lon="6.09697">
        <ele>263.20001220703</ele>
        <time>2015-06-17T14:37:20Z</time>
      </trkpt>
      <trkpt lat="43.39596" lon="6.09684">
        <ele>263.20001220703</ele>
        <time>2015-06-17T14:37:22Z</time>
      </trkpt>
      <trkpt lat="43.39598" lon="6.09672">
        <ele>263.79998779297</ele>
        <time>2015-06-17T14:37:24Z</time>
      </trkpt>
      <trkpt lat="43.396" lon="6.09665">
        <ele>263.79998779297</ele>
        <time>2015-06-17T14:37:25Z</time>
      </trkpt>
      <trkpt lat="43.39602" lon="6.0966">
        <ele>263.39999389648</ele>
        <time>2015-06-17T14:37:26Z</time>
      </trkpt>
      <trkpt lat="43.39602" lon="6.09653">
        <ele>263.20001220703</ele>
        <time>2015-06-17T14:37:27Z</time>
      </trkpt>
      <trkpt lat="43.39603" lon="6.09647">
        <ele>263.20001220703</ele>
        <time>2015-06-17T14:37:28Z</time>
      </trkpt>
      <trkpt lat="43.39605" lon="6.09635">
        <ele>263.20001220703</ele>
        <time>2015-06-17T14:37:30Z</time>
      </trkpt>
      <trkpt lat="43.39607" lon="6.09629">
        <ele>263.20001220703</ele>
        <time>2015-06-17T14:37:31Z</time>
      </trkpt>
      <trkpt lat="43.39608" lon="6.09623">
        <ele>263.20001220703</ele>
        <time>2015-06-17T14:37:32Z</time>
      </trkpt>
      <trkpt lat="43.39611" lon="6.09611">
        <ele>263.20001220703</ele>
        <time>2015-06-17T14:37:34Z</time>
      </trkpt>
      <trkpt lat="43.39614" lon="6.096">
        <ele>263.39999389648</ele>
        <time>2015-06-17T14:37:36Z</time>
      </trkpt>
      <trkpt lat="43.39617" lon="6.09589">
        <ele>263.20001220703</ele>
        <time>2015-06-17T14:37:38Z</time>
      </trkpt>
      <trkpt lat="43.3962" lon="6.09579">
        <ele>263</ele>
        <time>2015-06-17T14:37:40Z</time>
      </trkpt>
      <trkpt lat="43.39623" lon="6.0957">
        <ele>263.20001220703</ele>
        <time>2015-06-17T14:37:42Z</time>
      </trkpt>
      <trkpt lat="43.39625" lon="6.09564">
        <ele>263.60000610352</ele>
        <time>2015-06-17T14:37:43Z</time>
      </trkpt>
      <trkpt lat="43.39627" lon="6.09557">
        <ele>263.39999389648</ele>
        <time>2015-06-17T14:37:44Z</time>
      </trkpt>
      <trkpt lat="43.39629" lon="6.09551">
        <ele>262.79998779297</ele>
        <time>2015-06-17T14:37:45Z</time>
      </trkpt>
      <trkpt lat="43.39632" lon="6.09545">
        <ele>262.20001220703</ele>
        <time>2015-06-17T14:37:46Z</time>
      </trkpt>
      <trkpt lat="43.3964" lon="6.09535">
        <ele>261.39999389648</ele>
        <time>2015-06-17T14:37:48Z</time>
      </trkpt>
      <trkpt lat="43.39643" lon="6.09531">
        <ele>261</ele>
        <time>2015-06-17T14:37:49Z</time>
      </trkpt>
      <trkpt lat="43.39647" lon="6.09526">
        <ele>260.39999389648</ele>
        <time>2015-06-17T14:37:50Z</time>
      </trkpt>
      <trkpt lat="43.39654" lon="6.09516">
        <ele>259.60000610352</ele>
        <time>2015-06-17T14:37:52Z</time>
      </trkpt>
      <trkpt lat="43.3966" lon="6.09503">
        <ele>258.20001220703</ele>
        <time>2015-06-17T14:37:54Z</time>
      </trkpt>
      <trkpt lat="43.39664" lon="6.0949">
        <ele>257</ele>
        <time>2015-06-17T14:37:56Z</time>
      </trkpt>
      <trkpt lat="43.39669" lon="6.09478">
        <ele>256</ele>
        <time>2015-06-17T14:37:58Z</time>
      </trkpt>
      <trkpt lat="43.39671" lon="6.09469">
        <ele>254.80000305176</ele>
        <time>2015-06-17T14:38:00Z</time>
      </trkpt>
      <trkpt lat="43.39671" lon="6.09465">
        <ele>254.19999694824</ele>
        <time>2015-06-17T14:38:02Z</time>
      </trkpt>
      <trkpt lat="43.39672" lon="6.09462">
        <ele>253.80000305176</ele>
        <time>2015-06-17T14:38:04Z</time>
      </trkpt>
      <trkpt lat="43.39673" lon="6.09461">
        <ele>253.60000610352</ele>
        <time>2015-06-17T14:38:05Z</time>
      </trkpt>
      <trkpt lat="43.39674" lon="6.09461">
        <ele>253.39999389648</ele>
        <time>2015-06-17T14:38:06Z</time>
      </trkpt>
      <trkpt lat="43.39676" lon="6.09461">
        <ele>253.19999694824</ele>
        <time>2015-06-17T14:38:08Z</time>
      </trkpt>
      <trkpt lat="43.39677" lon="6.09461">
        <ele>253.19999694824</ele>
        <time>2015-06-17T14:38:09Z</time>
      </trkpt>
      <trkpt lat="43.39682" lon="6.09462">
        <ele>252.60000610352</ele>
        <time>2015-06-17T14:38:10Z</time>
      </trkpt>
      <trkpt lat="43.39686" lon="6.09463">
        <ele>251.60000610352</ele>
        <time>2015-06-17T14:38:11Z</time>
      </trkpt>
      <trkpt lat="43.3969" lon="6.09463">
        <ele>250</ele>
        <time>2015-06-17T14:38:12Z</time>
      </trkpt>
      <trkpt lat="43.39693" lon="6.09462">
        <ele>249.39999389648</ele>
        <time>2015-06-17T14:38:13Z</time>
      </trkpt>
      <trkpt lat="43.39695" lon="6.09458">
        <ele>248.80000305176</ele>
        <time>2015-06-17T14:38:14Z</time>
      </trkpt>
      <trkpt lat="43.39697" lon="6.09454">
        <ele>248.39999389648</ele>
        <time>2015-06-17T14:38:15Z</time>
      </trkpt>
      <trkpt lat="43.397" lon="6.0945">
        <ele>248.19999694824</ele>
        <time>2015-06-17T14:38:16Z</time>
      </trkpt>
      <trkpt lat="43.39705" lon="6.09442">
        <ele>248.19999694824</ele>
        <time>2015-06-17T14:38:18Z</time>
      </trkpt>
      <trkpt lat="43.39709" lon="6.09436">
        <ele>248.39999389648</ele>
        <time>2015-06-17T14:38:20Z</time>
      </trkpt>
      <trkpt lat="43.39714" lon="6.09427">
        <ele>248.60000610352</ele>
        <time>2015-06-17T14:38:22Z</time>
      </trkpt>
      <trkpt lat="43.39719" lon="6.09419">
        <ele>248</ele>
        <time>2015-06-17T14:38:24Z</time>
      </trkpt>
      <trkpt lat="43.39722" lon="6.09415">
        <ele>247.80000305176</ele>
        <time>2015-06-17T14:38:25Z</time>
      </trkpt>
      <trkpt lat="43.39724" lon="6.09411">
        <ele>247.60000610352</ele>
        <time>2015-06-17T14:38:26Z</time>
      </trkpt>
      <trkpt lat="43.39729" lon="6.09402">
        <ele>247.80000305176</ele>
        <time>2015-06-17T14:38:28Z</time>
      </trkpt>
      <trkpt lat="43.39732" lon="6.09399">
        <ele>247.60000610352</ele>
        <time>2015-06-17T14:38:29Z</time>
      </trkpt>
      <trkpt lat="43.39733" lon="6.09394">
        <ele>247.39999389648</ele>
        <time>2015-06-17T14:38:30Z</time>
      </trkpt>
      <trkpt lat="43.39736" lon="6.09385">
        <ele>247.19999694824</ele>
        <time>2015-06-17T14:38:32Z</time>
      </trkpt>
      <trkpt lat="43.39741" lon="6.09378">
        <ele>247.19999694824</ele>
        <time>2015-06-17T14:38:34Z</time>
      </trkpt>
      <trkpt lat="43.39746" lon="6.0937">
        <ele>247</ele>
        <time>2015-06-17T14:38:36Z</time>
      </trkpt>
      <trkpt lat="43.39749" lon="6.09362">
        <ele>247.19999694824</ele>
        <time>2015-06-17T14:38:38Z</time>
      </trkpt>
      <trkpt lat="43.39751" lon="6.09358">
        <ele>247.19999694824</ele>
        <time>2015-06-17T14:38:39Z</time>
      </trkpt>
      <trkpt lat="43.39753" lon="6.09355">
        <ele>247.19999694824</ele>
        <time>2015-06-17T14:38:40Z</time>
      </trkpt>
      <trkpt lat="43.39756" lon="6.09348">
        <ele>247.19999694824</ele>
        <time>2015-06-17T14:38:42Z</time>
      </trkpt>
      <trkpt lat="43.3976" lon="6.09343">
        <ele>247.19999694824</ele>
        <time>2015-06-17T14:38:44Z</time>
      </trkpt>
      <trkpt lat="43.39761" lon="6.0934">
        <ele>247</ele>
        <time>2015-06-17T14:38:45Z</time>
      </trkpt>
      <trkpt lat="43.39763" lon="6.09337">
        <ele>247</ele>
        <time>2015-06-17T14:38:46Z</time>
      </trkpt>
      <trkpt lat="43.39767" lon="6.0933">
        <ele>246.60000610352</ele>
        <time>2015-06-17T14:38:48Z</time>
      </trkpt>
      <trkpt lat="43.39771" lon="6.09322">
        <ele>246.39999389648</ele>
        <time>2015-06-17T14:38:50Z</time>
      </trkpt>
      <trkpt lat="43.39772" lon="6.09319">
        <ele>246.39999389648</ele>
        <time>2015-06-17T14:38:51Z</time>
      </trkpt>
      <trkpt lat="43.39774" lon="6.09315">
        <ele>246.39999389648</ele>
        <time>2015-06-17T14:38:52Z</time>
      </trkpt>
      <trkpt lat="43.39777" lon="6.09308">
        <ele>246.39999389648</ele>
        <time>2015-06-17T14:38:54Z</time>
      </trkpt>
      <trkpt lat="43.3978" lon="6.09302">
        <ele>246.80000305176</ele>
        <time>2015-06-17T14:38:56Z</time>
      </trkpt>
      <trkpt lat="43.39783" lon="6.09295">
        <ele>246.80000305176</ele>
        <time>2015-06-17T14:38:58Z</time>
      </trkpt>
      <trkpt lat="43.39783" lon="6.09292">
        <ele>247</ele>
        <time>2015-06-17T14:38:59Z</time>
      </trkpt>
      <trkpt lat="43.39784" lon="6.09289">
        <ele>247.19999694824</ele>
        <time>2015-06-17T14:39:00Z</time>
      </trkpt>
      <trkpt lat="43.39784" lon="6.09282">
        <ele>247.19999694824</ele>
        <time>2015-06-17T14:39:02Z</time>
      </trkpt>
      <trkpt lat="43.39785" lon="6.09279">
        <ele>247.19999694824</ele>
        <time>2015-06-17T14:39:03Z</time>
      </trkpt>
      <trkpt lat="43.39787" lon="6.09277">
        <ele>247.39999389648</ele>
        <time>2015-06-17T14:39:04Z</time>
      </trkpt>
      <trkpt lat="43.39789" lon="6.09272">
        <ele>247.19999694824</ele>
        <time>2015-06-17T14:39:06Z</time>
      </trkpt>
      <trkpt lat="43.3979" lon="6.09266">
        <ele>247.19999694824</ele>
        <time>2015-06-17T14:39:08Z</time>
      </trkpt>
      <trkpt lat="43.39791" lon="6.0926">
        <ele>247.19999694824</ele>
        <time>2015-06-17T14:39:10Z</time>
      </trkpt>
      <trkpt lat="43.39792" lon="6.09258">
        <ele>247.19999694824</ele>
        <time>2015-06-17T14:39:11Z</time>
      </trkpt>
      <trkpt lat="43.39793" lon="6.09255">
        <ele>247.39999389648</ele>
        <time>2015-06-17T14:39:12Z</time>
      </trkpt>
      <trkpt lat="43.39794" lon="6.0925">
        <ele>247.39999389648</ele>
        <time>2015-06-17T14:39:14Z</time>
      </trkpt>
      <trkpt lat="43.39795" lon="6.09244">
        <ele>247.60000610352</ele>
        <time>2015-06-17T14:39:16Z</time>
      </trkpt>
      <trkpt lat="43.39796" lon="6.09237">
        <ele>247.80000305176</ele>
        <time>2015-06-17T14:39:18Z</time>
      </trkpt>
      <trkpt lat="43.39797" lon="6.09229">
        <ele>247.39999389648</ele>
        <time>2015-06-17T14:39:20Z</time>
      </trkpt>
      <trkpt lat="43.39798" lon="6.09222">
        <ele>247.39999389648</ele>
        <time>2015-06-17T14:39:22Z</time>
      </trkpt>
      <trkpt lat="43.39799" lon="6.09214">
        <ele>247.60000610352</ele>
        <time>2015-06-17T14:39:24Z</time>
      </trkpt>
      <trkpt lat="43.39799" lon="6.09207">
        <ele>247.60000610352</ele>
        <time>2015-06-17T14:39:26Z</time>
      </trkpt>
      <trkpt lat="43.39799" lon="6.092">
        <ele>247.80000305176</ele>
        <time>2015-06-17T14:39:28Z</time>
      </trkpt>
      <trkpt lat="43.39799" lon="6.09197">
        <ele>248</ele>
        <time>2015-06-17T14:39:29Z</time>
      </trkpt>
      <trkpt lat="43.39799" lon="6.09193">
        <ele>247.80000305176</ele>
        <time>2015-06-17T14:39:30Z</time>
      </trkpt>
      <trkpt lat="43.39799" lon="6.09186">
        <ele>248</ele>
        <time>2015-06-17T14:39:32Z</time>
      </trkpt>
      <trkpt lat="43.39798" lon="6.09179">
        <ele>248.19999694824</ele>
        <time>2015-06-17T14:39:34Z</time>
      </trkpt>
      <trkpt lat="43.39799" lon="6.09171">
        <ele>248.39999389648</ele>
        <time>2015-06-17T14:39:36Z</time>
      </trkpt>
      <trkpt lat="43.39799" lon="6.09164">
        <ele>248.80000305176</ele>
        <time>2015-06-17T14:39:38Z</time>
      </trkpt>
      <trkpt lat="43.39799" lon="6.0916">
        <ele>249</ele>
        <time>2015-06-17T14:39:39Z</time>
      </trkpt>
      <trkpt lat="43.39799" lon="6.09156">
        <ele>249.19999694824</ele>
        <time>2015-06-17T14:39:40Z</time>
      </trkpt>
      <trkpt lat="43.398" lon="6.09148">
        <ele>249</ele>
        <time>2015-06-17T14:39:42Z</time>
      </trkpt>
      <trkpt lat="43.39801" lon="6.0914">
        <ele>249.19999694824</ele>
        <time>2015-06-17T14:39:44Z</time>
      </trkpt>
      <trkpt lat="43.39802" lon="6.09131">
        <ele>249.19999694824</ele>
        <time>2015-06-17T14:39:46Z</time>
      </trkpt>
      <trkpt lat="43.39803" lon="6.09127">
        <ele>249.19999694824</ele>
        <time>2015-06-17T14:39:47Z</time>
      </trkpt>
      <trkpt lat="43.39804" lon="6.09122">
        <ele>249.19999694824</ele>
        <time>2015-06-17T14:39:48Z</time>
      </trkpt>
      <trkpt lat="43.39806" lon="6.09114">
        <ele>249.80000305176</ele>
        <time>2015-06-17T14:39:50Z</time>
      </trkpt>
      <trkpt lat="43.39808" lon="6.09105">
        <ele>250</ele>
        <time>2015-06-17T14:39:52Z</time>
      </trkpt>
      <trkpt lat="43.3981" lon="6.09097">
        <ele>250.19999694824</ele>
        <time>2015-06-17T14:39:54Z</time>
      </trkpt>
      <trkpt lat="43.39813" lon="6.09091">
        <ele>250.60000610352</ele>
        <time>2015-06-17T14:39:56Z</time>
      </trkpt>
      <trkpt lat="43.39815" lon="6.09082">
        <ele>250.60000610352</ele>
        <time>2015-06-17T14:39:58Z</time>
      </trkpt>
      <trkpt lat="43.39818" lon="6.09073">
        <ele>250.39999389648</ele>
        <time>2015-06-17T14:40:00Z</time>
      </trkpt>
      <trkpt lat="43.3982" lon="6.09069">
        <ele>250.39999389648</ele>
        <time>2015-06-17T14:40:01Z</time>
      </trkpt>
      <trkpt lat="43.39822" lon="6.09065">
        <ele>250.39999389648</ele>
        <time>2015-06-17T14:40:02Z</time>
      </trkpt>
      <trkpt lat="43.39826" lon="6.09055">
        <ele>249.80000305176</ele>
        <time>2015-06-17T14:40:04Z</time>
      </trkpt>
      <trkpt lat="43.39828" lon="6.09051">
        <ele>249.60000610352</ele>
        <time>2015-06-17T14:40:05Z</time>
      </trkpt>
      <trkpt lat="43.39832" lon="6.09046">
        <ele>249.60000610352</ele>
        <time>2015-06-17T14:40:06Z</time>
      </trkpt>
      <trkpt lat="43.3984" lon="6.09038">
        <ele>249.19999694824</ele>
        <time>2015-06-17T14:40:08Z</time>
      </trkpt>
      <trkpt lat="43.39844" lon="6.09034">
        <ele>249</ele>
        <time>2015-06-17T14:40:09Z</time>
      </trkpt>
      <trkpt lat="43.39848" lon="6.0903">
        <ele>248.80000305176</ele>
        <time>2015-06-17T14:40:10Z</time>
      </trkpt>
      <trkpt lat="43.39852" lon="6.09025">
        <ele>248.60000610352</ele>
        <time>2015-06-17T14:40:11Z</time>
      </trkpt>
      <trkpt lat="43.39856" lon="6.0902">
        <ele>248.39999389648</ele>
        <time>2015-06-17T14:40:12Z</time>
      </trkpt>
      <trkpt lat="43.39864" lon="6.0901">
        <ele>248.39999389648</ele>
        <time>2015-06-17T14:40:14Z</time>
      </trkpt>
      <trkpt lat="43.39869" lon="6.09005">
        <ele>247.80000305176</ele>
        <time>2015-06-17T14:40:15Z</time>
      </trkpt>
      <trkpt lat="43.39874" lon="6.09">
        <ele>247</ele>
        <time>2015-06-17T14:40:16Z</time>
      </trkpt>
      <trkpt lat="43.39879" lon="6.08997">
        <ele>247</ele>
        <time>2015-06-17T14:40:17Z</time>
      </trkpt>
      <trkpt lat="43.39884" lon="6.08994">
        <ele>246.80000305176</ele>
        <time>2015-06-17T14:40:18Z</time>
      </trkpt>
      <trkpt lat="43.39889" lon="6.08992">
        <ele>246.60000610352</ele>
        <time>2015-06-17T14:40:19Z</time>
      </trkpt>
      <trkpt lat="43.39894" lon="6.0899">
        <ele>246.39999389648</ele>
        <time>2015-06-17T14:40:20Z</time>
      </trkpt>
      <trkpt lat="43.39899" lon="6.08989">
        <ele>246.39999389648</ele>
        <time>2015-06-17T14:40:21Z</time>
      </trkpt>
      <trkpt lat="43.39904" lon="6.08989">
        <ele>246.80000305176</ele>
        <time>2015-06-17T14:40:22Z</time>
      </trkpt>
      <trkpt lat="43.39914" lon="6.0899">
        <ele>246.39999389648</ele>
        <time>2015-06-17T14:40:24Z</time>
      </trkpt>
      <trkpt lat="43.3992" lon="6.08989">
        <ele>245.39999389648</ele>
        <time>2015-06-17T14:40:25Z</time>
      </trkpt>
      <trkpt lat="43.39927" lon="6.08988">
        <ele>243.80000305176</ele>
        <time>2015-06-17T14:40:26Z</time>
      </trkpt>
      <trkpt lat="43.3994" lon="6.08985">
        <ele>243.60000610352</ele>
        <time>2015-06-17T14:40:28Z</time>
      </trkpt>
      <trkpt lat="43.39946" lon="6.08983">
        <ele>243.39999389648</ele>
        <time>2015-06-17T14:40:29Z</time>
      </trkpt>
      <trkpt lat="43.39953" lon="6.08981">
        <ele>243</ele>
        <time>2015-06-17T14:40:30Z</time>
      </trkpt>
      <trkpt lat="43.39967" lon="6.08978">
        <ele>243.19999694824</ele>
        <time>2015-06-17T14:40:32Z</time>
      </trkpt>
      <trkpt lat="43.3998" lon="6.08975">
        <ele>243.19999694824</ele>
        <time>2015-06-17T14:40:34Z</time>
      </trkpt>
      <trkpt lat="43.39985" lon="6.08974">
        <ele>243.19999694824</ele>
        <time>2015-06-17T14:40:35Z</time>
      </trkpt>
      <trkpt lat="43.39992" lon="6.08973">
        <ele>243</ele>
        <time>2015-06-17T14:40:36Z</time>
      </trkpt>
      <trkpt lat="43.40003" lon="6.08969">
        <ele>242.60000610352</ele>
        <time>2015-06-17T14:40:38Z</time>
      </trkpt>
      <trkpt lat="43.40014" lon="6.08963">
        <ele>242.60000610352</ele>
        <time>2015-06-17T14:40:40Z</time>
      </trkpt>
      <trkpt lat="43.4002" lon="6.08953">
        <ele>242.60000610352</ele>
        <time>2015-06-17T14:40:42Z</time>
      </trkpt>
      <trkpt lat="43.40023" lon="6.08947">
        <ele>242.39999389648</ele>
        <time>2015-06-17T14:40:43Z</time>
      </trkpt>
      <trkpt lat="43.40025" lon="6.0894">
        <ele>242.19999694824</ele>
        <time>2015-06-17T14:40:44Z</time>
      </trkpt>
      <trkpt lat="43.4003" lon="6.08926">
        <ele>242</ele>
        <time>2015-06-17T14:40:46Z</time>
      </trkpt>
      <trkpt lat="43.40032" lon="6.0892">
        <ele>242</ele>
        <time>2015-06-17T14:40:47Z</time>
      </trkpt>
      <trkpt lat="43.40034" lon="6.08912">
        <ele>241.80000305176</ele>
        <time>2015-06-17T14:40:48Z</time>
      </trkpt>
      <trkpt lat="43.40036" lon="6.08905">
        <ele>241.60000610352</ele>
        <time>2015-06-17T14:40:49Z</time>
      </trkpt>
      <trkpt lat="43.40038" lon="6.08898">
        <ele>241.80000305176</ele>
        <time>2015-06-17T14:40:50Z</time>
      </trkpt>
      <trkpt lat="43.40042" lon="6.08885">
        <ele>241.80000305176</ele>
        <time>2015-06-17T14:40:52Z</time>
      </trkpt>
      <trkpt lat="43.40046" lon="6.08871">
        <ele>242</ele>
        <time>2015-06-17T14:40:54Z</time>
      </trkpt>
      <trkpt lat="43.40051" lon="6.08857">
        <ele>242</ele>
        <time>2015-06-17T14:40:56Z</time>
      </trkpt>
      <trkpt lat="43.40056" lon="6.08844">
        <ele>242</ele>
        <time>2015-06-17T14:40:58Z</time>
      </trkpt>
      <trkpt lat="43.40062" lon="6.08831">
        <ele>242</ele>
        <time>2015-06-17T14:41:00Z</time>
      </trkpt>
      <trkpt lat="43.40067" lon="6.08818">
        <ele>241.80000305176</ele>
        <time>2015-06-17T14:41:02Z</time>
      </trkpt>
      <trkpt lat="43.40072" lon="6.08805">
        <ele>242</ele>
        <time>2015-06-17T14:41:04Z</time>
      </trkpt>
      <trkpt lat="43.40075" lon="6.08799">
        <ele>242.19999694824</ele>
        <time>2015-06-17T14:41:05Z</time>
      </trkpt>
      <trkpt lat="43.40078" lon="6.08792">
        <ele>242.39999389648</ele>
        <time>2015-06-17T14:41:06Z</time>
      </trkpt>
      <trkpt lat="43.40083" lon="6.08778">
        <ele>242.39999389648</ele>
        <time>2015-06-17T14:41:08Z</time>
      </trkpt>
      <trkpt lat="43.40087" lon="6.08763">
        <ele>242.39999389648</ele>
        <time>2015-06-17T14:41:10Z</time>
      </trkpt>
      <trkpt lat="43.40089" lon="6.08756">
        <ele>242.60000610352</ele>
        <time>2015-06-17T14:41:11Z</time>
      </trkpt>
      <trkpt lat="43.40092" lon="6.08748">
        <ele>242.19999694824</ele>
        <time>2015-06-17T14:41:12Z</time>
      </trkpt>
      <trkpt lat="43.40096" lon="6.08733">
        <ele>241.80000305176</ele>
        <time>2015-06-17T14:41:14Z</time>
      </trkpt>
      <trkpt lat="43.40099" lon="6.08717">
        <ele>242.19999694824</ele>
        <time>2015-06-17T14:41:16Z</time>
      </trkpt>
      <trkpt lat="43.40099" lon="6.0871">
        <ele>242</ele>
        <time>2015-06-17T14:41:17Z</time>
      </trkpt>
      <trkpt lat="43.401" lon="6.08702">
        <ele>241.80000305176</ele>
        <time>2015-06-17T14:41:18Z</time>
      </trkpt>
      <trkpt lat="43.40101" lon="6.08694">
        <ele>241.60000610352</ele>
        <time>2015-06-17T14:41:19Z</time>
      </trkpt>
      <trkpt lat="43.40101" lon="6.08686">
        <ele>241.19999694824</ele>
        <time>2015-06-17T14:41:20Z</time>
      </trkpt>
      <trkpt lat="43.40099" lon="6.0867">
        <ele>241.19999694824</ele>
        <time>2015-06-17T14:41:22Z</time>
      </trkpt>
      <trkpt lat="43.40097" lon="6.08655">
        <ele>241</ele>
        <time>2015-06-17T14:41:24Z</time>
      </trkpt>
      <trkpt lat="43.40097" lon="6.08648">
        <ele>240.19999694824</ele>
        <time>2015-06-17T14:41:25Z</time>
      </trkpt>
      <trkpt lat="43.40099" lon="6.0864">
        <ele>239.60000610352</ele>
        <time>2015-06-17T14:41:26Z</time>
      </trkpt>
      <trkpt lat="43.40107" lon="6.0863">
        <ele>239.39999389648</ele>
        <time>2015-06-17T14:41:28Z</time>
      </trkpt>
      <trkpt lat="43.40112" lon="6.08626">
        <ele>239.19999694824</ele>
        <time>2015-06-17T14:41:29Z</time>
      </trkpt>
      <trkpt lat="43.40117" lon="6.08622">
        <ele>238.80000305176</ele>
        <time>2015-06-17T14:41:30Z</time>
      </trkpt>
      <trkpt lat="43.40126" lon="6.08614">
        <ele>238.39999389648</ele>
        <time>2015-06-17T14:41:32Z</time>
      </trkpt>
      <trkpt lat="43.40135" lon="6.08606">
        <ele>238</ele>
        <time>2015-06-17T14:41:34Z</time>
      </trkpt>
      <trkpt lat="43.40144" lon="6.08598">
        <ele>237.39999389648</ele>
        <time>2015-06-17T14:41:36Z</time>
      </trkpt>
      <trkpt lat="43.4015" lon="6.08595">
        <ele>237.19999694824</ele>
        <time>2015-06-17T14:41:37Z</time>
      </trkpt>
      <trkpt lat="43.40155" lon="6.08592">
        <ele>237.19999694824</ele>
        <time>2015-06-17T14:41:38Z</time>
      </trkpt>
      <trkpt lat="43.40159" lon="6.08589">
        <ele>237.39999389648</ele>
        <time>2015-06-17T14:41:39Z</time>
      </trkpt>
      <trkpt lat="43.40163" lon="6.08585">
        <ele>237.39999389648</ele>
        <time>2015-06-17T14:41:40Z</time>
      </trkpt>
      <trkpt lat="43.40168" lon="6.08572">
        <ele>238</ele>
        <time>2015-06-17T14:41:42Z</time>
      </trkpt>
      <trkpt lat="43.40169" lon="6.08566">
        <ele>238.19999694824</ele>
        <time>2015-06-17T14:41:43Z</time>
      </trkpt>
      <trkpt lat="43.40169" lon="6.08559">
        <ele>238.39999389648</ele>
        <time>2015-06-17T14:41:44Z</time>
      </trkpt>
      <trkpt lat="43.40169" lon="6.08548">
        <ele>238.60000610352</ele>
        <time>2015-06-17T14:41:46Z</time>
      </trkpt>
      <trkpt lat="43.40168" lon="6.08543">
        <ele>238.60000610352</ele>
        <time>2015-06-17T14:41:47Z</time>
      </trkpt>
      <trkpt lat="43.40168" lon="6.08538">
        <ele>238.60000610352</ele>
        <time>2015-06-17T14:41:48Z</time>
      </trkpt>
      <trkpt lat="43.40169" lon="6.08528">
        <ele>239</ele>
        <time>2015-06-17T14:41:50Z</time>
      </trkpt>
      <trkpt lat="43.40169" lon="6.08518">
        <ele>238.80000305176</ele>
        <time>2015-06-17T14:41:52Z</time>
      </trkpt>
      <trkpt lat="43.4017" lon="6.08506">
        <ele>239</ele>
        <time>2015-06-17T14:41:54Z</time>
      </trkpt>
      <trkpt lat="43.40171" lon="6.08496">
        <ele>239.19999694824</ele>
        <time>2015-06-17T14:41:56Z</time>
      </trkpt>
      <trkpt lat="43.40173" lon="6.08486">
        <ele>239.19999694824</ele>
        <time>2015-06-17T14:41:58Z</time>
      </trkpt>
      <trkpt lat="43.40173" lon="6.08481">
        <ele>239.39999389648</ele>
        <time>2015-06-17T14:41:59Z</time>
      </trkpt>
      <trkpt lat="43.40173" lon="6.08476">
        <ele>239.19999694824</ele>
        <time>2015-06-17T14:42:00Z</time>
      </trkpt>
      <trkpt lat="43.40175" lon="6.08466">
        <ele>239</ele>
        <time>2015-06-17T14:42:02Z</time>
      </trkpt>
      <trkpt lat="43.40176" lon="6.08455">
        <ele>239</ele>
        <time>2015-06-17T14:42:04Z</time>
      </trkpt>
      <trkpt lat="43.40177" lon="6.0845">
        <ele>239.19999694824</ele>
        <time>2015-06-17T14:42:05Z</time>
      </trkpt>
      <trkpt lat="43.40178" lon="6.08444">
        <ele>239.19999694824</ele>
        <time>2015-06-17T14:42:06Z</time>
      </trkpt>
      <trkpt lat="43.40179" lon="6.08431">
        <ele>239</ele>
        <time>2015-06-17T14:42:08Z</time>
      </trkpt>
      <trkpt lat="43.40179" lon="6.08419">
        <ele>239.19999694824</ele>
        <time>2015-06-17T14:42:10Z</time>
      </trkpt>
      <trkpt lat="43.40181" lon="6.08406">
        <ele>239.39999389648</ele>
        <time>2015-06-17T14:42:12Z</time>
      </trkpt>
      <trkpt lat="43.40181" lon="6.084">
        <ele>239.19999694824</ele>
        <time>2015-06-17T14:42:13Z</time>
      </trkpt>
      <trkpt lat="43.40181" lon="6.08394">
        <ele>239</ele>
        <time>2015-06-17T14:42:14Z</time>
      </trkpt>
      <trkpt lat="43.40181" lon="6.08381">
        <ele>239</ele>
        <time>2015-06-17T14:42:16Z</time>
      </trkpt>
      <trkpt lat="43.40181" lon="6.08374">
        <ele>239</ele>
        <time>2015-06-17T14:42:17Z</time>
      </trkpt>
      <trkpt lat="43.40181" lon="6.08367">
        <ele>238.80000305176</ele>
        <time>2015-06-17T14:42:18Z</time>
      </trkpt>
      <trkpt lat="43.40181" lon="6.08354">
        <ele>238.39999389648</ele>
        <time>2015-06-17T14:42:20Z</time>
      </trkpt>
      <trkpt lat="43.40181" lon="6.0834">
        <ele>238.39999389648</ele>
        <time>2015-06-17T14:42:22Z</time>
      </trkpt>
      <trkpt lat="43.40182" lon="6.08326">
        <ele>238.19999694824</ele>
        <time>2015-06-17T14:42:24Z</time>
      </trkpt>
      <trkpt lat="43.40183" lon="6.08312">
        <ele>238</ele>
        <time>2015-06-17T14:42:26Z</time>
      </trkpt>
      <trkpt lat="43.40184" lon="6.08306">
        <ele>238</ele>
        <time>2015-06-17T14:42:27Z</time>
      </trkpt>
      <trkpt lat="43.40184" lon="6.08299">
        <ele>238</ele>
        <time>2015-06-17T14:42:28Z</time>
      </trkpt>
      <trkpt lat="43.40186" lon="6.08288">
        <ele>238.19999694824</ele>
        <time>2015-06-17T14:42:30Z</time>
      </trkpt>
      <trkpt lat="43.40186" lon="6.08282">
        <ele>238</ele>
        <time>2015-06-17T14:42:32Z</time>
      </trkpt>
      <trkpt lat="43.40186" lon="6.0828">
        <ele>238</ele>
        <time>2015-06-17T14:42:34Z</time>
      </trkpt>
      <trkpt lat="43.40186" lon="6.08279">
        <ele>238.19999694824</ele>
        <time>2015-06-17T14:42:36Z</time>
      </trkpt>
      <trkpt lat="43.40186" lon="6.08279">
        <ele>238.19999694824</ele>
        <time>2015-06-17T14:42:38Z</time>
      </trkpt>
      <trkpt lat="43.40186" lon="6.08278">
        <ele>238.19999694824</ele>
        <time>2015-06-17T14:42:40Z</time>
      </trkpt>
      <trkpt lat="43.40186" lon="6.08278">
        <ele>238</ele>
        <time>2015-06-17T14:42:42Z</time>
      </trkpt>
      <trkpt lat="43.40186" lon="6.08278">
        <ele>238.19999694824</ele>
        <time>2015-06-17T14:42:44Z</time>
      </trkpt>
      <trkpt lat="43.40186" lon="6.08276">
        <ele>238.19999694824</ele>
        <time>2015-06-17T14:42:46Z</time>
      </trkpt>
      <trkpt lat="43.40187" lon="6.08272">
        <ele>238</ele>
        <time>2015-06-17T14:42:48Z</time>
      </trkpt>
      <trkpt lat="43.40188" lon="6.08268">
        <ele>237.80000305176</ele>
        <time>2015-06-17T14:42:50Z</time>
      </trkpt>
      <trkpt lat="43.40188" lon="6.08266">
        <ele>237.80000305176</ele>
        <time>2015-06-17T14:42:51Z</time>
      </trkpt>
      <trkpt lat="43.40187" lon="6.08265">
        <ele>238</ele>
        <time>2015-06-17T14:42:52Z</time>
      </trkpt>
      <trkpt lat="43.40187" lon="6.08265">
        <ele>237.80000305176</ele>
        <time>2015-06-17T14:42:54Z</time>
      </trkpt>
      <trkpt lat="43.40187" lon="6.08264">
        <ele>237.80000305176</ele>
        <time>2015-06-17T14:42:56Z</time>
      </trkpt>
      <trkpt lat="43.40187" lon="6.08264">
        <ele>237.80000305176</ele>
        <time>2015-06-17T14:42:58Z</time>
      </trkpt>
      <trkpt lat="43.40187" lon="6.08264">
        <ele>237.80000305176</ele>
        <time>2015-06-17T14:42:59Z</time>
      </trkpt>
      <trkpt lat="43.40187" lon="6.08264">
        <ele>237.80000305176</ele>
        <time>2015-06-17T14:43:00Z</time>
      </trkpt>
      <trkpt lat="43.40186" lon="6.08263">
        <ele>237.80000305176</ele>
        <time>2015-06-17T14:43:02Z</time>
      </trkpt>
      <trkpt lat="43.40186" lon="6.08261">
        <ele>237.80000305176</ele>
        <time>2015-06-17T14:43:03Z</time>
      </trkpt>
      <trkpt lat="43.40186" lon="6.08258">
        <ele>237.80000305176</ele>
        <time>2015-06-17T14:43:04Z</time>
      </trkpt>
      <trkpt lat="43.40186" lon="6.08255">
        <ele>237.80000305176</ele>
        <time>2015-06-17T14:43:05Z</time>
      </trkpt>
      <trkpt lat="43.40185" lon="6.0825">
        <ele>237.80000305176</ele>
        <time>2015-06-17T14:43:06Z</time>
      </trkpt>
      <trkpt lat="43.40184" lon="6.08238">
        <ele>237.39999389648</ele>
        <time>2015-06-17T14:43:08Z</time>
      </trkpt>
      <trkpt lat="43.40184" lon="6.08232">
        <ele>237.60000610352</ele>
        <time>2015-06-17T14:43:09Z</time>
      </trkpt>
      <trkpt lat="43.40184" lon="6.08226">
        <ele>237.80000305176</ele>
        <time>2015-06-17T14:43:10Z</time>
      </trkpt>
      <trkpt lat="43.40187" lon="6.08215">
        <ele>237.60000610352</ele>
        <time>2015-06-17T14:43:12Z</time>
      </trkpt>
      <trkpt lat="43.4019" lon="6.08203">
        <ele>237.80000305176</ele>
        <time>2015-06-17T14:43:14Z</time>
      </trkpt>
      <trkpt lat="43.40192" lon="6.08198">
        <ele>237.80000305176</ele>
        <time>2015-06-17T14:43:15Z</time>
      </trkpt>
      <trkpt lat="43.40194" lon="6.08192">
        <ele>237.80000305176</ele>
        <time>2015-06-17T14:43:16Z</time>
      </trkpt>
      <trkpt lat="43.40195" lon="6.08187">
        <ele>237.80000305176</ele>
        <time>2015-06-17T14:43:17Z</time>
      </trkpt>
      <trkpt lat="43.40196" lon="6.0818">
        <ele>238</ele>
        <time>2015-06-17T14:43:18Z</time>
      </trkpt>
      <trkpt lat="43.40197" lon="6.08168">
        <ele>237.60000610352</ele>
        <time>2015-06-17T14:43:20Z</time>
      </trkpt>
      <trkpt lat="43.40198" lon="6.08161">
        <ele>237.60000610352</ele>
        <time>2015-06-17T14:43:21Z</time>
      </trkpt>
      <trkpt lat="43.40199" lon="6.08154">
        <ele>237.60000610352</ele>
        <time>2015-06-17T14:43:22Z</time>
      </trkpt>
      <trkpt lat="43.402" lon="6.08147">
        <ele>237.39999389648</ele>
        <time>2015-06-17T14:43:23Z</time>
      </trkpt>
      <trkpt lat="43.402" lon="6.08139">
        <ele>237</ele>
        <time>2015-06-17T14:43:24Z</time>
      </trkpt>
      <trkpt lat="43.402" lon="6.08132">
        <ele>236.60000610352</ele>
        <time>2015-06-17T14:43:25Z</time>
      </trkpt>
      <trkpt lat="43.40199" lon="6.08126">
        <ele>236.39999389648</ele>
        <time>2015-06-17T14:43:26Z</time>
      </trkpt>
      <trkpt lat="43.40195" lon="6.08115">
        <ele>236.39999389648</ele>
        <time>2015-06-17T14:43:28Z</time>
      </trkpt>
      <trkpt lat="43.40194" lon="6.08108">
        <ele>236</ele>
        <time>2015-06-17T14:43:29Z</time>
      </trkpt>
      <trkpt lat="43.40193" lon="6.08102">
        <ele>235.80000305176</ele>
        <time>2015-06-17T14:43:30Z</time>
      </trkpt>
      <trkpt lat="43.40194" lon="6.08088">
        <ele>235.39999389648</ele>
        <time>2015-06-17T14:43:32Z</time>
      </trkpt>
      <trkpt lat="43.40196" lon="6.08081">
        <ele>235</ele>
        <time>2015-06-17T14:43:33Z</time>
      </trkpt>
      <trkpt lat="43.40199" lon="6.08074">
        <ele>234.80000305176</ele>
        <time>2015-06-17T14:43:34Z</time>
      </trkpt>
      <trkpt lat="43.40206" lon="6.08061">
        <ele>234.80000305176</ele>
        <time>2015-06-17T14:43:36Z</time>
      </trkpt>
      <trkpt lat="43.4021" lon="6.08055">
        <ele>234.60000610352</ele>
        <time>2015-06-17T14:43:37Z</time>
      </trkpt>
      <trkpt lat="43.40215" lon="6.0805">
        <ele>234.19999694824</ele>
        <time>2015-06-17T14:43:38Z</time>
      </trkpt>
      <trkpt lat="43.40219" lon="6.08044">
        <ele>234</ele>
        <time>2015-06-17T14:43:39Z</time>
      </trkpt>
      <trkpt lat="43.40224" lon="6.08038">
        <ele>233.80000305176</ele>
        <time>2015-06-17T14:43:40Z</time>
      </trkpt>
      <trkpt lat="43.40233" lon="6.08027">
        <ele>233.60000610352</ele>
        <time>2015-06-17T14:43:42Z</time>
      </trkpt>
      <trkpt lat="43.40242" lon="6.08016">
        <ele>233</ele>
        <time>2015-06-17T14:43:44Z</time>
      </trkpt>
      <trkpt lat="43.40245" lon="6.08011">
        <ele>232.60000610352</ele>
        <time>2015-06-17T14:43:45Z</time>
      </trkpt>
      <trkpt lat="43.40249" lon="6.08006">
        <ele>232.39999389648</ele>
        <time>2015-06-17T14:43:46Z</time>
      </trkpt>
      <trkpt lat="43.40257" lon="6.07996">
        <ele>232.39999389648</ele>
        <time>2015-06-17T14:43:48Z</time>
      </trkpt>
      <trkpt lat="43.40264" lon="6.07984">
        <ele>231.80000305176</ele>
        <time>2015-06-17T14:43:50Z</time>
      </trkpt>
      <trkpt lat="43.40268" lon="6.07978">
        <ele>231.80000305176</ele>
        <time>2015-06-17T14:43:51Z</time>
      </trkpt>
      <trkpt lat="43.40272" lon="6.07972">
        <ele>231.60000610352</ele>
        <time>2015-06-17T14:43:52Z</time>
      </trkpt>
      <trkpt lat="43.40275" lon="6.07965">
        <ele>231.60000610352</ele>
        <time>2015-06-17T14:43:53Z</time>
      </trkpt>
      <trkpt lat="43.40279" lon="6.07958">
        <ele>231.60000610352</ele>
        <time>2015-06-17T14:43:54Z</time>
      </trkpt>
      <trkpt lat="43.40285" lon="6.07943">
        <ele>231</ele>
        <time>2015-06-17T14:43:56Z</time>
      </trkpt>
      <trkpt lat="43.40289" lon="6.07926">
        <ele>230.60000610352</ele>
        <time>2015-06-17T14:43:58Z</time>
      </trkpt>
      <trkpt lat="43.40291" lon="6.07917">
        <ele>230.60000610352</ele>
        <time>2015-06-17T14:43:59Z</time>
      </trkpt>
      <trkpt lat="43.40293" lon="6.07908">
        <ele>230.39999389648</ele>
        <time>2015-06-17T14:44:00Z</time>
      </trkpt>
      <trkpt lat="43.40296" lon="6.07889">
        <ele>229.80000305176</ele>
        <time>2015-06-17T14:44:02Z</time>
      </trkpt>
      <trkpt lat="43.40297" lon="6.0788">
        <ele>229.39999389648</ele>
        <time>2015-06-17T14:44:03Z</time>
      </trkpt>
      <trkpt lat="43.40298" lon="6.0787">
        <ele>229</ele>
        <time>2015-06-17T14:44:04Z</time>
      </trkpt>
      <trkpt lat="43.40301" lon="6.07851">
        <ele>228.80000305176</ele>
        <time>2015-06-17T14:44:06Z</time>
      </trkpt>
      <trkpt lat="43.40302" lon="6.07841">
        <ele>228.80000305176</ele>
        <time>2015-06-17T14:44:07Z</time>
      </trkpt>
      <trkpt lat="43.40303" lon="6.07832">
        <ele>228.80000305176</ele>
        <time>2015-06-17T14:44:08Z</time>
      </trkpt>
      <trkpt lat="43.40305" lon="6.07813">
        <ele>228.39999389648</ele>
        <time>2015-06-17T14:44:10Z</time>
      </trkpt>
      <trkpt lat="43.40306" lon="6.07804">
        <ele>228.19999694824</ele>
        <time>2015-06-17T14:44:11Z</time>
      </trkpt>
      <trkpt lat="43.40307" lon="6.07794">
        <ele>228</ele>
        <time>2015-06-17T14:44:12Z</time>
      </trkpt>
      <trkpt lat="43.4031" lon="6.07775">
        <ele>227.60000610352</ele>
        <time>2015-06-17T14:44:14Z</time>
      </trkpt>
      <trkpt lat="43.40311" lon="6.07756">
        <ele>227.60000610352</ele>
        <time>2015-06-17T14:44:16Z</time>
      </trkpt>
      <trkpt lat="43.40314" lon="6.07738">
        <ele>227.19999694824</ele>
        <time>2015-06-17T14:44:18Z</time>
      </trkpt>
      <trkpt lat="43.40316" lon="6.07728">
        <ele>227</ele>
        <time>2015-06-17T14:44:19Z</time>
      </trkpt>
      <trkpt lat="43.40319" lon="6.07719">
        <ele>226.80000305176</ele>
        <time>2015-06-17T14:44:20Z</time>
      </trkpt>
      <trkpt lat="43.40322" lon="6.0771">
        <ele>226.60000610352</ele>
        <time>2015-06-17T14:44:21Z</time>
      </trkpt>
      <trkpt lat="43.40326" lon="6.07702">
        <ele>226</ele>
        <time>2015-06-17T14:44:22Z</time>
      </trkpt>
      <trkpt lat="43.40336" lon="6.07687">
        <ele>226</ele>
        <time>2015-06-17T14:44:24Z</time>
      </trkpt>
      <trkpt lat="43.40342" lon="6.07681">
        <ele>226</ele>
        <time>2015-06-17T14:44:25Z</time>
      </trkpt>
      <trkpt lat="43.40348" lon="6.07675">
        <ele>225.80000305176</ele>
        <time>2015-06-17T14:44:26Z</time>
      </trkpt>
      <trkpt lat="43.40359" lon="6.07662">
        <ele>225.80000305176</ele>
        <time>2015-06-17T14:44:28Z</time>
      </trkpt>
      <trkpt lat="43.40366" lon="6.07646">
        <ele>225.39999389648</ele>
        <time>2015-06-17T14:44:30Z</time>
      </trkpt>
      <trkpt lat="43.40371" lon="6.07627">
        <ele>225.39999389648</ele>
        <time>2015-06-17T14:44:32Z</time>
      </trkpt>
      <trkpt lat="43.40374" lon="6.07608">
        <ele>225.80000305176</ele>
        <time>2015-06-17T14:44:34Z</time>
      </trkpt>
      <trkpt lat="43.40374" lon="6.0759">
        <ele>225.80000305176</ele>
        <time>2015-06-17T14:44:36Z</time>
      </trkpt>
      <trkpt lat="43.40375" lon="6.07572">
        <ele>226</ele>
        <time>2015-06-17T14:44:38Z</time>
      </trkpt>
      <trkpt lat="43.40376" lon="6.07554">
        <ele>226.39999389648</ele>
        <time>2015-06-17T14:44:40Z</time>
      </trkpt>
      <trkpt lat="43.40376" lon="6.07546">
        <ele>226.19999694824</ele>
        <time>2015-06-17T14:44:41Z</time>
      </trkpt>
      <trkpt lat="43.40376" lon="6.07538">
        <ele>226.19999694824</ele>
        <time>2015-06-17T14:44:42Z</time>
      </trkpt>
      <trkpt lat="43.40377" lon="6.07522">
        <ele>226.39999389648</ele>
        <time>2015-06-17T14:44:44Z</time>
      </trkpt>
      <trkpt lat="43.40379" lon="6.07505">
        <ele>226.39999389648</ele>
        <time>2015-06-17T14:44:46Z</time>
      </trkpt>
      <trkpt lat="43.40381" lon="6.07489">
        <ele>226.60000610352</ele>
        <time>2015-06-17T14:44:48Z</time>
      </trkpt>
      <trkpt lat="43.40384" lon="6.07472">
        <ele>226.60000610352</ele>
        <time>2015-06-17T14:44:50Z</time>
      </trkpt>
      <trkpt lat="43.40387" lon="6.07456">
        <ele>226.39999389648</ele>
        <time>2015-06-17T14:44:52Z</time>
      </trkpt>
      <trkpt lat="43.40389" lon="6.07439">
        <ele>226</ele>
        <time>2015-06-17T14:44:54Z</time>
      </trkpt>
      <trkpt lat="43.4039" lon="6.07422">
        <ele>225.80000305176</ele>
        <time>2015-06-17T14:44:56Z</time>
      </trkpt>
      <trkpt lat="43.40392" lon="6.07405">
        <ele>225.80000305176</ele>
        <time>2015-06-17T14:44:58Z</time>
      </trkpt>
      <trkpt lat="43.40392" lon="6.07389">
        <ele>225.60000610352</ele>
        <time>2015-06-17T14:45:00Z</time>
      </trkpt>
      <trkpt lat="43.4039" lon="6.07372">
        <ele>225.39999389648</ele>
        <time>2015-06-17T14:45:02Z</time>
      </trkpt>
      <trkpt lat="43.40388" lon="6.07355">
        <ele>225.39999389648</ele>
        <time>2015-06-17T14:45:04Z</time>
      </trkpt>
      <trkpt lat="43.40386" lon="6.07338">
        <ele>225.39999389648</ele>
        <time>2015-06-17T14:45:06Z</time>
      </trkpt>
      <trkpt lat="43.40384" lon="6.0733">
        <ele>225</ele>
        <time>2015-06-17T14:45:07Z</time>
      </trkpt>
      <trkpt lat="43.40383" lon="6.07321">
        <ele>225</ele>
        <time>2015-06-17T14:45:08Z</time>
      </trkpt>
      <trkpt lat="43.40381" lon="6.07305">
        <ele>224.39999389648</ele>
        <time>2015-06-17T14:45:10Z</time>
      </trkpt>
      <trkpt lat="43.40381" lon="6.07298">
        <ele>224</ele>
        <time>2015-06-17T14:45:11Z</time>
      </trkpt>
      <trkpt lat="43.40382" lon="6.07294">
        <ele>223.80000305176</ele>
        <time>2015-06-17T14:45:12Z</time>
      </trkpt>
      <trkpt lat="43.40383" lon="6.0729">
        <ele>223.80000305176</ele>
        <time>2015-06-17T14:45:13Z</time>
      </trkpt>
      <trkpt lat="43.40385" lon="6.07287">
        <ele>223.60000610352</ele>
        <time>2015-06-17T14:45:14Z</time>
      </trkpt>
      <trkpt lat="43.40393" lon="6.0728">
        <ele>223.19999694824</ele>
        <time>2015-06-17T14:45:16Z</time>
      </trkpt>
      <trkpt lat="43.40398" lon="6.07279">
        <ele>222.80000305176</ele>
        <time>2015-06-17T14:45:17Z</time>
      </trkpt>
      <trkpt lat="43.40404" lon="6.07279">
        <ele>222.80000305176</ele>
        <time>2015-06-17T14:45:18Z</time>
      </trkpt>
      <trkpt lat="43.40409" lon="6.0728">
        <ele>222.60000610352</ele>
        <time>2015-06-17T14:45:19Z</time>
      </trkpt>
      <trkpt lat="43.40416" lon="6.0728">
        <ele>222.39999389648</ele>
        <time>2015-06-17T14:45:20Z</time>
      </trkpt>
      <trkpt lat="43.40429" lon="6.0728">
        <ele>222</ele>
        <time>2015-06-17T14:45:22Z</time>
      </trkpt>
      <trkpt lat="43.40435" lon="6.0728">
        <ele>221.60000610352</ele>
        <time>2015-06-17T14:45:23Z</time>
      </trkpt>
      <trkpt lat="43.40443" lon="6.0728">
        <ele>221.39999389648</ele>
        <time>2015-06-17T14:45:24Z</time>
      </trkpt>
      <trkpt lat="43.40457" lon="6.07279">
        <ele>220.60000610352</ele>
        <time>2015-06-17T14:45:26Z</time>
      </trkpt>
      <trkpt lat="43.40472" lon="6.07278">
        <ele>220</ele>
        <time>2015-06-17T14:45:28Z</time>
      </trkpt>
      <trkpt lat="43.40479" lon="6.07278">
        <ele>219.60000610352</ele>
        <time>2015-06-17T14:45:29Z</time>
      </trkpt>
      <trkpt lat="43.40487" lon="6.07277">
        <ele>219.39999389648</ele>
        <time>2015-06-17T14:45:30Z</time>
      </trkpt>
      <trkpt lat="43.40494" lon="6.07278">
        <ele>219.19999694824</ele>
        <time>2015-06-17T14:45:31Z</time>
      </trkpt>
      <trkpt lat="43.40501" lon="6.0728">
        <ele>219</ele>
        <time>2015-06-17T14:45:32Z</time>
      </trkpt>
      <trkpt lat="43.40508" lon="6.07284">
        <ele>217.80000305176</ele>
        <time>2015-06-17T14:45:33Z</time>
      </trkpt>
      <trkpt lat="43.40514" lon="6.0729">
        <ele>217.80000305176</ele>
        <time>2015-06-17T14:45:34Z</time>
      </trkpt>
      <trkpt lat="43.40519" lon="6.07294">
        <ele>217.80000305176</ele>
        <time>2015-06-17T14:45:35Z</time>
      </trkpt>
      <trkpt lat="43.40525" lon="6.07296">
        <ele>218</ele>
        <time>2015-06-17T14:45:36Z</time>
      </trkpt>
      <trkpt lat="43.40538" lon="6.07297">
        <ele>217.80000305176</ele>
        <time>2015-06-17T14:45:38Z</time>
      </trkpt>
      <trkpt lat="43.40544" lon="6.07299">
        <ele>218</ele>
        <time>2015-06-17T14:45:39Z</time>
      </trkpt>
      <trkpt lat="43.40549" lon="6.07301">
        <ele>218</ele>
        <time>2015-06-17T14:45:40Z</time>
      </trkpt>
      <trkpt lat="43.40558" lon="6.07304">
        <ele>218</ele>
        <time>2015-06-17T14:45:42Z</time>
      </trkpt>
      <trkpt lat="43.4056" lon="6.07304">
        <ele>218</ele>
        <time>2015-06-17T14:45:43Z</time>
      </trkpt>
      <trkpt lat="43.4056" lon="6.07304">
        <ele>218</ele>
        <time>2015-06-17T14:45:44Z</time>
      </trkpt>
      <trkpt lat="43.40561" lon="6.07304">
        <ele>217.80000305176</ele>
        <time>2015-06-17T14:45:46Z</time>
      </trkpt>
      <trkpt lat="43.40561" lon="6.07304">
        <ele>217.60000610352</ele>
        <time>2015-06-17T14:45:48Z</time>
      </trkpt>
      <trkpt lat="43.40561" lon="6.07304">
        <ele>217.60000610352</ele>
        <time>2015-06-17T14:45:50Z</time>
      </trkpt>
      <trkpt lat="43.40561" lon="6.07304">
        <ele>217.80000305176</ele>
        <time>2015-06-17T14:45:52Z</time>
      </trkpt>
      <trkpt lat="43.40561" lon="6.07304">
        <ele>217.39999389648</ele>
        <time>2015-06-17T14:45:54Z</time>
      </trkpt>
      <trkpt lat="43.40561" lon="6.07304">
        <ele>217.60000610352</ele>
        <time>2015-06-17T14:45:56Z</time>
      </trkpt>
      <trkpt lat="43.40561" lon="6.07304">
        <ele>217.60000610352</ele>
        <time>2015-06-17T14:45:58Z</time>
      </trkpt>
      <trkpt lat="43.40561" lon="6.07304">
        <ele>217.39999389648</ele>
        <time>2015-06-17T14:46:00Z</time>
      </trkpt>
      <trkpt lat="43.40561" lon="6.07304">
        <ele>217.39999389648</ele>
        <time>2015-06-17T14:46:02Z</time>
      </trkpt>
      <trkpt lat="43.40561" lon="6.07304">
        <ele>217.39999389648</ele>
        <time>2015-06-17T14:46:04Z</time>
      </trkpt>
      <trkpt lat="43.40561" lon="6.07304">
        <ele>217.60000610352</ele>
        <time>2015-06-17T14:46:06Z</time>
      </trkpt>
      <trkpt lat="43.40561" lon="6.07304">
        <ele>217.60000610352</ele>
        <time>2015-06-17T14:46:08Z</time>
      </trkpt>
      <trkpt lat="43.40561" lon="6.07304">
        <ele>217.60000610352</ele>
        <time>2015-06-17T14:46:10Z</time>
      </trkpt>
      <trkpt lat="43.40561" lon="6.07304">
        <ele>217.60000610352</ele>
        <time>2015-06-17T14:46:12Z</time>
      </trkpt>
      <trkpt lat="43.40561" lon="6.07304">
        <ele>217.60000610352</ele>
        <time>2015-06-17T14:46:14Z</time>
      </trkpt>
      <trkpt lat="43.40562" lon="6.07305">
        <ele>217.60000610352</ele>
        <time>2015-06-17T14:46:15Z</time>
      </trkpt>
      <trkpt lat="43.40563" lon="6.07305">
        <ele>217.39999389648</ele>
        <time>2015-06-17T14:46:16Z</time>
      </trkpt>
      <trkpt lat="43.40568" lon="6.07305">
        <ele>217.39999389648</ele>
        <time>2015-06-17T14:46:18Z</time>
      </trkpt>
      <trkpt lat="43.40574" lon="6.07305">
        <ele>217</ele>
        <time>2015-06-17T14:46:20Z</time>
      </trkpt>
      <trkpt lat="43.40582" lon="6.07302">
        <ele>217.60000610352</ele>
        <time>2015-06-17T14:46:22Z</time>
      </trkpt>
      <trkpt lat="43.4059" lon="6.07299">
        <ele>217.60000610352</ele>
        <time>2015-06-17T14:46:24Z</time>
      </trkpt>
      <trkpt lat="43.40594" lon="6.07299">
        <ele>217.39999389648</ele>
        <time>2015-06-17T14:46:25Z</time>
      </trkpt>
      <trkpt lat="43.40599" lon="6.07302">
        <ele>217.39999389648</ele>
        <time>2015-06-17T14:46:26Z</time>
      </trkpt>
      <trkpt lat="43.40603" lon="6.07307">
        <ele>217</ele>
        <time>2015-06-17T14:46:27Z</time>
      </trkpt>
      <trkpt lat="43.40608" lon="6.07312">
        <ele>216.80000305176</ele>
        <time>2015-06-17T14:46:28Z</time>
      </trkpt>
      <trkpt lat="43.40616" lon="6.07324">
        <ele>216.39999389648</ele>
        <time>2015-06-17T14:46:30Z</time>
      </trkpt>
      <trkpt lat="43.40623" lon="6.07337">
        <ele>216.19999694824</ele>
        <time>2015-06-17T14:46:32Z</time>
      </trkpt>
      <trkpt lat="43.40633" lon="6.0734">
        <ele>215.80000305176</ele>
        <time>2015-06-17T14:46:34Z</time>
      </trkpt>
      <trkpt lat="43.4064" lon="6.07331">
        <ele>215.80000305176</ele>
        <time>2015-06-17T14:46:36Z</time>
      </trkpt>
      <trkpt lat="43.40644" lon="6.07325">
        <ele>215.80000305176</ele>
        <time>2015-06-17T14:46:37Z</time>
      </trkpt>
      <trkpt lat="43.40649" lon="6.07322">
        <ele>215.39999389648</ele>
        <time>2015-06-17T14:46:38Z</time>
      </trkpt>
      <trkpt lat="43.4066" lon="6.07315">
        <ele>215</ele>
        <time>2015-06-17T14:46:40Z</time>
      </trkpt>
      <trkpt lat="43.40666" lon="6.07311">
        <ele>214.80000305176</ele>
        <time>2015-06-17T14:46:41Z</time>
      </trkpt>
      <trkpt lat="43.40672" lon="6.07307">
        <ele>214.60000610352</ele>
        <time>2015-06-17T14:46:42Z</time>
      </trkpt>
      <trkpt lat="43.40685" lon="6.073">
        <ele>213.80000305176</ele>
        <time>2015-06-17T14:46:44Z</time>
      </trkpt>
      <trkpt lat="43.40692" lon="6.07296">
        <ele>213.60000610352</ele>
        <time>2015-06-17T14:46:45Z</time>
      </trkpt>
      <trkpt lat="43.40699" lon="6.07292">
        <ele>213.39999389648</ele>
        <time>2015-06-17T14:46:46Z</time>
      </trkpt>
      <trkpt lat="43.40712" lon="6.07284">
        <ele>213.39999389648</ele>
        <time>2015-06-17T14:46:48Z</time>
      </trkpt>
      <trkpt lat="43.40727" lon="6.07276">
        <ele>213</ele>
        <time>2015-06-17T14:46:50Z</time>
      </trkpt>
      <trkpt lat="43.40734" lon="6.07272">
        <ele>212.60000610352</ele>
        <time>2015-06-17T14:46:51Z</time>
      </trkpt>
      <trkpt lat="43.40741" lon="6.07268">
        <ele>212.60000610352</ele>
        <time>2015-06-17T14:46:52Z</time>
      </trkpt>
      <trkpt lat="43.40755" lon="6.07259">
        <ele>212.39999389648</ele>
        <time>2015-06-17T14:46:54Z</time>
      </trkpt>
      <trkpt lat="43.40769" lon="6.0725">
        <ele>212</ele>
        <time>2015-06-17T14:46:56Z</time>
      </trkpt>
      <trkpt lat="43.40783" lon="6.07241">
        <ele>211.60000610352</ele>
        <time>2015-06-17T14:46:58Z</time>
      </trkpt>
      <trkpt lat="43.40796" lon="6.07229">
        <ele>211.80000305176</ele>
        <time>2015-06-17T14:47:00Z</time>
      </trkpt>
      <trkpt lat="43.40807" lon="6.07215">
        <ele>211.60000610352</ele>
        <time>2015-06-17T14:47:02Z</time>
      </trkpt>
      <trkpt lat="43.40817" lon="6.072">
        <ele>211.60000610352</ele>
        <time>2015-06-17T14:47:04Z</time>
      </trkpt>
      <trkpt lat="43.40826" lon="6.07183">
        <ele>211.39999389648</ele>
        <time>2015-06-17T14:47:06Z</time>
      </trkpt>
      <trkpt lat="43.4083" lon="6.07174">
        <ele>211.39999389648</ele>
        <time>2015-06-17T14:47:07Z</time>
      </trkpt>
      <trkpt lat="43.40834" lon="6.07165">
        <ele>211.39999389648</ele>
        <time>2015-06-17T14:47:08Z</time>
      </trkpt>
      <trkpt lat="43.40841" lon="6.07146">
        <ele>211.39999389648</ele>
        <time>2015-06-17T14:47:10Z</time>
      </trkpt>
      <trkpt lat="43.40845" lon="6.07126">
        <ele>211.39999389648</ele>
        <time>2015-06-17T14:47:12Z</time>
      </trkpt>
      <trkpt lat="43.40848" lon="6.07107">
        <ele>211.19999694824</ele>
        <time>2015-06-17T14:47:14Z</time>
      </trkpt>
      <trkpt lat="43.4085" lon="6.07087">
        <ele>211.19999694824</ele>
        <time>2015-06-17T14:47:16Z</time>
      </trkpt>
      <trkpt lat="43.40849" lon="6.07078">
        <ele>211</ele>
        <time>2015-06-17T14:47:17Z</time>
      </trkpt>
      <trkpt lat="43.40849" lon="6.07068">
        <ele>211</ele>
        <time>2015-06-17T14:47:18Z</time>
      </trkpt>
      <trkpt lat="43.40848" lon="6.0705">
        <ele>211.19999694824</ele>
        <time>2015-06-17T14:47:20Z</time>
      </trkpt>
      <trkpt lat="43.40846" lon="6.07033">
        <ele>211.39999389648</ele>
        <time>2015-06-17T14:47:22Z</time>
      </trkpt>
      <trkpt lat="43.40845" lon="6.07025">
        <ele>211.39999389648</ele>
        <time>2015-06-17T14:47:23Z</time>
      </trkpt>
      <trkpt lat="43.40845" lon="6.07017">
        <ele>211.39999389648</ele>
        <time>2015-06-17T14:47:24Z</time>
      </trkpt>
      <trkpt lat="43.40852" lon="6.07008">
        <ele>211.39999389648</ele>
        <time>2015-06-17T14:47:26Z</time>
      </trkpt>
      <trkpt lat="43.40862" lon="6.07005">
        <ele>211.39999389648</ele>
        <time>2015-06-17T14:47:28Z</time>
      </trkpt>
      <trkpt lat="43.40867" lon="6.07004">
        <ele>211.39999389648</ele>
        <time>2015-06-17T14:47:29Z</time>
      </trkpt>
      <trkpt lat="43.40873" lon="6.07002">
        <ele>211.39999389648</ele>
        <time>2015-06-17T14:47:30Z</time>
      </trkpt>
      <trkpt lat="43.40884" lon="6.06999">
        <ele>211.19999694824</ele>
        <time>2015-06-17T14:47:32Z</time>
      </trkpt>
      <trkpt lat="43.40895" lon="6.06995">
        <ele>211.19999694824</ele>
        <time>2015-06-17T14:47:34Z</time>
      </trkpt>
      <trkpt lat="43.40903" lon="6.06986">
        <ele>211</ele>
        <time>2015-06-17T14:47:36Z</time>
      </trkpt>
      <trkpt lat="43.40907" lon="6.06972">
        <ele>211.39999389648</ele>
        <time>2015-06-17T14:47:38Z</time>
      </trkpt>
      <trkpt lat="43.40908" lon="6.06965">
        <ele>211.39999389648</ele>
        <time>2015-06-17T14:47:39Z</time>
      </trkpt>
      <trkpt lat="43.4091" lon="6.06959">
        <ele>211.19999694824</ele>
        <time>2015-06-17T14:47:40Z</time>
      </trkpt>
      <trkpt lat="43.40919" lon="6.06951">
        <ele>210.80000305176</ele>
        <time>2015-06-17T14:47:42Z</time>
      </trkpt>
      <trkpt lat="43.40929" lon="6.06948">
        <ele>210.80000305176</ele>
        <time>2015-06-17T14:47:44Z</time>
      </trkpt>
      <trkpt lat="43.4094" lon="6.06946">
        <ele>210.80000305176</ele>
        <time>2015-06-17T14:47:46Z</time>
      </trkpt>
      <trkpt lat="43.40945" lon="6.06946">
        <ele>210.80000305176</ele>
        <time>2015-06-17T14:47:47Z</time>
      </trkpt>
      <trkpt lat="43.40951" lon="6.06944">
        <ele>210.80000305176</ele>
        <time>2015-06-17T14:47:48Z</time>
      </trkpt>
      <trkpt lat="43.40956" lon="6.06942">
        <ele>210.60000610352</ele>
        <time>2015-06-17T14:47:49Z</time>
      </trkpt>
      <trkpt lat="43.40962" lon="6.0694">
        <ele>210.60000610352</ele>
        <time>2015-06-17T14:47:50Z</time>
      </trkpt>
      <trkpt lat="43.40973" lon="6.06936">
        <ele>210.80000305176</ele>
        <time>2015-06-17T14:47:52Z</time>
      </trkpt>
      <trkpt lat="43.40978" lon="6.06934">
        <ele>210.80000305176</ele>
        <time>2015-06-17T14:47:53Z</time>
      </trkpt>
      <trkpt lat="43.40984" lon="6.06931">
        <ele>210.80000305176</ele>
        <time>2015-06-17T14:47:54Z</time>
      </trkpt>
      <trkpt lat="43.40994" lon="6.06926">
        <ele>210.80000305176</ele>
        <time>2015-06-17T14:47:56Z</time>
      </trkpt>
      <trkpt lat="43.41003" lon="6.06922">
        <ele>211</ele>
        <time>2015-06-17T14:47:58Z</time>
      </trkpt>
      <trkpt lat="43.41006" lon="6.0692">
        <ele>211</ele>
        <time>2015-06-17T14:47:59Z</time>
      </trkpt>
      <trkpt lat="43.4101" lon="6.06917">
        <ele>211.19999694824</ele>
        <time>2015-06-17T14:48:00Z</time>
      </trkpt>
      <trkpt lat="43.41017" lon="6.06909">
        <ele>211.39999389648</ele>
        <time>2015-06-17T14:48:02Z</time>
      </trkpt>
      <trkpt lat="43.41018" lon="6.06905">
        <ele>211.60000610352</ele>
        <time>2015-06-17T14:48:03Z</time>
      </trkpt>
      <trkpt lat="43.4102" lon="6.06899">
        <ele>211.60000610352</ele>
        <time>2015-06-17T14:48:04Z</time>
      </trkpt>
      <trkpt lat="43.41026" lon="6.06891">
        <ele>211</ele>
        <time>2015-06-17T14:48:06Z</time>
      </trkpt>
      <trkpt lat="43.41033" lon="6.06885">
        <ele>210.80000305176</ele>
        <time>2015-06-17T14:48:08Z</time>
      </trkpt>
      <trkpt lat="43.4104" lon="6.06881">
        <ele>211.19999694824</ele>
        <time>2015-06-17T14:48:10Z</time>
      </trkpt>
      <trkpt lat="43.41043" lon="6.06879">
        <ele>211.60000610352</ele>
        <time>2015-06-17T14:48:11Z</time>
      </trkpt>
      <trkpt lat="43.41047" lon="6.06878">
        <ele>211.60000610352</ele>
        <time>2015-06-17T14:48:12Z</time>
      </trkpt>
      <trkpt lat="43.41051" lon="6.06876">
        <ele>212.19999694824</ele>
        <time>2015-06-17T14:48:14Z</time>
      </trkpt>
      <trkpt lat="43.41056" lon="6.06873">
        <ele>212.39999389648</ele>
        <time>2015-06-17T14:48:16Z</time>
      </trkpt>
      <trkpt lat="43.41058" lon="6.06872">
        <ele>212.39999389648</ele>
        <time>2015-06-17T14:48:17Z</time>
      </trkpt>
      <trkpt lat="43.4106" lon="6.06871">
        <ele>212.39999389648</ele>
        <time>2015-06-17T14:48:18Z</time>
      </trkpt>
      <trkpt lat="43.41063" lon="6.0687">
        <ele>212.80000305176</ele>
        <time>2015-06-17T14:48:20Z</time>
      </trkpt>
      <trkpt lat="43.41064" lon="6.06868">
        <ele>212.80000305176</ele>
        <time>2015-06-17T14:48:21Z</time>
      </trkpt>
      <trkpt lat="43.41064" lon="6.06863">
        <ele>212.60000610352</ele>
        <time>2015-06-17T14:48:22Z</time>
      </trkpt>
      <trkpt lat="43.41066" lon="6.06852">
        <ele>211.80000305176</ele>
        <time>2015-06-17T14:48:24Z</time>
      </trkpt>
      <trkpt lat="43.41068" lon="6.06846">
        <ele>211.60000610352</ele>
        <time>2015-06-17T14:48:25Z</time>
      </trkpt>
      <trkpt lat="43.4107" lon="6.0684">
        <ele>211.39999389648</ele>
        <time>2015-06-17T14:48:26Z</time>
      </trkpt>
      <trkpt lat="43.41074" lon="6.06829">
        <ele>211.39999389648</ele>
        <time>2015-06-17T14:48:28Z</time>
      </trkpt>
      <trkpt lat="43.41079" lon="6.06818">
        <ele>211.19999694824</ele>
        <time>2015-06-17T14:48:30Z</time>
      </trkpt>
      <trkpt lat="43.4108" lon="6.06812">
        <ele>211.39999389648</ele>
        <time>2015-06-17T14:48:31Z</time>
      </trkpt>
      <trkpt lat="43.41082" lon="6.06806">
        <ele>211.39999389648</ele>
        <time>2015-06-17T14:48:32Z</time>
      </trkpt>
      <trkpt lat="43.41083" lon="6.06796">
        <ele>211.39999389648</ele>
        <time>2015-06-17T14:48:34Z</time>
      </trkpt>
      <trkpt lat="43.41084" lon="6.06785">
        <ele>211.60000610352</ele>
        <time>2015-06-17T14:48:36Z</time>
      </trkpt>
      <trkpt lat="43.41085" lon="6.06774">
        <ele>211.60000610352</ele>
        <time>2015-06-17T14:48:38Z</time>
      </trkpt>
      <trkpt lat="43.41087" lon="6.06764">
        <ele>211.39999389648</ele>
        <time>2015-06-17T14:48:40Z</time>
      </trkpt>
      <trkpt lat="43.4109" lon="6.06757">
        <ele>211.39999389648</ele>
        <time>2015-06-17T14:48:42Z</time>
      </trkpt>
      <trkpt lat="43.41092" lon="6.06754">
        <ele>211.60000610352</ele>
        <time>2015-06-17T14:48:43Z</time>
      </trkpt>
      <trkpt lat="43.41095" lon="6.06752">
        <ele>211.80000305176</ele>
        <time>2015-06-17T14:48:44Z</time>
      </trkpt>
      <trkpt lat="43.411" lon="6.06748">
        <ele>211.80000305176</ele>
        <time>2015-06-17T14:48:46Z</time>
      </trkpt>
      <trkpt lat="43.41105" lon="6.06743">
        <ele>211.60000610352</ele>
        <time>2015-06-17T14:48:48Z</time>
      </trkpt>
      <trkpt lat="43.4111" lon="6.06738">
        <ele>211.80000305176</ele>
        <time>2015-06-17T14:48:50Z</time>
      </trkpt>
      <trkpt lat="43.41116" lon="6.06734">
        <ele>212</ele>
        <time>2015-06-17T14:48:52Z</time>
      </trkpt>
      <trkpt lat="43.41122" lon="6.06731">
        <ele>212.19999694824</ele>
        <time>2015-06-17T14:48:54Z</time>
      </trkpt>
      <trkpt lat="43.41125" lon="6.0673">
        <ele>212.19999694824</ele>
        <time>2015-06-17T14:48:55Z</time>
      </trkpt>
      <trkpt lat="43.41129" lon="6.06728">
        <ele>212.19999694824</ele>
        <time>2015-06-17T14:48:56Z</time>
      </trkpt>
      <trkpt lat="43.41135" lon="6.06726">
        <ele>211.80000305176</ele>
        <time>2015-06-17T14:48:58Z</time>
      </trkpt>
      <trkpt lat="43.41142" lon="6.06724">
        <ele>211.80000305176</ele>
        <time>2015-06-17T14:49:00Z</time>
      </trkpt>
      <trkpt lat="43.41148" lon="6.06723">
        <ele>211.60000610352</ele>
        <time>2015-06-17T14:49:02Z</time>
      </trkpt>
      <trkpt lat="43.41151" lon="6.06722">
        <ele>211.80000305176</ele>
        <time>2015-06-17T14:49:03Z</time>
      </trkpt>
      <trkpt lat="43.41155" lon="6.06721">
        <ele>212.19999694824</ele>
        <time>2015-06-17T14:49:04Z</time>
      </trkpt>
      <trkpt lat="43.41161" lon="6.0672">
        <ele>212.19999694824</ele>
        <time>2015-06-17T14:49:06Z</time>
      </trkpt>
      <trkpt lat="43.41167" lon="6.0672">
        <ele>212.19999694824</ele>
        <time>2015-06-17T14:49:08Z</time>
      </trkpt>
      <trkpt lat="43.41174" lon="6.06721">
        <ele>212.19999694824</ele>
        <time>2015-06-17T14:49:10Z</time>
      </trkpt>
      <trkpt lat="43.41181" lon="6.06721">
        <ele>212.39999389648</ele>
        <time>2015-06-17T14:49:12Z</time>
      </trkpt>
      <trkpt lat="43.41187" lon="6.06722">
        <ele>212.80000305176</ele>
        <time>2015-06-17T14:49:14Z</time>
      </trkpt>
      <trkpt lat="43.41192" lon="6.06723">
        <ele>213.19999694824</ele>
        <time>2015-06-17T14:49:16Z</time>
      </trkpt>
      <trkpt lat="43.41198" lon="6.06723">
        <ele>212.80000305176</ele>
        <time>2015-06-17T14:49:18Z</time>
      </trkpt>
      <trkpt lat="43.41203" lon="6.06723">
        <ele>212.60000610352</ele>
        <time>2015-06-17T14:49:20Z</time>
      </trkpt>
      <trkpt lat="43.4121" lon="6.06724">
        <ele>212.80000305176</ele>
        <time>2015-06-17T14:49:22Z</time>
      </trkpt>
      <trkpt lat="43.41216" lon="6.06724">
        <ele>212.80000305176</ele>
        <time>2015-06-17T14:49:24Z</time>
      </trkpt>
      <trkpt lat="43.41223" lon="6.06723">
        <ele>212.80000305176</ele>
        <time>2015-06-17T14:49:26Z</time>
      </trkpt>
      <trkpt lat="43.41229" lon="6.06724">
        <ele>213.19999694824</ele>
        <time>2015-06-17T14:49:28Z</time>
      </trkpt>
      <trkpt lat="43.41231" lon="6.06724">
        <ele>213.39999389648</ele>
        <time>2015-06-17T14:49:29Z</time>
      </trkpt>
      <trkpt lat="43.41233" lon="6.06725">
        <ele>214</ele>
        <time>2015-06-17T14:49:30Z</time>
      </trkpt>
      <trkpt lat="43.41238" lon="6.06721">
        <ele>214.19999694824</ele>
        <time>2015-06-17T14:49:32Z</time>
      </trkpt>
      <trkpt lat="43.41243" lon="6.06721">
        <ele>214.39999389648</ele>
        <time>2015-06-17T14:49:34Z</time>
      </trkpt>
      <trkpt lat="43.41245" lon="6.06721">
        <ele>214.19999694824</ele>
        <time>2015-06-17T14:49:35Z</time>
      </trkpt>
      <trkpt lat="43.41246" lon="6.06721">
        <ele>214</ele>
        <time>2015-06-17T14:49:36Z</time>
      </trkpt>
      <trkpt lat="43.41249" lon="6.06721">
        <ele>214</ele>
        <time>2015-06-17T14:49:38Z</time>
      </trkpt>
      <trkpt lat="43.41252" lon="6.06722">
        <ele>214</ele>
        <time>2015-06-17T14:49:40Z</time>
      </trkpt>
      <trkpt lat="43.41254" lon="6.06723">
        <ele>214</ele>
        <time>2015-06-17T14:49:41Z</time>
      </trkpt>
      <trkpt lat="43.41256" lon="6.06725">
        <ele>214.19999694824</ele>
        <time>2015-06-17T14:49:42Z</time>
      </trkpt>
      <trkpt lat="43.4126" lon="6.06729">
        <ele>214.19999694824</ele>
        <time>2015-06-17T14:49:44Z</time>
      </trkpt>
      <trkpt lat="43.41263" lon="6.06734">
        <ele>214.19999694824</ele>
        <time>2015-06-17T14:49:46Z</time>
      </trkpt>
      <trkpt lat="43.41265" lon="6.06737">
        <ele>214.19999694824</ele>
        <time>2015-06-17T14:49:47Z</time>
      </trkpt>
      <trkpt lat="43.41267" lon="6.06741">
        <ele>214.60000610352</ele>
        <time>2015-06-17T14:49:48Z</time>
      </trkpt>
      <trkpt lat="43.4127" lon="6.06748">
        <ele>214.60000610352</ele>
        <time>2015-06-17T14:49:50Z</time>
      </trkpt>
      <trkpt lat="43.41274" lon="6.06755">
        <ele>214.60000610352</ele>
        <time>2015-06-17T14:49:52Z</time>
      </trkpt>
      <trkpt lat="43.41278" lon="6.06763">
        <ele>214.60000610352</ele>
        <time>2015-06-17T14:49:54Z</time>
      </trkpt>
      <trkpt lat="43.41282" lon="6.0677">
        <ele>215</ele>
        <time>2015-06-17T14:49:56Z</time>
      </trkpt>
      <trkpt lat="43.41287" lon="6.06777">
        <ele>215.39999389648</ele>
        <time>2015-06-17T14:49:58Z</time>
      </trkpt>
      <trkpt lat="43.41293" lon="6.06784">
        <ele>215.60000610352</ele>
        <time>2015-06-17T14:50:00Z</time>
      </trkpt>
      <trkpt lat="43.41296" lon="6.06787">
        <ele>215.60000610352</ele>
        <time>2015-06-17T14:50:01Z</time>
      </trkpt>
      <trkpt lat="43.41298" lon="6.06791">
        <ele>215.60000610352</ele>
        <time>2015-06-17T14:50:02Z</time>
      </trkpt>
      <trkpt lat="43.41305" lon="6.06797">
        <ele>215.80000305176</ele>
        <time>2015-06-17T14:50:04Z</time>
      </trkpt>
      <trkpt lat="43.41312" lon="6.06802">
        <ele>216</ele>
        <time>2015-06-17T14:50:06Z</time>
      </trkpt>
      <trkpt lat="43.41315" lon="6.06805">
        <ele>216.19999694824</ele>
        <time>2015-06-17T14:50:07Z</time>
      </trkpt>
      <trkpt lat="43.41319" lon="6.06808">
        <ele>216.39999389648</ele>
        <time>2015-06-17T14:50:08Z</time>
      </trkpt>
      <trkpt lat="43.41327" lon="6.06812">
        <ele>216.80000305176</ele>
        <time>2015-06-17T14:50:10Z</time>
      </trkpt>
      <trkpt lat="43.41335" lon="6.06816">
        <ele>216.80000305176</ele>
        <time>2015-06-17T14:50:12Z</time>
      </trkpt>
      <trkpt lat="43.41342" lon="6.0682">
        <ele>216.80000305176</ele>
        <time>2015-06-17T14:50:14Z</time>
      </trkpt>
      <trkpt lat="43.4135" lon="6.06824">
        <ele>216.80000305176</ele>
        <time>2015-06-17T14:50:16Z</time>
      </trkpt>
      <trkpt lat="43.41357" lon="6.06828">
        <ele>217</ele>
        <time>2015-06-17T14:50:18Z</time>
      </trkpt>
      <trkpt lat="43.41365" lon="6.06831">
        <ele>217.19999694824</ele>
        <time>2015-06-17T14:50:20Z</time>
      </trkpt>
      <trkpt lat="43.41373" lon="6.06835">
        <ele>217.19999694824</ele>
        <time>2015-06-17T14:50:22Z</time>
      </trkpt>
      <trkpt lat="43.41381" lon="6.0684">
        <ele>217.19999694824</ele>
        <time>2015-06-17T14:50:24Z</time>
      </trkpt>
      <trkpt lat="43.41389" lon="6.06846">
        <ele>217</ele>
        <time>2015-06-17T14:50:26Z</time>
      </trkpt>
      <trkpt lat="43.41398" lon="6.06853">
        <ele>217</ele>
        <time>2015-06-17T14:50:28Z</time>
      </trkpt>
      <trkpt lat="43.41406" lon="6.06863">
        <ele>217</ele>
        <time>2015-06-17T14:50:30Z</time>
      </trkpt>
      <trkpt lat="43.41413" lon="6.06875">
        <ele>216.80000305176</ele>
        <time>2015-06-17T14:50:32Z</time>
      </trkpt>
      <trkpt lat="43.41417" lon="6.06888">
        <ele>217</ele>
        <time>2015-06-17T14:50:34Z</time>
      </trkpt>
      <trkpt lat="43.41422" lon="6.06901">
        <ele>216.60000610352</ele>
        <time>2015-06-17T14:50:36Z</time>
      </trkpt>
      <trkpt lat="43.41424" lon="6.06908">
        <ele>216.60000610352</ele>
        <time>2015-06-17T14:50:37Z</time>
      </trkpt>
      <trkpt lat="43.41427" lon="6.06913">
        <ele>216.80000305176</ele>
        <time>2015-06-17T14:50:38Z</time>
      </trkpt>
      <trkpt lat="43.41435" lon="6.06921">
        <ele>217</ele>
        <time>2015-06-17T14:50:40Z</time>
      </trkpt>
      <trkpt lat="43.41445" lon="6.06924">
        <ele>216.80000305176</ele>
        <time>2015-06-17T14:50:42Z</time>
      </trkpt>
      <trkpt lat="43.41456" lon="6.06926">
        <ele>216.60000610352</ele>
        <time>2015-06-17T14:50:44Z</time>
      </trkpt>
      <trkpt lat="43.4146" lon="6.06928">
        <ele>216.39999389648</ele>
        <time>2015-06-17T14:50:45Z</time>
      </trkpt>
      <trkpt lat="43.41465" lon="6.06932">
        <ele>216.39999389648</ele>
        <time>2015-06-17T14:50:46Z</time>
      </trkpt>
      <trkpt lat="43.41468" lon="6.06937">
        <ele>216.39999389648</ele>
        <time>2015-06-17T14:50:47Z</time>
      </trkpt>
      <trkpt lat="43.41471" lon="6.06942">
        <ele>216.19999694824</ele>
        <time>2015-06-17T14:50:48Z</time>
      </trkpt>
      <trkpt lat="43.41477" lon="6.06946">
        <ele>216</ele>
        <time>2015-06-17T14:50:50Z</time>
      </trkpt>
      <trkpt lat="43.4148" lon="6.06945">
        <ele>216</ele>
        <time>2015-06-17T14:50:51Z</time>
      </trkpt>
      <trkpt lat="43.41484" lon="6.06947">
        <ele>216.19999694824</ele>
        <time>2015-06-17T14:50:52Z</time>
      </trkpt>
      <trkpt lat="43.41489" lon="6.06954">
        <ele>216.39999389648</ele>
        <time>2015-06-17T14:50:54Z</time>
      </trkpt>
      <trkpt lat="43.41494" lon="6.06961">
        <ele>216.19999694824</ele>
        <time>2015-06-17T14:50:56Z</time>
      </trkpt>
      <trkpt lat="43.41501" lon="6.06966">
        <ele>216.39999389648</ele>
        <time>2015-06-17T14:50:58Z</time>
      </trkpt>
      <trkpt lat="43.41504" lon="6.06968">
        <ele>216.60000610352</ele>
        <time>2015-06-17T14:50:59Z</time>
      </trkpt>
      <trkpt lat="43.41505" lon="6.0697">
        <ele>216.60000610352</ele>
        <time>2015-06-17T14:51:00Z</time>
      </trkpt>
      <trkpt lat="43.4151" lon="6.06973">
        <ele>216.80000305176</ele>
        <time>2015-06-17T14:51:02Z</time>
      </trkpt>
      <trkpt lat="43.41515" lon="6.06974">
        <ele>217</ele>
        <time>2015-06-17T14:51:04Z</time>
      </trkpt>
      <trkpt lat="43.41519" lon="6.06975">
        <ele>216.39999389648</ele>
        <time>2015-06-17T14:51:06Z</time>
      </trkpt>
      <trkpt lat="43.41524" lon="6.06975">
        <ele>216.39999389648</ele>
        <time>2015-06-17T14:51:08Z</time>
      </trkpt>
      <trkpt lat="43.41529" lon="6.06973">
        <ele>216.60000610352</ele>
        <time>2015-06-17T14:51:10Z</time>
      </trkpt>
      <trkpt lat="43.41534" lon="6.06972">
        <ele>216.39999389648</ele>
        <time>2015-06-17T14:51:12Z</time>
      </trkpt>
      <trkpt lat="43.41538" lon="6.06972">
        <ele>216.39999389648</ele>
        <time>2015-06-17T14:51:14Z</time>
      </trkpt>
      <trkpt lat="43.41542" lon="6.06972">
        <ele>216.39999389648</ele>
        <time>2015-06-17T14:51:16Z</time>
      </trkpt>
      <trkpt lat="43.41546" lon="6.06972">
        <ele>216.60000610352</ele>
        <time>2015-06-17T14:51:18Z</time>
      </trkpt>
      <trkpt lat="43.4155" lon="6.0697">
        <ele>216.80000305176</ele>
        <time>2015-06-17T14:51:20Z</time>
      </trkpt>
      <trkpt lat="43.41552" lon="6.06969">
        <ele>217</ele>
        <time>2015-06-17T14:51:22Z</time>
      </trkpt>
      <trkpt lat="43.41552" lon="6.06969">
        <ele>217</ele>
        <time>2015-06-17T14:51:24Z</time>
      </trkpt>
      <trkpt lat="43.41552" lon="6.06969">
        <ele>217</ele>
        <time>2015-06-17T14:51:26Z</time>
      </trkpt>
      <trkpt lat="43.41552" lon="6.06969">
        <ele>217.19999694824</ele>
        <time>2015-06-17T14:51:28Z</time>
      </trkpt>
      <trkpt lat="43.41552" lon="6.06969">
        <ele>217</ele>
        <time>2015-06-17T14:51:30Z</time>
      </trkpt>
      <trkpt lat="43.41553" lon="6.06969">
        <ele>217</ele>
        <time>2015-06-17T14:51:32Z</time>
      </trkpt>
      <trkpt lat="43.41553" lon="6.06969">
        <ele>217</ele>
        <time>2015-06-17T14:51:33Z</time>
      </trkpt>
      <trkpt lat="43.41553" lon="6.06969">
        <ele>217</ele>
        <time>2015-06-17T14:51:34Z</time>
      </trkpt>
      <trkpt lat="43.41553" lon="6.06969">
        <ele>216.80000305176</ele>
        <time>2015-06-17T14:51:36Z</time>
      </trkpt>
      <trkpt lat="43.41553" lon="6.06969">
        <ele>217</ele>
        <time>2015-06-17T14:51:38Z</time>
      </trkpt>
      <trkpt lat="43.41553" lon="6.0697">
        <ele>217</ele>
        <time>2015-06-17T14:51:40Z</time>
      </trkpt>
      <trkpt lat="43.41553" lon="6.0697">
        <ele>217</ele>
        <time>2015-06-17T14:51:41Z</time>
      </trkpt>
      <trkpt lat="43.41553" lon="6.0697">
        <ele>217</ele>
        <time>2015-06-17T14:51:42Z</time>
      </trkpt>
      <trkpt lat="43.41553" lon="6.0697">
        <ele>217</ele>
        <time>2015-06-17T14:51:44Z</time>
      </trkpt>
      <trkpt lat="43.41552" lon="6.0697">
        <ele>217.19999694824</ele>
        <time>2015-06-17T14:51:46Z</time>
      </trkpt>
      <trkpt lat="43.41553" lon="6.0697">
        <ele>217.19999694824</ele>
        <time>2015-06-17T14:51:48Z</time>
      </trkpt>
      <trkpt lat="43.41553" lon="6.0697">
        <ele>217.19999694824</ele>
        <time>2015-06-17T14:51:50Z</time>
      </trkpt>
      <trkpt lat="43.41553" lon="6.0697">
        <ele>217.19999694824</ele>
        <time>2015-06-17T14:51:52Z</time>
      </trkpt>
      <trkpt lat="43.41553" lon="6.0697">
        <ele>217.19999694824</ele>
        <time>2015-06-17T14:51:54Z</time>
      </trkpt>
      <trkpt lat="43.41553" lon="6.0697">
        <ele>217.19999694824</ele>
        <time>2015-06-17T14:51:56Z</time>
      </trkpt>
      <trkpt lat="43.41553" lon="6.06971">
        <ele>217.19999694824</ele>
        <time>2015-06-17T14:51:58Z</time>
      </trkpt>
      <trkpt lat="43.41553" lon="6.06971">
        <ele>217</ele>
        <time>2015-06-17T14:52:00Z</time>
      </trkpt>
      <trkpt lat="43.41553" lon="6.06971">
        <ele>217</ele>
        <time>2015-06-17T14:52:01Z</time>
      </trkpt>
      <trkpt lat="43.41554" lon="6.0697">
        <ele>217</ele>
        <time>2015-06-17T14:52:02Z</time>
      </trkpt>
      <trkpt lat="43.41554" lon="6.06971">
        <ele>217.19999694824</ele>
        <time>2015-06-17T14:52:04Z</time>
      </trkpt>
      <trkpt lat="43.41554" lon="6.06971">
        <ele>217.19999694824</ele>
        <time>2015-06-17T14:52:06Z</time>
      </trkpt>
      <trkpt lat="43.41555" lon="6.06971">
        <ele>217</ele>
        <time>2015-06-17T14:52:08Z</time>
      </trkpt>
      <trkpt lat="43.41558" lon="6.0697">
        <ele>217</ele>
        <time>2015-06-17T14:52:10Z</time>
      </trkpt>
      <trkpt lat="43.41562" lon="6.06968">
        <ele>217</ele>
        <time>2015-06-17T14:52:12Z</time>
      </trkpt>
      <trkpt lat="43.41566" lon="6.06967">
        <ele>217.80000305176</ele>
        <time>2015-06-17T14:52:14Z</time>
      </trkpt>
      <trkpt lat="43.41568" lon="6.06966">
        <ele>218</ele>
        <time>2015-06-17T14:52:15Z</time>
      </trkpt>
      <trkpt lat="43.4157" lon="6.06966">
        <ele>218</ele>
        <time>2015-06-17T14:52:16Z</time>
      </trkpt>
      <trkpt lat="43.41572" lon="6.06969">
        <ele>218.39999389648</ele>
        <time>2015-06-17T14:52:18Z</time>
      </trkpt>
      <trkpt lat="43.41572" lon="6.06976">
        <ele>218.19999694824</ele>
        <time>2015-06-17T14:52:20Z</time>
      </trkpt>
      <trkpt lat="43.41573" lon="6.06984">
        <ele>217.19999694824</ele>
        <time>2015-06-17T14:52:22Z</time>
      </trkpt>
      <trkpt lat="43.41573" lon="6.06988">
        <ele>217.39999389648</ele>
        <time>2015-06-17T14:52:23Z</time>
      </trkpt>
      <trkpt lat="43.41574" lon="6.06992">
        <ele>217.60000610352</ele>
        <time>2015-06-17T14:52:24Z</time>
      </trkpt>
      <trkpt lat="43.41575" lon="6.07">
        <ele>217.39999389648</ele>
        <time>2015-06-17T14:52:26Z</time>
      </trkpt>
      <trkpt lat="43.41576" lon="6.07007">
        <ele>217.39999389648</ele>
        <time>2015-06-17T14:52:28Z</time>
      </trkpt>
      <trkpt lat="43.41576" lon="6.07015">
        <ele>217.39999389648</ele>
        <time>2015-06-17T14:52:30Z</time>
      </trkpt>
      <trkpt lat="43.41577" lon="6.07019">
        <ele>217.39999389648</ele>
        <time>2015-06-17T14:52:31Z</time>
      </trkpt>
      <trkpt lat="43.41577" lon="6.07022">
        <ele>217.39999389648</ele>
        <time>2015-06-17T14:52:32Z</time>
      </trkpt>
      <trkpt lat="43.41578" lon="6.07028">
        <ele>217.60000610352</ele>
        <time>2015-06-17T14:52:34Z</time>
      </trkpt>
      <trkpt lat="43.41578" lon="6.07033">
        <ele>217.60000610352</ele>
        <time>2015-06-17T14:52:36Z</time>
      </trkpt>
      <trkpt lat="43.41578" lon="6.07034">
        <ele>217.39999389648</ele>
        <time>2015-06-17T14:52:38Z</time>
      </trkpt>
      <trkpt lat="43.41578" lon="6.07034">
        <ele>217.39999389648</ele>
        <time>2015-06-17T14:52:40Z</time>
      </trkpt>
      <trkpt lat="43.41578" lon="6.07034">
        <ele>217.39999389648</ele>
        <time>2015-06-17T14:52:42Z</time>
      </trkpt>
    </trkseg>
  </trk>
</gpx>